<?xml version='1.0' encoding='UTF-8'?><gpx version="1.1" creator="JPX - https://github.com/jenetics/jpx" xmlns="http://www.topografix.com/GPX/1/1"><trk><trkseg><trkpt lat="45.10548826436752" lon="13.712032081538567"><ele>153.0</ele><time>2026-05-02T16:46:26Z</time></trkpt><trkpt lat="45.10549940433534" lon="13.712122493413029"><ele>153.0</ele><time>2026-05-02T16:46:29Z</time></trkpt><trkpt lat="45.105438918053245" lon="13.712175386008907"><ele>153.0</ele><time>2026-05-02T16:46:31Z</time></trkpt><trkpt lat="45.10536291537311" lon="13.712264522189324"><ele>153.0</ele><time>2026-05-02T16:46:34Z</time></trkpt><trkpt lat="45.105307765787835" lon="13.712357414126304"><ele>153.0</ele><time>2026-05-02T16:46:36Z</time></trkpt><trkpt lat="45.10524956907025" lon="13.712450160181335"><ele>153.0</ele><time>2026-05-02T16:46:38Z</time></trkpt><trkpt lat="45.10517280210841" lon="13.712565689756223"><ele>153.0</ele><time>2026-05-02T16:46:40Z</time></trkpt><trkpt lat="45.105096015690535" lon="13.712671120791947"><ele>153.0</ele><time>2026-05-02T16:46:42Z</time></trkpt><trkpt lat="45.10502373987477" lon="13.712754700151036"><ele>153.0</ele><time>2026-05-02T16:46:44Z</time></trkpt><trkpt lat="45.10495375627149" lon="13.712827093382362"><ele>153.0</ele><time>2026-05-02T16:46:46Z</time></trkpt><trkpt lat="45.10489008547954" lon="13.71290169285013"><ele>153.0</ele><time>2026-05-02T16:46:48Z</time></trkpt><trkpt lat="45.10486835349599" lon="13.713004903228141"><ele>153.0</ele><time>2026-05-02T16:46:53Z</time></trkpt><trkpt lat="45.104912944293424" lon="13.713075885742688"><ele>153.6</ele><time>2026-05-02T16:46:55Z</time></trkpt><trkpt lat="45.10497651211227" lon="13.713178455678428"><ele>154.20000000000002</ele><time>2026-05-02T16:46:57Z</time></trkpt><trkpt lat="45.105016354970886" lon="13.713268267626345"><ele>154.8</ele><time>2026-05-02T16:46:59Z</time></trkpt><trkpt lat="45.10508959828858" lon="13.713346792941563"><ele>155.4</ele><time>2026-05-02T16:47:01Z</time></trkpt><trkpt lat="45.10517354213643" lon="13.713441120454544"><ele>156.0</ele><time>2026-05-02T16:47:03Z</time></trkpt><trkpt lat="45.10522709299959" lon="13.713581290230627"><ele>156.16666666666666</ele><time>2026-05-02T16:47:05Z</time></trkpt><trkpt lat="45.10529753868135" lon="13.713699031171226"><ele>156.33333333333334</ele><time>2026-05-02T16:47:07Z</time></trkpt><trkpt lat="45.10537580496609" lon="13.71381393661709"><ele>156.5</ele><time>2026-05-02T16:47:09Z</time></trkpt><trkpt lat="45.10542581558602" lon="13.7138695067556"><ele>156.66666666666669</ele><time>2026-05-02T16:47:10Z</time></trkpt><trkpt lat="45.105483316536954" lon="13.713914215400242"><ele>156.83333333333334</ele><time>2026-05-02T16:47:11Z</time></trkpt><trkpt lat="45.10554134993247" lon="13.713957880575078"><ele>157.0</ele><time>2026-05-02T16:47:12Z</time></trkpt><trkpt lat="45.1056001643515" lon="13.714000383548507"><ele>157.0</ele><time>2026-05-02T16:47:13Z</time></trkpt><trkpt lat="45.10565870952951" lon="13.714042691949714"><ele>157.0</ele><time>2026-05-02T16:47:14Z</time></trkpt><trkpt lat="45.10571591414269" lon="13.71408403157556"><ele>157.0</ele><time>2026-05-02T16:47:15Z</time></trkpt><trkpt lat="45.10581299333255" lon="13.714172356956762"><ele>157.0</ele><time>2026-05-02T16:47:16.999Z</time></trkpt><trkpt lat="45.10588460990515" lon="13.714272131645595"><ele>157.0</ele><time>2026-05-02T16:47:18.999Z</time></trkpt><trkpt lat="45.105952872337895" lon="13.714386175422705"><ele>157.0</ele><time>2026-05-02T16:47:20.999Z</time></trkpt><trkpt lat="45.10601991988034" lon="13.714491344622301"><ele>157.0</ele><time>2026-05-02T16:47:22.999Z</time></trkpt><trkpt lat="45.10610873803756" lon="13.714579441533589"><ele>157.0</ele><time>2026-05-02T16:47:24.999Z</time></trkpt><trkpt lat="45.1062133258777" lon="13.714652131602326"><ele>157.0</ele><time>2026-05-02T16:47:26.999Z</time></trkpt><trkpt lat="45.10629497929539" lon="13.714724917455902"><ele>157.0</ele><time>2026-05-02T16:47:28.999Z</time></trkpt><trkpt lat="45.10636684195576" lon="13.714777344586384"><ele>157.0</ele><time>2026-05-02T16:47:30.999Z</time></trkpt><trkpt lat="45.10641692601169" lon="13.71484358598811"><ele>157.0</ele><time>2026-05-02T16:47:32.999Z</time></trkpt><trkpt lat="45.106474964944894" lon="13.714892684100366"><ele>157.0</ele><time>2026-05-02T16:47:38Z</time></trkpt><trkpt lat="45.10653557381581" lon="13.714809368474757"><ele>157.0</ele><time>2026-05-02T16:47:39Z</time></trkpt><trkpt lat="45.106588024359446" lon="13.714684561609834"><ele>157.0</ele><time>2026-05-02T16:47:41Z</time></trkpt><trkpt lat="45.106639001984526" lon="13.71457106832572"><ele>157.0</ele><time>2026-05-02T16:47:43Z</time></trkpt><trkpt lat="45.10670804547568" lon="13.714432310903339"><ele>156.5</ele><time>2026-05-02T16:47:45Z</time></trkpt><trkpt lat="45.106765805513625" lon="13.714357349261073"><ele>156.0</ele><time>2026-05-02T16:47:46Z</time></trkpt><trkpt lat="45.106821646465676" lon="13.714263675650818"><ele>155.5</ele><time>2026-05-02T16:47:47Z</time></trkpt><trkpt lat="45.10687271865904" lon="13.714176334059129"><ele>155.0</ele><time>2026-05-02T16:47:48Z</time></trkpt><trkpt lat="45.106930841527955" lon="13.71410468788535"><ele>154.5</ele><time>2026-05-02T16:47:49Z</time></trkpt><trkpt lat="45.10699315559338" lon="13.714046478964159"><ele>154.0</ele><time>2026-05-02T16:47:50Z</time></trkpt><trkpt lat="45.10705862948847" lon="13.713977254859161"><ele>154.0</ele><time>2026-05-02T16:47:51Z</time></trkpt><trkpt lat="45.10713170183152" lon="13.71389873690214"><ele>154.0</ele><time>2026-05-02T16:47:52Z</time></trkpt><trkpt lat="45.1071964932665" lon="13.713824927120816"><ele>154.0</ele><time>2026-05-02T16:47:53Z</time></trkpt><trkpt lat="45.10726530125442" lon="13.713746151874545"><ele>154.0</ele><time>2026-05-02T16:47:54Z</time></trkpt><trkpt lat="45.107331585180475" lon="13.713668913982781"><ele>154.0</ele><time>2026-05-02T16:47:55Z</time></trkpt><trkpt lat="45.10740068684394" lon="13.713588337346726"><ele>154.0</ele><time>2026-05-02T16:47:56Z</time></trkpt><trkpt lat="45.10747073448652" lon="13.713507206362127"><ele>152.8</ele><time>2026-05-02T16:47:57Z</time></trkpt><trkpt lat="45.10754557188487" lon="13.713423823529354"><ele>151.60000000000002</ele><time>2026-05-02T16:47:58Z</time></trkpt><trkpt lat="45.10761745207565" lon="13.713340567865059"><ele>150.4</ele><time>2026-05-02T16:47:59Z</time></trkpt><trkpt lat="45.10769267239769" lon="13.713255047417457"><ele>149.20000000000002</ele><time>2026-05-02T16:48:00Z</time></trkpt><trkpt lat="45.10776586328808" lon="13.71317183430746"><ele>148.0</ele><time>2026-05-02T16:48:01Z</time></trkpt><trkpt lat="45.107833790575754" lon="13.713094605553689"><ele>148.0</ele><time>2026-05-02T16:48:02Z</time></trkpt><trkpt lat="45.10789833814562" lon="13.713021219314621"><ele>148.0</ele><time>2026-05-02T16:48:03Z</time></trkpt><trkpt lat="45.10796180986944" lon="13.712949593742954"><ele>148.0</ele><time>2026-05-02T16:48:04Z</time></trkpt><trkpt lat="45.108026145035254" lon="13.71288045930799"><ele>148.0</ele><time>2026-05-02T16:48:05Z</time></trkpt><trkpt lat="45.1080866527326" lon="13.712823808073168"><ele>148.0</ele><time>2026-05-02T16:48:06Z</time></trkpt><trkpt lat="45.108145152791046" lon="13.712772899636022"><ele>148.0</ele><time>2026-05-02T16:48:07Z</time></trkpt><trkpt lat="45.10825138285596" lon="13.71272983826278"><ele>146.33333333333334</ele><time>2026-05-02T16:48:09Z</time></trkpt><trkpt lat="45.1083181762596" lon="13.712701903967654"><ele>144.66666666666669</ele><time>2026-05-02T16:48:11Z</time></trkpt><trkpt lat="45.108378704780925" lon="13.712658717271477"><ele>143.0</ele><time>2026-05-02T16:48:20Z</time></trkpt><trkpt lat="45.10846323958063" lon="13.712640611727181"><ele>141.33333333333334</ele><time>2026-05-02T16:48:22Z</time></trkpt><trkpt lat="45.108556317203174" lon="13.712615539217634"><ele>139.66666666666666</ele><time>2026-05-02T16:48:24Z</time></trkpt><trkpt lat="45.108628002685975" lon="13.712609796450032"><ele>138.0</ele><time>2026-05-02T16:48:26Z</time></trkpt><trkpt lat="45.108703519343" lon="13.712625166912959"><ele>138.0</ele><time>2026-05-02T16:48:58Z</time></trkpt><trkpt lat="45.10876692717834" lon="13.712632108379177"><ele>138.0</ele><time>2026-05-02T16:49:01Z</time></trkpt><trkpt lat="45.108859490249294" lon="13.712649185315998"><ele>138.0</ele><time>2026-05-02T16:49:03Z</time></trkpt><trkpt lat="45.10893014558995" lon="13.712751799275997"><ele>138.0</ele><time>2026-05-02T16:49:05Z</time></trkpt><trkpt lat="45.108961229742576" lon="13.71284733746696"><ele>138.0</ele><time>2026-05-02T16:49:06Z</time></trkpt><trkpt lat="45.10899719530955" lon="13.712959325435653"><ele>138.0</ele><time>2026-05-02T16:49:07Z</time></trkpt><trkpt lat="45.10904178293573" lon="13.713077725762435"><ele>137.6</ele><time>2026-05-02T16:49:08Z</time></trkpt><trkpt lat="45.10907718027208" lon="13.713206714031234"><ele>137.20000000000002</ele><time>2026-05-02T16:49:09Z</time></trkpt><trkpt lat="45.10911787396921" lon="13.713343490915252"><ele>136.8</ele><time>2026-05-02T16:49:10Z</time></trkpt><trkpt lat="45.10917262909234" lon="13.713492151312831"><ele>136.4</ele><time>2026-05-02T16:49:11Z</time></trkpt><trkpt lat="45.109226382591494" lon="13.713638724110954"><ele>136.0</ele><time>2026-05-02T16:49:12Z</time></trkpt><trkpt lat="45.10928467336248" lon="13.713800595668253"><ele>136.0</ele><time>2026-05-02T16:49:13Z</time></trkpt><trkpt lat="45.10932626569551" lon="13.713986132696318"><ele>136.0</ele><time>2026-05-02T16:49:14Z</time></trkpt><trkpt lat="45.109386083511936" lon="13.714167009350001"><ele>136.0</ele><time>2026-05-02T16:49:15Z</time></trkpt><trkpt lat="45.109448597157645" lon="13.71434794428717"><ele>136.0</ele><time>2026-05-02T16:49:16Z</time></trkpt><trkpt lat="45.10951435111277" lon="13.71453912784654"><ele>136.0</ele><time>2026-05-02T16:49:17Z</time></trkpt><trkpt lat="45.109582244040915" lon="13.714742256474576"><ele>136.0</ele><time>2026-05-02T16:49:18Z</time></trkpt><trkpt lat="45.10966617823717" lon="13.714944444223942"><ele>136.0</ele><time>2026-05-02T16:49:19Z</time></trkpt><trkpt lat="45.109731542445566" lon="13.715163024170854"><ele>136.33333333333334</ele><time>2026-05-02T16:49:20Z</time></trkpt><trkpt lat="45.10977778993936" lon="13.715397231098708"><ele>136.66666666666666</ele><time>2026-05-02T16:49:21Z</time></trkpt><trkpt lat="45.1098289325255" lon="13.715628111200052"><ele>137.0</ele><time>2026-05-02T16:49:22Z</time></trkpt><trkpt lat="45.109875983430456" lon="13.715869315748481"><ele>135.0</ele><time>2026-05-02T16:49:23Z</time></trkpt><trkpt lat="45.10991603339025" lon="13.71611622738715"><ele>133.0</ele><time>2026-05-02T16:49:24Z</time></trkpt><trkpt lat="45.109938542446436" lon="13.716367000964365"><ele>131.0</ele><time>2026-05-02T16:49:25Z</time></trkpt><trkpt lat="45.10995734467601" lon="13.716634649877804"><ele>130.33333333333331</ele><time>2026-05-02T16:49:26Z</time></trkpt><trkpt lat="45.10996863194293" lon="13.716903103406139"><ele>129.66666666666666</ele><time>2026-05-02T16:49:27Z</time></trkpt><trkpt lat="45.10997630420765" lon="13.717182869097373"><ele>129.0</ele><time>2026-05-02T16:49:28Z</time></trkpt><trkpt lat="45.10998301323441" lon="13.717456762127098"><ele>129.0</ele><time>2026-05-02T16:49:29Z</time></trkpt><trkpt lat="45.11000257151734" lon="13.717733396740918"><ele>129.0</ele><time>2026-05-02T16:49:30Z</time></trkpt><trkpt lat="45.11000402039416" lon="13.718009321711916"><ele>129.0</ele><time>2026-05-02T16:49:31Z</time></trkpt><trkpt lat="45.10998355096604" lon="13.718288329865024"><ele>129.0</ele><time>2026-05-02T16:49:32Z</time></trkpt><trkpt lat="45.10996905183521" lon="13.71856914594596"><ele>129.0</ele><time>2026-05-02T16:49:33Z</time></trkpt><trkpt lat="45.1099585043789" lon="13.718854612198273"><ele>129.0</ele><time>2026-05-02T16:49:34Z</time></trkpt><trkpt lat="45.10991591061986" lon="13.719139498930154"><ele>129.66666666666666</ele><time>2026-05-02T16:49:35Z</time></trkpt><trkpt lat="45.109863822005664" lon="13.719421950766208"><ele>130.33333333333331</ele><time>2026-05-02T16:49:36Z</time></trkpt><trkpt lat="45.109800975674936" lon="13.719701536546642"><ele>131.0</ele><time>2026-05-02T16:49:37Z</time></trkpt><trkpt lat="45.10972631741545" lon="13.719974998717774"><ele>131.0</ele><time>2026-05-02T16:49:38Z</time></trkpt><trkpt lat="45.10964226302398" lon="13.720247886537951"><ele>131.0</ele><time>2026-05-02T16:49:39Z</time></trkpt><trkpt lat="45.109547770690206" lon="13.720507710916193"><ele>131.0</ele><time>2026-05-02T16:49:40Z</time></trkpt><trkpt lat="45.10944124557373" lon="13.72077964255998"><ele>131.0</ele><time>2026-05-02T16:49:41Z</time></trkpt><trkpt lat="45.109336513554815" lon="13.721040380230837"><ele>131.0</ele><time>2026-05-02T16:49:42Z</time></trkpt><trkpt lat="45.10923367309311" lon="13.721301009189164"><ele>131.0</ele><time>2026-05-02T16:49:43Z</time></trkpt><trkpt lat="45.10913027460861" lon="13.721570723388457"><ele>131.0</ele><time>2026-05-02T16:49:44Z</time></trkpt><trkpt lat="45.109028773126056" lon="13.721837680552404"><ele>131.0</ele><time>2026-05-02T16:49:45Z</time></trkpt><trkpt lat="45.108924588787566" lon="13.722098905245462"><ele>131.0</ele><time>2026-05-02T16:49:46Z</time></trkpt><trkpt lat="45.10882148776904" lon="13.72236239247423"><ele>131.0</ele><time>2026-05-02T16:49:47Z</time></trkpt><trkpt lat="45.108718753762496" lon="13.722624419763562"><ele>131.0</ele><time>2026-05-02T16:49:48Z</time></trkpt><trkpt lat="45.10861555055717" lon="13.722882040384224"><ele>131.0</ele><time>2026-05-02T16:49:49Z</time></trkpt><trkpt lat="45.10851297956292" lon="13.723138770040094"><ele>131.0</ele><time>2026-05-02T16:49:50Z</time></trkpt><trkpt lat="45.1084077191653" lon="13.723391316393563"><ele>131.0</ele><time>2026-05-02T16:49:51Z</time></trkpt><trkpt lat="45.10829769247635" lon="13.723637972327165"><ele>131.0</ele><time>2026-05-02T16:49:52Z</time></trkpt><trkpt lat="45.10818229457378" lon="13.723870096974178"><ele>130.66666666666666</ele><time>2026-05-02T16:49:53Z</time></trkpt><trkpt lat="45.10806606297611" lon="13.724092245105114"><ele>130.33333333333334</ele><time>2026-05-02T16:49:54Z</time></trkpt><trkpt lat="45.107952665441196" lon="13.72430574348582"><ele>130.0</ele><time>2026-05-02T16:49:55Z</time></trkpt><trkpt lat="45.10784442674102" lon="13.724504763148087"><ele>131.0</ele><time>2026-05-02T16:49:56Z</time></trkpt><trkpt lat="45.10774304688284" lon="13.724698926382215"><ele>132.0</ele><time>2026-05-02T16:49:57Z</time></trkpt><trkpt lat="45.10764606299774" lon="13.724882136851416"><ele>133.0</ele><time>2026-05-02T16:49:58Z</time></trkpt><trkpt lat="45.10755226556839" lon="13.725055749377116"><ele>133.0</ele><time>2026-05-02T16:49:59Z</time></trkpt><trkpt lat="45.10746428774104" lon="13.725223360293905"><ele>133.0</ele><time>2026-05-02T16:50:00Z</time></trkpt><trkpt lat="45.107377533298475" lon="13.725379776012014"><ele>133.0</ele><time>2026-05-02T16:50:01Z</time></trkpt><trkpt lat="45.10729255507431" lon="13.7255326166655"><ele>133.0</ele><time>2026-05-02T16:50:02Z</time></trkpt><trkpt lat="45.10720768433784" lon="13.725684224380359"><ele>133.0</ele><time>2026-05-02T16:50:03Z</time></trkpt><trkpt lat="45.107124656085105" lon="13.725836365643918"><ele>133.0</ele><time>2026-05-02T16:50:04Z</time></trkpt><trkpt lat="45.1070425326137" lon="13.725990071624661"><ele>133.0</ele><time>2026-05-02T16:50:05Z</time></trkpt><trkpt lat="45.10696152874944" lon="13.726142828909412"><ele>133.0</ele><time>2026-05-02T16:50:06Z</time></trkpt><trkpt lat="45.10688310897122" lon="13.726293847967638"><ele>132.75</ele><time>2026-05-02T16:50:07Z</time></trkpt><trkpt lat="45.10680704536619" lon="13.726448941099823"><ele>132.5</ele><time>2026-05-02T16:50:08Z</time></trkpt><trkpt lat="45.10673355357323" lon="13.726607246463903"><ele>132.25</ele><time>2026-05-02T16:50:09Z</time></trkpt><trkpt lat="45.10666440563509" lon="13.726766726099797"><ele>132.0</ele><time>2026-05-02T16:50:10Z</time></trkpt><trkpt lat="45.106601647239934" lon="13.726926908842449"><ele>132.0</ele><time>2026-05-02T16:50:11Z</time></trkpt><trkpt lat="45.106545189235284" lon="13.727091784310646"><ele>132.0</ele><time>2026-05-02T16:50:12Z</time></trkpt><trkpt lat="45.10649281467025" lon="13.727264311769616"><ele>132.0</ele><time>2026-05-02T16:50:13Z</time></trkpt><trkpt lat="45.10643628556138" lon="13.72743255767778"><ele>132.0</ele><time>2026-05-02T16:50:14Z</time></trkpt><trkpt lat="45.10639431576038" lon="13.727600389998505"><ele>132.5</ele><time>2026-05-02T16:50:15Z</time></trkpt><trkpt lat="45.10635865558981" lon="13.72777266833711"><ele>133.0</ele><time>2026-05-02T16:50:16Z</time></trkpt><trkpt lat="45.10630296674769" lon="13.727936823722251"><ele>133.5</ele><time>2026-05-02T16:50:17Z</time></trkpt><trkpt lat="45.10628879632188" lon="13.728126920303998"><ele>134.0</ele><time>2026-05-02T16:50:18Z</time></trkpt><trkpt lat="45.106260624974695" lon="13.72830892352193"><ele>134.0</ele><time>2026-05-02T16:50:19Z</time></trkpt><trkpt lat="45.106232763373335" lon="13.728499692211125"><ele>134.0</ele><time>2026-05-02T16:50:20Z</time></trkpt><trkpt lat="45.10622229175281" lon="13.728705276724892"><ele>134.0</ele><time>2026-05-02T16:50:21Z</time></trkpt><trkpt lat="45.106124951490955" lon="13.728937244941648"><ele>134.0</ele><time>2026-05-02T16:50:22Z</time></trkpt><trkpt lat="45.1062203068697" lon="13.729145020862434"><ele>134.0</ele><time>2026-05-02T16:50:23Z</time></trkpt><trkpt lat="45.106239034791436" lon="13.729379684059197"><ele>134.0</ele><time>2026-05-02T16:50:24Z</time></trkpt><trkpt lat="45.10626702814188" lon="13.729631736406606"><ele>134.0</ele><time>2026-05-02T16:50:25Z</time></trkpt><trkpt lat="45.10629920502194" lon="13.729898164342599"><ele>134.0</ele><time>2026-05-02T16:50:26Z</time></trkpt><trkpt lat="45.10633371107045" lon="13.730180544414331"><ele>134.0</ele><time>2026-05-02T16:50:27Z</time></trkpt><trkpt lat="45.1063665262806" lon="13.730472041216458"><ele>134.0</ele><time>2026-05-02T16:50:28Z</time></trkpt><trkpt lat="45.10640081798028" lon="13.730777106244071"><ele>134.0</ele><time>2026-05-02T16:50:29Z</time></trkpt><trkpt lat="45.106435800579256" lon="13.731093209432986"><ele>134.0</ele><time>2026-05-02T16:50:30Z</time></trkpt><trkpt lat="45.10647421715179" lon="13.731418105762373"><ele>134.5</ele><time>2026-05-02T16:50:31Z</time></trkpt><trkpt lat="45.10650823008967" lon="13.731745373425433"><ele>135.0</ele><time>2026-05-02T16:50:32Z</time></trkpt><trkpt lat="45.10652410684211" lon="13.732073822352048"><ele>136.5</ele><time>2026-05-02T16:50:33Z</time></trkpt><trkpt lat="45.106520981019166" lon="13.73239704126922"><ele>138.0</ele><time>2026-05-02T16:50:34Z</time></trkpt><trkpt lat="45.10650688457462" lon="13.732718006871613"><ele>140.0</ele><time>2026-05-02T16:50:35Z</time></trkpt><trkpt lat="45.10647918023885" lon="13.733037481500672"><ele>142.0</ele><time>2026-05-02T16:50:36Z</time></trkpt><trkpt lat="45.10644648956144" lon="13.733354936214175"><ele>144.5</ele><time>2026-05-02T16:50:37Z</time></trkpt><trkpt lat="45.10641308180775" lon="13.733673883897628"><ele>147.0</ele><time>2026-05-02T16:50:38Z</time></trkpt><trkpt lat="45.10637955907443" lon="13.733995814221599"><ele>147.0</ele><time>2026-05-02T16:50:39Z</time></trkpt><trkpt lat="45.106344188039856" lon="13.734314001706872"><ele>147.0</ele><time>2026-05-02T16:50:40Z</time></trkpt><trkpt lat="45.10630983539649" lon="13.734631266106062"><ele>147.66666666666666</ele><time>2026-05-02T16:50:41Z</time></trkpt><trkpt lat="45.10627645833407" lon="13.73494065638066"><ele>148.33333333333331</ele><time>2026-05-02T16:50:42Z</time></trkpt><trkpt lat="45.10624360318448" lon="13.73524278272354"><ele>149.0</ele><time>2026-05-02T16:50:43Z</time></trkpt><trkpt lat="45.10621166954879" lon="13.735534057297144"><ele>149.66666666666666</ele><time>2026-05-02T16:50:44Z</time></trkpt><trkpt lat="45.1061830080676" lon="13.735819076229088"><ele>150.33333333333334</ele><time>2026-05-02T16:50:45Z</time></trkpt><trkpt lat="45.1061607814906" lon="13.736102916255938"><ele>151.0</ele><time>2026-05-02T16:50:46Z</time></trkpt><trkpt lat="45.106149855042204" lon="13.736383206119152"><ele>151.0</ele><time>2026-05-02T16:50:47Z</time></trkpt><trkpt lat="45.106148027290274" lon="13.736670401698843"><ele>151.0</ele><time>2026-05-02T16:50:48Z</time></trkpt><trkpt lat="45.10615305542104" lon="13.736961530178862"><ele>151.0</ele><time>2026-05-02T16:50:49Z</time></trkpt><trkpt lat="45.10616140961717" lon="13.7372592460768"><ele>150.33333333333334</ele><time>2026-05-02T16:50:50Z</time></trkpt><trkpt lat="45.10617126294806" lon="13.737558069876966"><ele>149.66666666666666</ele><time>2026-05-02T16:50:51Z</time></trkpt><trkpt lat="45.106182171905985" lon="13.737858632332372"><ele>149.0</ele><time>2026-05-02T16:50:52Z</time></trkpt><trkpt lat="45.106192645911" lon="13.738156465412036"><ele>149.0</ele><time>2026-05-02T16:50:53Z</time></trkpt><trkpt lat="45.106202697448104" lon="13.738436971514838"><ele>149.0</ele><time>2026-05-02T16:50:54Z</time></trkpt><trkpt lat="45.10621253272099" lon="13.73870304264102"><ele>149.0</ele><time>2026-05-02T16:50:55Z</time></trkpt><trkpt lat="45.10622184499832" lon="13.73895338431203"><ele>149.33333333333331</ele><time>2026-05-02T16:50:56Z</time></trkpt><trkpt lat="45.10623051556317" lon="13.739195688724008"><ele>149.66666666666666</ele><time>2026-05-02T16:50:57Z</time></trkpt><trkpt lat="45.106238701476514" lon="13.739436463498464"><ele>150.0</ele><time>2026-05-02T16:50:58Z</time></trkpt><trkpt lat="45.10624710212623" lon="13.739675924094936"><ele>150.0</ele><time>2026-05-02T16:50:59Z</time></trkpt><trkpt lat="45.10625689239211" lon="13.739917262115739"><ele>150.0</ele><time>2026-05-02T16:51:00Z</time></trkpt><trkpt lat="45.10626577067753" lon="13.740160253283626"><ele>150.0</ele><time>2026-05-02T16:51:01Z</time></trkpt><trkpt lat="45.106274448128616" lon="13.740404706392718"><ele>150.0</ele><time>2026-05-02T16:51:02Z</time></trkpt><trkpt lat="45.10628293957841" lon="13.740654447837645"><ele>150.0</ele><time>2026-05-02T16:51:03Z</time></trkpt><trkpt lat="45.10629322297506" lon="13.740906746778068"><ele>150.0</ele><time>2026-05-02T16:51:04Z</time></trkpt><trkpt lat="45.10630909894263" lon="13.74115643762185"><ele>150.33333333333334</ele><time>2026-05-02T16:51:05Z</time></trkpt><trkpt lat="45.10633276433682" lon="13.741390779273917"><ele>150.66666666666669</ele><time>2026-05-02T16:51:06Z</time></trkpt><trkpt lat="45.10635987006902" lon="13.741607035598925"><ele>151.0</ele><time>2026-05-02T16:51:07Z</time></trkpt><trkpt lat="45.10637094569872" lon="13.741822234481956"><ele>151.0</ele><time>2026-05-02T16:51:08Z</time></trkpt><trkpt lat="45.10639706918647" lon="13.742027203086293"><ele>151.0</ele><time>2026-05-02T16:51:09Z</time></trkpt><trkpt lat="45.10642382265156" lon="13.742227556809505"><ele>151.0</ele><time>2026-05-02T16:51:10Z</time></trkpt><trkpt lat="45.10645225550747" lon="13.74243480948937"><ele>151.0</ele><time>2026-05-02T16:51:11Z</time></trkpt><trkpt lat="45.106481590167" lon="13.742649203837878"><ele>151.33333333333334</ele><time>2026-05-02T16:51:12Z</time></trkpt><trkpt lat="45.10651192442898" lon="13.742876021388197"><ele>151.66666666666666</ele><time>2026-05-02T16:51:13Z</time></trkpt><trkpt lat="45.10654362800842" lon="13.743113077700315"><ele>152.0</ele><time>2026-05-02T16:51:14Z</time></trkpt><trkpt lat="45.10657627970712" lon="13.743355553180686"><ele>152.66666666666666</ele><time>2026-05-02T16:51:15Z</time></trkpt><trkpt lat="45.106610481839596" lon="13.74360111128202"><ele>153.33333333333334</ele><time>2026-05-02T16:51:16Z</time></trkpt><trkpt lat="45.106643620355285" lon="13.74384284144799"><ele>154.0</ele><time>2026-05-02T16:51:17Z</time></trkpt><trkpt lat="45.10667538750649" lon="13.744083509850935"><ele>154.0</ele><time>2026-05-02T16:51:18Z</time></trkpt><trkpt lat="45.10670636621554" lon="13.74432327655053"><ele>154.0</ele><time>2026-05-02T16:51:19Z</time></trkpt><trkpt lat="45.106734404591016" lon="13.744571078867864"><ele>154.0</ele><time>2026-05-02T16:51:20Z</time></trkpt><trkpt lat="45.10676422766646" lon="13.74482277287482"><ele>153.33333333333334</ele><time>2026-05-02T16:51:21Z</time></trkpt><trkpt lat="45.10677259331969" lon="13.745087129728564"><ele>152.66666666666666</ele><time>2026-05-02T16:51:22Z</time></trkpt><trkpt lat="45.10677910622941" lon="13.745356176930466"><ele>152.0</ele><time>2026-05-02T16:51:23Z</time></trkpt><trkpt lat="45.10678217964741" lon="13.74563130352284"><ele>152.0</ele><time>2026-05-02T16:51:24Z</time></trkpt><trkpt lat="45.10678058816205" lon="13.745909938250959"><ele>152.0</ele><time>2026-05-02T16:51:25Z</time></trkpt><trkpt lat="45.10677377940739" lon="13.74619514695583"><ele>152.0</ele><time>2026-05-02T16:51:26Z</time></trkpt><trkpt lat="45.10676152393175" lon="13.746482011450615"><ele>152.66666666666666</ele><time>2026-05-02T16:51:27Z</time></trkpt><trkpt lat="45.10674605653528" lon="13.746775879815626"><ele>153.33333333333334</ele><time>2026-05-02T16:51:28Z</time></trkpt><trkpt lat="45.10672589661049" lon="13.7470710193201"><ele>154.0</ele><time>2026-05-02T16:51:29Z</time></trkpt><trkpt lat="45.10670241442963" lon="13.747369931241863"><ele>154.33333333333334</ele><time>2026-05-02T16:51:30Z</time></trkpt><trkpt lat="45.106676661231944" lon="13.747671795968207"><ele>154.66666666666666</ele><time>2026-05-02T16:51:31Z</time></trkpt><trkpt lat="45.106649314334945" lon="13.747979057006035"><ele>155.0</ele><time>2026-05-02T16:51:32Z</time></trkpt><trkpt lat="45.10661794720516" lon="13.748288087675022"><ele>157.0</ele><time>2026-05-02T16:51:33Z</time></trkpt><trkpt lat="45.106587142763416" lon="13.748599223129043"><ele>159.0</ele><time>2026-05-02T16:51:34Z</time></trkpt><trkpt lat="45.106556022394734" lon="13.748909849155071"><ele>161.0</ele><time>2026-05-02T16:51:35Z</time></trkpt><trkpt lat="45.106523996788255" lon="13.749218959477767"><ele>166.33333333333331</ele><time>2026-05-02T16:51:36Z</time></trkpt><trkpt lat="45.10649713254841" lon="13.749518373301491"><ele>171.66666666666666</ele><time>2026-05-02T16:51:37Z</time></trkpt><trkpt lat="45.10647840149458" lon="13.749815154180238"><ele>177.0</ele><time>2026-05-02T16:51:38Z</time></trkpt><trkpt lat="45.10646649767356" lon="13.750111630961666"><ele>177.0</ele><time>2026-05-02T16:51:39Z</time></trkpt><trkpt lat="45.106461601696274" lon="13.750405608597239"><ele>177.0</ele><time>2026-05-02T16:51:40Z</time></trkpt><trkpt lat="45.10646575440979" lon="13.75069707426014"><ele>177.0</ele><time>2026-05-02T16:51:41Z</time></trkpt><trkpt lat="45.10647817333212" lon="13.750989740525561"><ele>176.0</ele><time>2026-05-02T16:51:42Z</time></trkpt><trkpt lat="45.10649489812806" lon="13.751273191173297"><ele>175.0</ele><time>2026-05-02T16:51:43Z</time></trkpt><trkpt lat="45.1065153387735" lon="13.751553267775543"><ele>174.0</ele><time>2026-05-02T16:51:44Z</time></trkpt><trkpt lat="45.10653315350576" lon="13.751833042874583"><ele>174.0</ele><time>2026-05-02T16:51:45Z</time></trkpt><trkpt lat="45.10653326292237" lon="13.75211738836686"><ele>174.0</ele><time>2026-05-02T16:51:46Z</time></trkpt><trkpt lat="45.10655009997835" lon="13.752404158875645"><ele>174.0</ele><time>2026-05-02T16:51:47Z</time></trkpt><trkpt lat="45.10656620464901" lon="13.752696513894968"><ele>174.33333333333334</ele><time>2026-05-02T16:51:48Z</time></trkpt><trkpt lat="45.1065952659202" lon="13.752982619056922"><ele>174.66666666666669</ele><time>2026-05-02T16:51:49Z</time></trkpt><trkpt lat="45.10661103526177" lon="13.75326791644973"><ele>175.0</ele><time>2026-05-02T16:51:50Z</time></trkpt><trkpt lat="45.10661471426241" lon="13.75355369000902"><ele>175.0</ele><time>2026-05-02T16:51:51Z</time></trkpt><trkpt lat="45.106660588314504" lon="13.753829279648171"><ele>175.0</ele><time>2026-05-02T16:51:52Z</time></trkpt><trkpt lat="45.106698551408556" lon="13.754105394904856"><ele>175.0</ele><time>2026-05-02T16:51:53Z</time></trkpt><trkpt lat="45.10675132029355" lon="13.75438101114556"><ele>173.66666666666669</ele><time>2026-05-02T16:51:54Z</time></trkpt><trkpt lat="45.10682191949704" lon="13.754658290241487"><ele>172.33333333333334</ele><time>2026-05-02T16:51:55Z</time></trkpt><trkpt lat="45.10690218694263" lon="13.754935158032179"><ele>171.0</ele><time>2026-05-02T16:51:56Z</time></trkpt><trkpt lat="45.10698595616078" lon="13.755205906811335"><ele>170.66666666666666</ele><time>2026-05-02T16:51:57Z</time></trkpt><trkpt lat="45.1070706148282" lon="13.755476850557484"><ele>170.33333333333331</ele><time>2026-05-02T16:51:58Z</time></trkpt><trkpt lat="45.10715385816078" lon="13.755747729785837"><ele>170.0</ele><time>2026-05-02T16:51:59Z</time></trkpt><trkpt lat="45.10723506370276" lon="13.756015831480333"><ele>169.0</ele><time>2026-05-02T16:52:00Z</time></trkpt><trkpt lat="45.10731637667492" lon="13.75628499364697"><ele>168.0</ele><time>2026-05-02T16:52:01Z</time></trkpt><trkpt lat="45.107399795909124" lon="13.756554246994732"><ele>167.0</ele><time>2026-05-02T16:52:02Z</time></trkpt><trkpt lat="45.10748223645197" lon="13.756820283745546"><ele>165.33333333333331</ele><time>2026-05-02T16:52:03Z</time></trkpt><trkpt lat="45.10756609275995" lon="13.757080037283226"><ele>163.66666666666666</ele><time>2026-05-02T16:52:04Z</time></trkpt><trkpt lat="45.10765427512039" lon="13.757338272818782"><ele>162.0</ele><time>2026-05-02T16:52:05Z</time></trkpt><trkpt lat="45.107722328150054" lon="13.757606589493939"><ele>160.33333333333334</ele><time>2026-05-02T16:52:06Z</time></trkpt><trkpt lat="45.107803387332176" lon="13.7578625391283"><ele>158.66666666666669</ele><time>2026-05-02T16:52:07Z</time></trkpt><trkpt lat="45.10788385475214" lon="13.758120271388094"><ele>157.0</ele><time>2026-05-02T16:52:08Z</time></trkpt><trkpt lat="45.10796188329392" lon="13.758379221917027"><ele>156.33333333333334</ele><time>2026-05-02T16:52:09Z</time></trkpt><trkpt lat="45.10805159761912" lon="13.758634524579103"><ele>155.66666666666666</ele><time>2026-05-02T16:52:10Z</time></trkpt><trkpt lat="45.10810016094606" lon="13.758909307316797"><ele>155.0</ele><time>2026-05-02T16:52:11Z</time></trkpt><trkpt lat="45.10817232868846" lon="13.759173006525412"><ele>155.66666666666666</ele><time>2026-05-02T16:52:12Z</time></trkpt><trkpt lat="45.10821997661266" lon="13.759446421005014"><ele>156.33333333333334</ele><time>2026-05-02T16:52:13Z</time></trkpt><trkpt lat="45.10825750909613" lon="13.75972446775704"><ele>157.0</ele><time>2026-05-02T16:52:14Z</time></trkpt><trkpt lat="45.10828816737069" lon="13.760000349621796"><ele>158.66666666666669</ele><time>2026-05-02T16:52:15Z</time></trkpt><trkpt lat="45.108311415508986" lon="13.76028153006684"><ele>160.33333333333334</ele><time>2026-05-02T16:52:16Z</time></trkpt><trkpt lat="45.10832678081821" lon="13.760566461534973"><ele>162.0</ele><time>2026-05-02T16:52:17Z</time></trkpt><trkpt lat="45.10833504192931" lon="13.760857964435312"><ele>161.33333333333334</ele><time>2026-05-02T16:52:18Z</time></trkpt><trkpt lat="45.108337873172445" lon="13.761151949477611"><ele>160.66666666666669</ele><time>2026-05-02T16:52:19Z</time></trkpt><trkpt lat="45.10833869268404" lon="13.761447080022975"><ele>160.0</ele><time>2026-05-02T16:52:20Z</time></trkpt><trkpt lat="45.108334251433575" lon="13.76175079372318"><ele>160.0</ele><time>2026-05-02T16:52:21Z</time></trkpt><trkpt lat="45.108331621886684" lon="13.762052755964797"><ele>160.0</ele><time>2026-05-02T16:52:22Z</time></trkpt><trkpt lat="45.10833112707406" lon="13.76235428428573"><ele>160.0</ele><time>2026-05-02T16:52:23Z</time></trkpt><trkpt lat="45.10832983186095" lon="13.762662981304894"><ele>161.66666666666669</ele><time>2026-05-02T16:52:24Z</time></trkpt><trkpt lat="45.10832734503345" lon="13.762964943735101"><ele>163.33333333333334</ele><time>2026-05-02T16:52:25Z</time></trkpt><trkpt lat="45.1083246893637" lon="13.763265991503149"><ele>165.0</ele><time>2026-05-02T16:52:26Z</time></trkpt><trkpt lat="45.10832150689354" lon="13.76356693593198"><ele>166.0</ele><time>2026-05-02T16:52:27Z</time></trkpt><trkpt lat="45.10831630093176" lon="13.76386422730529"><ele>167.0</ele><time>2026-05-02T16:52:28Z</time></trkpt><trkpt lat="45.10831250634092" lon="13.764160190517767"><ele>168.0</ele><time>2026-05-02T16:52:29Z</time></trkpt><trkpt lat="45.108309634744195" lon="13.764456836261825"><ele>168.66666666666666</ele><time>2026-05-02T16:52:30Z</time></trkpt><trkpt lat="45.108308560303186" lon="13.764751260687644"><ele>169.33333333333331</ele><time>2026-05-02T16:52:31Z</time></trkpt><trkpt lat="45.10830777315474" lon="13.765048212033443"><ele>170.0</ele><time>2026-05-02T16:52:32Z</time></trkpt><trkpt lat="45.108307484709336" lon="13.765343902971887"><ele>170.0</ele><time>2026-05-02T16:52:33Z</time></trkpt><trkpt lat="45.1083082509934" lon="13.765644909167277"><ele>170.0</ele><time>2026-05-02T16:52:34Z</time></trkpt><trkpt lat="45.10830963564435" lon="13.765945165280923"><ele>170.0</ele><time>2026-05-02T16:52:35Z</time></trkpt><trkpt lat="45.10831104400153" lon="13.766247841164516"><ele>170.66666666666666</ele><time>2026-05-02T16:52:36Z</time></trkpt><trkpt lat="45.10831058925432" lon="13.766552832011325"><ele>171.33333333333334</ele><time>2026-05-02T16:52:37Z</time></trkpt><trkpt lat="45.108310404597106" lon="13.766862800136654"><ele>172.0</ele><time>2026-05-02T16:52:38Z</time></trkpt><trkpt lat="45.10831064041" lon="13.767175136077446"><ele>172.33333333333334</ele><time>2026-05-02T16:52:39Z</time></trkpt><trkpt lat="45.10830965021747" lon="13.767491347754016"><ele>172.66666666666666</ele><time>2026-05-02T16:52:40Z</time></trkpt><trkpt lat="45.10830884087451" lon="13.767810175291794"><ele>173.0</ele><time>2026-05-02T16:52:41Z</time></trkpt><trkpt lat="45.10830756954236" lon="13.768134920809642"><ele>174.5</ele><time>2026-05-02T16:52:42Z</time></trkpt><trkpt lat="45.108308261777076" lon="13.768456053211231"><ele>176.0</ele><time>2026-05-02T16:52:43Z</time></trkpt><trkpt lat="45.10830884199365" lon="13.768783274973725"><ele>176.5</ele><time>2026-05-02T16:52:44Z</time></trkpt><trkpt lat="45.10830998393074" lon="13.769114339680465"><ele>177.0</ele><time>2026-05-02T16:52:45Z</time></trkpt><trkpt lat="45.10830890747074" lon="13.769445182206102"><ele>178.0</ele><time>2026-05-02T16:52:46Z</time></trkpt><trkpt lat="45.10830789549763" lon="13.769769413597567"><ele>179.0</ele><time>2026-05-02T16:52:47Z</time></trkpt><trkpt lat="45.10830473740802" lon="13.770089429074723"><ele>179.33333333333331</ele><time>2026-05-02T16:52:48Z</time></trkpt><trkpt lat="45.10830019644494" lon="13.770408729798081"><ele>179.66666666666666</ele><time>2026-05-02T16:52:49Z</time></trkpt><trkpt lat="45.10829809139455" lon="13.770724419952712"><ele>180.0</ele><time>2026-05-02T16:52:50Z</time></trkpt><trkpt lat="45.10829911821075" lon="13.771037125855782"><ele>180.66666666666666</ele><time>2026-05-02T16:52:51Z</time></trkpt><trkpt lat="45.10831113592776" lon="13.771345718820427"><ele>181.33333333333331</ele><time>2026-05-02T16:52:52Z</time></trkpt><trkpt lat="45.10833834160425" lon="13.77164910841365"><ele>182.0</ele><time>2026-05-02T16:52:53Z</time></trkpt><trkpt lat="45.10837831655551" lon="13.771944065745146"><ele>182.0</ele><time>2026-05-02T16:52:54Z</time></trkpt><trkpt lat="45.10843519980832" lon="13.772229734342488"><ele>182.0</ele><time>2026-05-02T16:52:55Z</time></trkpt><trkpt lat="45.10850693861426" lon="13.772509367644847"><ele>182.0</ele><time>2026-05-02T16:52:56Z</time></trkpt><trkpt lat="45.108586750118285" lon="13.772791125649551"><ele>182.0</ele><time>2026-05-02T16:52:57Z</time></trkpt><trkpt lat="45.108668512004144" lon="13.773076842140835"><ele>182.0</ele><time>2026-05-02T16:52:58Z</time></trkpt><trkpt lat="45.108748310727485" lon="13.773365253723995"><ele>182.0</ele><time>2026-05-02T16:52:59Z</time></trkpt><trkpt lat="45.10882734394768" lon="13.77364707372882"><ele>181.66666666666666</ele><time>2026-05-02T16:53:00Z</time></trkpt><trkpt lat="45.10889940889975" lon="13.773931841584108"><ele>181.33333333333334</ele><time>2026-05-02T16:53:01Z</time></trkpt><trkpt lat="45.10896034812935" lon="13.774217934380886"><ele>181.0</ele><time>2026-05-02T16:53:02Z</time></trkpt><trkpt lat="45.10900927130745" lon="13.774512569575219"><ele>181.0</ele><time>2026-05-02T16:53:03Z</time></trkpt><trkpt lat="45.1090400900344" lon="13.774810167985148"><ele>181.0</ele><time>2026-05-02T16:53:04Z</time></trkpt><trkpt lat="45.109052130506626" lon="13.775115253718939"><ele>181.0</ele><time>2026-05-02T16:53:05Z</time></trkpt><trkpt lat="45.10904489613147" lon="13.77542256554075"><ele>181.66666666666669</ele><time>2026-05-02T16:53:06Z</time></trkpt><trkpt lat="45.1090206752735" lon="13.775733646440026"><ele>182.33333333333334</ele><time>2026-05-02T16:53:07Z</time></trkpt><trkpt lat="45.1089791827689" lon="13.776048413105807"><ele>183.0</ele><time>2026-05-02T16:53:08Z</time></trkpt><trkpt lat="45.10892487433361" lon="13.776366358881477"><ele>183.0</ele><time>2026-05-02T16:53:09Z</time></trkpt><trkpt lat="45.10886558601656" lon="13.776689005996985"><ele>183.0</ele><time>2026-05-02T16:53:10Z</time></trkpt><trkpt lat="45.10879982351281" lon="13.777019984618754"><ele>183.5</ele><time>2026-05-02T16:53:11Z</time></trkpt><trkpt lat="45.108730492225156" lon="13.77735570247268"><ele>184.0</ele><time>2026-05-02T16:53:12Z</time></trkpt><trkpt lat="45.10865823139514" lon="13.777685392496013"><ele>183.0</ele><time>2026-05-02T16:53:13Z</time></trkpt><trkpt lat="45.108588476947304" lon="13.778014519221182"><ele>182.0</ele><time>2026-05-02T16:53:14Z</time></trkpt><trkpt lat="45.10852737021597" lon="13.778341264752546"><ele>182.5</ele><time>2026-05-02T16:53:15Z</time></trkpt><trkpt lat="45.10847706288317" lon="13.778660879476396"><ele>183.0</ele><time>2026-05-02T16:53:16Z</time></trkpt><trkpt lat="45.10844247667034" lon="13.778969286150863"><ele>183.0</ele><time>2026-05-02T16:53:17Z</time></trkpt><trkpt lat="45.108426832333215" lon="13.779268764555361"><ele>183.0</ele><time>2026-05-02T16:53:18Z</time></trkpt><trkpt lat="45.10842789554423" lon="13.77956365501637"><ele>183.0</ele><time>2026-05-02T16:53:19Z</time></trkpt><trkpt lat="45.1084422546276" lon="13.779852027622644"><ele>184.0</ele><time>2026-05-02T16:53:20Z</time></trkpt><trkpt lat="45.10846464730696" lon="13.78013452322171"><ele>185.0</ele><time>2026-05-02T16:53:21Z</time></trkpt><trkpt lat="45.108486640075945" lon="13.780424726672221"><ele>186.0</ele><time>2026-05-02T16:53:22Z</time></trkpt><trkpt lat="45.10850668787412" lon="13.78071557121028"><ele>186.0</ele><time>2026-05-02T16:53:23Z</time></trkpt><trkpt lat="45.10852542704619" lon="13.781007341084784"><ele>186.0</ele><time>2026-05-02T16:53:24Z</time></trkpt><trkpt lat="45.10854974937346" lon="13.781296684596082"><ele>186.0</ele><time>2026-05-02T16:53:25Z</time></trkpt><trkpt lat="45.10857588630132" lon="13.781578759486646"><ele>186.33333333333334</ele><time>2026-05-02T16:53:26Z</time></trkpt><trkpt lat="45.10859700204688" lon="13.781858018637909"><ele>186.66666666666669</ele><time>2026-05-02T16:53:27Z</time></trkpt><trkpt lat="45.10861873390445" lon="13.78214273118562"><ele>187.0</ele><time>2026-05-02T16:53:28Z</time></trkpt><trkpt lat="45.10863771786997" lon="13.782434804090943"><ele>186.66666666666669</ele><time>2026-05-02T16:53:29Z</time></trkpt><trkpt lat="45.10865657168926" lon="13.782731160782198"><ele>186.33333333333334</ele><time>2026-05-02T16:53:30Z</time></trkpt><trkpt lat="45.10867642288192" lon="13.783021563594367"><ele>186.0</ele><time>2026-05-02T16:53:31Z</time></trkpt><trkpt lat="45.10869917004569" lon="13.783304734679419"><ele>185.33333333333334</ele><time>2026-05-02T16:53:32Z</time></trkpt><trkpt lat="45.10872571478369" lon="13.783574577461383"><ele>184.66666666666669</ele><time>2026-05-02T16:53:33Z</time></trkpt><trkpt lat="45.10875607648036" lon="13.783832238881402"><ele>184.0</ele><time>2026-05-02T16:53:34Z</time></trkpt><trkpt lat="45.10879520294956" lon="13.784079214792815"><ele>184.0</ele><time>2026-05-02T16:53:35Z</time></trkpt><trkpt lat="45.10883886562295" lon="13.784326070546653"><ele>184.0</ele><time>2026-05-02T16:53:36Z</time></trkpt><trkpt lat="45.108887120452884" lon="13.784575528288475"><ele>184.0</ele><time>2026-05-02T16:53:37Z</time></trkpt><trkpt lat="45.108939646819536" lon="13.784828939969648"><ele>184.33333333333334</ele><time>2026-05-02T16:53:38Z</time></trkpt><trkpt lat="45.108996739550314" lon="13.7850859432259"><ele>184.66666666666666</ele><time>2026-05-02T16:53:39Z</time></trkpt><trkpt lat="45.10905727840135" lon="13.785352078909614"><ele>185.0</ele><time>2026-05-02T16:53:40Z</time></trkpt><trkpt lat="45.109117188437764" lon="13.785625088926572"><ele>185.0</ele><time>2026-05-02T16:53:41Z</time></trkpt><trkpt lat="45.10917815969763" lon="13.785905271854501"><ele>185.0</ele><time>2026-05-02T16:53:42Z</time></trkpt><trkpt lat="45.109241228035835" lon="13.786190929165265"><ele>185.0</ele><time>2026-05-02T16:53:43Z</time></trkpt><trkpt lat="45.109305892408216" lon="13.786486912230197"><ele>185.0</ele><time>2026-05-02T16:53:44Z</time></trkpt><trkpt lat="45.109371819967045" lon="13.786791843300707"><ele>185.0</ele><time>2026-05-02T16:53:45Z</time></trkpt><trkpt lat="45.10943799548004" lon="13.78710473379229"><ele>184.0</ele><time>2026-05-02T16:53:46Z</time></trkpt><trkpt lat="45.10950796764488" lon="13.787423163935213"><ele>183.0</ele><time>2026-05-02T16:53:47Z</time></trkpt><trkpt lat="45.109578544284894" lon="13.787746046577443"><ele>182.5</ele><time>2026-05-02T16:53:48Z</time></trkpt><trkpt lat="45.109648191072914" lon="13.788074644697314"><ele>182.0</ele><time>2026-05-02T16:53:49Z</time></trkpt><trkpt lat="45.10971994129701" lon="13.788407328400913"><ele>182.5</ele><time>2026-05-02T16:53:50Z</time></trkpt><trkpt lat="45.109776679263135" lon="13.788747403541855"><ele>183.0</ele><time>2026-05-02T16:53:51Z</time></trkpt><trkpt lat="45.10984801514151" lon="13.789080361684809"><ele>183.0</ele><time>2026-05-02T16:53:52Z</time></trkpt><trkpt lat="45.1099203834134" lon="13.789414223387718"><ele>183.0</ele><time>2026-05-02T16:53:53Z</time></trkpt><trkpt lat="45.10999157573522" lon="13.789742033025526"><ele>183.0</ele><time>2026-05-02T16:53:54Z</time></trkpt><trkpt lat="45.11006127213327" lon="13.790063763958702"><ele>183.0</ele><time>2026-05-02T16:53:55Z</time></trkpt><trkpt lat="45.110129460067284" lon="13.790379497719261"><ele>183.5</ele><time>2026-05-02T16:53:56Z</time></trkpt><trkpt lat="45.11019629518991" lon="13.790690332690792"><ele>184.0</ele><time>2026-05-02T16:53:57Z</time></trkpt><trkpt lat="45.11026332343914" lon="13.790992236467995"><ele>182.66666666666669</ele><time>2026-05-02T16:53:58Z</time></trkpt><trkpt lat="45.11032309388633" lon="13.791291482974783"><ele>181.33333333333334</ele><time>2026-05-02T16:53:59Z</time></trkpt><trkpt lat="45.11037992412146" lon="13.791590055772229"><ele>180.0</ele><time>2026-05-02T16:54:00Z</time></trkpt><trkpt lat="45.11044362952695" lon="13.791879921485242"><ele>180.0</ele><time>2026-05-02T16:54:01Z</time></trkpt><trkpt lat="45.11047502617923" lon="13.792183371297277"><ele>180.0</ele><time>2026-05-02T16:54:02Z</time></trkpt><trkpt lat="45.1104880342606" lon="13.792492993661527"><ele>180.0</ele><time>2026-05-02T16:54:03Z</time></trkpt><trkpt lat="45.110483770601164" lon="13.792804308097452"><ele>180.0</ele><time>2026-05-02T16:54:04Z</time></trkpt><trkpt lat="45.1104614200417" lon="13.793112999496364"><ele>180.0</ele><time>2026-05-02T16:54:05Z</time></trkpt><trkpt lat="45.11042110085508" lon="13.793413842500923"><ele>180.0</ele><time>2026-05-02T16:54:06Z</time></trkpt><trkpt lat="45.110369008563694" lon="13.79370895233657"><ele>182.0</ele><time>2026-05-02T16:54:07Z</time></trkpt><trkpt lat="45.11030354855326" lon="13.794002185002224"><ele>184.0</ele><time>2026-05-02T16:54:08Z</time></trkpt><trkpt lat="45.11023009102407" lon="13.79428940568655"><ele>186.0</ele><time>2026-05-02T16:54:09Z</time></trkpt><trkpt lat="45.11015367172844" lon="13.79456225877922"><ele>187.33333333333334</ele><time>2026-05-02T16:54:10Z</time></trkpt><trkpt lat="45.11007787775988" lon="13.794826060699663"><ele>188.66666666666669</ele><time>2026-05-02T16:54:11Z</time></trkpt><trkpt lat="45.11000622997738" lon="13.795080834898354"><ele>190.0</ele><time>2026-05-02T16:54:12Z</time></trkpt><trkpt lat="45.10994196336847" lon="13.79532725872176"><ele>189.66666666666669</ele><time>2026-05-02T16:54:13Z</time></trkpt><trkpt lat="45.1098897152786" lon="13.79556666601991"><ele>189.33333333333334</ele><time>2026-05-02T16:54:14Z</time></trkpt><trkpt lat="45.10986682060752" lon="13.795795140360646"><ele>189.0</ele><time>2026-05-02T16:54:15Z</time></trkpt><trkpt lat="45.10987000531373" lon="13.796026234050238"><ele>189.0</ele><time>2026-05-02T16:54:16Z</time></trkpt><trkpt lat="45.10989266392561" lon="13.796249603940753"><ele>189.0</ele><time>2026-05-02T16:54:17Z</time></trkpt><trkpt lat="45.10993455552457" lon="13.796466967390403"><ele>189.0</ele><time>2026-05-02T16:54:18Z</time></trkpt><trkpt lat="45.109999041946914" lon="13.796671412772238"><ele>190.33333333333331</ele><time>2026-05-02T16:54:19Z</time></trkpt><trkpt lat="45.110091859557905" lon="13.796858665239549"><ele>191.66666666666666</ele><time>2026-05-02T16:54:20Z</time></trkpt><trkpt lat="45.11020691478667" lon="13.797031146521928"><ele>193.0</ele><time>2026-05-02T16:54:21Z</time></trkpt><trkpt lat="45.11031930619177" lon="13.797215844603237"><ele>193.0</ele><time>2026-05-02T16:54:22Z</time></trkpt><trkpt lat="45.11043615472344" lon="13.797398814789027"><ele>193.0</ele><time>2026-05-02T16:54:23Z</time></trkpt><trkpt lat="45.11055632950388" lon="13.797586993464666"><ele>193.0</ele><time>2026-05-02T16:54:24Z</time></trkpt><trkpt lat="45.11071374372394" lon="13.797734170187148"><ele>195.0</ele><time>2026-05-02T16:54:25Z</time></trkpt><trkpt lat="45.11081412146724" lon="13.797950821481964"><ele>197.0</ele><time>2026-05-02T16:54:26Z</time></trkpt><trkpt lat="45.11090358459043" lon="13.798181805905822"><ele>199.0</ele><time>2026-05-02T16:54:27Z</time></trkpt><trkpt lat="45.11098678231258" lon="13.798427849720502"><ele>198.33333333333331</ele><time>2026-05-02T16:54:28Z</time></trkpt><trkpt lat="45.111072487127856" lon="13.798679771139616"><ele>197.66666666666669</ele><time>2026-05-02T16:54:29Z</time></trkpt><trkpt lat="45.111162025006564" lon="13.798935559485189"><ele>197.0</ele><time>2026-05-02T16:54:30Z</time></trkpt><trkpt lat="45.11125305304034" lon="13.79919925654833"><ele>196.66666666666669</ele><time>2026-05-02T16:54:31Z</time></trkpt><trkpt lat="45.11134519874505" lon="13.799471511351099"><ele>196.33333333333331</ele><time>2026-05-02T16:54:32Z</time></trkpt><trkpt lat="45.11144103236854" lon="13.799748253577645"><ele>196.0</ele><time>2026-05-02T16:54:33Z</time></trkpt><trkpt lat="45.11153492225835" lon="13.80002351579993"><ele>198.0</ele><time>2026-05-02T16:54:34Z</time></trkpt><trkpt lat="45.111625970643146" lon="13.800287356706434"><ele>200.0</ele><time>2026-05-02T16:54:35Z</time></trkpt><trkpt lat="45.111713267451016" lon="13.80054728492625"><ele>202.0</ele><time>2026-05-02T16:54:36Z</time></trkpt><trkpt lat="45.111799160677016" lon="13.800801910916979"><ele>202.0</ele><time>2026-05-02T16:54:37Z</time></trkpt><trkpt lat="45.11188408137089" lon="13.801051030310518"><ele>202.0</ele><time>2026-05-02T16:54:38Z</time></trkpt><trkpt lat="45.11197201978948" lon="13.80129353218392"><ele>202.0</ele><time>2026-05-02T16:54:39Z</time></trkpt><trkpt lat="45.11205368329072" lon="13.801529428164216"><ele>202.0</ele><time>2026-05-02T16:54:40Z</time></trkpt><trkpt lat="45.112133254863224" lon="13.801759396911697"><ele>202.0</ele><time>2026-05-02T16:54:41Z</time></trkpt><trkpt lat="45.11220933955689" lon="13.801983892448972"><ele>202.0</ele><time>2026-05-02T16:54:42Z</time></trkpt><trkpt lat="45.112284694629345" lon="13.802202755831663"><ele>202.33333333333331</ele><time>2026-05-02T16:54:43Z</time></trkpt><trkpt lat="45.112357699051245" lon="13.802414501384575"><ele>202.66666666666669</ele><time>2026-05-02T16:54:44Z</time></trkpt><trkpt lat="45.112429344568675" lon="13.80261968851483"><ele>203.0</ele><time>2026-05-02T16:54:45Z</time></trkpt><trkpt lat="45.112498185827356" lon="13.802817616554702"><ele>202.5</ele><time>2026-05-02T16:54:46Z</time></trkpt><trkpt lat="45.112565105354946" lon="13.803007584306236"><ele>202.0</ele><time>2026-05-02T16:54:47Z</time></trkpt><trkpt lat="45.11262915032158" lon="13.803196027361317"><ele>201.5</ele><time>2026-05-02T16:54:48Z</time></trkpt><trkpt lat="45.11269383215321" lon="13.803384419841407"><ele>201.0</ele><time>2026-05-02T16:54:49Z</time></trkpt><trkpt lat="45.112757704796046" lon="13.803573048250616"><ele>201.0</ele><time>2026-05-02T16:54:50Z</time></trkpt><trkpt lat="45.11282118983723" lon="13.803762206016252"><ele>201.0</ele><time>2026-05-02T16:54:51Z</time></trkpt><trkpt lat="45.1128823816963" lon="13.803951717262905"><ele>201.0</ele><time>2026-05-02T16:54:52Z</time></trkpt><trkpt lat="45.112944641853204" lon="13.804140362653916"><ele>201.0</ele><time>2026-05-02T16:54:53Z</time></trkpt><trkpt lat="45.11300687328604" lon="13.804323088305775"><ele>201.0</ele><time>2026-05-02T16:54:54Z</time></trkpt><trkpt lat="45.113065977128834" lon="13.804492228850615"><ele>201.0</ele><time>2026-05-02T16:54:55Z</time></trkpt><trkpt lat="45.113122475842694" lon="13.804653843249246"><ele>201.0</ele><time>2026-05-02T16:54:56Z</time></trkpt><trkpt lat="45.11317474812329" lon="13.804803908900492"><ele>201.0</ele><time>2026-05-02T16:54:57Z</time></trkpt><trkpt lat="45.113218894104584" lon="13.80494082662339"><ele>201.0</ele><time>2026-05-02T16:54:58Z</time></trkpt><trkpt lat="45.11325982117206" lon="13.805059898728073"><ele>201.0</ele><time>2026-05-02T16:54:59Z</time></trkpt><trkpt lat="45.11329168711125" lon="13.805158818251035"><ele>201.0</ele><time>2026-05-02T16:55:00Z</time></trkpt><trkpt lat="45.11331864773008" lon="13.805246430205854"><ele>201.0</ele><time>2026-05-02T16:55:01Z</time></trkpt><trkpt lat="45.11334229144302" lon="13.80533203814811"><ele>201.0</ele><time>2026-05-02T16:55:02Z</time></trkpt><trkpt lat="45.11336632541473" lon="13.80551423468309"><ele>201.0</ele><time>2026-05-02T16:55:04Z</time></trkpt><trkpt lat="45.113354211939246" lon="13.805624001884329"><ele>201.20000000000002</ele><time>2026-05-02T16:55:05Z</time></trkpt><trkpt lat="45.11332084743312" lon="13.805734510376059"><ele>201.4</ele><time>2026-05-02T16:55:06Z</time></trkpt><trkpt lat="45.11326567884184" lon="13.805841473658985"><ele>201.6</ele><time>2026-05-02T16:55:07Z</time></trkpt><trkpt lat="45.113195924830414" lon="13.80593685576204"><ele>201.8</ele><time>2026-05-02T16:55:08Z</time></trkpt><trkpt lat="45.113113220517285" lon="13.806026054181265"><ele>202.0</ele><time>2026-05-02T16:55:09Z</time></trkpt><trkpt lat="45.11302417604717" lon="13.806109191630181"><ele>202.39999999999998</ele><time>2026-05-02T16:55:10Z</time></trkpt><trkpt lat="45.11293213248459" lon="13.806187466292652"><ele>202.79999999999998</ele><time>2026-05-02T16:55:11Z</time></trkpt><trkpt lat="45.11283851852011" lon="13.806269573845464"><ele>203.2</ele><time>2026-05-02T16:55:12Z</time></trkpt><trkpt lat="45.11274632121564" lon="13.80634506529806"><ele>203.6</ele><time>2026-05-02T16:55:13Z</time></trkpt><trkpt lat="45.112657398108546" lon="13.806417091662823"><ele>204.0</ele><time>2026-05-02T16:55:14Z</time></trkpt><trkpt lat="45.11257406210988" lon="13.806484238044364"><ele>204.0</ele><time>2026-05-02T16:55:15Z</time></trkpt><trkpt lat="45.11249415847409" lon="13.806537571644576"><ele>204.0</ele><time>2026-05-02T16:55:16Z</time></trkpt><trkpt lat="45.11241834060867" lon="13.80658661888298"><ele>204.0</ele><time>2026-05-02T16:55:17Z</time></trkpt><trkpt lat="45.112348240472116" lon="13.806634156106298"><ele>204.0</ele><time>2026-05-02T16:55:18Z</time></trkpt><trkpt lat="45.112286695923004" lon="13.806693726033622"><ele>204.0</ele><time>2026-05-02T16:55:19Z</time></trkpt><trkpt lat="45.11223028474728" lon="13.806753940040972"><ele>204.0</ele><time>2026-05-02T16:55:20Z</time></trkpt><trkpt lat="45.11217925611966" lon="13.806812640653085"><ele>204.5</ele><time>2026-05-02T16:55:21Z</time></trkpt><trkpt lat="45.11211190933165" lon="13.80691206858766"><ele>205.0</ele><time>2026-05-02T16:55:23Z</time></trkpt><trkpt lat="45.112062430767836" lon="13.8069740635295"><ele>205.5</ele><time>2026-05-02T16:55:27Z</time></trkpt><trkpt lat="45.112007315929006" lon="13.807018265037476"><ele>206.0</ele><time>2026-05-02T16:55:37Z</time></trkpt><trkpt lat="45.111992052381666" lon="13.807129363108018"><ele>206.5</ele><time>2026-05-02T16:55:39Z</time></trkpt><trkpt lat="45.11192901228116" lon="13.807225463149717"><ele>207.0</ele><time>2026-05-02T16:55:41Z</time></trkpt><trkpt lat="45.111867008532144" lon="13.80732613302508"><ele>207.0</ele><time>2026-05-02T16:55:43Z</time></trkpt><trkpt lat="45.111824470144825" lon="13.807398538806257"><ele>207.0</ele><time>2026-05-02T16:55:44Z</time></trkpt><trkpt lat="45.11177441950804" lon="13.807483731390482"><ele>207.0</ele><time>2026-05-02T16:55:45Z</time></trkpt><trkpt lat="45.111721637337276" lon="13.807582497216767"><ele>207.0</ele><time>2026-05-02T16:55:46Z</time></trkpt><trkpt lat="45.11166817005833" lon="13.807685519545497"><ele>207.0</ele><time>2026-05-02T16:55:47Z</time></trkpt><trkpt lat="45.11162109728566" lon="13.807785791967799"><ele>207.0</ele><time>2026-05-02T16:55:48Z</time></trkpt><trkpt lat="45.111572698638085" lon="13.807896824151086"><ele>206.6</ele><time>2026-05-02T16:55:49Z</time></trkpt><trkpt lat="45.11151433383658" lon="13.808009989440876"><ele>206.2</ele><time>2026-05-02T16:55:50Z</time></trkpt><trkpt lat="45.11147013116926" lon="13.808149741241921"><ele>205.8</ele><time>2026-05-02T16:55:51Z</time></trkpt><trkpt lat="45.11142569535232" lon="13.808298440382808"><ele>205.4</ele><time>2026-05-02T16:55:52Z</time></trkpt><trkpt lat="45.111382823886636" lon="13.808468528788925"><ele>205.0</ele><time>2026-05-02T16:55:53Z</time></trkpt><trkpt lat="45.11134395801974" lon="13.808643531733939"><ele>204.75</ele><time>2026-05-02T16:55:54Z</time></trkpt><trkpt lat="45.11130731693142" lon="13.808827664711252"><ele>204.5</ele><time>2026-05-02T16:55:55Z</time></trkpt><trkpt lat="45.11127613189285" lon="13.809027268541449"><ele>204.25</ele><time>2026-05-02T16:55:56Z</time></trkpt><trkpt lat="45.11124824536946" lon="13.809231254483205"><ele>204.0</ele><time>2026-05-02T16:55:57Z</time></trkpt><trkpt lat="45.111229448875854" lon="13.80944454221953"><ele>203.66666666666669</ele><time>2026-05-02T16:55:58Z</time></trkpt><trkpt lat="45.111209559689634" lon="13.80965964884294"><ele>203.33333333333334</ele><time>2026-05-02T16:55:59Z</time></trkpt><trkpt lat="45.111194169940525" lon="13.809884133661102"><ele>203.0</ele><time>2026-05-02T16:56:00Z</time></trkpt><trkpt lat="45.11118450682756" lon="13.810120539422874"><ele>203.0</ele><time>2026-05-02T16:56:01Z</time></trkpt><trkpt lat="45.111186321873134" lon="13.810361084735378"><ele>203.0</ele><time>2026-05-02T16:56:02Z</time></trkpt><trkpt lat="45.11119775878632" lon="13.81061208588725"><ele>203.0</ele><time>2026-05-02T16:56:03Z</time></trkpt><trkpt lat="45.111217990639965" lon="13.810866012519746"><ele>203.33333333333334</ele><time>2026-05-02T16:56:04Z</time></trkpt><trkpt lat="45.11124709039888" lon="13.81112524025882"><ele>203.66666666666669</ele><time>2026-05-02T16:56:05Z</time></trkpt><trkpt lat="45.11128759925491" lon="13.81138716688028"><ele>204.0</ele><time>2026-05-02T16:56:06Z</time></trkpt><trkpt lat="45.111339880765385" lon="13.811648776609967"><ele>202.66666666666669</ele><time>2026-05-02T16:56:07Z</time></trkpt><trkpt lat="45.11140478378804" lon="13.811910567183752"><ele>201.33333333333334</ele><time>2026-05-02T16:56:08Z</time></trkpt><trkpt lat="45.11148223911692" lon="13.812170558421325"><ele>200.0</ele><time>2026-05-02T16:56:09Z</time></trkpt><trkpt lat="45.111573254087155" lon="13.812426135931902"><ele>201.0</ele><time>2026-05-02T16:56:10Z</time></trkpt><trkpt lat="45.11168021205345" lon="13.81267903048592"><ele>202.0</ele><time>2026-05-02T16:56:11Z</time></trkpt><trkpt lat="45.11179588753476" lon="13.812925744387858"><ele>203.0</ele><time>2026-05-02T16:56:12Z</time></trkpt><trkpt lat="45.11191226638201" lon="13.813173681455716"><ele>203.0</ele><time>2026-05-02T16:56:13Z</time></trkpt><trkpt lat="45.112033660574774" lon="13.813420128679565"><ele>203.0</ele><time>2026-05-02T16:56:14Z</time></trkpt><trkpt lat="45.11215179082121" lon="13.813665209414038"><ele>203.0</ele><time>2026-05-02T16:56:15Z</time></trkpt><trkpt lat="45.11226727951927" lon="13.81391257119484"><ele>204.0</ele><time>2026-05-02T16:56:16Z</time></trkpt><trkpt lat="45.112377645610515" lon="13.814155528409414"><ele>205.0</ele><time>2026-05-02T16:56:17Z</time></trkpt><trkpt lat="45.11248394128851" lon="13.814393691234987"><ele>206.0</ele><time>2026-05-02T16:56:18Z</time></trkpt><trkpt lat="45.1125893842993" lon="13.814621935144922"><ele>206.0</ele><time>2026-05-02T16:56:19Z</time></trkpt><trkpt lat="45.11269252806218" lon="13.814837827269596"><ele>206.0</ele><time>2026-05-02T16:56:20Z</time></trkpt><trkpt lat="45.11279279278968" lon="13.815042953142374"><ele>206.0</ele><time>2026-05-02T16:56:21Z</time></trkpt><trkpt lat="45.11288651042173" lon="13.815239844674467"><ele>206.0</ele><time>2026-05-02T16:56:22Z</time></trkpt><trkpt lat="45.11297808660399" lon="13.815431878000942"><ele>206.0</ele><time>2026-05-02T16:56:23Z</time></trkpt><trkpt lat="45.11305989861381" lon="13.815616428833522"><ele>206.0</ele><time>2026-05-02T16:56:24Z</time></trkpt><trkpt lat="45.11313286279778" lon="13.815799148121252"><ele>206.0</ele><time>2026-05-02T16:56:25Z</time></trkpt><trkpt lat="45.11318513511031" lon="13.815983313501667"><ele>206.0</ele><time>2026-05-02T16:56:26Z</time></trkpt><trkpt lat="45.113212070406234" lon="13.816164620695542"><ele>206.0</ele><time>2026-05-02T16:56:27Z</time></trkpt><trkpt lat="45.11321650152954" lon="13.816345348981832"><ele>206.0</ele><time>2026-05-02T16:56:28Z</time></trkpt><trkpt lat="45.1131991104783" lon="13.816519437541123"><ele>206.25</ele><time>2026-05-02T16:56:29Z</time></trkpt><trkpt lat="45.11315777429783" lon="13.816687393563468"><ele>206.5</ele><time>2026-05-02T16:56:30Z</time></trkpt><trkpt lat="45.11309443196846" lon="13.816843887081086"><ele>206.75</ele><time>2026-05-02T16:56:31Z</time></trkpt><trkpt lat="45.113012965674976" lon="13.816986775748505"><ele>207.0</ele><time>2026-05-02T16:56:32Z</time></trkpt><trkpt lat="45.11291834522424" lon="13.817096611399057"><ele>208.25</ele><time>2026-05-02T16:56:33Z</time></trkpt><trkpt lat="45.11281426187048" lon="13.817189949567826"><ele>209.5</ele><time>2026-05-02T16:56:34Z</time></trkpt><trkpt lat="45.11269918636466" lon="13.817261958743083"><ele>210.75</ele><time>2026-05-02T16:56:35Z</time></trkpt><trkpt lat="45.112575564530715" lon="13.817318350062079"><ele>212.0</ele><time>2026-05-02T16:56:36Z</time></trkpt><trkpt lat="45.112442790894725" lon="13.8173666346272"><ele>212.25</ele><time>2026-05-02T16:56:37Z</time></trkpt><trkpt lat="45.11230045779702" lon="13.817394476464973"><ele>212.5</ele><time>2026-05-02T16:56:38Z</time></trkpt><trkpt lat="45.112155090211594" lon="13.81740262214628"><ele>212.75</ele><time>2026-05-02T16:56:39Z</time></trkpt><trkpt lat="45.112006556485845" lon="13.81738494031263"><ele>213.0</ele><time>2026-05-02T16:56:40Z</time></trkpt><trkpt lat="45.11185836551369" lon="13.817344758791256"><ele>213.0</ele><time>2026-05-02T16:56:41Z</time></trkpt><trkpt lat="45.1117191658639" lon="13.81727974781783"><ele>213.0</ele><time>2026-05-02T16:56:42Z</time></trkpt><trkpt lat="45.111592804774986" lon="13.817188740332051"><ele>213.0</ele><time>2026-05-02T16:56:43Z</time></trkpt><trkpt lat="45.111469573231" lon="13.817092101946946"><ele>213.0</ele><time>2026-05-02T16:56:44Z</time></trkpt><trkpt lat="45.11135697717024" lon="13.816977238258533"><ele>212.75</ele><time>2026-05-02T16:56:45Z</time></trkpt><trkpt lat="45.111254772373975" lon="13.816845416656314"><ele>212.5</ele><time>2026-05-02T16:56:46Z</time></trkpt><trkpt lat="45.111162636743025" lon="13.816705313968537"><ele>212.25</ele><time>2026-05-02T16:56:47Z</time></trkpt><trkpt lat="45.111080959937084" lon="13.816554663424341"><ele>212.0</ele><time>2026-05-02T16:56:48Z</time></trkpt><trkpt lat="45.111016316391904" lon="13.816390796606038"><ele>211.5</ele><time>2026-05-02T16:56:49Z</time></trkpt><trkpt lat="45.110977729772245" lon="13.816216028861502"><ele>211.0</ele><time>2026-05-02T16:56:50Z</time></trkpt><trkpt lat="45.11096867187034" lon="13.81603453808111"><ele>210.5</ele><time>2026-05-02T16:56:51Z</time></trkpt><trkpt lat="45.111001566429934" lon="13.815863945295803"><ele>210.0</ele><time>2026-05-02T16:56:52Z</time></trkpt><trkpt lat="45.11106336368999" lon="13.81571944640915"><ele>209.4</ele><time>2026-05-02T16:56:53Z</time></trkpt><trkpt lat="45.11114244638742" lon="13.815603758538296"><ele>208.8</ele><time>2026-05-02T16:56:54Z</time></trkpt><trkpt lat="45.11123066088976" lon="13.815519187485384"><ele>208.2</ele><time>2026-05-02T16:56:55Z</time></trkpt><trkpt lat="45.111325697513266" lon="13.815447574620663"><ele>207.6</ele><time>2026-05-02T16:56:56Z</time></trkpt><trkpt lat="45.11143390382495" lon="13.815379317819465"><ele>207.0</ele><time>2026-05-02T16:56:57Z</time></trkpt><trkpt lat="45.111549503939884" lon="13.815305954212239"><ele>207.0</ele><time>2026-05-02T16:56:58Z</time></trkpt><trkpt lat="45.11167259681578" lon="13.815225927099021"><ele>207.0</ele><time>2026-05-02T16:56:59Z</time></trkpt><trkpt lat="45.111802339025765" lon="13.815137770605451"><ele>207.0</ele><time>2026-05-02T16:57:00Z</time></trkpt><trkpt lat="45.111940734170894" lon="13.81504622586719"><ele>207.0</ele><time>2026-05-02T16:57:01Z</time></trkpt><trkpt lat="45.112091813317235" lon="13.814936124234745"><ele>207.0</ele><time>2026-05-02T16:57:02Z</time></trkpt><trkpt lat="45.11223749985642" lon="13.814840870444426"><ele>207.0</ele><time>2026-05-02T16:57:03Z</time></trkpt><trkpt lat="45.112396592891976" lon="13.81472613335913"><ele>207.0</ele><time>2026-05-02T16:57:04Z</time></trkpt><trkpt lat="45.11256566716255" lon="13.8145963891414"><ele>207.33333333333331</ele><time>2026-05-02T16:57:05Z</time></trkpt><trkpt lat="45.11273365938113" lon="13.814466864260465"><ele>207.66666666666666</ele><time>2026-05-02T16:57:06Z</time></trkpt><trkpt lat="45.11290994152649" lon="13.814326782929463"><ele>208.0</ele><time>2026-05-02T16:57:07Z</time></trkpt><trkpt lat="45.113087879315" lon="13.814180657875704"><ele>208.33333333333331</ele><time>2026-05-02T16:57:08Z</time></trkpt><trkpt lat="45.11326993392655" lon="13.814041428984304"><ele>208.66666666666669</ele><time>2026-05-02T16:57:09Z</time></trkpt><trkpt lat="45.11345786537641" lon="13.813886308577457"><ele>209.0</ele><time>2026-05-02T16:57:10Z</time></trkpt><trkpt lat="45.11364850590818" lon="13.813723444312611"><ele>209.0</ele><time>2026-05-02T16:57:11Z</time></trkpt><trkpt lat="45.11383968068349" lon="13.8135560382305"><ele>209.0</ele><time>2026-05-02T16:57:12Z</time></trkpt><trkpt lat="45.11403508328634" lon="13.813380646626852"><ele>208.0</ele><time>2026-05-02T16:57:13Z</time></trkpt><trkpt lat="45.114233677094035" lon="13.813206049858483"><ele>207.0</ele><time>2026-05-02T16:57:14Z</time></trkpt><trkpt lat="45.11443205282799" lon="13.813031723940266"><ele>207.0</ele><time>2026-05-02T16:57:15Z</time></trkpt><trkpt lat="45.114620700845826" lon="13.812859520668782"><ele>207.0</ele><time>2026-05-02T16:57:16Z</time></trkpt><trkpt lat="45.11479694576315" lon="13.812692498776439"><ele>207.0</ele><time>2026-05-02T16:57:17Z</time></trkpt><trkpt lat="45.114970865368086" lon="13.812519779263075"><ele>207.33333333333331</ele><time>2026-05-02T16:57:18Z</time></trkpt><trkpt lat="45.11515102048969" lon="13.81234255797529"><ele>207.66666666666666</ele><time>2026-05-02T16:57:19Z</time></trkpt><trkpt lat="45.115334195748694" lon="13.812158007521415"><ele>208.0</ele><time>2026-05-02T16:57:20Z</time></trkpt><trkpt lat="45.11552088077882" lon="13.811971936827415"><ele>208.0</ele><time>2026-05-02T16:57:21Z</time></trkpt><trkpt lat="45.115711079947154" lon="13.811777425307541"><ele>208.0</ele><time>2026-05-02T16:57:22Z</time></trkpt><trkpt lat="45.11590349623205" lon="13.811577410351536"><ele>209.0</ele><time>2026-05-02T16:57:23Z</time></trkpt><trkpt lat="45.11608889332205" lon="13.81137619219794"><ele>210.0</ele><time>2026-05-02T16:57:24Z</time></trkpt><trkpt lat="45.116273060705794" lon="13.81116749752436"><ele>209.5</ele><time>2026-05-02T16:57:25Z</time></trkpt><trkpt lat="45.116449750828856" lon="13.810956715240744"><ele>209.0</ele><time>2026-05-02T16:57:26Z</time></trkpt><trkpt lat="45.11661933524936" lon="13.810744175880476"><ele>209.0</ele><time>2026-05-02T16:57:27Z</time></trkpt><trkpt lat="45.11678351674289" lon="13.810538767630547"><ele>209.0</ele><time>2026-05-02T16:57:28Z</time></trkpt><trkpt lat="45.116944833355944" lon="13.810334914213437"><ele>209.0</ele><time>2026-05-02T16:57:29Z</time></trkpt><trkpt lat="45.117105012738286" lon="13.810137702568554"><ele>208.66666666666669</ele><time>2026-05-02T16:57:30Z</time></trkpt><trkpt lat="45.117259134283444" lon="13.809946298935316"><ele>208.33333333333331</ele><time>2026-05-02T16:57:31Z</time></trkpt><trkpt lat="45.11740972110122" lon="13.809748574520771"><ele>208.0</ele><time>2026-05-02T16:57:32Z</time></trkpt><trkpt lat="45.117554236425896" lon="13.809553887118547"><ele>208.0</ele><time>2026-05-02T16:57:33Z</time></trkpt><trkpt lat="45.11769343155105" lon="13.809364718104096"><ele>208.0</ele><time>2026-05-02T16:57:34Z</time></trkpt><trkpt lat="45.11783137362186" lon="13.809174741699227"><ele>208.0</ele><time>2026-05-02T16:57:35Z</time></trkpt><trkpt lat="45.117970044043695" lon="13.808982114959926"><ele>208.0</ele><time>2026-05-02T16:57:36Z</time></trkpt><trkpt lat="45.11810669552471" lon="13.808790573672809"><ele>208.0</ele><time>2026-05-02T16:57:37Z</time></trkpt><trkpt lat="45.11823606592218" lon="13.808601071724881"><ele>208.0</ele><time>2026-05-02T16:57:38Z</time></trkpt><trkpt lat="45.11836139604848" lon="13.80841037520002"><ele>208.0</ele><time>2026-05-02T16:57:39Z</time></trkpt><trkpt lat="45.11848074163981" lon="13.808220625622372"><ele>208.0</ele><time>2026-05-02T16:57:40Z</time></trkpt><trkpt lat="45.11859413868796" lon="13.80803525391527"><ele>208.0</ele><time>2026-05-02T16:57:41Z</time></trkpt><trkpt lat="45.118699107980255" lon="13.807853364660687"><ele>208.0</ele><time>2026-05-02T16:57:42Z</time></trkpt><trkpt lat="45.11878967643523" lon="13.807667966912943"><ele>208.0</ele><time>2026-05-02T16:57:43Z</time></trkpt><trkpt lat="45.11886927366703" lon="13.807467918525102"><ele>208.0</ele><time>2026-05-02T16:57:44Z</time></trkpt><trkpt lat="45.11895109903936" lon="13.807264406237575"><ele>208.66666666666666</ele><time>2026-05-02T16:57:45Z</time></trkpt><trkpt lat="45.11903698978386" lon="13.807060587998945"><ele>209.33333333333331</ele><time>2026-05-02T16:57:46Z</time></trkpt><trkpt lat="45.11912378330717" lon="13.806857396945693"><ele>210.0</ele><time>2026-05-02T16:57:47Z</time></trkpt><trkpt lat="45.11921169608481" lon="13.806655832437912"><ele>210.33333333333331</ele><time>2026-05-02T16:57:48Z</time></trkpt><trkpt lat="45.11929762441085" lon="13.806451109852008"><ele>210.66666666666666</ele><time>2026-05-02T16:57:49Z</time></trkpt><trkpt lat="45.11937724211634" lon="13.806240866025393"><ele>211.0</ele><time>2026-05-02T16:57:50Z</time></trkpt><trkpt lat="45.119454335488165" lon="13.806026978646166"><ele>211.66666666666666</ele><time>2026-05-02T16:57:51Z</time></trkpt><trkpt lat="45.119528634168056" lon="13.805817611310633"><ele>212.33333333333331</ele><time>2026-05-02T16:57:52Z</time></trkpt><trkpt lat="45.11959811628175" lon="13.805611115134806"><ele>213.0</ele><time>2026-05-02T16:57:53Z</time></trkpt><trkpt lat="45.11966118016126" lon="13.80541373974125"><ele>213.0</ele><time>2026-05-02T16:57:54Z</time></trkpt><trkpt lat="45.119725178550475" lon="13.805213726988981"><ele>213.0</ele><time>2026-05-02T16:57:55Z</time></trkpt><trkpt lat="45.119785379555196" lon="13.80500954494679"><ele>213.0</ele><time>2026-05-02T16:57:56Z</time></trkpt><trkpt lat="45.11984397781994" lon="13.804799565012532"><ele>212.0</ele><time>2026-05-02T16:57:57Z</time></trkpt><trkpt lat="45.11990342008633" lon="13.804584380329258"><ele>211.0</ele><time>2026-05-02T16:57:58Z</time></trkpt><trkpt lat="45.11996223923947" lon="13.804368844894803"><ele>210.0</ele><time>2026-05-02T16:57:59Z</time></trkpt><trkpt lat="45.120019785083386" lon="13.804149151227634"><ele>207.33333333333331</ele><time>2026-05-02T16:58:00Z</time></trkpt><trkpt lat="45.12007867269041" lon="13.803929332756901"><ele>204.66666666666666</ele><time>2026-05-02T16:58:01Z</time></trkpt><trkpt lat="45.12013791955822" lon="13.803703763117287"><ele>202.0</ele><time>2026-05-02T16:58:02Z</time></trkpt><trkpt lat="45.12019852179426" lon="13.803477672684606"><ele>194.33333333333331</ele><time>2026-05-02T16:58:03Z</time></trkpt><trkpt lat="45.120258669768575" lon="13.803247649130077"><ele>186.66666666666666</ele><time>2026-05-02T16:58:04Z</time></trkpt><trkpt lat="45.12031906727697" lon="13.803017562273254"><ele>179.0</ele><time>2026-05-02T16:58:05Z</time></trkpt><trkpt lat="45.12037974772859" lon="13.802789463025762"><ele>170.0</ele><time>2026-05-02T16:58:06Z</time></trkpt><trkpt lat="45.12044060937257" lon="13.802559504533805"><ele>161.0</ele><time>2026-05-02T16:58:07Z</time></trkpt><trkpt lat="45.12050295573711" lon="13.802328084481847"><ele>152.0</ele><time>2026-05-02T16:58:08Z</time></trkpt><trkpt lat="45.120565636514876" lon="13.802096298213723"><ele>152.0</ele><time>2026-05-02T16:58:09Z</time></trkpt><trkpt lat="45.12062671196169" lon="13.80186414790707"><ele>152.0</ele><time>2026-05-02T16:58:10Z</time></trkpt><trkpt lat="45.12068698327837" lon="13.801629560125708"><ele>152.0</ele><time>2026-05-02T16:58:11Z</time></trkpt><trkpt lat="45.12074836436029" lon="13.801395792885545"><ele>137.33333333333331</ele><time>2026-05-02T16:58:12Z</time></trkpt><trkpt lat="45.12080823013878" lon="13.80116581218313"><ele>122.66666666666666</ele><time>2026-05-02T16:58:13Z</time></trkpt><trkpt lat="45.12086820390775" lon="13.800938367234961"><ele>108.0</ele><time>2026-05-02T16:58:14Z</time></trkpt><trkpt lat="45.12092699094789" lon="13.800715630320488"><ele>108.0</ele><time>2026-05-02T16:58:15Z</time></trkpt><trkpt lat="45.120983847737044" lon="13.800495644816065"><ele>108.0</ele><time>2026-05-02T16:58:16Z</time></trkpt><trkpt lat="45.12104105498554" lon="13.800278062835371"><ele>108.0</ele><time>2026-05-02T16:58:17Z</time></trkpt><trkpt lat="45.12109887771788" lon="13.800059091591049"><ele>108.0</ele><time>2026-05-02T16:58:18Z</time></trkpt><trkpt lat="45.12115797767302" lon="13.799838502438481"><ele>108.0</ele><time>2026-05-02T16:58:19Z</time></trkpt><trkpt lat="45.121218054611774" lon="13.799612913854203"><ele>108.0</ele><time>2026-05-02T16:58:20Z</time></trkpt><trkpt lat="45.12127776977185" lon="13.799381817764129"><ele>117.0</ele><time>2026-05-02T16:58:21Z</time></trkpt><trkpt lat="45.12133976444029" lon="13.799144684904409"><ele>126.0</ele><time>2026-05-02T16:58:22Z</time></trkpt><trkpt lat="45.12140157717128" lon="13.798908939417842"><ele>135.0</ele><time>2026-05-02T16:58:23Z</time></trkpt><trkpt lat="45.121462212269066" lon="13.798675645033237"><ele>141.0</ele><time>2026-05-02T16:58:24Z</time></trkpt><trkpt lat="45.121523391184034" lon="13.798450441038602"><ele>147.0</ele><time>2026-05-02T16:58:25Z</time></trkpt><trkpt lat="45.12158281558452" lon="13.798227326245138"><ele>153.0</ele><time>2026-05-02T16:58:26Z</time></trkpt><trkpt lat="45.12164076657902" lon="13.798007112837107"><ele>158.0</ele><time>2026-05-02T16:58:27Z</time></trkpt><trkpt lat="45.12169587359083" lon="13.797790501879758"><ele>163.0</ele><time>2026-05-02T16:58:28Z</time></trkpt><trkpt lat="45.12175031672269" lon="13.797588585357767"><ele>168.0</ele><time>2026-05-02T16:58:29Z</time></trkpt><trkpt lat="45.121803267082214" lon="13.79739148426387"><ele>173.25</ele><time>2026-05-02T16:58:30Z</time></trkpt><trkpt lat="45.12185343629957" lon="13.797197373323042"><ele>178.5</ele><time>2026-05-02T16:58:31Z</time></trkpt><trkpt lat="45.12190248923533" lon="13.797004481975204"><ele>183.75</ele><time>2026-05-02T16:58:32Z</time></trkpt><trkpt lat="45.1219543370462" lon="13.796814658138919"><ele>189.0</ele><time>2026-05-02T16:58:33Z</time></trkpt><trkpt lat="45.12200636526235" lon="13.796619004677948"><ele>190.25</ele><time>2026-05-02T16:58:34Z</time></trkpt><trkpt lat="45.12206079429478" lon="13.796423316379741"><ele>191.5</ele><time>2026-05-02T16:58:35Z</time></trkpt><trkpt lat="45.122118027722365" lon="13.796230591539066"><ele>192.75</ele><time>2026-05-02T16:58:36Z</time></trkpt><trkpt lat="45.12218066223346" lon="13.796042405423758"><ele>194.0</ele><time>2026-05-02T16:58:37Z</time></trkpt><trkpt lat="45.12224549131644" lon="13.795845445100378"><ele>194.0</ele><time>2026-05-02T16:58:38Z</time></trkpt><trkpt lat="45.12230826257667" lon="13.795646868322242"><ele>194.0</ele><time>2026-05-02T16:58:39Z</time></trkpt><trkpt lat="45.122369493563625" lon="13.795445976749642"><ele>194.0</ele><time>2026-05-02T16:58:40Z</time></trkpt><trkpt lat="45.12243243773963" lon="13.795240133634666"><ele>195.66666666666669</ele><time>2026-05-02T16:58:41Z</time></trkpt><trkpt lat="45.1224951360487" lon="13.79502518200472"><ele>197.33333333333331</ele><time>2026-05-02T16:58:42Z</time></trkpt><trkpt lat="45.12255991383685" lon="13.794801607733948"><ele>199.0</ele><time>2026-05-02T16:58:43Z</time></trkpt><trkpt lat="45.12262715379993" lon="13.794565593882126"><ele>198.33333333333331</ele><time>2026-05-02T16:58:44Z</time></trkpt><trkpt lat="45.12269284233253" lon="13.794305837939385"><ele>197.66666666666669</ele><time>2026-05-02T16:58:45Z</time></trkpt><trkpt lat="45.12275896665969" lon="13.79404806133247"><ele>197.0</ele><time>2026-05-02T16:58:46Z</time></trkpt><trkpt lat="45.12282831301734" lon="13.79377659865009"><ele>196.66666666666669</ele><time>2026-05-02T16:58:47Z</time></trkpt><trkpt lat="45.12289919537195" lon="13.79350227267503"><ele>196.33333333333331</ele><time>2026-05-02T16:58:48Z</time></trkpt><trkpt lat="45.12297483605094" lon="13.793213382098541"><ele>196.0</ele><time>2026-05-02T16:58:49Z</time></trkpt><trkpt lat="45.123052758175774" lon="13.792912170257505"><ele>195.5</ele><time>2026-05-02T16:58:50Z</time></trkpt><trkpt lat="45.12313282053422" lon="13.792600556141823"><ele>195.0</ele><time>2026-05-02T16:58:51Z</time></trkpt><trkpt lat="45.12321550619009" lon="13.79227838461711"><ele>198.0</ele><time>2026-05-02T16:58:52Z</time></trkpt><trkpt lat="45.123299288359604" lon="13.791944050277445"><ele>201.0</ele><time>2026-05-02T16:58:53Z</time></trkpt><trkpt lat="45.12338458205967" lon="13.791600112696635"><ele>201.0</ele><time>2026-05-02T16:58:54Z</time></trkpt><trkpt lat="45.12347015531957" lon="13.791250915694842"><ele>201.0</ele><time>2026-05-02T16:58:55Z</time></trkpt><trkpt lat="45.12355890136224" lon="13.790901074174851"><ele>200.0</ele><time>2026-05-02T16:58:56Z</time></trkpt><trkpt lat="45.12364688441114" lon="13.790549834934252"><ele>199.0</ele><time>2026-05-02T16:58:57Z</time></trkpt><trkpt lat="45.123732134790714" lon="13.790190760756888"><ele>198.0</ele><time>2026-05-02T16:58:58Z</time></trkpt><trkpt lat="45.123812459604984" lon="13.789824361839043"><ele>197.0</ele><time>2026-05-02T16:58:59Z</time></trkpt><trkpt lat="45.123888876378665" lon="13.7894558219846"><ele>196.0</ele><time>2026-05-02T16:59:00Z</time></trkpt><trkpt lat="45.1239658874434" lon="13.789081194075283"><ele>195.0</ele><time>2026-05-02T16:59:01Z</time></trkpt><trkpt lat="45.12404403015549" lon="13.788697648467036"><ele>194.0</ele><time>2026-05-02T16:59:02Z</time></trkpt><trkpt lat="45.12411860658015" lon="13.78830749280409"><ele>193.0</ele><time>2026-05-02T16:59:03Z</time></trkpt><trkpt lat="45.12418976651717" lon="13.787909083704307"><ele>194.5</ele><time>2026-05-02T16:59:04Z</time></trkpt><trkpt lat="45.12426017870626" lon="13.78750666340289"><ele>196.0</ele><time>2026-05-02T16:59:05Z</time></trkpt><trkpt lat="45.124331897332944" lon="13.78709951711626"><ele>196.5</ele><time>2026-05-02T16:59:06Z</time></trkpt><trkpt lat="45.124402092542866" lon="13.786693487399548"><ele>197.0</ele><time>2026-05-02T16:59:07Z</time></trkpt><trkpt lat="45.124472671053994" lon="13.786288696686917"><ele>195.0</ele><time>2026-05-02T16:59:08Z</time></trkpt><trkpt lat="45.12454069449216" lon="13.785881521188864"><ele>193.0</ele><time>2026-05-02T16:59:09Z</time></trkpt><trkpt lat="45.12460815403531" lon="13.785470810357365"><ele>192.5</ele><time>2026-05-02T16:59:10Z</time></trkpt><trkpt lat="45.12467241283368" lon="13.785057830079314"><ele>192.0</ele><time>2026-05-02T16:59:11Z</time></trkpt><trkpt lat="45.12473444615796" lon="13.78464026507648"><ele>192.5</ele><time>2026-05-02T16:59:12Z</time></trkpt><trkpt lat="45.12479554048677" lon="13.784215127786862"><ele>193.0</ele><time>2026-05-02T16:59:13Z</time></trkpt><trkpt lat="45.12485643829184" lon="13.783788206449326"><ele>193.0</ele><time>2026-05-02T16:59:14Z</time></trkpt><trkpt lat="45.124915305342086" lon="13.783355285981742"><ele>193.0</ele><time>2026-05-02T16:59:15Z</time></trkpt><trkpt lat="45.124971208652035" lon="13.782917503798357"><ele>192.0</ele><time>2026-05-02T16:59:16Z</time></trkpt><trkpt lat="45.125027574706074" lon="13.782480073728083"><ele>191.0</ele><time>2026-05-02T16:59:17Z</time></trkpt><trkpt lat="45.12508191700882" lon="13.78203950431636"><ele>190.0</ele><time>2026-05-02T16:59:18Z</time></trkpt><trkpt lat="45.12513581073447" lon="13.781599121210418"><ele>189.0</ele><time>2026-05-02T16:59:19Z</time></trkpt><trkpt lat="45.125187109563946" lon="13.78116475051898"><ele>189.5</ele><time>2026-05-02T16:59:20Z</time></trkpt><trkpt lat="45.12523894006257" lon="13.780732979644199"><ele>190.0</ele><time>2026-05-02T16:59:21Z</time></trkpt><trkpt lat="45.125292838721634" lon="13.780301593942374"><ele>189.0</ele><time>2026-05-02T16:59:22Z</time></trkpt><trkpt lat="45.12535296923279" lon="13.779871585662162"><ele>188.0</ele><time>2026-05-02T16:59:23Z</time></trkpt><trkpt lat="45.12541959283212" lon="13.779442586966768"><ele>186.5</ele><time>2026-05-02T16:59:24Z</time></trkpt><trkpt lat="45.12549472636302" lon="13.779016903203138"><ele>185.0</ele><time>2026-05-02T16:59:25Z</time></trkpt><trkpt lat="45.125581227365906" lon="13.778597476475282"><ele>184.0</ele><time>2026-05-02T16:59:26Z</time></trkpt><trkpt lat="45.12567805656914" lon="13.778181720060807"><ele>183.0</ele><time>2026-05-02T16:59:27Z</time></trkpt><trkpt lat="45.12578338492027" lon="13.777772506777845"><ele>186.5</ele><time>2026-05-02T16:59:28Z</time></trkpt><trkpt lat="45.125899202459586" lon="13.777367004017364"><ele>190.0</ele><time>2026-05-02T16:59:29Z</time></trkpt><trkpt lat="45.12602587902019" lon="13.77696607309421"><ele>190.0</ele><time>2026-05-02T16:59:30Z</time></trkpt><trkpt lat="45.126162382793396" lon="13.776567541651273"><ele>190.0</ele><time>2026-05-02T16:59:31Z</time></trkpt><trkpt lat="45.12630913540092" lon="13.776171207588582"><ele>189.5</ele><time>2026-05-02T16:59:32Z</time></trkpt><trkpt lat="45.1264684055205" lon="13.77578530791589"><ele>189.0</ele><time>2026-05-02T16:59:33Z</time></trkpt><trkpt lat="45.12663960606971" lon="13.775407755663995"><ele>190.5</ele><time>2026-05-02T16:59:34Z</time></trkpt><trkpt lat="45.126818300759524" lon="13.775038182505671"><ele>192.0</ele><time>2026-05-02T16:59:35Z</time></trkpt><trkpt lat="45.127003651306424" lon="13.774672968615404"><ele>191.0</ele><time>2026-05-02T16:59:36Z</time></trkpt><trkpt lat="45.12719793348944" lon="13.774317351830575"><ele>190.0</ele><time>2026-05-02T16:59:37Z</time></trkpt><trkpt lat="45.12740294378733" lon="13.773971984718814"><ele>191.0</ele><time>2026-05-02T16:59:38Z</time></trkpt><trkpt lat="45.12761465274668" lon="13.773640085757085"><ele>192.0</ele><time>2026-05-02T16:59:39Z</time></trkpt><trkpt lat="45.12783361122644" lon="13.773319320022788"><ele>192.0</ele><time>2026-05-02T16:59:40Z</time></trkpt><trkpt lat="45.12806067762777" lon="13.773009607548744"><ele>192.0</ele><time>2026-05-02T16:59:41Z</time></trkpt><trkpt lat="45.12829460790459" lon="13.77270517777108"><ele>192.5</ele><time>2026-05-02T16:59:42Z</time></trkpt><trkpt lat="45.12853061008722" lon="13.772407046923158"><ele>193.0</ele><time>2026-05-02T16:59:43Z</time></trkpt><trkpt lat="45.12877083579789" lon="13.772120573450646"><ele>193.0</ele><time>2026-05-02T16:59:44Z</time></trkpt><trkpt lat="45.12901670507059" lon="13.771848467353632"><ele>193.0</ele><time>2026-05-02T16:59:45Z</time></trkpt><trkpt lat="45.12926359712013" lon="13.771575378207043"><ele>193.0</ele><time>2026-05-02T16:59:46Z</time></trkpt><trkpt lat="45.129511252570744" lon="13.771309237004738"><ele>193.0</ele><time>2026-05-02T16:59:47Z</time></trkpt><trkpt lat="45.12976547656519" lon="13.771055896111825"><ele>192.5</ele><time>2026-05-02T16:59:48Z</time></trkpt><trkpt lat="45.130026459816705" lon="13.770811462296267"><ele>192.0</ele><time>2026-05-02T16:59:49Z</time></trkpt><trkpt lat="45.1302947977599" lon="13.770577058561413"><ele>192.0</ele><time>2026-05-02T16:59:50Z</time></trkpt><trkpt lat="45.130566861240595" lon="13.770348540156611"><ele>192.0</ele><time>2026-05-02T16:59:51Z</time></trkpt><trkpt lat="45.13084169401701" lon="13.770127200582177"><ele>192.0</ele><time>2026-05-02T16:59:52Z</time></trkpt><trkpt lat="45.1311202077561" lon="13.769912564035474"><ele>192.0</ele><time>2026-05-02T16:59:53Z</time></trkpt><trkpt lat="45.13140432451518" lon="13.769707976422008"><ele>191.0</ele><time>2026-05-02T16:59:54Z</time></trkpt><trkpt lat="45.13169147592926" lon="13.769510301969722"><ele>190.0</ele><time>2026-05-02T16:59:55Z</time></trkpt><trkpt lat="45.1319811605141" lon="13.769321890594886"><ele>190.0</ele><time>2026-05-02T16:59:56Z</time></trkpt><trkpt lat="45.13227315208525" lon="13.769142128827559"><ele>190.0</ele><time>2026-05-02T16:59:57Z</time></trkpt><trkpt lat="45.13256699664891" lon="13.76896289015007"><ele>193.0</ele><time>2026-05-02T16:59:58Z</time></trkpt><trkpt lat="45.13286399697736" lon="13.768783487665406"><ele>196.0</ele><time>2026-05-02T16:59:59Z</time></trkpt><trkpt lat="45.1331656136381" lon="13.768603967664623"><ele>193.5</ele><time>2026-05-02T17:00:00Z</time></trkpt><trkpt lat="45.13346931847217" lon="13.76842021475234"><ele>191.0</ele><time>2026-05-02T17:00:01Z</time></trkpt><trkpt lat="45.13377319547996" lon="13.768235984746148"><ele>189.5</ele><time>2026-05-02T17:00:02Z</time></trkpt><trkpt lat="45.13407474473083" lon="13.768046226620568"><ele>188.0</ele><time>2026-05-02T17:00:03Z</time></trkpt><trkpt lat="45.13437319620102" lon="13.767849568443552"><ele>188.5</ele><time>2026-05-02T17:00:04Z</time></trkpt><trkpt lat="45.13466954539349" lon="13.767649609708144"><ele>189.0</ele><time>2026-05-02T17:00:05Z</time></trkpt><trkpt lat="45.13496423225937" lon="13.767445287478717"><ele>188.0</ele><time>2026-05-02T17:00:06Z</time></trkpt><trkpt lat="45.13525616184881" lon="13.76723150103003"><ele>187.0</ele><time>2026-05-02T17:00:07Z</time></trkpt><trkpt lat="45.13554075803743" lon="13.767010273140524"><ele>186.5</ele><time>2026-05-02T17:00:08Z</time></trkpt><trkpt lat="45.13581846728662" lon="13.766778195243152"><ele>186.0</ele><time>2026-05-02T17:00:09Z</time></trkpt><trkpt lat="45.13608900342662" lon="13.766527647161617"><ele>186.0</ele><time>2026-05-02T17:00:10Z</time></trkpt><trkpt lat="45.13635583811294" lon="13.766264552013476"><ele>186.0</ele><time>2026-05-02T17:00:11Z</time></trkpt><trkpt lat="45.13661974964979" lon="13.765989545308718"><ele>186.0</ele><time>2026-05-02T17:00:12Z</time></trkpt><trkpt lat="45.136882377571276" lon="13.765703248723629"><ele>186.0</ele><time>2026-05-02T17:00:13Z</time></trkpt><trkpt lat="45.13713825081881" lon="13.765405782207528"><ele>187.0</ele><time>2026-05-02T17:00:14Z</time></trkpt><trkpt lat="45.137389164789056" lon="13.765094572459738"><ele>188.0</ele><time>2026-05-02T17:00:15Z</time></trkpt><trkpt lat="45.137633883988755" lon="13.764780202394432"><ele>188.0</ele><time>2026-05-02T17:00:16Z</time></trkpt><trkpt lat="45.13786968628001" lon="13.76445350213091"><ele>188.0</ele><time>2026-05-02T17:00:17Z</time></trkpt><trkpt lat="45.13809884501331" lon="13.764119780856184"><ele>186.0</ele><time>2026-05-02T17:00:18Z</time></trkpt><trkpt lat="45.13832282294192" lon="13.763773576393348"><ele>184.0</ele><time>2026-05-02T17:00:19Z</time></trkpt><trkpt lat="45.13854066377547" lon="13.763416143151716"><ele>182.5</ele><time>2026-05-02T17:00:20Z</time></trkpt><trkpt lat="45.13875210431347" lon="13.763048199265596"><ele>181.0</ele><time>2026-05-02T17:00:21Z</time></trkpt><trkpt lat="45.13895576439058" lon="13.762670978383781"><ele>180.0</ele><time>2026-05-02T17:00:22Z</time></trkpt><trkpt lat="45.13915095950419" lon="13.762284103805984"><ele>179.0</ele><time>2026-05-02T17:00:23Z</time></trkpt><trkpt lat="45.139338473106825" lon="13.761887934531394"><ele>178.5</ele><time>2026-05-02T17:00:24Z</time></trkpt><trkpt lat="45.13951763999167" lon="13.761481523438603"><ele>178.0</ele><time>2026-05-02T17:00:25Z</time></trkpt><trkpt lat="45.13968833885564" lon="13.761061789373082"><ele>177.0</ele><time>2026-05-02T17:00:26Z</time></trkpt><trkpt lat="45.13985375397385" lon="13.760641057261376"><ele>176.0</ele><time>2026-05-02T17:00:27Z</time></trkpt><trkpt lat="45.14000559825769" lon="13.760209490491238"><ele>176.0</ele><time>2026-05-02T17:00:28Z</time></trkpt><trkpt lat="45.14015213563551" lon="13.759775551484868"><ele>176.0</ele><time>2026-05-02T17:00:29Z</time></trkpt><trkpt lat="45.14029194867472" lon="13.759340461013242"><ele>176.0</ele><time>2026-05-02T17:00:30Z</time></trkpt><trkpt lat="45.14042772187822" lon="13.758904392821371"><ele>176.0</ele><time>2026-05-02T17:00:31Z</time></trkpt><trkpt lat="45.140561213462036" lon="13.758470838368215"><ele>175.5</ele><time>2026-05-02T17:00:32Z</time></trkpt><trkpt lat="45.14069071234733" lon="13.758037758768197"><ele>175.0</ele><time>2026-05-02T17:00:33Z</time></trkpt><trkpt lat="45.14081466197159" lon="13.757607118950538"><ele>173.5</ele><time>2026-05-02T17:00:34Z</time></trkpt><trkpt lat="45.140938363067875" lon="13.757178728961629"><ele>172.0</ele><time>2026-05-02T17:00:35Z</time></trkpt><trkpt lat="45.141061249888516" lon="13.75675744439139"><ele>171.0</ele><time>2026-05-02T17:00:36Z</time></trkpt><trkpt lat="45.141185849754365" lon="13.756340200552284"><ele>170.0</ele><time>2026-05-02T17:00:37Z</time></trkpt><trkpt lat="45.141314518363814" lon="13.755926684282766"><ele>169.5</ele><time>2026-05-02T17:00:38Z</time></trkpt><trkpt lat="45.1414484035644" lon="13.755512864949132"><ele>169.0</ele><time>2026-05-02T17:00:39Z</time></trkpt><trkpt lat="45.14158568878579" lon="13.75509595681122"><ele>169.0</ele><time>2026-05-02T17:00:40Z</time></trkpt><trkpt lat="45.141727991263245" lon="13.754680036111099"><ele>169.0</ele><time>2026-05-02T17:00:41Z</time></trkpt><trkpt lat="45.141877527376785" lon="13.754272525241651"><ele>167.5</ele><time>2026-05-02T17:00:42Z</time></trkpt><trkpt lat="45.14203355233302" lon="13.7538725035566"><ele>166.0</ele><time>2026-05-02T17:00:43Z</time></trkpt><trkpt lat="45.14219620553907" lon="13.753478122889495"><ele>166.0</ele><time>2026-05-02T17:00:44Z</time></trkpt><trkpt lat="45.14236411326164" lon="13.753086207923394"><ele>166.0</ele><time>2026-05-02T17:00:45Z</time></trkpt><trkpt lat="45.14253900733312" lon="13.752698307280014"><ele>166.0</ele><time>2026-05-02T17:00:46Z</time></trkpt><trkpt lat="45.14272392630723" lon="13.752320179630445"><ele>166.0</ele><time>2026-05-02T17:00:47Z</time></trkpt><trkpt lat="45.14291459878421" lon="13.7519427610846"><ele>165.0</ele><time>2026-05-02T17:00:48Z</time></trkpt><trkpt lat="45.14311371496581" lon="13.751567512492567"><ele>164.0</ele><time>2026-05-02T17:00:49Z</time></trkpt><trkpt lat="45.14331952873764" lon="13.751197569809893"><ele>163.5</ele><time>2026-05-02T17:00:50Z</time></trkpt><trkpt lat="45.14352900521897" lon="13.75084230174034"><ele>163.0</ele><time>2026-05-02T17:00:51Z</time></trkpt><trkpt lat="45.143741141064766" lon="13.750501314483655"><ele>161.0</ele><time>2026-05-02T17:00:52Z</time></trkpt><trkpt lat="45.143955342629766" lon="13.750172119315147"><ele>159.0</ele><time>2026-05-02T17:00:53Z</time></trkpt><trkpt lat="45.14417353006819" lon="13.74985686985572"><ele>159.0</ele><time>2026-05-02T17:00:54Z</time></trkpt><trkpt lat="45.14439603430752" lon="13.749547272726726"><ele>159.0</ele><time>2026-05-02T17:00:55Z</time></trkpt><trkpt lat="45.14462162545985" lon="13.749244099876783"><ele>157.5</ele><time>2026-05-02T17:00:56Z</time></trkpt><trkpt lat="45.144852105830196" lon="13.748944538184867"><ele>156.0</ele><time>2026-05-02T17:00:57Z</time></trkpt><trkpt lat="45.14509033599735" lon="13.748653546559815"><ele>156.0</ele><time>2026-05-02T17:00:58Z</time></trkpt><trkpt lat="45.14533386579115" lon="13.748365335260173"><ele>156.0</ele><time>2026-05-02T17:00:59Z</time></trkpt><trkpt lat="45.14558107245718" lon="13.748082568846531"><ele>157.5</ele><time>2026-05-02T17:01:00Z</time></trkpt><trkpt lat="45.145829337790225" lon="13.7477999415406"><ele>159.0</ele><time>2026-05-02T17:01:01Z</time></trkpt><trkpt lat="45.14608096974201" lon="13.747516311550534"><ele>159.0</ele><time>2026-05-02T17:01:02Z</time></trkpt><trkpt lat="45.14633670157694" lon="13.747236060895085"><ele>159.0</ele><time>2026-05-02T17:01:03Z</time></trkpt><trkpt lat="45.146595816702394" lon="13.746960160082788"><ele>158.5</ele><time>2026-05-02T17:01:04Z</time></trkpt><trkpt lat="45.14685776289164" lon="13.746679509009134"><ele>158.0</ele><time>2026-05-02T17:01:05Z</time></trkpt><trkpt lat="45.14712067713405" lon="13.74639430846134"><ele>158.0</ele><time>2026-05-02T17:01:06Z</time></trkpt><trkpt lat="45.14738267987178" lon="13.746104941632108"><ele>158.0</ele><time>2026-05-02T17:01:07Z</time></trkpt><trkpt lat="45.14764283244641" lon="13.745807895357114"><ele>156.0</ele><time>2026-05-02T17:01:08Z</time></trkpt><trkpt lat="45.14790303250744" lon="13.745504088523392"><ele>154.0</ele><time>2026-05-02T17:01:09Z</time></trkpt><trkpt lat="45.14816115104989" lon="13.745194564358332"><ele>153.0</ele><time>2026-05-02T17:01:10Z</time></trkpt><trkpt lat="45.148416242358955" lon="13.7448778020117"><ele>152.0</ele><time>2026-05-02T17:01:11Z</time></trkpt><trkpt lat="45.14866446444277" lon="13.744555913319843"><ele>150.5</ele><time>2026-05-02T17:01:12Z</time></trkpt><trkpt lat="45.14890609978353" lon="13.744230094192387"><ele>149.0</ele><time>2026-05-02T17:01:13Z</time></trkpt><trkpt lat="45.14913890336104" lon="13.743894325503195"><ele>149.0</ele><time>2026-05-02T17:01:14Z</time></trkpt><trkpt lat="45.149361578775675" lon="13.743552641597232"><ele>149.0</ele><time>2026-05-02T17:01:15Z</time></trkpt><trkpt lat="45.14957600139803" lon="13.743207338830128"><ele>147.5</ele><time>2026-05-02T17:01:16Z</time></trkpt><trkpt lat="45.14978620088941" lon="13.742853542512519"><ele>146.0</ele><time>2026-05-02T17:01:17Z</time></trkpt><trkpt lat="45.14999145139448" lon="13.74250344386915"><ele>145.5</ele><time>2026-05-02T17:01:18Z</time></trkpt><trkpt lat="45.15019149335394" lon="13.742150106966267"><ele>145.0</ele><time>2026-05-02T17:01:19Z</time></trkpt><trkpt lat="45.15038338486972" lon="13.74179697685505"><ele>145.0</ele><time>2026-05-02T17:01:20Z</time></trkpt><trkpt lat="45.15056957766264" lon="13.741440372046172"><ele>145.0</ele><time>2026-05-02T17:01:21Z</time></trkpt><trkpt lat="45.15075333469239" lon="13.74108166570835"><ele>143.0</ele><time>2026-05-02T17:01:22Z</time></trkpt><trkpt lat="45.15093898093763" lon="13.740720648048121"><ele>141.0</ele><time>2026-05-02T17:01:23Z</time></trkpt><trkpt lat="45.15112341239137" lon="13.7403657336225"><ele>141.5</ele><time>2026-05-02T17:01:24Z</time></trkpt><trkpt lat="45.151305548802775" lon="13.740009056796824"><ele>142.0</ele><time>2026-05-02T17:01:25Z</time></trkpt><trkpt lat="45.15148718893921" lon="13.739651704687864"><ele>140.0</ele><time>2026-05-02T17:01:26Z</time></trkpt><trkpt lat="45.15167312753378" lon="13.739298805275787"><ele>138.0</ele><time>2026-05-02T17:01:27Z</time></trkpt><trkpt lat="45.151852311556" lon="13.738942382228032"><ele>138.0</ele><time>2026-05-02T17:01:28Z</time></trkpt><trkpt lat="45.15203019458202" lon="13.738583486986425"><ele>138.0</ele><time>2026-05-02T17:01:29Z</time></trkpt><trkpt lat="45.15221006983811" lon="13.73822750796657"><ele>138.0</ele><time>2026-05-02T17:01:30Z</time></trkpt><trkpt lat="45.15239515543875" lon="13.737866194208939"><ele>138.0</ele><time>2026-05-02T17:01:31Z</time></trkpt><trkpt lat="45.15258341522516" lon="13.737503099000103"><ele>137.5</ele><time>2026-05-02T17:01:32Z</time></trkpt><trkpt lat="45.15276830341559" lon="13.737139814999718"><ele>137.0</ele><time>2026-05-02T17:01:33Z</time></trkpt><trkpt lat="45.15295129452309" lon="13.736778188178961"><ele>136.0</ele><time>2026-05-02T17:01:34Z</time></trkpt><trkpt lat="45.15313186906993" lon="13.736419689386302"><ele>135.0</ele><time>2026-05-02T17:01:35Z</time></trkpt><trkpt lat="45.15331091583008" lon="13.736070264940631"><ele>133.0</ele><time>2026-05-02T17:01:36Z</time></trkpt><trkpt lat="45.15348786921879" lon="13.735724625041875"><ele>131.0</ele><time>2026-05-02T17:01:37Z</time></trkpt><trkpt lat="45.15366349016243" lon="13.735382891943136"><ele>130.0</ele><time>2026-05-02T17:01:38Z</time></trkpt><trkpt lat="45.15384227708378" lon="13.735043863486567"><ele>129.0</ele><time>2026-05-02T17:01:39Z</time></trkpt><trkpt lat="45.15402081366974" lon="13.734709244537118"><ele>124.0</ele><time>2026-05-02T17:01:40Z</time></trkpt><trkpt lat="45.154201004460035" lon="13.7343796944851"><ele>119.0</ele><time>2026-05-02T17:01:41Z</time></trkpt><trkpt lat="45.154385194011766" lon="13.734061572211894"><ele>119.0</ele><time>2026-05-02T17:01:42Z</time></trkpt><trkpt lat="45.154578620376924" lon="13.73374554809172"><ele>119.0</ele><time>2026-05-02T17:01:43Z</time></trkpt><trkpt lat="45.15478235801578" lon="13.733437798202376"><ele>121.5</ele><time>2026-05-02T17:01:44Z</time></trkpt><trkpt lat="45.15499275253226" lon="13.733134395187646"><ele>124.0</ele><time>2026-05-02T17:01:45Z</time></trkpt><trkpt lat="45.155212746825065" lon="13.732836461375332"><ele>126.5</ele><time>2026-05-02T17:01:46Z</time></trkpt><trkpt lat="45.15544122129126" lon="13.732546122680809"><ele>129.0</ele><time>2026-05-02T17:01:47Z</time></trkpt><trkpt lat="45.15567566876169" lon="13.732266397518364"><ele>131.5</ele><time>2026-05-02T17:01:48Z</time></trkpt><trkpt lat="45.15591893383664" lon="13.731996951501579"><ele>134.0</ele><time>2026-05-02T17:01:49Z</time></trkpt><trkpt lat="45.15616938569954" lon="13.731735975300248"><ele>134.5</ele><time>2026-05-02T17:01:50Z</time></trkpt><trkpt lat="45.156426258432596" lon="13.731479749372296"><ele>135.0</ele><time>2026-05-02T17:01:51Z</time></trkpt><trkpt lat="45.156691179343056" lon="13.731232253714285"><ele>136.0</ele><time>2026-05-02T17:01:52Z</time></trkpt><trkpt lat="45.15696400483588" lon="13.731000742448328"><ele>137.0</ele><time>2026-05-02T17:01:53Z</time></trkpt><trkpt lat="45.15724631381185" lon="13.730778926534173"><ele>136.0</ele><time>2026-05-02T17:01:54Z</time></trkpt><trkpt lat="45.15753245792861" lon="13.730575447694624"><ele>135.0</ele><time>2026-05-02T17:01:55Z</time></trkpt><trkpt lat="45.15782026963893" lon="13.730383938072224"><ele>135.0</ele><time>2026-05-02T17:01:56Z</time></trkpt><trkpt lat="45.158112726285694" lon="13.730200904119856"><ele>135.0</ele><time>2026-05-02T17:01:57Z</time></trkpt><trkpt lat="45.158408507196505" lon="13.730033810462198"><ele>135.5</ele><time>2026-05-02T17:01:58Z</time></trkpt><trkpt lat="45.158708483047334" lon="13.729879065240093"><ele>136.0</ele><time>2026-05-02T17:01:59Z</time></trkpt><trkpt lat="45.15901478853758" lon="13.729736558757686"><ele>137.5</ele><time>2026-05-02T17:02:00Z</time></trkpt><trkpt lat="45.159326676563666" lon="13.72960333903762"><ele>139.0</ele><time>2026-05-02T17:02:01Z</time></trkpt><trkpt lat="45.159638135776966" lon="13.729496305823186"><ele>138.0</ele><time>2026-05-02T17:02:02Z</time></trkpt><trkpt lat="45.159953501660986" lon="13.729401927838246"><ele>137.0</ele><time>2026-05-02T17:02:03Z</time></trkpt><trkpt lat="45.160270982964136" lon="13.729325375923917"><ele>137.0</ele><time>2026-05-02T17:02:04Z</time></trkpt><trkpt lat="45.16059268507519" lon="13.729263688341812"><ele>137.0</ele><time>2026-05-02T17:02:05Z</time></trkpt><trkpt lat="45.160915935875025" lon="13.729220098323196"><ele>136.5</ele><time>2026-05-02T17:02:06Z</time></trkpt><trkpt lat="45.16123770186478" lon="13.72918862358288"><ele>136.0</ele><time>2026-05-02T17:02:07Z</time></trkpt><trkpt lat="45.1615598861946" lon="13.729169241271281"><ele>134.0</ele><time>2026-05-02T17:02:08Z</time></trkpt><trkpt lat="45.16187993576697" lon="13.729164446881963"><ele>132.0</ele><time>2026-05-02T17:02:09Z</time></trkpt><trkpt lat="45.16220046007274" lon="13.729175070869838"><ele>130.5</ele><time>2026-05-02T17:02:10Z</time></trkpt><trkpt lat="45.162520483956314" lon="13.7291992516319"><ele>129.0</ele><time>2026-05-02T17:02:11Z</time></trkpt><trkpt lat="45.16284207714547" lon="13.7292344618025"><ele>129.0</ele><time>2026-05-02T17:02:12Z</time></trkpt><trkpt lat="45.16315970051856" lon="13.729283459349201"><ele>129.0</ele><time>2026-05-02T17:02:13Z</time></trkpt><trkpt lat="45.16347762287079" lon="13.72934575695689"><ele>131.5</ele><time>2026-05-02T17:02:14Z</time></trkpt><trkpt lat="45.163794809298366" lon="13.729424597126469"><ele>134.0</ele><time>2026-05-02T17:02:15Z</time></trkpt><trkpt lat="45.164111987402876" lon="13.729517073242633"><ele>136.0</ele><time>2026-05-02T17:02:16Z</time></trkpt><trkpt lat="45.16442874269451" lon="13.729624145539061"><ele>138.0</ele><time>2026-05-02T17:02:17Z</time></trkpt><trkpt lat="45.16474411028125" lon="13.729744554667647"><ele>140.0</ele><time>2026-05-02T17:02:18Z</time></trkpt><trkpt lat="45.16505658374563" lon="13.729875945594074"><ele>142.0</ele><time>2026-05-02T17:02:19Z</time></trkpt><trkpt lat="45.16536774500211" lon="13.730010919348407"><ele>142.0</ele><time>2026-05-02T17:02:20Z</time></trkpt><trkpt lat="45.165676938828874" lon="13.73014542720959"><ele>142.0</ele><time>2026-05-02T17:02:21Z</time></trkpt><trkpt lat="45.165990427377665" lon="13.73027945408884"><ele>142.5</ele><time>2026-05-02T17:02:22Z</time></trkpt><trkpt lat="45.16630133181903" lon="13.730418201118132"><ele>143.0</ele><time>2026-05-02T17:02:23Z</time></trkpt><trkpt lat="45.1666158964169" lon="13.730557897992668"><ele>144.5</ele><time>2026-05-02T17:02:24Z</time></trkpt><trkpt lat="45.166930065736175" lon="13.730698160330766"><ele>146.0</ele><time>2026-05-02T17:02:25Z</time></trkpt><trkpt lat="45.16724792698485" lon="13.730835115041797"><ele>146.0</ele><time>2026-05-02T17:02:26Z</time></trkpt><trkpt lat="45.16756318736768" lon="13.730972236436154"><ele>146.0</ele><time>2026-05-02T17:02:27Z</time></trkpt><trkpt lat="45.16787880911487" lon="13.73111094970981"><ele>145.5</ele><time>2026-05-02T17:02:28Z</time></trkpt><trkpt lat="45.1681900744984" lon="13.731248258600939"><ele>145.0</ele><time>2026-05-02T17:02:29Z</time></trkpt><trkpt lat="45.16850050339918" lon="13.731385824869134"><ele>145.0</ele><time>2026-05-02T17:02:30Z</time></trkpt><trkpt lat="45.168813272390906" lon="13.731523615075414"><ele>145.0</ele><time>2026-05-02T17:02:31Z</time></trkpt><trkpt lat="45.16912356287082" lon="13.731662784249394"><ele>145.0</ele><time>2026-05-02T17:02:32Z</time></trkpt><trkpt lat="45.169433915879324" lon="13.731802598603524"><ele>145.0</ele><time>2026-05-02T17:02:33Z</time></trkpt><trkpt lat="45.16974589240862" lon="13.731944046344957"><ele>146.5</ele><time>2026-05-02T17:02:34Z</time></trkpt><trkpt lat="45.17005997632475" lon="13.732083479301204"><ele>148.0</ele><time>2026-05-02T17:02:35Z</time></trkpt><trkpt lat="45.170374017065235" lon="13.732218163073037"><ele>148.0</ele><time>2026-05-02T17:02:36Z</time></trkpt><trkpt lat="45.1706884802505" lon="13.732354144642654"><ele>148.0</ele><time>2026-05-02T17:02:37Z</time></trkpt><trkpt lat="45.170998778297204" lon="13.732490737082381"><ele>148.0</ele><time>2026-05-02T17:02:38Z</time></trkpt><trkpt lat="45.17130898331086" lon="13.732621884594279"><ele>148.0</ele><time>2026-05-02T17:02:39Z</time></trkpt><trkpt lat="45.17161684516296" lon="13.732753813856359"><ele>148.0</ele><time>2026-05-02T17:02:40Z</time></trkpt><trkpt lat="45.171916612607895" lon="13.732893570615824"><ele>148.0</ele><time>2026-05-02T17:02:41Z</time></trkpt><trkpt lat="45.172212936313706" lon="13.733031719640172"><ele>149.0</ele><time>2026-05-02T17:02:42Z</time></trkpt><trkpt lat="45.17250903651752" lon="13.733160292383737"><ele>150.0</ele><time>2026-05-02T17:02:43Z</time></trkpt><trkpt lat="45.172810514101016" lon="13.733283791873069"><ele>150.0</ele><time>2026-05-02T17:02:44Z</time></trkpt><trkpt lat="45.17310985755077" lon="13.733401494531654"><ele>150.0</ele><time>2026-05-02T17:02:45Z</time></trkpt><trkpt lat="45.173411574039676" lon="13.733497900036818"><ele>150.5</ele><time>2026-05-02T17:02:46Z</time></trkpt><trkpt lat="45.173719905715714" lon="13.733585468917518"><ele>151.0</ele><time>2026-05-02T17:02:47Z</time></trkpt><trkpt lat="45.17402917526934" lon="13.733663274709231"><ele>152.0</ele><time>2026-05-02T17:02:48Z</time></trkpt><trkpt lat="45.17434418522449" lon="13.733730473961286"><ele>153.0</ele><time>2026-05-02T17:02:49Z</time></trkpt><trkpt lat="45.17466198903429" lon="13.733790259588826"><ele>154.5</ele><time>2026-05-02T17:02:50Z</time></trkpt><trkpt lat="45.174981093984314" lon="13.733842551151303"><ele>156.0</ele><time>2026-05-02T17:02:51Z</time></trkpt><trkpt lat="45.17529899608717" lon="13.733883161093996"><ele>156.0</ele><time>2026-05-02T17:02:52Z</time></trkpt><trkpt lat="45.17562447385807" lon="13.733916310119945"><ele>156.0</ele><time>2026-05-02T17:02:53Z</time></trkpt><trkpt lat="45.17595126529254" lon="13.73394229666074"><ele>157.0</ele><time>2026-05-02T17:02:54Z</time></trkpt><trkpt lat="45.17627930238331" lon="13.733959984462908"><ele>158.0</ele><time>2026-05-02T17:02:55Z</time></trkpt><trkpt lat="45.17660787195723" lon="13.733962229636838"><ele>159.0</ele><time>2026-05-02T17:02:56Z</time></trkpt><trkpt lat="45.176938233940675" lon="13.733949899322702"><ele>160.0</ele><time>2026-05-02T17:02:57Z</time></trkpt><trkpt lat="45.177267774169316" lon="13.73392586035246"><ele>161.5</ele><time>2026-05-02T17:02:58Z</time></trkpt><trkpt lat="45.177600227707245" lon="13.733889551879026"><ele>163.0</ele><time>2026-05-02T17:02:59Z</time></trkpt><trkpt lat="45.177931231096686" lon="13.733840617955934"><ele>162.5</ele><time>2026-05-02T17:03:00Z</time></trkpt><trkpt lat="45.17826218953029" lon="13.733782014737768"><ele>162.0</ele><time>2026-05-02T17:03:01Z</time></trkpt><trkpt lat="45.17859207846388" lon="13.73371800885306"><ele>162.0</ele><time>2026-05-02T17:03:02Z</time></trkpt><trkpt lat="45.17892292797065" lon="13.733643797468156"><ele>162.0</ele><time>2026-05-02T17:03:03Z</time></trkpt><trkpt lat="45.17925470206437" lon="13.733564113574182"><ele>162.5</ele><time>2026-05-02T17:03:04Z</time></trkpt><trkpt lat="45.17958805162678" lon="13.733483747060014"><ele>163.0</ele><time>2026-05-02T17:03:05Z</time></trkpt><trkpt lat="45.17992276278131" lon="13.733402844393495"><ele>164.5</ele><time>2026-05-02T17:03:06Z</time></trkpt><trkpt lat="45.18026052786401" lon="13.733320272187942"><ele>166.0</ele><time>2026-05-02T17:03:07Z</time></trkpt><trkpt lat="45.18059692031699" lon="13.733239742662452"><ele>166.0</ele><time>2026-05-02T17:03:08Z</time></trkpt><trkpt lat="45.180931272811705" lon="13.733158330124109"><ele>166.0</ele><time>2026-05-02T17:03:09Z</time></trkpt><trkpt lat="45.181267188225526" lon="13.733076695943193"><ele>167.0</ele><time>2026-05-02T17:03:10Z</time></trkpt><trkpt lat="45.18160146165218" lon="13.732993422780282"><ele>168.0</ele><time>2026-05-02T17:03:11Z</time></trkpt><trkpt lat="45.181937112458" lon="13.732909863994395"><ele>168.0</ele><time>2026-05-02T17:03:12Z</time></trkpt><trkpt lat="45.18228093201764" lon="13.73282537217976"><ele>168.0</ele><time>2026-05-02T17:03:13Z</time></trkpt><trkpt lat="45.1826208658237" lon="13.7327451135456"><ele>168.0</ele><time>2026-05-02T17:03:14Z</time></trkpt><trkpt lat="45.18295849811017" lon="13.732665113431754"><ele>168.0</ele><time>2026-05-02T17:03:15Z</time></trkpt><trkpt lat="45.18329332038623" lon="13.732585509457998"><ele>169.5</ele><time>2026-05-02T17:03:16Z</time></trkpt><trkpt lat="45.18362761253123" lon="13.732507196240883"><ele>171.0</ele><time>2026-05-02T17:03:17Z</time></trkpt><trkpt lat="45.183961835638065" lon="13.732427724999758"><ele>173.5</ele><time>2026-05-02T17:03:18Z</time></trkpt><trkpt lat="45.184298431699936" lon="13.732346478422215"><ele>176.0</ele><time>2026-05-02T17:03:19Z</time></trkpt><trkpt lat="45.18463378964782" lon="13.732267051268852"><ele>176.0</ele><time>2026-05-02T17:03:20Z</time></trkpt><trkpt lat="45.184969613030106" lon="13.732186749566047"><ele>176.0</ele><time>2026-05-02T17:03:21Z</time></trkpt><trkpt lat="45.1853074672682" lon="13.732108787571242"><ele>176.0</ele><time>2026-05-02T17:03:22Z</time></trkpt><trkpt lat="45.185643064806904" lon="13.73203179476994"><ele>176.0</ele><time>2026-05-02T17:03:23Z</time></trkpt><trkpt lat="45.185978922451156" lon="13.731957425837807"><ele>175.0</ele><time>2026-05-02T17:03:24Z</time></trkpt><trkpt lat="45.186313251595976" lon="13.73188282638165"><ele>174.0</ele><time>2026-05-02T17:03:25Z</time></trkpt><trkpt lat="45.18664711684937" lon="13.731809526005048"><ele>173.0</ele><time>2026-05-02T17:03:26Z</time></trkpt><trkpt lat="45.18698202009466" lon="13.731739907477401"><ele>172.0</ele><time>2026-05-02T17:03:27Z</time></trkpt><trkpt lat="45.18732052305397" lon="13.731670538410427"><ele>173.5</ele><time>2026-05-02T17:03:28Z</time></trkpt><trkpt lat="45.18765700080905" lon="13.731606132320344"><ele>175.0</ele><time>2026-05-02T17:03:29Z</time></trkpt><trkpt lat="45.187994602293564" lon="13.731543992220487"><ele>174.5</ele><time>2026-05-02T17:03:30Z</time></trkpt><trkpt lat="45.18833191911063" lon="13.731485284174656"><ele>174.0</ele><time>2026-05-02T17:03:31Z</time></trkpt><trkpt lat="45.18866826399421" lon="13.731429445123181"><ele>174.0</ele><time>2026-05-02T17:03:32Z</time></trkpt><trkpt lat="45.1890078943047" lon="13.731372423105727"><ele>174.0</ele><time>2026-05-02T17:03:33Z</time></trkpt><trkpt lat="45.18934834793494" lon="13.731317216776562"><ele>175.0</ele><time>2026-05-02T17:03:34Z</time></trkpt><trkpt lat="45.18969008661717" lon="13.731264327603244"><ele>176.0</ele><time>2026-05-02T17:03:35Z</time></trkpt><trkpt lat="45.190029593794556" lon="13.731214531890902"><ele>178.0</ele><time>2026-05-02T17:03:36Z</time></trkpt><trkpt lat="45.19036973008644" lon="13.731169931768932"><ele>180.0</ele><time>2026-05-02T17:03:37Z</time></trkpt><trkpt lat="45.19070937745974" lon="13.731131683363069"><ele>180.5</ele><time>2026-05-02T17:03:38Z</time></trkpt><trkpt lat="45.19104962902524" lon="13.731092201849524"><ele>181.0</ele><time>2026-05-02T17:03:39Z</time></trkpt><trkpt lat="45.19138955569097" lon="13.73105765972001"><ele>179.5</ele><time>2026-05-02T17:03:40Z</time></trkpt><trkpt lat="45.19172954477792" lon="13.731028914421838"><ele>178.0</ele><time>2026-05-02T17:03:41Z</time></trkpt><trkpt lat="45.19206983965737" lon="13.731002950373375"><ele>178.5</ele><time>2026-05-02T17:03:42Z</time></trkpt><trkpt lat="45.19241096031747" lon="13.7309771970932"><ele>179.0</ele><time>2026-05-02T17:03:43Z</time></trkpt><trkpt lat="45.192751869900526" lon="13.730951773235537"><ele>179.0</ele><time>2026-05-02T17:03:44Z</time></trkpt><trkpt lat="45.19309115224822" lon="13.730926419622184"><ele>179.0</ele><time>2026-05-02T17:03:45Z</time></trkpt><trkpt lat="45.19343269468455" lon="13.730901172084389"><ele>180.5</ele><time>2026-05-02T17:03:46Z</time></trkpt><trkpt lat="45.193773879058874" lon="13.730874507303334"><ele>182.0</ele><time>2026-05-02T17:03:47Z</time></trkpt><trkpt lat="45.194115085546606" lon="13.730850924034211"><ele>184.0</ele><time>2026-05-02T17:03:48Z</time></trkpt><trkpt lat="45.19445501635776" lon="13.730827710816502"><ele>186.0</ele><time>2026-05-02T17:03:49Z</time></trkpt><trkpt lat="45.19479588646542" lon="13.730805051673757"><ele>186.0</ele><time>2026-05-02T17:03:50Z</time></trkpt><trkpt lat="45.19513641479663" lon="13.730782597361928"><ele>186.0</ele><time>2026-05-02T17:03:51Z</time></trkpt><trkpt lat="45.195478239470255" lon="13.73075899460796"><ele>184.5</ele><time>2026-05-02T17:03:52Z</time></trkpt><trkpt lat="45.19582035713609" lon="13.730734944922364"><ele>183.0</ele><time>2026-05-02T17:03:53Z</time></trkpt><trkpt lat="45.196162188196524" lon="13.730711408671569"><ele>183.0</ele><time>2026-05-02T17:03:54Z</time></trkpt><trkpt lat="45.19650393871022" lon="13.730687302980797"><ele>183.0</ele><time>2026-05-02T17:03:55Z</time></trkpt><trkpt lat="45.19684513040021" lon="13.730661708434035"><ele>183.0</ele><time>2026-05-02T17:03:56Z</time></trkpt><trkpt lat="45.19718563314108" lon="13.730639121323653"><ele>183.0</ele><time>2026-05-02T17:03:57Z</time></trkpt><trkpt lat="45.1975269867033" lon="13.730614412541282"><ele>183.5</ele><time>2026-05-02T17:03:58Z</time></trkpt><trkpt lat="45.197867569168245" lon="13.730590348260895"><ele>184.0</ele><time>2026-05-02T17:03:59Z</time></trkpt><trkpt lat="45.19820730295389" lon="13.730563808400625"><ele>184.0</ele><time>2026-05-02T17:04:00Z</time></trkpt><trkpt lat="45.19854929623091" lon="13.73053511248315"><ele>184.0</ele><time>2026-05-02T17:04:01Z</time></trkpt><trkpt lat="45.19889058562915" lon="13.73050610358488"><ele>182.0</ele><time>2026-05-02T17:04:02Z</time></trkpt><trkpt lat="45.19923152860554" lon="13.73047525999764"><ele>180.0</ele><time>2026-05-02T17:04:03Z</time></trkpt><trkpt lat="45.199571608361644" lon="13.730444743545055"><ele>179.0</ele><time>2026-05-02T17:04:04Z</time></trkpt><trkpt lat="45.19991011614939" lon="13.730410143172513"><ele>178.0</ele><time>2026-05-02T17:04:05Z</time></trkpt><trkpt lat="45.20024929932576" lon="13.730371408840524"><ele>178.0</ele><time>2026-05-02T17:04:06Z</time></trkpt><trkpt lat="45.20058920512098" lon="13.730324375104464"><ele>178.0</ele><time>2026-05-02T17:04:07Z</time></trkpt><trkpt lat="45.20092891920173" lon="13.730270778272839"><ele>177.5</ele><time>2026-05-02T17:04:08Z</time></trkpt><trkpt lat="45.201267364979735" lon="13.730210567490236"><ele>177.0</ele><time>2026-05-02T17:04:09Z</time></trkpt><trkpt lat="45.20160531264359" lon="13.730140667506594"><ele>176.0</ele><time>2026-05-02T17:04:10Z</time></trkpt><trkpt lat="45.20194150749458" lon="13.730062582845731"><ele>175.0</ele><time>2026-05-02T17:04:11Z</time></trkpt><trkpt lat="45.20227800728217" lon="13.729979361240588"><ele>174.5</ele><time>2026-05-02T17:04:12Z</time></trkpt><trkpt lat="45.202613560805354" lon="13.729891633172342"><ele>174.0</ele><time>2026-05-02T17:04:13Z</time></trkpt><trkpt lat="45.20294864365721" lon="13.729800076890664"><ele>175.5</ele><time>2026-05-02T17:04:14Z</time></trkpt><trkpt lat="45.20328285424679" lon="13.729704674021146"><ele>177.0</ele><time>2026-05-02T17:04:15Z</time></trkpt><trkpt lat="45.20361583798696" lon="13.729601344503486"><ele>177.0</ele><time>2026-05-02T17:04:16Z</time></trkpt><trkpt lat="45.20394815081916" lon="13.729489229661397"><ele>177.0</ele><time>2026-05-02T17:04:17Z</time></trkpt><trkpt lat="45.20427833847859" lon="13.729370633664303"><ele>178.0</ele><time>2026-05-02T17:04:18Z</time></trkpt><trkpt lat="45.20460887880087" lon="13.72924898502671"><ele>179.0</ele><time>2026-05-02T17:04:19Z</time></trkpt><trkpt lat="45.20493660127157" lon="13.72911826826372"><ele>179.0</ele><time>2026-05-02T17:04:20Z</time></trkpt><trkpt lat="45.20526378769503" lon="13.728979681341206"><ele>179.0</ele><time>2026-05-02T17:04:21Z</time></trkpt><trkpt lat="45.20558761226465" lon="13.728835703028484"><ele>178.5</ele><time>2026-05-02T17:04:22Z</time></trkpt><trkpt lat="45.20591241392103" lon="13.728688596175694"><ele>178.0</ele><time>2026-05-02T17:04:23Z</time></trkpt><trkpt lat="45.206241400737625" lon="13.728535163945834"><ele>177.0</ele><time>2026-05-02T17:04:24Z</time></trkpt><trkpt lat="45.20656183656744" lon="13.728377269506039"><ele>176.0</ele><time>2026-05-02T17:04:25Z</time></trkpt><trkpt lat="45.2068823812883" lon="13.728212112008514"><ele>176.0</ele><time>2026-05-02T17:04:26Z</time></trkpt><trkpt lat="45.20719986643064" lon="13.72804599854837"><ele>176.0</ele><time>2026-05-02T17:04:27Z</time></trkpt><trkpt lat="45.20751941029843" lon="13.727880231806944"><ele>176.0</ele><time>2026-05-02T17:04:28Z</time></trkpt><trkpt lat="45.20783741518332" lon="13.72771354412215"><ele>176.0</ele><time>2026-05-02T17:04:29Z</time></trkpt><trkpt lat="45.208156567926956" lon="13.727544670511943"><ele>176.5</ele><time>2026-05-02T17:04:30Z</time></trkpt><trkpt lat="45.20847557307809" lon="13.727372204292632"><ele>177.0</ele><time>2026-05-02T17:04:31Z</time></trkpt><trkpt lat="45.20879292908759" lon="13.727198029441789"><ele>178.5</ele><time>2026-05-02T17:04:32Z</time></trkpt><trkpt lat="45.209112512376855" lon="13.727023842818715"><ele>180.0</ele><time>2026-05-02T17:04:33Z</time></trkpt><trkpt lat="45.209431942936845" lon="13.72685330398999"><ele>180.0</ele><time>2026-05-02T17:04:34Z</time></trkpt><trkpt lat="45.20975092103745" lon="13.726684258496801"><ele>180.0</ele><time>2026-05-02T17:04:35Z</time></trkpt><trkpt lat="45.21006898337904" lon="13.726516133155567"><ele>179.5</ele><time>2026-05-02T17:04:36Z</time></trkpt><trkpt lat="45.210388733874346" lon="13.72634839836583"><ele>179.0</ele><time>2026-05-02T17:04:37Z</time></trkpt><trkpt lat="45.2107074364734" lon="13.726184193961014"><ele>178.0</ele><time>2026-05-02T17:04:38Z</time></trkpt><trkpt lat="45.211028331885416" lon="13.726017476579255"><ele>177.0</ele><time>2026-05-02T17:04:39Z</time></trkpt><trkpt lat="45.21134638588482" lon="13.725852602831823"><ele>175.5</ele><time>2026-05-02T17:04:40Z</time></trkpt><trkpt lat="45.21166695725156" lon="13.72569075078377"><ele>174.0</ele><time>2026-05-02T17:04:41Z</time></trkpt><trkpt lat="45.21198566831162" lon="13.725521438543696"><ele>174.0</ele><time>2026-05-02T17:04:42Z</time></trkpt><trkpt lat="45.21230802337347" lon="13.725360498970312"><ele>174.0</ele><time>2026-05-02T17:04:43Z</time></trkpt><trkpt lat="45.212631990914986" lon="13.725210624159995"><ele>172.0</ele><time>2026-05-02T17:04:44Z</time></trkpt><trkpt lat="45.212954647523006" lon="13.725056087057686"><ele>170.0</ele><time>2026-05-02T17:04:45Z</time></trkpt><trkpt lat="45.21327709403206" lon="13.724897299156392"><ele>170.0</ele><time>2026-05-02T17:04:46Z</time></trkpt><trkpt lat="45.21359784000517" lon="13.724732569900759"><ele>170.0</ele><time>2026-05-02T17:04:47Z</time></trkpt><trkpt lat="45.2139162024533" lon="13.724566810498809"><ele>171.0</ele><time>2026-05-02T17:04:48Z</time></trkpt><trkpt lat="45.214235200250165" lon="13.724400367531432"><ele>172.0</ele><time>2026-05-02T17:04:49Z</time></trkpt><trkpt lat="45.21455908780284" lon="13.724243726530453"><ele>173.0</ele><time>2026-05-02T17:04:50Z</time></trkpt><trkpt lat="45.214878812433476" lon="13.724092612253813"><ele>174.0</ele><time>2026-05-02T17:04:51Z</time></trkpt><trkpt lat="45.215203075257875" lon="13.723950421518984"><ele>174.0</ele><time>2026-05-02T17:04:52Z</time></trkpt><trkpt lat="45.21553100036296" lon="13.723815592875201"><ele>174.0</ele><time>2026-05-02T17:04:53Z</time></trkpt><trkpt lat="45.21585809064382" lon="13.72369132454852"><ele>174.0</ele><time>2026-05-02T17:04:54Z</time></trkpt><trkpt lat="45.21618748825046" lon="13.723569250238153"><ele>174.0</ele><time>2026-05-02T17:04:55Z</time></trkpt><trkpt lat="45.216518822760456" lon="13.723449849037722"><ele>172.0</ele><time>2026-05-02T17:04:56Z</time></trkpt><trkpt lat="45.21685111260948" lon="13.723337382006903"><ele>170.0</ele><time>2026-05-02T17:04:57Z</time></trkpt><trkpt lat="45.2171875309512" lon="13.72322882081849"><ele>170.0</ele><time>2026-05-02T17:04:58Z</time></trkpt><trkpt lat="45.21752311208617" lon="13.72312728230096"><ele>170.0</ele><time>2026-05-02T17:04:59Z</time></trkpt><trkpt lat="45.21785812227801" lon="13.723035775530585"><ele>171.0</ele><time>2026-05-02T17:05:00Z</time></trkpt><trkpt lat="45.218195073304955" lon="13.722947521439284"><ele>172.0</ele><time>2026-05-02T17:05:01Z</time></trkpt><trkpt lat="45.21853174013071" lon="13.722865396366851"><ele>172.0</ele><time>2026-05-02T17:05:02Z</time></trkpt><trkpt lat="45.218868743662576" lon="13.722789523984805"><ele>172.0</ele><time>2026-05-02T17:05:03Z</time></trkpt><trkpt lat="45.21920626405528" lon="13.722719514801321"><ele>172.0</ele><time>2026-05-02T17:05:04Z</time></trkpt><trkpt lat="45.219544252766326" lon="13.722654691712421"><ele>172.0</ele><time>2026-05-02T17:05:05Z</time></trkpt><trkpt lat="45.21988310695181" lon="13.72259220503686"><ele>173.0</ele><time>2026-05-02T17:05:06Z</time></trkpt><trkpt lat="45.22022038975135" lon="13.722538766261213"><ele>174.0</ele><time>2026-05-02T17:05:07Z</time></trkpt><trkpt lat="45.22055989740123" lon="13.722494034348884"><ele>175.5</ele><time>2026-05-02T17:05:08Z</time></trkpt><trkpt lat="45.22089824191592" lon="13.722450398385433"><ele>177.0</ele><time>2026-05-02T17:05:09Z</time></trkpt><trkpt lat="45.22123799138253" lon="13.722416669441824"><ele>178.0</ele><time>2026-05-02T17:05:10Z</time></trkpt><trkpt lat="45.221577341409194" lon="13.722387665630624"><ele>179.0</ele><time>2026-05-02T17:05:11Z</time></trkpt><trkpt lat="45.22191705809629" lon="13.722362540254869"><ele>179.0</ele><time>2026-05-02T17:05:12Z</time></trkpt><trkpt lat="45.2222577141238" lon="13.722340590107684"><ele>179.0</ele><time>2026-05-02T17:05:13Z</time></trkpt><trkpt lat="45.22259835263019" lon="13.72233439725941"><ele>179.5</ele><time>2026-05-02T17:05:14Z</time></trkpt><trkpt lat="45.22293784196154" lon="13.72233902364113"><ele>180.0</ele><time>2026-05-02T17:05:15Z</time></trkpt><trkpt lat="45.223279187916695" lon="13.722350273179096"><ele>181.0</ele><time>2026-05-02T17:05:16Z</time></trkpt><trkpt lat="45.22361898845099" lon="13.722378823888274"><ele>182.0</ele><time>2026-05-02T17:05:17Z</time></trkpt><trkpt lat="45.223959071596454" lon="13.722406075206047"><ele>182.5</ele><time>2026-05-02T17:05:18Z</time></trkpt><trkpt lat="45.22429743124433" lon="13.722441559905462"><ele>183.0</ele><time>2026-05-02T17:05:19Z</time></trkpt><trkpt lat="45.22463810172957" lon="13.722480834875494"><ele>183.0</ele><time>2026-05-02T17:05:20Z</time></trkpt><trkpt lat="45.22497734778975" lon="13.722521794109577"><ele>183.0</ele><time>2026-05-02T17:05:21Z</time></trkpt><trkpt lat="45.22531697755369" lon="13.722559679188473"><ele>184.0</ele><time>2026-05-02T17:05:22Z</time></trkpt><trkpt lat="45.22565575427372" lon="13.722598742466412"><ele>185.0</ele><time>2026-05-02T17:05:23Z</time></trkpt><trkpt lat="45.225994834107" lon="13.722639995748473"><ele>185.0</ele><time>2026-05-02T17:05:24Z</time></trkpt><trkpt lat="45.22633373527546" lon="13.722685054455662"><ele>185.0</ele><time>2026-05-02T17:05:25Z</time></trkpt><trkpt lat="45.226672321554695" lon="13.722730442705673"><ele>187.5</ele><time>2026-05-02T17:05:26Z</time></trkpt><trkpt lat="45.2270103457469" lon="13.722773838106747"><ele>190.0</ele><time>2026-05-02T17:05:27Z</time></trkpt><trkpt lat="45.22734932398988" lon="13.722810779966801"><ele>192.0</ele><time>2026-05-02T17:05:28Z</time></trkpt><trkpt lat="45.22768988549757" lon="13.722836351472921"><ele>194.0</ele><time>2026-05-02T17:05:29Z</time></trkpt><trkpt lat="45.22802906861923" lon="13.722849919231534"><ele>194.0</ele><time>2026-05-02T17:05:30Z</time></trkpt><trkpt lat="45.22836982919228" lon="13.722853250228017"><ele>194.0</ele><time>2026-05-02T17:05:31Z</time></trkpt><trkpt lat="45.22871020462101" lon="13.72284527484184"><ele>193.0</ele><time>2026-05-02T17:05:32Z</time></trkpt><trkpt lat="45.22904970267812" lon="13.722824952133912"><ele>192.0</ele><time>2026-05-02T17:05:33Z</time></trkpt><trkpt lat="45.22938831225749" lon="13.72279108365431"><ele>192.0</ele><time>2026-05-02T17:05:34Z</time></trkpt><trkpt lat="45.22972639390808" lon="13.722743341565465"><ele>192.0</ele><time>2026-05-02T17:05:35Z</time></trkpt><trkpt lat="45.2300638504975" lon="13.722689979205764"><ele>191.0</ele><time>2026-05-02T17:05:36Z</time></trkpt><trkpt lat="45.230401750448245" lon="13.72262656088169"><ele>190.0</ele><time>2026-05-02T17:05:37Z</time></trkpt><trkpt lat="45.23073914069329" lon="13.722549170328705"><ele>190.0</ele><time>2026-05-02T17:05:38Z</time></trkpt><trkpt lat="45.23107426075402" lon="13.722457799481262"><ele>190.0</ele><time>2026-05-02T17:05:39Z</time></trkpt><trkpt lat="45.231407321215016" lon="13.722354558157647"><ele>189.5</ele><time>2026-05-02T17:05:40Z</time></trkpt><trkpt lat="45.23173843568138" lon="13.722242016218813"><ele>189.0</ele><time>2026-05-02T17:05:41Z</time></trkpt><trkpt lat="45.232068652363004" lon="13.722117405338285"><ele>187.0</ele><time>2026-05-02T17:05:42Z</time></trkpt><trkpt lat="45.23239678179716" lon="13.721983330320915"><ele>185.0</ele><time>2026-05-02T17:05:43Z</time></trkpt><trkpt lat="45.23272338516465" lon="13.721839567271322"><ele>185.0</ele><time>2026-05-02T17:05:44Z</time></trkpt><trkpt lat="45.23304818133107" lon="13.721685420627455"><ele>185.0</ele><time>2026-05-02T17:05:45Z</time></trkpt><trkpt lat="45.23337000660077" lon="13.721521488496359"><ele>185.0</ele><time>2026-05-02T17:05:46Z</time></trkpt><trkpt lat="45.23368770988984" lon="13.721344564955173"><ele>185.0</ele><time>2026-05-02T17:05:47Z</time></trkpt><trkpt lat="45.234002090186834" lon="13.721157544561816"><ele>185.0</ele><time>2026-05-02T17:05:48Z</time></trkpt><trkpt lat="45.23431317683652" lon="13.720961678485427"><ele>185.0</ele><time>2026-05-02T17:05:49Z</time></trkpt><trkpt lat="45.234621945156405" lon="13.720756881921162"><ele>184.5</ele><time>2026-05-02T17:05:50Z</time></trkpt><trkpt lat="45.23492750265753" lon="13.720543768658763"><ele>184.0</ele><time>2026-05-02T17:05:51Z</time></trkpt><trkpt lat="45.23522808951159" lon="13.720316622578476"><ele>183.5</ele><time>2026-05-02T17:05:52Z</time></trkpt><trkpt lat="45.235525600809396" lon="13.720081531119686"><ele>183.0</ele><time>2026-05-02T17:05:53Z</time></trkpt><trkpt lat="45.23581846098748" lon="13.71983475764338"><ele>181.5</ele><time>2026-05-02T17:05:54Z</time></trkpt><trkpt lat="45.23610740183521" lon="13.719578560639166"><ele>180.0</ele><time>2026-05-02T17:05:55Z</time></trkpt><trkpt lat="45.236392739260985" lon="13.719312550363787"><ele>181.0</ele><time>2026-05-02T17:05:56Z</time></trkpt><trkpt lat="45.2366729747397" lon="13.719037198875164"><ele>182.0</ele><time>2026-05-02T17:05:57Z</time></trkpt><trkpt lat="45.23694776396477" lon="13.718750213788528"><ele>182.5</ele><time>2026-05-02T17:05:58Z</time></trkpt><trkpt lat="45.237216774672824" lon="13.718455042709211"><ele>183.0</ele><time>2026-05-02T17:05:59Z</time></trkpt><trkpt lat="45.23748273520422" lon="13.718150263568592"><ele>183.0</ele><time>2026-05-02T17:06:00Z</time></trkpt><trkpt lat="45.23774423507571" lon="13.717838856796126"><ele>183.0</ele><time>2026-05-02T17:06:01Z</time></trkpt><trkpt lat="45.23800129900239" lon="13.71751838725146"><ele>183.0</ele><time>2026-05-02T17:06:02Z</time></trkpt><trkpt lat="45.238251125404076" lon="13.717190464104386"><ele>183.0</ele><time>2026-05-02T17:06:03Z</time></trkpt><trkpt lat="45.23849601694259" lon="13.716854246071081"><ele>183.0</ele><time>2026-05-02T17:06:04Z</time></trkpt><trkpt lat="45.23873497667853" lon="13.716508822415515"><ele>183.0</ele><time>2026-05-02T17:06:05Z</time></trkpt><trkpt lat="45.238968068693964" lon="13.716155746718943"><ele>183.5</ele><time>2026-05-02T17:06:06Z</time></trkpt><trkpt lat="45.23919438053531" lon="13.715796681227891"><ele>184.0</ele><time>2026-05-02T17:06:07Z</time></trkpt><trkpt lat="45.23941509814797" lon="13.715429161685366"><ele>185.0</ele><time>2026-05-02T17:06:08Z</time></trkpt><trkpt lat="45.23962908519132" lon="13.71504981007574"><ele>186.0</ele><time>2026-05-02T17:06:09Z</time></trkpt><trkpt lat="45.23983895848066" lon="13.714666022864655"><ele>184.5</ele><time>2026-05-02T17:06:10Z</time></trkpt><trkpt lat="45.24004329978591" lon="13.714280165588855"><ele>183.0</ele><time>2026-05-02T17:06:11Z</time></trkpt><trkpt lat="45.24024287335769" lon="13.71388785045201"><ele>182.5</ele><time>2026-05-02T17:06:12Z</time></trkpt><trkpt lat="45.24044062972108" lon="13.713495445714557"><ele>182.0</ele><time>2026-05-02T17:06:13Z</time></trkpt><trkpt lat="45.240638736709435" lon="13.71310475917989"><ele>184.0</ele><time>2026-05-02T17:06:14Z</time></trkpt><trkpt lat="45.24083927842105" lon="13.712715490802616"><ele>186.0</ele><time>2026-05-02T17:06:15Z</time></trkpt><trkpt lat="45.241043273026825" lon="13.712329066699338"><ele>186.0</ele><time>2026-05-02T17:06:16Z</time></trkpt><trkpt lat="45.241252432001254" lon="13.711946276532808"><ele>186.0</ele><time>2026-05-02T17:06:17Z</time></trkpt><trkpt lat="45.241468976278064" lon="13.711573114408115"><ele>186.5</ele><time>2026-05-02T17:06:18Z</time></trkpt><trkpt lat="45.2416975376852" lon="13.711215211271368"><ele>187.0</ele><time>2026-05-02T17:06:19Z</time></trkpt><trkpt lat="45.24193965617737" lon="13.710878423804227"><ele>186.0</ele><time>2026-05-02T17:06:20Z</time></trkpt><trkpt lat="45.24218995522997" lon="13.710556004369215"><ele>185.0</ele><time>2026-05-02T17:06:21Z</time></trkpt><trkpt lat="45.24244860990619" lon="13.710241176514648"><ele>185.0</ele><time>2026-05-02T17:06:22Z</time></trkpt><trkpt lat="45.2427146235865" lon="13.709940848423269"><ele>185.0</ele><time>2026-05-02T17:06:23Z</time></trkpt><trkpt lat="45.24298832211935" lon="13.709653805695169"><ele>185.5</ele><time>2026-05-02T17:06:24Z</time></trkpt><trkpt lat="45.24326922904076" lon="13.709380400253824"><ele>186.0</ele><time>2026-05-02T17:06:25Z</time></trkpt><trkpt lat="45.2435595735603" lon="13.709122318149223"><ele>186.0</ele><time>2026-05-02T17:06:26Z</time></trkpt><trkpt lat="45.243852120555225" lon="13.708881204956555"><ele>186.0</ele><time>2026-05-02T17:06:27Z</time></trkpt><trkpt lat="45.2441535043918" lon="13.708658148631377"><ele>187.5</ele><time>2026-05-02T17:06:28Z</time></trkpt><trkpt lat="45.24446018667223" lon="13.708451175502926"><ele>189.0</ele><time>2026-05-02T17:06:29Z</time></trkpt><trkpt lat="45.244773413386156" lon="13.708260851845225"><ele>190.0</ele><time>2026-05-02T17:06:30Z</time></trkpt><trkpt lat="45.245094965177785" lon="13.708082678846237"><ele>191.0</ele><time>2026-05-02T17:06:31Z</time></trkpt><trkpt lat="45.24541820113125" lon="13.707924188030299"><ele>189.5</ele><time>2026-05-02T17:06:32Z</time></trkpt><trkpt lat="45.24574451656272" lon="13.707783263488341"><ele>188.0</ele><time>2026-05-02T17:06:33Z</time></trkpt><trkpt lat="45.246074416262694" lon="13.70765916852008"><ele>188.0</ele><time>2026-05-02T17:06:34Z</time></trkpt><trkpt lat="45.24640566362928" lon="13.70755910132467"><ele>188.0</ele><time>2026-05-02T17:06:35Z</time></trkpt><trkpt lat="45.246739197846" lon="13.707473762046954"><ele>187.5</ele><time>2026-05-02T17:06:36Z</time></trkpt><trkpt lat="45.24707514877072" lon="13.70740570455623"><ele>187.0</ele><time>2026-05-02T17:06:37Z</time></trkpt><trkpt lat="45.24741468286217" lon="13.707357457643399"><ele>186.0</ele><time>2026-05-02T17:06:38Z</time></trkpt><trkpt lat="45.24775515190506" lon="13.707329364862058"><ele>185.0</ele><time>2026-05-02T17:06:39Z</time></trkpt><trkpt lat="45.248095655008065" lon="13.707319567093505"><ele>184.0</ele><time>2026-05-02T17:06:40Z</time></trkpt><trkpt lat="45.24843690834439" lon="13.707321853200106"><ele>183.0</ele><time>2026-05-02T17:06:41Z</time></trkpt><trkpt lat="45.24877788123943" lon="13.707340758899"><ele>181.5</ele><time>2026-05-02T17:06:42Z</time></trkpt><trkpt lat="45.24911647743201" lon="13.707381554806155"><ele>180.0</ele><time>2026-05-02T17:06:43Z</time></trkpt><trkpt lat="45.249452974692" lon="13.70744671790801"><ele>180.0</ele><time>2026-05-02T17:06:44Z</time></trkpt><trkpt lat="45.24978827410372" lon="13.707530962566539"><ele>180.0</ele><time>2026-05-02T17:06:45Z</time></trkpt><trkpt lat="45.250121315907386" lon="13.707636947271176"><ele>179.5</ele><time>2026-05-02T17:06:46Z</time></trkpt><trkpt lat="45.25044786219167" lon="13.707762394083158"><ele>179.0</ele><time>2026-05-02T17:06:47Z</time></trkpt><trkpt lat="45.25077243547539" lon="13.707907704916803"><ele>179.0</ele><time>2026-05-02T17:06:48Z</time></trkpt><trkpt lat="45.25109368093317" lon="13.708064508997673"><ele>179.0</ele><time>2026-05-02T17:06:49Z</time></trkpt><trkpt lat="45.25141421106147" lon="13.708232911169997"><ele>179.0</ele><time>2026-05-02T17:06:50Z</time></trkpt><trkpt lat="45.251729471181974" lon="13.70841654650053"><ele>179.0</ele><time>2026-05-02T17:06:51Z</time></trkpt><trkpt lat="45.25203797928553" lon="13.708619025005037"><ele>182.5</ele><time>2026-05-02T17:06:52Z</time></trkpt><trkpt lat="45.25234111235192" lon="13.708836253254683"><ele>186.0</ele><time>2026-05-02T17:06:53Z</time></trkpt><trkpt lat="45.25264111707425" lon="13.70906575023573"><ele>186.0</ele><time>2026-05-02T17:06:54Z</time></trkpt><trkpt lat="45.252941142328055" lon="13.709300706274382"><ele>186.0</ele><time>2026-05-02T17:06:55Z</time></trkpt><trkpt lat="45.25323610934158" lon="13.709541906612719"><ele>187.5</ele><time>2026-05-02T17:06:56Z</time></trkpt><trkpt lat="45.25353356961889" lon="13.709781292204504"><ele>189.0</ele><time>2026-05-02T17:06:57Z</time></trkpt><trkpt lat="45.25383187547364" lon="13.710015763684968"><ele>188.0</ele><time>2026-05-02T17:06:58Z</time></trkpt><trkpt lat="45.254132867275175" lon="13.710246110121515"><ele>187.0</ele><time>2026-05-02T17:06:59Z</time></trkpt><trkpt lat="45.25443272070857" lon="13.710477119143082"><ele>187.0</ele><time>2026-05-02T17:07:00Z</time></trkpt><trkpt lat="45.25472982188408" lon="13.710712388188364"><ele>187.0</ele><time>2026-05-02T17:07:01Z</time></trkpt><trkpt lat="45.25502718661904" lon="13.710946717966118"><ele>187.0</ele><time>2026-05-02T17:07:02Z</time></trkpt><trkpt lat="45.25532698993443" lon="13.71118068181976"><ele>187.0</ele><time>2026-05-02T17:07:03Z</time></trkpt><trkpt lat="45.255624113841705" lon="13.71141441976196"><ele>186.0</ele><time>2026-05-02T17:07:04Z</time></trkpt><trkpt lat="45.25592326956353" lon="13.71164629855046"><ele>185.0</ele><time>2026-05-02T17:07:05Z</time></trkpt><trkpt lat="45.25622308484441" lon="13.711879683065103"><ele>183.5</ele><time>2026-05-02T17:07:06Z</time></trkpt><trkpt lat="45.25652278164072" lon="13.712112019875548"><ele>182.0</ele><time>2026-05-02T17:07:07Z</time></trkpt><trkpt lat="45.2568230461082" lon="13.712343656871584"><ele>182.0</ele><time>2026-05-02T17:07:08Z</time></trkpt><trkpt lat="45.257124496086796" lon="13.712574686843872"><ele>182.0</ele><time>2026-05-02T17:07:09Z</time></trkpt><trkpt lat="45.257424020421816" lon="13.712807052351307"><ele>183.5</ele><time>2026-05-02T17:07:10Z</time></trkpt><trkpt lat="45.2577234368034" lon="13.713038503440545"><ele>185.0</ele><time>2026-05-02T17:07:11Z</time></trkpt><trkpt lat="45.258023194828624" lon="13.713267584358777"><ele>187.0</ele><time>2026-05-02T17:07:12Z</time></trkpt><trkpt lat="45.2583289159616" lon="13.713484954020723"><ele>189.0</ele><time>2026-05-02T17:07:13Z</time></trkpt><trkpt lat="45.25863844838179" lon="13.713686303610753"><ele>191.0</ele><time>2026-05-02T17:07:14Z</time></trkpt><trkpt lat="45.25895262527613" lon="13.713875757528923"><ele>193.0</ele><time>2026-05-02T17:07:15Z</time></trkpt><trkpt lat="45.25927051750984" lon="13.714055739546604"><ele>193.0</ele><time>2026-05-02T17:07:16Z</time></trkpt><trkpt lat="45.259588601852236" lon="13.714226985902755"><ele>193.0</ele><time>2026-05-02T17:07:17Z</time></trkpt><trkpt lat="45.25991173643783" lon="13.71438782013285"><ele>194.5</ele><time>2026-05-02T17:07:18Z</time></trkpt><trkpt lat="45.2602349925129" lon="13.714537768261975"><ele>196.0</ele><time>2026-05-02T17:07:19Z</time></trkpt><trkpt lat="45.26056099970775" lon="13.714678714827787"><ele>195.5</ele><time>2026-05-02T17:07:20Z</time></trkpt><trkpt lat="45.26089126828434" lon="13.714805292274587"><ele>195.0</ele><time>2026-05-02T17:07:21Z</time></trkpt><trkpt lat="45.26122218360934" lon="13.714917954865037"><ele>195.5</ele><time>2026-05-02T17:07:22Z</time></trkpt><trkpt lat="45.26155631365135" lon="13.715018492663466"><ele>196.0</ele><time>2026-05-02T17:07:23Z</time></trkpt><trkpt lat="45.26189047486453" lon="13.715106376606183"><ele>196.0</ele><time>2026-05-02T17:07:24Z</time></trkpt><trkpt lat="45.26222506777133" lon="13.715182773502844"><ele>196.0</ele><time>2026-05-02T17:07:25Z</time></trkpt><trkpt lat="45.2625602359244" lon="13.715247725029585"><ele>196.0</ele><time>2026-05-02T17:07:26Z</time></trkpt><trkpt lat="45.26289869360353" lon="13.715302978057355"><ele>196.0</ele><time>2026-05-02T17:07:27Z</time></trkpt><trkpt lat="45.26323716596881" lon="13.715349211055045"><ele>196.0</ele><time>2026-05-02T17:07:28Z</time></trkpt><trkpt lat="45.26357635988415" lon="13.715383276913949"><ele>196.0</ele><time>2026-05-02T17:07:29Z</time></trkpt><trkpt lat="45.26391615797232" lon="13.715399324556445"><ele>195.0</ele><time>2026-05-02T17:07:30Z</time></trkpt><trkpt lat="45.26425561120972" lon="13.715401995389804"><ele>194.0</ele><time>2026-05-02T17:07:31Z</time></trkpt><trkpt lat="45.26459406818134" lon="13.715393110187964"><ele>194.0</ele><time>2026-05-02T17:07:32Z</time></trkpt><trkpt lat="45.26493372913777" lon="13.715370145506572"><ele>194.0</ele><time>2026-05-02T17:07:33Z</time></trkpt><trkpt lat="45.265271325277446" lon="13.71533449589675"><ele>194.0</ele><time>2026-05-02T17:07:34Z</time></trkpt><trkpt lat="45.26561088818891" lon="13.71528369596518"><ele>194.0</ele><time>2026-05-02T17:07:35Z</time></trkpt><trkpt lat="45.265949100525994" lon="13.715220190802372"><ele>193.0</ele><time>2026-05-02T17:07:36Z</time></trkpt><trkpt lat="45.266286175951144" lon="13.715145822710337"><ele>192.0</ele><time>2026-05-02T17:07:37Z</time></trkpt><trkpt lat="45.266622000133246" lon="13.715059672261273"><ele>192.0</ele><time>2026-05-02T17:07:38Z</time></trkpt><trkpt lat="45.266955204793845" lon="13.714966637320964"><ele>192.0</ele><time>2026-05-02T17:07:39Z</time></trkpt><trkpt lat="45.267289888268266" lon="13.71486186834392"><ele>190.0</ele><time>2026-05-02T17:07:40Z</time></trkpt><trkpt lat="45.26762246494627" lon="13.714742425015269"><ele>188.0</ele><time>2026-05-02T17:07:41Z</time></trkpt><trkpt lat="45.26795101148713" lon="13.714607390261058"><ele>189.0</ele><time>2026-05-02T17:07:42Z</time></trkpt><trkpt lat="45.26827641485874" lon="13.714455395317847"><ele>190.0</ele><time>2026-05-02T17:07:43Z</time></trkpt><trkpt lat="45.268597892190954" lon="13.714295644605222"><ele>190.5</ele><time>2026-05-02T17:07:44Z</time></trkpt><trkpt lat="45.268918628832076" lon="13.714125047749636"><ele>191.0</ele><time>2026-05-02T17:07:45Z</time></trkpt><trkpt lat="45.26923441376237" lon="13.713945584913516"><ele>191.0</ele><time>2026-05-02T17:07:46Z</time></trkpt><trkpt lat="45.26954662593743" lon="13.713751500746307"><ele>191.0</ele><time>2026-05-02T17:07:47Z</time></trkpt><trkpt lat="45.269853900327504" lon="13.713542124062705"><ele>193.0</ele><time>2026-05-02T17:07:48Z</time></trkpt><trkpt lat="45.27015957526693" lon="13.71332873458624"><ele>195.0</ele><time>2026-05-02T17:07:49Z</time></trkpt><trkpt lat="45.270461340778816" lon="13.713101130172667"><ele>197.0</ele><time>2026-05-02T17:07:50Z</time></trkpt><trkpt lat="45.270758335267416" lon="13.712864270020034"><ele>199.0</ele><time>2026-05-02T17:07:51Z</time></trkpt><trkpt lat="45.27105081202053" lon="13.712615758623702"><ele>199.0</ele><time>2026-05-02T17:07:52Z</time></trkpt><trkpt lat="45.2713381169492" lon="13.712357063607774"><ele>199.0</ele><time>2026-05-02T17:07:53Z</time></trkpt><trkpt lat="45.27162071500126" lon="13.712088774868265"><ele>199.0</ele><time>2026-05-02T17:07:54Z</time></trkpt><trkpt lat="45.27190123994153" lon="13.711810893223065"><ele>199.0</ele><time>2026-05-02T17:07:55Z</time></trkpt><trkpt lat="45.27217719873847" lon="13.711529654570253"><ele>196.0</ele><time>2026-05-02T17:07:56Z</time></trkpt><trkpt lat="45.27245199665082" lon="13.711243754533927"><ele>193.0</ele><time>2026-05-02T17:07:57Z</time></trkpt><trkpt lat="45.27272853219961" lon="13.71095752485565"><ele>191.5</ele><time>2026-05-02T17:07:58Z</time></trkpt><trkpt lat="45.273008401298846" lon="13.710674154280618"><ele>190.0</ele><time>2026-05-02T17:07:59Z</time></trkpt><trkpt lat="45.27329629707194" lon="13.710404543910489"><ele>185.5</ele><time>2026-05-02T17:08:00Z</time></trkpt><trkpt lat="45.27358617702921" lon="13.710150233855165"><ele>181.0</ele><time>2026-05-02T17:08:01Z</time></trkpt><trkpt lat="45.27388250414619" lon="13.70991029772172"><ele>182.5</ele><time>2026-05-02T17:08:02Z</time></trkpt><trkpt lat="45.27418301308089" lon="13.709690350523015"><ele>184.0</ele><time>2026-05-02T17:08:03Z</time></trkpt><trkpt lat="45.27448964415156" lon="13.709488072444982"><ele>182.5</ele><time>2026-05-02T17:08:04Z</time></trkpt><trkpt lat="45.27480151785855" lon="13.709301635120177"><ele>181.0</ele><time>2026-05-02T17:08:05Z</time></trkpt><trkpt lat="45.27511684033386" lon="13.709127273493243"><ele>181.0</ele><time>2026-05-02T17:08:06Z</time></trkpt><trkpt lat="45.27543723928096" lon="13.708970928336567"><ele>181.0</ele><time>2026-05-02T17:08:07Z</time></trkpt><trkpt lat="45.27576235278241" lon="13.70883372232962"><ele>181.5</ele><time>2026-05-02T17:08:08Z</time></trkpt><trkpt lat="45.27609267157503" lon="13.7087124328351"><ele>182.0</ele><time>2026-05-02T17:08:09Z</time></trkpt><trkpt lat="45.27642622951516" lon="13.708611959047786"><ele>183.0</ele><time>2026-05-02T17:08:10Z</time></trkpt><trkpt lat="45.27676105935993" lon="13.70853143660631"><ele>184.0</ele><time>2026-05-02T17:08:11Z</time></trkpt><trkpt lat="45.27709840166766" lon="13.708464401357638"><ele>187.5</ele><time>2026-05-02T17:08:12Z</time></trkpt><trkpt lat="45.27743821589037" lon="13.708409990156216"><ele>191.0</ele><time>2026-05-02T17:08:13Z</time></trkpt><trkpt lat="45.27777767906715" lon="13.708379105855595"><ele>194.0</ele><time>2026-05-02T17:08:14Z</time></trkpt><trkpt lat="45.27811576114624" lon="13.708368625798482"><ele>197.0</ele><time>2026-05-02T17:08:15Z</time></trkpt><trkpt lat="45.27845462047987" lon="13.708376876679038"><ele>197.0</ele><time>2026-05-02T17:08:16Z</time></trkpt><trkpt lat="45.278791673545804" lon="13.708404566285358"><ele>197.0</ele><time>2026-05-02T17:08:17Z</time></trkpt><trkpt lat="45.27912943743679" lon="13.708451113272023"><ele>199.0</ele><time>2026-05-02T17:08:18Z</time></trkpt><trkpt lat="45.279467193990506" lon="13.708511185203058"><ele>201.0</ele><time>2026-05-02T17:08:19Z</time></trkpt><trkpt lat="45.27980241110244" lon="13.708590396020247"><ele>201.0</ele><time>2026-05-02T17:08:20Z</time></trkpt><trkpt lat="45.28013573442537" lon="13.708685010384645"><ele>201.0</ele><time>2026-05-02T17:08:21Z</time></trkpt><trkpt lat="45.280465439886875" lon="13.708801045325945"><ele>203.5</ele><time>2026-05-02T17:08:22Z</time></trkpt><trkpt lat="45.28079165118244" lon="13.70893612590648"><ele>206.0</ele><time>2026-05-02T17:08:23Z</time></trkpt><trkpt lat="45.28111420116254" lon="13.70908867160302"><ele>206.5</ele><time>2026-05-02T17:08:24Z</time></trkpt><trkpt lat="45.281433159650824" lon="13.709257344045048"><ele>207.0</ele><time>2026-05-02T17:08:25Z</time></trkpt><trkpt lat="45.28174711378652" lon="13.70944179339441"><ele>210.5</ele><time>2026-05-02T17:08:26Z</time></trkpt><trkpt lat="45.28205980040351" lon="13.709638440352578"><ele>214.0</ele><time>2026-05-02T17:08:27Z</time></trkpt><trkpt lat="45.28236491468272" lon="13.709853060205127"><ele>214.0</ele><time>2026-05-02T17:08:28Z</time></trkpt><trkpt lat="45.28266123906897" lon="13.710091603585985"><ele>214.0</ele><time>2026-05-02T17:08:29Z</time></trkpt><trkpt lat="45.28295166347243" lon="13.710344501989978"><ele>213.5</ele><time>2026-05-02T17:08:30Z</time></trkpt><trkpt lat="45.283236014536755" lon="13.710610854842061"><ele>213.0</ele><time>2026-05-02T17:08:31Z</time></trkpt><trkpt lat="45.28351302438103" lon="13.710893082972786"><ele>214.0</ele><time>2026-05-02T17:08:32Z</time></trkpt><trkpt lat="45.28378251132436" lon="13.71118891933534"><ele>215.0</ele><time>2026-05-02T17:08:33Z</time></trkpt><trkpt lat="45.28404393572015" lon="13.711499623379025"><ele>215.0</ele><time>2026-05-02T17:08:34Z</time></trkpt><trkpt lat="45.28429524337706" lon="13.711823956425908"><ele>215.0</ele><time>2026-05-02T17:08:35Z</time></trkpt><trkpt lat="45.284539109459665" lon="13.712157287086184"><ele>214.5</ele><time>2026-05-02T17:08:36Z</time></trkpt><trkpt lat="45.28477289826205" lon="13.712508165162562"><ele>214.0</ele><time>2026-05-02T17:08:37Z</time></trkpt><trkpt lat="45.285000953557784" lon="13.71286766492874"><ele>215.5</ele><time>2026-05-02T17:08:38Z</time></trkpt><trkpt lat="45.28522245690442" lon="13.713237303752031"><ele>217.0</ele><time>2026-05-02T17:08:39Z</time></trkpt><trkpt lat="45.28543409194019" lon="13.713615313965743"><ele>217.5</ele><time>2026-05-02T17:08:40Z</time></trkpt><trkpt lat="45.2856431884782" lon="13.713996631863983"><ele>218.0</ele><time>2026-05-02T17:08:41Z</time></trkpt><trkpt lat="45.285853648222684" lon="13.7143742911748"><ele>219.0</ele><time>2026-05-02T17:08:42Z</time></trkpt><trkpt lat="45.286073704658314" lon="13.714742581111734"><ele>220.0</ele><time>2026-05-02T17:08:43Z</time></trkpt><trkpt lat="45.28630694081979" lon="13.71509368229776"><ele>222.0</ele><time>2026-05-02T17:08:44Z</time></trkpt><trkpt lat="45.28655166272808" lon="13.71542481178458"><ele>224.0</ele><time>2026-05-02T17:08:45Z</time></trkpt><trkpt lat="45.2868105338088" lon="13.715736080918191"><ele>224.0</ele><time>2026-05-02T17:08:46Z</time></trkpt><trkpt lat="45.28708182029688" lon="13.716021736289234"><ele>224.0</ele><time>2026-05-02T17:08:47Z</time></trkpt><trkpt lat="45.28736387897597" lon="13.716287629502938"><ele>224.0</ele><time>2026-05-02T17:08:48Z</time></trkpt><trkpt lat="45.28765370450002" lon="13.716534337894762"><ele>224.0</ele><time>2026-05-02T17:08:49Z</time></trkpt><trkpt lat="45.28795169565613" lon="13.71676304604418"><ele>226.5</ele><time>2026-05-02T17:08:50Z</time></trkpt><trkpt lat="45.28825923005987" lon="13.716967532044128"><ele>229.0</ele><time>2026-05-02T17:08:51Z</time></trkpt><trkpt lat="45.288573572505896" lon="13.7171466856565"><ele>229.0</ele><time>2026-05-02T17:08:52Z</time></trkpt><trkpt lat="45.28889375580365" lon="13.71730271660271"><ele>229.0</ele><time>2026-05-02T17:08:53Z</time></trkpt><trkpt lat="45.28922148489187" lon="13.717433625007125"><ele>231.0</ele><time>2026-05-02T17:08:54Z</time></trkpt><trkpt lat="45.28955418965672" lon="13.717539731528392"><ele>233.0</ele><time>2026-05-02T17:08:55Z</time></trkpt><trkpt lat="45.28988936559688" lon="13.717620258125866"><ele>235.0</ele><time>2026-05-02T17:08:56Z</time></trkpt><trkpt lat="45.290226321305624" lon="13.717677323374744"><ele>237.0</ele><time>2026-05-02T17:08:57Z</time></trkpt><trkpt lat="45.29056690343264" lon="13.717706224705164"><ele>238.5</ele><time>2026-05-02T17:08:58Z</time></trkpt><trkpt lat="45.290906689943384" lon="13.717709373953623"><ele>240.0</ele><time>2026-05-02T17:08:59Z</time></trkpt><trkpt lat="45.29124412003122" lon="13.717684426423272"><ele>243.0</ele><time>2026-05-02T17:09:00Z</time></trkpt><trkpt lat="45.29157962851823" lon="13.717632886494334"><ele>246.0</ele><time>2026-05-02T17:09:01Z</time></trkpt><trkpt lat="45.29191382221882" lon="13.717561480256947"><ele>246.0</ele><time>2026-05-02T17:09:02Z</time></trkpt><trkpt lat="45.29224596890176" lon="13.717466126356383"><ele>246.0</ele><time>2026-05-02T17:09:03Z</time></trkpt><trkpt lat="45.29257259521702" lon="13.71734457232955"><ele>247.0</ele><time>2026-05-02T17:09:04Z</time></trkpt><trkpt lat="45.29289474283321" lon="13.717198586169236"><ele>248.0</ele><time>2026-05-02T17:09:05Z</time></trkpt><trkpt lat="45.293210462450304" lon="13.717027857415792"><ele>249.5</ele><time>2026-05-02T17:09:06Z</time></trkpt><trkpt lat="45.29351941200034" lon="13.716833799079733"><ele>251.0</ele><time>2026-05-02T17:09:07Z</time></trkpt><trkpt lat="45.293820084112184" lon="13.716615621208485"><ele>252.0</ele><time>2026-05-02T17:09:08Z</time></trkpt><trkpt lat="45.294114006848936" lon="13.71637437955815"><ele>253.0</ele><time>2026-05-02T17:09:09Z</time></trkpt><trkpt lat="45.29439792971477" lon="13.716110890537806"><ele>253.5</ele><time>2026-05-02T17:09:10Z</time></trkpt><trkpt lat="45.29467256088238" lon="13.715828596446084"><ele>254.0</ele><time>2026-05-02T17:09:11Z</time></trkpt><trkpt lat="45.294936301313236" lon="13.71552471297902"><ele>257.0</ele><time>2026-05-02T17:09:12Z</time></trkpt><trkpt lat="45.29519546832301" lon="13.715210841729586"><ele>260.0</ele><time>2026-05-02T17:09:13Z</time></trkpt><trkpt lat="45.29544803071574" lon="13.714887791361804"><ele>259.5</ele><time>2026-05-02T17:09:14Z</time></trkpt><trkpt lat="45.29569660089462" lon="13.714556025612847"><ele>259.0</ele><time>2026-05-02T17:09:15Z</time></trkpt><trkpt lat="45.29594125039932" lon="13.714229081304227"><ele>259.0</ele><time>2026-05-02T17:09:16Z</time></trkpt><trkpt lat="45.296201095517" lon="13.713915125199195"><ele>259.0</ele><time>2026-05-02T17:09:17Z</time></trkpt><trkpt lat="45.2964735478505" lon="13.713623501014892"><ele>257.5</ele><time>2026-05-02T17:09:18Z</time></trkpt><trkpt lat="45.296747396524225" lon="13.713333103268823"><ele>256.0</ele><time>2026-05-02T17:09:19Z</time></trkpt><trkpt lat="45.29702790595842" lon="13.713057698487956"><ele>256.0</ele><time>2026-05-02T17:09:20Z</time></trkpt><trkpt lat="45.29731819189273" lon="13.712795314416901"><ele>256.0</ele><time>2026-05-02T17:09:21Z</time></trkpt><trkpt lat="45.297612464426905" lon="13.71254684156583"><ele>256.0</ele><time>2026-05-02T17:09:22Z</time></trkpt><trkpt lat="45.29791262158672" lon="13.712318905766148"><ele>256.0</ele><time>2026-05-02T17:09:23Z</time></trkpt><trkpt lat="45.29822087177902" lon="13.712105849584706"><ele>256.0</ele><time>2026-05-02T17:09:24Z</time></trkpt><trkpt lat="45.298534607267094" lon="13.711910914075766"><ele>256.0</ele><time>2026-05-02T17:09:25Z</time></trkpt><trkpt lat="45.298853027368104" lon="13.711733454503586"><ele>257.5</ele><time>2026-05-02T17:09:26Z</time></trkpt><trkpt lat="45.29917526037057" lon="13.711569159223973"><ele>259.0</ele><time>2026-05-02T17:09:27Z</time></trkpt><trkpt lat="45.29950291233723" lon="13.711422833693067"><ele>259.5</ele><time>2026-05-02T17:09:28Z</time></trkpt><trkpt lat="45.29983458504507" lon="13.711296771441402"><ele>260.0</ele><time>2026-05-02T17:09:29Z</time></trkpt><trkpt lat="45.30016919088396" lon="13.711187061951714"><ele>260.0</ele><time>2026-05-02T17:09:30Z</time></trkpt><trkpt lat="45.30050532591329" lon="13.71109495736687"><ele>260.0</ele><time>2026-05-02T17:09:31Z</time></trkpt><trkpt lat="45.30084323299661" lon="13.711023373498167"><ele>258.0</ele><time>2026-05-02T17:09:32Z</time></trkpt><trkpt lat="45.30118117555843" lon="13.710967231127338"><ele>256.0</ele><time>2026-05-02T17:09:33Z</time></trkpt><trkpt lat="45.30151979278199" lon="13.710921700382347"><ele>254.5</ele><time>2026-05-02T17:09:34Z</time></trkpt><trkpt lat="45.30186018777959" lon="13.710886074892167"><ele>253.0</ele><time>2026-05-02T17:09:35Z</time></trkpt><trkpt lat="45.30220251466394" lon="13.710850185153529"><ele>251.0</ele><time>2026-05-02T17:09:36Z</time></trkpt><trkpt lat="45.30254269684893" lon="13.710810326650472"><ele>249.0</ele><time>2026-05-02T17:09:37Z</time></trkpt><trkpt lat="45.30288272766364" lon="13.71076350654937"><ele>245.0</ele><time>2026-05-02T17:09:38Z</time></trkpt><trkpt lat="45.303222227183966" lon="13.71070234268069"><ele>241.0</ele><time>2026-05-02T17:09:39Z</time></trkpt><trkpt lat="45.30355812175398" lon="13.71061381132831"><ele>241.0</ele><time>2026-05-02T17:09:40Z</time></trkpt><trkpt lat="45.3038901196064" lon="13.710511386903217"><ele>241.0</ele><time>2026-05-02T17:09:41Z</time></trkpt><trkpt lat="45.30421990845069" lon="13.710391661913542"><ele>240.5</ele><time>2026-05-02T17:09:42Z</time></trkpt><trkpt lat="45.304544994939455" lon="13.710253340505252"><ele>240.0</ele><time>2026-05-02T17:09:43Z</time></trkpt><trkpt lat="45.304865023124776" lon="13.710098629243769"><ele>240.0</ele><time>2026-05-02T17:09:44Z</time></trkpt><trkpt lat="45.30518269025165" lon="13.709927540659047"><ele>240.0</ele><time>2026-05-02T17:09:45Z</time></trkpt><trkpt lat="45.30549621927225" lon="13.709740849137873"><ele>240.0</ele><time>2026-05-02T17:09:46Z</time></trkpt><trkpt lat="45.30580409126885" lon="13.709538861358904"><ele>240.0</ele><time>2026-05-02T17:09:47Z</time></trkpt><trkpt lat="45.306105813338704" lon="13.709318961847597"><ele>239.5</ele><time>2026-05-02T17:09:48Z</time></trkpt><trkpt lat="45.30640120480537" lon="13.709082459962312"><ele>239.0</ele><time>2026-05-02T17:09:49Z</time></trkpt><trkpt lat="45.306690305794426" lon="13.708830689941877"><ele>242.5</ele><time>2026-05-02T17:09:50Z</time></trkpt><trkpt lat="45.306973118405914" lon="13.708562768177602"><ele>246.0</ele><time>2026-05-02T17:09:51Z</time></trkpt><trkpt lat="45.30724645419945" lon="13.708278320792482"><ele>247.5</ele><time>2026-05-02T17:09:52Z</time></trkpt><trkpt lat="45.30751420513373" lon="13.707983083346525"><ele>249.0</ele><time>2026-05-02T17:09:53Z</time></trkpt><trkpt lat="45.307773694814" lon="13.707671430330489"><ele>249.0</ele><time>2026-05-02T17:09:54Z</time></trkpt><trkpt lat="45.30802723720215" lon="13.707349646883118"><ele>249.0</ele><time>2026-05-02T17:09:55Z</time></trkpt><trkpt lat="45.30827056820492" lon="13.707010088065612"><ele>250.5</ele><time>2026-05-02T17:09:56Z</time></trkpt><trkpt lat="45.30850621133547" lon="13.706658309488931"><ele>252.0</ele><time>2026-05-02T17:09:57Z</time></trkpt><trkpt lat="45.308735099443574" lon="13.706299292566179"><ele>252.5</ele><time>2026-05-02T17:09:58Z</time></trkpt><trkpt lat="45.30895808302183" lon="13.705931009405049"><ele>253.0</ele><time>2026-05-02T17:09:59Z</time></trkpt><trkpt lat="45.309177291039774" lon="13.705556850973682"><ele>252.5</ele><time>2026-05-02T17:10:00Z</time></trkpt><trkpt lat="45.30939681460155" lon="13.705183836638078"><ele>252.0</ele><time>2026-05-02T17:10:01Z</time></trkpt><trkpt lat="45.30962103181766" lon="13.704818425556862"><ele>252.5</ele><time>2026-05-02T17:10:02Z</time></trkpt><trkpt lat="45.309853638453895" lon="13.704462410495193"><ele>253.0</ele><time>2026-05-02T17:10:03Z</time></trkpt><trkpt lat="45.31009453590281" lon="13.70411897402475"><ele>251.5</ele><time>2026-05-02T17:10:04Z</time></trkpt><trkpt lat="45.31034460471251" lon="13.70379184157411"><ele>250.0</ele><time>2026-05-02T17:10:05Z</time></trkpt><trkpt lat="45.310605434496715" lon="13.703481406948125"><ele>246.5</ele><time>2026-05-02T17:10:06Z</time></trkpt><trkpt lat="45.310874331369924" lon="13.703186955392612"><ele>243.0</ele><time>2026-05-02T17:10:07Z</time></trkpt><trkpt lat="45.31115007729144" lon="13.702901885757395"><ele>241.5</ele><time>2026-05-02T17:10:08Z</time></trkpt><trkpt lat="45.311431307920884" lon="13.702628129847504"><ele>240.0</ele><time>2026-05-02T17:10:09Z</time></trkpt><trkpt lat="45.31171903166596" lon="13.702369802984101"><ele>240.0</ele><time>2026-05-02T17:10:10Z</time></trkpt><trkpt lat="45.31201194107631" lon="13.702123394706833"><ele>240.0</ele><time>2026-05-02T17:10:11Z</time></trkpt><trkpt lat="45.31231188299363" lon="13.701893053738203"><ele>239.5</ele><time>2026-05-02T17:10:12Z</time></trkpt><trkpt lat="45.31261750065599" lon="13.701679020603184"><ele>239.0</ele><time>2026-05-02T17:10:13Z</time></trkpt><trkpt lat="45.31292959179529" lon="13.701480638887215"><ele>239.5</ele><time>2026-05-02T17:10:14Z</time></trkpt><trkpt lat="45.31324467077293" lon="13.70129987656706"><ele>240.0</ele><time>2026-05-02T17:10:15Z</time></trkpt><trkpt lat="45.313565878138775" lon="13.701131243950297"><ele>241.5</ele><time>2026-05-02T17:10:16Z</time></trkpt><trkpt lat="45.313887877742225" lon="13.7009669801301"><ele>243.0</ele><time>2026-05-02T17:10:17Z</time></trkpt><trkpt lat="45.314208821759976" lon="13.700794970515956"><ele>243.0</ele><time>2026-05-02T17:10:18Z</time></trkpt><trkpt lat="45.31452803943136" lon="13.70061607039702"><ele>243.0</ele><time>2026-05-02T17:10:19Z</time></trkpt><trkpt lat="45.314844437472516" lon="13.700427500776234"><ele>244.0</ele><time>2026-05-02T17:10:20Z</time></trkpt><trkpt lat="45.31515577889463" lon="13.70022363428359"><ele>245.0</ele><time>2026-05-02T17:10:21Z</time></trkpt><trkpt lat="45.31545949194468" lon="13.700005520796811"><ele>244.5</ele><time>2026-05-02T17:10:22Z</time></trkpt><trkpt lat="45.31575496739455" lon="13.699771943065294"><ele>244.0</ele><time>2026-05-02T17:10:23Z</time></trkpt><trkpt lat="45.31604485725361" lon="13.699512780058184"><ele>244.5</ele><time>2026-05-02T17:10:24Z</time></trkpt><trkpt lat="45.31632880711744" lon="13.699245745016965"><ele>245.0</ele><time>2026-05-02T17:10:25Z</time></trkpt><trkpt lat="45.316604717975075" lon="13.698967947465288"><ele>242.0</ele><time>2026-05-02T17:10:26Z</time></trkpt><trkpt lat="45.31687636381013" lon="13.698677895110066"><ele>239.0</ele><time>2026-05-02T17:10:27Z</time></trkpt><trkpt lat="45.31713739977185" lon="13.698371442433766"><ele>236.0</ele><time>2026-05-02T17:10:28Z</time></trkpt><trkpt lat="45.31738892367706" lon="13.698049252391526"><ele>233.0</ele><time>2026-05-02T17:10:29Z</time></trkpt><trkpt lat="45.31763620771602" lon="13.697717084247342"><ele>231.0</ele><time>2026-05-02T17:10:30Z</time></trkpt><trkpt lat="45.317871421351846" lon="13.69737057561395"><ele>229.0</ele><time>2026-05-02T17:10:31Z</time></trkpt><trkpt lat="45.31809738688971" lon="13.697009463708607"><ele>226.5</ele><time>2026-05-02T17:10:32Z</time></trkpt><trkpt lat="45.318314941723685" lon="13.696636765461873"><ele>224.0</ele><time>2026-05-02T17:10:33Z</time></trkpt><trkpt lat="45.31852073323873" lon="13.696254179375098"><ele>223.0</ele><time>2026-05-02T17:10:34Z</time></trkpt><trkpt lat="45.318716708458986" lon="13.695858188798077"><ele>222.0</ele><time>2026-05-02T17:10:35Z</time></trkpt><trkpt lat="45.318900000228616" lon="13.695452753605236"><ele>222.5</ele><time>2026-05-02T17:10:36Z</time></trkpt><trkpt lat="45.31907292546984" lon="13.69503837888446"><ele>223.0</ele><time>2026-05-02T17:10:37Z</time></trkpt><trkpt lat="45.31923373286559" lon="13.694612357324004"><ele>224.5</ele><time>2026-05-02T17:10:38Z</time></trkpt><trkpt lat="45.31938452286292" lon="13.694182196767303"><ele>226.0</ele><time>2026-05-02T17:10:39Z</time></trkpt><trkpt lat="45.31952460350461" lon="13.693743739544292"><ele>226.5</ele><time>2026-05-02T17:10:40Z</time></trkpt><trkpt lat="45.319656508586014" lon="13.693298968796423"><ele>227.0</ele><time>2026-05-02T17:10:41Z</time></trkpt><trkpt lat="45.3197737065734" lon="13.692845110297686"><ele>225.0</ele><time>2026-05-02T17:10:42Z</time></trkpt><trkpt lat="45.319880925773234" lon="13.692385221944734"><ele>223.0</ele><time>2026-05-02T17:10:43Z</time></trkpt><trkpt lat="45.31997547044232" lon="13.69192073907794"><ele>223.0</ele><time>2026-05-02T17:10:44Z</time></trkpt><trkpt lat="45.32005618829017" lon="13.691452312070908"><ele>223.0</ele><time>2026-05-02T17:10:45Z</time></trkpt><trkpt lat="45.32012316107408" lon="13.690979422891282"><ele>223.0</ele><time>2026-05-02T17:10:46Z</time></trkpt><trkpt lat="45.32017666312539" lon="13.69050265604029"><ele>223.0</ele><time>2026-05-02T17:10:47Z</time></trkpt><trkpt lat="45.32021370812841" lon="13.690022175634798"><ele>223.0</ele><time>2026-05-02T17:10:48Z</time></trkpt><trkpt lat="45.32024288532395" lon="13.689539904822425"><ele>223.0</ele><time>2026-05-02T17:10:49Z</time></trkpt><trkpt lat="45.320258618046246" lon="13.68905756633143"><ele>222.5</ele><time>2026-05-02T17:10:50Z</time></trkpt><trkpt lat="45.32026010287812" lon="13.688572904707964"><ele>222.0</ele><time>2026-05-02T17:10:51Z</time></trkpt><trkpt lat="45.320252504090966" lon="13.688088756669597"><ele>220.0</ele><time>2026-05-02T17:10:52Z</time></trkpt><trkpt lat="45.32023077306827" lon="13.687605032787653"><ele>218.0</ele><time>2026-05-02T17:10:53Z</time></trkpt><trkpt lat="45.32019573290729" lon="13.687123234278923"><ele>215.5</ele><time>2026-05-02T17:10:54Z</time></trkpt><trkpt lat="45.320147402321666" lon="13.68664524815951"><ele>213.0</ele><time>2026-05-02T17:10:55Z</time></trkpt><trkpt lat="45.3200893508495" lon="13.686168048857214"><ele>212.5</ele><time>2026-05-02T17:10:56Z</time></trkpt><trkpt lat="45.32002727209748" lon="13.685691872078312"><ele>212.0</ele><time>2026-05-02T17:10:57Z</time></trkpt><trkpt lat="45.31996447661254" lon="13.685216357658657"><ele>212.0</ele><time>2026-05-02T17:10:58Z</time></trkpt><trkpt lat="45.31990343082736" lon="13.684740694831367"><ele>212.0</ele><time>2026-05-02T17:10:59Z</time></trkpt><trkpt lat="45.31984805677003" lon="13.684261199915882"><ele>210.5</ele><time>2026-05-02T17:11:00Z</time></trkpt><trkpt lat="45.319802567964786" lon="13.683782875061747"><ele>209.0</ele><time>2026-05-02T17:11:01Z</time></trkpt><trkpt lat="45.319764078625276" lon="13.68330065773442"><ele>206.5</ele><time>2026-05-02T17:11:02Z</time></trkpt><trkpt lat="45.31973685569932" lon="13.68281861833432"><ele>204.0</ele><time>2026-05-02T17:11:03Z</time></trkpt><trkpt lat="45.319722582840676" lon="13.682335223873624"><ele>201.0</ele><time>2026-05-02T17:11:04Z</time></trkpt><trkpt lat="45.31971879129888" lon="13.681851912493938"><ele>198.0</ele><time>2026-05-02T17:11:05Z</time></trkpt><trkpt lat="45.31972465789392" lon="13.68136679937044"><ele>198.0</ele><time>2026-05-02T17:11:06Z</time></trkpt><trkpt lat="45.31974155423335" lon="13.680883652663686"><ele>198.0</ele><time>2026-05-02T17:11:07Z</time></trkpt><trkpt lat="45.319765271138316" lon="13.680401506414539"><ele>195.5</ele><time>2026-05-02T17:11:08Z</time></trkpt><trkpt lat="45.319803325222345" lon="13.679921012333017"><ele>193.0</ele><time>2026-05-02T17:11:09Z</time></trkpt><trkpt lat="45.319848162935315" lon="13.679440780608886"><ele>191.5</ele><time>2026-05-02T17:11:10Z</time></trkpt><trkpt lat="45.31990153223828" lon="13.678964274625576"><ele>190.0</ele><time>2026-05-02T17:11:11Z</time></trkpt><trkpt lat="45.319970655754496" lon="13.678491052006747"><ele>190.0</ele><time>2026-05-02T17:11:12Z</time></trkpt><trkpt lat="45.32004935518102" lon="13.678019646863278"><ele>190.0</ele><time>2026-05-02T17:11:13Z</time></trkpt><trkpt lat="45.32013757351881" lon="13.677551833776656"><ele>190.0</ele><time>2026-05-02T17:11:14Z</time></trkpt><trkpt lat="45.3202351910406" lon="13.677090913002274"><ele>190.0</ele><time>2026-05-02T17:11:15Z</time></trkpt><trkpt lat="45.32034436594062" lon="13.676633536949307"><ele>189.0</ele><time>2026-05-02T17:11:16Z</time></trkpt><trkpt lat="45.32046457703436" lon="13.676181483334108"><ele>188.0</ele><time>2026-05-02T17:11:17Z</time></trkpt><trkpt lat="45.32059529591446" lon="13.67573421003212"><ele>186.0</ele><time>2026-05-02T17:11:18Z</time></trkpt><trkpt lat="45.320734191156745" lon="13.675292807456989"><ele>184.0</ele><time>2026-05-02T17:11:19Z</time></trkpt><trkpt lat="45.320884471759584" lon="13.674858150517366"><ele>183.5</ele><time>2026-05-02T17:11:20Z</time></trkpt><trkpt lat="45.321046600416615" lon="13.674431953953272"><ele>183.0</ele><time>2026-05-02T17:11:21Z</time></trkpt><trkpt lat="45.32121788899691" lon="13.674012492174398"><ele>182.5</ele><time>2026-05-02T17:11:22Z</time></trkpt><trkpt lat="45.3213947357538" lon="13.673597315079071"><ele>182.0</ele><time>2026-05-02T17:11:23Z</time></trkpt><trkpt lat="45.3215728636026" lon="13.673186106859356"><ele>181.0</ele><time>2026-05-02T17:11:24Z</time></trkpt><trkpt lat="45.32175037252358" lon="13.672771806860828"><ele>180.0</ele><time>2026-05-02T17:11:25Z</time></trkpt><trkpt lat="45.3219229265593" lon="13.672355360650906"><ele>180.0</ele><time>2026-05-02T17:11:26Z</time></trkpt><trkpt lat="45.32209156100377" lon="13.671935920212789"><ele>180.0</ele><time>2026-05-02T17:11:27Z</time></trkpt><trkpt lat="45.32225034086413" lon="13.671509417866107"><ele>178.5</ele><time>2026-05-02T17:11:28Z</time></trkpt><trkpt lat="45.32239842889368" lon="13.671073770496404"><ele>177.0</ele><time>2026-05-02T17:11:29Z</time></trkpt><trkpt lat="45.32253590566597" lon="13.670631762870306"><ele>177.5</ele><time>2026-05-02T17:11:30Z</time></trkpt><trkpt lat="45.32265999778846" lon="13.670185037987414"><ele>178.0</ele><time>2026-05-02T17:11:31Z</time></trkpt><trkpt lat="45.32277381981847" lon="13.669728873293593"><ele>177.5</ele><time>2026-05-02T17:11:32Z</time></trkpt><trkpt lat="45.322873187694356" lon="13.669266737300457"><ele>177.0</ele><time>2026-05-02T17:11:33Z</time></trkpt><trkpt lat="45.32295938690953" lon="13.668800575354542"><ele>176.0</ele><time>2026-05-02T17:11:34Z</time></trkpt><trkpt lat="45.3230338778165" lon="13.668330151699546"><ele>175.0</ele><time>2026-05-02T17:11:35Z</time></trkpt><trkpt lat="45.3231000369967" lon="13.667856680377671"><ele>169.5</ele><time>2026-05-02T17:11:36Z</time></trkpt><trkpt lat="45.323152866809565" lon="13.66737889873557"><ele>164.0</ele><time>2026-05-02T17:11:37Z</time></trkpt><trkpt lat="45.323194239666286" lon="13.666898590150762"><ele>163.0</ele><time>2026-05-02T17:11:38Z</time></trkpt><trkpt lat="45.323222526249104" lon="13.6664171853499"><ele>162.0</ele><time>2026-05-02T17:11:39Z</time></trkpt><trkpt lat="45.323239199785434" lon="13.665935876305818"><ele>162.0</ele><time>2026-05-02T17:11:40Z</time></trkpt><trkpt lat="45.32324554262912" lon="13.665453013815489"><ele>162.0</ele><time>2026-05-02T17:11:41Z</time></trkpt><trkpt lat="45.323246901532215" lon="13.664968880684711"><ele>161.0</ele><time>2026-05-02T17:11:42Z</time></trkpt><trkpt lat="45.32325414691112" lon="13.664484316799568"><ele>160.0</ele><time>2026-05-02T17:11:43Z</time></trkpt><trkpt lat="45.323270889397676" lon="13.664000362154729"><ele>159.0</ele><time>2026-05-02T17:11:44Z</time></trkpt><trkpt lat="45.32329410816663" lon="13.663518982647622"><ele>158.0</ele><time>2026-05-02T17:11:45Z</time></trkpt><trkpt lat="45.32332489770368" lon="13.663036605570936"><ele>157.5</ele><time>2026-05-02T17:11:46Z</time></trkpt><trkpt lat="45.32337266162166" lon="13.662560550686745"><ele>157.0</ele><time>2026-05-02T17:11:47Z</time></trkpt><trkpt lat="45.32343538646544" lon="13.66208648998936"><ele>157.0</ele><time>2026-05-02T17:11:48Z</time></trkpt><trkpt lat="45.323505339532545" lon="13.661614545865003"><ele>157.0</ele><time>2026-05-02T17:11:49Z</time></trkpt><trkpt lat="45.32357964942261" lon="13.661144657115534"><ele>156.5</ele><time>2026-05-02T17:11:50Z</time></trkpt><trkpt lat="45.32364786003147" lon="13.660673391661922"><ele>156.0</ele><time>2026-05-02T17:11:51Z</time></trkpt><trkpt lat="45.323705745856834" lon="13.660199418985355"><ele>155.5</ele><time>2026-05-02T17:11:52Z</time></trkpt><trkpt lat="45.32375101424781" lon="13.659722939296772"><ele>155.0</ele><time>2026-05-02T17:11:53Z</time></trkpt><trkpt lat="45.32378338872696" lon="13.659243907685394"><ele>155.0</ele><time>2026-05-02T17:11:54Z</time></trkpt><trkpt lat="45.32380079300537" lon="13.658762297702124"><ele>155.0</ele><time>2026-05-02T17:11:55Z</time></trkpt><trkpt lat="45.323807272313616" lon="13.658281262276407"><ele>156.5</ele><time>2026-05-02T17:11:56Z</time></trkpt><trkpt lat="45.32380060049835" lon="13.657798519397288"><ele>158.0</ele><time>2026-05-02T17:11:57Z</time></trkpt><trkpt lat="45.32378405644925" lon="13.657314548776673"><ele>161.0</ele><time>2026-05-02T17:11:58Z</time></trkpt><trkpt lat="45.32375641479591" lon="13.656832723818816"><ele>164.0</ele><time>2026-05-02T17:11:59Z</time></trkpt><trkpt lat="45.32371223109182" lon="13.656351360134881"><ele>164.5</ele><time>2026-05-02T17:12:00Z</time></trkpt><trkpt lat="45.32365602013369" lon="13.655874306160298"><ele>165.0</ele><time>2026-05-02T17:12:01Z</time></trkpt><trkpt lat="45.32359047163655" lon="13.655398894950052"><ele>162.5</ele><time>2026-05-02T17:12:02Z</time></trkpt><trkpt lat="45.3235161366204" lon="13.654922996876053"><ele>160.0</ele><time>2026-05-02T17:12:03Z</time></trkpt><trkpt lat="45.32343644833487" lon="13.654449162240205"><ele>156.5</ele><time>2026-05-02T17:12:04Z</time></trkpt><trkpt lat="45.323361328446936" lon="13.653974581885796"><ele>153.0</ele><time>2026-05-02T17:12:05Z</time></trkpt><trkpt lat="45.32329103893823" lon="13.653499722373068"><ele>150.5</ele><time>2026-05-02T17:12:06Z</time></trkpt><trkpt lat="45.32322728737235" lon="13.653023817606071"><ele>148.0</ele><time>2026-05-02T17:12:07Z</time></trkpt><trkpt lat="45.32317319954961" lon="13.652546319140221"><ele>145.0</ele><time>2026-05-02T17:12:08Z</time></trkpt><trkpt lat="45.32313310951074" lon="13.652064370054362"><ele>142.0</ele><time>2026-05-02T17:12:09Z</time></trkpt><trkpt lat="45.32310875299417" lon="13.651580036695842"><ele>134.5</ele><time>2026-05-02T17:12:10Z</time></trkpt><trkpt lat="45.32309918319758" lon="13.651096557395057"><ele>127.0</ele><time>2026-05-02T17:12:11Z</time></trkpt><trkpt lat="45.32310345178173" lon="13.650613864286337"><ele>125.5</ele><time>2026-05-02T17:12:12Z</time></trkpt><trkpt lat="45.32311931196953" lon="13.650130233771904"><ele>124.0</ele><time>2026-05-02T17:12:13Z</time></trkpt><trkpt lat="45.323148175917886" lon="13.649648138821988"><ele>123.0</ele><time>2026-05-02T17:12:14Z</time></trkpt><trkpt lat="45.32318726803545" lon="13.649166362877619"><ele>122.0</ele><time>2026-05-02T17:12:15Z</time></trkpt><trkpt lat="45.32323707083318" lon="13.648686894543749"><ele>122.0</ele><time>2026-05-02T17:12:16Z</time></trkpt><trkpt lat="45.323292475433504" lon="13.64821019465724"><ele>122.0</ele><time>2026-05-02T17:12:17Z</time></trkpt><trkpt lat="45.32335341859593" lon="13.647734182968678"><ele>121.0</ele><time>2026-05-02T17:12:18Z</time></trkpt><trkpt lat="45.323414834687725" lon="13.647257785927751"><ele>120.0</ele><time>2026-05-02T17:12:19Z</time></trkpt><trkpt lat="45.3234668671355" lon="13.646777699414091"><ele>120.0</ele><time>2026-05-02T17:12:20Z</time></trkpt><trkpt lat="45.32350865459016" lon="13.646297198819918"><ele>120.0</ele><time>2026-05-02T17:12:21Z</time></trkpt><trkpt lat="45.32354059471705" lon="13.645816091898547"><ele>121.0</ele><time>2026-05-02T17:12:22Z</time></trkpt><trkpt lat="45.32356038190455" lon="13.645331277050243"><ele>122.0</ele><time>2026-05-02T17:12:23Z</time></trkpt><trkpt lat="45.32356677004538" lon="13.644848394402405"><ele>122.5</ele><time>2026-05-02T17:12:24Z</time></trkpt><trkpt lat="45.32356001401242" lon="13.644364749642312"><ele>123.0</ele><time>2026-05-02T17:12:25Z</time></trkpt><trkpt lat="45.32353893275404" lon="13.643882270545014"><ele>121.5</ele><time>2026-05-02T17:12:26Z</time></trkpt><trkpt lat="45.323505832081395" lon="13.643403314240347"><ele>120.0</ele><time>2026-05-02T17:12:27Z</time></trkpt><trkpt lat="45.32346110846058" lon="13.642937109610234"><ele>117.5</ele><time>2026-05-02T17:12:28Z</time></trkpt><trkpt lat="45.32340807000583" lon="13.64248265138629"><ele>115.0</ele><time>2026-05-02T17:12:29Z</time></trkpt><trkpt lat="45.3233474493727" lon="13.642044419558543"><ele>112.5</ele><time>2026-05-02T17:12:30Z</time></trkpt><trkpt lat="45.32328083911537" lon="13.641628242248323"><ele>110.0</ele><time>2026-05-02T17:12:31Z</time></trkpt><trkpt lat="45.32321126256237" lon="13.641226881999616"><ele>105.5</ele><time>2026-05-02T17:12:32Z</time></trkpt><trkpt lat="45.323142522911006" lon="13.6408399301974"><ele>101.0</ele><time>2026-05-02T17:12:33Z</time></trkpt><trkpt lat="45.32307506210884" lon="13.640465281851574"><ele>104.0</ele><time>2026-05-02T17:12:34Z</time></trkpt><trkpt lat="45.32300945872617" lon="13.640097451540381"><ele>107.0</ele><time>2026-05-02T17:12:35Z</time></trkpt><trkpt lat="45.32294832005088" lon="13.639738059442669"><ele>104.5</ele><time>2026-05-02T17:12:36Z</time></trkpt><trkpt lat="45.32289416765955" lon="13.639385322258697"><ele>102.0</ele><time>2026-05-02T17:12:37Z</time></trkpt><trkpt lat="45.322847431653614" lon="13.6390392981494"><ele>102.0</ele><time>2026-05-02T17:12:38Z</time></trkpt><trkpt lat="45.32280816988987" lon="13.638696792100344"><ele>102.0</ele><time>2026-05-02T17:12:39Z</time></trkpt><trkpt lat="45.32277695348395" lon="13.638349769133326"><ele>98.5</ele><time>2026-05-02T17:12:40Z</time></trkpt><trkpt lat="45.32275905737605" lon="13.638001956108763"><ele>95.0</ele><time>2026-05-02T17:12:41Z</time></trkpt><trkpt lat="45.322748689730865" lon="13.637651637825897"><ele>92.5</ele><time>2026-05-02T17:12:42Z</time></trkpt><trkpt lat="45.32274426007981" lon="13.637301296590975"><ele>90.0</ele><time>2026-05-02T17:12:43Z</time></trkpt><trkpt lat="45.322747678919626" lon="13.636957060359398"><ele>89.0</ele><time>2026-05-02T17:12:44Z</time></trkpt><trkpt lat="45.32275944829475" lon="13.636623292890432"><ele>88.0</ele><time>2026-05-02T17:12:45Z</time></trkpt><trkpt lat="45.322779805815664" lon="13.636308245802452"><ele>87.0</ele><time>2026-05-02T17:12:46Z</time></trkpt><trkpt lat="45.322806327870104" lon="13.636006478288913"><ele>86.0</ele><time>2026-05-02T17:12:47Z</time></trkpt><trkpt lat="45.32284095058322" lon="13.635712032860994"><ele>85.0</ele><time>2026-05-02T17:12:48Z</time></trkpt><trkpt lat="45.32288180327693" lon="13.63542271835574"><ele>85.0</ele><time>2026-05-02T17:12:49Z</time></trkpt><trkpt lat="45.32292832967553" lon="13.635146980912465"><ele>85.0</ele><time>2026-05-02T17:12:50Z</time></trkpt><trkpt lat="45.322976851414566" lon="13.634877643559808"><ele>85.0</ele><time>2026-05-02T17:12:51Z</time></trkpt><trkpt lat="45.32302784307364" lon="13.63462009914488"><ele>80.33333333333333</ele><time>2026-05-02T17:12:52Z</time></trkpt><trkpt lat="45.32308164557782" lon="13.634373470800325"><ele>75.66666666666667</ele><time>2026-05-02T17:12:53Z</time></trkpt><trkpt lat="45.32313771797377" lon="13.6341378490472"><ele>71.0</ele><time>2026-05-02T17:12:54Z</time></trkpt><trkpt lat="45.32319670405038" lon="13.633912494820606"><ele>71.0</ele><time>2026-05-02T17:12:55Z</time></trkpt><trkpt lat="45.32325607822243" lon="13.63369069268384"><ele>71.0</ele><time>2026-05-02T17:12:56Z</time></trkpt><trkpt lat="45.323314365779915" lon="13.633472282143178"><ele>71.0</ele><time>2026-05-02T17:12:57Z</time></trkpt><trkpt lat="45.32337268120869" lon="13.633258091206574"><ele>73.33333333333334</ele><time>2026-05-02T17:12:58Z</time></trkpt><trkpt lat="45.32343473790277" lon="13.633049133175259"><ele>75.66666666666667</ele><time>2026-05-02T17:12:59Z</time></trkpt><trkpt lat="45.323506810957234" lon="13.632849519773021"><ele>78.0</ele><time>2026-05-02T17:13:00Z</time></trkpt><trkpt lat="45.323583252494046" lon="13.632656036805727"><ele>79.66666666666667</ele><time>2026-05-02T17:13:01Z</time></trkpt><trkpt lat="45.32366234793735" lon="13.632466369797704"><ele>81.33333333333334</ele><time>2026-05-02T17:13:02Z</time></trkpt><trkpt lat="45.32374189112743" lon="13.63227855099246"><ele>83.0</ele><time>2026-05-02T17:13:03Z</time></trkpt><trkpt lat="45.323821470427475" lon="13.632097430919437"><ele>80.5</ele><time>2026-05-02T17:13:04Z</time></trkpt><trkpt lat="45.3239029106003" lon="13.631916821198953"><ele>78.0</ele><time>2026-05-02T17:13:05Z</time></trkpt><trkpt lat="45.32398366540863" lon="13.631739418625509"><ele>75.5</ele><time>2026-05-02T17:13:06Z</time></trkpt><trkpt lat="45.32406188841084" lon="13.631559345445652"><ele>73.0</ele><time>2026-05-02T17:13:07Z</time></trkpt><trkpt lat="45.324141510539256" lon="13.63138374790288"><ele>73.0</ele><time>2026-05-02T17:13:08Z</time></trkpt><trkpt lat="45.3242231549244" lon="13.631212514743991"><ele>73.0</ele><time>2026-05-02T17:13:09Z</time></trkpt><trkpt lat="45.32430784617737" lon="13.63104836540516"><ele>73.0</ele><time>2026-05-02T17:13:10Z</time></trkpt><trkpt lat="45.32440582325788" lon="13.630895269332662"><ele>73.0</ele><time>2026-05-02T17:13:11Z</time></trkpt><trkpt lat="45.32451003052842" lon="13.630738467689945"><ele>73.0</ele><time>2026-05-02T17:13:12Z</time></trkpt><trkpt lat="45.32461499779065" lon="13.630586044699436"><ele>73.0</ele><time>2026-05-02T17:13:13Z</time></trkpt><trkpt lat="45.32472287530463" lon="13.630436936595304"><ele>73.0</ele><time>2026-05-02T17:13:14Z</time></trkpt><trkpt lat="45.32483051772759" lon="13.630289478085464"><ele>73.0</ele><time>2026-05-02T17:13:15Z</time></trkpt><trkpt lat="45.32494063987746" lon="13.630148384256112"><ele>73.0</ele><time>2026-05-02T17:13:16Z</time></trkpt><trkpt lat="45.32505400058754" lon="13.630004730691264"><ele>73.0</ele><time>2026-05-02T17:13:17Z</time></trkpt><trkpt lat="45.32517364842277" lon="13.629864971199156"><ele>73.0</ele><time>2026-05-02T17:13:18Z</time></trkpt><trkpt lat="45.32529890560175" lon="13.629725128176606"><ele>73.0</ele><time>2026-05-02T17:13:19Z</time></trkpt><trkpt lat="45.32542982573437" lon="13.62958111538602"><ele>73.0</ele><time>2026-05-02T17:13:20Z</time></trkpt><trkpt lat="45.32556889203848" lon="13.629440915719899"><ele>70.33333333333333</ele><time>2026-05-02T17:13:21Z</time></trkpt><trkpt lat="45.32571217961107" lon="13.629296561803315"><ele>67.66666666666667</ele><time>2026-05-02T17:13:22Z</time></trkpt><trkpt lat="45.325862139850805" lon="13.629153234962025"><ele>65.0</ele><time>2026-05-02T17:13:23Z</time></trkpt><trkpt lat="45.32601605061374" lon="13.629014006750335"><ele>65.0</ele><time>2026-05-02T17:13:24Z</time></trkpt><trkpt lat="45.32618482671754" lon="13.62890632252646"><ele>65.0</ele><time>2026-05-02T17:13:25Z</time></trkpt><trkpt lat="45.32634819376716" lon="13.628784221834538"><ele>65.0</ele><time>2026-05-02T17:13:26Z</time></trkpt><trkpt lat="45.32651581737612" lon="13.628661370513967"><ele>63.0</ele><time>2026-05-02T17:13:27Z</time></trkpt><trkpt lat="45.3266891077955" lon="13.628541462118275"><ele>61.0</ele><time>2026-05-02T17:13:28Z</time></trkpt><trkpt lat="45.326869133078844" lon="13.628422731314966"><ele>59.0</ele><time>2026-05-02T17:13:29Z</time></trkpt><trkpt lat="45.3270538586722" lon="13.628302618208494"><ele>47.66666666666667</ele><time>2026-05-02T17:13:30Z</time></trkpt><trkpt lat="45.32724425673644" lon="13.628186014405745"><ele>36.333333333333336</ele><time>2026-05-02T17:13:31Z</time></trkpt><trkpt lat="45.32743731156672" lon="13.62807030168418"><ele>25.0</ele><time>2026-05-02T17:13:32Z</time></trkpt><trkpt lat="45.32763551981134" lon="13.627950379826514"><ele>25.0</ele><time>2026-05-02T17:13:33Z</time></trkpt><trkpt lat="45.32783793651102" lon="13.62782614502931"><ele>25.0</ele><time>2026-05-02T17:13:34Z</time></trkpt><trkpt lat="45.328043238900264" lon="13.627706994627502"><ele>25.0</ele><time>2026-05-02T17:13:35Z</time></trkpt><trkpt lat="45.328250328023195" lon="13.6275877659179"><ele>11.5</ele><time>2026-05-02T17:13:36Z</time></trkpt><trkpt lat="45.328459753277805" lon="13.627469809320136"><ele>-2.0</ele><time>2026-05-02T17:13:37Z</time></trkpt><trkpt lat="45.32867044619949" lon="13.627351138683512"><ele>-2.0</ele><time>2026-05-02T17:13:38Z</time></trkpt><trkpt lat="45.32888202197296" lon="13.627237572885825"><ele>-2.0</ele><time>2026-05-02T17:13:39Z</time></trkpt><trkpt lat="45.32909398079654" lon="13.627124502932746"><ele>-2.0</ele><time>2026-05-02T17:13:40Z</time></trkpt><trkpt lat="45.32930737097016" lon="13.62701123174508"><ele>-2.0</ele><time>2026-05-02T17:13:41Z</time></trkpt><trkpt lat="45.329522913949546" lon="13.626899966558105"><ele>-2.5</ele><time>2026-05-02T17:13:42Z</time></trkpt><trkpt lat="45.329741980916914" lon="13.626789508609404"><ele>-3.0</ele><time>2026-05-02T17:13:43Z</time></trkpt><trkpt lat="45.32996440185773" lon="13.626679961863129"><ele>-3.0</ele><time>2026-05-02T17:13:44Z</time></trkpt><trkpt lat="45.330190164964755" lon="13.626571383562228"><ele>-3.0</ele><time>2026-05-02T17:13:45Z</time></trkpt><trkpt lat="45.330416351292385" lon="13.62646456629441"><ele>-3.5</ele><time>2026-05-02T17:13:46Z</time></trkpt><trkpt lat="45.330641580548516" lon="13.626361006582469"><ele>-4.0</ele><time>2026-05-02T17:13:47Z</time></trkpt><trkpt lat="45.33086616136438" lon="13.626258291832109"><ele>-4.0</ele><time>2026-05-02T17:13:48Z</time></trkpt><trkpt lat="45.33108807021071" lon="13.626160967992966"><ele>-4.0</ele><time>2026-05-02T17:13:49Z</time></trkpt><trkpt lat="45.33131066507962" lon="13.626065846448912"><ele>-4.0</ele><time>2026-05-02T17:13:50Z</time></trkpt><trkpt lat="45.3315298864849" lon="13.62594837100188"><ele>-4.0</ele><time>2026-05-02T17:13:51Z</time></trkpt><trkpt lat="45.331755675423274" lon="13.62585740118222"><ele>-4.0</ele><time>2026-05-02T17:13:52Z</time></trkpt><trkpt lat="45.331981657097685" lon="13.625765928260764"><ele>-4.0</ele><time>2026-05-02T17:13:53Z</time></trkpt><trkpt lat="45.332207061561654" lon="13.625677543697295"><ele>-3.5</ele><time>2026-05-02T17:13:54Z</time></trkpt><trkpt lat="45.332430311821945" lon="13.625593117604573"><ele>-3.0</ele><time>2026-05-02T17:13:55Z</time></trkpt><trkpt lat="45.332652205923814" lon="13.625512218283404"><ele>-3.0</ele><time>2026-05-02T17:13:56Z</time></trkpt><trkpt lat="45.33287247901795" lon="13.625435026547194"><ele>-3.0</ele><time>2026-05-02T17:13:57Z</time></trkpt><trkpt lat="45.333088101304575" lon="13.625361790230977"><ele>-3.0</ele><time>2026-05-02T17:13:58Z</time></trkpt><trkpt lat="45.33330170842066" lon="13.625287439220577"><ele>-3.0</ele><time>2026-05-02T17:13:59Z</time></trkpt><trkpt lat="45.33351540072656" lon="13.62521587315439"><ele>-3.0</ele><time>2026-05-02T17:14:00Z</time></trkpt><trkpt lat="45.33372710400093" lon="13.625150556310468"><ele>-3.0</ele><time>2026-05-02T17:14:01Z</time></trkpt><trkpt lat="45.333937440562536" lon="13.625085020782207"><ele>-3.0</ele><time>2026-05-02T17:14:02Z</time></trkpt><trkpt lat="45.334138720440336" lon="13.625022802331323"><ele>-3.0</ele><time>2026-05-02T17:14:03Z</time></trkpt><trkpt lat="45.33433307355995" lon="13.624964883260265"><ele>-3.0</ele><time>2026-05-02T17:14:04Z</time></trkpt><trkpt lat="45.3345183047123" lon="13.624912047093051"><ele>-3.0</ele><time>2026-05-02T17:14:05Z</time></trkpt><trkpt lat="45.334697488045066" lon="13.624861952926596"><ele>-3.0</ele><time>2026-05-02T17:14:06Z</time></trkpt><trkpt lat="45.33486979818158" lon="13.624815234201128"><ele>-3.0</ele><time>2026-05-02T17:14:07Z</time></trkpt><trkpt lat="45.33503728358824" lon="13.624773296840134"><ele>-3.0</ele><time>2026-05-02T17:14:08Z</time></trkpt><trkpt lat="45.33520064569405" lon="13.624732932480931"><ele>-3.0</ele><time>2026-05-02T17:14:09Z</time></trkpt><trkpt lat="45.335363558633226" lon="13.624692470087156"><ele>-3.0</ele><time>2026-05-02T17:14:10Z</time></trkpt><trkpt lat="45.33552363927885" lon="13.624652307449198"><ele>-3.666666666666667</ele><time>2026-05-02T17:14:11Z</time></trkpt><trkpt lat="45.33568267029647" lon="13.624612619045601"><ele>-4.333333333333334</ele><time>2026-05-02T17:14:12Z</time></trkpt><trkpt lat="45.33584114842245" lon="13.624571994795343"><ele>-5.0</ele><time>2026-05-02T17:14:13Z</time></trkpt><trkpt lat="45.33600003641562" lon="13.624535064601796"><ele>-5.0</ele><time>2026-05-02T17:14:14Z</time></trkpt><trkpt lat="45.336160166841225" lon="13.6244974298177"><ele>-5.0</ele><time>2026-05-02T17:14:15Z</time></trkpt><trkpt lat="45.33632362774568" lon="13.624461917498035"><ele>-5.0</ele><time>2026-05-02T17:14:16Z</time></trkpt><trkpt lat="45.33648828731183" lon="13.624426948832497"><ele>-4.0</ele><time>2026-05-02T17:14:17Z</time></trkpt><trkpt lat="45.33665586291383" lon="13.624390629949025"><ele>-3.0</ele><time>2026-05-02T17:14:18Z</time></trkpt><trkpt lat="45.336825140828374" lon="13.624355141557826"><ele>-2.0</ele><time>2026-05-02T17:14:19Z</time></trkpt><trkpt lat="45.33699490600679" lon="13.624321458644644"><ele>-2.0</ele><time>2026-05-02T17:14:20Z</time></trkpt><trkpt lat="45.33716676799633" lon="13.624292138617966"><ele>-2.0</ele><time>2026-05-02T17:14:21Z</time></trkpt><trkpt lat="45.337340127160594" lon="13.624260529602507"><ele>-2.0</ele><time>2026-05-02T17:14:22Z</time></trkpt><trkpt lat="45.33751381277225" lon="13.624231314796154"><ele>-1.6666666666666665</ele><time>2026-05-02T17:14:23Z</time></trkpt><trkpt lat="45.33768822585966" lon="13.624206751508368"><ele>-1.3333333333333333</ele><time>2026-05-02T17:14:24Z</time></trkpt><trkpt lat="45.33785789696997" lon="13.624181833028802"><ele>-1.0</ele><time>2026-05-02T17:14:25Z</time></trkpt><trkpt lat="45.338023543822544" lon="13.624155885191302"><ele>5.0</ele><time>2026-05-02T17:14:26Z</time></trkpt><trkpt lat="45.33818715754429" lon="13.624133639099595"><ele>11.0</ele><time>2026-05-02T17:14:27Z</time></trkpt><trkpt lat="45.338349856728165" lon="13.624114496094412"><ele>17.0</ele><time>2026-05-02T17:14:28Z</time></trkpt><trkpt lat="45.33851141988488" lon="13.624094485714828"><ele>17.0</ele><time>2026-05-02T17:14:29Z</time></trkpt><trkpt lat="45.33866961570647" lon="13.624075106710675"><ele>17.0</ele><time>2026-05-02T17:14:30Z</time></trkpt><trkpt lat="45.338823352984626" lon="13.624055929174897"><ele>17.0</ele><time>2026-05-02T17:14:31Z</time></trkpt><trkpt lat="45.33897132174962" lon="13.624040906192473"><ele>22.0</ele><time>2026-05-02T17:14:32Z</time></trkpt><trkpt lat="45.339116271087235" lon="13.624025097607104"><ele>27.0</ele><time>2026-05-02T17:14:33Z</time></trkpt><trkpt lat="45.339262162838736" lon="13.624011990695815"><ele>32.0</ele><time>2026-05-02T17:14:34Z</time></trkpt><trkpt lat="45.3394053772792" lon="13.624000689216409"><ele>37.0</ele><time>2026-05-02T17:14:35Z</time></trkpt><trkpt lat="45.33954166082073" lon="13.623989819989566"><ele>37.0</ele><time>2026-05-02T17:14:36Z</time></trkpt><trkpt lat="45.33967941700207" lon="13.623978611271346"><ele>37.0</ele><time>2026-05-02T17:14:37Z</time></trkpt><trkpt lat="45.3398202290168" lon="13.623965512418016"><ele>37.0</ele><time>2026-05-02T17:14:38Z</time></trkpt><trkpt lat="45.33996349937763" lon="13.623949364275875"><ele>37.0</ele><time>2026-05-02T17:14:39Z</time></trkpt><trkpt lat="45.340111530677184" lon="13.623937380802769"><ele>40.0</ele><time>2026-05-02T17:14:40Z</time></trkpt><trkpt lat="45.34026196041327" lon="13.623924720664567"><ele>43.0</ele><time>2026-05-02T17:14:41Z</time></trkpt><trkpt lat="45.34041286672161" lon="13.62391062562374"><ele>46.0</ele><time>2026-05-02T17:14:42Z</time></trkpt><trkpt lat="45.340565708751505" lon="13.623895198834967"><ele>46.0</ele><time>2026-05-02T17:14:43Z</time></trkpt><trkpt lat="45.34071815287131" lon="13.62388016757084"><ele>46.0</ele><time>2026-05-02T17:14:44Z</time></trkpt><trkpt lat="45.34087274481185" lon="13.623867005192345"><ele>46.0</ele><time>2026-05-02T17:14:45Z</time></trkpt><trkpt lat="45.34101773858999" lon="13.623852973123187"><ele>46.0</ele><time>2026-05-02T17:14:46Z</time></trkpt><trkpt lat="45.34116064480165" lon="13.62383740007491"><ele>46.0</ele><time>2026-05-02T17:14:47Z</time></trkpt><trkpt lat="45.341306169634564" lon="13.62381764770627"><ele>46.0</ele><time>2026-05-02T17:14:48Z</time></trkpt><trkpt lat="45.341448744697146" lon="13.623795338585657"><ele>46.0</ele><time>2026-05-02T17:14:49Z</time></trkpt><trkpt lat="45.34159813454665" lon="13.623769337321045"><ele>44.5</ele><time>2026-05-02T17:14:50Z</time></trkpt><trkpt lat="45.3417448796702" lon="13.623746990965769"><ele>43.0</ele><time>2026-05-02T17:14:51Z</time></trkpt><trkpt lat="45.34189574231351" lon="13.62372557653378"><ele>41.5</ele><time>2026-05-02T17:14:52Z</time></trkpt><trkpt lat="45.342043445237174" lon="13.623704052986524"><ele>40.0</ele><time>2026-05-02T17:14:53Z</time></trkpt><trkpt lat="45.342198343422595" lon="13.623676530902877"><ele>39.333333333333336</ele><time>2026-05-02T17:14:54Z</time></trkpt><trkpt lat="45.34235602485895" lon="13.623649402049383"><ele>38.666666666666664</ele><time>2026-05-02T17:14:55Z</time></trkpt><trkpt lat="45.34251313910184" lon="13.623624193295276"><ele>38.0</ele><time>2026-05-02T17:14:56Z</time></trkpt><trkpt lat="45.34267438990992" lon="13.623606618669326"><ele>46.0</ele><time>2026-05-02T17:14:57Z</time></trkpt><trkpt lat="45.34283921262067" lon="13.623598382056663"><ele>54.0</ele><time>2026-05-02T17:14:58Z</time></trkpt><trkpt lat="45.343001473042406" lon="13.623583992144036"><ele>62.0</ele><time>2026-05-02T17:14:59Z</time></trkpt><trkpt lat="45.34316173195925" lon="13.623549752194641"><ele>62.66666666666667</ele><time>2026-05-02T17:15:00Z</time></trkpt><trkpt lat="45.343318972436315" lon="13.62350375712871"><ele>63.33333333333333</ele><time>2026-05-02T17:15:01Z</time></trkpt><trkpt lat="45.343480377011446" lon="13.62345217774062"><ele>64.0</ele><time>2026-05-02T17:15:02Z</time></trkpt><trkpt lat="45.343643093888815" lon="13.623400581881825"><ele>64.0</ele><time>2026-05-02T17:15:03Z</time></trkpt><trkpt lat="45.343806916663596" lon="13.623348998422589"><ele>64.0</ele><time>2026-05-02T17:15:04Z</time></trkpt><trkpt lat="45.343967974501005" lon="13.623293920159805"><ele>64.0</ele><time>2026-05-02T17:15:05Z</time></trkpt><trkpt lat="45.3441282699097" lon="13.623241979409924"><ele>63.666666666666664</ele><time>2026-05-02T17:15:06Z</time></trkpt><trkpt lat="45.34428862302874" lon="13.623185806398196"><ele>63.33333333333333</ele><time>2026-05-02T17:15:07Z</time></trkpt><trkpt lat="45.34445103535021" lon="13.623124468489317"><ele>63.0</ele><time>2026-05-02T17:15:08Z</time></trkpt><trkpt lat="45.344615930282146" lon="13.623060598785534"><ele>60.66666666666667</ele><time>2026-05-02T17:15:09Z</time></trkpt><trkpt lat="45.344783530327874" lon="13.622994946450802"><ele>58.333333333333336</ele><time>2026-05-02T17:15:10Z</time></trkpt><trkpt lat="45.3449667896259" lon="13.622926345347937"><ele>56.0</ele><time>2026-05-02T17:15:11Z</time></trkpt><trkpt lat="45.345150137357386" lon="13.622851367504646"><ele>59.333333333333336</ele><time>2026-05-02T17:15:12Z</time></trkpt><trkpt lat="45.34533868521147" lon="13.622771541559969"><ele>62.66666666666667</ele><time>2026-05-02T17:15:13Z</time></trkpt><trkpt lat="45.345533998113325" lon="13.622685900866639"><ele>66.0</ele><time>2026-05-02T17:15:14Z</time></trkpt><trkpt lat="45.34573622178674" lon="13.622592488949895"><ele>66.0</ele><time>2026-05-02T17:15:15Z</time></trkpt><trkpt lat="45.34594029951558" lon="13.622496639467661"><ele>66.0</ele><time>2026-05-02T17:15:16Z</time></trkpt><trkpt lat="45.346148793465694" lon="13.622390828287296"><ele>66.0</ele><time>2026-05-02T17:15:17Z</time></trkpt><trkpt lat="45.34636371027243" lon="13.622278732287844"><ele>66.5</ele><time>2026-05-02T17:15:18Z</time></trkpt><trkpt lat="45.34658270668462" lon="13.622160864356745"><ele>67.0</ele><time>2026-05-02T17:15:19Z</time></trkpt><trkpt lat="45.346805562787694" lon="13.622036132675648"><ele>70.0</ele><time>2026-05-02T17:15:20Z</time></trkpt><trkpt lat="45.34703294040175" lon="13.621904302068836"><ele>73.0</ele><time>2026-05-02T17:15:21Z</time></trkpt><trkpt lat="45.34726243713156" lon="13.621770716436487"><ele>73.0</ele><time>2026-05-02T17:15:22Z</time></trkpt><trkpt lat="45.34749369315426" lon="13.621629768829584"><ele>73.0</ele><time>2026-05-02T17:15:23Z</time></trkpt><trkpt lat="45.347727384577034" lon="13.62147600739753"><ele>73.0</ele><time>2026-05-02T17:15:24Z</time></trkpt><trkpt lat="45.347961243555844" lon="13.621319991007226"><ele>73.0</ele><time>2026-05-02T17:15:25Z</time></trkpt><trkpt lat="45.34819571175212" lon="13.621150016843862"><ele>75.5</ele><time>2026-05-02T17:15:26Z</time></trkpt><trkpt lat="45.34842790917851" lon="13.620970390210069"><ele>78.0</ele><time>2026-05-02T17:15:27Z</time></trkpt><trkpt lat="45.3486618779342" lon="13.620781341287168"><ele>76.0</ele><time>2026-05-02T17:15:28Z</time></trkpt><trkpt lat="45.348892454682286" lon="13.620582881125737"><ele>74.0</ele><time>2026-05-02T17:15:29Z</time></trkpt><trkpt lat="45.349118736457974" lon="13.62037380174879"><ele>76.5</ele><time>2026-05-02T17:15:30Z</time></trkpt><trkpt lat="45.349339931122934" lon="13.620147568576416"><ele>79.0</ele><time>2026-05-02T17:15:31Z</time></trkpt><trkpt lat="45.34956392778368" lon="13.619931320945946"><ele>81.0</ele><time>2026-05-02T17:15:32Z</time></trkpt><trkpt lat="45.3497938126968" lon="13.619722350166375"><ele>83.0</ele><time>2026-05-02T17:15:33Z</time></trkpt><trkpt lat="45.350021514666054" lon="13.61951139734826"><ele>82.5</ele><time>2026-05-02T17:15:34Z</time></trkpt><trkpt lat="45.35024562406629" lon="13.619289493956888"><ele>82.0</ele><time>2026-05-02T17:15:35Z</time></trkpt><trkpt lat="45.350473773739076" lon="13.619073925984008"><ele>85.0</ele><time>2026-05-02T17:15:36Z</time></trkpt><trkpt lat="45.3507081811951" lon="13.618865409812853"><ele>88.0</ele><time>2026-05-02T17:15:37Z</time></trkpt><trkpt lat="45.350950717593065" lon="13.618665462024422"><ele>87.0</ele><time>2026-05-02T17:15:38Z</time></trkpt><trkpt lat="45.35120165081173" lon="13.618480803518871"><ele>86.0</ele><time>2026-05-02T17:15:39Z</time></trkpt><trkpt lat="45.3514607387551" lon="13.618309961499236"><ele>88.0</ele><time>2026-05-02T17:15:40Z</time></trkpt><trkpt lat="45.35172707779193" lon="13.61815503725448"><ele>90.0</ele><time>2026-05-02T17:15:41Z</time></trkpt><trkpt lat="45.35200033450263" lon="13.618018957516991"><ele>91.0</ele><time>2026-05-02T17:15:42Z</time></trkpt><trkpt lat="45.352278903551586" lon="13.617902423123393"><ele>92.0</ele><time>2026-05-02T17:15:43Z</time></trkpt><trkpt lat="45.352562404624024" lon="13.617807031439764"><ele>92.0</ele><time>2026-05-02T17:15:44Z</time></trkpt><trkpt lat="45.352843245634865" lon="13.617739023283205"><ele>92.0</ele><time>2026-05-02T17:15:45Z</time></trkpt><trkpt lat="45.35312435602069" lon="13.617703776551"><ele>91.5</ele><time>2026-05-02T17:15:46Z</time></trkpt><trkpt lat="45.353406705099715" lon="13.617696348596107"><ele>91.0</ele><time>2026-05-02T17:15:47Z</time></trkpt><trkpt lat="45.3536891237352" lon="13.617714901813214"><ele>92.0</ele><time>2026-05-02T17:15:48Z</time></trkpt><trkpt lat="45.35397405381389" lon="13.617759420451419"><ele>93.0</ele><time>2026-05-02T17:15:49Z</time></trkpt><trkpt lat="45.35425995164399" lon="13.617826661271335"><ele>93.5</ele><time>2026-05-02T17:15:50Z</time></trkpt><trkpt lat="45.35454559418783" lon="13.617914157205611"><ele>94.0</ele><time>2026-05-02T17:15:51Z</time></trkpt><trkpt lat="45.354829168265525" lon="13.618031959642334"><ele>94.0</ele><time>2026-05-02T17:15:52Z</time></trkpt><trkpt lat="45.35511035902033" lon="13.618174281416849"><ele>94.0</ele><time>2026-05-02T17:15:53Z</time></trkpt><trkpt lat="45.35537858938067" lon="13.618342028577656"><ele>94.0</ele><time>2026-05-02T17:15:54Z</time></trkpt><trkpt lat="45.35563876168158" lon="13.618530319020797"><ele>94.0</ele><time>2026-05-02T17:15:55Z</time></trkpt><trkpt lat="45.35589364741737" lon="13.618742151629046"><ele>95.5</ele><time>2026-05-02T17:15:56Z</time></trkpt><trkpt lat="45.356144918443455" lon="13.618968936652992"><ele>97.0</ele><time>2026-05-02T17:15:57Z</time></trkpt><trkpt lat="45.356392203455776" lon="13.619195982246907"><ele>97.5</ele><time>2026-05-02T17:15:58Z</time></trkpt><trkpt lat="45.35664430507576" lon="13.619417435626612"><ele>98.0</ele><time>2026-05-02T17:15:59Z</time></trkpt><trkpt lat="45.35689654003211" lon="13.619628938722453"><ele>98.0</ele><time>2026-05-02T17:16:00Z</time></trkpt><trkpt lat="45.35715383285332" lon="13.61982586049101"><ele>98.0</ele><time>2026-05-02T17:16:01Z</time></trkpt><trkpt lat="45.35742069014947" lon="13.620006917100339"><ele>98.0</ele><time>2026-05-02T17:16:02Z</time></trkpt><trkpt lat="45.357697714332865" lon="13.62016502792661"><ele>98.0</ele><time>2026-05-02T17:16:03Z</time></trkpt><trkpt lat="45.357982949230376" lon="13.620299512787927"><ele>98.0</ele><time>2026-05-02T17:16:04Z</time></trkpt><trkpt lat="45.35827293541411" lon="13.620405700053084"><ele>98.0</ele><time>2026-05-02T17:16:05Z</time></trkpt><trkpt lat="45.358563533073166" lon="13.6204910262753"><ele>98.0</ele><time>2026-05-02T17:16:06Z</time></trkpt><trkpt lat="45.35885447904192" lon="13.620572891844946"><ele>98.0</ele><time>2026-05-02T17:16:07Z</time></trkpt><trkpt lat="45.35914590222059" lon="13.620648696716176"><ele>97.5</ele><time>2026-05-02T17:16:08Z</time></trkpt><trkpt lat="45.359438517625804" lon="13.62072355010874"><ele>97.0</ele><time>2026-05-02T17:16:09Z</time></trkpt><trkpt lat="45.35973291598889" lon="13.620804585705393"><ele>95.5</ele><time>2026-05-02T17:16:10Z</time></trkpt><trkpt lat="45.36002677645002" lon="13.620897784607203"><ele>94.0</ele><time>2026-05-02T17:16:11Z</time></trkpt><trkpt lat="45.36032291789606" lon="13.621002775406513"><ele>95.0</ele><time>2026-05-02T17:16:12Z</time></trkpt><trkpt lat="45.3606154746581" lon="13.621121433715068"><ele>96.0</ele><time>2026-05-02T17:16:13Z</time></trkpt><trkpt lat="45.36090839367639" lon="13.621254799931922"><ele>96.0</ele><time>2026-05-02T17:16:14Z</time></trkpt><trkpt lat="45.36120001153607" lon="13.621403524607466"><ele>96.0</ele><time>2026-05-02T17:16:15Z</time></trkpt><trkpt lat="45.36148787948433" lon="13.621570429926857"><ele>97.5</ele><time>2026-05-02T17:16:16Z</time></trkpt><trkpt lat="45.36177041525482" lon="13.621753670943914"><ele>99.0</ele><time>2026-05-02T17:16:17Z</time></trkpt><trkpt lat="45.36205168203906" lon="13.621947552931648"><ele>101.0</ele><time>2026-05-02T17:16:18Z</time></trkpt><trkpt lat="45.362332823561694" lon="13.622145100196706"><ele>103.0</ele><time>2026-05-02T17:16:19Z</time></trkpt><trkpt lat="45.36261637290248" lon="13.622344070270257"><ele>103.0</ele><time>2026-05-02T17:16:20Z</time></trkpt><trkpt lat="45.36290129010057" lon="13.622544582209466"><ele>103.0</ele><time>2026-05-02T17:16:21Z</time></trkpt><trkpt lat="45.36318834729568" lon="13.622742974550814"><ele>105.5</ele><time>2026-05-02T17:16:22Z</time></trkpt><trkpt lat="45.36347962049329" lon="13.622939108791227"><ele>108.0</ele><time>2026-05-02T17:16:23Z</time></trkpt><trkpt lat="45.363773013522085" lon="13.623129870040202"><ele>109.0</ele><time>2026-05-02T17:16:24Z</time></trkpt><trkpt lat="45.364064866644654" lon="13.623315296320046"><ele>110.0</ele><time>2026-05-02T17:16:25Z</time></trkpt><trkpt lat="45.364356761384414" lon="13.623489813558773"><ele>110.5</ele><time>2026-05-02T17:16:26Z</time></trkpt><trkpt lat="45.364650363430435" lon="13.623652878464029"><ele>111.0</ele><time>2026-05-02T17:16:27Z</time></trkpt><trkpt lat="45.364948855486034" lon="13.62380762942121"><ele>112.0</ele><time>2026-05-02T17:16:28Z</time></trkpt><trkpt lat="45.365250631201555" lon="13.62395190097134"><ele>113.0</ele><time>2026-05-02T17:16:29Z</time></trkpt><trkpt lat="45.365551981908524" lon="13.624080953020231"><ele>114.5</ele><time>2026-05-02T17:16:30Z</time></trkpt><trkpt lat="45.365856888076266" lon="13.624193752863892"><ele>116.0</ele><time>2026-05-02T17:16:31Z</time></trkpt><trkpt lat="45.36616428960449" lon="13.624288923339114"><ele>115.0</ele><time>2026-05-02T17:16:32Z</time></trkpt><trkpt lat="45.36647467908055" lon="13.624369235262195"><ele>114.0</ele><time>2026-05-02T17:16:33Z</time></trkpt><trkpt lat="45.36678814209859" lon="13.624439349391732"><ele>117.0</ele><time>2026-05-02T17:16:34Z</time></trkpt><trkpt lat="45.36710458178326" lon="13.624495016827641"><ele>120.0</ele><time>2026-05-02T17:16:35Z</time></trkpt><trkpt lat="45.36741916692838" lon="13.624539496409653"><ele>120.0</ele><time>2026-05-02T17:16:36Z</time></trkpt><trkpt lat="45.36773540181563" lon="13.624566917402795"><ele>120.0</ele><time>2026-05-02T17:16:37Z</time></trkpt><trkpt lat="45.36805382789204" lon="13.624581750799488"><ele>120.5</ele><time>2026-05-02T17:16:38Z</time></trkpt><trkpt lat="45.36838090108764" lon="13.624579584599283"><ele>121.0</ele><time>2026-05-02T17:16:39Z</time></trkpt><trkpt lat="45.36871103131268" lon="13.624564400438478"><ele>121.0</ele><time>2026-05-02T17:16:40Z</time></trkpt><trkpt lat="45.369041103777846" lon="13.62453547554627"><ele>121.0</ele><time>2026-05-02T17:16:41Z</time></trkpt><trkpt lat="45.369375165473926" lon="13.624489242699081"><ele>116.5</ele><time>2026-05-02T17:16:42Z</time></trkpt><trkpt lat="45.36970934747179" lon="13.62442500196402"><ele>112.0</ele><time>2026-05-02T17:16:43Z</time></trkpt><trkpt lat="45.3700395395447" lon="13.624347827845185"><ele>112.0</ele><time>2026-05-02T17:16:44Z</time></trkpt><trkpt lat="45.37036546628891" lon="13.624255009389968"><ele>112.0</ele><time>2026-05-02T17:16:45Z</time></trkpt><trkpt lat="45.37069254674941" lon="13.624144580424781"><ele>110.0</ele><time>2026-05-02T17:16:46Z</time></trkpt><trkpt lat="45.3710164790516" lon="13.62401872146409"><ele>108.0</ele><time>2026-05-02T17:16:47Z</time></trkpt><trkpt lat="45.37133937572476" lon="13.623877122042659"><ele>105.0</ele><time>2026-05-02T17:16:48Z</time></trkpt><trkpt lat="45.37165604123998" lon="13.62372097449865"><ele>102.0</ele><time>2026-05-02T17:16:49Z</time></trkpt><trkpt lat="45.37197102374637" lon="13.623552584613623"><ele>99.0</ele><time>2026-05-02T17:16:50Z</time></trkpt><trkpt lat="45.37228155519015" lon="13.623368136313122"><ele>96.0</ele><time>2026-05-02T17:16:51Z</time></trkpt><trkpt lat="45.37258960198183" lon="13.62317672857412"><ele>96.0</ele><time>2026-05-02T17:16:52Z</time></trkpt><trkpt lat="45.372898759626885" lon="13.622981820250434"><ele>96.0</ele><time>2026-05-02T17:16:53Z</time></trkpt><trkpt lat="45.373204958521995" lon="13.622784346908368"><ele>97.0</ele><time>2026-05-02T17:16:54Z</time></trkpt><trkpt lat="45.37351026805203" lon="13.622578483433816"><ele>98.0</ele><time>2026-05-02T17:16:55Z</time></trkpt><trkpt lat="45.3738149430865" lon="13.622371025850981"><ele>99.0</ele><time>2026-05-02T17:16:56Z</time></trkpt><trkpt lat="45.37411870615151" lon="13.622162609053047"><ele>100.0</ele><time>2026-05-02T17:16:57Z</time></trkpt><trkpt lat="45.37442612556584" lon="13.621955045036593"><ele>100.5</ele><time>2026-05-02T17:16:58Z</time></trkpt><trkpt lat="45.374733012272074" lon="13.62174942890538"><ele>101.0</ele><time>2026-05-02T17:16:59Z</time></trkpt><trkpt lat="45.375040949035125" lon="13.621547061656955"><ele>101.0</ele><time>2026-05-02T17:17:00Z</time></trkpt><trkpt lat="45.37534870196128" lon="13.621341684610117"><ele>101.0</ele><time>2026-05-02T17:17:01Z</time></trkpt><trkpt lat="45.3756563452412" lon="13.621133219488573"><ele>100.5</ele><time>2026-05-02T17:17:02Z</time></trkpt><trkpt lat="45.37596509438231" lon="13.620923192169412"><ele>100.0</ele><time>2026-05-02T17:17:03Z</time></trkpt><trkpt lat="45.376273437558595" lon="13.620711211799758"><ele>101.5</ele><time>2026-05-02T17:17:04Z</time></trkpt><trkpt lat="45.37658292022192" lon="13.620503910024883"><ele>103.0</ele><time>2026-05-02T17:17:05Z</time></trkpt><trkpt lat="45.376894419387725" lon="13.620299837859871"><ele>104.5</ele><time>2026-05-02T17:17:06Z</time></trkpt><trkpt lat="45.377204265150226" lon="13.620094039216715"><ele>106.0</ele><time>2026-05-02T17:17:07Z</time></trkpt><trkpt lat="45.37751242754458" lon="13.619886677290237"><ele>106.0</ele><time>2026-05-02T17:17:08Z</time></trkpt><trkpt lat="45.37782507569057" lon="13.619681658842566"><ele>106.0</ele><time>2026-05-02T17:17:09Z</time></trkpt><trkpt lat="45.37813870073219" lon="13.619474874409278"><ele>104.5</ele><time>2026-05-02T17:17:10Z</time></trkpt><trkpt lat="45.378453746341634" lon="13.619270846135356"><ele>103.0</ele><time>2026-05-02T17:17:11Z</time></trkpt><trkpt lat="45.37876915192566" lon="13.619067762189603"><ele>102.0</ele><time>2026-05-02T17:17:12Z</time></trkpt><trkpt lat="45.379080039377435" lon="13.618859252004333"><ele>101.0</ele><time>2026-05-02T17:17:13Z</time></trkpt><trkpt lat="45.3793892294673" lon="13.618659194137134"><ele>99.5</ele><time>2026-05-02T17:17:14Z</time></trkpt><trkpt lat="45.37969734897106" lon="13.618452274632004"><ele>98.0</ele><time>2026-05-02T17:17:15Z</time></trkpt><trkpt lat="45.38000512067948" lon="13.618252154842668"><ele>98.0</ele><time>2026-05-02T17:17:16Z</time></trkpt><trkpt lat="45.38031361803937" lon="13.618054048603232"><ele>98.0</ele><time>2026-05-02T17:17:17Z</time></trkpt><trkpt lat="45.38062686837503" lon="13.617866537686485"><ele>98.5</ele><time>2026-05-02T17:17:18Z</time></trkpt><trkpt lat="45.38094219522653" lon="13.61769270303402"><ele>99.0</ele><time>2026-05-02T17:17:19Z</time></trkpt><trkpt lat="45.38126129415533" lon="13.617528719983458"><ele>101.5</ele><time>2026-05-02T17:17:20Z</time></trkpt><trkpt lat="45.38158364792792" lon="13.617379120317688"><ele>104.0</ele><time>2026-05-02T17:17:21Z</time></trkpt><trkpt lat="45.3819077856432" lon="13.617234629229387"><ele>104.0</ele><time>2026-05-02T17:17:22Z</time></trkpt><trkpt lat="45.38223413525629" lon="13.617098512873847"><ele>104.0</ele><time>2026-05-02T17:17:23Z</time></trkpt><trkpt lat="45.38256464681676" lon="13.616979152801253"><ele>101.0</ele><time>2026-05-02T17:17:24Z</time></trkpt><trkpt lat="45.38289577602826" lon="13.616875604475847"><ele>98.0</ele><time>2026-05-02T17:17:25Z</time></trkpt><trkpt lat="45.38322827952875" lon="13.616787688145823"><ele>97.5</ele><time>2026-05-02T17:17:26Z</time></trkpt><trkpt lat="45.38356172084092" lon="13.616712313032162"><ele>97.0</ele><time>2026-05-02T17:17:27Z</time></trkpt><trkpt lat="45.38389798896491" lon="13.616649850086276"><ele>100.0</ele><time>2026-05-02T17:17:28Z</time></trkpt><trkpt lat="45.3842360994159" lon="13.616596241704086"><ele>103.0</ele><time>2026-05-02T17:17:29Z</time></trkpt><trkpt lat="45.384574662934014" lon="13.616554045532194"><ele>105.0</ele><time>2026-05-02T17:17:30Z</time></trkpt><trkpt lat="45.38491402212789" lon="13.61652836894168"><ele>107.0</ele><time>2026-05-02T17:17:31Z</time></trkpt><trkpt lat="45.385252943419296" lon="13.616511631471006"><ele>108.5</ele><time>2026-05-02T17:17:32Z</time></trkpt><trkpt lat="45.38559449372489" lon="13.616507094801724"><ele>110.0</ele><time>2026-05-02T17:17:33Z</time></trkpt><trkpt lat="45.385936055594" lon="13.616517227618699"><ele>110.0</ele><time>2026-05-02T17:17:34Z</time></trkpt><trkpt lat="45.386277408091836" lon="13.61654054487906"><ele>110.0</ele><time>2026-05-02T17:17:35Z</time></trkpt><trkpt lat="45.386618271506606" lon="13.616580368596091"><ele>111.5</ele><time>2026-05-02T17:17:36Z</time></trkpt><trkpt lat="45.38695782909461" lon="13.616635087074332"><ele>113.0</ele><time>2026-05-02T17:17:37Z</time></trkpt><trkpt lat="45.3872958106109" lon="13.616703281201152"><ele>115.0</ele><time>2026-05-02T17:17:38Z</time></trkpt><trkpt lat="45.387632767589196" lon="13.61678113072036"><ele>117.0</ele><time>2026-05-02T17:17:39Z</time></trkpt><trkpt lat="45.38796850744399" lon="13.61687140576647"><ele>117.0</ele><time>2026-05-02T17:17:40Z</time></trkpt><trkpt lat="45.38830218648432" lon="13.61697547377893"><ele>117.0</ele><time>2026-05-02T17:17:41Z</time></trkpt><trkpt lat="45.38863357660319" lon="13.617092858069341"><ele>113.5</ele><time>2026-05-02T17:17:42Z</time></trkpt><trkpt lat="45.38896456204929" lon="13.617224276596106"><ele>110.0</ele><time>2026-05-02T17:17:43Z</time></trkpt><trkpt lat="45.38929196919274" lon="13.61736713426449"><ele>110.0</ele><time>2026-05-02T17:17:44Z</time></trkpt><trkpt lat="45.38961613260203" lon="13.617522974018001"><ele>110.0</ele><time>2026-05-02T17:17:45Z</time></trkpt><trkpt lat="45.389938400668534" lon="13.617691204821783"><ele>112.0</ele><time>2026-05-02T17:17:46Z</time></trkpt><trkpt lat="45.39025783556732" lon="13.617870217039497"><ele>114.0</ele><time>2026-05-02T17:17:47Z</time></trkpt><trkpt lat="45.390574725137355" lon="13.61806088918368"><ele>114.0</ele><time>2026-05-02T17:17:48Z</time></trkpt><trkpt lat="45.39088471335811" lon="13.618263697809882"><ele>114.0</ele><time>2026-05-02T17:17:49Z</time></trkpt><trkpt lat="45.39119269432197" lon="13.61847815977337"><ele>113.5</ele><time>2026-05-02T17:17:50Z</time></trkpt><trkpt lat="45.39149327456385" lon="13.618702763494673"><ele>113.0</ele><time>2026-05-02T17:17:51Z</time></trkpt><trkpt lat="45.39179532129572" lon="13.618934378711186"><ele>113.0</ele><time>2026-05-02T17:17:52Z</time></trkpt><trkpt lat="45.39208733025976" lon="13.61918457818499"><ele>113.0</ele><time>2026-05-02T17:17:53Z</time></trkpt><trkpt lat="45.39237845286563" lon="13.619441622111673"><ele>109.0</ele><time>2026-05-02T17:17:54Z</time></trkpt><trkpt lat="45.39266504327868" lon="13.619714996918008"><ele>105.0</ele><time>2026-05-02T17:17:55Z</time></trkpt><trkpt lat="45.392941538577254" lon="13.619998994614614"><ele>105.0</ele><time>2026-05-02T17:17:56Z</time></trkpt><trkpt lat="45.39321716164943" lon="13.620286014136768"><ele>105.0</ele><time>2026-05-02T17:17:57Z</time></trkpt><trkpt lat="45.39348840978385" lon="13.620573053977024"><ele>105.0</ele><time>2026-05-02T17:17:58Z</time></trkpt><trkpt lat="45.39375942032609" lon="13.620866592833039"><ele>105.0</ele><time>2026-05-02T17:17:59Z</time></trkpt><trkpt lat="45.39403110440935" lon="13.621157962283704"><ele>108.5</ele><time>2026-05-02T17:18:00Z</time></trkpt><trkpt lat="45.3943035077326" lon="13.621446985245699"><ele>112.0</ele><time>2026-05-02T17:18:01Z</time></trkpt><trkpt lat="45.39457792568804" lon="13.621735234214894"><ele>111.5</ele><time>2026-05-02T17:18:02Z</time></trkpt><trkpt lat="45.3948570065292" lon="13.622015394308752"><ele>111.0</ele><time>2026-05-02T17:18:03Z</time></trkpt><trkpt lat="45.3951393547303" lon="13.622284319414048"><ele>111.0</ele><time>2026-05-02T17:18:04Z</time></trkpt><trkpt lat="45.39543141746279" lon="13.622535492673915"><ele>111.0</ele><time>2026-05-02T17:18:05Z</time></trkpt><trkpt lat="45.395729862678444" lon="13.62276807189816"><ele>109.0</ele><time>2026-05-02T17:18:06Z</time></trkpt><trkpt lat="45.39603600386329" lon="13.62297981454442"><ele>107.0</ele><time>2026-05-02T17:18:07Z</time></trkpt><trkpt lat="45.396348068053605" lon="13.62316380630375"><ele>104.5</ele><time>2026-05-02T17:18:08Z</time></trkpt><trkpt lat="45.39666757549379" lon="13.623316327970986"><ele>102.0</ele><time>2026-05-02T17:18:09Z</time></trkpt><trkpt lat="45.39699525256095" lon="13.623436132817671"><ele>99.5</ele><time>2026-05-02T17:18:10Z</time></trkpt><trkpt lat="45.39732345442742" lon="13.623523800639632"><ele>97.0</ele><time>2026-05-02T17:18:11Z</time></trkpt><trkpt lat="45.39765072059253" lon="13.623584149760063"><ele>97.0</ele><time>2026-05-02T17:18:12Z</time></trkpt><trkpt lat="45.39796997295874" lon="13.623623384771617"><ele>97.0</ele><time>2026-05-02T17:18:13Z</time></trkpt><trkpt lat="45.39829311373027" lon="13.623629517256054"><ele>96.5</ele><time>2026-05-02T17:18:14Z</time></trkpt><trkpt lat="45.39861728101373" lon="13.623608660594625"><ele>96.0</ele><time>2026-05-02T17:18:15Z</time></trkpt><trkpt lat="45.39893839218258" lon="13.62356157304644"><ele>96.0</ele><time>2026-05-02T17:18:16Z</time></trkpt><trkpt lat="45.399257358701135" lon="13.623490333131263"><ele>96.0</ele><time>2026-05-02T17:18:17Z</time></trkpt><trkpt lat="45.399565457295644" lon="13.623388796221297"><ele>98.0</ele><time>2026-05-02T17:18:18Z</time></trkpt><trkpt lat="45.39987391692308" lon="13.62327210236823"><ele>100.0</ele><time>2026-05-02T17:18:19Z</time></trkpt><trkpt lat="45.400181681684316" lon="13.623139098493892"><ele>100.0</ele><time>2026-05-02T17:18:20Z</time></trkpt><trkpt lat="45.40048624399446" lon="13.622992808408945"><ele>100.0</ele><time>2026-05-02T17:18:21Z</time></trkpt><trkpt lat="45.40079104886405" lon="13.622838245125054"><ele>98.5</ele><time>2026-05-02T17:18:22Z</time></trkpt><trkpt lat="45.401096136277125" lon="13.622674845057208"><ele>97.0</ele><time>2026-05-02T17:18:23Z</time></trkpt><trkpt lat="45.40139769161932" lon="13.622509587432798"><ele>97.0</ele><time>2026-05-02T17:18:24Z</time></trkpt><trkpt lat="45.40169551356866" lon="13.62233885035651"><ele>97.0</ele><time>2026-05-02T17:18:25Z</time></trkpt><trkpt lat="45.40199585893054" lon="13.622167273261427"><ele>96.5</ele><time>2026-05-02T17:18:26Z</time></trkpt><trkpt lat="45.40229841645623" lon="13.621994343033052"><ele>96.0</ele><time>2026-05-02T17:18:27Z</time></trkpt><trkpt lat="45.402603118881416" lon="13.621824026779164"><ele>96.0</ele><time>2026-05-02T17:18:28Z</time></trkpt><trkpt lat="45.402907859752595" lon="13.621656450660687"><ele>96.0</ele><time>2026-05-02T17:18:29Z</time></trkpt><trkpt lat="45.403212873582" lon="13.621484861478283"><ele>96.5</ele><time>2026-05-02T17:18:30Z</time></trkpt><trkpt lat="45.40351626834517" lon="13.621316517896647"><ele>97.0</ele><time>2026-05-02T17:18:31Z</time></trkpt><trkpt lat="45.403812567873466" lon="13.621154709833428"><ele>97.0</ele><time>2026-05-02T17:18:32Z</time></trkpt><trkpt lat="45.404104530144004" lon="13.620996739700994"><ele>97.0</ele><time>2026-05-02T17:18:33Z</time></trkpt><trkpt lat="45.40439464272592" lon="13.62085661099339"><ele>99.5</ele><time>2026-05-02T17:18:34Z</time></trkpt><trkpt lat="45.40468727126405" lon="13.62074043808845"><ele>102.0</ele><time>2026-05-02T17:18:35Z</time></trkpt><trkpt lat="45.40498318959494" lon="13.62063871973723"><ele>102.0</ele><time>2026-05-02T17:18:36Z</time></trkpt><trkpt lat="45.405284537846086" lon="13.620561132956528"><ele>102.0</ele><time>2026-05-02T17:18:37Z</time></trkpt><trkpt lat="45.405589446598825" lon="13.620511474242504"><ele>104.5</ele><time>2026-05-02T17:18:38Z</time></trkpt><trkpt lat="45.40589614775333" lon="13.62049165017623"><ele>107.0</ele><time>2026-05-02T17:18:39Z</time></trkpt><trkpt lat="45.406205603783256" lon="13.620497606256558"><ele>105.0</ele><time>2026-05-02T17:18:40Z</time></trkpt><trkpt lat="45.40651727191802" lon="13.620529212641769"><ele>103.0</ele><time>2026-05-02T17:18:41Z</time></trkpt><trkpt lat="45.40683043315249" lon="13.62059396336317"><ele>103.0</ele><time>2026-05-02T17:18:42Z</time></trkpt><trkpt lat="45.407138982751505" lon="13.620686868780993"><ele>103.0</ele><time>2026-05-02T17:18:43Z</time></trkpt><trkpt lat="45.40744648110216" lon="13.620807132772137"><ele>100.5</ele><time>2026-05-02T17:18:44Z</time></trkpt><trkpt lat="45.4077484033653" lon="13.620948250038612"><ele>98.0</ele><time>2026-05-02T17:18:45Z</time></trkpt><trkpt lat="45.40805215882358" lon="13.621105710047972"><ele>97.5</ele><time>2026-05-02T17:18:46Z</time></trkpt><trkpt lat="45.40835701966459" lon="13.621267282064078"><ele>97.0</ele><time>2026-05-02T17:18:47Z</time></trkpt><trkpt lat="45.408661837358636" lon="13.62143059031419"><ele>95.5</ele><time>2026-05-02T17:18:48Z</time></trkpt><trkpt lat="45.4089644503303" lon="13.621585884596572"><ele>94.0</ele><time>2026-05-02T17:18:49Z</time></trkpt><trkpt lat="45.40926389575481" lon="13.621726175523557"><ele>94.0</ele><time>2026-05-02T17:18:50Z</time></trkpt><trkpt lat="45.4095625067601" lon="13.621850614457744"><ele>94.0</ele><time>2026-05-02T17:18:51Z</time></trkpt><trkpt lat="45.409861199160204" lon="13.621958609954861"><ele>91.5</ele><time>2026-05-02T17:18:52Z</time></trkpt><trkpt lat="45.41016506340748" lon="13.622050509171997"><ele>89.0</ele><time>2026-05-02T17:18:53Z</time></trkpt><trkpt lat="45.41047353384907" lon="13.622120924338738"><ele>90.0</ele><time>2026-05-02T17:18:54Z</time></trkpt><trkpt lat="45.41078702240567" lon="13.622170061136448"><ele>91.0</ele><time>2026-05-02T17:18:55Z</time></trkpt><trkpt lat="45.41110714927411" lon="13.622199558069655"><ele>89.0</ele><time>2026-05-02T17:18:56Z</time></trkpt><trkpt lat="45.41142829820613" lon="13.62221387121168"><ele>87.0</ele><time>2026-05-02T17:18:57Z</time></trkpt><trkpt lat="45.41175411202674" lon="13.622205613954502"><ele>87.0</ele><time>2026-05-02T17:18:58Z</time></trkpt><trkpt lat="45.412080602681236" lon="13.622179671021351"><ele>87.0</ele><time>2026-05-02T17:18:59Z</time></trkpt><trkpt lat="45.4124067739592" lon="13.622134231275766"><ele>87.0</ele><time>2026-05-02T17:19:00Z</time></trkpt><trkpt lat="45.412720841913334" lon="13.622069642630755"><ele>87.0</ele><time>2026-05-02T17:19:01Z</time></trkpt><trkpt lat="45.413026686432275" lon="13.621986219561679"><ele>89.0</ele><time>2026-05-02T17:19:02Z</time></trkpt><trkpt lat="45.413323003971925" lon="13.621889051103294"><ele>91.0</ele><time>2026-05-02T17:19:03Z</time></trkpt><trkpt lat="45.4136087881831" lon="13.62177704742672"><ele>89.0</ele><time>2026-05-02T17:19:04Z</time></trkpt><trkpt lat="45.41388575113011" lon="13.621650869054266"><ele>87.0</ele><time>2026-05-02T17:19:05Z</time></trkpt><trkpt lat="45.41415653307795" lon="13.621511023663784"><ele>87.0</ele><time>2026-05-02T17:19:06Z</time></trkpt><trkpt lat="45.41441956144386" lon="13.621364810490057"><ele>87.0</ele><time>2026-05-02T17:19:07Z</time></trkpt><trkpt lat="45.414679273568986" lon="13.62121421622963"><ele>88.0</ele><time>2026-05-02T17:19:08Z</time></trkpt><trkpt lat="45.41493484743528" lon="13.621065461934393"><ele>89.0</ele><time>2026-05-02T17:19:09Z</time></trkpt><trkpt lat="45.41518495032197" lon="13.620913765856432"><ele>89.0</ele><time>2026-05-02T17:19:10Z</time></trkpt><trkpt lat="45.41543488595629" lon="13.620773273041367"><ele>89.0</ele><time>2026-05-02T17:19:11Z</time></trkpt><trkpt lat="45.41568140458922" lon="13.620647067279446"><ele>84.5</ele><time>2026-05-02T17:19:12Z</time></trkpt><trkpt lat="45.4159269798281" lon="13.620529415760663"><ele>80.0</ele><time>2026-05-02T17:19:13Z</time></trkpt><trkpt lat="45.416170106176104" lon="13.620425761352662"><ele>80.0</ele><time>2026-05-02T17:19:14Z</time></trkpt><trkpt lat="45.41641386505057" lon="13.620339516520467"><ele>80.0</ele><time>2026-05-02T17:19:15Z</time></trkpt><trkpt lat="45.41665529291419" lon="13.620268425833217"><ele>80.0</ele><time>2026-05-02T17:19:16Z</time></trkpt><trkpt lat="45.41689203509828" lon="13.620210726158845"><ele>80.0</ele><time>2026-05-02T17:19:17Z</time></trkpt><trkpt lat="45.41712920151246" lon="13.620170575402273"><ele>80.0</ele><time>2026-05-02T17:19:18Z</time></trkpt><trkpt lat="45.4173597590216" lon="13.620141965155925"><ele>80.0</ele><time>2026-05-02T17:19:19Z</time></trkpt><trkpt lat="45.417584872888476" lon="13.62012631315946"><ele>80.0</ele><time>2026-05-02T17:19:20Z</time></trkpt><trkpt lat="45.4178088885016" lon="13.620118279342636"><ele>80.0</ele><time>2026-05-02T17:19:21Z</time></trkpt><trkpt lat="45.4180287886085" lon="13.620119822707721"><ele>80.0</ele><time>2026-05-02T17:19:22Z</time></trkpt><trkpt lat="45.41824630992115" lon="13.620131271007821"><ele>80.0</ele><time>2026-05-02T17:19:23Z</time></trkpt><trkpt lat="45.41845922400243" lon="13.620147814831777"><ele>80.0</ele><time>2026-05-02T17:19:24Z</time></trkpt><trkpt lat="45.418669780372845" lon="13.620167046231192"><ele>80.0</ele><time>2026-05-02T17:19:25Z</time></trkpt><trkpt lat="45.41887639249443" lon="13.620188132727801"><ele>80.0</ele><time>2026-05-02T17:19:26Z</time></trkpt><trkpt lat="45.4190806250219" lon="13.620205366864118"><ele>80.0</ele><time>2026-05-02T17:19:27Z</time></trkpt><trkpt lat="45.41928027314371" lon="13.62021950782758"><ele>80.0</ele><time>2026-05-02T17:19:28Z</time></trkpt><trkpt lat="45.41947616819059" lon="13.620230597881603"><ele>80.0</ele><time>2026-05-02T17:19:29Z</time></trkpt><trkpt lat="45.4196716549991" lon="13.620236975521182"><ele>80.0</ele><time>2026-05-02T17:19:30Z</time></trkpt><trkpt lat="45.419863713778106" lon="13.620234407642904"><ele>80.0</ele><time>2026-05-02T17:19:31Z</time></trkpt><trkpt lat="45.42005483976321" lon="13.620222204231714"><ele>80.0</ele><time>2026-05-02T17:19:32Z</time></trkpt><trkpt lat="45.42024323260128" lon="13.62020707620929"><ele>80.0</ele><time>2026-05-02T17:19:33Z</time></trkpt><trkpt lat="45.42042599412857" lon="13.620184224738615"><ele>80.0</ele><time>2026-05-02T17:19:34Z</time></trkpt><trkpt lat="45.4206041218196" lon="13.620156720400834"><ele>79.33333333333334</ele><time>2026-05-02T17:19:35Z</time></trkpt><trkpt lat="45.42077742400536" lon="13.620122338581497"><ele>78.66666666666667</ele><time>2026-05-02T17:19:36Z</time></trkpt><trkpt lat="45.4209451740258" lon="13.620076170334235"><ele>78.0</ele><time>2026-05-02T17:19:37Z</time></trkpt><trkpt lat="45.42110468629138" lon="13.620026245475103"><ele>78.0</ele><time>2026-05-02T17:19:38Z</time></trkpt><trkpt lat="45.42126108324932" lon="13.619974211317341"><ele>78.0</ele><time>2026-05-02T17:19:39Z</time></trkpt><trkpt lat="45.4214118094275" lon="13.619920599243985"><ele>78.0</ele><time>2026-05-02T17:19:40Z</time></trkpt><trkpt lat="45.421555216398154" lon="13.61986111136939"><ele>76.75</ele><time>2026-05-02T17:19:41Z</time></trkpt><trkpt lat="45.42169331960843" lon="13.619799761807952"><ele>75.5</ele><time>2026-05-02T17:19:42Z</time></trkpt><trkpt lat="45.42182538229818" lon="13.619736346313003"><ele>74.25</ele><time>2026-05-02T17:19:43Z</time></trkpt><trkpt lat="45.42195582134615" lon="13.619670609881007"><ele>73.0</ele><time>2026-05-02T17:19:44Z</time></trkpt><trkpt lat="45.422078913513204" lon="13.61960473040242"><ele>72.75</ele><time>2026-05-02T17:19:45Z</time></trkpt><trkpt lat="45.42220036065887" lon="13.619540092546579"><ele>72.5</ele><time>2026-05-02T17:19:46Z</time></trkpt><trkpt lat="45.42231603348575" lon="13.619468975296272"><ele>72.25</ele><time>2026-05-02T17:19:47Z</time></trkpt><trkpt lat="45.42242576824857" lon="13.61939924767038"><ele>72.0</ele><time>2026-05-02T17:19:48Z</time></trkpt><trkpt lat="45.42252978047887" lon="13.61932465292996"><ele>71.8</ele><time>2026-05-02T17:19:49Z</time></trkpt><trkpt lat="45.422627235499675" lon="13.619252461762525"><ele>71.6</ele><time>2026-05-02T17:19:50Z</time></trkpt><trkpt lat="45.422723227996684" lon="13.619179886290818"><ele>71.39999999999999</ele><time>2026-05-02T17:19:51Z</time></trkpt><trkpt lat="45.422815340147984" lon="13.619108651274855"><ele>71.2</ele><time>2026-05-02T17:19:52Z</time></trkpt><trkpt lat="45.422904864116205" lon="13.619039626912217"><ele>71.0</ele><time>2026-05-02T17:19:53Z</time></trkpt><trkpt lat="45.42299258348083" lon="13.618976976274405"><ele>71.83333333333334</ele><time>2026-05-02T17:19:54Z</time></trkpt><trkpt lat="45.42307567452194" lon="13.618921397722612"><ele>72.66666666666667</ele><time>2026-05-02T17:19:55Z</time></trkpt><trkpt lat="45.423157090608015" lon="13.618858093660135"><ele>73.5</ele><time>2026-05-02T17:19:56Z</time></trkpt><trkpt lat="45.42323300550356" lon="13.618796199287198"><ele>74.33333333333333</ele><time>2026-05-02T17:19:57Z</time></trkpt><trkpt lat="45.4233050812338" lon="13.618742562593063"><ele>75.16666666666666</ele><time>2026-05-02T17:19:58Z</time></trkpt><trkpt lat="45.42337440470639" lon="13.618693253675236"><ele>76.0</ele><time>2026-05-02T17:19:59Z</time></trkpt><trkpt lat="45.42343695904367" lon="13.618651193504975"><ele>76.0</ele><time>2026-05-02T17:20:00Z</time></trkpt><trkpt lat="45.42354384424007" lon="13.618576103988422"><ele>76.0</ele><time>2026-05-02T17:20:02Z</time></trkpt><trkpt lat="45.423644628983496" lon="13.618505311604737"><ele>76.0</ele><time>2026-05-02T17:20:04Z</time></trkpt><trkpt lat="45.423742993001774" lon="13.618436936622079"><ele>76.0</ele><time>2026-05-02T17:20:06Z</time></trkpt><trkpt lat="45.42385619929261" lon="13.618356351260095"><ele>77.0</ele><time>2026-05-02T17:20:08Z</time></trkpt><trkpt lat="45.423965975769114" lon="13.618281276809205"><ele>78.0</ele><time>2026-05-02T17:20:10Z</time></trkpt><trkpt lat="45.424061898094145" lon="13.618202170152518"><ele>79.0</ele><time>2026-05-02T17:20:12Z</time></trkpt><trkpt lat="45.42414349508465" lon="13.618125194051697"><ele>80.0</ele><time>2026-05-02T17:20:14Z</time></trkpt><trkpt lat="45.42419292379475" lon="13.618014893544018"><ele>81.0</ele><time>2026-05-02T17:20:16Z</time></trkpt><trkpt lat="45.42424982808106" lon="13.617947366706325"><ele>81.0</ele><time>2026-05-02T17:20:18Z</time></trkpt><trkpt lat="45.424316679684694" lon="13.617922700601842"><ele>81.0</ele><time>2026-05-02T17:20:20Z</time></trkpt><trkpt lat="45.42434197486496" lon="13.617814813350284"><ele>81.0</ele><time>2026-05-02T17:22:01Z</time></trkpt><trkpt lat="45.424381853872845" lon="13.617737377779699"><ele>81.0</ele><time>2026-05-02T17:22:12Z</time></trkpt><trkpt lat="45.424497809013914" lon="13.617719131080392"><ele>81.0</ele><time>2026-05-02T17:22:43Z</time></trkpt><trkpt lat="45.42451165901148" lon="13.617605995594039"><ele>81.0</ele><time>2026-05-02T17:23:58Z</time></trkpt><trkpt lat="45.424562836695124" lon="13.617537688080922"><ele>80.66666666666667</ele><time>2026-05-02T17:24:00Z</time></trkpt><trkpt lat="45.42461878030683" lon="13.617457840697384"><ele>80.33333333333333</ele><time>2026-05-02T17:24:02Z</time></trkpt><trkpt lat="45.42467986619706" lon="13.617424620940769"><ele>80.0</ele><time>2026-05-02T17:24:04Z</time></trkpt><trkpt lat="45.424751193473845" lon="13.617352882812344"><ele>79.66666666666666</ele><time>2026-05-02T17:24:07Z</time></trkpt><trkpt lat="45.42478549043862" lon="13.617266184759268"><ele>79.33333333333333</ele><time>2026-05-02T17:28:49Z</time></trkpt><trkpt lat="45.424826623637514" lon="13.617134807350375"><ele>79.0</ele><time>2026-05-02T17:28:51Z</time></trkpt><trkpt lat="45.424863998852324" lon="13.617024373843647"><ele>80.0</ele><time>2026-05-02T17:28:53Z</time></trkpt><trkpt lat="45.424908711836274" lon="13.616871076857961"><ele>81.0</ele><time>2026-05-02T17:28:55Z</time></trkpt><trkpt lat="45.424938917286354" lon="13.616769501838972"><ele>82.0</ele><time>2026-05-02T17:28:56Z</time></trkpt><trkpt lat="45.424977057009926" lon="13.616658390216552"><ele>83.0</ele><time>2026-05-02T17:28:57Z</time></trkpt><trkpt lat="45.42502383857146" lon="13.61654017943197"><ele>84.0</ele><time>2026-05-02T17:28:58Z</time></trkpt><trkpt lat="45.42506843879116" lon="13.61642643863255"><ele>84.0</ele><time>2026-05-02T17:28:59Z</time></trkpt><trkpt lat="45.425108789037395" lon="13.6163226245277"><ele>84.0</ele><time>2026-05-02T17:29:00Z</time></trkpt><trkpt lat="45.425149675934186" lon="13.61620738765689"><ele>84.0</ele><time>2026-05-02T17:29:01Z</time></trkpt><trkpt lat="45.425195262776306" lon="13.616077024774548"><ele>84.0</ele><time>2026-05-02T17:29:02Z</time></trkpt><trkpt lat="45.42524251165597" lon="13.61593453002954"><ele>84.0</ele><time>2026-05-02T17:29:03Z</time></trkpt><trkpt lat="45.42529377272832" lon="13.615782902851825"><ele>83.25</ele><time>2026-05-02T17:29:04Z</time></trkpt><trkpt lat="45.425347359359165" lon="13.615627057601346"><ele>82.5</ele><time>2026-05-02T17:29:05Z</time></trkpt><trkpt lat="45.4254055027139" lon="13.615470909072766"><ele>81.75</ele><time>2026-05-02T17:29:06Z</time></trkpt><trkpt lat="45.425470199280866" lon="13.615312573463854"><ele>81.0</ele><time>2026-05-02T17:29:07Z</time></trkpt><trkpt lat="45.425539804294715" lon="13.61515342944346"><ele>83.5</ele><time>2026-05-02T17:29:08Z</time></trkpt><trkpt lat="45.42561109205754" lon="13.614998225354373"><ele>86.0</ele><time>2026-05-02T17:29:09Z</time></trkpt><trkpt lat="45.42568445266691" lon="13.614842605384508"><ele>88.5</ele><time>2026-05-02T17:29:10Z</time></trkpt><trkpt lat="45.42576109401039" lon="13.61468281328664"><ele>91.0</ele><time>2026-05-02T17:29:11Z</time></trkpt><trkpt lat="45.42584031310369" lon="13.614514748493903"><ele>90.0</ele><time>2026-05-02T17:29:12Z</time></trkpt><trkpt lat="45.425929301531674" lon="13.61433598526244"><ele>89.0</ele><time>2026-05-02T17:29:13Z</time></trkpt><trkpt lat="45.42602553753016" lon="13.614159839681003"><ele>88.0</ele><time>2026-05-02T17:29:14Z</time></trkpt><trkpt lat="45.42613127084365" lon="13.613979610699475"><ele>88.0</ele><time>2026-05-02T17:29:15Z</time></trkpt><trkpt lat="45.426238469898855" lon="13.613808726827488"><ele>88.0</ele><time>2026-05-02T17:29:16Z</time></trkpt><trkpt lat="45.426343912927884" lon="13.613644522170397"><ele>88.0</ele><time>2026-05-02T17:29:17Z</time></trkpt><trkpt lat="45.42646047003525" lon="13.61348414473943"><ele>91.0</ele><time>2026-05-02T17:29:18Z</time></trkpt><trkpt lat="45.426586595479996" lon="13.61332005002224"><ele>94.0</ele><time>2026-05-02T17:29:19Z</time></trkpt><trkpt lat="45.4267206605975" lon="13.613156808053873"><ele>97.0</ele><time>2026-05-02T17:29:20Z</time></trkpt><trkpt lat="45.42686340196679" lon="13.613003701367399"><ele>97.0</ele><time>2026-05-02T17:29:21Z</time></trkpt><trkpt lat="45.42701709169852" lon="13.612852130109282"><ele>97.0</ele><time>2026-05-02T17:29:22Z</time></trkpt><trkpt lat="45.42717850988264" lon="13.61270624353014"><ele>97.0</ele><time>2026-05-02T17:29:23Z</time></trkpt><trkpt lat="45.42734144369892" lon="13.612567487889313"><ele>98.66666666666667</ele><time>2026-05-02T17:29:24Z</time></trkpt><trkpt lat="45.427512223209696" lon="13.612444277532756"><ele>100.33333333333334</ele><time>2026-05-02T17:29:25Z</time></trkpt><trkpt lat="45.427689067954674" lon="13.61232881078378"><ele>102.0</ele><time>2026-05-02T17:29:26Z</time></trkpt><trkpt lat="45.427870277872266" lon="13.612217430923616"><ele>102.0</ele><time>2026-05-02T17:29:27Z</time></trkpt><trkpt lat="45.428058205234024" lon="13.612123478150355"><ele>102.0</ele><time>2026-05-02T17:29:28Z</time></trkpt><trkpt lat="45.428250566905774" lon="13.612042439811676"><ele>102.0</ele><time>2026-05-02T17:29:29Z</time></trkpt><trkpt lat="45.428447750809354" lon="13.611972518717153"><ele>102.0</ele><time>2026-05-02T17:29:30Z</time></trkpt><trkpt lat="45.42864919194864" lon="13.611913255885563"><ele>102.0</ele><time>2026-05-02T17:29:31Z</time></trkpt><trkpt lat="45.428854471408755" lon="13.611865053131366"><ele>102.0</ele><time>2026-05-02T17:29:32Z</time></trkpt><trkpt lat="45.42906220682681" lon="13.611829327969058"><ele>102.0</ele><time>2026-05-02T17:29:33Z</time></trkpt><trkpt lat="45.42927395789323" lon="13.611805370438654"><ele>102.0</ele><time>2026-05-02T17:29:34Z</time></trkpt><trkpt lat="45.42948780127713" lon="13.61179778265679"><ele>102.0</ele><time>2026-05-02T17:29:35Z</time></trkpt><trkpt lat="45.42970235086022" lon="13.611808360272061"><ele>102.66666666666666</ele><time>2026-05-02T17:29:36Z</time></trkpt><trkpt lat="45.42991663859311" lon="13.611832901027443"><ele>103.33333333333333</ele><time>2026-05-02T17:29:37Z</time></trkpt><trkpt lat="45.43012890063256" lon="13.611875034939402"><ele>104.0</ele><time>2026-05-02T17:29:38Z</time></trkpt><trkpt lat="45.430341113220344" lon="13.611928298627946"><ele>103.33333333333333</ele><time>2026-05-02T17:29:39Z</time></trkpt><trkpt lat="45.43055399970088" lon="13.611995685460222"><ele>102.66666666666666</ele><time>2026-05-02T17:29:40Z</time></trkpt><trkpt lat="45.43076205299801" lon="13.612080353647235"><ele>102.0</ele><time>2026-05-02T17:29:41Z</time></trkpt><trkpt lat="45.43096689293887" lon="13.61218129081586"><ele>102.0</ele><time>2026-05-02T17:29:42Z</time></trkpt><trkpt lat="45.43116961534633" lon="13.61229758185024"><ele>102.0</ele><time>2026-05-02T17:29:43Z</time></trkpt><trkpt lat="45.43137018906089" lon="13.612424285888327"><ele>102.0</ele><time>2026-05-02T17:29:44Z</time></trkpt><trkpt lat="45.43156626813518" lon="13.612558909432193"><ele>101.33333333333334</ele><time>2026-05-02T17:29:45Z</time></trkpt><trkpt lat="45.43175933920493" lon="13.612708794116951"><ele>100.66666666666667</ele><time>2026-05-02T17:29:46Z</time></trkpt><trkpt lat="45.43194380437007" lon="13.612878187582986"><ele>100.0</ele><time>2026-05-02T17:29:47Z</time></trkpt><trkpt lat="45.432125765219666" lon="13.613058352453265"><ele>100.33333333333334</ele><time>2026-05-02T17:29:48Z</time></trkpt><trkpt lat="45.432304128200244" lon="13.613249453990381"><ele>100.66666666666666</ele><time>2026-05-02T17:29:49Z</time></trkpt><trkpt lat="45.432478899516624" lon="13.613449164863809"><ele>101.0</ele><time>2026-05-02T17:29:50Z</time></trkpt><trkpt lat="45.432654922243515" lon="13.613654370835635"><ele>100.0</ele><time>2026-05-02T17:29:51Z</time></trkpt><trkpt lat="45.432833146817046" lon="13.61386220605417"><ele>99.0</ele><time>2026-05-02T17:29:52Z</time></trkpt><trkpt lat="45.43301633036498" lon="13.614071797858745"><ele>101.5</ele><time>2026-05-02T17:29:53Z</time></trkpt><trkpt lat="45.43320150511449" lon="13.61428069330977"><ele>104.0</ele><time>2026-05-02T17:29:54Z</time></trkpt><trkpt lat="45.43339302425313" lon="13.614485115789687"><ele>102.0</ele><time>2026-05-02T17:29:55Z</time></trkpt><trkpt lat="45.433591970355025" lon="13.61468543743165"><ele>100.0</ele><time>2026-05-02T17:29:56Z</time></trkpt><trkpt lat="45.43379698186819" lon="13.614880035239489"><ele>100.5</ele><time>2026-05-02T17:29:57Z</time></trkpt><trkpt lat="45.434009763342196" lon="13.615062771835074"><ele>101.0</ele><time>2026-05-02T17:29:58Z</time></trkpt><trkpt lat="45.43422872849788" lon="13.615229687383117"><ele>98.5</ele><time>2026-05-02T17:29:59Z</time></trkpt><trkpt lat="45.43445891736607" lon="13.61539172497604"><ele>96.0</ele><time>2026-05-02T17:30:00Z</time></trkpt><trkpt lat="45.43469466041506" lon="13.615545377796664"><ele>96.0</ele><time>2026-05-02T17:30:01Z</time></trkpt><trkpt lat="45.43493583645809" lon="13.615687907465388"><ele>96.0</ele><time>2026-05-02T17:30:02Z</time></trkpt><trkpt lat="45.43518179275255" lon="13.61581707093789"><ele>96.0</ele><time>2026-05-02T17:30:03Z</time></trkpt><trkpt lat="45.43543247422736" lon="13.615934031646171"><ele>96.0</ele><time>2026-05-02T17:30:04Z</time></trkpt><trkpt lat="45.43568661256426" lon="13.616041004509883"><ele>96.0</ele><time>2026-05-02T17:30:05Z</time></trkpt><trkpt lat="45.43594511136434" lon="13.616131815567966"><ele>96.0</ele><time>2026-05-02T17:30:06Z</time></trkpt><trkpt lat="45.43620582357587" lon="13.616208636340595"><ele>97.0</ele><time>2026-05-02T17:30:07Z</time></trkpt><trkpt lat="45.43646700121364" lon="13.61627312782202"><ele>98.0</ele><time>2026-05-02T17:30:08Z</time></trkpt><trkpt lat="45.43672922396631" lon="13.616328081411275"><ele>98.0</ele><time>2026-05-02T17:30:09Z</time></trkpt><trkpt lat="45.43699224896725" lon="13.616379577746146"><ele>98.0</ele><time>2026-05-02T17:30:10Z</time></trkpt><trkpt lat="45.4372566278494" lon="13.616432640239188"><ele>98.0</ele><time>2026-05-02T17:30:11Z</time></trkpt><trkpt lat="45.4375212164711" lon="13.616488298706253"><ele>98.0</ele><time>2026-05-02T17:30:12Z</time></trkpt><trkpt lat="45.43778428570976" lon="13.61655094991123"><ele>97.0</ele><time>2026-05-02T17:30:13Z</time></trkpt><trkpt lat="45.438045631985524" lon="13.61662667874622"><ele>96.0</ele><time>2026-05-02T17:30:14Z</time></trkpt><trkpt lat="45.43830708094383" lon="13.616715330984707"><ele>96.0</ele><time>2026-05-02T17:30:15Z</time></trkpt><trkpt lat="45.438568750769456" lon="13.61681630472061"><ele>96.0</ele><time>2026-05-02T17:30:16Z</time></trkpt><trkpt lat="45.43882864130506" lon="13.616936507039165"><ele>96.5</ele><time>2026-05-02T17:30:17Z</time></trkpt><trkpt lat="45.439087727943594" lon="13.617076364265104"><ele>97.0</ele><time>2026-05-02T17:30:18Z</time></trkpt><trkpt lat="45.4393444250183" lon="13.617234358642179"><ele>97.0</ele><time>2026-05-02T17:30:19Z</time></trkpt><trkpt lat="45.439598333334054" lon="13.617413155934909"><ele>97.0</ele><time>2026-05-02T17:30:20Z</time></trkpt><trkpt lat="45.439851242322895" lon="13.617605479516843"><ele>99.0</ele><time>2026-05-02T17:30:21Z</time></trkpt><trkpt lat="45.440104832230965" lon="13.617802999066763"><ele>101.0</ele><time>2026-05-02T17:30:22Z</time></trkpt><trkpt lat="45.440363513745616" lon="13.617995761908782"><ele>101.0</ele><time>2026-05-02T17:30:23Z</time></trkpt><trkpt lat="45.44062570375755" lon="13.618186758422837"><ele>101.0</ele><time>2026-05-02T17:30:24Z</time></trkpt><trkpt lat="45.440891439364165" lon="13.618371125810842"><ele>101.0</ele><time>2026-05-02T17:30:25Z</time></trkpt><trkpt lat="45.44116165148738" lon="13.61854337007267"><ele>101.0</ele><time>2026-05-02T17:30:26Z</time></trkpt><trkpt lat="45.44143491810089" lon="13.6187000688347"><ele>101.5</ele><time>2026-05-02T17:30:27Z</time></trkpt><trkpt lat="45.4417112069047" lon="13.618830759345865"><ele>102.0</ele><time>2026-05-02T17:30:28Z</time></trkpt><trkpt lat="45.44198842528023" lon="13.618937927493606"><ele>102.5</ele><time>2026-05-02T17:30:29Z</time></trkpt><trkpt lat="45.4422662768504" lon="13.619028443281431"><ele>103.0</ele><time>2026-05-02T17:30:30Z</time></trkpt><trkpt lat="45.44254804730781" lon="13.619102245421553"><ele>103.0</ele><time>2026-05-02T17:30:31Z</time></trkpt><trkpt lat="45.44282921549304" lon="13.619154811444426"><ele>103.0</ele><time>2026-05-02T17:30:32Z</time></trkpt><trkpt lat="45.44310976660925" lon="13.619183680281568"><ele>102.5</ele><time>2026-05-02T17:30:33Z</time></trkpt><trkpt lat="45.44338904307637" lon="13.61918637058301"><ele>102.0</ele><time>2026-05-02T17:30:34Z</time></trkpt><trkpt lat="45.443670639980326" lon="13.619167183856247"><ele>101.0</ele><time>2026-05-02T17:30:35Z</time></trkpt><trkpt lat="45.44395297350417" lon="13.619129799086817"><ele>100.0</ele><time>2026-05-02T17:30:36Z</time></trkpt><trkpt lat="45.444234801826575" lon="13.619069331373224"><ele>100.0</ele><time>2026-05-02T17:30:37Z</time></trkpt><trkpt lat="45.44451699988201" lon="13.618987047898509"><ele>100.0</ele><time>2026-05-02T17:30:38Z</time></trkpt><trkpt lat="45.444797650747525" lon="13.61889115669532"><ele>99.0</ele><time>2026-05-02T17:30:39Z</time></trkpt><trkpt lat="45.44507422753027" lon="13.618781280331369"><ele>98.0</ele><time>2026-05-02T17:30:40Z</time></trkpt><trkpt lat="45.44534345348077" lon="13.618660740305504"><ele>97.5</ele><time>2026-05-02T17:30:41Z</time></trkpt><trkpt lat="45.44560655537003" lon="13.618534580012167"><ele>97.0</ele><time>2026-05-02T17:30:42Z</time></trkpt><trkpt lat="45.445866143980155" lon="13.61841122027726"><ele>97.0</ele><time>2026-05-02T17:30:43Z</time></trkpt><trkpt lat="45.446123381464936" lon="13.618291237956544"><ele>97.0</ele><time>2026-05-02T17:30:44Z</time></trkpt><trkpt lat="45.4463761338756" lon="13.61817820312934"><ele>98.0</ele><time>2026-05-02T17:30:45Z</time></trkpt><trkpt lat="45.446632047492024" lon="13.618070585851555"><ele>99.0</ele><time>2026-05-02T17:30:46Z</time></trkpt><trkpt lat="45.446895203569724" lon="13.61797061000315"><ele>100.0</ele><time>2026-05-02T17:30:47Z</time></trkpt><trkpt lat="45.447163738470046" lon="13.617883629373233"><ele>101.0</ele><time>2026-05-02T17:30:48Z</time></trkpt><trkpt lat="45.44743576385617" lon="13.617808887224395"><ele>101.0</ele><time>2026-05-02T17:30:49Z</time></trkpt><trkpt lat="45.447708591333885" lon="13.617753842482545"><ele>101.0</ele><time>2026-05-02T17:30:50Z</time></trkpt><trkpt lat="45.44797864933252" lon="13.617720508946242"><ele>102.5</ele><time>2026-05-02T17:30:51Z</time></trkpt><trkpt lat="45.44825136129549" lon="13.617698896810253"><ele>104.0</ele><time>2026-05-02T17:30:52Z</time></trkpt><trkpt lat="45.448526394648816" lon="13.617690799701395"><ele>104.0</ele><time>2026-05-02T17:30:53Z</time></trkpt><trkpt lat="45.44880488142112" lon="13.617698411701516"><ele>104.0</ele><time>2026-05-02T17:30:54Z</time></trkpt><trkpt lat="45.44907460286392" lon="13.617724615212287"><ele>104.0</ele><time>2026-05-02T17:30:55Z</time></trkpt><trkpt lat="45.449339640580554" lon="13.61776600155498"><ele>104.0</ele><time>2026-05-02T17:30:56Z</time></trkpt><trkpt lat="45.44960776963264" lon="13.617826630566752"><ele>103.0</ele><time>2026-05-02T17:30:57Z</time></trkpt><trkpt lat="45.44987675608986" lon="13.617904420921855"><ele>102.0</ele><time>2026-05-02T17:30:58Z</time></trkpt><trkpt lat="45.45014576036893" lon="13.61799800051858"><ele>102.0</ele><time>2026-05-02T17:30:59Z</time></trkpt><trkpt lat="45.45041476675769" lon="13.618108996493076"><ele>102.0</ele><time>2026-05-02T17:31:00Z</time></trkpt><trkpt lat="45.450680033598665" lon="13.618232402860423"><ele>105.0</ele><time>2026-05-02T17:31:01Z</time></trkpt><trkpt lat="45.450938333818954" lon="13.61837215605315"><ele>108.0</ele><time>2026-05-02T17:31:02Z</time></trkpt><trkpt lat="45.45118461309186" lon="13.618526771779043"><ele>109.0</ele><time>2026-05-02T17:31:03Z</time></trkpt><trkpt lat="45.451413810962514" lon="13.618686956534615"><ele>110.0</ele><time>2026-05-02T17:31:04Z</time></trkpt><trkpt lat="45.45161423108919" lon="13.618839683932022"><ele>110.0</ele><time>2026-05-02T17:31:05Z</time></trkpt><trkpt lat="45.45180089482217" lon="13.618992998089952"><ele>110.0</ele><time>2026-05-02T17:31:06Z</time></trkpt><trkpt lat="45.45197553030942" lon="13.619145042801792"><ele>110.0</ele><time>2026-05-02T17:31:07Z</time></trkpt><trkpt lat="45.45214338918231" lon="13.61929957027587"><ele>110.0</ele><time>2026-05-02T17:31:08Z</time></trkpt><trkpt lat="45.45230721498528" lon="13.619464356935941"><ele>110.0</ele><time>2026-05-02T17:31:09Z</time></trkpt><trkpt lat="45.45246972136641" lon="13.619640560424125"><ele>110.0</ele><time>2026-05-02T17:31:10Z</time></trkpt><trkpt lat="45.452628495613425" lon="13.61982741107064"><ele>109.66666666666666</ele><time>2026-05-02T17:31:11Z</time></trkpt><trkpt lat="45.452786646725116" lon="13.620024833077508"><ele>109.33333333333334</ele><time>2026-05-02T17:31:12Z</time></trkpt><trkpt lat="45.45294381757214" lon="13.62023233630442"><ele>109.0</ele><time>2026-05-02T17:31:13Z</time></trkpt><trkpt lat="45.45309995197954" lon="13.620448886137297"><ele>109.0</ele><time>2026-05-02T17:31:14Z</time></trkpt><trkpt lat="45.45325523447339" lon="13.620676012493362"><ele>109.0</ele><time>2026-05-02T17:31:15Z</time></trkpt><trkpt lat="45.453402867990405" lon="13.620914119077703"><ele>109.0</ele><time>2026-05-02T17:31:16Z</time></trkpt><trkpt lat="45.453543829131334" lon="13.621161049283709"><ele>109.0</ele><time>2026-05-02T17:31:17Z</time></trkpt><trkpt lat="45.45368204654969" lon="13.621414860417918"><ele>109.0</ele><time>2026-05-02T17:31:18Z</time></trkpt><trkpt lat="45.453818879661" lon="13.621675191250906"><ele>109.5</ele><time>2026-05-02T17:31:19Z</time></trkpt><trkpt lat="45.45395355633038" lon="13.62194070564763"><ele>110.0</ele><time>2026-05-02T17:31:20Z</time></trkpt><trkpt lat="45.45408376446107" lon="13.622205834614494"><ele>110.0</ele><time>2026-05-02T17:31:21Z</time></trkpt><trkpt lat="45.454203741091725" lon="13.62247592814616"><ele>110.0</ele><time>2026-05-02T17:31:22Z</time></trkpt><trkpt lat="45.45431217166172" lon="13.622756244602446"><ele>110.0</ele><time>2026-05-02T17:31:23Z</time></trkpt><trkpt lat="45.454409336440726" lon="13.62305088302996"><ele>110.0</ele><time>2026-05-02T17:31:24Z</time></trkpt><trkpt lat="45.454494793211836" lon="13.623359118553815"><ele>110.0</ele><time>2026-05-02T17:31:25Z</time></trkpt><trkpt lat="45.45457120426965" lon="13.623677202748146"><ele>113.5</ele><time>2026-05-02T17:31:26Z</time></trkpt><trkpt lat="45.4546473173538" lon="13.62400128648678"><ele>117.0</ele><time>2026-05-02T17:31:27Z</time></trkpt><trkpt lat="45.45472164587541" lon="13.624324790789831"><ele>117.0</ele><time>2026-05-02T17:31:28Z</time></trkpt><trkpt lat="45.454795449113604" lon="13.624641773569747"><ele>117.0</ele><time>2026-05-02T17:31:29Z</time></trkpt><trkpt lat="45.454869876450296" lon="13.62494911243699"><ele>117.0</ele><time>2026-05-02T17:31:30Z</time></trkpt><trkpt lat="45.454943238017755" lon="13.625251661422679"><ele>117.0</ele><time>2026-05-02T17:31:31Z</time></trkpt><trkpt lat="45.45501505076253" lon="13.62554796599505"><ele>117.0</ele><time>2026-05-02T17:31:32Z</time></trkpt><trkpt lat="45.45508273315904" lon="13.625833044000482"><ele>116.66666666666666</ele><time>2026-05-02T17:31:33Z</time></trkpt><trkpt lat="45.45514717057386" lon="13.626109111407116"><ele>116.33333333333333</ele><time>2026-05-02T17:31:34Z</time></trkpt><trkpt lat="45.45520805038023" lon="13.62637814760325"><ele>116.0</ele><time>2026-05-02T17:31:35Z</time></trkpt><trkpt lat="45.455265558249856" lon="13.62663490881489"><ele>117.0</ele><time>2026-05-02T17:31:36Z</time></trkpt><trkpt lat="45.45531892615921" lon="13.626887385790559"><ele>118.0</ele><time>2026-05-02T17:31:37Z</time></trkpt><trkpt lat="45.45535768348818" lon="13.627145810462485"><ele>119.0</ele><time>2026-05-02T17:31:38Z</time></trkpt><trkpt lat="45.455391888629485" lon="13.627404481835995"><ele>119.0</ele><time>2026-05-02T17:31:39Z</time></trkpt><trkpt lat="45.45542285393562" lon="13.627667245263769"><ele>119.0</ele><time>2026-05-02T17:31:40Z</time></trkpt><trkpt lat="45.45544810592326" lon="13.62793665999416"><ele>119.0</ele><time>2026-05-02T17:31:41Z</time></trkpt><trkpt lat="45.455467270280415" lon="13.62821677315487"><ele>112.0</ele><time>2026-05-02T17:31:42Z</time></trkpt><trkpt lat="45.45547693871702" lon="13.62850614628305"><ele>105.0</ele><time>2026-05-02T17:31:43Z</time></trkpt><trkpt lat="45.45548009090871" lon="13.628802616125157"><ele>98.0</ele><time>2026-05-02T17:31:44Z</time></trkpt><trkpt lat="45.455472757703085" lon="13.629100154298312"><ele>99.33333333333333</ele><time>2026-05-02T17:31:45Z</time></trkpt><trkpt lat="45.45546086874376" lon="13.629404171626092"><ele>100.66666666666666</ele><time>2026-05-02T17:31:46Z</time></trkpt><trkpt lat="45.455440490980756" lon="13.629713880736691"><ele>102.0</ele><time>2026-05-02T17:31:47Z</time></trkpt><trkpt lat="45.45540698053284" lon="13.630029143228661"><ele>101.5</ele><time>2026-05-02T17:31:48Z</time></trkpt><trkpt lat="45.45536762798358" lon="13.63034849751225"><ele>101.0</ele><time>2026-05-02T17:31:49Z</time></trkpt><trkpt lat="45.45532457118532" lon="13.630664451356758"><ele>101.0</ele><time>2026-05-02T17:31:50Z</time></trkpt><trkpt lat="45.45528021561114" lon="13.630977749670729"><ele>101.0</ele><time>2026-05-02T17:31:51Z</time></trkpt><trkpt lat="45.45523518255698" lon="13.631282852857188"><ele>101.0</ele><time>2026-05-02T17:31:52Z</time></trkpt><trkpt lat="45.45519119556216" lon="13.631586390200523"><ele>100.66666666666666</ele><time>2026-05-02T17:31:53Z</time></trkpt><trkpt lat="45.45514979571421" lon="13.631889397710273"><ele>100.33333333333334</ele><time>2026-05-02T17:31:54Z</time></trkpt><trkpt lat="45.455110073965315" lon="13.632182995058695"><ele>100.0</ele><time>2026-05-02T17:31:55Z</time></trkpt><trkpt lat="45.45507377472886" lon="13.632466727789577"><ele>101.33333333333334</ele><time>2026-05-02T17:31:56Z</time></trkpt><trkpt lat="45.45503860764842" lon="13.632738177865212"><ele>102.66666666666666</ele><time>2026-05-02T17:31:57Z</time></trkpt><trkpt lat="45.45500414341723" lon="13.63299580308865"><ele>104.0</ele><time>2026-05-02T17:31:58Z</time></trkpt><trkpt lat="45.45497007754024" lon="13.633246421992892"><ele>104.33333333333333</ele><time>2026-05-02T17:31:59Z</time></trkpt><trkpt lat="45.45493844339451" lon="13.633473971108588"><ele>104.66666666666666</ele><time>2026-05-02T17:32:00Z</time></trkpt><trkpt lat="45.45491118955309" lon="13.633684762771185"><ele>105.0</ele><time>2026-05-02T17:32:01Z</time></trkpt><trkpt lat="45.45488131880521" lon="13.633883253311984"><ele>105.2</ele><time>2026-05-02T17:32:02Z</time></trkpt><trkpt lat="45.45484600468161" lon="13.634069091599025"><ele>105.4</ele><time>2026-05-02T17:32:03Z</time></trkpt><trkpt lat="45.45482814033434" lon="13.634225523744158"><ele>105.6</ele><time>2026-05-02T17:32:04Z</time></trkpt><trkpt lat="45.454813453895724" lon="13.634370925916674"><ele>105.8</ele><time>2026-05-02T17:32:05Z</time></trkpt><trkpt lat="45.45480415108178" lon="13.63450549381121"><ele>106.0</ele><time>2026-05-02T17:32:06Z</time></trkpt><trkpt lat="45.45479730032305" lon="13.634632598175262"><ele>106.16666666666667</ele><time>2026-05-02T17:32:07Z</time></trkpt><trkpt lat="45.45479103375608" lon="13.6347605837663"><ele>106.33333333333334</ele><time>2026-05-02T17:32:08Z</time></trkpt><trkpt lat="45.454789025263864" lon="13.634887524219206"><ele>106.5</ele><time>2026-05-02T17:32:09Z</time></trkpt><trkpt lat="45.45479068749582" lon="13.635012483725546"><ele>106.66666666666666</ele><time>2026-05-02T17:32:10Z</time></trkpt><trkpt lat="45.45479504331361" lon="13.63513219303115"><ele>106.83333333333333</ele><time>2026-05-02T17:32:11Z</time></trkpt><trkpt lat="45.4547996505094" lon="13.635249376441065"><ele>107.0</ele><time>2026-05-02T17:32:12Z</time></trkpt><trkpt lat="45.454809029088025" lon="13.635371061985923"><ele>106.33333333333333</ele><time>2026-05-02T17:32:13Z</time></trkpt><trkpt lat="45.45481885768328" lon="13.635490340315856"><ele>105.66666666666666</ele><time>2026-05-02T17:32:14Z</time></trkpt><trkpt lat="45.454827066901416" lon="13.635600379722437"><ele>105.0</ele><time>2026-05-02T17:32:15Z</time></trkpt><trkpt lat="45.45483912401302" lon="13.635711328099285"><ele>104.33333333333334</ele><time>2026-05-02T17:32:16Z</time></trkpt><trkpt lat="45.45485218714352" lon="13.63582001613023"><ele>103.66666666666667</ele><time>2026-05-02T17:32:17Z</time></trkpt><trkpt lat="45.454865072160814" lon="13.635929111515024"><ele>103.0</ele><time>2026-05-02T17:32:18Z</time></trkpt><trkpt lat="45.45488614118252" lon="13.636039305518677"><ele>102.50000000000001</ele><time>2026-05-02T17:32:19Z</time></trkpt><trkpt lat="45.45490652293088" lon="13.636151227890558"><ele>102.0</ele><time>2026-05-02T17:32:20Z</time></trkpt><trkpt lat="45.45492106592346" lon="13.636252475356326"><ele>101.5</ele><time>2026-05-02T17:32:21Z</time></trkpt><trkpt lat="45.454935393360664" lon="13.636349952744473"><ele>101.0</ele><time>2026-05-02T17:32:22Z</time></trkpt><trkpt lat="45.454941056468094" lon="13.636444197057465"><ele>100.50000000000001</ele><time>2026-05-02T17:32:23Z</time></trkpt><trkpt lat="45.454932025564744" lon="13.636537834319208"><ele>100.0</ele><time>2026-05-02T17:32:24Z</time></trkpt><trkpt lat="45.454909296197094" lon="13.636717682972732"><ele>100.00000000000001</ele><time>2026-05-02T17:32:26Z</time></trkpt><trkpt lat="45.45490663816996" lon="13.63681506556635"><ele>100.0</ele><time>2026-05-02T17:32:27Z</time></trkpt><trkpt lat="45.454925965216866" lon="13.636909286349159"><ele>100.0</ele><time>2026-05-02T17:32:28Z</time></trkpt><trkpt lat="45.45496105050082" lon="13.636988645243704"><ele>100.0</ele><time>2026-05-02T17:32:29Z</time></trkpt><trkpt lat="45.455011621940336" lon="13.637045144805871"><ele>100.0</ele><time>2026-05-02T17:32:30Z</time></trkpt><trkpt lat="45.45506717062533" lon="13.637092864263886"><ele>100.00000000000001</ele><time>2026-05-02T17:32:31Z</time></trkpt><trkpt lat="45.45512381881826" lon="13.637149358091047"><ele>100.0</ele><time>2026-05-02T17:32:32Z</time></trkpt><trkpt lat="45.45517656711589" lon="13.637225546552633"><ele>99.0</ele><time>2026-05-02T17:32:33Z</time></trkpt><trkpt lat="45.45522115339232" lon="13.637329459422952"><ele>98.0</ele><time>2026-05-02T17:32:34Z</time></trkpt><trkpt lat="45.45525455663147" lon="13.637449461298324"><ele>97.0</ele><time>2026-05-02T17:32:35Z</time></trkpt><trkpt lat="45.45526514351588" lon="13.637581783559106"><ele>96.0</ele><time>2026-05-02T17:32:36Z</time></trkpt><trkpt lat="45.45525426071994" lon="13.6377205296732"><ele>95.0</ele><time>2026-05-02T17:32:37Z</time></trkpt><trkpt lat="45.45521788158269" lon="13.637855600463517"><ele>93.6</ele><time>2026-05-02T17:32:38Z</time></trkpt><trkpt lat="45.45517242491985" lon="13.637991160757423"><ele>92.2</ele><time>2026-05-02T17:32:39Z</time></trkpt><trkpt lat="45.45511064934984" lon="13.638123947110337"><ele>90.80000000000001</ele><time>2026-05-02T17:32:40Z</time></trkpt><trkpt lat="45.455047631635466" lon="13.638252926460874"><ele>89.4</ele><time>2026-05-02T17:32:41Z</time></trkpt><trkpt lat="45.45498930560043" lon="13.638381685309819"><ele>88.0</ele><time>2026-05-02T17:32:42Z</time></trkpt><trkpt lat="45.45493424379971" lon="13.638503439691837"><ele>88.0</ele><time>2026-05-02T17:32:43Z</time></trkpt><trkpt lat="45.45488734869769" lon="13.638611104896071"><ele>88.0</ele><time>2026-05-02T17:32:44Z</time></trkpt><trkpt lat="45.45483896515391" lon="13.638724717543719"><ele>88.0</ele><time>2026-05-02T17:32:45Z</time></trkpt><trkpt lat="45.4547815927495" lon="13.638855634540736"><ele>88.0</ele><time>2026-05-02T17:32:46Z</time></trkpt><trkpt lat="45.454718366249466" lon="13.638993861109823"><ele>88.0</ele><time>2026-05-02T17:32:47Z</time></trkpt><trkpt lat="45.45465284256796" lon="13.639129685628367"><ele>87.80000000000001</ele><time>2026-05-02T17:32:48Z</time></trkpt><trkpt lat="45.454588023747796" lon="13.639255880535593"><ele>87.6</ele><time>2026-05-02T17:32:49Z</time></trkpt><trkpt lat="45.454527511678194" lon="13.63938510117679"><ele>87.4</ele><time>2026-05-02T17:32:50Z</time></trkpt><trkpt lat="45.45447665331669" lon="13.639517239568688"><ele>87.19999999999999</ele><time>2026-05-02T17:32:51Z</time></trkpt><trkpt lat="45.45443624749529" lon="13.639657502118308"><ele>87.0</ele><time>2026-05-02T17:32:52Z</time></trkpt><trkpt lat="45.45440160713757" lon="13.639791626936411"><ele>87.0</ele><time>2026-05-02T17:32:53Z</time></trkpt><trkpt lat="45.45437253801142" lon="13.639925516129797"><ele>87.0</ele><time>2026-05-02T17:32:54Z</time></trkpt><trkpt lat="45.45434786602204" lon="13.640048866454679"><ele>87.0</ele><time>2026-05-02T17:32:55Z</time></trkpt><trkpt lat="45.45433514540884" lon="13.64018999687588"><ele>87.0</ele><time>2026-05-02T17:32:56Z</time></trkpt><trkpt lat="45.45432433818043" lon="13.640326142905254"><ele>87.0</ele><time>2026-05-02T17:32:57Z</time></trkpt><trkpt lat="45.45431423827643" lon="13.64047837301047"><ele>86.39999999999999</ele><time>2026-05-02T17:32:58Z</time></trkpt><trkpt lat="45.45430980043831" lon="13.640633482337108"><ele>85.8</ele><time>2026-05-02T17:32:59Z</time></trkpt><trkpt lat="45.45431222306943" lon="13.640781822114382"><ele>85.2</ele><time>2026-05-02T17:33:00Z</time></trkpt><trkpt lat="45.45431958625503" lon="13.640932760404715"><ele>84.6</ele><time>2026-05-02T17:33:01Z</time></trkpt><trkpt lat="45.454326066140695" lon="13.64106396361297"><ele>84.0</ele><time>2026-05-02T17:33:02Z</time></trkpt><trkpt lat="45.45433476275526" lon="13.641192529589224"><ele>84.0</ele><time>2026-05-02T17:33:03Z</time></trkpt><trkpt lat="45.45434418508188" lon="13.641319878518184"><ele>84.0</ele><time>2026-05-02T17:33:04Z</time></trkpt><trkpt lat="45.454354671257725" lon="13.641446493958322"><ele>84.0</ele><time>2026-05-02T17:33:05Z</time></trkpt><trkpt lat="45.45436515747252" lon="13.641570827578708"><ele>84.0</ele><time>2026-05-02T17:33:06Z</time></trkpt><trkpt lat="45.45437397128614" lon="13.641700399726199"><ele>84.0</ele><time>2026-05-02T17:33:07Z</time></trkpt><trkpt lat="45.4543792665846" lon="13.641830843951157"><ele>83.6</ele><time>2026-05-02T17:33:08Z</time></trkpt><trkpt lat="45.4543656059527" lon="13.641973365226017"><ele>83.2</ele><time>2026-05-02T17:33:09Z</time></trkpt><trkpt lat="45.45436575307932" lon="13.642124327921266"><ele>82.8</ele><time>2026-05-02T17:33:10Z</time></trkpt><trkpt lat="45.45436819969115" lon="13.642281011164895"><ele>82.39999999999999</ele><time>2026-05-02T17:33:11Z</time></trkpt><trkpt lat="45.454363789495254" lon="13.642442426198764"><ele>82.0</ele><time>2026-05-02T17:33:12Z</time></trkpt><trkpt lat="45.45434247291238" lon="13.642613541211272"><ele>82.0</ele><time>2026-05-02T17:33:13Z</time></trkpt><trkpt lat="45.45432796545954" lon="13.642796741867864"><ele>82.0</ele><time>2026-05-02T17:33:14Z</time></trkpt><trkpt lat="45.45431130872871" lon="13.64298399159986"><ele>82.0</ele><time>2026-05-02T17:33:15Z</time></trkpt><trkpt lat="45.45429311492512" lon="13.643169836036824"><ele>82.0</ele><time>2026-05-02T17:33:16Z</time></trkpt><trkpt lat="45.45427523056603" lon="13.643354170296837"><ele>80.5</ele><time>2026-05-02T17:33:17Z</time></trkpt><trkpt lat="45.45425036734365" lon="13.643539913008581"><ele>79.0</ele><time>2026-05-02T17:33:18Z</time></trkpt><trkpt lat="45.45423267154568" lon="13.643725616156836"><ele>77.5</ele><time>2026-05-02T17:33:19Z</time></trkpt><trkpt lat="45.45421317030578" lon="13.643909018752414"><ele>76.0</ele><time>2026-05-02T17:33:20Z</time></trkpt><trkpt lat="45.45419497264342" lon="13.644085814103327"><ele>74.2</ele><time>2026-05-02T17:33:21Z</time></trkpt><trkpt lat="45.454176350429094" lon="13.644246231011188"><ele>72.39999999999999</ele><time>2026-05-02T17:33:22Z</time></trkpt><trkpt lat="45.45415580949062" lon="13.64439225185242"><ele>70.6</ele><time>2026-05-02T17:33:23Z</time></trkpt><trkpt lat="45.45413455456376" lon="13.644540004173562"><ele>68.8</ele><time>2026-05-02T17:33:24Z</time></trkpt><trkpt lat="45.45410751959168" lon="13.644686884180452"><ele>67.0</ele><time>2026-05-02T17:33:25Z</time></trkpt><trkpt lat="45.454074783376" lon="13.644827390978232"><ele>65.66666666666666</ele><time>2026-05-02T17:33:26Z</time></trkpt><trkpt lat="45.454042331033506" lon="13.644952520690444"><ele>64.33333333333333</ele><time>2026-05-02T17:33:27Z</time></trkpt><trkpt lat="45.454013228250965" lon="13.645054773606851"><ele>63.0</ele><time>2026-05-02T17:33:28Z</time></trkpt><trkpt lat="45.45398109494502" lon="13.645156557910571"><ele>61.66666666666667</ele><time>2026-05-02T17:33:29Z</time></trkpt><trkpt lat="45.45395099911712" lon="13.645269529394515"><ele>60.333333333333336</ele><time>2026-05-02T17:33:30Z</time></trkpt><trkpt lat="45.45391722567692" lon="13.645388305620457"><ele>59.0</ele><time>2026-05-02T17:33:31Z</time></trkpt><trkpt lat="45.453875619610045" lon="13.64550760602119"><ele>57.6</ele><time>2026-05-02T17:33:32Z</time></trkpt><trkpt lat="45.45382606307866" lon="13.64563177020748"><ele>56.2</ele><time>2026-05-02T17:33:33Z</time></trkpt><trkpt lat="45.45377137919805" lon="13.64574649342091"><ele>54.800000000000004</ele><time>2026-05-02T17:33:34Z</time></trkpt><trkpt lat="45.4537202402785" lon="13.64584305349663"><ele>53.400000000000006</ele><time>2026-05-02T17:33:35Z</time></trkpt><trkpt lat="45.453656319499856" lon="13.645939909714244"><ele>52.0</ele><time>2026-05-02T17:33:36Z</time></trkpt><trkpt lat="45.45358090586523" lon="13.646035529862747"><ele>51.8</ele><time>2026-05-02T17:33:37Z</time></trkpt><trkpt lat="45.453501831075336" lon="13.646129469948665"><ele>51.6</ele><time>2026-05-02T17:33:38Z</time></trkpt><trkpt lat="45.45341837472382" lon="13.646225232524268"><ele>51.4</ele><time>2026-05-02T17:33:39Z</time></trkpt><trkpt lat="45.45332352852103" lon="13.646311223357984"><ele>51.199999999999996</ele><time>2026-05-02T17:33:40Z</time></trkpt><trkpt lat="45.45322280364076" lon="13.646389747723077"><ele>51.0</ele><time>2026-05-02T17:33:41Z</time></trkpt><trkpt lat="45.45312696671522" lon="13.646485478307458"><ele>51.0</ele><time>2026-05-02T17:33:42Z</time></trkpt><trkpt lat="45.45303657593957" lon="13.646588839033633"><ele>51.0</ele><time>2026-05-02T17:33:43Z</time></trkpt><trkpt lat="45.452951952799786" lon="13.64670452688672"><ele>51.0</ele><time>2026-05-02T17:33:44Z</time></trkpt><trkpt lat="45.45286488466206" lon="13.646812078351862"><ele>51.0</ele><time>2026-05-02T17:33:45Z</time></trkpt><trkpt lat="45.452779873883266" lon="13.646924332532134"><ele>51.5</ele><time>2026-05-02T17:33:46Z</time></trkpt><trkpt lat="45.4526925560855" lon="13.647033954661651"><ele>52.0</ele><time>2026-05-02T17:33:47Z</time></trkpt><trkpt lat="45.45260730898841" lon="13.64714825418234"><ele>52.5</ele><time>2026-05-02T17:33:48Z</time></trkpt><trkpt lat="45.45252570768002" lon="13.647265780563758"><ele>53.0</ele><time>2026-05-02T17:33:49Z</time></trkpt><trkpt lat="45.45244922139056" lon="13.647390220042029"><ele>53.0</ele><time>2026-05-02T17:33:50Z</time></trkpt><trkpt lat="45.45237927777825" lon="13.647522495409785"><ele>53.0</ele><time>2026-05-02T17:33:51Z</time></trkpt><trkpt lat="45.45231534072926" lon="13.647661651382522"><ele>53.0</ele><time>2026-05-02T17:33:52Z</time></trkpt><trkpt lat="45.45225392887771" lon="13.647805312404873"><ele>53.0</ele><time>2026-05-02T17:33:53Z</time></trkpt><trkpt lat="45.452191846882286" lon="13.647949300195762"><ele>56.0</ele><time>2026-05-02T17:33:54Z</time></trkpt><trkpt lat="45.452133808986" lon="13.64809662896119"><ele>59.0</ele><time>2026-05-02T17:33:55Z</time></trkpt><trkpt lat="45.452076910418064" lon="13.648244890289916"><ele>62.0</ele><time>2026-05-02T17:33:56Z</time></trkpt><trkpt lat="45.45202112141192" lon="13.648394958599361"><ele>65.0</ele><time>2026-05-02T17:33:57Z</time></trkpt><trkpt lat="45.45196353932516" lon="13.648542098146205"><ele>62.8</ele><time>2026-05-02T17:33:58Z</time></trkpt><trkpt lat="45.45190721559003" lon="13.648688187370027"><ele>60.6</ele><time>2026-05-02T17:33:59Z</time></trkpt><trkpt lat="45.45184873638109" lon="13.648823699420614"><ele>58.400000000000006</ele><time>2026-05-02T17:34:00Z</time></trkpt><trkpt lat="45.45178788497505" lon="13.648944588065406"><ele>56.2</ele><time>2026-05-02T17:34:01Z</time></trkpt><trkpt lat="45.45173100014478" lon="13.64904990631007"><ele>54.0</ele><time>2026-05-02T17:34:02Z</time></trkpt><trkpt lat="45.451682945553905" lon="13.649142075623308"><ele>54.0</ele><time>2026-05-02T17:34:03Z</time></trkpt><trkpt lat="45.45165093732802" lon="13.64923118793973"><ele>54.0</ele><time>2026-05-02T17:34:04Z</time></trkpt><trkpt lat="45.45164138523002" lon="13.64932622253177"><ele>54.0</ele><time>2026-05-02T17:34:05Z</time></trkpt><trkpt lat="45.45165430289397" lon="13.649418099946853"><ele>54.0</ele><time>2026-05-02T17:34:06Z</time></trkpt><trkpt lat="45.451694320284844" lon="13.649497442421664"><ele>54.0</ele><time>2026-05-02T17:34:07Z</time></trkpt><trkpt lat="45.451751795988365" lon="13.649551403274222"><ele>54.0</ele><time>2026-05-02T17:34:08Z</time></trkpt><trkpt lat="45.45181923046186" lon="13.649571715301748"><ele>54.0</ele><time>2026-05-02T17:34:09Z</time></trkpt><trkpt lat="45.45188377362828" lon="13.649560701519018"><ele>54.0</ele><time>2026-05-02T17:34:10Z</time></trkpt><trkpt lat="45.45194378515032" lon="13.649530444351827"><ele>54.0</ele><time>2026-05-02T17:34:11Z</time></trkpt><trkpt lat="45.45202045007891" lon="13.649421001469294"><ele>54.0</ele><time>2026-05-02T17:34:13Z</time></trkpt><trkpt lat="45.45206951325578" lon="13.649322808007025"><ele>54.0</ele><time>2026-05-02T17:34:15Z</time></trkpt><trkpt lat="45.45212502285683" lon="13.649233542696049"><ele>54.0</ele><time>2026-05-02T17:34:18Z</time></trkpt><trkpt lat="45.45218177024917" lon="13.649172225924929"><ele>54.0</ele><time>2026-05-02T17:34:21Z</time></trkpt><trkpt lat="45.45225872579637" lon="13.649136666195195"><ele>51.400000000000006</ele><time>2026-05-02T17:34:24Z</time></trkpt><trkpt lat="45.452337949482235" lon="13.649070584951378"><ele>48.800000000000004</ele><time>2026-05-02T17:34:27Z</time></trkpt><trkpt lat="45.45242265906397" lon="13.64906382771794"><ele>46.2</ele><time>2026-05-02T17:34:29Z</time></trkpt><trkpt lat="45.45252888410691" lon="13.649049303622023"><ele>43.599999999999994</ele><time>2026-05-02T17:34:31Z</time></trkpt><trkpt lat="45.45265475313093" lon="13.649045550385754"><ele>41.0</ele><time>2026-05-02T17:34:33Z</time></trkpt><trkpt lat="45.45272177229079" lon="13.649051890105653"><ele>40.99999999999999</ele><time>2026-05-02T17:34:34Z</time></trkpt><trkpt lat="45.452788191221394" lon="13.649063903071454"><ele>41.0</ele><time>2026-05-02T17:34:35Z</time></trkpt><trkpt lat="45.45285317170903" lon="13.649082555056049"><ele>41.0</ele><time>2026-05-02T17:34:36Z</time></trkpt><trkpt lat="45.452918993204975" lon="13.649104765524434"><ele>41.0</ele><time>2026-05-02T17:34:37Z</time></trkpt><trkpt lat="45.45298126583302" lon="13.649133639459501"><ele>41.0</ele><time>2026-05-02T17:34:38Z</time></trkpt><trkpt lat="45.453040466124655" lon="13.649164865319829"><ele>40.99999999999999</ele><time>2026-05-02T17:34:39Z</time></trkpt><trkpt lat="45.453138378092554" lon="13.649206161118954"><ele>41.0</ele><time>2026-05-02T17:34:41Z</time></trkpt><trkpt lat="45.45320308826301" lon="13.649271033800746"><ele>40.166666666666664</ele><time>2026-05-02T17:34:43Z</time></trkpt><trkpt lat="45.45328037306348" lon="13.649351004515388"><ele>39.33333333333333</ele><time>2026-05-02T17:34:46Z</time></trkpt><trkpt lat="45.453353612962616" lon="13.649425360561949"><ele>38.5</ele><time>2026-05-02T17:34:48Z</time></trkpt><trkpt lat="45.453410745342815" lon="13.649531453610665"><ele>37.666666666666664</ele><time>2026-05-02T17:34:50Z</time></trkpt><trkpt lat="45.45345541856864" lon="13.649637946187898"><ele>36.833333333333336</ele><time>2026-05-02T17:34:52Z</time></trkpt><trkpt lat="45.4534906417924" lon="13.649720377631105"><ele>36.0</ele><time>2026-05-02T17:34:54Z</time></trkpt><trkpt lat="45.453510267061944" lon="13.649815345853135"><ele>36.0</ele><time>2026-05-02T17:34:57Z</time></trkpt><trkpt lat="45.45353461912358" lon="13.649903918148992"><ele>36.0</ele><time>2026-05-02T17:35:00Z</time></trkpt><trkpt lat="45.45355199872063" lon="13.650022813438037"><ele>36.0</ele><time>2026-05-02T17:35:03Z</time></trkpt><trkpt lat="45.453551237794535" lon="13.65015754814847"><ele>36.0</ele><time>2026-05-02T17:35:06Z</time></trkpt><trkpt lat="45.453546039402966" lon="13.65030016115759"><ele>36.0</ele><time>2026-05-02T17:35:08Z</time></trkpt><trkpt lat="45.453554873799035" lon="13.650396040616211"><ele>36.0</ele><time>2026-05-02T17:35:09Z</time></trkpt><trkpt lat="45.453562127005675" lon="13.65048527285492"><ele>36.166666666666664</ele><time>2026-05-02T17:35:10Z</time></trkpt><trkpt lat="45.45356378662082" lon="13.650583195522373"><ele>36.333333333333336</ele><time>2026-05-02T17:35:11Z</time></trkpt><trkpt lat="45.453564394321546" lon="13.650678122727314"><ele>36.5</ele><time>2026-05-02T17:35:12Z</time></trkpt><trkpt lat="45.45354800222136" lon="13.650865172464242"><ele>36.66666666666667</ele><time>2026-05-02T17:35:14Z</time></trkpt><trkpt lat="45.45353424235301" lon="13.650967989487087"><ele>36.833333333333336</ele><time>2026-05-02T17:35:15Z</time></trkpt><trkpt lat="45.453517003001984" lon="13.651069904213404"><ele>37.0</ele><time>2026-05-02T17:35:16Z</time></trkpt><trkpt lat="45.45350104431468" lon="13.651170976749837"><ele>35.66666666666667</ele><time>2026-05-02T17:35:17Z</time></trkpt><trkpt lat="45.45347998111844" lon="13.651267882927064"><ele>34.333333333333336</ele><time>2026-05-02T17:35:18Z</time></trkpt><trkpt lat="45.453458412223995" lon="13.651366744668223"><ele>33.0</ele><time>2026-05-02T17:35:19Z</time></trkpt><trkpt lat="45.45343469085269" lon="13.651469595758392"><ele>31.666666666666664</ele><time>2026-05-02T17:35:20Z</time></trkpt><trkpt lat="45.45340719653528" lon="13.651569528092502"><ele>30.333333333333332</ele><time>2026-05-02T17:35:21Z</time></trkpt><trkpt lat="45.45337694900525" lon="13.651669321717227"><ele>29.0</ele><time>2026-05-02T17:35:22Z</time></trkpt><trkpt lat="45.45334447863474" lon="13.651772360627403"><ele>28.999999999999996</ele><time>2026-05-02T17:35:23Z</time></trkpt><trkpt lat="45.45331051869426" lon="13.651876856794232"><ele>29.0</ele><time>2026-05-02T17:35:24Z</time></trkpt><trkpt lat="45.453262446227484" lon="13.651968527875052"><ele>29.0</ele><time>2026-05-02T17:35:25Z</time></trkpt><trkpt lat="45.45322614868203" lon="13.652072752896707"><ele>29.0</ele><time>2026-05-02T17:35:26Z</time></trkpt><trkpt lat="45.45319052821743" lon="13.652175033743925"><ele>28.999999999999996</ele><time>2026-05-02T17:35:27Z</time></trkpt><trkpt lat="45.453154297059434" lon="13.65227906814419"><ele>29.0</ele><time>2026-05-02T17:35:28Z</time></trkpt><trkpt lat="45.453117938681494" lon="13.652383467839192"><ele>30.333333333333332</ele><time>2026-05-02T17:35:29Z</time></trkpt><trkpt lat="45.453081339922186" lon="13.652488557769944"><ele>31.666666666666664</ele><time>2026-05-02T17:35:30Z</time></trkpt><trkpt lat="45.45304496544746" lon="13.652593003682147"><ele>33.0</ele><time>2026-05-02T17:35:31Z</time></trkpt><trkpt lat="45.45300927011036" lon="13.65269486927176"><ele>34.333333333333336</ele><time>2026-05-02T17:35:32Z</time></trkpt><trkpt lat="45.4529711408277" lon="13.652799620442492"><ele>35.66666666666667</ele><time>2026-05-02T17:35:33Z</time></trkpt><trkpt lat="45.452932170153915" lon="13.652906683112016"><ele>37.0</ele><time>2026-05-02T17:35:34Z</time></trkpt><trkpt lat="45.45289300425918" lon="13.653014282129462"><ele>37.0</ele><time>2026-05-02T17:35:35Z</time></trkpt><trkpt lat="45.45285549384449" lon="13.65311733307721"><ele>37.0</ele><time>2026-05-02T17:35:36Z</time></trkpt><trkpt lat="45.45281840381542" lon="13.653219229125822"><ele>37.0</ele><time>2026-05-02T17:35:37Z</time></trkpt><trkpt lat="45.452781147700385" lon="13.653322584241234"><ele>37.0</ele><time>2026-05-02T17:35:38Z</time></trkpt><trkpt lat="45.45274506786032" lon="13.65342428427682"><ele>37.0</ele><time>2026-05-02T17:35:39Z</time></trkpt><trkpt lat="45.4527060493647" lon="13.653534267659944"><ele>37.0</ele><time>2026-05-02T17:35:40Z</time></trkpt><trkpt lat="45.452667780355014" lon="13.653642138438183"><ele>33.66666666666667</ele><time>2026-05-02T17:35:41Z</time></trkpt><trkpt lat="45.452631302150046" lon="13.65374614324698"><ele>30.333333333333336</ele><time>2026-05-02T17:35:42Z</time></trkpt><trkpt lat="45.452597038692694" lon="13.653843853982076"><ele>27.0</ele><time>2026-05-02T17:35:43Z</time></trkpt><trkpt lat="45.45256860238764" lon="13.653929702823847"><ele>23.666666666666668</ele><time>2026-05-02T17:35:44Z</time></trkpt><trkpt lat="45.452548733633655" lon="13.65403831436007"><ele>20.333333333333336</ele><time>2026-05-02T17:35:47Z</time></trkpt><trkpt lat="45.452505910002834" lon="13.65413856015312"><ele>17.0</ele><time>2026-05-02T17:35:51Z</time></trkpt><trkpt lat="45.45248991377726" lon="13.654257831686055"><ele>17.0</ele><time>2026-05-02T17:35:53Z</time></trkpt><trkpt lat="45.45250993879868" lon="13.65440557605766"><ele>17.0</ele><time>2026-05-02T17:35:55Z</time></trkpt><trkpt lat="45.45258140543869" lon="13.654559031590932"><ele>17.0</ele><time>2026-05-02T17:35:57Z</time></trkpt><trkpt lat="45.4526247011835" lon="13.654633919998881"><ele>17.0</ele><time>2026-05-02T17:35:58Z</time></trkpt><trkpt lat="45.45268580589444" lon="13.654681402116099"><ele>17.0</ele><time>2026-05-02T17:35:59Z</time></trkpt><trkpt lat="45.45278759644067" lon="13.654780523094336"><ele>16.666666666666668</ele><time>2026-05-02T17:36:01Z</time></trkpt><trkpt lat="45.45284014861282" lon="13.654831697064584"><ele>16.333333333333336</ele><time>2026-05-02T17:36:02Z</time></trkpt><trkpt lat="45.452897394901065" lon="13.654887441980001"><ele>16.0</ele><time>2026-05-02T17:36:03Z</time></trkpt><trkpt lat="45.45295256236084" lon="13.654941162645743"><ele>15.666666666666668</ele><time>2026-05-02T17:36:04Z</time></trkpt><trkpt lat="45.45301408419407" lon="13.654975501455546"><ele>15.333333333333334</ele><time>2026-05-02T17:36:05Z</time></trkpt><trkpt lat="45.45311870505818" lon="13.655077026478773"><ele>15.0</ele><time>2026-05-02T17:36:07Z</time></trkpt><trkpt lat="45.453176919985665" lon="13.655132591342337"><ele>14.666666666666666</ele><time>2026-05-02T17:36:08Z</time></trkpt><trkpt lat="45.45323904199383" lon="13.655194132209129"><ele>14.333333333333332</ele><time>2026-05-02T17:36:09Z</time></trkpt><trkpt lat="45.45330055027111" lon="13.655258647130891"><ele>14.0</ele><time>2026-05-02T17:36:10Z</time></trkpt><trkpt lat="45.45336424452631" lon="13.655324764089553"><ele>13.666666666666666</ele><time>2026-05-02T17:36:11Z</time></trkpt><trkpt lat="45.45343075644674" lon="13.655385563394644"><ele>13.333333333333332</ele><time>2026-05-02T17:36:12Z</time></trkpt><trkpt lat="45.45349816102807" lon="13.655445190815271"><ele>13.0</ele><time>2026-05-02T17:36:13Z</time></trkpt><trkpt lat="45.45356231785182" lon="13.655508488284033"><ele>12.999999999999998</ele><time>2026-05-02T17:36:14Z</time></trkpt><trkpt lat="45.45362020292843" lon="13.655572262909908"><ele>13.0</ele><time>2026-05-02T17:36:15Z</time></trkpt><trkpt lat="45.45368019755514" lon="13.655626236963938"><ele>13.0</ele><time>2026-05-02T17:36:16Z</time></trkpt><trkpt lat="45.45372713320548" lon="13.655702879679627"><ele>13.0</ele><time>2026-05-02T17:36:17Z</time></trkpt><trkpt lat="45.45378982623576" lon="13.655739441998518"><ele>12.999999999999998</ele><time>2026-05-02T17:36:18Z</time></trkpt><trkpt lat="45.45388041568852" lon="13.655862160527239"><ele>13.0</ele><time>2026-05-02T17:36:20Z</time></trkpt><trkpt lat="45.45397735108431" lon="13.65596288926671"><ele>12.8</ele><time>2026-05-02T17:36:22Z</time></trkpt><trkpt lat="45.45406504248891" lon="13.6560537779127"><ele>12.600000000000001</ele><time>2026-05-02T17:36:24Z</time></trkpt><trkpt lat="45.45414873482814" lon="13.656141171484753"><ele>12.399999999999999</ele><time>2026-05-02T17:36:26Z</time></trkpt><trkpt lat="45.454246843650616" lon="13.65619349456829"><ele>12.2</ele><time>2026-05-02T17:36:28Z</time></trkpt><trkpt lat="45.454338006455686" lon="13.656296433999746"><ele>12.0</ele><time>2026-05-02T17:36:30Z</time></trkpt><trkpt lat="45.45440078847037" lon="13.65640228060109"><ele>12.0</ele><time>2026-05-02T17:36:32Z</time></trkpt><trkpt lat="45.45445407875206" lon="13.656458481516017"><ele>12.0</ele><time>2026-05-02T17:36:34Z</time></trkpt><trkpt lat="45.45451019375038" lon="13.656516443102095"><ele>12.0</ele><time>2026-05-02T17:36:36Z</time></trkpt><trkpt lat="45.454582214086756" lon="13.656591136110475"><ele>12.0</ele><time>2026-05-02T17:36:39Z</time></trkpt><trkpt lat="45.4546650315679" lon="13.656641551796858"><ele>12.0</ele><time>2026-05-02T17:36:42Z</time></trkpt><trkpt lat="45.454719942044335" lon="13.656694649849117"><ele>12.0</ele><time>2026-05-02T17:36:44Z</time></trkpt><trkpt lat="45.454773476739135" lon="13.656758272218797"><ele>11.8</ele><time>2026-05-02T17:36:46Z</time></trkpt><trkpt lat="45.45484187101563" lon="13.656840033893879"><ele>11.6</ele><time>2026-05-02T17:36:48Z</time></trkpt><trkpt lat="45.45491685361179" lon="13.656893191131353"><ele>11.4</ele><time>2026-05-02T17:36:49Z</time></trkpt><trkpt lat="45.45501562433913" lon="13.657003048153959"><ele>11.200000000000001</ele><time>2026-05-02T17:36:51Z</time></trkpt><trkpt lat="45.4550849641461" lon="13.657058072081853"><ele>11.0</ele><time>2026-05-02T17:36:52Z</time></trkpt><trkpt lat="45.45516623917661" lon="13.65712889866832"><ele>11.0</ele><time>2026-05-02T17:36:53Z</time></trkpt><trkpt lat="45.45525294539681" lon="13.657213185922988"><ele>11.0</ele><time>2026-05-02T17:36:54Z</time></trkpt><trkpt lat="45.45534956979188" lon="13.6573066597697"><ele>11.0</ele><time>2026-05-02T17:36:55Z</time></trkpt><trkpt lat="45.45545599591506" lon="13.657407290234053"><ele>11.0</ele><time>2026-05-02T17:36:56Z</time></trkpt><trkpt lat="45.455557617988056" lon="13.657507394442703"><ele>11.0</ele><time>2026-05-02T17:36:57Z</time></trkpt><trkpt lat="45.45565566716168" lon="13.657604685517176"><ele>11.0</ele><time>2026-05-02T17:36:58Z</time></trkpt><trkpt lat="45.4557554323557" lon="13.657705756570511"><ele>11.0</ele><time>2026-05-02T17:36:59Z</time></trkpt><trkpt lat="45.45586378118076" lon="13.657813680174787"><ele>11.0</ele><time>2026-05-02T17:37:00Z</time></trkpt><trkpt lat="45.455984867218795" lon="13.657925838626415"><ele>11.333333333333332</ele><time>2026-05-02T17:37:01Z</time></trkpt><trkpt lat="45.456116064767336" lon="13.658033878602504"><ele>11.666666666666666</ele><time>2026-05-02T17:37:02Z</time></trkpt><trkpt lat="45.45625561652976" lon="13.658126674261927"><ele>12.0</ele><time>2026-05-02T17:37:03Z</time></trkpt><trkpt lat="45.45639685351845" lon="13.658205776964106"><ele>11.333333333333334</ele><time>2026-05-02T17:37:04Z</time></trkpt><trkpt lat="45.45654512458115" lon="13.658258553763972"><ele>10.666666666666668</ele><time>2026-05-02T17:37:05Z</time></trkpt><trkpt lat="45.456695748732855" lon="13.658286426649063"><ele>10.0</ele><time>2026-05-02T17:37:06Z</time></trkpt><trkpt lat="45.45685112067721" lon="13.658301378800461"><ele>10.0</ele><time>2026-05-02T17:37:07Z</time></trkpt><trkpt lat="45.457012034565885" lon="13.658307312662112"><ele>10.0</ele><time>2026-05-02T17:37:08Z</time></trkpt><trkpt lat="45.45717633820796" lon="13.658309742380702"><ele>10.0</ele><time>2026-05-02T17:37:09Z</time></trkpt><trkpt lat="45.45734118386387" lon="13.6582990439876"><ele>9.666666666666668</ele><time>2026-05-02T17:37:10Z</time></trkpt><trkpt lat="45.45750960789007" lon="13.658271403318237"><ele>9.333333333333334</ele><time>2026-05-02T17:37:11Z</time></trkpt><trkpt lat="45.45767710374055" lon="13.658228750671066"><ele>9.0</ele><time>2026-05-02T17:37:12Z</time></trkpt><trkpt lat="45.457843859926115" lon="13.658167519989812"><ele>9.0</ele><time>2026-05-02T17:37:13Z</time></trkpt><trkpt lat="45.45800518466137" lon="13.658091603245207"><ele>9.0</ele><time>2026-05-02T17:37:14Z</time></trkpt><trkpt lat="45.458157759871995" lon="13.658003587609858"><ele>9.0</ele><time>2026-05-02T17:37:15Z</time></trkpt><trkpt lat="45.458307417818375" lon="13.65790948936901"><ele>9.0</ele><time>2026-05-02T17:37:16Z</time></trkpt><trkpt lat="45.45845477201386" lon="13.65781424918978"><ele>9.0</ele><time>2026-05-02T17:37:17Z</time></trkpt><trkpt lat="45.458598092833824" lon="13.657717660274551"><ele>9.0</ele><time>2026-05-02T17:37:18Z</time></trkpt><trkpt lat="45.458737853331606" lon="13.65762900258231"><ele>9.75</ele><time>2026-05-02T17:37:19Z</time></trkpt><trkpt lat="45.45886912596647" lon="13.65754551523747"><ele>10.5</ele><time>2026-05-02T17:37:20Z</time></trkpt><trkpt lat="45.458999950741266" lon="13.65747203966687"><ele>11.25</ele><time>2026-05-02T17:37:21Z</time></trkpt><trkpt lat="45.45912848188809" lon="13.657406108353678"><ele>12.0</ele><time>2026-05-02T17:37:22Z</time></trkpt><trkpt lat="45.45924605371669" lon="13.657350861838188"><ele>12.0</ele><time>2026-05-02T17:37:23Z</time></trkpt><trkpt lat="45.45935033638762" lon="13.657303859861603"><ele>12.0</ele><time>2026-05-02T17:37:24Z</time></trkpt><trkpt lat="45.459444103887115" lon="13.65726766191659"><ele>12.0</ele><time>2026-05-02T17:37:25Z</time></trkpt><trkpt lat="45.45952636841937" lon="13.657238375816357"><ele>12.0</ele><time>2026-05-02T17:37:26Z</time></trkpt><trkpt lat="45.45959955358752" lon="13.657216092578699"><ele>12.0</ele><time>2026-05-02T17:37:27Z</time></trkpt><trkpt lat="45.459663068081596" lon="13.657196063278558"><ele>12.0</ele><time>2026-05-02T17:37:28Z</time></trkpt><trkpt lat="45.459777737612036" lon="13.657166919692552"><ele>12.5</ele><time>2026-05-02T17:37:30Z</time></trkpt><trkpt lat="45.45989152088299" lon="13.657150130075424"><ele>13.0</ele><time>2026-05-02T17:37:32Z</time></trkpt><trkpt lat="45.4599839986115" lon="13.657137747087138"><ele>13.5</ele><time>2026-05-02T17:37:34Z</time></trkpt><trkpt lat="45.46006274984512" lon="13.657132028106988"><ele>14.0</ele><time>2026-05-02T17:37:36Z</time></trkpt><trkpt lat="45.46012945504394" lon="13.657120945388144"><ele>14.5</ele><time>2026-05-02T17:37:38Z</time></trkpt><trkpt lat="45.4601939785807" lon="13.657114508938294"><ele>15.0</ele><time>2026-05-02T17:37:40Z</time></trkpt><trkpt lat="45.46026118824207" lon="13.657102936134061"><ele>15.0</ele><time>2026-05-02T17:37:43Z</time></trkpt><trkpt lat="45.46036625092771" lon="13.657083215255074"><ele>15.0</ele><time>2026-05-02T17:37:45Z</time></trkpt><trkpt lat="45.46048358212703" lon="13.657084293952577"><ele>15.0</ele><time>2026-05-02T17:37:47Z</time></trkpt><trkpt lat="45.46056479876746" lon="13.657097758189659"><ele>15.0</ele><time>2026-05-02T17:37:48Z</time></trkpt><trkpt lat="45.46065777277461" lon="13.65712784873595"><ele>15.0</ele><time>2026-05-02T17:37:49Z</time></trkpt><trkpt lat="45.46075189933786" lon="13.657172415341423"><ele>14.8</ele><time>2026-05-02T17:37:50Z</time></trkpt><trkpt lat="45.4608376008826" lon="13.657225047245669"><ele>14.6</ele><time>2026-05-02T17:37:51Z</time></trkpt><trkpt lat="45.460918921806204" lon="13.657293003628723"><ele>14.399999999999999</ele><time>2026-05-02T17:37:52Z</time></trkpt><trkpt lat="45.46100411317272" lon="13.657384118106192"><ele>14.2</ele><time>2026-05-02T17:37:53Z</time></trkpt><trkpt lat="45.46108997954147" lon="13.657489884761805"><ele>14.0</ele><time>2026-05-02T17:37:54Z</time></trkpt><trkpt lat="45.46117523181437" lon="13.65761414586375"><ele>14.0</ele><time>2026-05-02T17:37:55Z</time></trkpt><trkpt lat="45.461259366092186" lon="13.657757929536805"><ele>14.0</ele><time>2026-05-02T17:37:56Z</time></trkpt><trkpt lat="45.46133842434357" lon="13.657914906116096"><ele>14.0</ele><time>2026-05-02T17:37:57Z</time></trkpt><trkpt lat="45.46141801236355" lon="13.65806800886431"><ele>14.0</ele><time>2026-05-02T17:37:58Z</time></trkpt><trkpt lat="45.46149178978614" lon="13.658208989833113"><ele>16.0</ele><time>2026-05-02T17:37:59Z</time></trkpt><trkpt lat="45.46158845260025" lon="13.658328451342017"><ele>18.0</ele><time>2026-05-02T17:38:00Z</time></trkpt><trkpt lat="45.46169859151808" lon="13.658447940722283"><ele>20.0</ele><time>2026-05-02T17:38:01Z</time></trkpt><trkpt lat="45.46181715983671" lon="13.658563045611803"><ele>22.0</ele><time>2026-05-02T17:38:02Z</time></trkpt><trkpt lat="45.46194606989296" lon="13.65867341121312"><ele>24.333333333333332</ele><time>2026-05-02T17:38:03Z</time></trkpt><trkpt lat="45.462087693279614" lon="13.658775283630323"><ele>26.666666666666664</ele><time>2026-05-02T17:38:04Z</time></trkpt><trkpt lat="45.46223454563784" lon="13.658873299254344"><ele>29.0</ele><time>2026-05-02T17:38:05Z</time></trkpt><trkpt lat="45.46238465574137" lon="13.658971256351247"><ele>29.0</ele><time>2026-05-02T17:38:06Z</time></trkpt><trkpt lat="45.46254163785125" lon="13.659069240982557"><ele>29.0</ele><time>2026-05-02T17:38:07Z</time></trkpt><trkpt lat="45.462704859782015" lon="13.6591643888494"><ele>29.0</ele><time>2026-05-02T17:38:08Z</time></trkpt><trkpt lat="45.46287082993969" lon="13.659263267686939"><ele>31.666666666666664</ele><time>2026-05-02T17:38:09Z</time></trkpt><trkpt lat="45.46303577584276" lon="13.659368566621666"><ele>34.333333333333336</ele><time>2026-05-02T17:38:10Z</time></trkpt><trkpt lat="45.46321463763653" lon="13.659454658377145"><ele>37.0</ele><time>2026-05-02T17:38:11Z</time></trkpt><trkpt lat="45.46340102735151" lon="13.659538133371548"><ele>37.0</ele><time>2026-05-02T17:38:12Z</time></trkpt><trkpt lat="45.46358418987902" lon="13.65962121859515"><ele>37.0</ele><time>2026-05-02T17:38:13Z</time></trkpt><trkpt lat="45.46376247316006" lon="13.659705586901996"><ele>37.0</ele><time>2026-05-02T17:38:14Z</time></trkpt><trkpt lat="45.46393835461105" lon="13.659792019087332"><ele>32.0</ele><time>2026-05-02T17:38:15Z</time></trkpt><trkpt lat="45.464106666678354" lon="13.65988364372855"><ele>27.0</ele><time>2026-05-02T17:38:16Z</time></trkpt><trkpt lat="45.46426295293448" lon="13.659987536681491"><ele>22.0</ele><time>2026-05-02T17:38:17Z</time></trkpt><trkpt lat="45.46440369152645" lon="13.660110293584667"><ele>22.0</ele><time>2026-05-02T17:38:18Z</time></trkpt><trkpt lat="45.46453417293152" lon="13.660254264606944"><ele>22.0</ele><time>2026-05-02T17:38:19Z</time></trkpt><trkpt lat="45.4646537716834" lon="13.660423552162099"><ele>22.0</ele><time>2026-05-02T17:38:20Z</time></trkpt><trkpt lat="45.4647550193079" lon="13.660620003959632"><ele>22.0</ele><time>2026-05-02T17:38:21Z</time></trkpt><trkpt lat="45.46483584469328" lon="13.66084050290386"><ele>22.0</ele><time>2026-05-02T17:38:22Z</time></trkpt><trkpt lat="45.46490539163634" lon="13.661067190860777"><ele>22.0</ele><time>2026-05-02T17:38:23Z</time></trkpt><trkpt lat="45.46497033974914" lon="13.661303829220465"><ele>22.0</ele><time>2026-05-02T17:38:24Z</time></trkpt><trkpt lat="45.46503938623643" lon="13.66155220132"><ele>22.0</ele><time>2026-05-02T17:38:25Z</time></trkpt><trkpt lat="45.465106189114856" lon="13.661814482390072"><ele>22.0</ele><time>2026-05-02T17:38:26Z</time></trkpt><trkpt lat="45.465169716961" lon="13.662088468365592"><ele>24.0</ele><time>2026-05-02T17:38:27Z</time></trkpt><trkpt lat="45.46523343928984" lon="13.662373869514006"><ele>26.0</ele><time>2026-05-02T17:38:28Z</time></trkpt><trkpt lat="45.465303678087736" lon="13.662666374229389"><ele>28.0</ele><time>2026-05-02T17:38:29Z</time></trkpt><trkpt lat="45.46536769309041" lon="13.662956636487044"><ele>29.666666666666668</ele><time>2026-05-02T17:38:30Z</time></trkpt><trkpt lat="45.46543456215567" lon="13.663243100645241"><ele>31.333333333333336</ele><time>2026-05-02T17:38:31Z</time></trkpt><trkpt lat="45.46549769760277" lon="13.663526797202357"><ele>33.0</ele><time>2026-05-02T17:38:32Z</time></trkpt><trkpt lat="45.465567093714206" lon="13.663807190389686"><ele>31.0</ele><time>2026-05-02T17:38:33Z</time></trkpt><trkpt lat="45.46564576701924" lon="13.664074206965886"><ele>29.0</ele><time>2026-05-02T17:38:34Z</time></trkpt><trkpt lat="45.46573935154472" lon="13.664333580600964"><ele>27.0</ele><time>2026-05-02T17:38:35Z</time></trkpt><trkpt lat="45.465847969317885" lon="13.66458394423499"><ele>27.0</ele><time>2026-05-02T17:38:36Z</time></trkpt><trkpt lat="45.465963681222156" lon="13.664834281455317"><ele>27.0</ele><time>2026-05-02T17:38:37Z</time></trkpt><trkpt lat="45.466095512370806" lon="13.665082277327318"><ele>27.0</ele><time>2026-05-02T17:38:38Z</time></trkpt><trkpt lat="45.466234172392525" lon="13.665331138999615"><ele>23.666666666666668</ele><time>2026-05-02T17:38:39Z</time></trkpt><trkpt lat="45.466370273809" lon="13.665576469405096"><ele>20.333333333333336</ele><time>2026-05-02T17:38:40Z</time></trkpt><trkpt lat="45.46649964334963" lon="13.66582316517072"><ele>17.0</ele><time>2026-05-02T17:38:41Z</time></trkpt><trkpt lat="45.46661574620629" lon="13.6660795492521"><ele>20.0</ele><time>2026-05-02T17:38:42Z</time></trkpt><trkpt lat="45.46671418036143" lon="13.666343424002564"><ele>23.0</ele><time>2026-05-02T17:38:43Z</time></trkpt><trkpt lat="45.466779754514924" lon="13.66663138923834"><ele>26.0</ele><time>2026-05-02T17:38:44Z</time></trkpt><trkpt lat="45.46686514118537" lon="13.666917301079522"><ele>27.666666666666664</ele><time>2026-05-02T17:38:45Z</time></trkpt><trkpt lat="45.46692607188105" lon="13.667220347689074"><ele>29.333333333333336</ele><time>2026-05-02T17:38:46Z</time></trkpt><trkpt lat="45.46698064288887" lon="13.667511767723173"><ele>31.0</ele><time>2026-05-02T17:38:47Z</time></trkpt><trkpt lat="45.467049793082445" lon="13.667787495296707"><ele>26.0</ele><time>2026-05-02T17:38:48Z</time></trkpt><trkpt lat="45.467135277965575" lon="13.668035724968268"><ele>21.0</ele><time>2026-05-02T17:38:49Z</time></trkpt><trkpt lat="45.467235652577855" lon="13.668243217355194"><ele>16.0</ele><time>2026-05-02T17:38:50Z</time></trkpt><trkpt lat="45.46735822283298" lon="13.668427076968426"><ele>16.0</ele><time>2026-05-02T17:38:51Z</time></trkpt><trkpt lat="45.46750046923148" lon="13.668590002104539"><ele>16.0</ele><time>2026-05-02T17:38:52Z</time></trkpt><trkpt lat="45.4676595972546" lon="13.668736851507571"><ele>16.0</ele><time>2026-05-02T17:38:53Z</time></trkpt><trkpt lat="45.46782887535112" lon="13.668871088943812"><ele>17.666666666666664</ele><time>2026-05-02T17:38:54Z</time></trkpt><trkpt lat="45.46800485945168" lon="13.669004351069916"><ele>19.333333333333332</ele><time>2026-05-02T17:38:55Z</time></trkpt><trkpt lat="45.46817686308505" lon="13.669149485598048"><ele>21.0</ele><time>2026-05-02T17:38:56Z</time></trkpt><trkpt lat="45.46834002095067" lon="13.669322114738218"><ele>21.333333333333332</ele><time>2026-05-02T17:38:57Z</time></trkpt><trkpt lat="45.46849501932326" lon="13.669516006782498"><ele>21.666666666666664</ele><time>2026-05-02T17:38:58Z</time></trkpt><trkpt lat="45.468652503624625" lon="13.669716177093695"><ele>22.0</ele><time>2026-05-02T17:38:59Z</time></trkpt><trkpt lat="45.468814535237364" lon="13.669919200480123"><ele>22.0</ele><time>2026-05-02T17:39:00Z</time></trkpt><trkpt lat="45.46898850630101" lon="13.67011803894171"><ele>22.0</ele><time>2026-05-02T17:39:01Z</time></trkpt><trkpt lat="45.46915850049328" lon="13.670323372114574"><ele>22.0</ele><time>2026-05-02T17:39:02Z</time></trkpt><trkpt lat="45.46932102486727" lon="13.670550979262728"><ele>19.5</ele><time>2026-05-02T17:39:03Z</time></trkpt><trkpt lat="45.46950738854444" lon="13.670749356290287"><ele>17.0</ele><time>2026-05-02T17:39:04Z</time></trkpt><trkpt lat="45.469685007459674" lon="13.670965523921371"><ele>26.5</ele><time>2026-05-02T17:39:05Z</time></trkpt><trkpt lat="45.46986510189149" lon="13.67117046213705"><ele>36.0</ele><time>2026-05-02T17:39:06Z</time></trkpt><trkpt lat="45.47004532436666" lon="13.671363102649398"><ele>36.0</ele><time>2026-05-02T17:39:07Z</time></trkpt><trkpt lat="45.470225117140615" lon="13.671540982753955"><ele>36.0</ele><time>2026-05-02T17:39:08Z</time></trkpt><trkpt lat="45.47040814586686" lon="13.671702754392076"><ele>36.0</ele><time>2026-05-02T17:39:09Z</time></trkpt><trkpt lat="45.47059274735319" lon="13.671855675466253"><ele>30.666666666666668</ele><time>2026-05-02T17:39:10Z</time></trkpt><trkpt lat="45.470782884967235" lon="13.671999119502784"><ele>25.333333333333336</ele><time>2026-05-02T17:39:11Z</time></trkpt><trkpt lat="45.47098066400842" lon="13.672139094497243"><ele>20.0</ele><time>2026-05-02T17:39:12Z</time></trkpt><trkpt lat="45.47118405311306" lon="13.672277691935896"><ele>20.0</ele><time>2026-05-02T17:39:13Z</time></trkpt><trkpt lat="45.471388737610006" lon="13.672414927713437"><ele>20.0</ele><time>2026-05-02T17:39:14Z</time></trkpt><trkpt lat="45.47158979202173" lon="13.672551604716848"><ele>20.0</ele><time>2026-05-02T17:39:15Z</time></trkpt><trkpt lat="45.47178421894206" lon="13.672684181276558"><ele>23.333333333333336</ele><time>2026-05-02T17:39:16Z</time></trkpt><trkpt lat="45.47196894669824" lon="13.672808010822406"><ele>26.666666666666668</ele><time>2026-05-02T17:39:17Z</time></trkpt><trkpt lat="45.472149735219645" lon="13.672918588122222"><ele>30.0</ele><time>2026-05-02T17:39:18Z</time></trkpt><trkpt lat="45.472324711040365" lon="13.67300974183085"><ele>30.0</ele><time>2026-05-02T17:39:19Z</time></trkpt><trkpt lat="45.472500784224955" lon="13.673090048335975"><ele>30.0</ele><time>2026-05-02T17:39:20Z</time></trkpt><trkpt lat="45.472679513840006" lon="13.673167955429976"><ele>30.0</ele><time>2026-05-02T17:39:21Z</time></trkpt><trkpt lat="45.47285844396637" lon="13.673251020139526"><ele>28.0</ele><time>2026-05-02T17:39:22Z</time></trkpt><trkpt lat="45.4730384349924" lon="13.67334285007586"><ele>26.0</ele><time>2026-05-02T17:39:23Z</time></trkpt><trkpt lat="45.47321717655882" lon="13.673455047497356"><ele>24.0</ele><time>2026-05-02T17:39:24Z</time></trkpt><trkpt lat="45.47338186841638" lon="13.673610561746742"><ele>26.0</ele><time>2026-05-02T17:39:25Z</time></trkpt><trkpt lat="45.47356353513922" lon="13.673748131401611"><ele>28.0</ele><time>2026-05-02T17:39:26Z</time></trkpt><trkpt lat="45.47375585573454" lon="13.67384460658064"><ele>30.0</ele><time>2026-05-02T17:39:27Z</time></trkpt><trkpt lat="45.473937723976974" lon="13.673946586326288"><ele>30.0</ele><time>2026-05-02T17:39:28Z</time></trkpt><trkpt lat="45.47411476333253" lon="13.674037725415543"><ele>30.0</ele><time>2026-05-02T17:39:29Z</time></trkpt><trkpt lat="45.47428665363797" lon="13.674122973794749"><ele>30.0</ele><time>2026-05-02T17:39:30Z</time></trkpt><trkpt lat="45.474444956569045" lon="13.674230356174478"><ele>30.333333333333336</ele><time>2026-05-02T17:39:31Z</time></trkpt><trkpt lat="45.474606292295256" lon="13.674297342043108"><ele>30.666666666666668</ele><time>2026-05-02T17:39:32Z</time></trkpt><trkpt lat="45.47475743319447" lon="13.674380782062517"><ele>31.0</ele><time>2026-05-02T17:39:33Z</time></trkpt><trkpt lat="45.47490897717136" lon="13.674460929754678"><ele>31.0</ele><time>2026-05-02T17:39:34Z</time></trkpt><trkpt lat="45.475057138222596" lon="13.674541792939586"><ele>31.0</ele><time>2026-05-02T17:39:35Z</time></trkpt><trkpt lat="45.475212032548484" lon="13.674616527408215"><ele>31.0</ele><time>2026-05-02T17:39:36Z</time></trkpt><trkpt lat="45.47536677582356" lon="13.67467339240333"><ele>31.0</ele><time>2026-05-02T17:39:37Z</time></trkpt><trkpt lat="45.475523965417004" lon="13.674703876006364"><ele>31.0</ele><time>2026-05-02T17:39:38Z</time></trkpt><trkpt lat="45.475687785568304" lon="13.674719902590365"><ele>31.0</ele><time>2026-05-02T17:39:39Z</time></trkpt><trkpt lat="45.47584850509146" lon="13.674767700571715"><ele>31.0</ele><time>2026-05-02T17:39:40Z</time></trkpt><trkpt lat="45.47601145992817" lon="13.674797019910253"><ele>31.0</ele><time>2026-05-02T17:39:41Z</time></trkpt><trkpt lat="45.476177724420126" lon="13.674813171871513"><ele>31.0</ele><time>2026-05-02T17:39:42Z</time></trkpt><trkpt lat="45.4763428199155" lon="13.674855786393582"><ele>31.0</ele><time>2026-05-02T17:39:43Z</time></trkpt><trkpt lat="45.47650937134803" lon="13.674870291016465"><ele>31.0</ele><time>2026-05-02T17:39:44Z</time></trkpt><trkpt lat="45.47667431178373" lon="13.67491641119323"><ele>31.0</ele><time>2026-05-02T17:39:45Z</time></trkpt><trkpt lat="45.4768331845049" lon="13.674985905108453"><ele>31.0</ele><time>2026-05-02T17:39:46Z</time></trkpt><trkpt lat="45.47698878006298" lon="13.675078891332701"><ele>31.0</ele><time>2026-05-02T17:39:47Z</time></trkpt><trkpt lat="45.477143339549606" lon="13.675181422650631"><ele>31.0</ele><time>2026-05-02T17:39:48Z</time></trkpt><trkpt lat="45.477298295474505" lon="13.675289743372147"><ele>33.333333333333336</ele><time>2026-05-02T17:39:49Z</time></trkpt><trkpt lat="45.477450335697846" lon="13.67539153578814"><ele>35.666666666666664</ele><time>2026-05-02T17:39:50Z</time></trkpt><trkpt lat="45.47759707257626" lon="13.675480296332433"><ele>38.0</ele><time>2026-05-02T17:39:51Z</time></trkpt><trkpt lat="45.47773962933933" lon="13.675562092739554"><ele>38.0</ele><time>2026-05-02T17:39:52Z</time></trkpt><trkpt lat="45.477880623627485" lon="13.675617516074976"><ele>38.0</ele><time>2026-05-02T17:39:53Z</time></trkpt><trkpt lat="45.478024886643695" lon="13.67563237986039"><ele>38.0</ele><time>2026-05-02T17:39:54Z</time></trkpt><trkpt lat="45.47817457657994" lon="13.675631678823182"><ele>38.0</ele><time>2026-05-02T17:39:55Z</time></trkpt><trkpt lat="45.47832889116897" lon="13.675615491216337"><ele>37.33333333333333</ele><time>2026-05-02T17:39:56Z</time></trkpt><trkpt lat="45.478489815103615" lon="13.675597896688096"><ele>36.666666666666664</ele><time>2026-05-02T17:39:57Z</time></trkpt><trkpt lat="45.47865141551078" lon="13.675590175321375"><ele>36.0</ele><time>2026-05-02T17:39:58Z</time></trkpt><trkpt lat="45.4788215492711" lon="13.675579779767945"><ele>38.0</ele><time>2026-05-02T17:39:59Z</time></trkpt><trkpt lat="45.47898849192422" lon="13.675570082618245"><ele>40.0</ele><time>2026-05-02T17:40:00Z</time></trkpt><trkpt lat="45.47915440451816" lon="13.675573971847644"><ele>42.0</ele><time>2026-05-02T17:40:01Z</time></trkpt><trkpt lat="45.479318099932264" lon="13.675601219230616"><ele>42.0</ele><time>2026-05-02T17:40:02Z</time></trkpt><trkpt lat="45.47948067245519" lon="13.675646524625414"><ele>42.0</ele><time>2026-05-02T17:40:03Z</time></trkpt><trkpt lat="45.47964342077991" lon="13.675711719551717"><ele>42.0</ele><time>2026-05-02T17:40:04Z</time></trkpt><trkpt lat="45.4798035699275" lon="13.675779111527866"><ele>39.666666666666664</ele><time>2026-05-02T17:40:05Z</time></trkpt><trkpt lat="45.47995985682391" lon="13.675839801680825"><ele>37.33333333333333</ele><time>2026-05-02T17:40:06Z</time></trkpt><trkpt lat="45.48011512632818" lon="13.675896551814027"><ele>35.0</ele><time>2026-05-02T17:40:07Z</time></trkpt><trkpt lat="45.48026147697366" lon="13.675955978514818"><ele>35.0</ele><time>2026-05-02T17:40:08Z</time></trkpt><trkpt lat="45.48040260631059" lon="13.676012123730613"><ele>35.0</ele><time>2026-05-02T17:40:09Z</time></trkpt><trkpt lat="45.48054226585303" lon="13.676062032443452"><ele>35.0</ele><time>2026-05-02T17:40:10Z</time></trkpt><trkpt lat="45.480679021370214" lon="13.676112208484675"><ele>35.0</ele><time>2026-05-02T17:40:11Z</time></trkpt><trkpt lat="45.48081489622528" lon="13.676168553417059"><ele>34.0</ele><time>2026-05-02T17:40:12Z</time></trkpt><trkpt lat="45.480952663703754" lon="13.676236151011594"><ele>33.0</ele><time>2026-05-02T17:40:13Z</time></trkpt><trkpt lat="45.481087897136895" lon="13.6763129220598"><ele>32.0</ele><time>2026-05-02T17:40:14Z</time></trkpt><trkpt lat="45.481215459165234" lon="13.676403563406131"><ele>31.0</ele><time>2026-05-02T17:40:15Z</time></trkpt><trkpt lat="45.48134007540537" lon="13.676497598982381"><ele>31.0</ele><time>2026-05-02T17:40:16Z</time></trkpt><trkpt lat="45.48146295654277" lon="13.676587573717757"><ele>31.0</ele><time>2026-05-02T17:40:17Z</time></trkpt><trkpt lat="45.48158069801243" lon="13.67667291751421"><ele>31.0</ele><time>2026-05-02T17:40:18Z</time></trkpt><trkpt lat="45.481696218418215" lon="13.67675130949408"><ele>31.0</ele><time>2026-05-02T17:40:19Z</time></trkpt><trkpt lat="45.48180747165656" lon="13.676829221103592"><ele>31.0</ele><time>2026-05-02T17:40:20Z</time></trkpt><trkpt lat="45.4819163131404" lon="13.676906719182982"><ele>31.0</ele><time>2026-05-02T17:40:21Z</time></trkpt><trkpt lat="45.482026809066916" lon="13.676987256899325"><ele>31.0</ele><time>2026-05-02T17:40:22Z</time></trkpt><trkpt lat="45.48214028489919" lon="13.67706875566248"><ele>31.0</ele><time>2026-05-02T17:40:23Z</time></trkpt><trkpt lat="45.48225359486521" lon="13.677150290382665"><ele>30.5</ele><time>2026-05-02T17:40:24Z</time></trkpt><trkpt lat="45.48236962880517" lon="13.677231333017708"><ele>30.0</ele><time>2026-05-02T17:40:25Z</time></trkpt><trkpt lat="45.482488337432954" lon="13.677314847715381"><ele>29.5</ele><time>2026-05-02T17:40:26Z</time></trkpt><trkpt lat="45.48260853107773" lon="13.677399167325262"><ele>29.0</ele><time>2026-05-02T17:40:27Z</time></trkpt><trkpt lat="45.48273456565989" lon="13.677486798937036"><ele>29.0</ele><time>2026-05-02T17:40:28Z</time></trkpt><trkpt lat="45.48285985630453" lon="13.677576167245187"><ele>29.0</ele><time>2026-05-02T17:40:29Z</time></trkpt><trkpt lat="45.482984640577634" lon="13.677663519107952"><ele>29.0</ele><time>2026-05-02T17:40:30Z</time></trkpt><trkpt lat="45.483110644183874" lon="13.677747756945726"><ele>29.0</ele><time>2026-05-02T17:40:31Z</time></trkpt><trkpt lat="45.48323719134548" lon="13.67782167768586"><ele>31.0</ele><time>2026-05-02T17:40:32Z</time></trkpt><trkpt lat="45.48337004606852" lon="13.677864089996461"><ele>33.0</ele><time>2026-05-02T17:40:33Z</time></trkpt><trkpt lat="45.48350608316315" lon="13.677866588071678"><ele>35.0</ele><time>2026-05-02T17:40:34Z</time></trkpt><trkpt lat="45.48364513820755" lon="13.677839867403515"><ele>37.0</ele><time>2026-05-02T17:40:35Z</time></trkpt><trkpt lat="45.4837823595389" lon="13.677785271214342"><ele>36.0</ele><time>2026-05-02T17:40:36Z</time></trkpt><trkpt lat="45.483923622755356" lon="13.677730653653509"><ele>35.0</ele><time>2026-05-02T17:40:37Z</time></trkpt><trkpt lat="45.484078676318966" lon="13.677683267267177"><ele>34.0</ele><time>2026-05-02T17:40:38Z</time></trkpt><trkpt lat="45.484238628366235" lon="13.677649588074791"><ele>34.0</ele><time>2026-05-02T17:40:39Z</time></trkpt><trkpt lat="45.48440372630332" lon="13.677621932775565"><ele>34.0</ele><time>2026-05-02T17:40:40Z</time></trkpt><trkpt lat="45.484574399028986" lon="13.677599314231497"><ele>34.0</ele><time>2026-05-02T17:40:41Z</time></trkpt><trkpt lat="45.484753139681935" lon="13.677583583338665"><ele>34.66666666666667</ele><time>2026-05-02T17:40:42Z</time></trkpt><trkpt lat="45.4849285804502" lon="13.677568305739092"><ele>35.333333333333336</ele><time>2026-05-02T17:40:43Z</time></trkpt><trkpt lat="45.485106503772975" lon="13.67754864217632"><ele>36.0</ele><time>2026-05-02T17:40:44Z</time></trkpt><trkpt lat="45.485282352572" lon="13.677528117495056"><ele>37.0</ele><time>2026-05-02T17:40:45Z</time></trkpt><trkpt lat="45.48545404069254" lon="13.677515060740804"><ele>38.0</ele><time>2026-05-02T17:40:46Z</time></trkpt><trkpt lat="45.485623067715444" lon="13.677496571737475"><ele>39.0</ele><time>2026-05-02T17:40:47Z</time></trkpt><trkpt lat="45.48578465311395" lon="13.67748273543963"><ele>39.0</ele><time>2026-05-02T17:40:48Z</time></trkpt><trkpt lat="45.48594649328942" lon="13.677465021447006"><ele>39.0</ele><time>2026-05-02T17:40:49Z</time></trkpt><trkpt lat="45.48610702432254" lon="13.677453879821558"><ele>39.0</ele><time>2026-05-02T17:40:50Z</time></trkpt><trkpt lat="45.48626908631014" lon="13.677450812774499"><ele>40.0</ele><time>2026-05-02T17:40:51Z</time></trkpt><trkpt lat="45.48642939106369" lon="13.677446793400744"><ele>41.0</ele><time>2026-05-02T17:40:52Z</time></trkpt><trkpt lat="45.48658694129296" lon="13.67743823400974"><ele>42.0</ele><time>2026-05-02T17:40:53Z</time></trkpt><trkpt lat="45.48674391401326" lon="13.6774365660531"><ele>42.0</ele><time>2026-05-02T17:40:54Z</time></trkpt><trkpt lat="45.486901793997404" lon="13.67744246400817"><ele>42.0</ele><time>2026-05-02T17:40:55Z</time></trkpt><trkpt lat="45.48705651596461" lon="13.677442197022774"><ele>42.0</ele><time>2026-05-02T17:40:56Z</time></trkpt><trkpt lat="45.48721483836616" lon="13.677441802915759"><ele>42.666666666666664</ele><time>2026-05-02T17:40:57Z</time></trkpt><trkpt lat="45.4873745706929" lon="13.677443879743016"><ele>43.33333333333333</ele><time>2026-05-02T17:40:58Z</time></trkpt><trkpt lat="45.487531573785134" lon="13.677447024420715"><ele>44.0</ele><time>2026-05-02T17:40:59Z</time></trkpt><trkpt lat="45.48769248757033" lon="13.677446593239376"><ele>44.0</ele><time>2026-05-02T17:41:00Z</time></trkpt><trkpt lat="45.48785155441636" lon="13.677445162522945"><ele>44.0</ele><time>2026-05-02T17:41:01Z</time></trkpt><trkpt lat="45.488011236317824" lon="13.677448928881947"><ele>44.0</ele><time>2026-05-02T17:41:02Z</time></trkpt><trkpt lat="45.488171297772716" lon="13.677448528030089"><ele>45.0</ele><time>2026-05-02T17:41:03Z</time></trkpt><trkpt lat="45.48833456832337" lon="13.677468463106573"><ele>46.0</ele><time>2026-05-02T17:41:04Z</time></trkpt><trkpt lat="45.48849787930538" lon="13.677463425733041"><ele>47.0</ele><time>2026-05-02T17:41:05Z</time></trkpt><trkpt lat="45.488666412200224" lon="13.677448965510772"><ele>47.666666666666664</ele><time>2026-05-02T17:41:06Z</time></trkpt><trkpt lat="45.48883544575703" lon="13.677417713548126"><ele>48.33333333333333</ele><time>2026-05-02T17:41:07Z</time></trkpt><trkpt lat="45.48900657131207" lon="13.67737677845146"><ele>49.0</ele><time>2026-05-02T17:41:08Z</time></trkpt><trkpt lat="45.489182686432784" lon="13.677323606266151"><ele>49.0</ele><time>2026-05-02T17:41:09Z</time></trkpt><trkpt lat="45.48935796506162" lon="13.67725799507674"><ele>49.0</ele><time>2026-05-02T17:41:10Z</time></trkpt><trkpt lat="45.48952748340464" lon="13.677163876022828"><ele>49.0</ele><time>2026-05-02T17:41:11Z</time></trkpt><trkpt lat="45.489697653900535" lon="13.677090078555736"><ele>45.666666666666664</ele><time>2026-05-02T17:41:12Z</time></trkpt><trkpt lat="45.48987077187203" lon="13.677043790773418"><ele>42.33333333333333</ele><time>2026-05-02T17:41:13Z</time></trkpt><trkpt lat="45.49003466104024" lon="13.676978228380339"><ele>39.0</ele><time>2026-05-02T17:41:14Z</time></trkpt><trkpt lat="45.490196858911965" lon="13.676913342541383"><ele>39.0</ele><time>2026-05-02T17:41:15Z</time></trkpt><trkpt lat="45.49035617340618" lon="13.676851380526495"><ele>39.0</ele><time>2026-05-02T17:41:16Z</time></trkpt><trkpt lat="45.4905139046321" lon="13.676790999034697"><ele>39.0</ele><time>2026-05-02T17:41:17Z</time></trkpt><trkpt lat="45.490671416119405" lon="13.676733439776532"><ele>42.33333333333333</ele><time>2026-05-02T17:41:18Z</time></trkpt><trkpt lat="45.49083132431156" lon="13.676654099845942"><ele>45.666666666666664</ele><time>2026-05-02T17:41:19Z</time></trkpt><trkpt lat="45.49099089574431" lon="13.676606743885214"><ele>49.0</ele><time>2026-05-02T17:41:20Z</time></trkpt><trkpt lat="45.491155316727166" lon="13.676578645279724"><ele>52.0</ele><time>2026-05-02T17:41:21Z</time></trkpt><trkpt lat="45.491318335603275" lon="13.676531774792238"><ele>55.0</ele><time>2026-05-02T17:41:22Z</time></trkpt><trkpt lat="45.49148063503278" lon="13.676485620528833"><ele>58.0</ele><time>2026-05-02T17:41:23Z</time></trkpt><trkpt lat="45.49163933494011" lon="13.676444612114416"><ele>58.0</ele><time>2026-05-02T17:41:24Z</time></trkpt><trkpt lat="45.49179404615595" lon="13.676408395354798"><ele>58.0</ele><time>2026-05-02T17:41:25Z</time></trkpt><trkpt lat="45.491946002366255" lon="13.676376491034317"><ele>58.0</ele><time>2026-05-02T17:41:26Z</time></trkpt><trkpt lat="45.49209458195816" lon="13.676346754279397"><ele>59.75</ele><time>2026-05-02T17:41:27Z</time></trkpt><trkpt lat="45.49224168287339" lon="13.676321191014425"><ele>61.5</ele><time>2026-05-02T17:41:28Z</time></trkpt><trkpt lat="45.492386912591705" lon="13.67629661898281"><ele>63.25</ele><time>2026-05-02T17:41:29Z</time></trkpt><trkpt lat="45.4925235805686" lon="13.676275245942676"><ele>65.0</ele><time>2026-05-02T17:41:30Z</time></trkpt><trkpt lat="45.492659916940504" lon="13.676241728278264"><ele>65.0</ele><time>2026-05-02T17:41:31Z</time></trkpt><trkpt lat="45.49280048369177" lon="13.67623776277962"><ele>65.0</ele><time>2026-05-02T17:41:32Z</time></trkpt><trkpt lat="45.49294244052308" lon="13.676249306816736"><ele>65.0</ele><time>2026-05-02T17:41:33Z</time></trkpt><trkpt lat="45.493086747720795" lon="13.676266505882332"><ele>65.0</ele><time>2026-05-02T17:41:34Z</time></trkpt><trkpt lat="45.49322776502257" lon="13.676295887514152"><ele>63.75</ele><time>2026-05-02T17:41:35Z</time></trkpt><trkpt lat="45.49336470381556" lon="13.67635060034228"><ele>62.5</ele><time>2026-05-02T17:41:36Z</time></trkpt><trkpt lat="45.493499310990124" lon="13.676414257628778"><ele>61.25</ele><time>2026-05-02T17:41:37Z</time></trkpt><trkpt lat="45.493627041972594" lon="13.676499998332533"><ele>60.0</ele><time>2026-05-02T17:41:38Z</time></trkpt><trkpt lat="45.49375679798682" lon="13.676596610527932"><ele>60.33333333333333</ele><time>2026-05-02T17:41:39Z</time></trkpt><trkpt lat="45.49388520209881" lon="13.676709006545474"><ele>60.666666666666664</ele><time>2026-05-02T17:41:40Z</time></trkpt><trkpt lat="45.49401099603511" lon="13.676827888291735"><ele>61.0</ele><time>2026-05-02T17:41:41Z</time></trkpt><trkpt lat="45.494141932433514" lon="13.676951991904701"><ele>61.0</ele><time>2026-05-02T17:41:42Z</time></trkpt><trkpt lat="45.49427260719047" lon="13.67707614203181"><ele>61.0</ele><time>2026-05-02T17:41:43Z</time></trkpt><trkpt lat="45.49441280157092" lon="13.677201763958198"><ele>61.0</ele><time>2026-05-02T17:41:44Z</time></trkpt><trkpt lat="45.494558523921285" lon="13.677325197161853"><ele>56.666666666666664</ele><time>2026-05-02T17:41:45Z</time></trkpt><trkpt lat="45.49471527026998" lon="13.677441744328133"><ele>52.33333333333333</ele><time>2026-05-02T17:41:46Z</time></trkpt><trkpt lat="45.49487857589125" lon="13.677553653853359"><ele>48.0</ele><time>2026-05-02T17:41:47Z</time></trkpt><trkpt lat="45.4950453304165" lon="13.67765450968243"><ele>48.0</ele><time>2026-05-02T17:41:48Z</time></trkpt><trkpt lat="45.495213446293505" lon="13.6777382692607"><ele>48.0</ele><time>2026-05-02T17:41:49Z</time></trkpt><trkpt lat="45.49538444660242" lon="13.677813176912244"><ele>48.0</ele><time>2026-05-02T17:41:50Z</time></trkpt><trkpt lat="45.4955537632957" lon="13.67787778708134"><ele>50.0</ele><time>2026-05-02T17:41:51Z</time></trkpt><trkpt lat="45.495722452604056" lon="13.67793462215604"><ele>52.0</ele><time>2026-05-02T17:41:52Z</time></trkpt><trkpt lat="45.49588735314503" lon="13.677989452736696"><ele>54.0</ele><time>2026-05-02T17:41:53Z</time></trkpt><trkpt lat="45.49604498374245" lon="13.678053406571998"><ele>54.0</ele><time>2026-05-02T17:41:54Z</time></trkpt><trkpt lat="45.49619548014144" lon="13.67813312756887"><ele>54.0</ele><time>2026-05-02T17:41:55Z</time></trkpt><trkpt lat="45.49633655351711" lon="13.67823219037939"><ele>54.0</ele><time>2026-05-02T17:41:56Z</time></trkpt><trkpt lat="45.496471343978534" lon="13.678351391178014"><ele>53.33333333333333</ele><time>2026-05-02T17:41:57Z</time></trkpt><trkpt lat="45.49659452795432" lon="13.678494127474645"><ele>52.666666666666664</ele><time>2026-05-02T17:41:58Z</time></trkpt><trkpt lat="45.4967046467962" lon="13.678660962163548"><ele>52.0</ele><time>2026-05-02T17:41:59Z</time></trkpt><trkpt lat="45.49680712493016" lon="13.678847214137736"><ele>52.666666666666664</ele><time>2026-05-02T17:42:00Z</time></trkpt><trkpt lat="45.49690865733059" lon="13.67904218058653"><ele>53.33333333333333</ele><time>2026-05-02T17:42:01Z</time></trkpt><trkpt lat="45.497017797301275" lon="13.679233122633827"><ele>54.0</ele><time>2026-05-02T17:42:02Z</time></trkpt><trkpt lat="45.497143364228336" lon="13.679414639545886"><ele>57.66666666666667</ele><time>2026-05-02T17:42:03Z</time></trkpt><trkpt lat="45.49727484975696" lon="13.679581147502656"><ele>61.333333333333336</ele><time>2026-05-02T17:42:04Z</time></trkpt><trkpt lat="45.49741477347493" lon="13.67971573972944"><ele>65.0</ele><time>2026-05-02T17:42:05Z</time></trkpt><trkpt lat="45.497558984473585" lon="13.679824733375561"><ele>65.0</ele><time>2026-05-02T17:42:06Z</time></trkpt><trkpt lat="45.49771294241048" lon="13.679912985797833"><ele>65.0</ele><time>2026-05-02T17:42:07Z</time></trkpt><trkpt lat="45.49787136324009" lon="13.679996982944477"><ele>65.0</ele><time>2026-05-02T17:42:08Z</time></trkpt><trkpt lat="45.49803336003272" lon="13.680076911021839"><ele>66.0</ele><time>2026-05-02T17:42:09Z</time></trkpt><trkpt lat="45.49819866655782" lon="13.680155317551806"><ele>67.0</ele><time>2026-05-02T17:42:10Z</time></trkpt><trkpt lat="45.49836844778069" lon="13.68023701267675"><ele>68.0</ele><time>2026-05-02T17:42:11Z</time></trkpt><trkpt lat="45.498540196323" lon="13.680327552432738"><ele>72.33333333333334</ele><time>2026-05-02T17:42:12Z</time></trkpt><trkpt lat="45.49871822023554" lon="13.680415741660298"><ele>76.66666666666667</ele><time>2026-05-02T17:42:13Z</time></trkpt><trkpt lat="45.49890382182817" lon="13.680507564599777"><ele>81.0</ele><time>2026-05-02T17:42:14Z</time></trkpt><trkpt lat="45.49909392768588" lon="13.680604649643026"><ele>81.0</ele><time>2026-05-02T17:42:15Z</time></trkpt><trkpt lat="45.49928946691613" lon="13.680703219550605"><ele>81.0</ele><time>2026-05-02T17:42:16Z</time></trkpt><trkpt lat="45.49949043203313" lon="13.68080218843406"><ele>81.0</ele><time>2026-05-02T17:42:17Z</time></trkpt><trkpt lat="45.499684763386654" lon="13.680900420910167"><ele>79.66666666666667</ele><time>2026-05-02T17:42:18Z</time></trkpt><trkpt lat="45.4998741707986" lon="13.681000692200522"><ele>78.33333333333334</ele><time>2026-05-02T17:42:19Z</time></trkpt><trkpt lat="45.50005912508017" lon="13.681105932096637"><ele>77.0</ele><time>2026-05-02T17:42:20Z</time></trkpt><trkpt lat="45.500235426118536" lon="13.68123392783334"><ele>81.66666666666667</ele><time>2026-05-02T17:42:21Z</time></trkpt><trkpt lat="45.500407240537754" lon="13.681386746896958"><ele>86.33333333333333</ele><time>2026-05-02T17:42:22Z</time></trkpt><trkpt lat="45.50057435943876" lon="13.681548204046795"><ele>91.0</ele><time>2026-05-02T17:42:23Z</time></trkpt><trkpt lat="45.50074184545148" lon="13.681701102219408"><ele>91.0</ele><time>2026-05-02T17:42:24Z</time></trkpt><trkpt lat="45.50091720855091" lon="13.681829856901878"><ele>91.0</ele><time>2026-05-02T17:42:25Z</time></trkpt><trkpt lat="45.50110309970576" lon="13.681933605732022"><ele>91.0</ele><time>2026-05-02T17:42:26Z</time></trkpt><trkpt lat="45.50129822942766" lon="13.682016973226325"><ele>95.33333333333333</ele><time>2026-05-02T17:42:27Z</time></trkpt><trkpt lat="45.50149155112813" lon="13.682091977638535"><ele>99.66666666666666</ele><time>2026-05-02T17:42:28Z</time></trkpt><trkpt lat="45.501679540389624" lon="13.682175362382464"><ele>104.0</ele><time>2026-05-02T17:42:29Z</time></trkpt><trkpt lat="45.50186129522263" lon="13.682273120419351"><ele>104.0</ele><time>2026-05-02T17:42:30Z</time></trkpt><trkpt lat="45.50203552958564" lon="13.682384307581598"><ele>104.0</ele><time>2026-05-02T17:42:31Z</time></trkpt><trkpt lat="45.502199217717795" lon="13.68253735621389"><ele>104.0</ele><time>2026-05-02T17:42:32Z</time></trkpt><trkpt lat="45.50234005056894" lon="13.68271902895787"><ele>105.33333333333333</ele><time>2026-05-02T17:42:33Z</time></trkpt><trkpt lat="45.50245778174383" lon="13.682929708166132"><ele>106.66666666666666</ele><time>2026-05-02T17:42:34Z</time></trkpt><trkpt lat="45.50255108704492" lon="13.683164328162832"><ele>108.0</ele><time>2026-05-02T17:42:35Z</time></trkpt><trkpt lat="45.502627983047795" lon="13.683415135766191"><ele>113.33333333333334</ele><time>2026-05-02T17:42:36Z</time></trkpt><trkpt lat="45.50269033155813" lon="13.68367859518427"><ele>118.66666666666667</ele><time>2026-05-02T17:42:37Z</time></trkpt><trkpt lat="45.50274265596367" lon="13.683952531040612"><ele>124.0</ele><time>2026-05-02T17:42:38Z</time></trkpt><trkpt lat="45.502784778529154" lon="13.684235775840596"><ele>128.0</ele><time>2026-05-02T17:42:39Z</time></trkpt><trkpt lat="45.50281876713752" lon="13.684528441914711"><ele>132.0</ele><time>2026-05-02T17:42:40Z</time></trkpt><trkpt lat="45.502843438653336" lon="13.68482991296642"><ele>136.0</ele><time>2026-05-02T17:42:41Z</time></trkpt><trkpt lat="45.50286279495002" lon="13.685139359191545"><ele>139.33333333333334</ele><time>2026-05-02T17:42:42Z</time></trkpt><trkpt lat="45.50288247164683" lon="13.685453792571574"><ele>142.66666666666666</ele><time>2026-05-02T17:42:43Z</time></trkpt><trkpt lat="45.50290640436748" lon="13.685773201090234"><ele>146.0</ele><time>2026-05-02T17:42:44Z</time></trkpt><trkpt lat="45.50293527963808" lon="13.6860961353339"><ele>124.5</ele><time>2026-05-02T17:42:45Z</time></trkpt><trkpt lat="45.50297097267774" lon="13.686421732482348"><ele>103.0</ele><time>2026-05-02T17:42:46Z</time></trkpt><trkpt lat="45.50301178941747" lon="13.686749257324104"><ele>107.5</ele><time>2026-05-02T17:42:47Z</time></trkpt><trkpt lat="45.50305822472849" lon="13.687073442741724"><ele>112.0</ele><time>2026-05-02T17:42:48Z</time></trkpt><trkpt lat="45.50308833637325" lon="13.6873984384967"><ele>112.0</ele><time>2026-05-02T17:42:49Z</time></trkpt><trkpt lat="45.50313378384406" lon="13.687718808068214"><ele>112.0</ele><time>2026-05-02T17:42:50Z</time></trkpt><trkpt lat="45.50317652206642" lon="13.688042823182464"><ele>117.0</ele><time>2026-05-02T17:42:51Z</time></trkpt><trkpt lat="45.50321506108712" lon="13.688372706171902"><ele>122.0</ele><time>2026-05-02T17:42:52Z</time></trkpt><trkpt lat="45.50324095754794" lon="13.6887010208691"><ele>122.33333333333333</ele><time>2026-05-02T17:42:53Z</time></trkpt><trkpt lat="45.5032457524182" lon="13.689015946855314"><ele>122.66666666666666</ele><time>2026-05-02T17:42:54Z</time></trkpt><trkpt lat="45.50324319329922" lon="13.689320980028256"><ele>123.0</ele><time>2026-05-02T17:42:55Z</time></trkpt><trkpt lat="45.50323715999356" lon="13.689618106217333"><ele>125.66666666666666</ele><time>2026-05-02T17:42:56Z</time></trkpt><trkpt lat="45.50324154305709" lon="13.689907857211054"><ele>128.33333333333331</ele><time>2026-05-02T17:42:57Z</time></trkpt><trkpt lat="45.50327474740141" lon="13.690193203033793"><ele>131.0</ele><time>2026-05-02T17:42:58Z</time></trkpt><trkpt lat="45.50331993244843" lon="13.690477678430556"><ele>134.66666666666666</ele><time>2026-05-02T17:42:59Z</time></trkpt><trkpt lat="45.50338289863569" lon="13.690756833034362"><ele>138.33333333333334</ele><time>2026-05-02T17:43:00Z</time></trkpt><trkpt lat="45.50344474755973" lon="13.691038913793976"><ele>142.0</ele><time>2026-05-02T17:43:01Z</time></trkpt><trkpt lat="45.50352648526108" lon="13.691316178499335"><ele>145.33333333333334</ele><time>2026-05-02T17:43:02Z</time></trkpt><trkpt lat="45.50361188516859" lon="13.691591738603094"><ele>148.66666666666666</ele><time>2026-05-02T17:43:03Z</time></trkpt><trkpt lat="45.50370266662823" lon="13.691853906209642"><ele>152.0</ele><time>2026-05-02T17:43:04Z</time></trkpt><trkpt lat="45.503758801606935" lon="13.692128142110159"><ele>146.66666666666666</ele><time>2026-05-02T17:43:05Z</time></trkpt><trkpt lat="45.503794658527326" lon="13.69240216905355"><ele>141.33333333333334</ele><time>2026-05-02T17:43:06Z</time></trkpt><trkpt lat="45.50381183490158" lon="13.692684246810286"><ele>136.0</ele><time>2026-05-02T17:43:07Z</time></trkpt><trkpt lat="45.50382645432199" lon="13.69297469253512"><ele>136.0</ele><time>2026-05-02T17:43:08Z</time></trkpt><trkpt lat="45.50384780929657" lon="13.693261277118875"><ele>136.0</ele><time>2026-05-02T17:43:09Z</time></trkpt><trkpt lat="45.50387275666161" lon="13.693532248773629"><ele>136.0</ele><time>2026-05-02T17:43:10Z</time></trkpt><trkpt lat="45.50391028674276" lon="13.693791604045975"><ele>139.33333333333334</ele><time>2026-05-02T17:43:11Z</time></trkpt><trkpt lat="45.50396443967635" lon="13.69404025839324"><ele>142.66666666666666</ele><time>2026-05-02T17:43:12Z</time></trkpt><trkpt lat="45.504026724155764" lon="13.694279496981666"><ele>146.0</ele><time>2026-05-02T17:43:13Z</time></trkpt><trkpt lat="45.50409768078876" lon="13.694506466126793"><ele>152.0</ele><time>2026-05-02T17:43:14Z</time></trkpt><trkpt lat="45.504168018583705" lon="13.694721449753937"><ele>158.0</ele><time>2026-05-02T17:43:15Z</time></trkpt><trkpt lat="45.50422302931554" lon="13.694927836339748"><ele>164.0</ele><time>2026-05-02T17:43:16Z</time></trkpt><trkpt lat="45.50428490196206" lon="13.695106631168747"><ele>167.0</ele><time>2026-05-02T17:43:17Z</time></trkpt><trkpt lat="45.504338654498895" lon="13.69526088748764"><ele>170.0</ele><time>2026-05-02T17:43:18Z</time></trkpt><trkpt lat="45.50439997946507" lon="13.695386067929741"><ele>173.0</ele><time>2026-05-02T17:43:19Z</time></trkpt><trkpt lat="45.50443609338612" lon="13.695509763741198"><ele>176.0</ele><time>2026-05-02T17:43:20Z</time></trkpt><trkpt lat="45.50447291630547" lon="13.695624772764477"><ele>179.0</ele><time>2026-05-02T17:43:21Z</time></trkpt><trkpt lat="45.50450704157642" lon="13.695729095763683"><ele>179.0</ele><time>2026-05-02T17:43:22Z</time></trkpt><trkpt lat="45.50453960253518" lon="13.695825540866991"><ele>179.0</ele><time>2026-05-02T17:43:23Z</time></trkpt><trkpt lat="45.50457390647223" lon="13.695914043707313"><ele>179.0</ele><time>2026-05-02T17:43:24Z</time></trkpt><trkpt lat="45.50460602729626" lon="13.695997168414143"><ele>179.0</ele><time>2026-05-02T17:43:25Z</time></trkpt><trkpt lat="45.50463528436509" lon="13.696080520213965"><ele>179.0</ele><time>2026-05-02T17:43:26Z</time></trkpt><trkpt lat="45.50468198261251" lon="13.696223244354858"><ele>179.0</ele><time>2026-05-02T17:43:28Z</time></trkpt><trkpt lat="45.50472687294869" lon="13.696347367013578"><ele>176.39999999999998</ele><time>2026-05-02T17:43:30Z</time></trkpt><trkpt lat="45.50477436257219" lon="13.696485847348063"><ele>173.8</ele><time>2026-05-02T17:43:32Z</time></trkpt><trkpt lat="45.504827891009654" lon="13.696642328162488"><ele>171.2</ele><time>2026-05-02T17:43:34Z</time></trkpt><trkpt lat="45.504880040034685" lon="13.69678580334788"><ele>168.60000000000002</ele><time>2026-05-02T17:43:36Z</time></trkpt><trkpt lat="45.504923943824465" lon="13.696920786558405"><ele>166.0</ele><time>2026-05-02T17:43:38Z</time></trkpt><trkpt lat="45.50496076890717" lon="13.697032824369435"><ele>166.0</ele><time>2026-05-02T17:43:40Z</time></trkpt><trkpt lat="45.504994815306496" lon="13.697120244775958"><ele>166.0</ele><time>2026-05-02T17:43:42Z</time></trkpt><trkpt lat="45.505030402318404" lon="13.697211120013508"><ele>166.0</ele><time>2026-05-02T17:43:44Z</time></trkpt><trkpt lat="45.505070626803864" lon="13.697306369600152"><ele>166.0</ele><time>2026-05-02T17:43:46Z</time></trkpt><trkpt lat="45.50511962457938" lon="13.697466298447356"><ele>166.0</ele><time>2026-05-02T17:43:48Z</time></trkpt><trkpt lat="45.50515891789805" lon="13.697552874001959"><ele>166.0</ele><time>2026-05-02T17:43:49Z</time></trkpt><trkpt lat="45.50519972886648" lon="13.697634671746632"><ele>166.0</ele><time>2026-05-02T17:43:50Z</time></trkpt><trkpt lat="45.50523827891839" lon="13.697711937620587"><ele>166.0</ele><time>2026-05-02T17:43:51Z</time></trkpt><trkpt lat="45.505279981500735" lon="13.697787838332436"><ele>166.0</ele><time>2026-05-02T17:43:52Z</time></trkpt><trkpt lat="45.505352138935265" lon="13.697920359643199"><ele>166.0</ele><time>2026-05-02T17:43:54Z</time></trkpt><trkpt lat="45.505406825573566" lon="13.698020016610817"><ele>166.0</ele><time>2026-05-02T17:43:56Z</time></trkpt><trkpt lat="45.50544999452181" lon="13.69809868458559"><ele>166.0</ele><time>2026-05-02T17:43:58Z</time></trkpt><trkpt lat="45.50552066662498" lon="13.69822747230769"><ele>165.42857142857142</ele><time>2026-05-02T17:44:00Z</time></trkpt><trkpt lat="45.50556682977412" lon="13.698312202709497"><ele>164.85714285714286</ele><time>2026-05-02T17:44:02Z</time></trkpt><trkpt lat="45.50560861819004" lon="13.698394837431616"><ele>164.28571428571428</ele><time>2026-05-02T17:44:05Z</time></trkpt><trkpt lat="45.50565968722065" lon="13.698459179496076"><ele>163.71428571428572</ele><time>2026-05-02T17:44:08Z</time></trkpt><trkpt lat="45.50570086874587" lon="13.698558515907843"><ele>163.14285714285714</ele><time>2026-05-02T17:44:11Z</time></trkpt><trkpt lat="45.5057419231081" lon="13.69865139798501"><ele>162.57142857142858</ele><time>2026-05-02T17:44:15Z</time></trkpt><trkpt lat="45.50577857419611" lon="13.698742933853454"><ele>162.0</ele><time>2026-05-02T17:44:18Z</time></trkpt><trkpt lat="45.50581248407668" lon="13.698839008206308"><ele>164.42857142857144</ele><time>2026-05-02T17:44:21Z</time></trkpt><trkpt lat="45.50586012846345" lon="13.698934707754102"><ele>166.85714285714286</ele><time>2026-05-02T17:44:24Z</time></trkpt><trkpt lat="45.505893358412244" lon="13.69902116581633"><ele>169.28571428571428</ele><time>2026-05-02T17:44:27Z</time></trkpt><trkpt lat="45.50592015540387" lon="13.69910703874625"><ele>171.71428571428572</ele><time>2026-05-02T17:44:31Z</time></trkpt><trkpt lat="45.50594975069954" lon="13.699193075687651"><ele>174.14285714285714</ele><time>2026-05-02T17:44:34Z</time></trkpt><trkpt lat="45.505975114802254" lon="13.699284866720369"><ele>176.57142857142858</ele><time>2026-05-02T17:44:39Z</time></trkpt><trkpt lat="45.506003443891736" lon="13.699375854671574"><ele>179.0</ele><time>2026-05-02T17:44:43Z</time></trkpt><trkpt lat="45.50602437817147" lon="13.699472741504467"><ele>181.2</ele><time>2026-05-02T17:44:48Z</time></trkpt><trkpt lat="45.50604599605114" lon="13.699597196924353"><ele>183.39999999999998</ele><time>2026-05-02T17:45:07Z</time></trkpt><trkpt lat="45.5060596888432" lon="13.69968674575218"><ele>185.6</ele><time>2026-05-02T17:45:11Z</time></trkpt><trkpt lat="45.506093521443326" lon="13.699827295138505"><ele>187.8</ele><time>2026-05-02T17:45:14Z</time></trkpt><trkpt lat="45.506111884833246" lon="13.69996457691941"><ele>190.0</ele><time>2026-05-02T17:45:16Z</time></trkpt><trkpt lat="45.50612519468848" lon="13.700142949235687"><ele>190.0</ele><time>2026-05-02T17:45:18Z</time></trkpt><trkpt lat="45.506056852182496" lon="13.700236805769986"><ele>190.0</ele><time>2026-05-02T17:45:19Z</time></trkpt><trkpt lat="45.506062353909414" lon="13.70039176171398"><ele>190.0</ele><time>2026-05-02T17:45:21Z</time></trkpt><trkpt lat="45.506066792766006" lon="13.700564817933051"><ele>190.0</ele><time>2026-05-02T17:45:23Z</time></trkpt><trkpt lat="45.50606941308425" lon="13.700746780787789"><ele>190.57142857142858</ele><time>2026-05-02T17:45:25Z</time></trkpt><trkpt lat="45.50607203598928" lon="13.70085027827957"><ele>191.14285714285717</ele><time>2026-05-02T17:45:26Z</time></trkpt><trkpt lat="45.50607761039471" lon="13.700963856076298"><ele>191.71428571428572</ele><time>2026-05-02T17:45:27Z</time></trkpt><trkpt lat="45.506083907323614" lon="13.7010712707225"><ele>192.28571428571428</ele><time>2026-05-02T17:45:28Z</time></trkpt><trkpt lat="45.50609122551179" lon="13.701166830429392"><ele>192.85714285714286</ele><time>2026-05-02T17:45:29Z</time></trkpt><trkpt lat="45.506100186947585" lon="13.701265619631984"><ele>193.42857142857142</ele><time>2026-05-02T17:45:30Z</time></trkpt><trkpt lat="45.506113842515" lon="13.701374469773809"><ele>194.0</ele><time>2026-05-02T17:45:31Z</time></trkpt><trkpt lat="45.50613043056487" lon="13.701484733371323"><ele>194.66666666666669</ele><time>2026-05-02T17:45:32Z</time></trkpt><trkpt lat="45.50614834022479" lon="13.701598952586284"><ele>195.33333333333334</ele><time>2026-05-02T17:45:33Z</time></trkpt><trkpt lat="45.506168267956134" lon="13.701717225923394"><ele>196.0</ele><time>2026-05-02T17:45:34Z</time></trkpt><trkpt lat="45.5061887391854" lon="13.701830685098882"><ele>196.66666666666669</ele><time>2026-05-02T17:45:35Z</time></trkpt><trkpt lat="45.50620696282245" lon="13.701931687316748"><ele>197.33333333333334</ele><time>2026-05-02T17:45:36Z</time></trkpt><trkpt lat="45.50622861956912" lon="13.702051717107214"><ele>198.0</ele><time>2026-05-02T17:45:38Z</time></trkpt><trkpt lat="45.506245314249654" lon="13.70214424519074"><ele>197.0</ele><time>2026-05-02T17:45:43Z</time></trkpt><trkpt lat="45.50628444689233" lon="13.702229207529188"><ele>196.0</ele><time>2026-05-02T17:45:47Z</time></trkpt><trkpt lat="45.506315018540256" lon="13.702340283006155"><ele>195.0</ele><time>2026-05-02T17:45:49Z</time></trkpt><trkpt lat="45.50629794500368" lon="13.702435944406721"><ele>194.0</ele><time>2026-05-02T17:45:50Z</time></trkpt><trkpt lat="45.506322519762406" lon="13.702572146981568"><ele>193.0</ele><time>2026-05-02T17:45:52Z</time></trkpt><trkpt lat="45.506350339720484" lon="13.702741449417754"><ele>192.0</ele><time>2026-05-02T17:45:54Z</time></trkpt><trkpt lat="45.5063658965494" lon="13.70283738297333"><ele>192.0</ele><time>2026-05-02T17:45:55Z</time></trkpt><trkpt lat="45.50638192965758" lon="13.702931918049012"><ele>192.0</ele><time>2026-05-02T17:45:56Z</time></trkpt><trkpt lat="45.50641206323708" lon="13.703092774402673"><ele>192.0</ele><time>2026-05-02T17:45:58Z</time></trkpt><trkpt lat="45.50643002473691" lon="13.703184122093292"><ele>192.0</ele><time>2026-05-02T17:45:59Z</time></trkpt><trkpt lat="45.506448688798564" lon="13.70327904278038"><ele>192.0</ele><time>2026-05-02T17:46:00Z</time></trkpt><trkpt lat="45.506466703442115" lon="13.703370660759001"><ele>192.0</ele><time>2026-05-02T17:46:01Z</time></trkpt><trkpt lat="45.50648455892795" lon="13.703461469167728"><ele>192.0</ele><time>2026-05-02T17:46:02Z</time></trkpt><trkpt lat="45.50650328858968" lon="13.703561867006538"><ele>192.0</ele><time>2026-05-02T17:46:03Z</time></trkpt><trkpt lat="45.506522838218615" lon="13.703679005263796"><ele>192.0</ele><time>2026-05-02T17:46:04Z</time></trkpt><trkpt lat="45.506542422943745" lon="13.703805707610268"><ele>192.0</ele><time>2026-05-02T17:46:05Z</time></trkpt><trkpt lat="45.50656720374785" lon="13.70393251092792"><ele>192.0</ele><time>2026-05-02T17:46:06Z</time></trkpt><trkpt lat="45.50659842717331" lon="13.704057946309307"><ele>192.0</ele><time>2026-05-02T17:46:07Z</time></trkpt><trkpt lat="45.506639477112195" lon="13.70417634954715"><ele>194.0</ele><time>2026-05-02T17:46:08Z</time></trkpt><trkpt lat="45.506702665508946" lon="13.704280900772444"><ele>196.0</ele><time>2026-05-02T17:46:09Z</time></trkpt><trkpt lat="45.506749684772934" lon="13.70438903542672"><ele>198.0</ele><time>2026-05-02T17:46:10Z</time></trkpt><trkpt lat="45.50680307424091" lon="13.704493421611108"><ele>200.0</ele><time>2026-05-02T17:46:11Z</time></trkpt><trkpt lat="45.50686492536111" lon="13.70458916029252"><ele>202.0</ele><time>2026-05-02T17:46:12Z</time></trkpt><trkpt lat="45.506930990954885" lon="13.70467794734443"><ele>202.33333333333331</ele><time>2026-05-02T17:46:13Z</time></trkpt><trkpt lat="45.506998257041694" lon="13.704757819949585"><ele>202.66666666666666</ele><time>2026-05-02T17:46:14Z</time></trkpt><trkpt lat="45.507075888365456" lon="13.704828748918088"><ele>203.0</ele><time>2026-05-02T17:46:15Z</time></trkpt><trkpt lat="45.507153979748985" lon="13.704891013791789"><ele>203.33333333333331</ele><time>2026-05-02T17:46:16Z</time></trkpt><trkpt lat="45.507224463312" lon="13.704941053917945"><ele>203.66666666666666</ele><time>2026-05-02T17:46:17Z</time></trkpt><trkpt lat="45.50729878907447" lon="13.704984544360252"><ele>204.0</ele><time>2026-05-02T17:46:18Z</time></trkpt><trkpt lat="45.50737949690245" lon="13.705044309755566"><ele>204.0</ele><time>2026-05-02T17:46:19Z</time></trkpt><trkpt lat="45.5074682144748" lon="13.705086018977989"><ele>204.0</ele><time>2026-05-02T17:46:20Z</time></trkpt><trkpt lat="45.50756132383158" lon="13.70510609700511"><ele>204.0</ele><time>2026-05-02T17:46:21Z</time></trkpt><trkpt lat="45.50765631741144" lon="13.705107872602266"><ele>204.0</ele><time>2026-05-02T17:46:22Z</time></trkpt><trkpt lat="45.50774881274204" lon="13.705102019044563"><ele>204.0</ele><time>2026-05-02T17:46:23Z</time></trkpt><trkpt lat="45.50784508104046" lon="13.705090353405106"><ele>204.79999999999998</ele><time>2026-05-02T17:46:24Z</time></trkpt><trkpt lat="45.507939243436454" lon="13.705072699175252"><ele>205.6</ele><time>2026-05-02T17:46:25Z</time></trkpt><trkpt lat="45.50803370429272" lon="13.705039490148359"><ele>206.4</ele><time>2026-05-02T17:46:26Z</time></trkpt><trkpt lat="45.50812518526734" lon="13.704996224592925"><ele>207.2</ele><time>2026-05-02T17:46:27Z</time></trkpt><trkpt lat="45.50820979555783" lon="13.70494101349921"><ele>208.0</ele><time>2026-05-02T17:46:28Z</time></trkpt><trkpt lat="45.50829550920986" lon="13.704901306206576"><ele>207.99999999999997</ele><time>2026-05-02T17:46:29Z</time></trkpt><trkpt lat="45.50837882319527" lon="13.70486007089841"><ele>208.0</ele><time>2026-05-02T17:46:30Z</time></trkpt><trkpt lat="45.50846309349588" lon="13.704822609018626"><ele>208.0</ele><time>2026-05-02T17:46:31Z</time></trkpt><trkpt lat="45.50854739460423" lon="13.704794572723447"><ele>208.0</ele><time>2026-05-02T17:46:32Z</time></trkpt><trkpt lat="45.50862901848876" lon="13.704765390159327"><ele>207.99999999999997</ele><time>2026-05-02T17:46:33Z</time></trkpt><trkpt lat="45.508706556628375" lon="13.704745930583494"><ele>208.0</ele><time>2026-05-02T17:46:34Z</time></trkpt><trkpt lat="45.50877795946004" lon="13.70473566971961"><ele>208.49999999999997</ele><time>2026-05-02T17:46:35Z</time></trkpt><trkpt lat="45.50884526176524" lon="13.704727603723587"><ele>209.0</ele><time>2026-05-02T17:46:36Z</time></trkpt><trkpt lat="45.50891079727721" lon="13.704727255419433"><ele>209.5</ele><time>2026-05-02T17:46:37Z</time></trkpt><trkpt lat="45.50902386978756" lon="13.704731430051222"><ele>210.0</ele><time>2026-05-02T17:46:39Z</time></trkpt><trkpt lat="45.50912132955382" lon="13.704758573795239"><ele>210.49999999999997</ele><time>2026-05-02T17:46:41Z</time></trkpt><trkpt lat="45.509206724863226" lon="13.70479655402607"><ele>211.0</ele><time>2026-05-02T17:46:43Z</time></trkpt><trkpt lat="45.50928204722199" lon="13.704883333945242"><ele>210.99999999999997</ele><time>2026-05-02T17:46:45Z</time></trkpt><trkpt lat="45.50936057607284" lon="13.704989663261772"><ele>211.0</ele><time>2026-05-02T17:46:47Z</time></trkpt><trkpt lat="45.50945078481905" lon="13.704960083541163"><ele>211.0</ele><time>2026-05-02T17:46:48Z</time></trkpt><trkpt lat="45.509520013767784" lon="13.704997873712248"><ele>211.0</ele><time>2026-05-02T17:46:49Z</time></trkpt><trkpt lat="45.509587091153044" lon="13.705067937154224"><ele>210.99999999999997</ele><time>2026-05-02T17:46:50Z</time></trkpt><trkpt lat="45.509644620057784" lon="13.705143670171584"><ele>211.0</ele><time>2026-05-02T17:46:51Z</time></trkpt><trkpt lat="45.50969465924758" lon="13.705218719468036"><ele>211.33333333333331</ele><time>2026-05-02T17:46:52Z</time></trkpt><trkpt lat="45.50974548913058" lon="13.70530035325224"><ele>211.66666666666666</ele><time>2026-05-02T17:46:53Z</time></trkpt><trkpt lat="45.509799291388134" lon="13.705392213505272"><ele>212.0</ele><time>2026-05-02T17:46:54Z</time></trkpt><trkpt lat="45.50985244506522" lon="13.7054898698084"><ele>212.33333333333331</ele><time>2026-05-02T17:46:55Z</time></trkpt><trkpt lat="45.50990712984937" lon="13.705589429898726"><ele>212.66666666666666</ele><time>2026-05-02T17:46:56Z</time></trkpt><trkpt lat="45.50996031632846" lon="13.705692093818492"><ele>213.0</ele><time>2026-05-02T17:46:57Z</time></trkpt><trkpt lat="45.5100120945513" lon="13.705788080838392"><ele>213.0</ele><time>2026-05-02T17:46:58Z</time></trkpt><trkpt lat="45.510062145301404" lon="13.705882126348328"><ele>213.0</ele><time>2026-05-02T17:46:59Z</time></trkpt><trkpt lat="45.51010818277633" lon="13.705974761504805"><ele>213.0</ele><time>2026-05-02T17:47:00Z</time></trkpt><trkpt lat="45.510153061363454" lon="13.70606831301121"><ele>213.0</ele><time>2026-05-02T17:47:01Z</time></trkpt><trkpt lat="45.51019518911975" lon="13.70616067590091"><ele>213.0</ele><time>2026-05-02T17:47:02Z</time></trkpt><trkpt lat="45.510238505963464" lon="13.706250555647818"><ele>213.0</ele><time>2026-05-02T17:47:03Z</time></trkpt><trkpt lat="45.51028148282355" lon="13.706338837392876"><ele>211.83333333333334</ele><time>2026-05-02T17:47:04Z</time></trkpt><trkpt lat="45.5103269062666" lon="13.706427288499745"><ele>210.66666666666669</ele><time>2026-05-02T17:47:05Z</time></trkpt><trkpt lat="45.510373346999984" lon="13.706515341284037"><ele>209.5</ele><time>2026-05-02T17:47:06Z</time></trkpt><trkpt lat="45.51041995770158" lon="13.706603380220692"><ele>208.33333333333334</ele><time>2026-05-02T17:47:07Z</time></trkpt><trkpt lat="45.510466792850025" lon="13.70669650439462"><ele>207.16666666666669</ele><time>2026-05-02T17:47:08Z</time></trkpt><trkpt lat="45.510513975203594" lon="13.706791234581058"><ele>206.0</ele><time>2026-05-02T17:47:09Z</time></trkpt><trkpt lat="45.51056327898172" lon="13.70689173681783"><ele>207.28571428571428</ele><time>2026-05-02T17:47:10Z</time></trkpt><trkpt lat="45.510605377894294" lon="13.706973240350406"><ele>208.57142857142856</ele><time>2026-05-02T17:47:11Z</time></trkpt><trkpt lat="45.51066011331754" lon="13.707054668758929"><ele>209.85714285714283</ele><time>2026-05-02T17:47:13Z</time></trkpt><trkpt lat="45.510698174293026" lon="13.707127631817237"><ele>211.14285714285714</ele><time>2026-05-02T17:47:15Z</time></trkpt><trkpt lat="45.51073524052418" lon="13.707208008105603"><ele>212.42857142857144</ele><time>2026-05-02T17:47:17Z</time></trkpt><trkpt lat="45.51077333065217" lon="13.7072807851454"><ele>213.7142857142857</ele><time>2026-05-02T17:47:20Z</time></trkpt><trkpt lat="45.510816493992806" lon="13.707371266367144"><ele>215.0</ele><time>2026-05-02T17:47:24Z</time></trkpt><trkpt lat="45.51086005618654" lon="13.707464303130713"><ele>215.0</ele><time>2026-05-02T17:47:26Z</time></trkpt><trkpt lat="45.51091055154248" lon="13.707560967515171"><ele>215.0</ele><time>2026-05-02T17:47:28Z</time></trkpt><trkpt lat="45.51098563085279" lon="13.707713971328708"><ele>215.0</ele><time>2026-05-02T17:47:30Z</time></trkpt><trkpt lat="45.51101882109329" lon="13.70779381898042"><ele>215.0</ele><time>2026-05-02T17:47:31Z</time></trkpt><trkpt lat="45.511089419316676" lon="13.707942725284962"><ele>215.0</ele><time>2026-05-02T17:47:33Z</time></trkpt><trkpt lat="45.51113279708435" lon="13.70803226428784"><ele>215.33333333333334</ele><time>2026-05-02T17:47:34Z</time></trkpt><trkpt lat="45.51117271493138" lon="13.708127166422306"><ele>215.66666666666669</ele><time>2026-05-02T17:47:35Z</time></trkpt><trkpt lat="45.51121231784668" lon="13.70823170120552"><ele>216.0</ele><time>2026-05-02T17:47:36Z</time></trkpt><trkpt lat="45.51124902897804" lon="13.708343431992303"><ele>216.33333333333331</ele><time>2026-05-02T17:47:37Z</time></trkpt><trkpt lat="45.5112815151779" lon="13.708454727582922"><ele>216.66666666666666</ele><time>2026-05-02T17:47:38Z</time></trkpt><trkpt lat="45.511319250326665" lon="13.708570868032844"><ele>217.0</ele><time>2026-05-02T17:47:39Z</time></trkpt><trkpt lat="45.5113477505078" lon="13.708685855272938"><ele>216.99999999999997</ele><time>2026-05-02T17:47:40Z</time></trkpt><trkpt lat="45.5113813419156" lon="13.708802652690256"><ele>217.0</ele><time>2026-05-02T17:47:41Z</time></trkpt><trkpt lat="45.51141256517077" lon="13.708915899446255"><ele>217.0</ele><time>2026-05-02T17:47:42Z</time></trkpt><trkpt lat="45.51143821891788" lon="13.709021530268746"><ele>217.0</ele><time>2026-05-02T17:47:43Z</time></trkpt><trkpt lat="45.511471583719334" lon="13.709125910699296"><ele>216.99999999999997</ele><time>2026-05-02T17:47:44Z</time></trkpt><trkpt lat="45.5115114670772" lon="13.709228320153914"><ele>217.0</ele><time>2026-05-02T17:47:45Z</time></trkpt><trkpt lat="45.51155688270905" lon="13.709325728612058"><ele>214.83333333333331</ele><time>2026-05-02T17:47:46Z</time></trkpt><trkpt lat="45.5116023533981" lon="13.7094200805799"><ele>212.66666666666666</ele><time>2026-05-02T17:47:47Z</time></trkpt><trkpt lat="45.511648728558235" lon="13.709512643244542"><ele>210.5</ele><time>2026-05-02T17:47:48Z</time></trkpt><trkpt lat="45.511697008299464" lon="13.709605668640501"><ele>208.33333333333331</ele><time>2026-05-02T17:47:49Z</time></trkpt><trkpt lat="45.511748910908835" lon="13.709698437560128"><ele>206.16666666666666</ele><time>2026-05-02T17:47:50Z</time></trkpt><trkpt lat="45.5118015463722" lon="13.709787088314458"><ele>204.0</ele><time>2026-05-02T17:47:51Z</time></trkpt><trkpt lat="45.51185698713173" lon="13.709875546831698"><ele>204.0</ele><time>2026-05-02T17:47:52Z</time></trkpt><trkpt lat="45.51190924396853" lon="13.709968801847571"><ele>204.0</ele><time>2026-05-02T17:47:53Z</time></trkpt><trkpt lat="45.51195703754509" lon="13.71005965178685"><ele>204.0</ele><time>2026-05-02T17:47:54Z</time></trkpt><trkpt lat="45.51200988036268" lon="13.710154070915381"><ele>204.0</ele><time>2026-05-02T17:47:55Z</time></trkpt><trkpt lat="45.51206056074451" lon="13.710244751011611"><ele>204.0</ele><time>2026-05-02T17:47:56Z</time></trkpt><trkpt lat="45.512114993959074" lon="13.710341795547873"><ele>204.0</ele><time>2026-05-02T17:47:57Z</time></trkpt><trkpt lat="45.51216709825585" lon="13.710442457249506"><ele>204.0</ele><time>2026-05-02T17:47:58Z</time></trkpt><trkpt lat="45.51221097305811" lon="13.710541693565716"><ele>204.0</ele><time>2026-05-02T17:47:59Z</time></trkpt><trkpt lat="45.51226198847584" lon="13.71064795731648"><ele>204.0</ele><time>2026-05-02T17:48:00Z</time></trkpt><trkpt lat="45.51230964442195" lon="13.71075597750394"><ele>204.0</ele><time>2026-05-02T17:48:01Z</time></trkpt><trkpt lat="45.5123527412765" lon="13.710869304133698"><ele>204.0</ele><time>2026-05-02T17:48:02Z</time></trkpt><trkpt lat="45.51239482107527" lon="13.71098735789407"><ele>204.0</ele><time>2026-05-02T17:48:03Z</time></trkpt><trkpt lat="45.51243289969756" lon="13.711106403416235"><ele>204.0</ele><time>2026-05-02T17:48:04Z</time></trkpt><trkpt lat="45.51246798682293" lon="13.711228200585381"><ele>204.0</ele><time>2026-05-02T17:48:05Z</time></trkpt><trkpt lat="45.51250376110408" lon="13.71135371594193"><ele>204.0</ele><time>2026-05-02T17:48:06Z</time></trkpt><trkpt lat="45.512536310928745" lon="13.711478869884374"><ele>204.0</ele><time>2026-05-02T17:48:07Z</time></trkpt><trkpt lat="45.51256526287136" lon="13.71160155752706"><ele>204.0</ele><time>2026-05-02T17:48:08Z</time></trkpt><trkpt lat="45.51259282329613" lon="13.711718780482208"><ele>204.0</ele><time>2026-05-02T17:48:09Z</time></trkpt><trkpt lat="45.512617751753424" lon="13.711822665461334"><ele>204.0</ele><time>2026-05-02T17:48:10Z</time></trkpt><trkpt lat="45.51264236890291" lon="13.711923039174598"><ele>204.0</ele><time>2026-05-02T17:48:11Z</time></trkpt><trkpt lat="45.51266600596403" lon="13.712014775222265"><ele>204.0</ele><time>2026-05-02T17:48:12Z</time></trkpt><trkpt lat="45.51269948671844" lon="13.712137611371356"><ele>204.0</ele><time>2026-05-02T17:48:14Z</time></trkpt><trkpt lat="45.512738011344496" lon="13.712248449567838"><ele>204.0</ele><time>2026-05-02T17:48:16Z</time></trkpt><trkpt lat="45.512779853960666" lon="13.712379333962136"><ele>204.5</ele><time>2026-05-02T17:48:18Z</time></trkpt><trkpt lat="45.51281749613769" lon="13.71246027728551"><ele>205.0</ele><time>2026-05-02T17:48:19Z</time></trkpt><trkpt lat="45.51286221147286" lon="13.712555797622086"><ele>205.5</ele><time>2026-05-02T17:48:20Z</time></trkpt><trkpt lat="45.51291111693231" lon="13.712665411844574"><ele>206.0</ele><time>2026-05-02T17:48:21Z</time></trkpt><trkpt lat="45.512969361277484" lon="13.712782289862254"><ele>206.5</ele><time>2026-05-02T17:48:22Z</time></trkpt><trkpt lat="45.51303112554075" lon="13.712894684699394"><ele>207.0</ele><time>2026-05-02T17:48:23Z</time></trkpt><trkpt lat="45.51310042783768" lon="13.71300872611125"><ele>204.25</ele><time>2026-05-02T17:48:24Z</time></trkpt><trkpt lat="45.513174232306135" lon="13.713123722346868"><ele>201.5</ele><time>2026-05-02T17:48:25Z</time></trkpt><trkpt lat="45.51326003695325" lon="13.713248962451644"><ele>198.75</ele><time>2026-05-02T17:48:26Z</time></trkpt><trkpt lat="45.513346651628574" lon="13.713376200010606"><ele>196.0</ele><time>2026-05-02T17:48:27Z</time></trkpt><trkpt lat="45.513431360151046" lon="13.713505086487865"><ele>195.75</ele><time>2026-05-02T17:48:28Z</time></trkpt><trkpt lat="45.51351441472048" lon="13.713640933233753"><ele>195.5</ele><time>2026-05-02T17:48:29Z</time></trkpt><trkpt lat="45.513595401601144" lon="13.713781305271736"><ele>195.25</ele><time>2026-05-02T17:48:30Z</time></trkpt><trkpt lat="45.51367249261021" lon="13.713927312108776"><ele>195.0</ele><time>2026-05-02T17:48:31Z</time></trkpt><trkpt lat="45.513742572939215" lon="13.714080507885292"><ele>195.0</ele><time>2026-05-02T17:48:32Z</time></trkpt><trkpt lat="45.51380816181212" lon="13.714240487586395"><ele>195.0</ele><time>2026-05-02T17:48:33Z</time></trkpt><trkpt lat="45.513871653724806" lon="13.714405745808957"><ele>195.0</ele><time>2026-05-02T17:48:34Z</time></trkpt><trkpt lat="45.51393106528376" lon="13.714575178148953"><ele>195.0</ele><time>2026-05-02T17:48:35Z</time></trkpt><trkpt lat="45.513984798656494" lon="13.714751311836256"><ele>192.25</ele><time>2026-05-02T17:48:36Z</time></trkpt><trkpt lat="45.51403395795849" lon="13.714931620629121"><ele>189.5</ele><time>2026-05-02T17:48:37Z</time></trkpt><trkpt lat="45.5140806248599" lon="13.71511478622154"><ele>186.75</ele><time>2026-05-02T17:48:38Z</time></trkpt><trkpt lat="45.51412678413372" lon="13.715299523833613"><ele>184.0</ele><time>2026-05-02T17:48:39Z</time></trkpt><trkpt lat="45.51417922162874" lon="13.715484020607187"><ele>182.0</ele><time>2026-05-02T17:48:40Z</time></trkpt><trkpt lat="45.514240332294015" lon="13.71566283101015"><ele>180.0</ele><time>2026-05-02T17:48:41Z</time></trkpt><trkpt lat="45.51431319141724" lon="13.715831920839818"><ele>178.0</ele><time>2026-05-02T17:48:42Z</time></trkpt><trkpt lat="45.51440015557822" lon="13.71598529126743"><ele>176.0</ele><time>2026-05-02T17:48:43Z</time></trkpt><trkpt lat="45.51450003697991" lon="13.716122945393336"><ele>175.75</ele><time>2026-05-02T17:48:44Z</time></trkpt><trkpt lat="45.51460649663337" lon="13.71624434317642"><ele>175.5</ele><time>2026-05-02T17:48:45Z</time></trkpt><trkpt lat="45.51472645880232" lon="13.716342755987318"><ele>175.25</ele><time>2026-05-02T17:48:46Z</time></trkpt><trkpt lat="45.51485249516201" lon="13.716421610466368"><ele>175.0</ele><time>2026-05-02T17:48:47Z</time></trkpt><trkpt lat="45.51498590378644" lon="13.71647698681257"><ele>175.0</ele><time>2026-05-02T17:48:48Z</time></trkpt><trkpt lat="45.51512318283672" lon="13.71651132809955"><ele>175.0</ele><time>2026-05-02T17:48:49Z</time></trkpt><trkpt lat="45.515262112157416" lon="13.716525727051067"><ele>175.0</ele><time>2026-05-02T17:48:50Z</time></trkpt><trkpt lat="45.5154027970266" lon="13.716523469973554"><ele>175.0</ele><time>2026-05-02T17:48:51Z</time></trkpt><trkpt lat="45.51554051178109" lon="13.716516703827802"><ele>174.75</ele><time>2026-05-02T17:48:52Z</time></trkpt><trkpt lat="45.5156718032504" lon="13.71652272281314"><ele>174.5</ele><time>2026-05-02T17:48:53Z</time></trkpt><trkpt lat="45.51579530034635" lon="13.716560225981544"><ele>174.25</ele><time>2026-05-02T17:48:54Z</time></trkpt><trkpt lat="45.51590994078723" lon="13.716642697111077"><ele>174.0</ele><time>2026-05-02T17:48:55Z</time></trkpt><trkpt lat="45.51601174038001" lon="13.716757614402074"><ele>171.0</ele><time>2026-05-02T17:48:56Z</time></trkpt><trkpt lat="45.5160841015622" lon="13.716908718851426"><ele>168.0</ele><time>2026-05-02T17:48:57Z</time></trkpt><trkpt lat="45.5161265647728" lon="13.717082358231018"><ele>165.0</ele><time>2026-05-02T17:48:58Z</time></trkpt><trkpt lat="45.5161366632307" lon="13.717262066290944"><ele>162.0</ele><time>2026-05-02T17:48:59Z</time></trkpt><trkpt lat="45.516111039874126" lon="13.717439339454945"><ele>162.0</ele><time>2026-05-02T17:49:00Z</time></trkpt><trkpt lat="45.51605403045032" lon="13.717607715144798"><ele>162.0</ele><time>2026-05-02T17:49:01Z</time></trkpt><trkpt lat="45.51596766121121" lon="13.717755685277917"><ele>162.0</ele><time>2026-05-02T17:49:02Z</time></trkpt><trkpt lat="45.51585872984661" lon="13.717868048917463"><ele>162.0</ele><time>2026-05-02T17:49:03Z</time></trkpt><trkpt lat="45.515737707479246" lon="13.717929553003264"><ele>158.75</ele><time>2026-05-02T17:49:04Z</time></trkpt><trkpt lat="45.515608826480936" lon="13.717943385704089"><ele>155.5</ele><time>2026-05-02T17:49:05Z</time></trkpt><trkpt lat="45.51547636045188" lon="13.717916139632257"><ele>152.25</ele><time>2026-05-02T17:49:06Z</time></trkpt><trkpt lat="45.51534238270054" lon="13.717869370573734"><ele>149.0</ele><time>2026-05-02T17:49:07Z</time></trkpt><trkpt lat="45.515202290818614" lon="13.717829270775404"><ele>147.75</ele><time>2026-05-02T17:49:08Z</time></trkpt><trkpt lat="45.51506081737103" lon="13.717816044490087"><ele>146.5</ele><time>2026-05-02T17:49:09Z</time></trkpt><trkpt lat="45.51492389205514" lon="13.717820029872632"><ele>145.25</ele><time>2026-05-02T17:49:10Z</time></trkpt><trkpt lat="45.51478854310989" lon="13.717843907857645"><ele>144.0</ele><time>2026-05-02T17:49:11Z</time></trkpt><trkpt lat="45.5146532824487" lon="13.717880811975318"><ele>142.75</ele><time>2026-05-02T17:49:12Z</time></trkpt><trkpt lat="45.514515759942825" lon="13.717907048998853"><ele>141.5</ele><time>2026-05-02T17:49:13Z</time></trkpt><trkpt lat="45.51437581355607" lon="13.71790272579337"><ele>140.25</ele><time>2026-05-02T17:49:14Z</time></trkpt><trkpt lat="45.51423792560926" lon="13.717865912081932"><ele>139.0</ele><time>2026-05-02T17:49:15Z</time></trkpt><trkpt lat="45.51410600677944" lon="13.717800728336325"><ele>140.75</ele><time>2026-05-02T17:49:16Z</time></trkpt><trkpt lat="45.51397544140573" lon="13.71772486963628"><ele>142.5</ele><time>2026-05-02T17:49:17Z</time></trkpt><trkpt lat="45.51384666167677" lon="13.717648361054382"><ele>144.25</ele><time>2026-05-02T17:49:18Z</time></trkpt><trkpt lat="45.51371056687894" lon="13.717597212186973"><ele>146.0</ele><time>2026-05-02T17:49:19Z</time></trkpt><trkpt lat="45.51356533681191" lon="13.717578656062798"><ele>146.0</ele><time>2026-05-02T17:49:20Z</time></trkpt><trkpt lat="45.51342710552586" lon="13.717583476518971"><ele>146.0</ele><time>2026-05-02T17:49:21Z</time></trkpt><trkpt lat="45.51328944843489" lon="13.717614432446391"><ele>146.0</ele><time>2026-05-02T17:49:22Z</time></trkpt><trkpt lat="45.51315275281901" lon="13.717668038662596"><ele>146.0</ele><time>2026-05-02T17:49:23Z</time></trkpt><trkpt lat="45.51301806378978" lon="13.717728390721087"><ele>141.5</ele><time>2026-05-02T17:49:24Z</time></trkpt><trkpt lat="45.51288024919284" lon="13.717788256817377"><ele>137.0</ele><time>2026-05-02T17:49:25Z</time></trkpt><trkpt lat="45.51274316706394" lon="13.717846716293876"><ele>132.5</ele><time>2026-05-02T17:49:26Z</time></trkpt><trkpt lat="45.5126000390816" lon="13.717884321197753"><ele>128.0</ele><time>2026-05-02T17:49:27Z</time></trkpt><trkpt lat="45.51245575910118" lon="13.717895534704862"><ele>128.0</ele><time>2026-05-02T17:49:28Z</time></trkpt><trkpt lat="45.51230904090938" lon="13.71788913976714"><ele>128.0</ele><time>2026-05-02T17:49:29Z</time></trkpt><trkpt lat="45.51216362032014" lon="13.717853993591921"><ele>128.0</ele><time>2026-05-02T17:49:30Z</time></trkpt><trkpt lat="45.51202185400142" lon="13.717799468445198"><ele>128.0</ele><time>2026-05-02T17:49:31Z</time></trkpt><trkpt lat="45.51188170832532" lon="13.717724070489076"><ele>128.75</ele><time>2026-05-02T17:49:32Z</time></trkpt><trkpt lat="45.5117461721183" lon="13.717633378881185"><ele>129.5</ele><time>2026-05-02T17:49:33Z</time></trkpt><trkpt lat="45.51161913172872" lon="13.717528401094453"><ele>130.25</ele><time>2026-05-02T17:49:34Z</time></trkpt><trkpt lat="45.511492661183965" lon="13.717419070388251"><ele>131.0</ele><time>2026-05-02T17:49:35Z</time></trkpt><trkpt lat="45.51136041506421" lon="13.717325193680281"><ele>128.25</ele><time>2026-05-02T17:49:36Z</time></trkpt><trkpt lat="45.51122400165284" lon="13.717247944689994"><ele>125.5</ele><time>2026-05-02T17:49:37Z</time></trkpt><trkpt lat="45.5110827161601" lon="13.717187593940162"><ele>122.75</ele><time>2026-05-02T17:49:38Z</time></trkpt><trkpt lat="45.510935264659345" lon="13.717148322356442"><ele>120.0</ele><time>2026-05-02T17:49:39Z</time></trkpt><trkpt lat="45.510789209356716" lon="13.717128331740344"><ele>120.0</ele><time>2026-05-02T17:49:40Z</time></trkpt><trkpt lat="45.51064048649621" lon="13.717124253091548"><ele>120.0</ele><time>2026-05-02T17:49:41Z</time></trkpt><trkpt lat="45.51049369169722" lon="13.717126678657783"><ele>120.0</ele><time>2026-05-02T17:49:42Z</time></trkpt><trkpt lat="45.510344330364894" lon="13.717126680711438"><ele>120.0</ele><time>2026-05-02T17:49:43Z</time></trkpt><trkpt lat="45.51019547554723" lon="13.717103362695347"><ele>120.0</ele><time>2026-05-02T17:49:44Z</time></trkpt><trkpt lat="45.510047338865704" lon="13.717067221474146"><ele>120.0</ele><time>2026-05-02T17:49:45Z</time></trkpt><trkpt lat="45.50990167448649" lon="13.717003137145955"><ele>120.0</ele><time>2026-05-02T17:49:46Z</time></trkpt><trkpt lat="45.509771427296826" lon="13.716894385473475"><ele>120.0</ele><time>2026-05-02T17:49:47Z</time></trkpt><trkpt lat="45.50965889097434" lon="13.716751465602082"><ele>120.0</ele><time>2026-05-02T17:49:48Z</time></trkpt><trkpt lat="45.50956135500164" lon="13.716584719114813"><ele>120.0</ele><time>2026-05-02T17:49:49Z</time></trkpt><trkpt lat="45.5094863154061" lon="13.716400754370815"><ele>119.0</ele><time>2026-05-02T17:49:50Z</time></trkpt><trkpt lat="45.509425736210346" lon="13.716208912778786"><ele>118.0</ele><time>2026-05-02T17:49:51Z</time></trkpt><trkpt lat="45.50937016204581" lon="13.716018830061135"><ele>117.0</ele><time>2026-05-02T17:49:52Z</time></trkpt><trkpt lat="45.50930735573808" lon="13.71583985402978"><ele>116.0</ele><time>2026-05-02T17:49:53Z</time></trkpt><trkpt lat="45.509227748186994" lon="13.715680504527013"><ele>116.0</ele><time>2026-05-02T17:49:54Z</time></trkpt><trkpt lat="45.50912937682036" lon="13.715549442545939"><ele>116.0</ele><time>2026-05-02T17:49:55Z</time></trkpt><trkpt lat="45.50901420982898" lon="13.715456847330989"><ele>116.0</ele><time>2026-05-02T17:49:56Z</time></trkpt><trkpt lat="45.50888718430199" lon="13.715405950806511"><ele>116.0</ele><time>2026-05-02T17:49:57Z</time></trkpt><trkpt lat="45.5087598817237" lon="13.71539378210141"><ele>111.5</ele><time>2026-05-02T17:49:58Z</time></trkpt><trkpt lat="45.50863578761548" lon="13.71542020476954"><ele>107.0</ele><time>2026-05-02T17:49:59Z</time></trkpt><trkpt lat="45.508517455910265" lon="13.715487559106613"><ele>102.5</ele><time>2026-05-02T17:50:00Z</time></trkpt><trkpt lat="45.50840907423734" lon="13.715587549709715"><ele>98.0</ele><time>2026-05-02T17:50:01Z</time></trkpt><trkpt lat="45.50831690690454" lon="13.71571851937731"><ele>98.0</ele><time>2026-05-02T17:50:02Z</time></trkpt><trkpt lat="45.50824584660216" lon="13.715876373223606"><ele>98.0</ele><time>2026-05-02T17:50:03Z</time></trkpt><trkpt lat="45.50820157030962" lon="13.716055249457833"><ele>98.0</ele><time>2026-05-02T17:50:04Z</time></trkpt><trkpt lat="45.508188455839026" lon="13.71624654945398"><ele>98.0</ele><time>2026-05-02T17:50:05Z</time></trkpt><trkpt lat="45.50820689868914" lon="13.716439037175416"><ele>97.5</ele><time>2026-05-02T17:50:06Z</time></trkpt><trkpt lat="45.5082579516547" lon="13.716622032261808"><ele>97.0</ele><time>2026-05-02T17:50:07Z</time></trkpt><trkpt lat="45.50833092647728" lon="13.716789577836312"><ele>96.5</ele><time>2026-05-02T17:50:08Z</time></trkpt><trkpt lat="45.50841739631" lon="13.716941406797162"><ele>96.0</ele><time>2026-05-02T17:50:09Z</time></trkpt><trkpt lat="45.50850572097707" lon="13.717088100504323"><ele>96.0</ele><time>2026-05-02T17:50:10Z</time></trkpt><trkpt lat="45.508591166088216" lon="13.717238517816371"><ele>96.0</ele><time>2026-05-02T17:50:11Z</time></trkpt><trkpt lat="45.508663546428835" lon="13.717398767567508"><ele>96.0</ele><time>2026-05-02T17:50:12Z</time></trkpt><trkpt lat="45.50872164730677" lon="13.717567224062494"><ele>96.0</ele><time>2026-05-02T17:50:13Z</time></trkpt><trkpt lat="45.50877595775719" lon="13.717739048090788"><ele>96.0</ele><time>2026-05-02T17:50:14Z</time></trkpt><trkpt lat="45.50883530884975" lon="13.717906142898933"><ele>96.0</ele><time>2026-05-02T17:50:15Z</time></trkpt><trkpt lat="45.50890157413208" lon="13.718066691367788"><ele>96.0</ele><time>2026-05-02T17:50:16Z</time></trkpt><trkpt lat="45.50897414111441" lon="13.7182194948606"><ele>96.0</ele><time>2026-05-02T17:50:17Z</time></trkpt><trkpt lat="45.509056580039186" lon="13.718359937067552"><ele>96.0</ele><time>2026-05-02T17:50:18Z</time></trkpt><trkpt lat="45.50915444499077" lon="13.718485572550481"><ele>96.0</ele><time>2026-05-02T17:50:19Z</time></trkpt><trkpt lat="45.50925528439972" lon="13.718594253084994"><ele>96.0</ele><time>2026-05-02T17:50:20Z</time></trkpt><trkpt lat="45.50936442065674" lon="13.71869013517841"><ele>96.0</ele><time>2026-05-02T17:50:21Z</time></trkpt><trkpt lat="45.50947695172111" lon="13.718778050324138"><ele>94.0</ele><time>2026-05-02T17:50:22Z</time></trkpt><trkpt lat="45.50959292820716" lon="13.718859859121862"><ele>92.0</ele><time>2026-05-02T17:50:23Z</time></trkpt><trkpt lat="45.5097088993089" lon="13.718940675451543"><ele>90.0</ele><time>2026-05-02T17:50:24Z</time></trkpt><trkpt lat="45.509822005021846" lon="13.719025572188148"><ele>88.0</ele><time>2026-05-02T17:50:25Z</time></trkpt><trkpt lat="45.50993117370431" lon="13.719128196279481"><ele>88.0</ele><time>2026-05-02T17:50:26Z</time></trkpt><trkpt lat="45.51003726548573" lon="13.71924338283826"><ele>88.0</ele><time>2026-05-02T17:50:27Z</time></trkpt><trkpt lat="45.51013240099665" lon="13.719367881336398"><ele>88.0</ele><time>2026-05-02T17:50:28Z</time></trkpt><trkpt lat="45.510219955649774" lon="13.719502113164548"><ele>88.0</ele><time>2026-05-02T17:50:29Z</time></trkpt><trkpt lat="45.51030162424329" lon="13.719645483249458"><ele>87.25</ele><time>2026-05-02T17:50:30Z</time></trkpt><trkpt lat="45.51037202829715" lon="13.719796782999088"><ele>86.5</ele><time>2026-05-02T17:50:31Z</time></trkpt><trkpt lat="45.51043761864477" lon="13.719944584475767"><ele>85.75</ele><time>2026-05-02T17:50:32Z</time></trkpt><trkpt lat="45.51050719704709" lon="13.72009410230711"><ele>85.0</ele><time>2026-05-02T17:50:33Z</time></trkpt><trkpt lat="45.51057935636219" lon="13.720239189359841"><ele>84.0</ele><time>2026-05-02T17:50:34Z</time></trkpt><trkpt lat="45.51065570618813" lon="13.720381024705494"><ele>83.0</ele><time>2026-05-02T17:50:35Z</time></trkpt><trkpt lat="45.51074057022101" lon="13.720513076051333"><ele>82.0</ele><time>2026-05-02T17:50:36Z</time></trkpt><trkpt lat="45.51083473967908" lon="13.720635261742176"><ele>81.0</ele><time>2026-05-02T17:50:37Z</time></trkpt><trkpt lat="45.510934957534104" lon="13.720748682200163"><ele>81.0</ele><time>2026-05-02T17:50:38Z</time></trkpt><trkpt lat="45.511037852659754" lon="13.720848176879041"><ele>81.0</ele><time>2026-05-02T17:50:39Z</time></trkpt><trkpt lat="45.51114491901793" lon="13.720940462730887"><ele>81.0</ele><time>2026-05-02T17:50:40Z</time></trkpt><trkpt lat="45.51126093098491" lon="13.721022488109757"><ele>81.0</ele><time>2026-05-02T17:50:41Z</time></trkpt><trkpt lat="45.51137565924183" lon="13.721094018885232"><ele>76.25</ele><time>2026-05-02T17:50:42Z</time></trkpt><trkpt lat="45.511495178589215" lon="13.721159340955078"><ele>71.5</ele><time>2026-05-02T17:50:43Z</time></trkpt><trkpt lat="45.51161987254289" lon="13.721211755031876"><ele>66.75</ele><time>2026-05-02T17:50:44Z</time></trkpt><trkpt lat="45.511748477975146" lon="13.721251949488371"><ele>62.0</ele><time>2026-05-02T17:50:45Z</time></trkpt><trkpt lat="45.51187978788305" lon="13.721290912852593"><ele>62.0</ele><time>2026-05-02T17:50:46Z</time></trkpt><trkpt lat="45.51200986681158" lon="13.721325821800228"><ele>62.0</ele><time>2026-05-02T17:50:47Z</time></trkpt><trkpt lat="45.512144119974465" lon="13.721356369935243"><ele>62.0</ele><time>2026-05-02T17:50:48Z</time></trkpt><trkpt lat="45.51227697614364" lon="13.721387608004227"><ele>62.0</ele><time>2026-05-02T17:50:49Z</time></trkpt><trkpt lat="45.51241533371481" lon="13.721429863825287"><ele>61.5</ele><time>2026-05-02T17:50:50Z</time></trkpt><trkpt lat="45.51254545237246" lon="13.721475911970499"><ele>61.0</ele><time>2026-05-02T17:50:51Z</time></trkpt><trkpt lat="45.51267529643206" lon="13.721530710678932"><ele>60.5</ele><time>2026-05-02T17:50:52Z</time></trkpt><trkpt lat="45.512789256826466" lon="13.72158800301983"><ele>60.0</ele><time>2026-05-02T17:50:53Z</time></trkpt><trkpt lat="45.51289474047489" lon="13.721650860297725"><ele>61.6</ele><time>2026-05-02T17:50:54Z</time></trkpt><trkpt lat="45.51299320259833" lon="13.721712873091676"><ele>63.2</ele><time>2026-05-02T17:50:55Z</time></trkpt><trkpt lat="45.51308720583405" lon="13.721772955257174"><ele>64.8</ele><time>2026-05-02T17:50:56Z</time></trkpt><trkpt lat="45.51317388592895" lon="13.721828448866743"><ele>66.4</ele><time>2026-05-02T17:50:57Z</time></trkpt><trkpt lat="45.513258287642856" lon="13.721883277734916"><ele>68.0</ele><time>2026-05-02T17:50:58Z</time></trkpt><trkpt lat="45.513343481217234" lon="13.721942816202832"><ele>64.4</ele><time>2026-05-02T17:50:59Z</time></trkpt><trkpt lat="45.51343383986865" lon="13.722004452696863"><ele>60.8</ele><time>2026-05-02T17:51:00Z</time></trkpt><trkpt lat="45.513525014904936" lon="13.72207273458609"><ele>57.2</ele><time>2026-05-02T17:51:01Z</time></trkpt><trkpt lat="45.5136194167026" lon="13.722139894255287"><ele>53.6</ele><time>2026-05-02T17:51:02Z</time></trkpt><trkpt lat="45.51371801208048" lon="13.722206726687325"><ele>50.0</ele><time>2026-05-02T17:51:03Z</time></trkpt><trkpt lat="45.513818912245476" lon="13.722274867557573"><ele>50.0</ele><time>2026-05-02T17:51:04Z</time></trkpt><trkpt lat="45.513922385869705" lon="13.722344767191474"><ele>50.0</ele><time>2026-05-02T17:51:05Z</time></trkpt><trkpt lat="45.51402698021338" lon="13.722415710486898"><ele>50.0</ele><time>2026-05-02T17:51:06Z</time></trkpt><trkpt lat="45.51412948245067" lon="13.722485848650685"><ele>50.0</ele><time>2026-05-02T17:51:07Z</time></trkpt><trkpt lat="45.51422826908819" lon="13.722553166706406"><ele>50.0</ele><time>2026-05-02T17:51:08Z</time></trkpt><trkpt lat="45.51432755415147" lon="13.722619858321238"><ele>50.0</ele><time>2026-05-02T17:51:09Z</time></trkpt><trkpt lat="45.514423135575704" lon="13.722686450779351"><ele>50.0</ele><time>2026-05-02T17:51:10Z</time></trkpt><trkpt lat="45.5145194357439" lon="13.722755803228136"><ele>50.0</ele><time>2026-05-02T17:51:11Z</time></trkpt><trkpt lat="45.51461782699968" lon="13.722825291237369"><ele>50.0</ele><time>2026-05-02T17:51:12Z</time></trkpt><trkpt lat="45.51471879224166" lon="13.722893950655829"><ele>47.5</ele><time>2026-05-02T17:51:13Z</time></trkpt><trkpt lat="45.5148227610596" lon="13.72296268646611"><ele>45.0</ele><time>2026-05-02T17:51:14Z</time></trkpt><trkpt lat="45.51492648569569" lon="13.723031464361004"><ele>42.5</ele><time>2026-05-02T17:51:15Z</time></trkpt><trkpt lat="45.51503866014302" lon="13.723098565011718"><ele>40.0</ele><time>2026-05-02T17:51:16Z</time></trkpt><trkpt lat="45.51514951095612" lon="13.723163552989876"><ele>40.0</ele><time>2026-05-02T17:51:17Z</time></trkpt><trkpt lat="45.51526677006168" lon="13.723228887336901"><ele>40.0</ele><time>2026-05-02T17:51:18Z</time></trkpt><trkpt lat="45.515380241139596" lon="13.72329862053033"><ele>40.0</ele><time>2026-05-02T17:51:19Z</time></trkpt><trkpt lat="45.515497124237726" lon="13.723369377300699"><ele>40.0</ele><time>2026-05-02T17:51:20Z</time></trkpt><trkpt lat="45.5156167338307" lon="13.723435967476812"><ele>40.5</ele><time>2026-05-02T17:51:21Z</time></trkpt><trkpt lat="45.515734801239844" lon="13.72350036968845"><ele>41.0</ele><time>2026-05-02T17:51:22Z</time></trkpt><trkpt lat="45.515855548006016" lon="13.723569404225406"><ele>41.5</ele><time>2026-05-02T17:51:23Z</time></trkpt><trkpt lat="45.51597713413944" lon="13.723636590825544"><ele>42.0</ele><time>2026-05-02T17:51:24Z</time></trkpt><trkpt lat="45.516099347603635" lon="13.72370511116766"><ele>39.75</ele><time>2026-05-02T17:51:25Z</time></trkpt><trkpt lat="45.51622205596257" lon="13.723771734391697"><ele>37.5</ele><time>2026-05-02T17:51:26Z</time></trkpt><trkpt lat="45.51634459242839" lon="13.723841655343843"><ele>35.25</ele><time>2026-05-02T17:51:27Z</time></trkpt><trkpt lat="45.51646463528217" lon="13.723911302669984"><ele>33.0</ele><time>2026-05-02T17:51:28Z</time></trkpt><trkpt lat="45.516585685193775" lon="13.723982381349547"><ele>32.25</ele><time>2026-05-02T17:51:29Z</time></trkpt><trkpt lat="45.516708399015286" lon="13.724051384716164"><ele>31.5</ele><time>2026-05-02T17:51:30Z</time></trkpt><trkpt lat="45.5168286202341" lon="13.72411728169411"><ele>30.75</ele><time>2026-05-02T17:51:31Z</time></trkpt><trkpt lat="45.516943419481144" lon="13.72418069932689"><ele>30.0</ele><time>2026-05-02T17:51:32Z</time></trkpt><trkpt lat="45.51706174559409" lon="13.724245211735749"><ele>29.75</ele><time>2026-05-02T17:51:33Z</time></trkpt><trkpt lat="45.517177834384796" lon="13.724310080507376"><ele>29.5</ele><time>2026-05-02T17:51:34Z</time></trkpt><trkpt lat="45.517291880351436" lon="13.724372974882256"><ele>29.25</ele><time>2026-05-02T17:51:35Z</time></trkpt><trkpt lat="45.51740696688326" lon="13.724434552322869"><ele>29.0</ele><time>2026-05-02T17:51:36Z</time></trkpt><trkpt lat="45.5175207236363" lon="13.724494236831294"><ele>29.0</ele><time>2026-05-02T17:51:37Z</time></trkpt><trkpt lat="45.51763132828442" lon="13.724555433539534"><ele>29.0</ele><time>2026-05-02T17:51:38Z</time></trkpt><trkpt lat="45.51774453744998" lon="13.72461622877219"><ele>29.0</ele><time>2026-05-02T17:51:39Z</time></trkpt><trkpt lat="45.51786132486885" lon="13.72468218876754"><ele>29.0</ele><time>2026-05-02T17:51:40Z</time></trkpt><trkpt lat="45.517979023271984" lon="13.72474825988385"><ele>27.75</ele><time>2026-05-02T17:51:41Z</time></trkpt><trkpt lat="45.518099931950744" lon="13.724811662279249"><ele>26.5</ele><time>2026-05-02T17:51:42Z</time></trkpt><trkpt lat="45.51821970338317" lon="13.724877863515077"><ele>25.25</ele><time>2026-05-02T17:51:43Z</time></trkpt><trkpt lat="45.51834172160666" lon="13.724948640927138"><ele>24.0</ele><time>2026-05-02T17:51:44Z</time></trkpt><trkpt lat="45.51846563476202" lon="13.7250197491402"><ele>24.0</ele><time>2026-05-02T17:51:45Z</time></trkpt><trkpt lat="45.51859070312644" lon="13.725089290211155"><ele>24.0</ele><time>2026-05-02T17:51:46Z</time></trkpt><trkpt lat="45.518718634351885" lon="13.725158684994215"><ele>24.0</ele><time>2026-05-02T17:51:47Z</time></trkpt><trkpt lat="45.518847011702036" lon="13.725231014740059"><ele>24.0</ele><time>2026-05-02T17:51:48Z</time></trkpt><trkpt lat="45.518977781057124" lon="13.725304593264072"><ele>23.75</ele><time>2026-05-02T17:51:49Z</time></trkpt><trkpt lat="45.51910766198409" lon="13.725384797715607"><ele>23.5</ele><time>2026-05-02T17:51:50Z</time></trkpt><trkpt lat="45.51924285790091" lon="13.725471242724502"><ele>23.25</ele><time>2026-05-02T17:51:51Z</time></trkpt><trkpt lat="45.519375519982795" lon="13.725560530702225"><ele>23.0</ele><time>2026-05-02T17:51:52Z</time></trkpt><trkpt lat="45.519506120448234" lon="13.725652316951177"><ele>24.333333333333336</ele><time>2026-05-02T17:51:53Z</time></trkpt><trkpt lat="45.5196427848593" lon="13.725747389670211"><ele>25.666666666666668</ele><time>2026-05-02T17:51:54Z</time></trkpt><trkpt lat="45.51977511413179" lon="13.725848548436893"><ele>27.0</ele><time>2026-05-02T17:51:55Z</time></trkpt><trkpt lat="45.51990574160029" lon="13.725955639772163"><ele>25.0</ele><time>2026-05-02T17:51:56Z</time></trkpt><trkpt lat="45.5200352646521" lon="13.72606600373748"><ele>23.0</ele><time>2026-05-02T17:51:57Z</time></trkpt><trkpt lat="45.52016217591475" lon="13.726178929369246"><ele>21.0</ele><time>2026-05-02T17:51:58Z</time></trkpt><trkpt lat="45.5202887271938" lon="13.726295194060922"><ele>22.25</ele><time>2026-05-02T17:51:59Z</time></trkpt><trkpt lat="45.52041296776144" lon="13.726414211185089"><ele>23.5</ele><time>2026-05-02T17:52:00Z</time></trkpt><trkpt lat="45.520536939990514" lon="13.726534918647287"><ele>24.75</ele><time>2026-05-02T17:52:01Z</time></trkpt><trkpt lat="45.520654839530664" lon="13.726660268388354"><ele>26.0</ele><time>2026-05-02T17:52:02Z</time></trkpt><trkpt lat="45.52077171867476" lon="13.72678982128261"><ele>24.25</ele><time>2026-05-02T17:52:03Z</time></trkpt><trkpt lat="45.52088740502276" lon="13.72692165171833"><ele>22.5</ele><time>2026-05-02T17:52:04Z</time></trkpt><trkpt lat="45.521000134526865" lon="13.72705752636994"><ele>20.75</ele><time>2026-05-02T17:52:05Z</time></trkpt><trkpt lat="45.52110796019394" lon="13.727193244631279"><ele>19.0</ele><time>2026-05-02T17:52:06Z</time></trkpt><trkpt lat="45.5212133114684" lon="13.727330329032329"><ele>18.5</ele><time>2026-05-02T17:52:07Z</time></trkpt><trkpt lat="45.52131689908514" lon="13.727470524973992"><ele>18.0</ele><time>2026-05-02T17:52:08Z</time></trkpt><trkpt lat="45.52142064358173" lon="13.727615466974157"><ele>17.5</ele><time>2026-05-02T17:52:09Z</time></trkpt><trkpt lat="45.52152178707661" lon="13.727762404063489"><ele>17.0</ele><time>2026-05-02T17:52:10Z</time></trkpt><trkpt lat="45.52161994759678" lon="13.72791334944275"><ele>17.0</ele><time>2026-05-02T17:52:11Z</time></trkpt><trkpt lat="45.52171503513217" lon="13.728068361978464"><ele>17.0</ele><time>2026-05-02T17:52:12Z</time></trkpt><trkpt lat="45.52181058104189" lon="13.728223205525032"><ele>17.0</ele><time>2026-05-02T17:52:13Z</time></trkpt><trkpt lat="45.521906734488" lon="13.728378863246816"><ele>17.0</ele><time>2026-05-02T17:52:14Z</time></trkpt><trkpt lat="45.52200254218465" lon="13.728533928812292"><ele>18.0</ele><time>2026-05-02T17:52:15Z</time></trkpt><trkpt lat="45.52209718955328" lon="13.728690441362657"><ele>19.0</ele><time>2026-05-02T17:52:16Z</time></trkpt><trkpt lat="45.52218978888471" lon="13.72884808811815"><ele>20.0</ele><time>2026-05-02T17:52:17Z</time></trkpt><trkpt lat="45.522282867294955" lon="13.729006560534133"><ele>21.0</ele><time>2026-05-02T17:52:18Z</time></trkpt><trkpt lat="45.5223760975323" lon="13.72916538720764"><ele>21.0</ele><time>2026-05-02T17:52:19Z</time></trkpt><trkpt lat="45.52247248401061" lon="13.729326560612169"><ele>21.0</ele><time>2026-05-02T17:52:20Z</time></trkpt><trkpt lat="45.52256849352201" lon="13.72948164911299"><ele>21.0</ele><time>2026-05-02T17:52:21Z</time></trkpt><trkpt lat="45.52266338020213" lon="13.729636526949776"><ele>21.0</ele><time>2026-05-02T17:52:22Z</time></trkpt><trkpt lat="45.522766367973425" lon="13.72979536121028"><ele>20.25</ele><time>2026-05-02T17:52:23Z</time></trkpt><trkpt lat="45.52286274117615" lon="13.72995803870486"><ele>19.5</ele><time>2026-05-02T17:52:24Z</time></trkpt><trkpt lat="45.522958621398665" lon="13.730119238628038"><ele>18.75</ele><time>2026-05-02T17:52:25Z</time></trkpt><trkpt lat="45.52305505073517" lon="13.730281169472011"><ele>18.0</ele><time>2026-05-02T17:52:26Z</time></trkpt><trkpt lat="45.52315097949888" lon="13.730445004190324"><ele>16.75</ele><time>2026-05-02T17:52:27Z</time></trkpt><trkpt lat="45.52324619755264" lon="13.730607226820771"><ele>15.5</ele><time>2026-05-02T17:52:28Z</time></trkpt><trkpt lat="45.5233431942683" lon="13.730763708571986"><ele>14.25</ele><time>2026-05-02T17:52:29Z</time></trkpt><trkpt lat="45.523434872101404" lon="13.730918703768754"><ele>13.0</ele><time>2026-05-02T17:52:30Z</time></trkpt><trkpt lat="45.523528998397495" lon="13.73107589609763"><ele>12.75</ele><time>2026-05-02T17:52:31Z</time></trkpt><trkpt lat="45.523622126248675" lon="13.731232677603293"><ele>12.5</ele><time>2026-05-02T17:52:32Z</time></trkpt><trkpt lat="45.52371493526949" lon="13.73138366095542"><ele>12.25</ele><time>2026-05-02T17:52:33Z</time></trkpt><trkpt lat="45.52381017598676" lon="13.7315317395462"><ele>12.0</ele><time>2026-05-02T17:52:34Z</time></trkpt><trkpt lat="45.52390221632712" lon="13.731670907862005"><ele>12.0</ele><time>2026-05-02T17:52:35Z</time></trkpt><trkpt lat="45.52399234706748" lon="13.731806537876334"><ele>12.0</ele><time>2026-05-02T17:52:36Z</time></trkpt><trkpt lat="45.524080644429176" lon="13.73193731182202"><ele>12.0</ele><time>2026-05-02T17:52:37Z</time></trkpt><trkpt lat="45.52416440097964" lon="13.732061522939544"><ele>12.0</ele><time>2026-05-02T17:52:38Z</time></trkpt><trkpt lat="45.52424878993998" lon="13.732180828925246"><ele>11.6</ele><time>2026-05-02T17:52:39Z</time></trkpt><trkpt lat="45.52433086994442" lon="13.732294451722549"><ele>11.2</ele><time>2026-05-02T17:52:40Z</time></trkpt><trkpt lat="45.52441063264427" lon="13.73240293838877"><ele>10.8</ele><time>2026-05-02T17:52:41Z</time></trkpt><trkpt lat="45.5244888293819" lon="13.732503807107024"><ele>10.4</ele><time>2026-05-02T17:52:42Z</time></trkpt><trkpt lat="45.524558078965505" lon="13.732603916394607"><ele>10.0</ele><time>2026-05-02T17:52:43Z</time></trkpt><trkpt lat="45.52463072921668" lon="13.732689896598009"><ele>10.333333333333334</ele><time>2026-05-02T17:52:44Z</time></trkpt><trkpt lat="45.524699789181085" lon="13.73277224825478"><ele>10.666666666666668</ele><time>2026-05-02T17:52:45Z</time></trkpt><trkpt lat="45.52476859575622" lon="13.732851084809269"><ele>11.0</ele><time>2026-05-02T17:52:46Z</time></trkpt><trkpt lat="45.52483772864371" lon="13.732926650343401"><ele>11.333333333333334</ele><time>2026-05-02T17:52:47Z</time></trkpt><trkpt lat="45.52490962951878" lon="13.732999204416048"><ele>11.666666666666666</ele><time>2026-05-02T17:52:48Z</time></trkpt><trkpt lat="45.524979417512554" lon="13.73306763902844"><ele>12.0</ele><time>2026-05-02T17:52:49Z</time></trkpt><trkpt lat="45.52504528544316" lon="13.733138521126417"><ele>12.0</ele><time>2026-05-02T17:52:50Z</time></trkpt><trkpt lat="45.52511269527655" lon="13.733210541457424"><ele>12.0</ele><time>2026-05-02T17:52:51Z</time></trkpt><trkpt lat="45.525178989846665" lon="13.733279121757842"><ele>12.0</ele><time>2026-05-02T17:52:52Z</time></trkpt><trkpt lat="45.52524602775774" lon="13.733348198804288"><ele>12.0</ele><time>2026-05-02T17:52:53Z</time></trkpt><trkpt lat="45.525318574293195" lon="13.733421899506178"><ele>12.0</ele><time>2026-05-02T17:52:54Z</time></trkpt><trkpt lat="45.52539757474059" lon="13.733498093008322"><ele>12.0</ele><time>2026-05-02T17:52:55Z</time></trkpt><trkpt lat="45.52548664481859" lon="13.733570411820114"><ele>11.4</ele><time>2026-05-02T17:52:56Z</time></trkpt><trkpt lat="45.525578042237036" lon="13.733642549295901"><ele>10.799999999999999</ele><time>2026-05-02T17:52:57Z</time></trkpt><trkpt lat="45.52567041974212" lon="13.733716440866047"><ele>10.2</ele><time>2026-05-02T17:52:58Z</time></trkpt><trkpt lat="45.525767912462236" lon="13.733793958252871"><ele>9.6</ele><time>2026-05-02T17:52:59Z</time></trkpt><trkpt lat="45.52586630348126" lon="13.733875636658327"><ele>9.0</ele><time>2026-05-02T17:53:00Z</time></trkpt><trkpt lat="45.52596452928988" lon="13.733955696416688"><ele>9.0</ele><time>2026-05-02T17:53:01Z</time></trkpt><trkpt lat="45.52605999538618" lon="13.734033878018455"><ele>9.0</ele><time>2026-05-02T17:53:02Z</time></trkpt><trkpt lat="45.52616188093042" lon="13.734110199073033"><ele>9.0</ele><time>2026-05-02T17:53:03Z</time></trkpt><trkpt lat="45.52626606187032" lon="13.73418547203653"><ele>9.0</ele><time>2026-05-02T17:53:04Z</time></trkpt><trkpt lat="45.526375737065685" lon="13.734259790740147"><ele>9.25</ele><time>2026-05-02T17:53:05Z</time></trkpt><trkpt lat="45.52649021219396" lon="13.734332321917904"><ele>9.5</ele><time>2026-05-02T17:53:06Z</time></trkpt><trkpt lat="45.52660514491108" lon="13.734406749393164"><ele>9.75</ele><time>2026-05-02T17:53:07Z</time></trkpt><trkpt lat="45.526719984638746" lon="13.734476444547184"><ele>10.0</ele><time>2026-05-02T17:53:08Z</time></trkpt><trkpt lat="45.52683379577394" lon="13.734537858341492"><ele>10.0</ele><time>2026-05-02T17:53:09Z</time></trkpt><trkpt lat="45.52694872705827" lon="13.734595083851284"><ele>10.0</ele><time>2026-05-02T17:53:10Z</time></trkpt><trkpt lat="45.52706124217693" lon="13.734648189166522"><ele>10.0</ele><time>2026-05-02T17:53:11Z</time></trkpt><trkpt lat="45.52717445702644" lon="13.734701085251135"><ele>10.0</ele><time>2026-05-02T17:53:12Z</time></trkpt><trkpt lat="45.527287092038485" lon="13.73474895404678"><ele>10.0</ele><time>2026-05-02T17:53:13Z</time></trkpt><trkpt lat="45.527397854045695" lon="13.734796745337828"><ele>10.0</ele><time>2026-05-02T17:53:14Z</time></trkpt><trkpt lat="45.527510202370124" lon="13.734835601069687"><ele>10.0</ele><time>2026-05-02T17:53:15Z</time></trkpt><trkpt lat="45.5276196128697" lon="13.734877599889094"><ele>10.0</ele><time>2026-05-02T17:53:16Z</time></trkpt><trkpt lat="45.527724541564446" lon="13.734921180319828"><ele>10.0</ele><time>2026-05-02T17:53:17Z</time></trkpt><trkpt lat="45.52782410942527" lon="13.73496443862052"><ele>10.0</ele><time>2026-05-02T17:53:18Z</time></trkpt><trkpt lat="45.527924670712444" lon="13.73500629498155"><ele>10.0</ele><time>2026-05-02T17:53:19Z</time></trkpt><trkpt lat="45.528019864167355" lon="13.73504546630278"><ele>10.0</ele><time>2026-05-02T17:53:20Z</time></trkpt><trkpt lat="45.528117528036496" lon="13.735082300068422"><ele>10.0</ele><time>2026-05-02T17:53:21Z</time></trkpt><trkpt lat="45.528213812655544" lon="13.735120098231711"><ele>10.0</ele><time>2026-05-02T17:53:22Z</time></trkpt><trkpt lat="45.528309001789786" lon="13.735154134427969"><ele>10.0</ele><time>2026-05-02T17:53:23Z</time></trkpt><trkpt lat="45.528407179249825" lon="13.735186719267137"><ele>10.0</ele><time>2026-05-02T17:53:24Z</time></trkpt><trkpt lat="45.528498572651145" lon="13.735216792788298"><ele>10.0</ele><time>2026-05-02T17:53:25Z</time></trkpt><trkpt lat="45.52859328743864" lon="13.735242078981756"><ele>10.0</ele><time>2026-05-02T17:53:26Z</time></trkpt><trkpt lat="45.52868727621509" lon="13.73525970946189"><ele>9.0</ele><time>2026-05-02T17:53:27Z</time></trkpt><trkpt lat="45.528782071693286" lon="13.735273384910075"><ele>8.0</ele><time>2026-05-02T17:53:28Z</time></trkpt><trkpt lat="45.528880961028854" lon="13.735279235257632"><ele>7.0</ele><time>2026-05-02T17:53:29Z</time></trkpt><trkpt lat="45.528983713793906" lon="13.735281897301155"><ele>6.0</ele><time>2026-05-02T17:53:30Z</time></trkpt><trkpt lat="45.52908427329473" lon="13.735283885271372"><ele>5.0</ele><time>2026-05-02T17:53:31Z</time></trkpt><trkpt lat="45.52918535335126" lon="13.735282770701263"><ele>5.0</ele><time>2026-05-02T17:53:32Z</time></trkpt><trkpt lat="45.52928354925751" lon="13.735281811162467"><ele>5.0</ele><time>2026-05-02T17:53:33Z</time></trkpt><trkpt lat="45.529373060810464" lon="13.735279725369166"><ele>5.0</ele><time>2026-05-02T17:53:34Z</time></trkpt><trkpt lat="45.52945587771173" lon="13.735279195727928"><ele>5.0</ele><time>2026-05-02T17:53:35Z</time></trkpt><trkpt lat="45.52953139117918" lon="13.735281423754113"><ele>5.0</ele><time>2026-05-02T17:53:36Z</time></trkpt><trkpt lat="45.52959438095922" lon="13.735286246570851"><ele>5.0</ele><time>2026-05-02T17:53:37Z</time></trkpt><trkpt lat="45.529670384590055" lon="13.735296352604504"><ele>4.8</ele><time>2026-05-02T17:53:39Z</time></trkpt><trkpt lat="45.52975102712135" lon="13.73531069855456"><ele>4.6</ele><time>2026-05-02T17:53:41Z</time></trkpt><trkpt lat="45.5298362591026" lon="13.735333140137225"><ele>4.4</ele><time>2026-05-02T17:53:43Z</time></trkpt><trkpt lat="45.52996776527477" lon="13.73529876765639"><ele>4.2</ele><time>2026-05-02T17:53:45Z</time></trkpt><trkpt lat="45.53005866570022" lon="13.735273817317807"><ele>4.0</ele><time>2026-05-02T17:53:46Z</time></trkpt><trkpt lat="45.53015965381631" lon="13.73525389070161"><ele>4.0</ele><time>2026-05-02T17:53:47Z</time></trkpt><trkpt lat="45.53026685077589" lon="13.735254772784408"><ele>4.0</ele><time>2026-05-02T17:53:48Z</time></trkpt><trkpt lat="45.530385800591084" lon="13.735254369692079"><ele>4.0</ele><time>2026-05-02T17:53:49Z</time></trkpt><trkpt lat="45.530502684580206" lon="13.7352485914135"><ele>4.0</ele><time>2026-05-02T17:53:50Z</time></trkpt><trkpt lat="45.530618597254175" lon="13.735243745609472"><ele>4.0</ele><time>2026-05-02T17:53:51Z</time></trkpt><trkpt lat="45.530749306605394" lon="13.73523700656432"><ele>4.0</ele><time>2026-05-02T17:53:52Z</time></trkpt><trkpt lat="45.53088886985979" lon="13.735233662521546"><ele>4.0</ele><time>2026-05-02T17:53:53Z</time></trkpt><trkpt lat="45.531042502755035" lon="13.735228266755477"><ele>4.0</ele><time>2026-05-02T17:53:54Z</time></trkpt><trkpt lat="45.53120212419135" lon="13.735229172530953"><ele>3.333333333333333</ele><time>2026-05-02T17:53:55Z</time></trkpt><trkpt lat="45.531360329057605" lon="13.735234636543732"><ele>2.6666666666666665</ele><time>2026-05-02T17:53:56Z</time></trkpt><trkpt lat="45.53151819877903" lon="13.73524023287255"><ele>2.0</ele><time>2026-05-02T17:53:57Z</time></trkpt><trkpt lat="45.531675083329034" lon="13.735245422093454"><ele>2.0</ele><time>2026-05-02T17:53:58Z</time></trkpt><trkpt lat="45.531829005325534" lon="13.735247316415931"><ele>2.0</ele><time>2026-05-02T17:53:59Z</time></trkpt><trkpt lat="45.53198326522451" lon="13.73524579490355"><ele>2.0</ele><time>2026-05-02T17:54:00Z</time></trkpt><trkpt lat="45.53213562655995" lon="13.735244808258853"><ele>2.0</ele><time>2026-05-02T17:54:01Z</time></trkpt><trkpt lat="45.532286027610155" lon="13.73524483715056"><ele>2.0</ele><time>2026-05-02T17:54:02Z</time></trkpt><trkpt lat="45.53243615483647" lon="13.735242391893488"><ele>2.0</ele><time>2026-05-02T17:54:03Z</time></trkpt><trkpt lat="45.53258574780555" lon="13.735237929891444"><ele>2.0</ele><time>2026-05-02T17:54:04Z</time></trkpt><trkpt lat="45.532729937127876" lon="13.735236170604098"><ele>2.0</ele><time>2026-05-02T17:54:05Z</time></trkpt><trkpt lat="45.53287247660442" lon="13.735230756703752"><ele>2.0</ele><time>2026-05-02T17:54:06Z</time></trkpt><trkpt lat="45.53300990730701" lon="13.735225075212586"><ele>2.0</ele><time>2026-05-02T17:54:07Z</time></trkpt><trkpt lat="45.533145209949815" lon="13.73522330509578"><ele>2.0</ele><time>2026-05-02T17:54:08Z</time></trkpt><trkpt lat="45.53327441135755" lon="13.735224242712903"><ele>2.0</ele><time>2026-05-02T17:54:09Z</time></trkpt><trkpt lat="45.53339658812393" lon="13.735228942730249"><ele>2.0</ele><time>2026-05-02T17:54:10Z</time></trkpt><trkpt lat="45.5335088309905" lon="13.735236915620085"><ele>2.0</ele><time>2026-05-02T17:54:11Z</time></trkpt><trkpt lat="45.533612038339655" lon="13.735247951313625"><ele>2.0</ele><time>2026-05-02T17:54:12Z</time></trkpt><trkpt lat="45.533710394555584" lon="13.735264225039202"><ele>2.0</ele><time>2026-05-02T17:54:13Z</time></trkpt><trkpt lat="45.53380836168828" lon="13.735248575475689"><ele>2.0</ele><time>2026-05-02T17:54:14Z</time></trkpt><trkpt lat="45.53390259730227" lon="13.735251406458067"><ele>2.0</ele><time>2026-05-02T17:54:15Z</time></trkpt><trkpt lat="45.53399137730502" lon="13.735254073547512"><ele>2.0</ele><time>2026-05-02T17:54:16Z</time></trkpt><trkpt lat="45.53406590055874" lon="13.735279077178092"><ele>2.0</ele><time>2026-05-02T17:54:17Z</time></trkpt><trkpt lat="45.53417579138047" lon="13.73527549640679"><ele>2.0</ele><time>2026-05-02T17:54:19Z</time></trkpt><trkpt lat="45.534282120082906" lon="13.735270728282634"><ele>2.0</ele><time>2026-05-02T17:54:21Z</time></trkpt><trkpt lat="45.53439862123749" lon="13.735274408340882"><ele>2.0</ele><time>2026-05-02T17:54:23Z</time></trkpt><trkpt lat="45.53446347693945" lon="13.735253610474935"><ele>2.0</ele><time>2026-05-02T17:54:24Z</time></trkpt><trkpt lat="45.53455754596678" lon="13.735253183827394"><ele>2.2</ele><time>2026-05-02T17:54:26Z</time></trkpt><trkpt lat="45.53460203089732" lon="13.735436209202451"><ele>2.4000000000000004</ele><time>2026-05-02T17:54:28Z</time></trkpt><trkpt lat="45.53465632051596" lon="13.735506522224998"><ele>2.5999999999999996</ele><time>2026-05-02T17:54:30Z</time></trkpt><trkpt lat="45.534740261836646" lon="13.73559812057391"><ele>2.8</ele><time>2026-05-02T17:54:32Z</time></trkpt><trkpt lat="45.53479299424661" lon="13.735653345684794"><ele>3.0</ele><time>2026-05-02T17:54:33Z</time></trkpt><trkpt lat="45.534853694172" lon="13.73571771304588"><ele>3.0</ele><time>2026-05-02T17:54:34Z</time></trkpt><trkpt lat="45.53491582277845" lon="13.735780639518437"><ele>3.0</ele><time>2026-05-02T17:54:35Z</time></trkpt><trkpt lat="45.53497763108572" lon="13.735837386298412"><ele>3.0</ele><time>2026-05-02T17:54:36Z</time></trkpt><trkpt lat="45.535042547285656" lon="13.735892423299118"><ele>3.0</ele><time>2026-05-02T17:54:37Z</time></trkpt><trkpt lat="45.53511387842488" lon="13.73595585268059"><ele>3.0</ele><time>2026-05-02T17:54:38Z</time></trkpt><trkpt lat="45.535188188637406" lon="13.736025563643064"><ele>3.0</ele><time>2026-05-02T17:54:39Z</time></trkpt><trkpt lat="45.53526434953217" lon="13.736098225278006"><ele>3.0</ele><time>2026-05-02T17:54:40Z</time></trkpt><trkpt lat="45.535337295149475" lon="13.73619719305682"><ele>3.0</ele><time>2026-05-02T17:54:41Z</time></trkpt><trkpt lat="45.535424524835605" lon="13.736271343746738"><ele>3.0</ele><time>2026-05-02T17:54:42Z</time></trkpt><trkpt lat="45.53551214070881" lon="13.736336593171314"><ele>3.0</ele><time>2026-05-02T17:54:43Z</time></trkpt><trkpt lat="45.535602870903716" lon="13.736418200618045"><ele>3.0</ele><time>2026-05-02T17:54:44Z</time></trkpt><trkpt lat="45.53568757636064" lon="13.736496949146703"><ele>3.0</ele><time>2026-05-02T17:54:45Z</time></trkpt><trkpt lat="45.53576805925141" lon="13.736571891593549"><ele>3.0</ele><time>2026-05-02T17:54:46Z</time></trkpt><trkpt lat="45.53584510060881" lon="13.736645560942511"><ele>3.0</ele><time>2026-05-02T17:54:47Z</time></trkpt><trkpt lat="45.53591976122205" lon="13.736713444581278"><ele>3.0</ele><time>2026-05-02T17:54:48Z</time></trkpt><trkpt lat="45.53598753092784" lon="13.736779443904004"><ele>3.0</ele><time>2026-05-02T17:54:49Z</time></trkpt><trkpt lat="45.5360556084281" lon="13.736844211747789"><ele>3.0</ele><time>2026-05-02T17:54:50Z</time></trkpt><trkpt lat="45.53611974504962" lon="13.736907164020677"><ele>3.2</ele><time>2026-05-02T17:54:51Z</time></trkpt><trkpt lat="45.53617617985943" lon="13.736963839140028"><ele>3.4</ele><time>2026-05-02T17:54:52Z</time></trkpt><trkpt lat="45.536214047061925" lon="13.737039318294505"><ele>3.6000000000000005</ele><time>2026-05-02T17:54:53Z</time></trkpt><trkpt lat="45.53629658940998" lon="13.737139235736738"><ele>3.8000000000000003</ele><time>2026-05-02T17:54:55Z</time></trkpt><trkpt lat="45.536362254946795" lon="13.737268669889978"><ele>4.0</ele><time>2026-05-02T17:54:57Z</time></trkpt><trkpt lat="45.53643303014283" lon="13.737378375178174"><ele>3.6666666666666665</ele><time>2026-05-02T17:54:59Z</time></trkpt><trkpt lat="45.53650254519816" lon="13.737420421519138"><ele>3.333333333333333</ele><time>2026-05-02T17:55:01Z</time></trkpt><trkpt lat="45.53654906022597" lon="13.737509939528044"><ele>3.0</ele><time>2026-05-02T17:55:03Z</time></trkpt><trkpt lat="45.536604520437955" lon="13.737585169942909"><ele>2.6666666666666665</ele><time>2026-05-02T17:55:05Z</time></trkpt><trkpt lat="45.536675095235125" lon="13.737637624424138"><ele>2.333333333333333</ele><time>2026-05-02T17:55:07Z</time></trkpt><trkpt lat="45.536739828654255" lon="13.737685078996748"><ele>2.0</ele><time>2026-05-02T17:55:09Z</time></trkpt><trkpt lat="45.53678409691315" lon="13.737564034956245"><ele>2.0</ele><time>2026-05-02T17:55:10Z</time></trkpt><trkpt lat="45.536932884125065" lon="13.737595128820537"><ele>2.0</ele><time>2026-05-02T17:55:12Z</time></trkpt><trkpt lat="45.53700595659697" lon="13.737617462597578"><ele>2.0</ele><time>2026-05-02T17:55:13Z</time></trkpt><trkpt lat="45.53707305298896" lon="13.737666603181335"><ele>2.0</ele><time>2026-05-02T17:55:14Z</time></trkpt><trkpt lat="45.53712999977737" lon="13.73773036844263"><ele>2.0</ele><time>2026-05-02T17:55:15Z</time></trkpt><trkpt lat="45.537182512659356" lon="13.737822533524938"><ele>2.25</ele><time>2026-05-02T17:55:16Z</time></trkpt><trkpt lat="45.53722694221909" lon="13.737945114753725"><ele>2.5</ele><time>2026-05-02T17:55:17Z</time></trkpt><trkpt lat="45.53725851163544" lon="13.738094945292186"><ele>2.75</ele><time>2026-05-02T17:55:18Z</time></trkpt><trkpt lat="45.53728136104367" lon="13.738266252983411"><ele>3.0</ele><time>2026-05-02T17:55:19Z</time></trkpt><trkpt lat="45.53729583584644" lon="13.738455519141358"><ele>2.6666666666666665</ele><time>2026-05-02T17:55:20Z</time></trkpt><trkpt lat="45.537312825014375" lon="13.738662505121399"><ele>2.333333333333333</ele><time>2026-05-02T17:55:21Z</time></trkpt><trkpt lat="45.53733344825464" lon="13.738883838778916"><ele>2.0</ele><time>2026-05-02T17:55:22Z</time></trkpt><trkpt lat="45.537360277431574" lon="13.739122845456679"><ele>2.0</ele><time>2026-05-02T17:55:23Z</time></trkpt><trkpt lat="45.537394398259536" lon="13.739364563650428"><ele>2.0</ele><time>2026-05-02T17:55:24Z</time></trkpt><trkpt lat="45.53743761636037" lon="13.739609471934964"><ele>2.0</ele><time>2026-05-02T17:55:25Z</time></trkpt><trkpt lat="45.53748423674817" lon="13.73986807132148"><ele>3.333333333333333</ele><time>2026-05-02T17:55:26Z</time></trkpt><trkpt lat="45.53753816696903" lon="13.740137642723456"><ele>4.666666666666667</ele><time>2026-05-02T17:55:27Z</time></trkpt><trkpt lat="45.537600146564934" lon="13.740412136426059"><ele>6.0</ele><time>2026-05-02T17:55:28Z</time></trkpt><trkpt lat="45.53766902629384" lon="13.740698189721622"><ele>6.0</ele><time>2026-05-02T17:55:29Z</time></trkpt><trkpt lat="45.537744980931436" lon="13.740988763728348"><ele>6.0</ele><time>2026-05-02T17:55:30Z</time></trkpt><trkpt lat="45.53782759427426" lon="13.741283065958656"><ele>6.0</ele><time>2026-05-02T17:55:31Z</time></trkpt><trkpt lat="45.53791916955939" lon="13.74157821621018"><ele>6.0</ele><time>2026-05-02T17:55:32Z</time></trkpt><trkpt lat="45.538017419775635" lon="13.741872705704045"><ele>6.0</ele><time>2026-05-02T17:55:33Z</time></trkpt><trkpt lat="45.53812032702699" lon="13.742167319276565"><ele>6.0</ele><time>2026-05-02T17:55:34Z</time></trkpt><trkpt lat="45.53822826080706" lon="13.742463723220446"><ele>6.0</ele><time>2026-05-02T17:55:35Z</time></trkpt><trkpt lat="45.53834063638416" lon="13.742762460058492"><ele>7.333333333333334</ele><time>2026-05-02T17:55:36Z</time></trkpt><trkpt lat="45.53845129891415" lon="13.743046995288726"><ele>8.666666666666668</ele><time>2026-05-02T17:55:37Z</time></trkpt><trkpt lat="45.53856211541839" lon="13.743318418545142"><ele>10.0</ele><time>2026-05-02T17:55:38Z</time></trkpt><trkpt lat="45.538671799327666" lon="13.74357800815272"><ele>8.0</ele><time>2026-05-02T17:55:39Z</time></trkpt><trkpt lat="45.538779234187345" lon="13.743832424735787"><ele>6.0</ele><time>2026-05-02T17:55:40Z</time></trkpt><trkpt lat="45.53888914644058" lon="13.744083424770203"><ele>4.0</ele><time>2026-05-02T17:55:41Z</time></trkpt><trkpt lat="45.53900671970513" lon="13.744336196590567"><ele>7.0</ele><time>2026-05-02T17:55:42Z</time></trkpt><trkpt lat="45.53912664438194" lon="13.744602315966297"><ele>10.0</ele><time>2026-05-02T17:55:43Z</time></trkpt><trkpt lat="45.53924863841314" lon="13.744878891783712"><ele>10.0</ele><time>2026-05-02T17:55:44Z</time></trkpt><trkpt lat="45.539373474681874" lon="13.7451646093583"><ele>10.0</ele><time>2026-05-02T17:55:45Z</time></trkpt><trkpt lat="45.539500401553234" lon="13.745460455490608"><ele>8.0</ele><time>2026-05-02T17:55:46Z</time></trkpt><trkpt lat="45.539629207314405" lon="13.745758244718354"><ele>6.0</ele><time>2026-05-02T17:55:47Z</time></trkpt><trkpt lat="45.53975779766586" lon="13.74605938039131"><ele>6.0</ele><time>2026-05-02T17:55:48Z</time></trkpt><trkpt lat="45.53988648996407" lon="13.746363318688067"><ele>6.0</ele><time>2026-05-02T17:55:49Z</time></trkpt><trkpt lat="45.54001738845255" lon="13.746669666269742"><ele>8.0</ele><time>2026-05-02T17:55:50Z</time></trkpt><trkpt lat="45.54014898153671" lon="13.746978314879353"><ele>10.0</ele><time>2026-05-02T17:55:51Z</time></trkpt><trkpt lat="45.540280524026855" lon="13.747287848620436"><ele>7.5</ele><time>2026-05-02T17:55:52Z</time></trkpt><trkpt lat="45.54041260107729" lon="13.747597573718835"><ele>5.0</ele><time>2026-05-02T17:55:53Z</time></trkpt><trkpt lat="45.54054349449648" lon="13.747907513841511"><ele>5.0</ele><time>2026-05-02T17:55:54Z</time></trkpt><trkpt lat="45.54067677027453" lon="13.748221356107514"><ele>5.0</ele><time>2026-05-02T17:55:55Z</time></trkpt><trkpt lat="45.540812860053606" lon="13.748538404474088"><ele>6.0</ele><time>2026-05-02T17:55:56Z</time></trkpt><trkpt lat="45.54095078901921" lon="13.748862672450436"><ele>7.0</ele><time>2026-05-02T17:55:57Z</time></trkpt><trkpt lat="45.54108924810484" lon="13.749186279531111"><ele>4.0</ele><time>2026-05-02T17:55:58Z</time></trkpt><trkpt lat="45.541225541103714" lon="13.749505589311477"><ele>1.0</ele><time>2026-05-02T17:55:59Z</time></trkpt><trkpt lat="45.541360908309706" lon="13.749820514495593"><ele>1.0</ele><time>2026-05-02T17:56:00Z</time></trkpt><trkpt lat="45.541494626428964" lon="13.750131573018523"><ele>1.0</ele><time>2026-05-02T17:56:01Z</time></trkpt><trkpt lat="45.54162779707341" lon="13.750441454680391"><ele>3.5</ele><time>2026-05-02T17:56:02Z</time></trkpt><trkpt lat="45.5417614641836" lon="13.750753181196737"><ele>6.0</ele><time>2026-05-02T17:56:03Z</time></trkpt><trkpt lat="45.54189623509332" lon="13.751068833042414"><ele>5.5</ele><time>2026-05-02T17:56:04Z</time></trkpt><trkpt lat="45.54203233252752" lon="13.751385967378619"><ele>5.0</ele><time>2026-05-02T17:56:05Z</time></trkpt><trkpt lat="45.54216908955151" lon="13.751707136597457"><ele>7.0</ele><time>2026-05-02T17:56:06Z</time></trkpt><trkpt lat="45.54230778147852" lon="13.752032747368181"><ele>9.0</ele><time>2026-05-02T17:56:07Z</time></trkpt><trkpt lat="45.542446844948785" lon="13.752360636459779"><ele>9.0</ele><time>2026-05-02T17:56:08Z</time></trkpt><trkpt lat="45.542584630076924" lon="13.752683645381182"><ele>9.0</ele><time>2026-05-02T17:56:09Z</time></trkpt><trkpt lat="45.54272035970147" lon="13.753002663622125"><ele>11.0</ele><time>2026-05-02T17:56:10Z</time></trkpt><trkpt lat="45.54285439212922" lon="13.753319499666004"><ele>13.0</ele><time>2026-05-02T17:56:11Z</time></trkpt><trkpt lat="45.542989619420545" lon="13.753635150672523"><ele>8.0</ele><time>2026-05-02T17:56:12Z</time></trkpt><trkpt lat="45.54312278450802" lon="13.753946184479416"><ele>3.0</ele><time>2026-05-02T17:56:13Z</time></trkpt><trkpt lat="45.54325460587969" lon="13.754255374647927"><ele>7.5</ele><time>2026-05-02T17:56:14Z</time></trkpt><trkpt lat="45.5433848883615" lon="13.754561933870535"><ele>12.0</ele><time>2026-05-02T17:56:15Z</time></trkpt><trkpt lat="45.5435131386034" lon="13.754863694930915"><ele>12.0</ele><time>2026-05-02T17:56:16Z</time></trkpt><trkpt lat="45.54364145038037" lon="13.755163736432285"><ele>12.0</ele><time>2026-05-02T17:56:17Z</time></trkpt><trkpt lat="45.543769155910944" lon="13.755464995316498"><ele>10.5</ele><time>2026-05-02T17:56:18Z</time></trkpt><trkpt lat="45.543895268966935" lon="13.755762939820155"><ele>9.0</ele><time>2026-05-02T17:56:19Z</time></trkpt><trkpt lat="45.544021833954986" lon="13.756062227917303"><ele>9.0</ele><time>2026-05-02T17:56:20Z</time></trkpt><trkpt lat="45.544147806164986" lon="13.75636198476886"><ele>9.0</ele><time>2026-05-02T17:56:21Z</time></trkpt><trkpt lat="45.5442697284924" lon="13.756657659618206"><ele>10.0</ele><time>2026-05-02T17:56:22Z</time></trkpt><trkpt lat="45.54438890408078" lon="13.756947347461573"><ele>11.0</ele><time>2026-05-02T17:56:23Z</time></trkpt><trkpt lat="45.54450879705086" lon="13.757231655095838"><ele>9.333333333333332</ele><time>2026-05-02T17:56:24Z</time></trkpt><trkpt lat="45.5446229436969" lon="13.757508866883455"><ele>7.666666666666666</ele><time>2026-05-02T17:56:25Z</time></trkpt><trkpt lat="45.544735820761105" lon="13.757782177379024"><ele>6.0</ele><time>2026-05-02T17:56:26Z</time></trkpt><trkpt lat="45.54484646114689" lon="13.758050288495868"><ele>6.0</ele><time>2026-05-02T17:56:27Z</time></trkpt><trkpt lat="45.54495563549752" lon="13.758317214381446"><ele>6.0</ele><time>2026-05-02T17:56:28Z</time></trkpt><trkpt lat="45.545063960436515" lon="13.758586465994389"><ele>6.0</ele><time>2026-05-02T17:56:29Z</time></trkpt><trkpt lat="45.54516847748383" lon="13.758851540227829"><ele>5.333333333333333</ele><time>2026-05-02T17:56:30Z</time></trkpt><trkpt lat="45.54527241195474" lon="13.759115243666834"><ele>4.666666666666666</ele><time>2026-05-02T17:56:31Z</time></trkpt><trkpt lat="45.545370591853455" lon="13.759376519484183"><ele>4.0</ele><time>2026-05-02T17:56:32Z</time></trkpt><trkpt lat="45.54546984622321" lon="13.759633590048688"><ele>4.0</ele><time>2026-05-02T17:56:33Z</time></trkpt><trkpt lat="45.545568583870526" lon="13.759889944077928"><ele>4.0</ele><time>2026-05-02T17:56:34Z</time></trkpt><trkpt lat="45.545669476754625" lon="13.760153666550917"><ele>4.0</ele><time>2026-05-02T17:56:35Z</time></trkpt><trkpt lat="45.54577164446103" lon="13.76042258574046"><ele>5.333333333333333</ele><time>2026-05-02T17:56:36Z</time></trkpt><trkpt lat="45.54587440657826" lon="13.76069631515822"><ele>6.666666666666666</ele><time>2026-05-02T17:56:37Z</time></trkpt><trkpt lat="45.545974025199996" lon="13.760969630582125"><ele>8.0</ele><time>2026-05-02T17:56:38Z</time></trkpt><trkpt lat="45.546070395009295" lon="13.761241807175505"><ele>8.0</ele><time>2026-05-02T17:56:39Z</time></trkpt><trkpt lat="45.54616621475327" lon="13.761512173142542"><ele>8.0</ele><time>2026-05-02T17:56:40Z</time></trkpt><trkpt lat="45.546259090506176" lon="13.761780448438822"><ele>8.0</ele><time>2026-05-02T17:56:41Z</time></trkpt><trkpt lat="45.54634958855134" lon="13.76204327363882"><ele>8.0</ele><time>2026-05-02T17:56:42Z</time></trkpt><trkpt lat="45.54643981384849" lon="13.762301700305406"><ele>8.0</ele><time>2026-05-02T17:56:43Z</time></trkpt><trkpt lat="45.546526549086416" lon="13.762557288833145"><ele>8.0</ele><time>2026-05-02T17:56:44Z</time></trkpt><trkpt lat="45.54661394050549" lon="13.762812157126117"><ele>8.0</ele><time>2026-05-02T17:56:45Z</time></trkpt><trkpt lat="45.54670266388825" lon="13.763069767720095"><ele>8.0</ele><time>2026-05-02T17:56:46Z</time></trkpt><trkpt lat="45.54678970305821" lon="13.763330130060599"><ele>8.0</ele><time>2026-05-02T17:56:47Z</time></trkpt><trkpt lat="45.54687890872541" lon="13.763594822803443"><ele>8.333333333333332</ele><time>2026-05-02T17:56:48Z</time></trkpt><trkpt lat="45.54696882345851" lon="13.763865122626516"><ele>8.666666666666666</ele><time>2026-05-02T17:56:49Z</time></trkpt><trkpt lat="45.547060157159635" lon="13.76413758072662"><ele>9.0</ele><time>2026-05-02T17:56:50Z</time></trkpt><trkpt lat="45.54714992165426" lon="13.76440984511424"><ele>8.333333333333334</ele><time>2026-05-02T17:56:51Z</time></trkpt><trkpt lat="45.547240017359314" lon="13.764677868537166"><ele>7.666666666666667</ele><time>2026-05-02T17:56:52Z</time></trkpt><trkpt lat="45.54732977824584" lon="13.764946458244316"><ele>7.0</ele><time>2026-05-02T17:56:53Z</time></trkpt><trkpt lat="45.54741760093575" lon="13.765214709852309"><ele>7.0</ele><time>2026-05-02T17:56:54Z</time></trkpt><trkpt lat="45.547506226504" lon="13.765486504766432"><ele>7.0</ele><time>2026-05-02T17:56:55Z</time></trkpt><trkpt lat="45.54759620964633" lon="13.765761835903023"><ele>7.0</ele><time>2026-05-02T17:56:56Z</time></trkpt><trkpt lat="45.54768641244035" lon="13.766043080223204"><ele>7.333333333333334</ele><time>2026-05-02T17:56:57Z</time></trkpt><trkpt lat="45.54777974004073" lon="13.766331283495477"><ele>7.666666666666666</ele><time>2026-05-02T17:56:58Z</time></trkpt><trkpt lat="45.54787470473412" lon="13.766622650019547"><ele>8.0</ele><time>2026-05-02T17:56:59Z</time></trkpt><trkpt lat="45.547970273444136" lon="13.766919289604221"><ele>9.0</ele><time>2026-05-02T17:57:00Z</time></trkpt><trkpt lat="45.54806619457892" lon="13.767215890642738"><ele>10.0</ele><time>2026-05-02T17:57:01Z</time></trkpt><trkpt lat="45.548160372966876" lon="13.767512815894891"><ele>9.5</ele><time>2026-05-02T17:57:02Z</time></trkpt><trkpt lat="45.548256709563496" lon="13.76780649782147"><ele>9.0</ele><time>2026-05-02T17:57:03Z</time></trkpt><trkpt lat="45.54835272952364" lon="13.768101821753875"><ele>9.0</ele><time>2026-05-02T17:57:04Z</time></trkpt><trkpt lat="45.548451289504015" lon="13.768401950111299"><ele>9.0</ele><time>2026-05-02T17:57:05Z</time></trkpt><trkpt lat="45.54855342000012" lon="13.768706908199118"><ele>9.0</ele><time>2026-05-02T17:57:06Z</time></trkpt><trkpt lat="45.548656125330936" lon="13.769021187574271"><ele>9.0</ele><time>2026-05-02T17:57:07Z</time></trkpt><trkpt lat="45.548761565768515" lon="13.769341621341217"><ele>7.0</ele><time>2026-05-02T17:57:08Z</time></trkpt><trkpt lat="45.54887020527386" lon="13.769667936678642"><ele>5.0</ele><time>2026-05-02T17:57:09Z</time></trkpt><trkpt lat="45.54897721737443" lon="13.769997236168662"><ele>6.0</ele><time>2026-05-02T17:57:10Z</time></trkpt><trkpt lat="45.54908291840481" lon="13.770329172268442"><ele>7.0</ele><time>2026-05-02T17:57:11Z</time></trkpt><trkpt lat="45.54918865979698" lon="13.770661370043888"><ele>7.0</ele><time>2026-05-02T17:57:12Z</time></trkpt><trkpt lat="45.54929013712636" lon="13.770987317304378"><ele>7.0</ele><time>2026-05-02T17:57:13Z</time></trkpt><trkpt lat="45.54938929311864" lon="13.771307207782712"><ele>6.5</ele><time>2026-05-02T17:57:14Z</time></trkpt><trkpt lat="45.549488037754934" lon="13.77161961117824"><ele>6.0</ele><time>2026-05-02T17:57:15Z</time></trkpt><trkpt lat="45.54958575057641" lon="13.771920779567882"><ele>5.0</ele><time>2026-05-02T17:57:16Z</time></trkpt><trkpt lat="45.549692720090064" lon="13.772215293274918"><ele>4.0</ele><time>2026-05-02T17:57:17Z</time></trkpt><trkpt lat="45.54980618102244" lon="13.772503424543814"><ele>4.5</ele><time>2026-05-02T17:57:18Z</time></trkpt><trkpt lat="45.54993007043881" lon="13.772791003915113"><ele>5.0</ele><time>2026-05-02T17:57:19Z</time></trkpt><trkpt lat="45.55006180955484" lon="13.773074938802536"><ele>5.0</ele><time>2026-05-02T17:57:20Z</time></trkpt><trkpt lat="45.5502004394816" lon="13.773355501292512"><ele>5.0</ele><time>2026-05-02T17:57:21Z</time></trkpt><trkpt lat="45.55034946515794" lon="13.773634146102765"><ele>5.5</ele><time>2026-05-02T17:57:22Z</time></trkpt><trkpt lat="45.550506261352425" lon="13.773910717939826"><ele>6.0</ele><time>2026-05-02T17:57:23Z</time></trkpt><trkpt lat="45.550669539368364" lon="13.77418183431304"><ele>5.5</ele><time>2026-05-02T17:57:24Z</time></trkpt><trkpt lat="45.55084194244418" lon="13.77444262627295"><ele>5.0</ele><time>2026-05-02T17:57:25Z</time></trkpt><trkpt lat="45.55102059955143" lon="13.7746904078852"><ele>5.0</ele><time>2026-05-02T17:57:26Z</time></trkpt><trkpt lat="45.551202396199294" lon="13.77492444045782"><ele>5.0</ele><time>2026-05-02T17:57:27Z</time></trkpt><trkpt lat="45.55138937457532" lon="13.775146350319021"><ele>4.0</ele><time>2026-05-02T17:57:28Z</time></trkpt><trkpt lat="45.55157912000063" lon="13.77535879758613"><ele>3.0</ele><time>2026-05-02T17:57:29Z</time></trkpt><trkpt lat="45.55177226318271" lon="13.775565822731691"><ele>3.0</ele><time>2026-05-02T17:57:30Z</time></trkpt><trkpt lat="45.5519674499319" lon="13.775765173166299"><ele>3.0</ele><time>2026-05-02T17:57:31Z</time></trkpt><trkpt lat="45.55216498713841" lon="13.77595470122377"><ele>4.0</ele><time>2026-05-02T17:57:32Z</time></trkpt><trkpt lat="45.55236067316167" lon="13.776135049397272"><ele>5.0</ele><time>2026-05-02T17:57:33Z</time></trkpt><trkpt lat="45.5525544007175" lon="13.776307947260184"><ele>5.0</ele><time>2026-05-02T17:57:34Z</time></trkpt><trkpt lat="45.55274136354503" lon="13.776476727210293"><ele>5.0</ele><time>2026-05-02T17:57:35Z</time></trkpt><trkpt lat="45.5529205882609" lon="13.77663671455119"><ele>5.0</ele><time>2026-05-02T17:57:36Z</time></trkpt><trkpt lat="45.553091365746184" lon="13.77679069673473"><ele>5.0</ele><time>2026-05-02T17:57:37Z</time></trkpt><trkpt lat="45.55325555139217" lon="13.77694016514105"><ele>5.0</ele><time>2026-05-02T17:57:38Z</time></trkpt><trkpt lat="45.5534142134103" lon="13.777083626044602"><ele>5.0</ele><time>2026-05-02T17:57:39Z</time></trkpt><trkpt lat="45.55356319867814" lon="13.777229548965467"><ele>5.0</ele><time>2026-05-02T17:57:40Z</time></trkpt><trkpt lat="45.55370258857529" lon="13.77737833635054"><ele>5.0</ele><time>2026-05-02T17:57:41Z</time></trkpt><trkpt lat="45.553847538650935" lon="13.777493302356417"><ele>5.0</ele><time>2026-05-02T17:57:42Z</time></trkpt><trkpt lat="45.55395346742277" lon="13.777683127586855"><ele>4.666666666666667</ele><time>2026-05-02T17:57:43Z</time></trkpt><trkpt lat="45.554075346520975" lon="13.777841325864088"><ele>4.333333333333333</ele><time>2026-05-02T17:57:44Z</time></trkpt><trkpt lat="45.554196432147975" lon="13.778005125917614"><ele>4.0</ele><time>2026-05-02T17:57:45Z</time></trkpt><trkpt lat="45.5543137515079" lon="13.778171599326894"><ele>4.0</ele><time>2026-05-02T17:57:46Z</time></trkpt><trkpt lat="45.55442925700801" lon="13.778341435121519"><ele>4.0</ele><time>2026-05-02T17:57:47Z</time></trkpt><trkpt lat="45.5545404830928" lon="13.778512272441178"><ele>4.0</ele><time>2026-05-02T17:57:48Z</time></trkpt><trkpt lat="45.554647315147534" lon="13.778680673825491"><ele>3.6666666666666665</ele><time>2026-05-02T17:57:49Z</time></trkpt><trkpt lat="45.554749561480364" lon="13.778853277143428"><ele>3.333333333333333</ele><time>2026-05-02T17:57:50Z</time></trkpt><trkpt lat="45.55485071515457" lon="13.7790373104366"><ele>3.0</ele><time>2026-05-02T17:57:51Z</time></trkpt><trkpt lat="45.5549486681028" lon="13.779234544374859"><ele>3.0</ele><time>2026-05-02T17:57:52Z</time></trkpt><trkpt lat="45.55505057468501" lon="13.779445561705323"><ele>3.0</ele><time>2026-05-02T17:57:53Z</time></trkpt><trkpt lat="45.55515185053698" lon="13.77966710474813"><ele>3.0</ele><time>2026-05-02T17:57:54Z</time></trkpt><trkpt lat="45.55525941733754" lon="13.779898253933029"><ele>3.0</ele><time>2026-05-02T17:57:55Z</time></trkpt><trkpt lat="45.555366999003326" lon="13.780139383333891"><ele>3.0</ele><time>2026-05-02T17:57:56Z</time></trkpt><trkpt lat="45.55547663516666" lon="13.780391175129825"><ele>3.0</ele><time>2026-05-02T17:57:57Z</time></trkpt><trkpt lat="45.55558880936076" lon="13.78064739257119"><ele>3.0</ele><time>2026-05-02T17:57:58Z</time></trkpt><trkpt lat="45.55570287439314" lon="13.780907320791728"><ele>3.0</ele><time>2026-05-02T17:57:59Z</time></trkpt><trkpt lat="45.55581922030443" lon="13.781168111128297"><ele>3.0</ele><time>2026-05-02T17:58:00Z</time></trkpt><trkpt lat="45.5559375036856" lon="13.781431273416741"><ele>3.5</ele><time>2026-05-02T17:58:01Z</time></trkpt><trkpt lat="45.55606045746089" lon="13.781698539094252"><ele>4.0</ele><time>2026-05-02T17:58:02Z</time></trkpt><trkpt lat="45.55618433500067" lon="13.781969848731201"><ele>3.5</ele><time>2026-05-02T17:58:03Z</time></trkpt><trkpt lat="45.55631126118687" lon="13.782243802361078"><ele>3.0</ele><time>2026-05-02T17:58:04Z</time></trkpt><trkpt lat="45.556444232755176" lon="13.782519806106862"><ele>2.5</ele><time>2026-05-02T17:58:05Z</time></trkpt><trkpt lat="45.556580152705145" lon="13.782791941491926"><ele>2.0</ele><time>2026-05-02T17:58:06Z</time></trkpt><trkpt lat="45.55672062549658" lon="13.783063383877538"><ele>2.0</ele><time>2026-05-02T17:58:07Z</time></trkpt><trkpt lat="45.55686245411538" lon="13.783334751132834"><ele>2.0</ele><time>2026-05-02T17:58:08Z</time></trkpt><trkpt lat="45.5570052782212" lon="13.783599046612023"><ele>3.0</ele><time>2026-05-02T17:58:09Z</time></trkpt><trkpt lat="45.55714727113684" lon="13.78385602152635"><ele>4.0</ele><time>2026-05-02T17:58:10Z</time></trkpt><trkpt lat="45.5572889696359" lon="13.784103292264808"><ele>4.0</ele><time>2026-05-02T17:58:11Z</time></trkpt><trkpt lat="45.5574242783298" lon="13.784337175418784"><ele>4.0</ele><time>2026-05-02T17:58:12Z</time></trkpt><trkpt lat="45.557559999935634" lon="13.78456583685802"><ele>4.0</ele><time>2026-05-02T17:58:13Z</time></trkpt><trkpt lat="45.55770110648175" lon="13.784788097556515"><ele>4.0</ele><time>2026-05-02T17:58:14Z</time></trkpt><trkpt lat="45.55784832840683" lon="13.784998769277784"><ele>4.0</ele><time>2026-05-02T17:58:15Z</time></trkpt><trkpt lat="45.558005737018014" lon="13.785202277658204"><ele>4.0</ele><time>2026-05-02T17:58:16Z</time></trkpt><trkpt lat="45.558174336581935" lon="13.785392732904981"><ele>4.333333333333333</ele><time>2026-05-02T17:58:17Z</time></trkpt><trkpt lat="45.558353780686595" lon="13.785567755227522"><ele>4.666666666666667</ele><time>2026-05-02T17:58:18Z</time></trkpt><trkpt lat="45.558542131564785" lon="13.785725504763697"><ele>5.0</ele><time>2026-05-02T17:58:19Z</time></trkpt><trkpt lat="45.55873520494935" lon="13.785861880873545"><ele>5.0</ele><time>2026-05-02T17:58:20Z</time></trkpt><trkpt lat="45.55893254754031" lon="13.785965802106961"><ele>5.0</ele><time>2026-05-02T17:58:21Z</time></trkpt><trkpt lat="45.559133493156324" lon="13.786044301699906"><ele>5.0</ele><time>2026-05-02T17:58:22Z</time></trkpt><trkpt lat="45.55933897095545" lon="13.786097559306286"><ele>6.666666666666667</ele><time>2026-05-02T17:58:23Z</time></trkpt><trkpt lat="45.5595498894594" lon="13.786134055484693"><ele>8.333333333333334</ele><time>2026-05-02T17:58:24Z</time></trkpt><trkpt lat="45.55976197729368" lon="13.78614087667811"><ele>10.0</ele><time>2026-05-02T17:58:25Z</time></trkpt><trkpt lat="45.559974089493956" lon="13.786118167894628"><ele>10.0</ele><time>2026-05-02T17:58:26Z</time></trkpt><trkpt lat="45.5601893418738" lon="13.786070768239895"><ele>10.0</ele><time>2026-05-02T17:58:27Z</time></trkpt><trkpt lat="45.560398262997985" lon="13.786001163121806"><ele>10.0</ele><time>2026-05-02T17:58:28Z</time></trkpt><trkpt lat="45.560599850941166" lon="13.78590280314591"><ele>9.0</ele><time>2026-05-02T17:58:29Z</time></trkpt><trkpt lat="45.56079647872378" lon="13.785783070231675"><ele>8.0</ele><time>2026-05-02T17:58:30Z</time></trkpt><trkpt lat="45.560985987955576" lon="13.785638084948303"><ele>7.0</ele><time>2026-05-02T17:58:31Z</time></trkpt><trkpt lat="45.56116154781966" lon="13.785469372964997"><ele>7.333333333333334</ele><time>2026-05-02T17:58:32Z</time></trkpt><trkpt lat="45.561330319642295" lon="13.785282203417339"><ele>7.666666666666666</ele><time>2026-05-02T17:58:33Z</time></trkpt><trkpt lat="45.561494369533534" lon="13.785083058054353"><ele>8.0</ele><time>2026-05-02T17:58:34Z</time></trkpt><trkpt lat="45.561658495373884" lon="13.78488404953747"><ele>8.0</ele><time>2026-05-02T17:58:35Z</time></trkpt><trkpt lat="45.56182321731862" lon="13.78469801491181"><ele>8.0</ele><time>2026-05-02T17:58:36Z</time></trkpt><trkpt lat="45.56199250605035" lon="13.784522174795473"><ele>8.0</ele><time>2026-05-02T17:58:37Z</time></trkpt><trkpt lat="45.56217022476678" lon="13.784352867832805"><ele>8.0</ele><time>2026-05-02T17:58:38Z</time></trkpt><trkpt lat="45.56235998594419" lon="13.784193718485318"><ele>8.0</ele><time>2026-05-02T17:58:39Z</time></trkpt><trkpt lat="45.562557755345466" lon="13.78404623741428"><ele>8.0</ele><time>2026-05-02T17:58:40Z</time></trkpt><trkpt lat="45.56276597615856" lon="13.783909939626456"><ele>15.0</ele><time>2026-05-02T17:58:41Z</time></trkpt><trkpt lat="45.56297763173826" lon="13.783791779517673"><ele>22.0</ele><time>2026-05-02T17:58:42Z</time></trkpt><trkpt lat="45.56319118348465" lon="13.783687408545672"><ele>22.0</ele><time>2026-05-02T17:58:43Z</time></trkpt><trkpt lat="45.56340891990877" lon="13.783593876053505"><ele>22.0</ele><time>2026-05-02T17:58:44Z</time></trkpt><trkpt lat="45.56363147380732" lon="13.783512373092789"><ele>25.5</ele><time>2026-05-02T17:58:45Z</time></trkpt><trkpt lat="45.563862221789904" lon="13.783447131826856"><ele>29.0</ele><time>2026-05-02T17:58:46Z</time></trkpt><trkpt lat="45.56409966931883" lon="13.783401000785766"><ele>29.0</ele><time>2026-05-02T17:58:47Z</time></trkpt><trkpt lat="45.5643431914047" lon="13.783372491278364"><ele>29.0</ele><time>2026-05-02T17:58:48Z</time></trkpt><trkpt lat="45.564589581960774" lon="13.783363395264935"><ele>26.0</ele><time>2026-05-02T17:58:49Z</time></trkpt><trkpt lat="45.564839316082896" lon="13.783372286923019"><ele>23.0</ele><time>2026-05-02T17:58:50Z</time></trkpt><trkpt lat="45.565088859323374" lon="13.783404758227668"><ele>23.0</ele><time>2026-05-02T17:58:51Z</time></trkpt><trkpt lat="45.56533984036539" lon="13.783458910785003"><ele>23.0</ele><time>2026-05-02T17:58:52Z</time></trkpt><trkpt lat="45.56558976304141" lon="13.783534370341144"><ele>24.0</ele><time>2026-05-02T17:58:53Z</time></trkpt><trkpt lat="45.56583633320647" lon="13.783627752896658"><ele>25.0</ele><time>2026-05-02T17:58:54Z</time></trkpt><trkpt lat="45.5660795959588" lon="13.783736633280066"><ele>27.5</ele><time>2026-05-02T17:58:55Z</time></trkpt><trkpt lat="45.5663158086044" lon="13.783862889697144"><ele>30.0</ele><time>2026-05-02T17:58:56Z</time></trkpt><trkpt lat="45.56654569174602" lon="13.784006814331033"><ele>30.0</ele><time>2026-05-02T17:58:57Z</time></trkpt><trkpt lat="45.566776913282595" lon="13.784158310198677"><ele>30.0</ele><time>2026-05-02T17:58:58Z</time></trkpt><trkpt lat="45.56700707582876" lon="13.784319973952831"><ele>33.5</ele><time>2026-05-02T17:58:59Z</time></trkpt><trkpt lat="45.56723416757912" lon="13.784492708202407"><ele>37.0</ele><time>2026-05-02T17:59:00Z</time></trkpt><trkpt lat="45.567460579170366" lon="13.78467820377828"><ele>37.0</ele><time>2026-05-02T17:59:01Z</time></trkpt><trkpt lat="45.56768457308313" lon="13.784866348896829"><ele>37.0</ele><time>2026-05-02T17:59:02Z</time></trkpt><trkpt lat="45.567906419957815" lon="13.785058101904761"><ele>43.5</ele><time>2026-05-02T17:59:03Z</time></trkpt><trkpt lat="45.568131839469196" lon="13.785250905937215"><ele>50.0</ele><time>2026-05-02T17:59:04Z</time></trkpt><trkpt lat="45.568350306034965" lon="13.78544577628023"><ele>50.0</ele><time>2026-05-02T17:59:05Z</time></trkpt><trkpt lat="45.568560516939016" lon="13.785649834757033"><ele>50.0</ele><time>2026-05-02T17:59:06Z</time></trkpt><trkpt lat="45.56876488218546" lon="13.785857580403784"><ele>54.0</ele><time>2026-05-02T17:59:07Z</time></trkpt><trkpt lat="45.56896285407947" lon="13.786067980904372"><ele>58.0</ele><time>2026-05-02T17:59:08Z</time></trkpt><trkpt lat="45.56915610412161" lon="13.786280950632989"><ele>58.0</ele><time>2026-05-02T17:59:09Z</time></trkpt><trkpt lat="45.56934520079086" lon="13.786493723229086"><ele>58.0</ele><time>2026-05-02T17:59:10Z</time></trkpt><trkpt lat="45.56952638857971" lon="13.786706523299394"><ele>61.5</ele><time>2026-05-02T17:59:11Z</time></trkpt><trkpt lat="45.56970535780294" lon="13.786921007777861"><ele>65.0</ele><time>2026-05-02T17:59:12Z</time></trkpt><trkpt lat="45.56988216052342" lon="13.787141888725753"><ele>65.0</ele><time>2026-05-02T17:59:13Z</time></trkpt><trkpt lat="45.5700529018719" lon="13.787364389848852"><ele>65.0</ele><time>2026-05-02T17:59:14Z</time></trkpt><trkpt lat="45.570216731971634" lon="13.78758693840489"><ele>67.33333333333334</ele><time>2026-05-02T17:59:15Z</time></trkpt><trkpt lat="45.57037332577349" lon="13.787812015500327"><ele>69.66666666666667</ele><time>2026-05-02T17:59:16Z</time></trkpt><trkpt lat="45.57052550258804" lon="13.788034702065552"><ele>72.0</ele><time>2026-05-02T17:59:17Z</time></trkpt><trkpt lat="45.57068145389596" lon="13.788265059519082"><ele>72.0</ele><time>2026-05-02T17:59:18Z</time></trkpt><trkpt lat="45.57083930413517" lon="13.788506078814155"><ele>72.0</ele><time>2026-05-02T17:59:19.017Z</time></trkpt><trkpt lat="45.57099276929535" lon="13.788750802994889"><ele>72.5</ele><time>2026-05-02T17:59:20.019Z</time></trkpt><trkpt lat="45.57114266947053" lon="13.788999554923254"><ele>73.0</ele><time>2026-05-02T17:59:21.019Z</time></trkpt><trkpt lat="45.57128706230067" lon="13.789250753646067"><ele>70.5</ele><time>2026-05-02T17:59:22.017Z</time></trkpt><trkpt lat="45.57142943724042" lon="13.789505594059223"><ele>68.0</ele><time>2026-05-02T17:59:23.022Z</time></trkpt><trkpt lat="45.57256600358111" lon="13.791684061301678"><ele>68.0</ele><time>2026-05-02T17:59:31Z</time></trkpt><trkpt lat="45.57271571294242" lon="13.791964230202073"><ele>68.0</ele><time>2026-05-02T17:59:32Z</time></trkpt><trkpt lat="45.57290581700996" lon="13.792243043407575"><ele>68.0</ele><time>2026-05-02T17:59:33Z</time></trkpt><trkpt lat="45.5730687825961" lon="13.79252014075554"><ele>68.0</ele><time>2026-05-02T17:59:34Z</time></trkpt><trkpt lat="45.573233898670345" lon="13.792787151593279"><ele>64.0</ele><time>2026-05-02T17:59:35Z</time></trkpt><trkpt lat="45.57339742581632" lon="13.793049587095203"><ele>60.0</ele><time>2026-05-02T17:59:36Z</time></trkpt><trkpt lat="45.57357399259803" lon="13.793291676294869"><ele>59.0</ele><time>2026-05-02T17:59:37Z</time></trkpt><trkpt lat="45.57375172414492" lon="13.793521986509445"><ele>58.0</ele><time>2026-05-02T17:59:38Z</time></trkpt><trkpt lat="45.573930791816544" lon="13.79374214943798"><ele>58.0</ele><time>2026-05-02T17:59:39Z</time></trkpt><trkpt lat="45.57411390452055" lon="13.793950293005578"><ele>58.0</ele><time>2026-05-02T17:59:40Z</time></trkpt><trkpt lat="45.57429510215012" lon="13.794139238436854"><ele>58.0</ele><time>2026-05-02T17:59:41Z</time></trkpt><trkpt lat="45.57448969301926" lon="13.79433800013382"><ele>58.0</ele><time>2026-05-02T17:59:42Z</time></trkpt><trkpt lat="45.57469226925174" lon="13.794530517127306"><ele>53.5</ele><time>2026-05-02T17:59:43Z</time></trkpt><trkpt lat="45.57489949746064" lon="13.794717181506462"><ele>49.0</ele><time>2026-05-02T17:59:44Z</time></trkpt><trkpt lat="45.5751148038124" lon="13.794893611698404"><ele>49.0</ele><time>2026-05-02T17:59:45Z</time></trkpt><trkpt lat="45.575333565742454" lon="13.795055489981843"><ele>49.0</ele><time>2026-05-02T17:59:46Z</time></trkpt><trkpt lat="45.575551224298096" lon="13.79520751058992"><ele>43.5</ele><time>2026-05-02T17:59:47Z</time></trkpt><trkpt lat="45.57577315326348" lon="13.795345725575434"><ele>38.0</ele><time>2026-05-02T17:59:48Z</time></trkpt><trkpt lat="45.57599915416229" lon="13.795470838782503"><ele>37.5</ele><time>2026-05-02T17:59:49Z</time></trkpt><trkpt lat="45.57622862280201" lon="13.79558493315337"><ele>37.0</ele><time>2026-05-02T17:59:50Z</time></trkpt><trkpt lat="45.57645972667153" lon="13.79569004052465"><ele>37.0</ele><time>2026-05-02T17:59:51Z</time></trkpt><trkpt lat="45.57669693519499" lon="13.795786921829631"><ele>37.0</ele><time>2026-05-02T17:59:52Z</time></trkpt><trkpt lat="45.576936633155675" lon="13.795881505577254"><ele>37.5</ele><time>2026-05-02T17:59:53Z</time></trkpt><trkpt lat="45.57717814231467" lon="13.795973302263905"><ele>38.0</ele><time>2026-05-02T17:59:54Z</time></trkpt><trkpt lat="45.577422897690006" lon="13.796057403010364"><ele>35.0</ele><time>2026-05-02T17:59:55Z</time></trkpt><trkpt lat="45.57766596629065" lon="13.796133711328675"><ele>32.0</ele><time>2026-05-02T17:59:56Z</time></trkpt><trkpt lat="45.57789905890389" lon="13.796200256382066"><ele>31.0</ele><time>2026-05-02T17:59:57Z</time></trkpt><trkpt lat="45.57810627159269" lon="13.796257402617487"><ele>30.0</ele><time>2026-05-02T17:59:58Z</time></trkpt><trkpt lat="45.57828179762759" lon="13.796305041224672"><ele>29.0</ele><time>2026-05-02T17:59:59Z</time></trkpt><trkpt lat="45.57845015376004" lon="13.79635569335196"><ele>29.0</ele><time>2026-05-02T18:00:00Z</time></trkpt><trkpt lat="45.57861932227028" lon="13.796410767641083"><ele>29.0</ele><time>2026-05-02T18:00:01Z</time></trkpt><trkpt lat="45.57879048370716" lon="13.796464556062924"><ele>29.0</ele><time>2026-05-02T18:00:02Z</time></trkpt><trkpt lat="45.57896506381685" lon="13.796514762624957"><ele>28.333333333333332</ele><time>2026-05-02T18:00:03Z</time></trkpt><trkpt lat="45.579145310870324" lon="13.796564220190131"><ele>27.666666666666664</ele><time>2026-05-02T18:00:04Z</time></trkpt><trkpt lat="45.57932816941153" lon="13.796612479582231"><ele>27.0</ele><time>2026-05-02T18:00:05Z</time></trkpt><trkpt lat="45.57950811007283" lon="13.796662447202122"><ele>26.333333333333336</ele><time>2026-05-02T18:00:06Z</time></trkpt><trkpt lat="45.579689435836436" lon="13.796712920037315"><ele>25.666666666666668</ele><time>2026-05-02T18:00:07Z</time></trkpt><trkpt lat="45.579866576882104" lon="13.796759369997952"><ele>25.0</ele><time>2026-05-02T18:00:08Z</time></trkpt><trkpt lat="45.58004008602157" lon="13.796806467217076"><ele>24.333333333333336</ele><time>2026-05-02T18:00:09Z</time></trkpt><trkpt lat="45.5802094436977" lon="13.796852837824435"><ele>23.666666666666668</ele><time>2026-05-02T18:00:10Z</time></trkpt><trkpt lat="45.58037629556037" lon="13.796898851989953"><ele>23.0</ele><time>2026-05-02T18:00:11Z</time></trkpt><trkpt lat="45.580542462665065" lon="13.796944969458607"><ele>23.0</ele><time>2026-05-02T18:00:12Z</time></trkpt><trkpt lat="45.58070903104307" lon="13.796992724371117"><ele>23.0</ele><time>2026-05-02T18:00:13Z</time></trkpt><trkpt lat="45.580871987710964" lon="13.797042732382833"><ele>23.0</ele><time>2026-05-02T18:00:14Z</time></trkpt><trkpt lat="45.58102889062887" lon="13.797093983114133"><ele>22.666666666666668</ele><time>2026-05-02T18:00:15Z</time></trkpt><trkpt lat="45.58118364920871" lon="13.797147800193276"><ele>22.333333333333332</ele><time>2026-05-02T18:00:16Z</time></trkpt><trkpt lat="45.58133107001261" lon="13.797200445145918"><ele>22.0</ele><time>2026-05-02T18:00:17Z</time></trkpt><trkpt lat="45.58147590703418" lon="13.797256822037234"><ele>22.0</ele><time>2026-05-02T18:00:18Z</time></trkpt><trkpt lat="45.58161620616932" lon="13.797314115353938"><ele>22.0</ele><time>2026-05-02T18:00:19Z</time></trkpt><trkpt lat="45.581749063093035" lon="13.79736638723175"><ele>22.0</ele><time>2026-05-02T18:00:20Z</time></trkpt><trkpt lat="45.58187957720491" lon="13.797409143529038"><ele>22.0</ele><time>2026-05-02T18:00:21Z</time></trkpt><trkpt lat="45.58200423018798" lon="13.797443601418413"><ele>21.0</ele><time>2026-05-02T18:00:22Z</time></trkpt><trkpt lat="45.582130091958796" lon="13.797474644750809"><ele>20.0</ele><time>2026-05-02T18:00:23Z</time></trkpt><trkpt lat="45.58225193013966" lon="13.79750941630917"><ele>19.0</ele><time>2026-05-02T18:00:24Z</time></trkpt><trkpt lat="45.58237391837692" lon="13.797544982101584"><ele>18.0</ele><time>2026-05-02T18:00:25Z</time></trkpt><trkpt lat="45.582490814428205" lon="13.797577936508455"><ele>18.0</ele><time>2026-05-02T18:00:26Z</time></trkpt><trkpt lat="45.58260754102413" lon="13.797608741650668"><ele>18.0</ele><time>2026-05-02T18:00:27Z</time></trkpt><trkpt lat="45.582724748789644" lon="13.797638114117536"><ele>18.0</ele><time>2026-05-02T18:00:28Z</time></trkpt><trkpt lat="45.5828452004591" lon="13.797667037879286"><ele>18.0</ele><time>2026-05-02T18:00:29Z</time></trkpt><trkpt lat="45.58296773551572" lon="13.797701042767981"><ele>17.5</ele><time>2026-05-02T18:00:30Z</time></trkpt><trkpt lat="45.583086354153124" lon="13.797735750653498"><ele>17.0</ele><time>2026-05-02T18:00:31Z</time></trkpt><trkpt lat="45.58320012398522" lon="13.79776737713738"><ele>16.5</ele><time>2026-05-02T18:00:32Z</time></trkpt><trkpt lat="45.58331607700559" lon="13.797789589589398"><ele>16.0</ele><time>2026-05-02T18:00:33Z</time></trkpt><trkpt lat="45.58344177672071" lon="13.797809038016625"><ele>16.0</ele><time>2026-05-02T18:00:34Z</time></trkpt><trkpt lat="45.58357379216479" lon="13.797829920245709"><ele>16.0</ele><time>2026-05-02T18:00:35Z</time></trkpt><trkpt lat="45.58370764597496" lon="13.797850824345138"><ele>16.0</ele><time>2026-05-02T18:00:36Z</time></trkpt><trkpt lat="45.58384553888142" lon="13.797875136706228"><ele>16.0</ele><time>2026-05-02T18:00:37Z</time></trkpt><trkpt lat="45.583983145437784" lon="13.797898084609447"><ele>15.75</ele><time>2026-05-02T18:00:38Z</time></trkpt><trkpt lat="45.58412035907858" lon="13.797920218204826"><ele>15.5</ele><time>2026-05-02T18:00:39Z</time></trkpt><trkpt lat="45.584257056801945" lon="13.797941385645762"><ele>15.25</ele><time>2026-05-02T18:00:40Z</time></trkpt><trkpt lat="45.584389431442915" lon="13.797961232146328"><ele>15.0</ele><time>2026-05-02T18:00:41Z</time></trkpt><trkpt lat="45.584518544344235" lon="13.7979805000138"><ele>14.5</ele><time>2026-05-02T18:00:42Z</time></trkpt><trkpt lat="45.58464459492564" lon="13.797995611632084"><ele>14.0</ele><time>2026-05-02T18:00:43Z</time></trkpt><trkpt lat="45.58476731419619" lon="13.798008659918127"><ele>13.5</ele><time>2026-05-02T18:00:44Z</time></trkpt><trkpt lat="45.584887059664446" lon="13.798018662061173"><ele>13.0</ele><time>2026-05-02T18:00:45Z</time></trkpt><trkpt lat="45.585011013177215" lon="13.798028258968543"><ele>13.0</ele><time>2026-05-02T18:00:46Z</time></trkpt><trkpt lat="45.585134176700926" lon="13.798034887357625"><ele>13.0</ele><time>2026-05-02T18:00:47Z</time></trkpt><trkpt lat="45.58525825727249" lon="13.79804193832099"><ele>13.0</ele><time>2026-05-02T18:00:48Z</time></trkpt><trkpt lat="45.58538073892111" lon="13.798054703497355"><ele>13.0</ele><time>2026-05-02T18:00:49Z</time></trkpt><trkpt lat="45.58550791275264" lon="13.798064322415634"><ele>12.0</ele><time>2026-05-02T18:00:50Z</time></trkpt><trkpt lat="45.585636429380735" lon="13.798075038342072"><ele>11.0</ele><time>2026-05-02T18:00:51Z</time></trkpt><trkpt lat="45.58576909253988" lon="13.798085013024942"><ele>10.0</ele><time>2026-05-02T18:00:52Z</time></trkpt><trkpt lat="45.58590222929524" lon="13.798098438148"><ele>9.0</ele><time>2026-05-02T18:00:53Z</time></trkpt><trkpt lat="45.58602930732181" lon="13.798112237964096"><ele>9.0</ele><time>2026-05-02T18:00:54Z</time></trkpt><trkpt lat="45.58615501923384" lon="13.798127202559497"><ele>9.0</ele><time>2026-05-02T18:00:55Z</time></trkpt><trkpt lat="45.586282953428565" lon="13.798143353678425"><ele>9.0</ele><time>2026-05-02T18:00:56Z</time></trkpt><trkpt lat="45.586410822291384" lon="13.79816247448365"><ele>9.0</ele><time>2026-05-02T18:00:57Z</time></trkpt><trkpt lat="45.586538331050136" lon="13.798181808197647"><ele>8.75</ele><time>2026-05-02T18:00:58Z</time></trkpt><trkpt lat="45.586664227064425" lon="13.79820759272862"><ele>8.5</ele><time>2026-05-02T18:00:59Z</time></trkpt><trkpt lat="45.586791448457895" lon="13.798236768919626"><ele>8.25</ele><time>2026-05-02T18:01:00Z</time></trkpt><trkpt lat="45.586918349745496" lon="13.798270622018947"><ele>8.0</ele><time>2026-05-02T18:01:01Z</time></trkpt><trkpt lat="45.58705030163865" lon="13.798303727574952"><ele>7.75</ele><time>2026-05-02T18:01:02Z</time></trkpt><trkpt lat="45.58718059400055" lon="13.79834473322447"><ele>7.5</ele><time>2026-05-02T18:01:03Z</time></trkpt><trkpt lat="45.58731506703159" lon="13.798386935351978"><ele>7.25</ele><time>2026-05-02T18:01:04Z</time></trkpt><trkpt lat="45.58745060623722" lon="13.798434285723491"><ele>7.0</ele><time>2026-05-02T18:01:05Z</time></trkpt><trkpt lat="45.58758443782707" lon="13.798486851433083"><ele>6.25</ele><time>2026-05-02T18:01:06Z</time></trkpt><trkpt lat="45.587718093973685" lon="13.79854231468665"><ele>5.5</ele><time>2026-05-02T18:01:07Z</time></trkpt><trkpt lat="45.58784879226268" lon="13.79860005072038"><ele>4.75</ele><time>2026-05-02T18:01:08Z</time></trkpt><trkpt lat="45.58797506805819" lon="13.798658932870918"><ele>4.0</ele><time>2026-05-02T18:01:09Z</time></trkpt><trkpt lat="45.588100712840195" lon="13.79872090765057"><ele>3.75</ele><time>2026-05-02T18:01:10Z</time></trkpt><trkpt lat="45.588229312674784" lon="13.79878687540032"><ele>3.5</ele><time>2026-05-02T18:01:11Z</time></trkpt><trkpt lat="45.588357970814236" lon="13.798856628581795"><ele>3.25</ele><time>2026-05-02T18:01:12Z</time></trkpt><trkpt lat="45.58848447825541" lon="13.798931656679471"><ele>3.0</ele><time>2026-05-02T18:01:13Z</time></trkpt><trkpt lat="45.58860515106661" lon="13.799008818729932"><ele>2.5</ele><time>2026-05-02T18:01:14Z</time></trkpt><trkpt lat="45.58871567718802" lon="13.799089657408544"><ele>2.0</ele><time>2026-05-02T18:01:15Z</time></trkpt><trkpt lat="45.58883099105553" lon="13.799168719273506"><ele>1.5</ele><time>2026-05-02T18:01:16Z</time></trkpt><trkpt lat="45.5889439165337" lon="13.799249035358253"><ele>1.0</ele><time>2026-05-02T18:01:17Z</time></trkpt><trkpt lat="45.58906069342627" lon="13.799332784723429"><ele>1.5</ele><time>2026-05-02T18:01:18Z</time></trkpt><trkpt lat="45.589171442561174" lon="13.79941937618982"><ele>2.0</ele><time>2026-05-02T18:01:19Z</time></trkpt><trkpt lat="45.589283670854684" lon="13.799505924706144"><ele>2.5</ele><time>2026-05-02T18:01:20Z</time></trkpt><trkpt lat="45.58939549197563" lon="13.799591346633557"><ele>3.0</ele><time>2026-05-02T18:01:21Z</time></trkpt><trkpt lat="45.5895033508351" lon="13.799674828681828"><ele>2.0</ele><time>2026-05-02T18:01:22Z</time></trkpt><trkpt lat="45.5896111735127" lon="13.79975577650653"><ele>1.0</ele><time>2026-05-02T18:01:23Z</time></trkpt><trkpt lat="45.58971671744252" lon="13.799834580902354"><ele>0.0</ele><time>2026-05-02T18:01:24Z</time></trkpt><trkpt lat="45.589821490471685" lon="13.799913781374363"><ele>-1.0</ele><time>2026-05-02T18:01:25Z</time></trkpt><trkpt lat="45.589926190040885" lon="13.799993490284649"><ele>-1.0</ele><time>2026-05-02T18:01:26Z</time></trkpt><trkpt lat="45.59003068361048" lon="13.800073735520336"><ele>-1.0</ele><time>2026-05-02T18:01:27Z</time></trkpt><trkpt lat="45.590134709330925" lon="13.80015531102107"><ele>-1.0</ele><time>2026-05-02T18:01:28Z</time></trkpt><trkpt lat="45.59024278653375" lon="13.800236110085848"><ele>-1.0</ele><time>2026-05-02T18:01:29Z</time></trkpt><trkpt lat="45.59035316082014" lon="13.800317598390054"><ele>-0.25</ele><time>2026-05-02T18:01:30Z</time></trkpt><trkpt lat="45.590466028770805" lon="13.800397135068236"><ele>0.5</ele><time>2026-05-02T18:01:31Z</time></trkpt><trkpt lat="45.59057604536635" lon="13.800475750946429"><ele>1.25</ele><time>2026-05-02T18:01:32Z</time></trkpt><trkpt lat="45.590686327087155" lon="13.800555627605085"><ele>2.0</ele><time>2026-05-02T18:01:33Z</time></trkpt><trkpt lat="45.59079733622134" lon="13.800637776023875"><ele>2.0</ele><time>2026-05-02T18:01:34Z</time></trkpt><trkpt lat="45.59090572322305" lon="13.800722767638298"><ele>2.0</ele><time>2026-05-02T18:01:35Z</time></trkpt><trkpt lat="45.59101486474501" lon="13.800803500179807"><ele>2.0</ele><time>2026-05-02T18:01:36Z</time></trkpt><trkpt lat="45.591116358854364" lon="13.80087886777766"><ele>2.0</ele><time>2026-05-02T18:01:37Z</time></trkpt><trkpt lat="45.59120724362581" lon="13.800947298262392"><ele>1.6</ele><time>2026-05-02T18:01:38Z</time></trkpt><trkpt lat="45.59129519391536" lon="13.801011613389518"><ele>1.2000000000000002</ele><time>2026-05-02T18:01:39Z</time></trkpt><trkpt lat="45.591382739701366" lon="13.801076109037233"><ele>0.8</ele><time>2026-05-02T18:01:40Z</time></trkpt><trkpt lat="45.59146881410493" lon="13.801137383170024"><ele>0.4</ele><time>2026-05-02T18:01:41Z</time></trkpt><trkpt lat="45.59155225996147" lon="13.801197951417135"><ele>0.0</ele><time>2026-05-02T18:01:42Z</time></trkpt><trkpt lat="45.59162833073984" lon="13.801254895525656"><ele>0.0</ele><time>2026-05-02T18:01:43Z</time></trkpt><trkpt lat="45.59170213705726" lon="13.80130777568959"><ele>0.0</ele><time>2026-05-02T18:01:44Z</time></trkpt><trkpt lat="45.591775723662074" lon="13.801360745192362"><ele>0.0</ele><time>2026-05-02T18:01:45Z</time></trkpt><trkpt lat="45.591846191630474" lon="13.801413540560905"><ele>0.0</ele><time>2026-05-02T18:01:46Z</time></trkpt><trkpt lat="45.59190811236255" lon="13.801463184706261"><ele>0.0</ele><time>2026-05-02T18:01:47Z</time></trkpt><trkpt lat="45.59201485991445" lon="13.80155406560809"><ele>0.0</ele><time>2026-05-02T18:01:49Z</time></trkpt><trkpt lat="45.592112349958555" lon="13.801645789755298"><ele>0.4</ele><time>2026-05-02T18:01:51Z</time></trkpt><trkpt lat="45.592186374952284" lon="13.8017426082476"><ele>0.8</ele><time>2026-05-02T18:01:53Z</time></trkpt><trkpt lat="45.59226980055429" lon="13.801844520811866"><ele>1.2000000000000002</ele><time>2026-05-02T18:01:55Z</time></trkpt><trkpt lat="45.59232007963102" lon="13.801899938252738"><ele>1.6</ele><time>2026-05-02T18:01:56Z</time></trkpt><trkpt lat="45.59239127066394" lon="13.80200244410153"><ele>2.0</ele><time>2026-05-02T18:01:58Z</time></trkpt><trkpt lat="45.592460923784714" lon="13.80204475576977"><ele>1.9999999999999998</ele><time>2026-05-02T18:03:12Z</time></trkpt><trkpt lat="45.59253405256217" lon="13.80207186128177"><ele>2.0</ele><time>2026-05-02T18:03:14Z</time></trkpt><trkpt lat="45.59262229072718" lon="13.80207030503984"><ele>2.0</ele><time>2026-05-02T18:03:16Z</time></trkpt><trkpt lat="45.59268897101822" lon="13.80216028347427"><ele>2.0</ele><time>2026-05-02T18:03:17Z</time></trkpt><trkpt lat="45.59275213336513" lon="13.802190416247129"><ele>1.9999999999999998</ele><time>2026-05-02T18:03:18Z</time></trkpt><trkpt lat="45.59281495329849" lon="13.802234595413585"><ele>2.0</ele><time>2026-05-02T18:03:19Z</time></trkpt><trkpt lat="45.59288392253817" lon="13.80229821363413"><ele>2.2</ele><time>2026-05-02T18:03:20Z</time></trkpt><trkpt lat="45.592974556968166" lon="13.802371251830838"><ele>2.4000000000000004</ele><time>2026-05-02T18:03:21Z</time></trkpt><trkpt lat="45.59304726949333" lon="13.802438994080987"><ele>2.5999999999999996</ele><time>2026-05-02T18:03:22Z</time></trkpt><trkpt lat="45.59312120455499" lon="13.802511988263277"><ele>2.8</ele><time>2026-05-02T18:03:23Z</time></trkpt><trkpt lat="45.59320841866131" lon="13.802595573461746"><ele>3.0</ele><time>2026-05-02T18:03:24Z</time></trkpt><trkpt lat="45.59330889759507" lon="13.802690165991358"><ele>3.0</ele><time>2026-05-02T18:03:25Z</time></trkpt><trkpt lat="45.59341107728142" lon="13.802787752376613"><ele>3.0</ele><time>2026-05-02T18:03:26Z</time></trkpt><trkpt lat="45.59352961749753" lon="13.802896743604682"><ele>3.0</ele><time>2026-05-02T18:03:27Z</time></trkpt><trkpt lat="45.59364823421997" lon="13.803012299348204"><ele>3.0</ele><time>2026-05-02T18:03:28Z</time></trkpt><trkpt lat="45.59377304710158" lon="13.803121904683294"><ele>2.75</ele><time>2026-05-02T18:03:29Z</time></trkpt><trkpt lat="45.593888008373824" lon="13.80322479275831"><ele>2.5</ele><time>2026-05-02T18:03:30Z</time></trkpt><trkpt lat="45.593999082827" lon="13.803326652005163"><ele>2.25</ele><time>2026-05-02T18:03:31Z</time></trkpt><trkpt lat="45.59412023670205" lon="13.803428867439928"><ele>2.0</ele><time>2026-05-02T18:03:32Z</time></trkpt><trkpt lat="45.59423731548697" lon="13.803538382958502"><ele>2.5</ele><time>2026-05-02T18:03:33Z</time></trkpt><trkpt lat="45.59433934642359" lon="13.80364021740151"><ele>3.0</ele><time>2026-05-02T18:03:34Z</time></trkpt><trkpt lat="45.59445752363128" lon="13.80374667348096"><ele>3.5</ele><time>2026-05-02T18:03:35Z</time></trkpt><trkpt lat="45.594564085516836" lon="13.803852584807442"><ele>4.0</ele><time>2026-05-02T18:03:36Z</time></trkpt><trkpt lat="45.59467552273479" lon="13.803950597077462"><ele>5.25</ele><time>2026-05-02T18:03:37Z</time></trkpt><trkpt lat="45.59478512115757" lon="13.804054124866513"><ele>6.5</ele><time>2026-05-02T18:03:38Z</time></trkpt><trkpt lat="45.594897816026894" lon="13.804168313098177"><ele>7.75</ele><time>2026-05-02T18:03:39Z</time></trkpt><trkpt lat="45.59501038991652" lon="13.804279071640932"><ele>9.0</ele><time>2026-05-02T18:03:40Z</time></trkpt><trkpt lat="45.595122744580095" lon="13.804381341846533"><ele>9.0</ele><time>2026-05-02T18:03:41Z</time></trkpt><trkpt lat="45.59523453233187" lon="13.804488640181951"><ele>9.0</ele><time>2026-05-02T18:03:42Z</time></trkpt><trkpt lat="45.59533822623425" lon="13.804601958628226"><ele>9.0</ele><time>2026-05-02T18:03:43Z</time></trkpt><trkpt lat="45.59543925756206" lon="13.804720010290618"><ele>9.0</ele><time>2026-05-02T18:03:44Z</time></trkpt><trkpt lat="45.59554553854843" lon="13.8048401212411"><ele>9.25</ele><time>2026-05-02T18:03:45Z</time></trkpt><trkpt lat="45.595653871033086" lon="13.804968088909412"><ele>9.5</ele><time>2026-05-02T18:03:46Z</time></trkpt><trkpt lat="45.59575737719261" lon="13.805100442528818"><ele>9.75</ele><time>2026-05-02T18:03:47Z</time></trkpt><trkpt lat="45.59586386756605" lon="13.805241837154396"><ele>10.0</ele><time>2026-05-02T18:03:48Z</time></trkpt><trkpt lat="45.59599295748545" lon="13.805387134172381"><ele>10.333333333333334</ele><time>2026-05-02T18:03:49Z</time></trkpt><trkpt lat="45.59610368582739" lon="13.805552124717652"><ele>10.666666666666666</ele><time>2026-05-02T18:03:50Z</time></trkpt><trkpt lat="45.596216278735646" lon="13.805727210370614"><ele>11.0</ele><time>2026-05-02T18:03:51Z</time></trkpt><trkpt lat="45.596325496800944" lon="13.805913111427325"><ele>14.0</ele><time>2026-05-02T18:03:52Z</time></trkpt><trkpt lat="45.59643331837184" lon="13.8061077975452"><ele>17.0</ele><time>2026-05-02T18:03:53Z</time></trkpt><trkpt lat="45.596542641248384" lon="13.806309109148962"><ele>20.0</ele><time>2026-05-02T18:03:54Z</time></trkpt><trkpt lat="45.59664877048059" lon="13.806518249404817"><ele>20.0</ele><time>2026-05-02T18:03:55Z</time></trkpt><trkpt lat="45.5967599918665" lon="13.806736951992924"><ele>20.0</ele><time>2026-05-02T18:03:56Z</time></trkpt><trkpt lat="45.59687301485248" lon="13.80695947196032"><ele>20.0</ele><time>2026-05-02T18:03:57Z</time></trkpt><trkpt lat="45.59698500373129" lon="13.80719179483696"><ele>20.666666666666668</ele><time>2026-05-02T18:03:58Z</time></trkpt><trkpt lat="45.59709704334118" lon="13.807431995237797"><ele>21.333333333333332</ele><time>2026-05-02T18:03:59Z</time></trkpt><trkpt lat="45.59721292665124" lon="13.807675952755982"><ele>22.0</ele><time>2026-05-02T18:04:00Z</time></trkpt><trkpt lat="45.59733288068269" lon="13.80792745968822"><ele>25.0</ele><time>2026-05-02T18:04:01Z</time></trkpt><trkpt lat="45.59745166822876" lon="13.80819035136911"><ele>28.0</ele><time>2026-05-02T18:04:02Z</time></trkpt><trkpt lat="45.597567802299814" lon="13.808445687460395"><ele>31.0</ele><time>2026-05-02T18:04:03Z</time></trkpt><trkpt lat="45.59768530137593" lon="13.808714048538315"><ele>34.5</ele><time>2026-05-02T18:04:04Z</time></trkpt><trkpt lat="45.59780468497061" lon="13.808983167124525"><ele>38.0</ele><time>2026-05-02T18:04:05Z</time></trkpt><trkpt lat="45.59792810587908" lon="13.809255704390983"><ele>38.0</ele><time>2026-05-02T18:04:06Z</time></trkpt><trkpt lat="45.59804828829415" lon="13.809528036931313"><ele>38.0</ele><time>2026-05-02T18:04:07Z</time></trkpt><trkpt lat="45.598174619735964" lon="13.809806303415003"><ele>38.0</ele><time>2026-05-02T18:04:08Z</time></trkpt><trkpt lat="45.598302203550304" lon="13.810092521253722"><ele>38.0</ele><time>2026-05-02T18:04:09Z</time></trkpt><trkpt lat="45.59842934207764" lon="13.810386336514142"><ele>42.0</ele><time>2026-05-02T18:04:10Z</time></trkpt><trkpt lat="45.598561051360946" lon="13.81067652600999"><ele>46.0</ele><time>2026-05-02T18:04:11Z</time></trkpt><trkpt lat="45.598692419716656" lon="13.810965335307499"><ele>59.0</ele><time>2026-05-02T18:04:12.011Z</time></trkpt><trkpt lat="45.59882917424448" lon="13.81126374839384"><ele>72.0</ele><time>2026-05-02T18:04:13.017Z</time></trkpt><trkpt lat="45.598962851223625" lon="13.811557745874135"><ele>73.0</ele><time>2026-05-02T18:04:14.011Z</time></trkpt><trkpt lat="45.59910065836779" lon="13.811860738549763"><ele>74.0</ele><time>2026-05-02T18:04:15.01Z</time></trkpt><trkpt lat="45.599237095818665" lon="13.812161414888271"><ele>110.0</ele><time>2026-05-02T18:04:16.011Z</time></trkpt><trkpt lat="45.60103574663328" lon="13.816135507148768"><ele>43.0</ele><time>2026-05-02T18:04:31.218Z</time></trkpt><trkpt lat="45.60446353078728" lon="13.82488905535558"><ele>30.5</ele><time>2026-05-02T18:04:57Z</time></trkpt><trkpt lat="45.604692332088874" lon="13.82509884748951"><ele>18.0</ele><time>2026-05-02T18:04:58Z</time></trkpt><trkpt lat="45.60483646784478" lon="13.825321740658516"><ele>18.0</ele><time>2026-05-02T18:04:59Z</time></trkpt><trkpt lat="45.60495292170361" lon="13.825574238500225"><ele>18.0</ele><time>2026-05-02T18:05:00Z</time></trkpt><trkpt lat="45.60510426337208" lon="13.825766365810718"><ele>18.0</ele><time>2026-05-02T18:05:01Z</time></trkpt><trkpt lat="45.60523463528928" lon="13.825951293934905"><ele>16.666666666666668</ele><time>2026-05-02T18:05:01.999Z</time></trkpt><trkpt lat="45.605356961135136" lon="13.82613661030596"><ele>15.333333333333334</ele><time>2026-05-02T18:05:02.999Z</time></trkpt><trkpt lat="45.605473526894706" lon="13.826317551745062"><ele>14.0</ele><time>2026-05-02T18:05:03.999Z</time></trkpt><trkpt lat="45.605620511542966" lon="13.826505081243944"><ele>14.0</ele><time>2026-05-02T18:05:04.999Z</time></trkpt><trkpt lat="45.605759539584525" lon="13.826690811895164"><ele>14.0</ele><time>2026-05-02T18:05:05.999Z</time></trkpt><trkpt lat="45.60588698307613" lon="13.826872755876868"><ele>14.0</ele><time>2026-05-02T18:05:06.999Z</time></trkpt><trkpt lat="45.60600319468579" lon="13.827055410120822"><ele>14.666666666666668</ele><time>2026-05-02T18:05:07.999Z</time></trkpt><trkpt lat="45.60613467279187" lon="13.827230005799446"><ele>15.333333333333332</ele><time>2026-05-02T18:05:08.999Z</time></trkpt><trkpt lat="45.606250198795685" lon="13.827393849776277"><ele>16.0</ele><time>2026-05-02T18:05:09.999Z</time></trkpt><trkpt lat="45.60635846016185" lon="13.82755720758564"><ele>16.666666666666664</ele><time>2026-05-02T18:05:10.999Z</time></trkpt><trkpt lat="45.60646785945254" lon="13.827716110091515"><ele>17.333333333333332</ele><time>2026-05-02T18:05:11.999Z</time></trkpt><trkpt lat="45.60657609941608" lon="13.827873849062474"><ele>18.0</ele><time>2026-05-02T18:05:12.999Z</time></trkpt><trkpt lat="45.606686291216825" lon="13.828024058467243"><ele>18.0</ele><time>2026-05-02T18:05:13.999Z</time></trkpt><trkpt lat="45.60678801757246" lon="13.828173088713553"><ele>18.0</ele><time>2026-05-02T18:05:14.999Z</time></trkpt><trkpt lat="45.60690048090491" lon="13.828325165446651"><ele>18.0</ele><time>2026-05-02T18:05:16Z</time></trkpt><trkpt lat="45.60700735393687" lon="13.828469554288118"><ele>18.0</ele><time>2026-05-02T18:05:17Z</time></trkpt><trkpt lat="45.60711173098655" lon="13.828615161840142"><ele>17.75</ele><time>2026-05-02T18:05:18Z</time></trkpt><trkpt lat="45.607215983666705" lon="13.828753512960875"><ele>17.5</ele><time>2026-05-02T18:05:19Z</time></trkpt><trkpt lat="45.60730368903089" lon="13.828881717384194"><ele>17.25</ele><time>2026-05-02T18:05:20Z</time></trkpt><trkpt lat="45.607387111482254" lon="13.829001878013887"><ele>17.0</ele><time>2026-05-02T18:05:21Z</time></trkpt><trkpt lat="45.60746989787254" lon="13.829128053762195"><ele>17.0</ele><time>2026-05-02T18:05:22Z</time></trkpt><trkpt lat="45.60754656054182" lon="13.829252461490322"><ele>17.0</ele><time>2026-05-02T18:05:23Z</time></trkpt><trkpt lat="45.60761719700178" lon="13.829376214850491"><ele>17.0</ele><time>2026-05-02T18:05:24Z</time></trkpt><trkpt lat="45.607684934294596" lon="13.829508832730308"><ele>17.0</ele><time>2026-05-02T18:05:25Z</time></trkpt><trkpt lat="45.60774723036583" lon="13.829650440154419"><ele>16.5</ele><time>2026-05-02T18:05:26Z</time></trkpt><trkpt lat="45.60781322606474" lon="13.829802866841762"><ele>16.0</ele><time>2026-05-02T18:05:27Z</time></trkpt><trkpt lat="45.60786545794734" lon="13.829961931251486"><ele>15.5</ele><time>2026-05-02T18:05:28Z</time></trkpt><trkpt lat="45.607888542441465" lon="13.830119454496511"><ele>15.0</ele><time>2026-05-02T18:05:29Z</time></trkpt><trkpt lat="45.60791481012978" lon="13.830282600628653"><ele>15.0</ele><time>2026-05-02T18:05:30Z</time></trkpt><trkpt lat="45.60792867239238" lon="13.830459116988699"><ele>15.0</ele><time>2026-05-02T18:05:31Z</time></trkpt><trkpt lat="45.60793020150549" lon="13.830643983110553"><ele>15.0</ele><time>2026-05-02T18:05:32Z</time></trkpt><trkpt lat="45.60792400245147" lon="13.830840401708155"><ele>15.0</ele><time>2026-05-02T18:05:33Z</time></trkpt><trkpt lat="45.60791547052105" lon="13.831042703030919"><ele>16.333333333333332</ele><time>2026-05-02T18:05:34Z</time></trkpt><trkpt lat="45.60789523622639" lon="13.83124743011216"><ele>17.666666666666664</ele><time>2026-05-02T18:05:35Z</time></trkpt><trkpt lat="45.607877110019885" lon="13.831469915677468"><ele>19.0</ele><time>2026-05-02T18:05:36Z</time></trkpt><trkpt lat="45.60785601389547" lon="13.831693369448887"><ele>19.666666666666664</ele><time>2026-05-02T18:05:37Z</time></trkpt><trkpt lat="45.607836540400555" lon="13.831923269811988"><ele>20.333333333333332</ele><time>2026-05-02T18:05:38Z</time></trkpt><trkpt lat="45.60781916515842" lon="13.83215907797101"><ele>21.0</ele><time>2026-05-02T18:05:39Z</time></trkpt><trkpt lat="45.60779849827404" lon="13.832401021614974"><ele>20.666666666666668</ele><time>2026-05-02T18:05:40Z</time></trkpt><trkpt lat="45.607777787580964" lon="13.832642285722686"><ele>20.333333333333336</ele><time>2026-05-02T18:05:41Z</time></trkpt><trkpt lat="45.60775778564169" lon="13.83288217362688"><ele>20.0</ele><time>2026-05-02T18:05:42Z</time></trkpt><trkpt lat="45.60773955032977" lon="13.83312092029324"><ele>20.0</ele><time>2026-05-02T18:05:43Z</time></trkpt><trkpt lat="45.60772815457463" lon="13.833362230634078"><ele>20.0</ele><time>2026-05-02T18:05:44Z</time></trkpt><trkpt lat="45.6077175590779" lon="13.83360303061333"><ele>20.0</ele><time>2026-05-02T18:05:45Z</time></trkpt><trkpt lat="45.60770960763136" lon="13.833844826544746"><ele>19.666666666666668</ele><time>2026-05-02T18:05:46Z</time></trkpt><trkpt lat="45.60770195469506" lon="13.834084002259349"><ele>19.333333333333332</ele><time>2026-05-02T18:05:47Z</time></trkpt><trkpt lat="45.60769943336361" lon="13.834324341979794"><ele>19.0</ele><time>2026-05-02T18:05:48Z</time></trkpt><trkpt lat="45.60769818145887" lon="13.834567264727799"><ele>19.666666666666664</ele><time>2026-05-02T18:05:49Z</time></trkpt><trkpt lat="45.60770282052243" lon="13.834815123161047"><ele>20.333333333333332</ele><time>2026-05-02T18:05:50Z</time></trkpt><trkpt lat="45.607711750632944" lon="13.835068716940071"><ele>21.0</ele><time>2026-05-02T18:05:51Z</time></trkpt><trkpt lat="45.607728790106336" lon="13.835323297761075"><ele>21.666666666666668</ele><time>2026-05-02T18:05:52Z</time></trkpt><trkpt lat="45.607748177892724" lon="13.835580319489491"><ele>22.333333333333336</ele><time>2026-05-02T18:05:53Z</time></trkpt><trkpt lat="45.607766688196435" lon="13.835831389413508"><ele>23.0</ele><time>2026-05-02T18:05:54Z</time></trkpt><trkpt lat="45.60779312406662" lon="13.836084849589044"><ele>23.333333333333336</ele><time>2026-05-02T18:05:55Z</time></trkpt><trkpt lat="45.607824163331664" lon="13.836320348597066"><ele>23.666666666666668</ele><time>2026-05-02T18:05:56Z</time></trkpt><trkpt lat="45.60785542024539" lon="13.836541194604779"><ele>24.0</ele><time>2026-05-02T18:05:57Z</time></trkpt><trkpt lat="45.60788524337199" lon="13.836756376081912"><ele>26.666666666666664</ele><time>2026-05-02T18:05:58Z</time></trkpt><trkpt lat="45.60791652876572" lon="13.836971623411268"><ele>29.333333333333332</ele><time>2026-05-02T18:05:59Z</time></trkpt><trkpt lat="45.60795454731878" lon="13.837187895573228"><ele>32.0</ele><time>2026-05-02T18:06:00Z</time></trkpt><trkpt lat="45.60800243282951" lon="13.83741152730311"><ele>32.0</ele><time>2026-05-02T18:06:01Z</time></trkpt><trkpt lat="45.6080606706095" lon="13.837628505827082"><ele>32.0</ele><time>2026-05-02T18:06:02Z</time></trkpt><trkpt lat="45.60813297871885" lon="13.837858086923532"><ele>32.0</ele><time>2026-05-02T18:06:03Z</time></trkpt><trkpt lat="45.608205615202365" lon="13.838094934851814"><ele>33.0</ele><time>2026-05-02T18:06:04Z</time></trkpt><trkpt lat="45.60828935117871" lon="13.838326801276093"><ele>34.0</ele><time>2026-05-02T18:06:05Z</time></trkpt><trkpt lat="45.608385293279674" lon="13.838550211973148"><ele>35.0</ele><time>2026-05-02T18:06:06Z</time></trkpt><trkpt lat="45.608483708421616" lon="13.838772944333353"><ele>36.0</ele><time>2026-05-02T18:06:07Z</time></trkpt><trkpt lat="45.60858371553935" lon="13.838994106905822"><ele>37.0</ele><time>2026-05-02T18:06:08Z</time></trkpt><trkpt lat="45.60869211610612" lon="13.839211689088046"><ele>38.0</ele><time>2026-05-02T18:06:09Z</time></trkpt><trkpt lat="45.608812639232696" lon="13.83942028637565"><ele>39.0</ele><time>2026-05-02T18:06:10.02Z</time></trkpt><trkpt lat="45.608933940439435" lon="13.839628641734418"><ele>40.0</ele><time>2026-05-02T18:06:11.012Z</time></trkpt><trkpt lat="45.60906456706146" lon="13.839824902125734"><ele>41.0</ele><time>2026-05-02T18:06:12Z</time></trkpt><trkpt lat="45.609199432368406" lon="13.840014069469401"><ele>42.0</ele><time>2026-05-02T18:06:13Z</time></trkpt><trkpt lat="45.60935733110989" lon="13.840221444640745"><ele>43.0</ele><time>2026-05-02T18:06:14Z</time></trkpt><trkpt lat="45.609513831637756" lon="13.840419437019849"><ele>44.0</ele><time>2026-05-02T18:06:15Z</time></trkpt><trkpt lat="45.609653774043935" lon="13.84061745780358"><ele>44.0</ele><time>2026-05-02T18:06:16Z</time></trkpt><trkpt lat="45.60978132656081" lon="13.840826808132682"><ele>44.0</ele><time>2026-05-02T18:06:17Z</time></trkpt><trkpt lat="45.60991872443386" lon="13.841053835469907"><ele>44.0</ele><time>2026-05-02T18:06:18Z</time></trkpt><trkpt lat="45.61005556187598" lon="13.84128642531526"><ele>45.0</ele><time>2026-05-02T18:06:19Z</time></trkpt><trkpt lat="45.61019188749588" lon="13.841509982530516"><ele>46.0</ele><time>2026-05-02T18:06:20Z</time></trkpt><trkpt lat="45.6103119725021" lon="13.841734851988921"><ele>47.0</ele><time>2026-05-02T18:06:21Z</time></trkpt><trkpt lat="45.610454529475845" lon="13.84196670573618"><ele>48.666666666666664</ele><time>2026-05-02T18:06:22Z</time></trkpt><trkpt lat="45.61059938770919" lon="13.842199709363435"><ele>50.33333333333333</ele><time>2026-05-02T18:06:23Z</time></trkpt><trkpt lat="45.610740881260625" lon="13.84242930467921"><ele>52.0</ele><time>2026-05-02T18:06:24Z</time></trkpt><trkpt lat="45.61088545695205" lon="13.8426648397599"><ele>52.33333333333333</ele><time>2026-05-02T18:06:25Z</time></trkpt><trkpt lat="45.61103418373653" lon="13.842900836311706"><ele>52.66666666666667</ele><time>2026-05-02T18:06:26Z</time></trkpt><trkpt lat="45.61117944957018" lon="13.843135638034099"><ele>53.0</ele><time>2026-05-02T18:06:27Z</time></trkpt><trkpt lat="45.61131507515877" lon="13.843372751757133"><ele>54.0</ele><time>2026-05-02T18:06:28Z</time></trkpt><trkpt lat="45.61146153357566" lon="13.84361450416335"><ele>55.0</ele><time>2026-05-02T18:06:29Z</time></trkpt><trkpt lat="45.61160102246619" lon="13.843853203052875"><ele>56.0</ele><time>2026-05-02T18:06:30Z</time></trkpt><trkpt lat="45.61173960783467" lon="13.84409930133612"><ele>55.5</ele><time>2026-05-02T18:06:31Z</time></trkpt><trkpt lat="45.611888053464" lon="13.844343635978348"><ele>55.0</ele><time>2026-05-02T18:06:32Z</time></trkpt><trkpt lat="45.61203084819689" lon="13.844589896929163"><ele>55.666666666666664</ele><time>2026-05-02T18:06:33Z</time></trkpt><trkpt lat="45.6121776980452" lon="13.844833533787861"><ele>56.33333333333333</ele><time>2026-05-02T18:06:34Z</time></trkpt><trkpt lat="45.612327093626604" lon="13.845069684227148"><ele>57.0</ele><time>2026-05-02T18:06:35Z</time></trkpt><trkpt lat="45.61247425418812" lon="13.845311739232056"><ele>57.0</ele><time>2026-05-02T18:06:36Z</time></trkpt><trkpt lat="45.61260558376093" lon="13.845549611738743"><ele>57.0</ele><time>2026-05-02T18:06:37Z</time></trkpt><trkpt lat="45.612748011273794" lon="13.845792639340258"><ele>57.0</ele><time>2026-05-02T18:06:38Z</time></trkpt><trkpt lat="45.612890160963" lon="13.84603017522714"><ele>59.0</ele><time>2026-05-02T18:06:39Z</time></trkpt><trkpt lat="45.61302863870673" lon="13.846267112676006"><ele>61.0</ele><time>2026-05-02T18:06:40Z</time></trkpt><trkpt lat="45.613172186109345" lon="13.846504401435482"><ele>63.0</ele><time>2026-05-02T18:06:41Z</time></trkpt><trkpt lat="45.61331579019608" lon="13.846739936206983"><ele>60.66666666666667</ele><time>2026-05-02T18:06:42Z</time></trkpt><trkpt lat="45.61345883920691" lon="13.846981689183416"><ele>58.333333333333336</ele><time>2026-05-02T18:06:43Z</time></trkpt><trkpt lat="45.61359936546033" lon="13.84722701823114"><ele>56.0</ele><time>2026-05-02T18:06:44Z</time></trkpt><trkpt lat="45.6137389334614" lon="13.847470416805246"><ele>58.66666666666667</ele><time>2026-05-02T18:06:45Z</time></trkpt><trkpt lat="45.613883568022224" lon="13.847713596861952"><ele>61.33333333333333</ele><time>2026-05-02T18:06:46Z</time></trkpt><trkpt lat="45.61402813269384" lon="13.84796128661885"><ele>64.0</ele><time>2026-05-02T18:06:47Z</time></trkpt><trkpt lat="45.61417489064579" lon="13.848208019864806"><ele>64.0</ele><time>2026-05-02T18:06:48Z</time></trkpt><trkpt lat="45.61432261902301" lon="13.848434543542242"><ele>64.0</ele><time>2026-05-02T18:06:49Z</time></trkpt><trkpt lat="45.614469470432255" lon="13.848648988771913"><ele>64.0</ele><time>2026-05-02T18:06:50Z</time></trkpt><trkpt lat="45.61462345508959" lon="13.848839853551825"><ele>64.33333333333333</ele><time>2026-05-02T18:06:51Z</time></trkpt><trkpt lat="45.61478376144359" lon="13.849013581815157"><ele>64.66666666666667</ele><time>2026-05-02T18:06:52Z</time></trkpt><trkpt lat="45.61495252135524" lon="13.849160608118249"><ele>65.0</ele><time>2026-05-02T18:06:53Z</time></trkpt><trkpt lat="45.615137600596135" lon="13.849290586921311"><ele>66.66666666666667</ele><time>2026-05-02T18:06:54Z</time></trkpt><trkpt lat="45.61532877788754" lon="13.849396699632372"><ele>68.33333333333333</ele><time>2026-05-02T18:06:55Z</time></trkpt><trkpt lat="45.615534917285714" lon="13.84946232942361"><ele>70.0</ele><time>2026-05-02T18:06:56Z</time></trkpt><trkpt lat="45.61572032796793" lon="13.849522840492524"><ele>70.0</ele><time>2026-05-02T18:06:57Z</time></trkpt><trkpt lat="45.61592001786401" lon="13.849553339277401"><ele>70.0</ele><time>2026-05-02T18:06:58Z</time></trkpt><trkpt lat="45.61612721809226" lon="13.849555283270902"><ele>70.0</ele><time>2026-05-02T18:06:59Z</time></trkpt><trkpt lat="45.616336455239306" lon="13.849529964956291"><ele>70.66666666666666</ele><time>2026-05-02T18:07:00Z</time></trkpt><trkpt lat="45.61654364760739" lon="13.84947572491233"><ele>71.33333333333333</ele><time>2026-05-02T18:07:01Z</time></trkpt><trkpt lat="45.616745054054604" lon="13.84940221075684"><ele>72.0</ele><time>2026-05-02T18:07:02Z</time></trkpt><trkpt lat="45.61694724991439" lon="13.849303772643399"><ele>73.0</ele><time>2026-05-02T18:07:03Z</time></trkpt><trkpt lat="45.617127699034015" lon="13.849197170682434"><ele>74.0</ele><time>2026-05-02T18:07:04Z</time></trkpt><trkpt lat="45.6172962347721" lon="13.849057194392971"><ele>75.0</ele><time>2026-05-02T18:07:05Z</time></trkpt><trkpt lat="45.61746616942779" lon="13.848900504279886"><ele>75.0</ele><time>2026-05-02T18:07:06Z</time></trkpt><trkpt lat="45.617623976514224" lon="13.848728218173116"><ele>75.0</ele><time>2026-05-02T18:07:07Z</time></trkpt><trkpt lat="45.61778623139222" lon="13.848548028879941"><ele>75.0</ele><time>2026-05-02T18:07:08Z</time></trkpt><trkpt lat="45.617953537585066" lon="13.848355634018048"><ele>76.33333333333333</ele><time>2026-05-02T18:07:09Z</time></trkpt><trkpt lat="45.618112478179555" lon="13.848168132250038"><ele>77.66666666666666</ele><time>2026-05-02T18:07:10Z</time></trkpt><trkpt lat="45.61827831101538" lon="13.847971964164795"><ele>79.0</ele><time>2026-05-02T18:07:11Z</time></trkpt><trkpt lat="45.61843830782924" lon="13.84777417791654"><ele>79.33333333333333</ele><time>2026-05-02T18:07:12Z</time></trkpt><trkpt lat="45.61859445877099" lon="13.847574400469385"><ele>79.66666666666667</ele><time>2026-05-02T18:07:13Z</time></trkpt><trkpt lat="45.618739658725694" lon="13.847372337309006"><ele>80.0</ele><time>2026-05-02T18:07:14Z</time></trkpt><trkpt lat="45.6188830374931" lon="13.847161509417335"><ele>81.0</ele><time>2026-05-02T18:07:15Z</time></trkpt><trkpt lat="45.61901794473805" lon="13.846935021121915"><ele>82.0</ele><time>2026-05-02T18:07:16Z</time></trkpt><trkpt lat="45.619150054181276" lon="13.846694129061659"><ele>83.0</ele><time>2026-05-02T18:07:17Z</time></trkpt><trkpt lat="45.61927728222878" lon="13.846443874645422"><ele>83.33333333333334</ele><time>2026-05-02T18:07:18Z</time></trkpt><trkpt lat="45.61940014339058" lon="13.846179555690906"><ele>83.66666666666667</ele><time>2026-05-02T18:07:19Z</time></trkpt><trkpt lat="45.619517431787415" lon="13.845911050816913"><ele>84.0</ele><time>2026-05-02T18:07:20Z</time></trkpt><trkpt lat="45.61963351146327" lon="13.845636044494345"><ele>86.0</ele><time>2026-05-02T18:07:21Z</time></trkpt><trkpt lat="45.619755864004595" lon="13.845356603130723"><ele>88.0</ele><time>2026-05-02T18:07:22Z</time></trkpt><trkpt lat="45.61986955648108" lon="13.84506355004519"><ele>88.0</ele><time>2026-05-02T18:07:23Z</time></trkpt><trkpt lat="45.619987279893884" lon="13.844788233561994"><ele>88.0</ele><time>2026-05-02T18:07:24Z</time></trkpt><trkpt lat="45.62010883971812" lon="13.844507564788522"><ele>88.5</ele><time>2026-05-02T18:07:25Z</time></trkpt><trkpt lat="45.6202374738837" lon="13.84424213244167"><ele>89.0</ele><time>2026-05-02T18:07:26Z</time></trkpt><trkpt lat="45.62036138359821" lon="13.84396956113731"><ele>97.5</ele><time>2026-05-02T18:07:27Z</time></trkpt><trkpt lat="45.62048803232364" lon="13.843699727449762"><ele>106.0</ele><time>2026-05-02T18:07:28Z</time></trkpt><trkpt lat="45.620616197353414" lon="13.843432558170575"><ele>106.0</ele><time>2026-05-02T18:07:29Z</time></trkpt><trkpt lat="45.62074993480453" lon="13.843170496940605"><ele>106.0</ele><time>2026-05-02T18:07:30Z</time></trkpt><trkpt lat="45.62088562656575" lon="13.84290405129731"><ele>106.0</ele><time>2026-05-02T18:07:31Z</time></trkpt><trkpt lat="45.621032553124785" lon="13.84264668488249"><ele>106.0</ele><time>2026-05-02T18:07:32Z</time></trkpt><trkpt lat="45.62118097128793" lon="13.842390868331918"><ele>108.5</ele><time>2026-05-02T18:07:33Z</time></trkpt><trkpt lat="45.62134019692019" lon="13.842140191696835"><ele>111.0</ele><time>2026-05-02T18:07:34Z</time></trkpt><trkpt lat="45.62149829578145" lon="13.841891243068854"><ele>108.5</ele><time>2026-05-02T18:07:35Z</time></trkpt><trkpt lat="45.62166010212042" lon="13.841656056178644"><ele>106.0</ele><time>2026-05-02T18:07:36Z</time></trkpt><trkpt lat="45.62182639323644" lon="13.84142187247944"><ele>107.5</ele><time>2026-05-02T18:07:37Z</time></trkpt><trkpt lat="45.62198942853766" lon="13.841174493092211"><ele>109.0</ele><time>2026-05-02T18:07:38Z</time></trkpt><trkpt lat="45.62216426371677" lon="13.840948378704722"><ele>109.0</ele><time>2026-05-02T18:07:39Z</time></trkpt><trkpt lat="45.62233319203228" lon="13.840730518418606"><ele>109.0</ele><time>2026-05-02T18:07:40Z</time></trkpt><trkpt lat="45.6225063424876" lon="13.840510343577487"><ele>109.0</ele><time>2026-05-02T18:07:41Z</time></trkpt><trkpt lat="45.62267738719645" lon="13.84027873566131"><ele>109.0</ele><time>2026-05-02T18:07:42Z</time></trkpt><trkpt lat="45.62284938461507" lon="13.840053656522251"><ele>111.5</ele><time>2026-05-02T18:07:43Z</time></trkpt><trkpt lat="45.62302609628401" lon="13.83983701179832"><ele>114.0</ele><time>2026-05-02T18:07:44Z</time></trkpt><trkpt lat="45.623193088381925" lon="13.839614066298418"><ele>114.0</ele><time>2026-05-02T18:07:45Z</time></trkpt><trkpt lat="45.62336188874032" lon="13.839388089759812"><ele>114.0</ele><time>2026-05-02T18:07:46Z</time></trkpt><trkpt lat="45.62352257396773" lon="13.839172550406424"><ele>115.33333333333334</ele><time>2026-05-02T18:07:47Z</time></trkpt><trkpt lat="45.623685893442" lon="13.838956632864958"><ele>116.66666666666667</ele><time>2026-05-02T18:07:48Z</time></trkpt><trkpt lat="45.62384998799039" lon="13.838745356899574"><ele>118.0</ele><time>2026-05-02T18:07:49Z</time></trkpt><trkpt lat="45.624006547331355" lon="13.838533963767821"><ele>117.33333333333334</ele><time>2026-05-02T18:07:50Z</time></trkpt><trkpt lat="45.624163948656765" lon="13.838331907518517"><ele>116.66666666666666</ele><time>2026-05-02T18:07:51Z</time></trkpt><trkpt lat="45.624313917160336" lon="13.838127903212802"><ele>116.0</ele><time>2026-05-02T18:07:52Z</time></trkpt><trkpt lat="45.62447103462962" lon="13.83791884733882"><ele>115.66666666666666</ele><time>2026-05-02T18:07:53Z</time></trkpt><trkpt lat="45.62461974280301" lon="13.837708039684012"><ele>115.33333333333334</ele><time>2026-05-02T18:07:54Z</time></trkpt><trkpt lat="45.62475720916571" lon="13.837480975166454"><ele>115.0</ele><time>2026-05-02T18:07:55Z</time></trkpt><trkpt lat="45.62488016821125" lon="13.837251128653623"><ele>113.66666666666667</ele><time>2026-05-02T18:07:56Z</time></trkpt><trkpt lat="45.62499114801979" lon="13.837015950474823"><ele>112.33333333333334</ele><time>2026-05-02T18:07:57Z</time></trkpt><trkpt lat="45.62508357379156" lon="13.836772876215166"><ele>111.0</ele><time>2026-05-02T18:07:58Z</time></trkpt><trkpt lat="45.625160115898" lon="13.83651099073819"><ele>111.0</ele><time>2026-05-02T18:07:59Z</time></trkpt><trkpt lat="45.62521884870655" lon="13.836233417796738"><ele>111.0</ele><time>2026-05-02T18:08:00Z</time></trkpt><trkpt lat="45.62526140394317" lon="13.835947870557707"><ele>111.0</ele><time>2026-05-02T18:08:01Z</time></trkpt><trkpt lat="45.625288024054406" lon="13.83565392319336"><ele>111.0</ele><time>2026-05-02T18:08:02Z</time></trkpt><trkpt lat="45.625301913244314" lon="13.835353219490434"><ele>111.0</ele><time>2026-05-02T18:08:03Z</time></trkpt><trkpt lat="45.62530003250147" lon="13.835056371684695"><ele>111.0</ele><time>2026-05-02T18:08:04Z</time></trkpt><trkpt lat="45.62529480525141" lon="13.834758922027"><ele>113.33333333333334</ele><time>2026-05-02T18:08:05Z</time></trkpt><trkpt lat="45.62528838146071" lon="13.834466532077492"><ele>115.66666666666667</ele><time>2026-05-02T18:08:06Z</time></trkpt><trkpt lat="45.62528705417876" lon="13.83417256910858"><ele>118.0</ele><time>2026-05-02T18:08:07Z</time></trkpt><trkpt lat="45.625299093961054" lon="13.833876607169415"><ele>126.66666666666667</ele><time>2026-05-02T18:08:08Z</time></trkpt><trkpt lat="45.62532714115832" lon="13.83359023576726"><ele>135.33333333333334</ele><time>2026-05-02T18:08:09Z</time></trkpt><trkpt lat="45.62537361592816" lon="13.833299769575225"><ele>144.0</ele><time>2026-05-02T18:08:10Z</time></trkpt><trkpt lat="45.62544232873868" lon="13.833022057803467"><ele>144.0</ele><time>2026-05-02T18:08:11Z</time></trkpt><trkpt lat="45.625530957342676" lon="13.832754229220907"><ele>144.0</ele><time>2026-05-02T18:08:12Z</time></trkpt><trkpt lat="45.62563439769293" lon="13.83248998870196"><ele>144.0</ele><time>2026-05-02T18:08:13Z</time></trkpt><trkpt lat="45.62575834669785" lon="13.832239151741614"><ele>143.0</ele><time>2026-05-02T18:08:14Z</time></trkpt><trkpt lat="45.625896399733946" lon="13.832004953276055"><ele>142.0</ele><time>2026-05-02T18:08:15Z</time></trkpt><trkpt lat="45.6260486879988" lon="13.83179399967868"><ele>141.0</ele><time>2026-05-02T18:08:16Z</time></trkpt><trkpt lat="45.62621085092432" lon="13.831614773743437"><ele>141.0</ele><time>2026-05-02T18:08:17Z</time></trkpt><trkpt lat="45.62638495376836" lon="13.831452546579495"><ele>141.0</ele><time>2026-05-02T18:08:18Z</time></trkpt><trkpt lat="45.62656811198513" lon="13.83131157152657"><ele>141.0</ele><time>2026-05-02T18:08:19Z</time></trkpt><trkpt lat="45.62676046570551" lon="13.831190823152417"><ele>141.0</ele><time>2026-05-02T18:08:20Z</time></trkpt><trkpt lat="45.626953063957274" lon="13.831096485837097"><ele>141.0</ele><time>2026-05-02T18:08:21Z</time></trkpt><trkpt lat="45.627158459266006" lon="13.831039886851826"><ele>141.0</ele><time>2026-05-02T18:08:22Z</time></trkpt><trkpt lat="45.62736668940581" lon="13.831000961010966"><ele>140.0</ele><time>2026-05-02T18:08:23Z</time></trkpt><trkpt lat="45.627582252173596" lon="13.830979154975383"><ele>139.0</ele><time>2026-05-02T18:08:24Z</time></trkpt><trkpt lat="45.62779629872219" lon="13.83094421073407"><ele>138.0</ele><time>2026-05-02T18:08:25Z</time></trkpt><trkpt lat="45.62800609202841" lon="13.830890974404038"><ele>133.33333333333334</ele><time>2026-05-02T18:08:26Z</time></trkpt><trkpt lat="45.62820564867268" lon="13.830818492490442"><ele>128.66666666666669</ele><time>2026-05-02T18:08:27Z</time></trkpt><trkpt lat="45.62840474634125" lon="13.83073171035537"><ele>124.0</ele><time>2026-05-02T18:08:28Z</time></trkpt><trkpt lat="45.628591118518365" lon="13.830620866356625"><ele>127.33333333333334</ele><time>2026-05-02T18:08:29Z</time></trkpt><trkpt lat="45.62876922599033" lon="13.830482062819925"><ele>130.66666666666666</ele><time>2026-05-02T18:08:30Z</time></trkpt><trkpt lat="45.62894441974797" lon="13.830321802162707"><ele>134.0</ele><time>2026-05-02T18:08:31Z</time></trkpt><trkpt lat="45.62910303445187" lon="13.830144983871756"><ele>137.0</ele><time>2026-05-02T18:08:32Z</time></trkpt><trkpt lat="45.62925338163689" lon="13.82994189279329"><ele>140.0</ele><time>2026-05-02T18:08:33Z</time></trkpt><trkpt lat="45.629386517098986" lon="13.829723267522187"><ele>143.0</ele><time>2026-05-02T18:08:34Z</time></trkpt><trkpt lat="45.62950834372792" lon="13.829492483933747"><ele>148.66666666666666</ele><time>2026-05-02T18:08:35Z</time></trkpt><trkpt lat="45.62961411984852" lon="13.82924429584307"><ele>154.33333333333334</ele><time>2026-05-02T18:08:36Z</time></trkpt><trkpt lat="45.62970011589944" lon="13.828977146417698"><ele>160.0</ele><time>2026-05-02T18:08:37Z</time></trkpt><trkpt lat="45.629774325401534" lon="13.82869619359855"><ele>159.0</ele><time>2026-05-02T18:08:38Z</time></trkpt><trkpt lat="45.629833375717894" lon="13.828406239154038"><ele>158.0</ele><time>2026-05-02T18:08:39Z</time></trkpt><trkpt lat="45.629870769020584" lon="13.828112464479634"><ele>157.0</ele><time>2026-05-02T18:08:40Z</time></trkpt><trkpt lat="45.62989361879587" lon="13.827813914811667"><ele>154.66666666666669</ele><time>2026-05-02T18:08:41Z</time></trkpt><trkpt lat="45.62989825322487" lon="13.827506401967316"><ele>152.33333333333334</ele><time>2026-05-02T18:08:42Z</time></trkpt><trkpt lat="45.629892012045055" lon="13.827196014969692"><ele>150.0</ele><time>2026-05-02T18:08:43Z</time></trkpt><trkpt lat="45.62987599799848" lon="13.826881839927207"><ele>151.5</ele><time>2026-05-02T18:08:44Z</time></trkpt><trkpt lat="45.62986160806419" lon="13.826562696647532"><ele>153.0</ele><time>2026-05-02T18:08:45Z</time></trkpt><trkpt lat="45.62984804260895" lon="13.826235992893025"><ele>160.0</ele><time>2026-05-02T18:08:46Z</time></trkpt><trkpt lat="45.6298389943413" lon="13.825909384209048"><ele>167.0</ele><time>2026-05-02T18:08:47Z</time></trkpt><trkpt lat="45.62983175928037" lon="13.82559357829298"><ele>167.0</ele><time>2026-05-02T18:08:48Z</time></trkpt><trkpt lat="45.62982884749795" lon="13.825284223874101"><ele>167.0</ele><time>2026-05-02T18:08:49Z</time></trkpt><trkpt lat="45.62982963950862" lon="13.82496358204065"><ele>167.0</ele><time>2026-05-02T18:08:50Z</time></trkpt><trkpt lat="45.6298288705869" lon="13.824642401116577"><ele>165.5</ele><time>2026-05-02T18:08:51Z</time></trkpt><trkpt lat="45.62983302525571" lon="13.8243114623612"><ele>164.0</ele><time>2026-05-02T18:08:52Z</time></trkpt><trkpt lat="45.62984175301112" lon="13.823983550825728"><ele>164.0</ele><time>2026-05-02T18:08:53Z</time></trkpt><trkpt lat="45.62985398593078" lon="13.823653178294458"><ele>164.0</ele><time>2026-05-02T18:08:54Z</time></trkpt><trkpt lat="45.62986596808993" lon="13.823310168567888"><ele>164.0</ele><time>2026-05-02T18:08:55Z</time></trkpt><trkpt lat="45.62987950944052" lon="13.822964417893298"><ele>164.0</ele><time>2026-05-02T18:08:56Z</time></trkpt><trkpt lat="45.62989898383613" lon="13.822622092427004"><ele>165.5</ele><time>2026-05-02T18:08:57Z</time></trkpt><trkpt lat="45.62991885001111" lon="13.822284532398154"><ele>167.0</ele><time>2026-05-02T18:08:58Z</time></trkpt><trkpt lat="45.62993777699585" lon="13.821953565786044"><ele>168.0</ele><time>2026-05-02T18:08:59Z</time></trkpt><trkpt lat="45.62995401382535" lon="13.821627827087548"><ele>169.0</ele><time>2026-05-02T18:09:00.001Z</time></trkpt><trkpt lat="45.62997372917002" lon="13.821314945783927"><ele>170.0</ele><time>2026-05-02T18:09:01.001Z</time></trkpt><trkpt lat="45.62999947054961" lon="13.821011587598521"><ele>170.66666666666666</ele><time>2026-05-02T18:09:02.001Z</time></trkpt><trkpt lat="45.63003322112439" lon="13.820721723125184"><ele>171.33333333333334</ele><time>2026-05-02T18:09:03.001Z</time></trkpt><trkpt lat="45.630081293606366" lon="13.820449965495524"><ele>172.0</ele><time>2026-05-02T18:09:04.001Z</time></trkpt><trkpt lat="45.63014030019585" lon="13.820185980271079"><ele>171.33333333333334</ele><time>2026-05-02T18:09:05.001Z</time></trkpt><trkpt lat="45.6302175652557" lon="13.819936309028455"><ele>170.66666666666666</ele><time>2026-05-02T18:09:06.001Z</time></trkpt><trkpt lat="45.63030795325814" lon="13.819686173117262"><ele>170.0</ele><time>2026-05-02T18:09:07.001Z</time></trkpt><trkpt lat="45.630415593122024" lon="13.8194524323869"><ele>171.33333333333331</ele><time>2026-05-02T18:09:08.001Z</time></trkpt><trkpt lat="45.63053747216442" lon="13.819236819720805"><ele>172.66666666666666</ele><time>2026-05-02T18:09:09.001Z</time></trkpt><trkpt lat="45.63067683795532" lon="13.81903540359941"><ele>174.0</ele><time>2026-05-02T18:09:10.001Z</time></trkpt><trkpt lat="45.63082261263563" lon="13.818835524733124"><ele>174.0</ele><time>2026-05-02T18:09:11.001Z</time></trkpt><trkpt lat="45.630982273184415" lon="13.81864424205178"><ele>174.0</ele><time>2026-05-02T18:09:12.001Z</time></trkpt><trkpt lat="45.6311452600838" lon="13.81844979759319"><ele>174.0</ele><time>2026-05-02T18:09:13.001Z</time></trkpt><trkpt lat="45.63131873582696" lon="13.81826127389048"><ele>172.66666666666666</ele><time>2026-05-02T18:09:14Z</time></trkpt><trkpt lat="45.631495238199356" lon="13.818070430009566"><ele>171.33333333333331</ele><time>2026-05-02T18:09:15Z</time></trkpt><trkpt lat="45.631667298953374" lon="13.81787983720408"><ele>170.0</ele><time>2026-05-02T18:09:16Z</time></trkpt><trkpt lat="45.6318282252574" lon="13.817679058230262"><ele>176.66666666666666</ele><time>2026-05-02T18:09:17Z</time></trkpt><trkpt lat="45.63197906230369" lon="13.817462809619597"><ele>183.33333333333334</ele><time>2026-05-02T18:09:18Z</time></trkpt><trkpt lat="45.632115569383586" lon="13.817239964942967"><ele>190.0</ele><time>2026-05-02T18:09:19Z</time></trkpt><trkpt lat="45.6322417191666" lon="13.8170000693819"><ele>190.0</ele><time>2026-05-02T18:09:20Z</time></trkpt><trkpt lat="45.63235767447378" lon="13.816742418597507"><ele>190.0</ele><time>2026-05-02T18:09:21Z</time></trkpt><trkpt lat="45.63245044270914" lon="13.81647593212467"><ele>190.0</ele><time>2026-05-02T18:09:22Z</time></trkpt><trkpt lat="45.632523576679226" lon="13.816197067809757"><ele>189.33333333333334</ele><time>2026-05-02T18:09:23Z</time></trkpt><trkpt lat="45.63257651111944" lon="13.815914806437567"><ele>188.66666666666666</ele><time>2026-05-02T18:09:24Z</time></trkpt><trkpt lat="45.632620793664636" lon="13.815624907328662"><ele>188.0</ele><time>2026-05-02T18:09:25Z</time></trkpt><trkpt lat="45.63266010458244" lon="13.815308312946206"><ele>187.33333333333331</ele><time>2026-05-02T18:09:26Z</time></trkpt><trkpt lat="45.63269114779895" lon="13.81499385691211"><ele>186.66666666666666</ele><time>2026-05-02T18:09:27Z</time></trkpt><trkpt lat="45.63272151048352" lon="13.814677228130469"><ele>186.0</ele><time>2026-05-02T18:09:28Z</time></trkpt><trkpt lat="45.63275956922107" lon="13.81437146485723"><ele>195.0</ele><time>2026-05-02T18:09:29Z</time></trkpt><trkpt lat="45.63280865518543" lon="13.814068832461547"><ele>204.0</ele><time>2026-05-02T18:09:30Z</time></trkpt><trkpt lat="45.63287937482081" lon="13.813775957099296"><ele>213.0</ele><time>2026-05-02T18:09:31Z</time></trkpt><trkpt lat="45.632964036384244" lon="13.813490127446206"><ele>210.33333333333331</ele><time>2026-05-02T18:09:32Z</time></trkpt><trkpt lat="45.6330703685036" lon="13.813210152737577"><ele>207.66666666666666</ele><time>2026-05-02T18:09:33Z</time></trkpt><trkpt lat="45.63320043994539" lon="13.81295366288059"><ele>205.0</ele><time>2026-05-02T18:09:34Z</time></trkpt><trkpt lat="45.63334172239309" lon="13.812711577566512"><ele>203.33333333333331</ele><time>2026-05-02T18:09:35Z</time></trkpt><trkpt lat="45.63348350065899" lon="13.81248716960531"><ele>201.66666666666669</ele><time>2026-05-02T18:09:36Z</time></trkpt><trkpt lat="45.63364525232789" lon="13.812306361760688"><ele>200.0</ele><time>2026-05-02T18:09:37Z</time></trkpt><trkpt lat="45.63380906402102" lon="13.812162138427114"><ele>200.0</ele><time>2026-05-02T18:09:38Z</time></trkpt><trkpt lat="45.63398714051815" lon="13.812028405823336"><ele>200.0</ele><time>2026-05-02T18:09:39Z</time></trkpt><trkpt lat="45.63417522035503" lon="13.811910772625822"><ele>200.0</ele><time>2026-05-02T18:09:40Z</time></trkpt><trkpt lat="45.63437968585107" lon="13.811823173774384"><ele>200.33333333333334</ele><time>2026-05-02T18:09:41Z</time></trkpt><trkpt lat="45.6345924088339" lon="13.81176120843204"><ele>200.66666666666669</ele><time>2026-05-02T18:09:42Z</time></trkpt><trkpt lat="45.634801113708036" lon="13.811719057553152"><ele>201.0</ele><time>2026-05-02T18:09:43Z</time></trkpt><trkpt lat="45.63501159609263" lon="13.811707080712726"><ele>201.0</ele><time>2026-05-02T18:09:44Z</time></trkpt><trkpt lat="45.63522322070836" lon="13.811737193411224"><ele>201.0</ele><time>2026-05-02T18:09:45Z</time></trkpt><trkpt lat="45.63542193378828" lon="13.811789555479331"><ele>201.0</ele><time>2026-05-02T18:09:46Z</time></trkpt><trkpt lat="45.635622791614836" lon="13.811861282280088"><ele>205.0</ele><time>2026-05-02T18:09:47Z</time></trkpt><trkpt lat="45.63580822106994" lon="13.81196349534726"><ele>209.0</ele><time>2026-05-02T18:09:48Z</time></trkpt><trkpt lat="45.63599156916997" lon="13.812094753390223"><ele>213.0</ele><time>2026-05-02T18:09:49Z</time></trkpt><trkpt lat="45.63616862658072" lon="13.812253892227703"><ele>213.0</ele><time>2026-05-02T18:09:50Z</time></trkpt><trkpt lat="45.63635554647708" lon="13.81243783585496"><ele>213.0</ele><time>2026-05-02T18:09:51Z</time></trkpt><trkpt lat="45.63651315285545" lon="13.812645037611226"><ele>213.0</ele><time>2026-05-02T18:09:52Z</time></trkpt><trkpt lat="45.63665650175311" lon="13.812873704904339"><ele>215.0</ele><time>2026-05-02T18:09:53Z</time></trkpt><trkpt lat="45.63677824931931" lon="13.8131333434884"><ele>217.0</ele><time>2026-05-02T18:09:54Z</time></trkpt><trkpt lat="45.636887647642375" lon="13.81341098205292"><ele>219.0</ele><time>2026-05-02T18:09:55Z</time></trkpt><trkpt lat="45.63697917060515" lon="13.813706525338523"><ele>214.0</ele><time>2026-05-02T18:09:56Z</time></trkpt><trkpt lat="45.63705244480014" lon="13.814008032349298"><ele>209.0</ele><time>2026-05-02T18:09:57Z</time></trkpt><trkpt lat="45.63710043704817" lon="13.814312188950769"><ele>204.0</ele><time>2026-05-02T18:09:58Z</time></trkpt><trkpt lat="45.63712946617926" lon="13.814624583518238"><ele>204.0</ele><time>2026-05-02T18:09:59Z</time></trkpt><trkpt lat="45.63713697829846" lon="13.81493528502573"><ele>204.0</ele><time>2026-05-02T18:10:00Z</time></trkpt><trkpt lat="45.637118104789096" lon="13.81524724659795"><ele>204.0</ele><time>2026-05-02T18:10:01Z</time></trkpt><trkpt lat="45.63708822345279" lon="13.815568816250178"><ele>204.0</ele><time>2026-05-02T18:10:02Z</time></trkpt><trkpt lat="45.637060190676955" lon="13.815900093903505"><ele>204.0</ele><time>2026-05-02T18:10:03Z</time></trkpt><trkpt lat="45.63703128744578" lon="13.816231244618933"><ele>205.0</ele><time>2026-05-02T18:10:04Z</time></trkpt><trkpt lat="45.63699172039613" lon="13.816573457191511"><ele>206.0</ele><time>2026-05-02T18:10:05Z</time></trkpt><trkpt lat="45.63695504447844" lon="13.816920142665875"><ele>215.0</ele><time>2026-05-02T18:10:06Z</time></trkpt><trkpt lat="45.63691633416393" lon="13.817265037476952"><ele>224.0</ele><time>2026-05-02T18:10:07Z</time></trkpt><trkpt lat="45.636882562936094" lon="13.817610301795547"><ele>223.5</ele><time>2026-05-02T18:10:08Z</time></trkpt><trkpt lat="45.63684719594575" lon="13.817961998447704"><ele>223.0</ele><time>2026-05-02T18:10:09Z</time></trkpt><trkpt lat="45.636808931103026" lon="13.818317223667774"><ele>222.0</ele><time>2026-05-02T18:10:10Z</time></trkpt><trkpt lat="45.6367724630976" lon="13.818670525498932"><ele>221.0</ele><time>2026-05-02T18:10:11Z</time></trkpt><trkpt lat="45.63673820632423" lon="13.819020834478708"><ele>225.0</ele><time>2026-05-02T18:10:12Z</time></trkpt><trkpt lat="45.63670225418308" lon="13.819369842522718"><ele>229.0</ele><time>2026-05-02T18:10:13Z</time></trkpt><trkpt lat="45.63666706556124" lon="13.819721156188313"><ele>229.0</ele><time>2026-05-02T18:10:14Z</time></trkpt><trkpt lat="45.63662733325985" lon="13.820072828192435"><ele>229.0</ele><time>2026-05-02T18:10:15Z</time></trkpt><trkpt lat="45.63658775766699" lon="13.82042458404502"><ele>229.5</ele><time>2026-05-02T18:10:16Z</time></trkpt><trkpt lat="45.63654910402307" lon="13.820773077215065"><ele>230.0</ele><time>2026-05-02T18:10:17Z</time></trkpt><trkpt lat="45.63650690125512" lon="13.821116049590492"><ele>228.5</ele><time>2026-05-02T18:10:18Z</time></trkpt><trkpt lat="45.63646136984278" lon="13.821452137570354"><ele>227.0</ele><time>2026-05-02T18:10:19Z</time></trkpt><trkpt lat="45.63641386948185" lon="13.8217853146922"><ele>225.5</ele><time>2026-05-02T18:10:20Z</time></trkpt><trkpt lat="45.63637352161087" lon="13.822123335419247"><ele>224.0</ele><time>2026-05-02T18:10:21Z</time></trkpt><trkpt lat="45.636326020354645" lon="13.822462384312812"><ele>221.0</ele><time>2026-05-02T18:10:22Z</time></trkpt><trkpt lat="45.63627983576595" lon="13.822805972766472"><ele>218.0</ele><time>2026-05-02T18:10:23Z</time></trkpt><trkpt lat="45.636232060357166" lon="13.82315431881789"><ele>217.0</ele><time>2026-05-02T18:10:24Z</time></trkpt><trkpt lat="45.63618126270992" lon="13.823505303533185"><ele>216.0</ele><time>2026-05-02T18:10:25Z</time></trkpt><trkpt lat="45.63613536885551" lon="13.823861606271283"><ele>225.5</ele><time>2026-05-02T18:10:26Z</time></trkpt><trkpt lat="45.63607433023665" lon="13.82421414256851"><ele>235.0</ele><time>2026-05-02T18:10:27Z</time></trkpt><trkpt lat="45.63601792109782" lon="13.824566459490041"><ele>235.5</ele><time>2026-05-02T18:10:28Z</time></trkpt><trkpt lat="45.635957608864544" lon="13.82492304059812"><ele>236.0</ele><time>2026-05-02T18:10:29Z</time></trkpt><trkpt lat="45.635901345977445" lon="13.825283210145303"><ele>236.5</ele><time>2026-05-02T18:10:30Z</time></trkpt><trkpt lat="45.63583824492163" lon="13.825649309615017"><ele>237.0</ele><time>2026-05-02T18:10:31Z</time></trkpt><trkpt lat="45.635771426834495" lon="13.826010521614199"><ele>236.0</ele><time>2026-05-02T18:10:32Z</time></trkpt><trkpt lat="45.63570119554768" lon="13.826356814441814"><ele>235.0</ele><time>2026-05-02T18:10:33Z</time></trkpt><trkpt lat="45.635625632250665" lon="13.826697923054168"><ele>235.5</ele><time>2026-05-02T18:10:34Z</time></trkpt><trkpt lat="45.63554539429647" lon="13.82704193131332"><ele>236.0</ele><time>2026-05-02T18:10:35Z</time></trkpt><trkpt lat="45.635456162583395" lon="13.82738728985304"><ele>237.5</ele><time>2026-05-02T18:10:36Z</time></trkpt><trkpt lat="45.63536003126619" lon="13.827732302888768"><ele>239.0</ele><time>2026-05-02T18:10:37Z</time></trkpt><trkpt lat="45.63525702255419" lon="13.82807788450809"><ele>244.5</ele><time>2026-05-02T18:10:38Z</time></trkpt><trkpt lat="45.63514690632035" lon="13.828419920985793"><ele>250.0</ele><time>2026-05-02T18:10:39Z</time></trkpt><trkpt lat="45.63502999219541" lon="13.828762634445576"><ele>250.0</ele><time>2026-05-02T18:10:40.012Z</time></trkpt><trkpt lat="45.63490736349714" lon="13.829101503048232"><ele>250.0</ele><time>2026-05-02T18:10:41.013Z</time></trkpt><trkpt lat="45.634777291292" lon="13.829438966255179"><ele>250.0</ele><time>2026-05-02T18:10:42.013Z</time></trkpt><trkpt lat="45.63463886582522" lon="13.829769789778553"><ele>250.0</ele><time>2026-05-02T18:10:43.023Z</time></trkpt><trkpt lat="45.63450464267686" lon="13.830091653322182"><ele>234.0</ele><time>2026-05-02T18:10:44.015Z</time></trkpt><trkpt lat="45.634003886995494" lon="13.83133901284433"><ele>234.0</ele><time>2026-05-02T18:10:48Z</time></trkpt><trkpt lat="45.63386066897876" lon="13.831698867939034"><ele>234.0</ele><time>2026-05-02T18:10:49Z</time></trkpt><trkpt lat="45.63374590375444" lon="13.832015104831934"><ele>232.0</ele><time>2026-05-02T18:10:50Z</time></trkpt><trkpt lat="45.63366107351859" lon="13.832348929424965"><ele>230.0</ele><time>2026-05-02T18:10:51Z</time></trkpt><trkpt lat="45.63357993241192" lon="13.832690309225734"><ele>218.5</ele><time>2026-05-02T18:10:52Z</time></trkpt><trkpt lat="45.63351074273319" lon="13.833038450385093"><ele>207.0</ele><time>2026-05-02T18:10:53Z</time></trkpt><trkpt lat="45.63345081266471" lon="13.833391830265619"><ele>211.5</ele><time>2026-05-02T18:10:54Z</time></trkpt><trkpt lat="45.63340192251183" lon="13.833754913491953"><ele>216.0</ele><time>2026-05-02T18:10:55.001Z</time></trkpt><trkpt lat="45.63337237740342" lon="13.834113793848177"><ele>226.0</ele><time>2026-05-02T18:10:56.001Z</time></trkpt><trkpt lat="45.63334554457398" lon="13.834477697091227"><ele>236.0</ele><time>2026-05-02T18:10:57.001Z</time></trkpt><trkpt lat="45.633332807815954" lon="13.834832294183325"><ele>245.5</ele><time>2026-05-02T18:10:58.001Z</time></trkpt><trkpt lat="45.633327723857064" lon="13.835184455110056"><ele>255.0</ele><time>2026-05-02T18:10:59.001Z</time></trkpt><trkpt lat="45.63332703134876" lon="13.835521869887607"><ele>255.0</ele><time>2026-05-02T18:11:00.001Z</time></trkpt><trkpt lat="45.63333410637308" lon="13.83584525486542"><ele>255.0</ele><time>2026-05-02T18:11:01.001Z</time></trkpt><trkpt lat="45.63334462563763" lon="13.83617055525269"><ele>259.0</ele><time>2026-05-02T18:11:02.001Z</time></trkpt><trkpt lat="45.63336082531402" lon="13.836489860441924"><ele>263.0</ele><time>2026-05-02T18:11:03.001Z</time></trkpt><trkpt lat="45.63337826158773" lon="13.836801916090947"><ele>267.0</ele><time>2026-05-02T18:11:04.001Z</time></trkpt><trkpt lat="45.63340598480195" lon="13.83710859329022"><ele>269.3333333333333</ele><time>2026-05-02T18:11:05.001Z</time></trkpt><trkpt lat="45.63343608616713" lon="13.837406664617601"><ele>271.66666666666663</ele><time>2026-05-02T18:11:06.001Z</time></trkpt><trkpt lat="45.63347239115084" lon="13.837696873215204"><ele>274.0</ele><time>2026-05-02T18:11:07.001Z</time></trkpt><trkpt lat="45.63352916952434" lon="13.837977603427392"><ele>275.0</ele><time>2026-05-02T18:11:08.001Z</time></trkpt><trkpt lat="45.633583761544806" lon="13.838260628911078"><ele>276.0</ele><time>2026-05-02T18:11:09.001Z</time></trkpt><trkpt lat="45.63365185838448" lon="13.838542094275013"><ele>277.0</ele><time>2026-05-02T18:11:10.001Z</time></trkpt><trkpt lat="45.633727801344236" lon="13.838817557725747"><ele>279.3333333333333</ele><time>2026-05-02T18:11:11.001Z</time></trkpt><trkpt lat="45.633802687623295" lon="13.839091886245058"><ele>281.6666666666667</ele><time>2026-05-02T18:11:12.001Z</time></trkpt><trkpt lat="45.63390291207226" lon="13.83936770502518"><ele>284.0</ele><time>2026-05-02T18:11:13.001Z</time></trkpt><trkpt lat="45.63399802836528" lon="13.83963831299897"><ele>289.6666666666667</ele><time>2026-05-02T18:11:14.001Z</time></trkpt><trkpt lat="45.634100633179074" lon="13.839909943296002"><ele>295.3333333333333</ele><time>2026-05-02T18:11:15.001Z</time></trkpt><trkpt lat="45.63421444665655" lon="13.840188299479914"><ele>301.0</ele><time>2026-05-02T18:11:16.02Z</time></trkpt><trkpt lat="45.63433375798704" lon="13.840459186756492"><ele>308.5</ele><time>2026-05-02T18:11:17.013Z</time></trkpt><trkpt lat="45.634462217754184" lon="13.840737326952508"><ele>316.0</ele><time>2026-05-02T18:11:18.022Z</time></trkpt><trkpt lat="45.634593105324115" lon="13.841008518741392"><ele>356.0</ele><time>2026-05-02T18:11:19.014Z</time></trkpt><trkpt lat="45.65681854732861" lon="13.83374872618712"><ele>354.5</ele><time>2026-05-02T18:12:53.001Z</time></trkpt><trkpt lat="45.65700375241366" lon="13.83358598885114"><ele>353.0</ele><time>2026-05-02T18:12:54.001Z</time></trkpt><trkpt lat="45.65742775600789" lon="13.833373822846825"><ele>353.0</ele><time>2026-05-02T18:12:55.001Z</time></trkpt><trkpt lat="45.65767113925795" lon="13.83318005151138"><ele>353.0</ele><time>2026-05-02T18:12:56.001Z</time></trkpt><trkpt lat="45.65791551143569" lon="13.83295525509531"><ele>355.0</ele><time>2026-05-02T18:12:57.001Z</time></trkpt><trkpt lat="45.6581757916333" lon="13.83272696063333"><ele>357.0</ele><time>2026-05-02T18:12:58.001Z</time></trkpt><trkpt lat="45.65844034226384" lon="13.832502443629803"><ele>356.5</ele><time>2026-05-02T18:12:59.001Z</time></trkpt><trkpt lat="45.65870896649548" lon="13.832281649158546"><ele>356.0</ele><time>2026-05-02T18:13:00.001Z</time></trkpt><trkpt lat="45.65897193597456" lon="13.832063871621616"><ele>356.0</ele><time>2026-05-02T18:13:01.001Z</time></trkpt><trkpt lat="45.6592392300094" lon="13.831844133173549"><ele>356.0</ele><time>2026-05-02T18:13:02.001Z</time></trkpt><trkpt lat="45.65950652035212" lon="13.831628375932674"><ele>358.0</ele><time>2026-05-02T18:13:03.001Z</time></trkpt><trkpt lat="45.65976644425049" lon="13.831407868941778"><ele>360.0</ele><time>2026-05-02T18:13:04.001Z</time></trkpt><trkpt lat="45.660026611302435" lon="13.831189467013019"><ele>360.0</ele><time>2026-05-02T18:13:05.001Z</time></trkpt><trkpt lat="45.66028964309454" lon="13.830966485368076"><ele>360.0</ele><time>2026-05-02T18:13:06.001Z</time></trkpt><trkpt lat="45.66056000515451" lon="13.830742528750568"><ele>360.0</ele><time>2026-05-02T18:13:07.001Z</time></trkpt><trkpt lat="45.66083144223161" lon="13.830517179679482"><ele>360.0</ele><time>2026-05-02T18:13:08.001Z</time></trkpt><trkpt lat="45.66109788552464" lon="13.830300139822633"><ele>360.0</ele><time>2026-05-02T18:13:09.001Z</time></trkpt><trkpt lat="45.66135733125767" lon="13.830079661694008"><ele>360.0</ele><time>2026-05-02T18:13:10.001Z</time></trkpt><trkpt lat="45.661620867940094" lon="13.829861963170275"><ele>360.0</ele><time>2026-05-02T18:13:11.001Z</time></trkpt><trkpt lat="45.661883026312715" lon="13.829647245901926"><ele>360.0</ele><time>2026-05-02T18:13:12.001Z</time></trkpt><trkpt lat="45.66214610131243" lon="13.829434840799587"><ele>360.5</ele><time>2026-05-02T18:13:13Z</time></trkpt><trkpt lat="45.66240201655324" lon="13.829216902889883"><ele>361.0</ele><time>2026-05-02T18:13:14Z</time></trkpt><trkpt lat="45.66265921502826" lon="13.828996795851598"><ele>361.0</ele><time>2026-05-02T18:13:15Z</time></trkpt><trkpt lat="45.66292020713094" lon="13.82877163249991"><ele>361.0</ele><time>2026-05-02T18:13:16Z</time></trkpt><trkpt lat="45.66317964317715" lon="13.828545526993494"><ele>361.0</ele><time>2026-05-02T18:13:17Z</time></trkpt><trkpt lat="45.66344754480369" lon="13.828320958733874"><ele>361.0</ele><time>2026-05-02T18:13:18Z</time></trkpt><trkpt lat="45.663716786991486" lon="13.828102732945572"><ele>361.0</ele><time>2026-05-02T18:13:19Z</time></trkpt><trkpt lat="45.663990870306236" lon="13.827878159916562"><ele>361.0</ele><time>2026-05-02T18:13:20Z</time></trkpt><trkpt lat="45.664262460762664" lon="13.827658599024538"><ele>360.0</ele><time>2026-05-02T18:13:21Z</time></trkpt><trkpt lat="45.66453278991023" lon="13.827437696628577"><ele>359.0</ele><time>2026-05-02T18:13:22Z</time></trkpt><trkpt lat="45.66479985245802" lon="13.827209446610349"><ele>359.0</ele><time>2026-05-02T18:13:23Z</time></trkpt><trkpt lat="45.665061998841104" lon="13.826987092682172"><ele>359.0</ele><time>2026-05-02T18:13:24Z</time></trkpt><trkpt lat="45.665326842655126" lon="13.826766813223918"><ele>358.0</ele><time>2026-05-02T18:13:25Z</time></trkpt><trkpt lat="45.66559576427871" lon="13.826550527152111"><ele>357.0</ele><time>2026-05-02T18:13:26Z</time></trkpt><trkpt lat="45.6658671660158" lon="13.8263256061437"><ele>357.5</ele><time>2026-05-02T18:13:27Z</time></trkpt><trkpt lat="45.66614386355132" lon="13.826105247736033"><ele>358.0</ele><time>2026-05-02T18:13:28Z</time></trkpt><trkpt lat="45.66641760381775" lon="13.82587902053478"><ele>358.5</ele><time>2026-05-02T18:13:29Z</time></trkpt><trkpt lat="45.66669015402847" lon="13.825653204043142"><ele>359.0</ele><time>2026-05-02T18:13:30Z</time></trkpt><trkpt lat="45.66695806055526" lon="13.825430690935375"><ele>359.0</ele><time>2026-05-02T18:13:31Z</time></trkpt><trkpt lat="45.667230434460386" lon="13.825207823607712"><ele>359.0</ele><time>2026-05-02T18:13:32Z</time></trkpt><trkpt lat="45.66750015395696" lon="13.824985205973983"><ele>359.0</ele><time>2026-05-02T18:13:33Z</time></trkpt><trkpt lat="45.66777445935667" lon="13.824760628748757"><ele>359.0</ele><time>2026-05-02T18:13:34Z</time></trkpt><trkpt lat="45.66805389387324" lon="13.824534401432565"><ele>357.0</ele><time>2026-05-02T18:13:35Z</time></trkpt><trkpt lat="45.6683267160229" lon="13.824308793816659"><ele>355.0</ele><time>2026-05-02T18:13:36Z</time></trkpt><trkpt lat="45.6686010555076" lon="13.82408093787635"><ele>354.0</ele><time>2026-05-02T18:13:37Z</time></trkpt><trkpt lat="45.66889651880743" lon="13.823844425716457"><ele>353.0</ele><time>2026-05-02T18:13:38Z</time></trkpt><trkpt lat="45.669179823625576" lon="13.823606437986104"><ele>350.5</ele><time>2026-05-02T18:13:39Z</time></trkpt><trkpt lat="45.669466963550875" lon="13.8233712222348"><ele>348.0</ele><time>2026-05-02T18:13:40Z</time></trkpt><trkpt lat="45.66974858614764" lon="13.82312874076921"><ele>348.0</ele><time>2026-05-02T18:13:41Z</time></trkpt><trkpt lat="45.67002259774234" lon="13.82288998469258"><ele>348.0</ele><time>2026-05-02T18:13:42Z</time></trkpt><trkpt lat="45.6703001474468" lon="13.82265048946601"><ele>346.0</ele><time>2026-05-02T18:13:43Z</time></trkpt><trkpt lat="45.670566284322334" lon="13.82240960862634"><ele>344.0</ele><time>2026-05-02T18:13:44Z</time></trkpt><trkpt lat="45.67083529859009" lon="13.822165639279104"><ele>344.0</ele><time>2026-05-02T18:13:45Z</time></trkpt><trkpt lat="45.67109922722653" lon="13.821923443755589"><ele>344.0</ele><time>2026-05-02T18:13:46Z</time></trkpt><trkpt lat="45.671362031997006" lon="13.821678647330025"><ele>341.5</ele><time>2026-05-02T18:13:47Z</time></trkpt><trkpt lat="45.671632516554524" lon="13.821435264107482"><ele>339.0</ele><time>2026-05-02T18:13:48Z</time></trkpt><trkpt lat="45.671905458770304" lon="13.82119143987672"><ele>338.5</ele><time>2026-05-02T18:13:49Z</time></trkpt><trkpt lat="45.672183387752824" lon="13.82095334496643"><ele>338.0</ele><time>2026-05-02T18:13:50Z</time></trkpt><trkpt lat="45.67246460763355" lon="13.820724672087595"><ele>338.0</ele><time>2026-05-02T18:13:51Z</time></trkpt><trkpt lat="45.672745236739736" lon="13.820495073042268"><ele>338.0</ele><time>2026-05-02T18:13:52Z</time></trkpt><trkpt lat="45.67303362441223" lon="13.82028882420825"><ele>336.5</ele><time>2026-05-02T18:13:53Z</time></trkpt><trkpt lat="45.67332727810294" lon="13.820077610700151"><ele>335.0</ele><time>2026-05-02T18:13:54Z</time></trkpt><trkpt lat="45.67362340983289" lon="13.819868043651445"><ele>334.5</ele><time>2026-05-02T18:13:55Z</time></trkpt><trkpt lat="45.67391748652993" lon="13.819672867350349"><ele>334.0</ele><time>2026-05-02T18:13:56Z</time></trkpt><trkpt lat="45.67421836600166" lon="13.819483373655961"><ele>334.0</ele><time>2026-05-02T18:13:57Z</time></trkpt><trkpt lat="45.674519361848766" lon="13.819295916993411"><ele>334.0</ele><time>2026-05-02T18:13:58Z</time></trkpt><trkpt lat="45.6748274763699" lon="13.819116794996056"><ele>334.0</ele><time>2026-05-02T18:13:59Z</time></trkpt><trkpt lat="45.67513745665852" lon="13.818948701481695"><ele>334.0</ele><time>2026-05-02T18:14:00Z</time></trkpt><trkpt lat="45.67544961003753" lon="13.818782232974815"><ele>334.0</ele><time>2026-05-02T18:14:01Z</time></trkpt><trkpt lat="45.67575205493286" lon="13.81862749585964"><ele>334.0</ele><time>2026-05-02T18:14:02Z</time></trkpt><trkpt lat="45.67605437305279" lon="13.818472124249553"><ele>334.5</ele><time>2026-05-02T18:14:03Z</time></trkpt><trkpt lat="45.67635493696457" lon="13.818319076712248"><ele>335.0</ele><time>2026-05-02T18:14:04Z</time></trkpt><trkpt lat="45.67665852388805" lon="13.818167565253631"><ele>336.0</ele><time>2026-05-02T18:14:05Z</time></trkpt><trkpt lat="45.67696231825222" lon="13.818016228980007"><ele>337.0</ele><time>2026-05-02T18:14:06Z</time></trkpt><trkpt lat="45.677268121768776" lon="13.817864748728377"><ele>337.0</ele><time>2026-05-02T18:14:07Z</time></trkpt><trkpt lat="45.67757388006809" lon="13.81771389522215"><ele>337.0</ele><time>2026-05-02T18:14:08Z</time></trkpt><trkpt lat="45.67788095361175" lon="13.817544164411965"><ele>334.0</ele><time>2026-05-02T18:14:09Z</time></trkpt><trkpt lat="45.678187633522924" lon="13.817387095960623"><ele>331.0</ele><time>2026-05-02T18:14:10Z</time></trkpt><trkpt lat="45.678501598936315" lon="13.817237262563202"><ele>328.0</ele><time>2026-05-02T18:14:11Z</time></trkpt><trkpt lat="45.67881217780521" lon="13.817084855920893"><ele>325.0</ele><time>2026-05-02T18:14:12Z</time></trkpt><trkpt lat="45.67912050102428" lon="13.81691659512327"><ele>326.0</ele><time>2026-05-02T18:14:13Z</time></trkpt><trkpt lat="45.67942129013098" lon="13.816758243568799"><ele>327.0</ele><time>2026-05-02T18:14:14Z</time></trkpt><trkpt lat="45.67972428523414" lon="13.816580033930448"><ele>327.5</ele><time>2026-05-02T18:14:15Z</time></trkpt><trkpt lat="45.68003022362119" lon="13.816404165399518"><ele>328.0</ele><time>2026-05-02T18:14:16Z</time></trkpt><trkpt lat="45.68034099910234" lon="13.816224334673992"><ele>328.0</ele><time>2026-05-02T18:14:17Z</time></trkpt><trkpt lat="45.680642450457924" lon="13.816041191828019"><ele>328.0</ele><time>2026-05-02T18:14:18Z</time></trkpt><trkpt lat="45.68092770840585" lon="13.815855398157224"><ele>327.0</ele><time>2026-05-02T18:14:19Z</time></trkpt><trkpt lat="45.681211759508834" lon="13.815665372992155"><ele>326.0</ele><time>2026-05-02T18:14:20Z</time></trkpt><trkpt lat="45.68149738275167" lon="13.815468891265098"><ele>326.0</ele><time>2026-05-02T18:14:21Z</time></trkpt><trkpt lat="45.6817875154328" lon="13.815261846936577"><ele>326.0</ele><time>2026-05-02T18:14:22Z</time></trkpt><trkpt lat="45.6820776927003" lon="13.81505263170938"><ele>326.5</ele><time>2026-05-02T18:14:23Z</time></trkpt><trkpt lat="45.682368986763166" lon="13.814841113232811"><ele>327.0</ele><time>2026-05-02T18:14:24Z</time></trkpt><trkpt lat="45.68266167459298" lon="13.81462188600212"><ele>327.0</ele><time>2026-05-02T18:14:25Z</time></trkpt><trkpt lat="45.682957677240665" lon="13.814398893726162"><ele>327.0</ele><time>2026-05-02T18:14:26Z</time></trkpt><trkpt lat="45.68324424045911" lon="13.814163189931135"><ele>326.5</ele><time>2026-05-02T18:14:27Z</time></trkpt><trkpt lat="45.68353305655049" lon="13.813927665326705"><ele>326.0</ele><time>2026-05-02T18:14:28Z</time></trkpt><trkpt lat="45.683817997961455" lon="13.813685832454086"><ele>324.5</ele><time>2026-05-02T18:14:29Z</time></trkpt><trkpt lat="45.68410816430201" lon="13.813439682651929"><ele>323.0</ele><time>2026-05-02T18:14:30Z</time></trkpt><trkpt lat="45.684396031777354" lon="13.813196778721904"><ele>320.5</ele><time>2026-05-02T18:14:31Z</time></trkpt><trkpt lat="45.68468606109467" lon="13.812954843352088"><ele>318.0</ele><time>2026-05-02T18:14:32Z</time></trkpt><trkpt lat="45.684974124289354" lon="13.812715171377105"><ele>318.0</ele><time>2026-05-02T18:14:33Z</time></trkpt><trkpt lat="45.68525531346232" lon="13.812473907270014"><ele>318.0</ele><time>2026-05-02T18:14:34Z</time></trkpt><trkpt lat="45.68553679255555" lon="13.812238496538757"><ele>318.0</ele><time>2026-05-02T18:14:35Z</time></trkpt><trkpt lat="45.68581270809604" lon="13.81200197175052"><ele>318.0</ele><time>2026-05-02T18:14:36Z</time></trkpt><trkpt lat="45.68609509593957" lon="13.811766462143034"><ele>317.5</ele><time>2026-05-02T18:14:37Z</time></trkpt><trkpt lat="45.686376154277376" lon="13.8115428565204"><ele>317.0</ele><time>2026-05-02T18:14:38Z</time></trkpt><trkpt lat="45.68666341371135" lon="13.811325035053251"><ele>315.5</ele><time>2026-05-02T18:14:39Z</time></trkpt><trkpt lat="45.68695523212928" lon="13.811106784984673"><ele>314.0</ele><time>2026-05-02T18:14:40Z</time></trkpt><trkpt lat="45.68724823675798" lon="13.81089348015643"><ele>314.0</ele><time>2026-05-02T18:14:41Z</time></trkpt><trkpt lat="45.68753543253306" lon="13.810684714513416"><ele>314.0</ele><time>2026-05-02T18:14:42Z</time></trkpt><trkpt lat="45.687814637183074" lon="13.810482167679178"><ele>313.5</ele><time>2026-05-02T18:14:43Z</time></trkpt><trkpt lat="45.6881003486241" lon="13.810285747735454"><ele>313.0</ele><time>2026-05-02T18:14:44Z</time></trkpt><trkpt lat="45.68839025692821" lon="13.810096720282965"><ele>311.0</ele><time>2026-05-02T18:14:45Z</time></trkpt><trkpt lat="45.68868182543601" lon="13.809908427606565"><ele>309.0</ele><time>2026-05-02T18:14:46Z</time></trkpt><trkpt lat="45.688976005046236" lon="13.80972481130462"><ele>309.0</ele><time>2026-05-02T18:14:47Z</time></trkpt><trkpt lat="45.68927332460318" lon="13.809539120110887"><ele>309.0</ele><time>2026-05-02T18:14:48Z</time></trkpt><trkpt lat="45.689577968560876" lon="13.809361718573056"><ele>308.0</ele><time>2026-05-02T18:14:49Z</time></trkpt><trkpt lat="45.68988254236738" lon="13.809187344166006"><ele>307.0</ele><time>2026-05-02T18:14:50Z</time></trkpt><trkpt lat="45.690188295577734" lon="13.80902395102364"><ele>305.0</ele><time>2026-05-02T18:14:51Z</time></trkpt><trkpt lat="45.690496456838005" lon="13.808861999654093"><ele>303.0</ele><time>2026-05-02T18:14:52Z</time></trkpt><trkpt lat="45.690794994048325" lon="13.808712882343501"><ele>304.0</ele><time>2026-05-02T18:14:53Z</time></trkpt><trkpt lat="45.6911035960919" lon="13.808556366362689"><ele>305.0</ele><time>2026-05-02T18:14:54Z</time></trkpt><trkpt lat="45.691415278777114" lon="13.808409168881578"><ele>306.5</ele><time>2026-05-02T18:14:55Z</time></trkpt><trkpt lat="45.69172489470233" lon="13.808268387681313"><ele>308.0</ele><time>2026-05-02T18:14:56Z</time></trkpt><trkpt lat="45.69203284540176" lon="13.808129952177543"><ele>309.5</ele><time>2026-05-02T18:14:57Z</time></trkpt><trkpt lat="45.692339851420115" lon="13.80799146934774"><ele>311.0</ele><time>2026-05-02T18:14:58Z</time></trkpt><trkpt lat="45.69264388018095" lon="13.80785507768513"><ele>310.5</ele><time>2026-05-02T18:14:59Z</time></trkpt><trkpt lat="45.692945367148944" lon="13.807726606382484"><ele>310.0</ele><time>2026-05-02T18:15:00Z</time></trkpt><trkpt lat="45.693246178042315" lon="13.807587886620187"><ele>309.0</ele><time>2026-05-02T18:15:01Z</time></trkpt><trkpt lat="45.69354169292624" lon="13.807452376246157"><ele>308.0</ele><time>2026-05-02T18:15:02Z</time></trkpt><trkpt lat="45.693835925779396" lon="13.807313515639565"><ele>308.0</ele><time>2026-05-02T18:15:03Z</time></trkpt><trkpt lat="45.69413474592232" lon="13.807166456175768"><ele>308.0</ele><time>2026-05-02T18:15:04Z</time></trkpt><trkpt lat="45.6944335135971" lon="13.807031321682114"><ele>306.5</ele><time>2026-05-02T18:15:05Z</time></trkpt><trkpt lat="45.69473282480992" lon="13.806897175705423"><ele>305.0</ele><time>2026-05-02T18:15:06Z</time></trkpt><trkpt lat="45.69502573168003" lon="13.806766604417286"><ele>296.5</ele><time>2026-05-02T18:15:07Z</time></trkpt><trkpt lat="45.69532299358731" lon="13.806633100472176"><ele>288.0</ele><time>2026-05-02T18:15:08Z</time></trkpt><trkpt lat="45.695611122722255" lon="13.806488374961168"><ele>288.0</ele><time>2026-05-02T18:15:09Z</time></trkpt><trkpt lat="45.695894681652646" lon="13.806328306531288"><ele>288.0</ele><time>2026-05-02T18:15:10Z</time></trkpt><trkpt lat="45.6961748363966" lon="13.80616261873199"><ele>292.5</ele><time>2026-05-02T18:15:11Z</time></trkpt><trkpt lat="45.696453403735354" lon="13.805987913433214"><ele>297.0</ele><time>2026-05-02T18:15:12Z</time></trkpt><trkpt lat="45.69673072246497" lon="13.805802294670647"><ele>299.5</ele><time>2026-05-02T18:15:13Z</time></trkpt><trkpt lat="45.69700929330345" lon="13.805607631998926"><ele>302.0</ele><time>2026-05-02T18:15:14Z</time></trkpt><trkpt lat="45.69728937685257" lon="13.80539890841451"><ele>302.0</ele><time>2026-05-02T18:15:15Z</time></trkpt><trkpt lat="45.69756420496778" lon="13.805179105467962"><ele>302.0</ele><time>2026-05-02T18:15:16Z</time></trkpt><trkpt lat="45.69784002433365" lon="13.80494498699805"><ele>303.5</ele><time>2026-05-02T18:15:17Z</time></trkpt><trkpt lat="45.698110593430556" lon="13.804694404537468"><ele>305.0</ele><time>2026-05-02T18:15:18Z</time></trkpt><trkpt lat="45.69838148316358" lon="13.804436988339157"><ele>306.0</ele><time>2026-05-02T18:15:19Z</time></trkpt><trkpt lat="45.69864322938625" lon="13.804166876471385"><ele>307.0</ele><time>2026-05-02T18:15:20Z</time></trkpt><trkpt lat="45.69890316835762" lon="13.803880202673032"><ele>307.0</ele><time>2026-05-02T18:15:21.014Z</time></trkpt><trkpt lat="45.69915415008388" lon="13.803586869976366"><ele>307.0</ele><time>2026-05-02T18:15:22.012Z</time></trkpt><trkpt lat="45.699400362587184" lon="13.803278948081605"><ele>308.0</ele><time>2026-05-02T18:15:23.012Z</time></trkpt><trkpt lat="45.699647516726586" lon="13.802957285490105"><ele>309.0</ele><time>2026-05-02T18:15:24.024Z</time></trkpt><trkpt lat="45.69988798775306" lon="13.802636334916007"><ele>306.0</ele><time>2026-05-02T18:15:25.02Z</time></trkpt><trkpt lat="45.70150666408772" lon="13.799699004752375"><ele>306.0</ele><time>2026-05-02T18:15:33Z</time></trkpt><trkpt lat="45.70167571934949" lon="13.799307447268038"><ele>306.0</ele><time>2026-05-02T18:15:34Z</time></trkpt><trkpt lat="45.701767608260575" lon="13.798862453222206"><ele>305.5</ele><time>2026-05-02T18:15:35Z</time></trkpt><trkpt lat="45.701908994260364" lon="13.798448274176522"><ele>305.0</ele><time>2026-05-02T18:15:36Z</time></trkpt><trkpt lat="45.70205635541527" lon="13.798042721603602"><ele>305.0</ele><time>2026-05-02T18:15:37Z</time></trkpt><trkpt lat="45.702167893171314" lon="13.797615847710262"><ele>305.0</ele><time>2026-05-02T18:15:38Z</time></trkpt><trkpt lat="45.702270794212914" lon="13.797185428395576"><ele>303.0</ele><time>2026-05-02T18:15:39Z</time></trkpt><trkpt lat="45.70239107967683" lon="13.796749700769128"><ele>301.0</ele><time>2026-05-02T18:15:40Z</time></trkpt><trkpt lat="45.70248772199033" lon="13.79630816800964"><ele>302.0</ele><time>2026-05-02T18:15:41Z</time></trkpt><trkpt lat="45.702579034205066" lon="13.795873523404165"><ele>303.0</ele><time>2026-05-02T18:15:42Z</time></trkpt><trkpt lat="45.702653584191076" lon="13.795426610755374"><ele>303.5</ele><time>2026-05-02T18:15:43Z</time></trkpt><trkpt lat="45.702728651656585" lon="13.794980689316269"><ele>304.0</ele><time>2026-05-02T18:15:44Z</time></trkpt><trkpt lat="45.702790436693256" lon="13.7945327663974"><ele>302.5</ele><time>2026-05-02T18:15:45Z</time></trkpt><trkpt lat="45.70284044537884" lon="13.794080966422657"><ele>301.0</ele><time>2026-05-02T18:15:46Z</time></trkpt><trkpt lat="45.70288842172" lon="13.793618991907309"><ele>300.0</ele><time>2026-05-02T18:15:47Z</time></trkpt><trkpt lat="45.70292474772258" lon="13.793171845671365"><ele>299.0</ele><time>2026-05-02T18:15:48Z</time></trkpt><trkpt lat="45.70294961724376" lon="13.792712990633591"><ele>298.5</ele><time>2026-05-02T18:15:49Z</time></trkpt><trkpt lat="45.70295545822869" lon="13.792262332693783"><ele>298.0</ele><time>2026-05-02T18:15:50Z</time></trkpt><trkpt lat="45.70296056294292" lon="13.791815083110238"><ele>297.5</ele><time>2026-05-02T18:15:51Z</time></trkpt><trkpt lat="45.70295396817604" lon="13.791372024427167"><ele>297.0</ele><time>2026-05-02T18:15:52Z</time></trkpt><trkpt lat="45.70294328213028" lon="13.790927473724432"><ele>296.5</ele><time>2026-05-02T18:15:53Z</time></trkpt><trkpt lat="45.702919589795165" lon="13.790485763480648"><ele>296.0</ele><time>2026-05-02T18:15:54Z</time></trkpt><trkpt lat="45.70288891395418" lon="13.79004613254093"><ele>295.5</ele><time>2026-05-02T18:15:55Z</time></trkpt><trkpt lat="45.70285382657259" lon="13.789609958539709"><ele>295.0</ele><time>2026-05-02T18:15:56Z</time></trkpt><trkpt lat="45.70281391431488" lon="13.789172007012132"><ele>295.0</ele><time>2026-05-02T18:15:57Z</time></trkpt><trkpt lat="45.70276910064857" lon="13.788726988257567"><ele>295.0</ele><time>2026-05-02T18:15:58Z</time></trkpt><trkpt lat="45.70271703591621" lon="13.788284922529892"><ele>297.5</ele><time>2026-05-02T18:15:59Z</time></trkpt><trkpt lat="45.70266170046183" lon="13.787835551852998"><ele>300.0</ele><time>2026-05-02T18:16:00Z</time></trkpt><trkpt lat="45.702596833775054" lon="13.787383867105483"><ele>300.0</ele><time>2026-05-02T18:16:01Z</time></trkpt><trkpt lat="45.70252885183516" lon="13.786933480118615"><ele>300.0</ele><time>2026-05-02T18:16:02Z</time></trkpt><trkpt lat="45.70245949440401" lon="13.786481109873755"><ele>299.0</ele><time>2026-05-02T18:16:03Z</time></trkpt><trkpt lat="45.702384972949396" lon="13.786028817934275"><ele>298.0</ele><time>2026-05-02T18:16:04Z</time></trkpt><trkpt lat="45.70231101312829" lon="13.785574383922508"><ele>297.0</ele><time>2026-05-02T18:16:05Z</time></trkpt><trkpt lat="45.7022293512687" lon="13.785118531047605"><ele>296.0</ele><time>2026-05-02T18:16:06Z</time></trkpt><trkpt lat="45.7021478088488" lon="13.784662967665"><ele>296.0</ele><time>2026-05-02T18:16:07Z</time></trkpt><trkpt lat="45.702064652339295" lon="13.784210739326866"><ele>296.0</ele><time>2026-05-02T18:16:08Z</time></trkpt><trkpt lat="45.70197913502054" lon="13.783763256540272"><ele>295.0</ele><time>2026-05-02T18:16:09Z</time></trkpt><trkpt lat="45.7018957484905" lon="13.783314950991903"><ele>294.0</ele><time>2026-05-02T18:16:10Z</time></trkpt><trkpt lat="45.70181338249599" lon="13.782859132474176"><ele>293.0</ele><time>2026-05-02T18:16:11Z</time></trkpt><trkpt lat="45.701733629214246" lon="13.782401364531163"><ele>292.0</ele><time>2026-05-02T18:16:12Z</time></trkpt><trkpt lat="45.70165214510307" lon="13.781952135128483"><ele>292.5</ele><time>2026-05-02T18:16:13Z</time></trkpt><trkpt lat="45.701566957141544" lon="13.78151873964775"><ele>293.0</ele><time>2026-05-02T18:16:14Z</time></trkpt><trkpt lat="45.701481783697915" lon="13.781088172621613"><ele>292.5</ele><time>2026-05-02T18:16:15Z</time></trkpt><trkpt lat="45.70140050248457" lon="13.78065233116895"><ele>292.0</ele><time>2026-05-02T18:16:16Z</time></trkpt><trkpt lat="45.7013176920157" lon="13.780222516461984"><ele>291.5</ele><time>2026-05-02T18:16:17Z</time></trkpt><trkpt lat="45.70123526004154" lon="13.779791037179336"><ele>291.0</ele><time>2026-05-02T18:16:18Z</time></trkpt><trkpt lat="45.70115395623114" lon="13.779364391425593"><ele>291.0</ele><time>2026-05-02T18:16:19Z</time></trkpt><trkpt lat="45.70107435485149" lon="13.778939528631268"><ele>291.0</ele><time>2026-05-02T18:16:20Z</time></trkpt><trkpt lat="45.70099228705794" lon="13.778502064196061"><ele>291.0</ele><time>2026-05-02T18:16:21Z</time></trkpt><trkpt lat="45.70091210217229" lon="13.778066891138808"><ele>291.0</ele><time>2026-05-02T18:16:22Z</time></trkpt><trkpt lat="45.70083503897656" lon="13.7776322520763"><ele>291.0</ele><time>2026-05-02T18:16:23Z</time></trkpt><trkpt lat="45.700762893992945" lon="13.77719614342618"><ele>291.0</ele><time>2026-05-02T18:16:24Z</time></trkpt><trkpt lat="45.700693472159045" lon="13.776754937013072"><ele>290.5</ele><time>2026-05-02T18:16:25Z</time></trkpt><trkpt lat="45.70062885246324" lon="13.776316383675804"><ele>290.0</ele><time>2026-05-02T18:16:26Z</time></trkpt><trkpt lat="45.70056676969994" lon="13.775882929583327"><ele>289.0</ele><time>2026-05-02T18:16:27Z</time></trkpt><trkpt lat="45.70050705652162" lon="13.775435257220375"><ele>288.0</ele><time>2026-05-02T18:16:28Z</time></trkpt><trkpt lat="45.700451838279264" lon="13.774995030187048"><ele>288.0</ele><time>2026-05-02T18:16:29Z</time></trkpt><trkpt lat="45.70040290851835" lon="13.774552004169754"><ele>288.0</ele><time>2026-05-02T18:16:30Z</time></trkpt><trkpt lat="45.70036121466733" lon="13.774115593711477"><ele>287.5</ele><time>2026-05-02T18:16:31Z</time></trkpt><trkpt lat="45.700323037909406" lon="13.773677988946629"><ele>287.0</ele><time>2026-05-02T18:16:32Z</time></trkpt><trkpt lat="45.700287055131575" lon="13.773246489917545"><ele>286.5</ele><time>2026-05-02T18:16:33Z</time></trkpt><trkpt lat="45.700257497743415" lon="13.77280792761645"><ele>286.0</ele><time>2026-05-02T18:16:34Z</time></trkpt><trkpt lat="45.70023266000104" lon="13.772363623625969"><ele>287.5</ele><time>2026-05-02T18:16:35Z</time></trkpt><trkpt lat="45.700214142024" lon="13.7719236884662"><ele>289.0</ele><time>2026-05-02T18:16:36Z</time></trkpt><trkpt lat="45.700196247455295" lon="13.77147833338501"><ele>289.5</ele><time>2026-05-02T18:16:37Z</time></trkpt><trkpt lat="45.70018245501964" lon="13.771030373653906"><ele>290.0</ele><time>2026-05-02T18:16:38Z</time></trkpt><trkpt lat="45.70017156492559" lon="13.770575277508602"><ele>289.5</ele><time>2026-05-02T18:16:39Z</time></trkpt><trkpt lat="45.70016811269007" lon="13.77011763252218"><ele>289.0</ele><time>2026-05-02T18:16:40Z</time></trkpt><trkpt lat="45.70016868531871" lon="13.769659779152754"><ele>288.5</ele><time>2026-05-02T18:16:41Z</time></trkpt><trkpt lat="45.700173034846" lon="13.769208647557596"><ele>288.0</ele><time>2026-05-02T18:16:42Z</time></trkpt><trkpt lat="45.70018023384478" lon="13.768762230771594"><ele>288.0</ele><time>2026-05-02T18:16:43Z</time></trkpt><trkpt lat="45.700192080455814" lon="13.768311273569394"><ele>288.0</ele><time>2026-05-02T18:16:44Z</time></trkpt><trkpt lat="45.70021094772394" lon="13.767857765995366"><ele>287.0</ele><time>2026-05-02T18:16:45Z</time></trkpt><trkpt lat="45.70023315537447" lon="13.767396179696075"><ele>286.0</ele><time>2026-05-02T18:16:46Z</time></trkpt><trkpt lat="45.700257694119585" lon="13.766937601481688"><ele>284.0</ele><time>2026-05-02T18:16:47Z</time></trkpt><trkpt lat="45.70029177026727" lon="13.766474006204385"><ele>282.0</ele><time>2026-05-02T18:16:48Z</time></trkpt><trkpt lat="45.700330779599724" lon="13.766018519871183"><ele>282.0</ele><time>2026-05-02T18:16:49Z</time></trkpt><trkpt lat="45.70037179519839" lon="13.765572944573703"><ele>282.0</ele><time>2026-05-02T18:16:50Z</time></trkpt><trkpt lat="45.70041608169175" lon="13.765122630354474"><ele>282.0</ele><time>2026-05-02T18:16:51Z</time></trkpt><trkpt lat="45.70046397310853" lon="13.764670856504921"><ele>282.0</ele><time>2026-05-02T18:16:52Z</time></trkpt><trkpt lat="45.70051568781907" lon="13.764226191246319"><ele>282.0</ele><time>2026-05-02T18:16:53Z</time></trkpt><trkpt lat="45.70057010652395" lon="13.763783933395702"><ele>282.0</ele><time>2026-05-02T18:16:54Z</time></trkpt><trkpt lat="45.70062721008383" lon="13.763331992602094"><ele>281.5</ele><time>2026-05-02T18:16:55Z</time></trkpt><trkpt lat="45.70068890272501" lon="13.76287837579393"><ele>281.0</ele><time>2026-05-02T18:16:56Z</time></trkpt><trkpt lat="45.70075529789563" lon="13.76242257832232"><ele>281.0</ele><time>2026-05-02T18:16:57Z</time></trkpt><trkpt lat="45.70083319076053" lon="13.761970067613179"><ele>281.0</ele><time>2026-05-02T18:16:58Z</time></trkpt><trkpt lat="45.700913127114426" lon="13.761520510232305"><ele>280.5</ele><time>2026-05-02T18:16:59Z</time></trkpt><trkpt lat="45.70100029835401" lon="13.761072107320905"><ele>280.0</ele><time>2026-05-02T18:17:00Z</time></trkpt><trkpt lat="45.70109527296418" lon="13.76062554113553"><ele>279.0</ele><time>2026-05-02T18:17:01Z</time></trkpt><trkpt lat="45.70119191880907" lon="13.760178643347071"><ele>278.0</ele><time>2026-05-02T18:17:02Z</time></trkpt><trkpt lat="45.70129011795952" lon="13.759722569585625"><ele>278.0</ele><time>2026-05-02T18:17:03Z</time></trkpt><trkpt lat="45.701396063978514" lon="13.759264575328682"><ele>278.0</ele><time>2026-05-02T18:17:04Z</time></trkpt><trkpt lat="45.70150281034264" lon="13.758816682890032"><ele>276.0</ele><time>2026-05-02T18:17:05Z</time></trkpt><trkpt lat="45.70160980293853" lon="13.758365260630093"><ele>274.0</ele><time>2026-05-02T18:17:06Z</time></trkpt><trkpt lat="45.70171993108233" lon="13.757913431179281"><ele>274.5</ele><time>2026-05-02T18:17:07Z</time></trkpt><trkpt lat="45.701825235604296" lon="13.757465669819375"><ele>275.0</ele><time>2026-05-02T18:17:08Z</time></trkpt><trkpt lat="45.70192760151811" lon="13.757012259614022"><ele>274.0</ele><time>2026-05-02T18:17:09Z</time></trkpt><trkpt lat="45.702031452400306" lon="13.75657023888517"><ele>273.0</ele><time>2026-05-02T18:17:10Z</time></trkpt><trkpt lat="45.70214031824615" lon="13.756130710710995"><ele>272.5</ele><time>2026-05-02T18:17:11Z</time></trkpt><trkpt lat="45.7022478576898" lon="13.755691517699178"><ele>272.0</ele><time>2026-05-02T18:17:12Z</time></trkpt><trkpt lat="45.7023574654733" lon="13.755253463523108"><ele>273.5</ele><time>2026-05-02T18:17:13Z</time></trkpt><trkpt lat="45.70246791770028" lon="13.75481315022292"><ele>275.0</ele><time>2026-05-02T18:17:14Z</time></trkpt><trkpt lat="45.702576359487836" lon="13.754357827047377"><ele>272.0</ele><time>2026-05-02T18:17:15Z</time></trkpt><trkpt lat="45.70268632739531" lon="13.753909628339434"><ele>269.0</ele><time>2026-05-02T18:17:16Z</time></trkpt><trkpt lat="45.70279701431968" lon="13.753462259532897"><ele>269.0</ele><time>2026-05-02T18:17:17Z</time></trkpt><trkpt lat="45.70290894338734" lon="13.753020488759553"><ele>269.0</ele><time>2026-05-02T18:17:18Z</time></trkpt><trkpt lat="45.70301749146679" lon="13.752577204945977"><ele>267.0</ele><time>2026-05-02T18:17:19Z</time></trkpt><trkpt lat="45.703133526121974" lon="13.752145583678827"><ele>265.0</ele><time>2026-05-02T18:17:20Z</time></trkpt><trkpt lat="45.70325965237119" lon="13.751721227938596"><ele>264.0</ele><time>2026-05-02T18:17:21Z</time></trkpt><trkpt lat="45.70339220351814" lon="13.751319525687917"><ele>263.0</ele><time>2026-05-02T18:17:22Z</time></trkpt><trkpt lat="45.70352446745116" lon="13.750939336404919"><ele>263.0</ele><time>2026-05-02T18:17:23Z</time></trkpt><trkpt lat="45.70366640276134" lon="13.750580192011805"><ele>263.0</ele><time>2026-05-02T18:17:24Z</time></trkpt><trkpt lat="45.703823947409475" lon="13.750229651685734"><ele>261.5</ele><time>2026-05-02T18:17:25Z</time></trkpt><trkpt lat="45.703991052258914" lon="13.749889042827547"><ele>260.0</ele><time>2026-05-02T18:17:26Z</time></trkpt><trkpt lat="45.70416557870535" lon="13.749549525748384"><ele>259.5</ele><time>2026-05-02T18:17:27Z</time></trkpt><trkpt lat="45.70434914362742" lon="13.749215504814368"><ele>259.0</ele><time>2026-05-02T18:17:28Z</time></trkpt><trkpt lat="45.70454639774422" lon="13.748890946438996"><ele>258.5</ele><time>2026-05-02T18:17:29Z</time></trkpt><trkpt lat="45.704762768244684" lon="13.748568646049742"><ele>258.0</ele><time>2026-05-02T18:17:30Z</time></trkpt><trkpt lat="45.704978620869845" lon="13.748250479642765"><ele>257.5</ele><time>2026-05-02T18:17:31Z</time></trkpt><trkpt lat="45.70521064985251" lon="13.747936752966842"><ele>257.0</ele><time>2026-05-02T18:17:32Z</time></trkpt><trkpt lat="45.70544946983243" lon="13.747633480009782"><ele>255.0</ele><time>2026-05-02T18:17:33Z</time></trkpt><trkpt lat="45.70568717049606" lon="13.747331907187895"><ele>253.0</ele><time>2026-05-02T18:17:34Z</time></trkpt><trkpt lat="45.70593361746668" lon="13.747029585213511"><ele>251.0</ele><time>2026-05-02T18:17:35Z</time></trkpt><trkpt lat="45.70618138395605" lon="13.74673165833892"><ele>249.0</ele><time>2026-05-02T18:17:36Z</time></trkpt><trkpt lat="45.70643089096496" lon="13.746443849528715"><ele>249.0</ele><time>2026-05-02T18:17:37Z</time></trkpt><trkpt lat="45.70668022424618" lon="13.746153184106431"><ele>249.0</ele><time>2026-05-02T18:17:38Z</time></trkpt><trkpt lat="45.7069273028733" lon="13.745861824565466"><ele>248.5</ele><time>2026-05-02T18:17:39Z</time></trkpt><trkpt lat="45.70717263948897" lon="13.74557151849228"><ele>248.0</ele><time>2026-05-02T18:17:40Z</time></trkpt><trkpt lat="45.70741529038076" lon="13.745271243252073"><ele>248.5</ele><time>2026-05-02T18:17:41Z</time></trkpt><trkpt lat="45.707661032580525" lon="13.744957546014986"><ele>249.0</ele><time>2026-05-02T18:17:42.015Z</time></trkpt><trkpt lat="45.7078994027752" lon="13.744639711118582"><ele>248.5</ele><time>2026-05-02T18:17:43.014Z</time></trkpt><trkpt lat="45.7081321184793" lon="13.744310844509611"><ele>248.0</ele><time>2026-05-02T18:17:44.012Z</time></trkpt><trkpt lat="45.708367458298845" lon="13.743979250246479"><ele>244.0</ele><time>2026-05-02T18:17:45.014Z</time></trkpt><trkpt lat="45.713274353226375" lon="13.73712390662519"><ele>243.0</ele><time>2026-05-02T18:18:05Z</time></trkpt><trkpt lat="45.71351584247526" lon="13.736779187495447"><ele>242.0</ele><time>2026-05-02T18:18:06Z</time></trkpt><trkpt lat="45.71367748146136" lon="13.736339691952503"><ele>240.5</ele><time>2026-05-02T18:18:07Z</time></trkpt><trkpt lat="45.71389616139762" lon="13.73599426511121"><ele>239.0</ele><time>2026-05-02T18:18:08Z</time></trkpt><trkpt lat="45.714139509145504" lon="13.735653125349149"><ele>239.0</ele><time>2026-05-02T18:18:09Z</time></trkpt><trkpt lat="45.71437219126567" lon="13.735315578215745"><ele>239.0</ele><time>2026-05-02T18:18:10Z</time></trkpt><trkpt lat="45.714611441526394" lon="13.734974149040475"><ele>238.0</ele><time>2026-05-02T18:18:11Z</time></trkpt><trkpt lat="45.71484432506943" lon="13.734622263877034"><ele>237.0</ele><time>2026-05-02T18:18:12Z</time></trkpt><trkpt lat="45.715088633822255" lon="13.73428333895876"><ele>236.5</ele><time>2026-05-02T18:18:13Z</time></trkpt><trkpt lat="45.71532998946757" lon="13.73395085310751"><ele>236.0</ele><time>2026-05-02T18:18:14Z</time></trkpt><trkpt lat="45.71557045083257" lon="13.73360634676317"><ele>235.0</ele><time>2026-05-02T18:18:15Z</time></trkpt><trkpt lat="45.71580865152714" lon="13.733264045583416"><ele>234.0</ele><time>2026-05-02T18:18:16Z</time></trkpt><trkpt lat="45.71605669800133" lon="13.73292040710474"><ele>233.0</ele><time>2026-05-02T18:18:17Z</time></trkpt><trkpt lat="45.716293930909735" lon="13.732571022132788"><ele>232.0</ele><time>2026-05-02T18:18:18Z</time></trkpt><trkpt lat="45.71653885464517" lon="13.732222727004181"><ele>231.5</ele><time>2026-05-02T18:18:19Z</time></trkpt><trkpt lat="45.71677669701078" lon="13.731875034146919"><ele>231.0</ele><time>2026-05-02T18:18:20Z</time></trkpt><trkpt lat="45.71701199135059" lon="13.73152616432765"><ele>231.0</ele><time>2026-05-02T18:18:21Z</time></trkpt><trkpt lat="45.717254401476644" lon="13.731177368655331"><ele>231.0</ele><time>2026-05-02T18:18:22Z</time></trkpt><trkpt lat="45.71749647393014" lon="13.730826756755134"><ele>230.5</ele><time>2026-05-02T18:18:23Z</time></trkpt><trkpt lat="45.71773476333411" lon="13.730478459749621"><ele>230.0</ele><time>2026-05-02T18:18:24Z</time></trkpt><trkpt lat="45.71796923705107" lon="13.73012776946614"><ele>230.0</ele><time>2026-05-02T18:18:25Z</time></trkpt><trkpt lat="45.71820163142448" lon="13.729771526652684"><ele>230.0</ele><time>2026-05-02T18:18:26Z</time></trkpt><trkpt lat="45.718437613300985" lon="13.729420613397268"><ele>230.0</ele><time>2026-05-02T18:18:27Z</time></trkpt><trkpt lat="45.718669561788836" lon="13.729070188966544"><ele>230.0</ele><time>2026-05-02T18:18:28Z</time></trkpt><trkpt lat="45.71890131421266" lon="13.728713324144948"><ele>230.5</ele><time>2026-05-02T18:18:29Z</time></trkpt><trkpt lat="45.71913728342479" lon="13.728359460327377"><ele>231.0</ele><time>2026-05-02T18:18:30Z</time></trkpt><trkpt lat="45.71936194581403" lon="13.727994250877007"><ele>230.0</ele><time>2026-05-02T18:18:31Z</time></trkpt><trkpt lat="45.719589339512126" lon="13.727630984565648"><ele>229.0</ele><time>2026-05-02T18:18:32Z</time></trkpt><trkpt lat="45.71981511853999" lon="13.727276017053827"><ele>229.0</ele><time>2026-05-02T18:18:33Z</time></trkpt><trkpt lat="45.720040677653486" lon="13.726919314742148"><ele>229.0</ele><time>2026-05-02T18:18:34Z</time></trkpt><trkpt lat="45.72027139639001" lon="13.726562867697186"><ele>230.5</ele><time>2026-05-02T18:18:35Z</time></trkpt><trkpt lat="45.72050066353018" lon="13.726208673780052"><ele>232.0</ele><time>2026-05-02T18:18:36Z</time></trkpt><trkpt lat="45.720736076352395" lon="13.725847875923805"><ele>232.0</ele><time>2026-05-02T18:18:37Z</time></trkpt><trkpt lat="45.720967529187526" lon="13.725487334261091"><ele>232.0</ele><time>2026-05-02T18:18:38Z</time></trkpt><trkpt lat="45.721190288421475" lon="13.725132360836346"><ele>232.0</ele><time>2026-05-02T18:18:39Z</time></trkpt><trkpt lat="45.72141988941322" lon="13.724775147945495"><ele>232.0</ele><time>2026-05-02T18:18:40Z</time></trkpt><trkpt lat="45.721653066395184" lon="13.724416559836877"><ele>232.5</ele><time>2026-05-02T18:18:41Z</time></trkpt><trkpt lat="45.72188432540993" lon="13.724056531293417"><ele>233.0</ele><time>2026-05-02T18:18:42Z</time></trkpt><trkpt lat="45.72211182703834" lon="13.723699615202896"><ele>233.5</ele><time>2026-05-02T18:18:43Z</time></trkpt><trkpt lat="45.72234126685648" lon="13.723343849244005"><ele>234.0</ele><time>2026-05-02T18:18:44Z</time></trkpt><trkpt lat="45.722574341082634" lon="13.72298845345442"><ele>233.0</ele><time>2026-05-02T18:18:45Z</time></trkpt><trkpt lat="45.722801505218335" lon="13.722627431537296"><ele>232.0</ele><time>2026-05-02T18:18:46Z</time></trkpt><trkpt lat="45.72303498135187" lon="13.722261249378127"><ele>232.0</ele><time>2026-05-02T18:18:47Z</time></trkpt><trkpt lat="45.72326973926627" lon="13.721911828537799"><ele>232.0</ele><time>2026-05-02T18:18:48Z</time></trkpt><trkpt lat="45.72349688416924" lon="13.72155417376366"><ele>232.0</ele><time>2026-05-02T18:18:49Z</time></trkpt><trkpt lat="45.72373195543922" lon="13.721195398013547"><ele>232.0</ele><time>2026-05-02T18:18:50Z</time></trkpt><trkpt lat="45.72396547927935" lon="13.720840119992847"><ele>231.0</ele><time>2026-05-02T18:18:51Z</time></trkpt><trkpt lat="45.72419910018249" lon="13.720475041746234"><ele>230.0</ele><time>2026-05-02T18:18:52Z</time></trkpt><trkpt lat="45.724432961456046" lon="13.720116111783897"><ele>229.5</ele><time>2026-05-02T18:18:53Z</time></trkpt><trkpt lat="45.72465963118841" lon="13.719754504993592"><ele>229.0</ele><time>2026-05-02T18:18:54Z</time></trkpt><trkpt lat="45.72489503511264" lon="13.719395554853834"><ele>229.0</ele><time>2026-05-02T18:18:55Z</time></trkpt><trkpt lat="45.72512993636102" lon="13.719034901394622"><ele>229.0</ele><time>2026-05-02T18:18:56Z</time></trkpt><trkpt lat="45.72536219605767" lon="13.718677235482188"><ele>226.5</ele><time>2026-05-02T18:18:57Z</time></trkpt><trkpt lat="45.725591941285124" lon="13.718312534728662"><ele>224.0</ele><time>2026-05-02T18:18:58Z</time></trkpt><trkpt lat="45.72581802655332" lon="13.717950148969047"><ele>223.0</ele><time>2026-05-02T18:18:59Z</time></trkpt><trkpt lat="45.72604744082344" lon="13.717585838439911"><ele>222.0</ele><time>2026-05-02T18:19:00Z</time></trkpt><trkpt lat="45.72627542721767" lon="13.717223879763655"><ele>220.5</ele><time>2026-05-02T18:19:01Z</time></trkpt><trkpt lat="45.72650215590378" lon="13.716859721019254"><ele>219.0</ele><time>2026-05-02T18:19:02Z</time></trkpt><trkpt lat="45.72673655015995" lon="13.716503245012223"><ele>217.0</ele><time>2026-05-02T18:19:03Z</time></trkpt><trkpt lat="45.72696552188836" lon="13.716145565841094"><ele>215.0</ele><time>2026-05-02T18:19:04Z</time></trkpt><trkpt lat="45.727192067352355" lon="13.715777208074872"><ele>215.0</ele><time>2026-05-02T18:19:05Z</time></trkpt><trkpt lat="45.727419694678154" lon="13.715410621890312"><ele>215.0</ele><time>2026-05-02T18:19:06Z</time></trkpt><trkpt lat="45.72765241588962" lon="13.715054213536947"><ele>213.5</ele><time>2026-05-02T18:19:07Z</time></trkpt><trkpt lat="45.72788017986839" lon="13.714691803195333"><ele>212.0</ele><time>2026-05-02T18:19:08Z</time></trkpt><trkpt lat="45.72811078650538" lon="13.714328928315519"><ele>212.0</ele><time>2026-05-02T18:19:09Z</time></trkpt><trkpt lat="45.728341004867275" lon="13.713971555561203"><ele>212.0</ele><time>2026-05-02T18:19:10Z</time></trkpt><trkpt lat="45.728566919570994" lon="13.71361371437515"><ele>210.5</ele><time>2026-05-02T18:19:11Z</time></trkpt><trkpt lat="45.72879905435042" lon="13.713253924086915"><ele>209.0</ele><time>2026-05-02T18:19:12Z</time></trkpt><trkpt lat="45.72902808469884" lon="13.712892185798372"><ele>209.0</ele><time>2026-05-02T18:19:13Z</time></trkpt><trkpt lat="45.72926133018548" lon="13.71253947667517"><ele>209.0</ele><time>2026-05-02T18:19:14Z</time></trkpt><trkpt lat="45.729493897633134" lon="13.712182730161647"><ele>208.5</ele><time>2026-05-02T18:19:15Z</time></trkpt><trkpt lat="45.729725561643896" lon="13.71182624444659"><ele>208.0</ele><time>2026-05-02T18:19:16Z</time></trkpt><trkpt lat="45.72995824903579" lon="13.711467704994101"><ele>208.0</ele><time>2026-05-02T18:19:17Z</time></trkpt><trkpt lat="45.7301877688058" lon="13.7111126634962"><ele>208.0</ele><time>2026-05-02T18:19:18Z</time></trkpt><trkpt lat="45.730417923306405" lon="13.710758214915366"><ele>208.0</ele><time>2026-05-02T18:19:19Z</time></trkpt><trkpt lat="45.73064733088372" lon="13.710396844877746"><ele>208.0</ele><time>2026-05-02T18:19:20Z</time></trkpt><trkpt lat="45.730885067850465" lon="13.710039756250731"><ele>208.0</ele><time>2026-05-02T18:19:21Z</time></trkpt><trkpt lat="45.73111501432924" lon="13.709683423267984"><ele>208.0</ele><time>2026-05-02T18:19:22Z</time></trkpt><trkpt lat="45.73134491329767" lon="13.709327401598308"><ele>207.5</ele><time>2026-05-02T18:19:23Z</time></trkpt><trkpt lat="45.731577273416164" lon="13.708966622424585"><ele>207.0</ele><time>2026-05-02T18:19:24Z</time></trkpt><trkpt lat="45.73180630826356" lon="13.708610125177517"><ele>207.0</ele><time>2026-05-02T18:19:25Z</time></trkpt><trkpt lat="45.73203483894241" lon="13.708251614379346"><ele>207.0</ele><time>2026-05-02T18:19:26Z</time></trkpt><trkpt lat="45.732264723420194" lon="13.707888571111745"><ele>206.5</ele><time>2026-05-02T18:19:27Z</time></trkpt><trkpt lat="45.73249306059228" lon="13.707526371034659"><ele>206.0</ele><time>2026-05-02T18:19:28Z</time></trkpt><trkpt lat="45.732718866867415" lon="13.707163109322263"><ele>205.5</ele><time>2026-05-02T18:19:29Z</time></trkpt><trkpt lat="45.73295036791262" lon="13.706801527536836"><ele>205.0</ele><time>2026-05-02T18:19:30Z</time></trkpt><trkpt lat="45.73318014878217" lon="13.70644039767793"><ele>205.0</ele><time>2026-05-02T18:19:31Z</time></trkpt><trkpt lat="45.733410371588526" lon="13.706083499508594"><ele>205.0</ele><time>2026-05-02T18:19:32Z</time></trkpt><trkpt lat="45.73364006675643" lon="13.705724964441515"><ele>204.0</ele><time>2026-05-02T18:19:33Z</time></trkpt><trkpt lat="45.73386740750605" lon="13.705363456010653"><ele>203.0</ele><time>2026-05-02T18:19:34Z</time></trkpt><trkpt lat="45.73410428770005" lon="13.705004720690448"><ele>202.5</ele><time>2026-05-02T18:19:35Z</time></trkpt><trkpt lat="45.73434064461736" lon="13.704640107651048"><ele>202.0</ele><time>2026-05-02T18:19:36Z</time></trkpt><trkpt lat="45.734569854960775" lon="13.70427791907486"><ele>201.0</ele><time>2026-05-02T18:19:37Z</time></trkpt><trkpt lat="45.734795376764126" lon="13.703919707662443"><ele>200.0</ele><time>2026-05-02T18:19:38Z</time></trkpt><trkpt lat="45.73502441407161" lon="13.70355596831395"><ele>200.0</ele><time>2026-05-02T18:19:39Z</time></trkpt><trkpt lat="45.7352589059935" lon="13.70319076003926"><ele>200.0</ele><time>2026-05-02T18:19:40Z</time></trkpt><trkpt lat="45.73548179204632" lon="13.702841090122575"><ele>199.5</ele><time>2026-05-02T18:19:41Z</time></trkpt><trkpt lat="45.73570216318895" lon="13.702493383103947"><ele>199.0</ele><time>2026-05-02T18:19:42Z</time></trkpt><trkpt lat="45.735930596162824" lon="13.702142025917963"><ele>196.5</ele><time>2026-05-02T18:19:43Z</time></trkpt><trkpt lat="45.73614988730521" lon="13.701800855524608"><ele>194.0</ele><time>2026-05-02T18:19:44Z</time></trkpt><trkpt lat="45.736365247680425" lon="13.701461679418477"><ele>194.0</ele><time>2026-05-02T18:19:45Z</time></trkpt><trkpt lat="45.73658764336104" lon="13.701120397265184"><ele>194.0</ele><time>2026-05-02T18:19:46Z</time></trkpt><trkpt lat="45.73680462233436" lon="13.700783282529626"><ele>192.5</ele><time>2026-05-02T18:19:47Z</time></trkpt><trkpt lat="45.73701620435717" lon="13.700449417507985"><ele>191.0</ele><time>2026-05-02T18:19:48Z</time></trkpt><trkpt lat="45.73723769156736" lon="13.700114211834423"><ele>191.0</ele><time>2026-05-02T18:19:49Z</time></trkpt><trkpt lat="45.73744820047888" lon="13.699777615754874"><ele>191.0</ele><time>2026-05-02T18:19:50Z</time></trkpt><trkpt lat="45.737657800647035" lon="13.699442836428457"><ele>189.0</ele><time>2026-05-02T18:19:51Z</time></trkpt><trkpt lat="45.73787316223873" lon="13.699110032821048"><ele>187.0</ele><time>2026-05-02T18:19:52Z</time></trkpt><trkpt lat="45.738088930521336" lon="13.698780429029648"><ele>186.0</ele><time>2026-05-02T18:19:53Z</time></trkpt><trkpt lat="45.73829965138631" lon="13.6984505493555"><ele>185.0</ele><time>2026-05-02T18:19:54Z</time></trkpt><trkpt lat="45.738510418290595" lon="13.69812031754652"><ele>184.0</ele><time>2026-05-02T18:19:55Z</time></trkpt><trkpt lat="45.73872141376434" lon="13.697784700173406"><ele>183.0</ele><time>2026-05-02T18:19:56Z</time></trkpt><trkpt lat="45.73893997635613" lon="13.697459301626811"><ele>183.0</ele><time>2026-05-02T18:19:57Z</time></trkpt><trkpt lat="45.739155411100235" lon="13.697126870156886"><ele>183.0</ele><time>2026-05-02T18:19:58Z</time></trkpt><trkpt lat="45.73936782431601" lon="13.696793314974878"><ele>180.5</ele><time>2026-05-02T18:19:59Z</time></trkpt><trkpt lat="45.73957423076492" lon="13.696465875429148"><ele>178.0</ele><time>2026-05-02T18:20:00Z</time></trkpt><trkpt lat="45.73978039600717" lon="13.696143691676854"><ele>178.0</ele><time>2026-05-02T18:20:01Z</time></trkpt><trkpt lat="45.73998389467872" lon="13.695828956869999"><ele>178.0</ele><time>2026-05-02T18:20:02Z</time></trkpt><trkpt lat="45.74018884308579" lon="13.69551135018701"><ele>178.5</ele><time>2026-05-02T18:20:03Z</time></trkpt><trkpt lat="45.74039020242984" lon="13.695196614427617"><ele>179.0</ele><time>2026-05-02T18:20:04Z</time></trkpt><trkpt lat="45.740594894802285" lon="13.694880003630796"><ele>179.0</ele><time>2026-05-02T18:20:05Z</time></trkpt><trkpt lat="45.74079722897101" lon="13.694560106455722"><ele>179.0</ele><time>2026-05-02T18:20:06Z</time></trkpt><trkpt lat="45.741001457784954" lon="13.694242060531177"><ele>178.0</ele><time>2026-05-02T18:20:07Z</time></trkpt><trkpt lat="45.74120751385348" lon="13.693915813076964"><ele>177.0</ele><time>2026-05-02T18:20:08Z</time></trkpt><trkpt lat="45.74141156167109" lon="13.693587111635107"><ele>176.0</ele><time>2026-05-02T18:20:09Z</time></trkpt><trkpt lat="45.74162053972831" lon="13.693256612384175"><ele>175.0</ele><time>2026-05-02T18:20:10Z</time></trkpt><trkpt lat="45.741843234564165" lon="13.692919351424793"><ele>173.5</ele><time>2026-05-02T18:20:11Z</time></trkpt><trkpt lat="45.742062832158055" lon="13.692581288754038"><ele>172.0</ele><time>2026-05-02T18:20:12Z</time></trkpt><trkpt lat="45.74228020673481" lon="13.692240765531198"><ele>171.0</ele><time>2026-05-02T18:20:13Z</time></trkpt><trkpt lat="45.74249739209739" lon="13.691903715438565"><ele>170.0</ele><time>2026-05-02T18:20:14Z</time></trkpt><trkpt lat="45.742714305169805" lon="13.691564083395821"><ele>170.0</ele><time>2026-05-02T18:20:15Z</time></trkpt><trkpt lat="45.742929177070955" lon="13.691219375070155"><ele>170.0</ele><time>2026-05-02T18:20:16Z</time></trkpt><trkpt lat="45.74314388684713" lon="13.690868189502378"><ele>169.0</ele><time>2026-05-02T18:20:17Z</time></trkpt><trkpt lat="45.74335668847997" lon="13.690517696888541"><ele>168.0</ele><time>2026-05-02T18:20:18Z</time></trkpt><trkpt lat="45.74356802207933" lon="13.69015563717041"><ele>165.0</ele><time>2026-05-02T18:20:19Z</time></trkpt><trkpt lat="45.74377917475509" lon="13.68979049177986"><ele>162.0</ele><time>2026-05-02T18:20:20Z</time></trkpt><trkpt lat="45.743996683178615" lon="13.689413443658752"><ele>162.0</ele><time>2026-05-02T18:20:21Z</time></trkpt><trkpt lat="45.744212367580474" lon="13.689038260505033"><ele>162.0</ele><time>2026-05-02T18:20:22Z</time></trkpt><trkpt lat="45.74443682778706" lon="13.68866205885015"><ele>161.5</ele><time>2026-05-02T18:20:23Z</time></trkpt><trkpt lat="45.744652970794746" lon="13.688286804289643"><ele>161.0</ele><time>2026-05-02T18:20:24Z</time></trkpt><trkpt lat="45.74486601636337" lon="13.687910385710305"><ele>161.0</ele><time>2026-05-02T18:20:25Z</time></trkpt><trkpt lat="45.74508325297343" lon="13.687532869549527"><ele>161.0</ele><time>2026-05-02T18:20:26Z</time></trkpt><trkpt lat="45.74529941463851" lon="13.687155463326778"><ele>158.5</ele><time>2026-05-02T18:20:27Z</time></trkpt><trkpt lat="45.74551733926824" lon="13.686780441095685"><ele>156.0</ele><time>2026-05-02T18:20:28Z</time></trkpt><trkpt lat="45.74573197399141" lon="13.686406962773777"><ele>156.0</ele><time>2026-05-02T18:20:29Z</time></trkpt><trkpt lat="45.74595202386548" lon="13.686029979684026"><ele>156.0</ele><time>2026-05-02T18:20:30Z</time></trkpt><trkpt lat="45.7461679723402" lon="13.685656606067019"><ele>156.0</ele><time>2026-05-02T18:20:31Z</time></trkpt><trkpt lat="45.74639028694424" lon="13.685282735884511"><ele>156.0</ele><time>2026-05-02T18:20:32Z</time></trkpt><trkpt lat="45.74660854753104" lon="13.684906849119137"><ele>155.5</ele><time>2026-05-02T18:20:33Z</time></trkpt><trkpt lat="45.746826645644376" lon="13.684530480254622"><ele>155.0</ele><time>2026-05-02T18:20:34Z</time></trkpt><trkpt lat="45.74704650606151" lon="13.68415037551929"><ele>153.5</ele><time>2026-05-02T18:20:35Z</time></trkpt><trkpt lat="45.74726566720456" lon="13.683776856655115"><ele>152.0</ele><time>2026-05-02T18:20:36Z</time></trkpt><trkpt lat="45.747483326851516" lon="13.683403402330754"><ele>152.0</ele><time>2026-05-02T18:20:37Z</time></trkpt><trkpt lat="45.74770268213286" lon="13.683029188736057"><ele>152.0</ele><time>2026-05-02T18:20:38Z</time></trkpt><trkpt lat="45.747920193928906" lon="13.682656362911573"><ele>150.5</ele><time>2026-05-02T18:20:39Z</time></trkpt><trkpt lat="45.74813698956248" lon="13.682283372104484"><ele>149.0</ele><time>2026-05-02T18:20:40Z</time></trkpt><trkpt lat="45.74836538789261" lon="13.681904314773119"><ele>147.0</ele><time>2026-05-02T18:20:41Z</time></trkpt><trkpt lat="45.74857961099843" lon="13.681528756900693"><ele>145.0</ele><time>2026-05-02T18:20:42Z</time></trkpt><trkpt lat="45.748794964264846" lon="13.681148106783642"><ele>144.0</ele><time>2026-05-02T18:20:43Z</time></trkpt><trkpt lat="45.74901424926222" lon="13.680774378500576"><ele>143.0</ele><time>2026-05-02T18:20:44Z</time></trkpt><trkpt lat="45.7492318530406" lon="13.680401941108723"><ele>141.0</ele><time>2026-05-02T18:20:45Z</time></trkpt><trkpt lat="45.74945227064325" lon="13.680027520584918"><ele>139.0</ele><time>2026-05-02T18:20:46Z</time></trkpt><trkpt lat="45.74967998323686" lon="13.67966300673316"><ele>137.5</ele><time>2026-05-02T18:20:47Z</time></trkpt><trkpt lat="45.74991143673511" lon="13.679305903607634"><ele>136.0</ele><time>2026-05-02T18:20:48Z</time></trkpt><trkpt lat="45.75014636646923" lon="13.67895769577281"><ele>134.0</ele><time>2026-05-02T18:20:49Z</time></trkpt><trkpt lat="45.750394287654665" lon="13.678614918519973"><ele>132.0</ele><time>2026-05-02T18:20:50Z</time></trkpt><trkpt lat="45.7506418086767" lon="13.678285396646148"><ele>132.0</ele><time>2026-05-02T18:20:51Z</time></trkpt><trkpt lat="45.750898640752155" lon="13.677963663928539"><ele>132.0</ele><time>2026-05-02T18:20:52Z</time></trkpt><trkpt lat="45.751156358945536" lon="13.677650292094867"><ele>131.5</ele><time>2026-05-02T18:20:53Z</time></trkpt><trkpt lat="45.75141752985098" lon="13.677339629307644"><ele>131.0</ele><time>2026-05-02T18:20:54Z</time></trkpt><trkpt lat="45.75168849180949" lon="13.677044952130277"><ele>129.5</ele><time>2026-05-02T18:20:55Z</time></trkpt><trkpt lat="45.75196010834326" lon="13.67675625946174"><ele>128.0</ele><time>2026-05-02T18:20:56Z</time></trkpt><trkpt lat="45.75224724020975" lon="13.676482068101974"><ele>128.0</ele><time>2026-05-02T18:20:57Z</time></trkpt><trkpt lat="45.75252961223332" lon="13.67621994144653"><ele>128.0</ele><time>2026-05-02T18:20:58Z</time></trkpt><trkpt lat="45.752816593760485" lon="13.675962638663197"><ele>128.5</ele><time>2026-05-02T18:20:59Z</time></trkpt><trkpt lat="45.75310529532135" lon="13.67571292802994"><ele>129.0</ele><time>2026-05-02T18:21:00Z</time></trkpt><trkpt lat="45.753395247702464" lon="13.675475903501642"><ele>131.0</ele><time>2026-05-02T18:21:01Z</time></trkpt><trkpt lat="45.753695143785635" lon="13.675244481099202"><ele>133.0</ele><time>2026-05-02T18:21:02Z</time></trkpt><trkpt lat="45.753994014608026" lon="13.675024052897221"><ele>133.0</ele><time>2026-05-02T18:21:03Z</time></trkpt><trkpt lat="45.75429683305698" lon="13.674806404288452"><ele>133.0</ele><time>2026-05-02T18:21:04Z</time></trkpt><trkpt lat="45.75459918560646" lon="13.67458989950556"><ele>135.5</ele><time>2026-05-02T18:21:05Z</time></trkpt><trkpt lat="45.75490563261846" lon="13.674368440896242"><ele>138.0</ele><time>2026-05-02T18:21:06Z</time></trkpt><trkpt lat="45.75520494789027" lon="13.674151701717445"><ele>140.5</ele><time>2026-05-02T18:21:07Z</time></trkpt><trkpt lat="45.75549489896959" lon="13.673943056425896"><ele>143.0</ele><time>2026-05-02T18:21:08Z</time></trkpt><trkpt lat="45.75578548158275" lon="13.673735972269894"><ele>140.0</ele><time>2026-05-02T18:21:09Z</time></trkpt><trkpt lat="45.75608382827028" lon="13.673524502961172"><ele>137.0</ele><time>2026-05-02T18:21:10Z</time></trkpt><trkpt lat="45.75637038945921" lon="13.67331299257886"><ele>137.0</ele><time>2026-05-02T18:21:11Z</time></trkpt><trkpt lat="45.756652439357204" lon="13.673102380828396"><ele>137.0</ele><time>2026-05-02T18:21:12Z</time></trkpt><trkpt lat="45.756934217857605" lon="13.672895100652067"><ele>134.5</ele><time>2026-05-02T18:21:13Z</time></trkpt><trkpt lat="45.7572157157601" lon="13.672694832515198"><ele>132.0</ele><time>2026-05-02T18:21:14Z</time></trkpt><trkpt lat="45.75749509779271" lon="13.67249595598187"><ele>132.0</ele><time>2026-05-02T18:21:15Z</time></trkpt><trkpt lat="45.75777267458217" lon="13.672292082868807"><ele>132.0</ele><time>2026-05-02T18:21:16Z</time></trkpt><trkpt lat="45.75804425054295" lon="13.672084448241527"><ele>131.5</ele><time>2026-05-02T18:21:17Z</time></trkpt><trkpt lat="45.75831048824973" lon="13.671857246671053"><ele>131.0</ele><time>2026-05-02T18:21:18Z</time></trkpt><trkpt lat="45.75857194539544" lon="13.6716084401131"><ele>131.0</ele><time>2026-05-02T18:21:19Z</time></trkpt><trkpt lat="45.75881094243337" lon="13.671334181224742"><ele>131.0</ele><time>2026-05-02T18:21:20Z</time></trkpt><trkpt lat="45.75903905537201" lon="13.671039681093049"><ele>127.5</ele><time>2026-05-02T18:21:21Z</time></trkpt><trkpt lat="45.75926021338223" lon="13.670736967055989"><ele>124.0</ele><time>2026-05-02T18:21:22Z</time></trkpt><trkpt lat="45.759468576186734" lon="13.67040583903836"><ele>122.0</ele><time>2026-05-02T18:21:23Z</time></trkpt><trkpt lat="45.7596627273578" lon="13.670059221146582"><ele>120.0</ele><time>2026-05-02T18:21:24Z</time></trkpt><trkpt lat="45.75983792429879" lon="13.669700153974802"><ele>119.0</ele><time>2026-05-02T18:21:25Z</time></trkpt><trkpt lat="45.75999687047515" lon="13.66932958059101"><ele>118.0</ele><time>2026-05-02T18:21:26Z</time></trkpt><trkpt lat="45.76015223362129" lon="13.66893879955543"><ele>112.5</ele><time>2026-05-02T18:21:27Z</time></trkpt><trkpt lat="45.76029983863534" lon="13.668534840512716"><ele>107.0</ele><time>2026-05-02T18:21:28Z</time></trkpt><trkpt lat="45.760443030327565" lon="13.668117194255373"><ele>109.0</ele><time>2026-05-02T18:21:29Z</time></trkpt><trkpt lat="45.760589715983336" lon="13.667695217912108"><ele>111.0</ele><time>2026-05-02T18:21:30Z</time></trkpt><trkpt lat="45.7607383115525" lon="13.667270547001397"><ele>113.5</ele><time>2026-05-02T18:21:31Z</time></trkpt><trkpt lat="45.7608828308735" lon="13.66684627709523"><ele>116.0</ele><time>2026-05-02T18:21:32Z</time></trkpt><trkpt lat="45.76102588747423" lon="13.666420046144278"><ele>118.0</ele><time>2026-05-02T18:21:33Z</time></trkpt><trkpt lat="45.76116952761915" lon="13.665995490113044"><ele>120.0</ele><time>2026-05-02T18:21:34Z</time></trkpt><trkpt lat="45.761312240737894" lon="13.665572814325195"><ele>120.0</ele><time>2026-05-02T18:21:35Z</time></trkpt><trkpt lat="45.76145745259841" lon="13.665148330880317"><ele>120.0</ele><time>2026-05-02T18:21:36Z</time></trkpt><trkpt lat="45.76159961756363" lon="13.664725653747304"><ele>121.0</ele><time>2026-05-02T18:21:37Z</time></trkpt><trkpt lat="45.761744639675754" lon="13.664304592826088"><ele>122.0</ele><time>2026-05-02T18:21:38Z</time></trkpt><trkpt lat="45.7618853744829" lon="13.663884012010099"><ele>124.0</ele><time>2026-05-02T18:21:39Z</time></trkpt><trkpt lat="45.76202476091419" lon="13.663467526225045"><ele>126.0</ele><time>2026-05-02T18:21:40Z</time></trkpt><trkpt lat="45.76216491618546" lon="13.663056048997223"><ele>124.5</ele><time>2026-05-02T18:21:41Z</time></trkpt><trkpt lat="45.762302227892775" lon="13.662651340595993"><ele>123.0</ele><time>2026-05-02T18:21:42Z</time></trkpt><trkpt lat="45.76244207249776" lon="13.662241531137019"><ele>123.5</ele><time>2026-05-02T18:21:43Z</time></trkpt><trkpt lat="45.76258037209655" lon="13.661837710414911"><ele>124.0</ele><time>2026-05-02T18:21:44Z</time></trkpt><trkpt lat="45.76272414541629" lon="13.661425045450962"><ele>125.5</ele><time>2026-05-02T18:21:45Z</time></trkpt><trkpt lat="45.76285972589119" lon="13.661007469389737"><ele>127.0</ele><time>2026-05-02T18:21:46Z</time></trkpt><trkpt lat="45.76299358552589" lon="13.660580688807181"><ele>126.5</ele><time>2026-05-02T18:21:47Z</time></trkpt><trkpt lat="45.76313192890254" lon="13.660159552347594"><ele>126.0</ele><time>2026-05-02T18:21:48Z</time></trkpt><trkpt lat="45.76326566532299" lon="13.659739242254199"><ele>126.0</ele><time>2026-05-02T18:21:49Z</time></trkpt><trkpt lat="45.763400554907946" lon="13.659315136840108"><ele>126.0</ele><time>2026-05-02T18:21:50Z</time></trkpt><trkpt lat="45.7635342608084" lon="13.658888698775028"><ele>121.0</ele><time>2026-05-02T18:21:51Z</time></trkpt><trkpt lat="45.763670464740684" lon="13.658462487498467"><ele>116.0</ele><time>2026-05-02T18:21:52Z</time></trkpt><trkpt lat="45.76380076408015" lon="13.658025291863144"><ele>116.0</ele><time>2026-05-02T18:21:53Z</time></trkpt><trkpt lat="45.76393765427113" lon="13.657593889379653"><ele>116.0</ele><time>2026-05-02T18:21:54Z</time></trkpt><trkpt lat="45.76407059001139" lon="13.657147890624262"><ele>116.0</ele><time>2026-05-02T18:21:55Z</time></trkpt><trkpt lat="45.76420589350927" lon="13.656707613796192"><ele>116.0</ele><time>2026-05-02T18:21:56Z</time></trkpt><trkpt lat="45.76434103266165" lon="13.656273577281064"><ele>113.5</ele><time>2026-05-02T18:21:57Z</time></trkpt><trkpt lat="45.764480594252895" lon="13.655839919815456"><ele>111.0</ele><time>2026-05-02T18:21:58Z</time></trkpt><trkpt lat="45.764611521132494" lon="13.655399775368634"><ele>113.0</ele><time>2026-05-02T18:21:59Z</time></trkpt><trkpt lat="45.764747790650524" lon="13.65497659836716"><ele>115.0</ele><time>2026-05-02T18:22:00Z</time></trkpt><trkpt lat="45.76488104361171" lon="13.654555535275302"><ele>115.0</ele><time>2026-05-02T18:22:01Z</time></trkpt><trkpt lat="45.765001541174875" lon="13.654139732155537"><ele>115.0</ele><time>2026-05-02T18:22:02Z</time></trkpt><trkpt lat="45.76512931933802" lon="13.653724060400151"><ele>115.5</ele><time>2026-05-02T18:22:03Z</time></trkpt><trkpt lat="45.765253932228475" lon="13.653314053604856"><ele>116.0</ele><time>2026-05-02T18:22:04Z</time></trkpt><trkpt lat="45.76537818794287" lon="13.652913061185957"><ele>115.0</ele><time>2026-05-02T18:22:05Z</time></trkpt><trkpt lat="45.765505180026494" lon="13.652514103590217"><ele>114.0</ele><time>2026-05-02T18:22:06Z</time></trkpt><trkpt lat="45.76563070621776" lon="13.652115550553836"><ele>111.5</ele><time>2026-05-02T18:22:07Z</time></trkpt><trkpt lat="45.765761095350086" lon="13.651723868362971"><ele>109.0</ele><time>2026-05-02T18:22:08Z</time></trkpt><trkpt lat="45.76589471748925" lon="13.651337518193909"><ele>109.0</ele><time>2026-05-02T18:22:09Z</time></trkpt><trkpt lat="45.76603694292287" lon="13.65096243250016"><ele>109.0</ele><time>2026-05-02T18:22:10Z</time></trkpt><trkpt lat="45.766188124042095" lon="13.650593526552818"><ele>108.0</ele><time>2026-05-02T18:22:11Z</time></trkpt><trkpt lat="45.76635314904743" lon="13.650232487455689"><ele>107.0</ele><time>2026-05-02T18:22:12Z</time></trkpt><trkpt lat="45.76653016621509" lon="13.64987889529996"><ele>107.0</ele><time>2026-05-02T18:22:13Z</time></trkpt><trkpt lat="45.7667114008796" lon="13.649529676966969"><ele>107.0</ele><time>2026-05-02T18:22:14Z</time></trkpt><trkpt lat="45.76689941772301" lon="13.649181260400736"><ele>105.0</ele><time>2026-05-02T18:22:15Z</time></trkpt><trkpt lat="45.767099426839515" lon="13.648839044910455"><ele>103.0</ele><time>2026-05-02T18:22:16Z</time></trkpt><trkpt lat="45.76731384469039" lon="13.648515177323965"><ele>101.5</ele><time>2026-05-02T18:22:17Z</time></trkpt><trkpt lat="45.76752819545123" lon="13.648193166700146"><ele>100.0</ele><time>2026-05-02T18:22:18Z</time></trkpt><trkpt lat="45.76775883423047" lon="13.647895752587582"><ele>98.0</ele><time>2026-05-02T18:22:19Z</time></trkpt><trkpt lat="45.76799023074808" lon="13.647605515277021"><ele>96.0</ele><time>2026-05-02T18:22:20Z</time></trkpt><trkpt lat="45.76823224143223" lon="13.647326304769733"><ele>96.0</ele><time>2026-05-02T18:22:21Z</time></trkpt><trkpt lat="45.76847164953707" lon="13.647041824094787"><ele>96.0</ele><time>2026-05-02T18:22:22Z</time></trkpt><trkpt lat="45.76871654026463" lon="13.64676079294747"><ele>96.0</ele><time>2026-05-02T18:22:23Z</time></trkpt><trkpt lat="45.76896624540568" lon="13.646479263438149"><ele>96.0</ele><time>2026-05-02T18:22:24Z</time></trkpt><trkpt lat="45.76921177120349" lon="13.64619915647082"><ele>96.5</ele><time>2026-05-02T18:22:25Z</time></trkpt><trkpt lat="45.7694473694067" lon="13.645916429258852"><ele>97.0</ele><time>2026-05-02T18:22:26Z</time></trkpt><trkpt lat="45.76968999302953" lon="13.645635461347444"><ele>97.0</ele><time>2026-05-02T18:22:27Z</time></trkpt><trkpt lat="45.76993030150222" lon="13.645361996918783"><ele>97.0</ele><time>2026-05-02T18:22:28Z</time></trkpt><trkpt lat="45.77016847059185" lon="13.645091826303858"><ele>98.0</ele><time>2026-05-02T18:22:29Z</time></trkpt><trkpt lat="45.77040625928596" lon="13.64482409072523"><ele>99.0</ele><time>2026-05-02T18:22:30Z</time></trkpt><trkpt lat="45.77063538228304" lon="13.6445594917385"><ele>99.0</ele><time>2026-05-02T18:22:31Z</time></trkpt><trkpt lat="45.770868166368246" lon="13.644296254779794"><ele>99.0</ele><time>2026-05-02T18:22:32Z</time></trkpt><trkpt lat="45.77109778208117" lon="13.644033992259093"><ele>99.0</ele><time>2026-05-02T18:22:33Z</time></trkpt><trkpt lat="45.77132359532068" lon="13.643773319115802"><ele>99.0</ele><time>2026-05-02T18:22:34Z</time></trkpt><trkpt lat="45.77154396122022" lon="13.643513899045765"><ele>96.5</ele><time>2026-05-02T18:22:35Z</time></trkpt><trkpt lat="45.77176771911734" lon="13.643268163184688"><ele>94.0</ele><time>2026-05-02T18:22:36Z</time></trkpt><trkpt lat="45.77199294316853" lon="13.643014351264286"><ele>90.5</ele><time>2026-05-02T18:22:37Z</time></trkpt><trkpt lat="45.772220899346635" lon="13.642752213458465"><ele>87.0</ele><time>2026-05-02T18:22:38Z</time></trkpt><trkpt lat="45.772441651567405" lon="13.642479003478376"><ele>87.0</ele><time>2026-05-02T18:22:39Z</time></trkpt><trkpt lat="45.77265062779807" lon="13.64219772930323"><ele>87.0</ele><time>2026-05-02T18:22:40Z</time></trkpt><trkpt lat="45.77285182959132" lon="13.641894402504354"><ele>88.5</ele><time>2026-05-02T18:22:41Z</time></trkpt><trkpt lat="45.7730375689366" lon="13.64157799103504"><ele>90.0</ele><time>2026-05-02T18:22:42Z</time></trkpt><trkpt lat="45.773223132822814" lon="13.641241026017608"><ele>90.0</ele><time>2026-05-02T18:22:43Z</time></trkpt><trkpt lat="45.77338230145223" lon="13.640889668682533"><ele>90.0</ele><time>2026-05-02T18:22:44Z</time></trkpt><trkpt lat="45.77353385690267" lon="13.640519422412792"><ele>90.5</ele><time>2026-05-02T18:22:45Z</time></trkpt><trkpt lat="45.773668498426964" lon="13.640136701544566"><ele>91.0</ele><time>2026-05-02T18:22:46Z</time></trkpt><trkpt lat="45.77378584343935" lon="13.639738833258503"><ele>90.5</ele><time>2026-05-02T18:22:47Z</time></trkpt><trkpt lat="45.77389588688646" lon="13.639336192571367"><ele>90.0</ele><time>2026-05-02T18:22:48Z</time></trkpt><trkpt lat="45.77399607418699" lon="13.638920166198302"><ele>88.5</ele><time>2026-05-02T18:22:49Z</time></trkpt><trkpt lat="45.77408035277701" lon="13.638494136982587"><ele>87.0</ele><time>2026-05-02T18:22:50Z</time></trkpt><trkpt lat="45.7741400393709" lon="13.638058398080805"><ele>86.0</ele><time>2026-05-02T18:22:51Z</time></trkpt><trkpt lat="45.774192511099805" lon="13.637620360460954"><ele>85.0</ele><time>2026-05-02T18:22:52Z</time></trkpt><trkpt lat="45.77423382463236" lon="13.637168664059853"><ele>87.0</ele><time>2026-05-02T18:22:53Z</time></trkpt><trkpt lat="45.77426957852633" lon="13.63671423701997"><ele>89.0</ele><time>2026-05-02T18:22:54Z</time></trkpt><trkpt lat="45.77430415476918" lon="13.636260827581903"><ele>88.0</ele><time>2026-05-02T18:22:55Z</time></trkpt><trkpt lat="45.774344632114754" lon="13.635808831613774"><ele>87.0</ele><time>2026-05-02T18:22:56Z</time></trkpt><trkpt lat="45.774382982927946" lon="13.635348839709946"><ele>86.5</ele><time>2026-05-02T18:22:57Z</time></trkpt><trkpt lat="45.774418749750204" lon="13.634895080460817"><ele>86.0</ele><time>2026-05-02T18:22:58Z</time></trkpt><trkpt lat="45.77446149049887" lon="13.634428241916543"><ele>84.0</ele><time>2026-05-02T18:22:59Z</time></trkpt><trkpt lat="45.77449938235861" lon="13.63395694080829"><ele>82.0</ele><time>2026-05-02T18:23:00Z</time></trkpt><trkpt lat="45.77453545690543" lon="13.63347997753948"><ele>81.0</ele><time>2026-05-02T18:23:01Z</time></trkpt><trkpt lat="45.774577401573644" lon="13.632999759214345"><ele>80.0</ele><time>2026-05-02T18:23:02Z</time></trkpt><trkpt lat="45.774616747298104" lon="13.632518760584658"><ele>78.5</ele><time>2026-05-02T18:23:03Z</time></trkpt><trkpt lat="45.774656784434235" lon="13.632030499245616"><ele>77.0</ele><time>2026-05-02T18:23:04Z</time></trkpt><trkpt lat="45.774693657023626" lon="13.631541658472928"><ele>76.5</ele><time>2026-05-02T18:23:05Z</time></trkpt><trkpt lat="45.77473834279498" lon="13.631050535618733"><ele>76.0</ele><time>2026-05-02T18:23:06Z</time></trkpt><trkpt lat="45.77478084208395" lon="13.630567151167332"><ele>76.5</ele><time>2026-05-02T18:23:07Z</time></trkpt><trkpt lat="45.77481698772845" lon="13.630082821764057"><ele>77.0</ele><time>2026-05-02T18:23:08Z</time></trkpt><trkpt lat="45.7748522672633" lon="13.629600810306316"><ele>77.0</ele><time>2026-05-02T18:23:09Z</time></trkpt><trkpt lat="45.77488501717872" lon="13.629116005865164"><ele>77.0</ele><time>2026-05-02T18:23:10Z</time></trkpt><trkpt lat="45.77491384251907" lon="13.628626708411808"><ele>74.5</ele><time>2026-05-02T18:23:11Z</time></trkpt><trkpt lat="45.774946105895836" lon="13.628142938716762"><ele>72.0</ele><time>2026-05-02T18:23:12Z</time></trkpt><trkpt lat="45.774979070495576" lon="13.627658482668702"><ele>72.0</ele><time>2026-05-02T18:23:13Z</time></trkpt><trkpt lat="45.77501176695447" lon="13.627176962027558"><ele>72.0</ele><time>2026-05-02T18:23:14Z</time></trkpt><trkpt lat="45.77504331516761" lon="13.626695133835346"><ele>72.0</ele><time>2026-05-02T18:23:15Z</time></trkpt><trkpt lat="45.77507286953827" lon="13.626203525253567"><ele>72.0</ele><time>2026-05-02T18:23:16Z</time></trkpt><trkpt lat="45.77510437146443" lon="13.625713833949993"><ele>72.0</ele><time>2026-05-02T18:23:17Z</time></trkpt><trkpt lat="45.775130990729444" lon="13.625227087453938"><ele>72.0</ele><time>2026-05-02T18:23:18Z</time></trkpt><trkpt lat="45.775149574897085" lon="13.624741388175199"><ele>72.5</ele><time>2026-05-02T18:23:19Z</time></trkpt><trkpt lat="45.775175047350054" lon="13.624250915110997"><ele>73.0</ele><time>2026-05-02T18:23:20Z</time></trkpt><trkpt lat="45.77519726058727" lon="13.623763963130866"><ele>69.0</ele><time>2026-05-02T18:23:21Z</time></trkpt><trkpt lat="45.7752262629058" lon="13.623280869082008"><ele>65.0</ele><time>2026-05-02T18:23:22Z</time></trkpt><trkpt lat="45.77525893315864" lon="13.62280159512602"><ele>62.5</ele><time>2026-05-02T18:23:23Z</time></trkpt><trkpt lat="45.77528893978016" lon="13.622319743953563"><ele>60.0</ele><time>2026-05-02T18:23:24Z</time></trkpt><trkpt lat="45.77531664122965" lon="13.621820775890113"><ele>60.0</ele><time>2026-05-02T18:23:25Z</time></trkpt><trkpt lat="45.7753466056845" lon="13.621333954606907"><ele>60.0</ele><time>2026-05-02T18:23:26Z</time></trkpt><trkpt lat="45.775379111189956" lon="13.620851101320557"><ele>60.0</ele><time>2026-05-02T18:23:27Z</time></trkpt><trkpt lat="45.77541082953375" lon="13.620370174276466"><ele>60.0</ele><time>2026-05-02T18:23:28Z</time></trkpt><trkpt lat="45.775443523850136" lon="13.61989297334313"><ele>61.5</ele><time>2026-05-02T18:23:29Z</time></trkpt><trkpt lat="45.7754738966101" lon="13.61940923732751"><ele>63.0</ele><time>2026-05-02T18:23:30Z</time></trkpt><trkpt lat="45.775505819666506" lon="13.618930911941495"><ele>63.0</ele><time>2026-05-02T18:23:31Z</time></trkpt><trkpt lat="45.775540148898806" lon="13.61844660566874"><ele>63.0</ele><time>2026-05-02T18:23:32Z</time></trkpt><trkpt lat="45.77556826616177" lon="13.617967413704841"><ele>63.5</ele><time>2026-05-02T18:23:33Z</time></trkpt><trkpt lat="45.77559794033757" lon="13.61748738145433"><ele>64.0</ele><time>2026-05-02T18:23:34Z</time></trkpt><trkpt lat="45.77563191435302" lon="13.617004770781852"><ele>63.5</ele><time>2026-05-02T18:23:35Z</time></trkpt><trkpt lat="45.775661355440235" lon="13.616514178023742"><ele>63.0</ele><time>2026-05-02T18:23:36Z</time></trkpt><trkpt lat="45.775693381742975" lon="13.61603296828538"><ele>63.0</ele><time>2026-05-02T18:23:37Z</time></trkpt><trkpt lat="45.77572474536432" lon="13.615550211323123"><ele>63.0</ele><time>2026-05-02T18:23:38Z</time></trkpt><trkpt lat="45.775762582239146" lon="13.615069020661855"><ele>62.5</ele><time>2026-05-02T18:23:39Z</time></trkpt><trkpt lat="45.775808419128104" lon="13.614596374514978"><ele>62.0</ele><time>2026-05-02T18:23:40Z</time></trkpt><trkpt lat="45.775863397788" lon="13.614142884300833"><ele>61.5</ele><time>2026-05-02T18:23:41Z</time></trkpt><trkpt lat="45.775929541883876" lon="13.613696490635169"><ele>61.0</ele><time>2026-05-02T18:23:42Z</time></trkpt><trkpt lat="45.77600519697127" lon="13.613252441251912"><ele>62.5</ele><time>2026-05-02T18:23:43Z</time></trkpt><trkpt lat="45.776092218391405" lon="13.612803647235063"><ele>64.0</ele><time>2026-05-02T18:23:44Z</time></trkpt><trkpt lat="45.77618290629805" lon="13.612355880555564"><ele>64.0</ele><time>2026-05-02T18:23:45Z</time></trkpt><trkpt lat="45.77627540973728" lon="13.611915841371623"><ele>64.0</ele><time>2026-05-02T18:23:46Z</time></trkpt><trkpt lat="45.7763625398034" lon="13.611480333459282"><ele>63.0</ele><time>2026-05-02T18:23:47Z</time></trkpt><trkpt lat="45.776447969124746" lon="13.611036323191273"><ele>62.0</ele><time>2026-05-02T18:23:48Z</time></trkpt><trkpt lat="45.77653765753579" lon="13.610590081232262"><ele>61.0</ele><time>2026-05-02T18:23:49Z</time></trkpt><trkpt lat="45.77662896911745" lon="13.610141922351007"><ele>60.0</ele><time>2026-05-02T18:23:50Z</time></trkpt><trkpt lat="45.776720922275956" lon="13.609688011106112"><ele>59.0</ele><time>2026-05-02T18:23:51Z</time></trkpt><trkpt lat="45.77681611943244" lon="13.609234259230776"><ele>58.0</ele><time>2026-05-02T18:23:52Z</time></trkpt><trkpt lat="45.77690857712665" lon="13.60877117348209"><ele>58.5</ele><time>2026-05-02T18:23:53Z</time></trkpt><trkpt lat="45.777000139248464" lon="13.60830810205435"><ele>59.0</ele><time>2026-05-02T18:23:54Z</time></trkpt><trkpt lat="45.77709123745585" lon="13.607839556158368"><ele>58.0</ele><time>2026-05-02T18:23:55Z</time></trkpt><trkpt lat="45.77718256589444" lon="13.607370356473966"><ele>57.0</ele><time>2026-05-02T18:23:56Z</time></trkpt><trkpt lat="45.777275132863714" lon="13.606902846414995"><ele>55.5</ele><time>2026-05-02T18:23:57Z</time></trkpt><trkpt lat="45.777366747832815" lon="13.606440260714871"><ele>54.0</ele><time>2026-05-02T18:23:58Z</time></trkpt><trkpt lat="45.77745861725727" lon="13.605981798397975"><ele>52.5</ele><time>2026-05-02T18:23:59Z</time></trkpt><trkpt lat="45.77754773075144" lon="13.605523598370942"><ele>51.0</ele><time>2026-05-02T18:24:00Z</time></trkpt><trkpt lat="45.777634745406594" lon="13.605067310558079"><ele>51.0</ele><time>2026-05-02T18:24:01Z</time></trkpt><trkpt lat="45.777722018310385" lon="13.604621399501097"><ele>51.0</ele><time>2026-05-02T18:24:02Z</time></trkpt><trkpt lat="45.77781503705994" lon="13.604186753531122"><ele>51.0</ele><time>2026-05-02T18:24:03Z</time></trkpt><trkpt lat="45.777915704678925" lon="13.603768307749773"><ele>51.0</ele><time>2026-05-02T18:24:04Z</time></trkpt><trkpt lat="45.77802105862059" lon="13.603356856851747"><ele>48.5</ele><time>2026-05-02T18:24:05Z</time></trkpt><trkpt lat="45.778135757953294" lon="13.602965068990628"><ele>46.0</ele><time>2026-05-02T18:24:06Z</time></trkpt><trkpt lat="45.778273127756776" lon="13.602583785004386"><ele>45.5</ele><time>2026-05-02T18:24:07Z</time></trkpt><trkpt lat="45.778420245576015" lon="13.602202265839141"><ele>45.0</ele><time>2026-05-02T18:24:08Z</time></trkpt><trkpt lat="45.77858109552509" lon="13.6018250025349"><ele>45.0</ele><time>2026-05-02T18:24:09Z</time></trkpt><trkpt lat="45.778761252624626" lon="13.601457675881354"><ele>45.0</ele><time>2026-05-02T18:24:10Z</time></trkpt><trkpt lat="45.77895599911155" lon="13.601099367941158"><ele>45.5</ele><time>2026-05-02T18:24:11Z</time></trkpt><trkpt lat="45.77916729657521" lon="13.600751784475813"><ele>46.0</ele><time>2026-05-02T18:24:12Z</time></trkpt><trkpt lat="45.77939536253382" lon="13.600427776252126"><ele>43.5</ele><time>2026-05-02T18:24:13Z</time></trkpt><trkpt lat="45.779630356995526" lon="13.60013003913368"><ele>41.0</ele><time>2026-05-02T18:24:14Z</time></trkpt><trkpt lat="45.77988428922559" lon="13.599860324800023"><ele>41.0</ele><time>2026-05-02T18:24:15Z</time></trkpt><trkpt lat="45.780147840389276" lon="13.599602319321141"><ele>41.0</ele><time>2026-05-02T18:24:16Z</time></trkpt><trkpt lat="45.78042199664967" lon="13.599365130083724"><ele>40.5</ele><time>2026-05-02T18:24:17Z</time></trkpt><trkpt lat="45.78070961947294" lon="13.599142215719697"><ele>40.0</ele><time>2026-05-02T18:24:18Z</time></trkpt><trkpt lat="45.781005396881426" lon="13.59893270235439"><ele>41.5</ele><time>2026-05-02T18:24:19Z</time></trkpt><trkpt lat="45.78130677942566" lon="13.59873663518553"><ele>43.0</ele><time>2026-05-02T18:24:20Z</time></trkpt><trkpt lat="45.781614159165684" lon="13.598531231600457"><ele>39.5</ele><time>2026-05-02T18:24:21Z</time></trkpt><trkpt lat="45.78191731123461" lon="13.598323311918014"><ele>36.0</ele><time>2026-05-02T18:24:22Z</time></trkpt><trkpt lat="45.78222437040314" lon="13.598107238531595"><ele>36.0</ele><time>2026-05-02T18:24:23Z</time></trkpt><trkpt lat="45.78253583138147" lon="13.597895441061857"><ele>36.0</ele><time>2026-05-02T18:24:24Z</time></trkpt><trkpt lat="45.78284936719988" lon="13.597687065344678"><ele>33.5</ele><time>2026-05-02T18:24:25Z</time></trkpt><trkpt lat="45.78316290748458" lon="13.597475941872986"><ele>31.0</ele><time>2026-05-02T18:24:26Z</time></trkpt><trkpt lat="45.783471957454296" lon="13.59726838656509"><ele>34.0</ele><time>2026-05-02T18:24:27Z</time></trkpt><trkpt lat="45.78378672676932" lon="13.59706144555075"><ele>37.0</ele><time>2026-05-02T18:24:28Z</time></trkpt><trkpt lat="45.78409942364377" lon="13.59685509997417"><ele>34.5</ele><time>2026-05-02T18:24:29Z</time></trkpt><trkpt lat="45.78440595295594" lon="13.59664192244471"><ele>32.0</ele><time>2026-05-02T18:24:30Z</time></trkpt><trkpt lat="45.78471559220282" lon="13.596435204406024"><ele>32.0</ele><time>2026-05-02T18:24:31Z</time></trkpt><trkpt lat="45.78502556344607" lon="13.596225713150108"><ele>32.0</ele><time>2026-05-02T18:24:32Z</time></trkpt><trkpt lat="45.78533109131138" lon="13.596016633586029"><ele>31.5</ele><time>2026-05-02T18:24:33Z</time></trkpt><trkpt lat="45.78563916777016" lon="13.595810629776818"><ele>31.0</ele><time>2026-05-02T18:24:34Z</time></trkpt><trkpt lat="45.78594493347733" lon="13.5956036031894"><ele>33.0</ele><time>2026-05-02T18:24:35Z</time></trkpt><trkpt lat="45.78624950712511" lon="13.59539350043675"><ele>35.0</ele><time>2026-05-02T18:24:36Z</time></trkpt><trkpt lat="45.78655438266753" lon="13.595182459707829"><ele>31.5</ele><time>2026-05-02T18:24:37Z</time></trkpt><trkpt lat="45.78686278133689" lon="13.59496807561588"><ele>28.0</ele><time>2026-05-02T18:24:38Z</time></trkpt><trkpt lat="45.78717206771777" lon="13.594760686687174"><ele>28.0</ele><time>2026-05-02T18:24:39Z</time></trkpt><trkpt lat="45.78747045408369" lon="13.594559555616206"><ele>28.0</ele><time>2026-05-02T18:24:40Z</time></trkpt><trkpt lat="45.78776465938044" lon="13.594365650434364"><ele>26.0</ele><time>2026-05-02T18:24:41Z</time></trkpt><trkpt lat="45.78804730604561" lon="13.594170074025184"><ele>24.0</ele><time>2026-05-02T18:24:42Z</time></trkpt><trkpt lat="45.788320522851" lon="13.593978636816429"><ele>24.0</ele><time>2026-05-02T18:24:43Z</time></trkpt><trkpt lat="45.78858598138007" lon="13.593785351009618"><ele>24.0</ele><time>2026-05-02T18:24:44Z</time></trkpt><trkpt lat="45.78883593950492" lon="13.593568587603508"><ele>24.0</ele><time>2026-05-02T18:24:45Z</time></trkpt><trkpt lat="45.78908661632187" lon="13.593337139238388"><ele>24.0</ele><time>2026-05-02T18:24:46Z</time></trkpt><trkpt lat="45.789328083784454" lon="13.593083216989598"><ele>22.5</ele><time>2026-05-02T18:24:47Z</time></trkpt><trkpt lat="45.78956721697523" lon="13.592807708180356"><ele>21.0</ele><time>2026-05-02T18:24:48Z</time></trkpt><trkpt lat="45.78980046658746" lon="13.592525923478155"><ele>21.0</ele><time>2026-05-02T18:24:49Z</time></trkpt><trkpt lat="45.79002515727985" lon="13.59222394724943"><ele>21.0</ele><time>2026-05-02T18:24:50Z</time></trkpt><trkpt lat="45.79024673134144" lon="13.591912102442057"><ele>22.0</ele><time>2026-05-02T18:24:51Z</time></trkpt><trkpt lat="45.790457282806656" lon="13.5915808310761"><ele>23.0</ele><time>2026-05-02T18:24:52Z</time></trkpt><trkpt lat="45.790669590576904" lon="13.591255382682245"><ele>23.0</ele><time>2026-05-02T18:24:53Z</time></trkpt><trkpt lat="45.79087640874436" lon="13.590909499104436"><ele>23.0</ele><time>2026-05-02T18:24:54Z</time></trkpt><trkpt lat="45.79107705374899" lon="13.590557419356584"><ele>20.5</ele><time>2026-05-02T18:24:55Z</time></trkpt><trkpt lat="45.791281963705465" lon="13.590214337806675"><ele>18.0</ele><time>2026-05-02T18:24:56Z</time></trkpt><trkpt lat="45.791488772290194" lon="13.589871424286104"><ele>18.0</ele><time>2026-05-02T18:24:57Z</time></trkpt><trkpt lat="45.791701022518126" lon="13.589542492491002"><ele>18.0</ele><time>2026-05-02T18:24:58Z</time></trkpt><trkpt lat="45.79191386439193" lon="13.58922730672956"><ele>17.0</ele><time>2026-05-02T18:24:59Z</time></trkpt><trkpt lat="45.79213226835869" lon="13.588927076750856"><ele>16.0</ele><time>2026-05-02T18:25:00Z</time></trkpt><trkpt lat="45.79236095650969" lon="13.588640508400415"><ele>17.5</ele><time>2026-05-02T18:25:01Z</time></trkpt><trkpt lat="45.79258828211596" lon="13.58836558901585"><ele>19.0</ele><time>2026-05-02T18:25:02Z</time></trkpt><trkpt lat="45.7928220345176" lon="13.588094928391172"><ele>19.0</ele><time>2026-05-02T18:25:03Z</time></trkpt><trkpt lat="45.793065997958024" lon="13.587843868693948"><ele>19.0</ele><time>2026-05-02T18:25:04Z</time></trkpt><trkpt lat="45.79331384640908" lon="13.58759932448393"><ele>22.0</ele><time>2026-05-02T18:25:05Z</time></trkpt><trkpt lat="45.793575550712106" lon="13.5873688312366"><ele>25.0</ele><time>2026-05-02T18:25:06Z</time></trkpt><trkpt lat="45.79384095685709" lon="13.587151274812703"><ele>24.5</ele><time>2026-05-02T18:25:07Z</time></trkpt><trkpt lat="45.794116016955115" lon="13.586947900296142"><ele>24.0</ele><time>2026-05-02T18:25:08Z</time></trkpt><trkpt lat="45.79440136112219" lon="13.586742066042241"><ele>25.5</ele><time>2026-05-02T18:25:09Z</time></trkpt><trkpt lat="45.79468126592706" lon="13.586534537728598"><ele>27.0</ele><time>2026-05-02T18:25:10Z</time></trkpt><trkpt lat="45.79496753391575" lon="13.586329381354952"><ele>20.5</ele><time>2026-05-02T18:25:11Z</time></trkpt><trkpt lat="45.79525295438964" lon="13.586115962461607"><ele>14.0</ele><time>2026-05-02T18:25:12Z</time></trkpt><trkpt lat="45.79553535090319" lon="13.585898689369738"><ele>14.0</ele><time>2026-05-02T18:25:13Z</time></trkpt><trkpt lat="45.79582005096609" lon="13.585687565471934"><ele>14.0</ele><time>2026-05-02T18:25:14Z</time></trkpt><trkpt lat="45.79610723686653" lon="13.585484326742757"><ele>8.5</ele><time>2026-05-02T18:25:15Z</time></trkpt><trkpt lat="45.79639848296073" lon="13.585302576875288"><ele>3.0</ele><time>2026-05-02T18:25:16Z</time></trkpt><trkpt lat="45.79669431237231" lon="13.585111151678555"><ele>3.0</ele><time>2026-05-02T18:25:17Z</time></trkpt><trkpt lat="45.79698697566608" lon="13.584912526347892"><ele>3.0</ele><time>2026-05-02T18:25:18Z</time></trkpt><trkpt lat="45.79727215266235" lon="13.584707726278886"><ele>3.0</ele><time>2026-05-02T18:25:19Z</time></trkpt><trkpt lat="45.797559100510384" lon="13.584504488318572"><ele>3.0</ele><time>2026-05-02T18:25:20Z</time></trkpt><trkpt lat="45.797850951012606" lon="13.584304357442432"><ele>3.0</ele><time>2026-05-02T18:25:21Z</time></trkpt><trkpt lat="45.798150913361496" lon="13.584116638213098"><ele>3.0</ele><time>2026-05-02T18:25:22Z</time></trkpt><trkpt lat="45.79844024682482" lon="13.583928455449977"><ele>1.5</ele><time>2026-05-02T18:25:23Z</time></trkpt><trkpt lat="45.79873331475648" lon="13.583747482557612"><ele>0.0</ele><time>2026-05-02T18:25:24Z</time></trkpt><trkpt lat="45.79901829360834" lon="13.583574495932746"><ele>3.5</ele><time>2026-05-02T18:25:25Z</time></trkpt><trkpt lat="45.79929574435567" lon="13.583403652448933"><ele>7.0</ele><time>2026-05-02T18:25:26Z</time></trkpt><trkpt lat="45.79956807045794" lon="13.583229589603562"><ele>7.0</ele><time>2026-05-02T18:25:27Z</time></trkpt><trkpt lat="45.79984346979128" lon="13.583048781409712"><ele>7.0</ele><time>2026-05-02T18:25:28Z</time></trkpt><trkpt lat="45.80012912513611" lon="13.582871807070152"><ele>10.0</ele><time>2026-05-02T18:25:29Z</time></trkpt><trkpt lat="45.8004055603433" lon="13.58269257631946"><ele>13.0</ele><time>2026-05-02T18:25:30Z</time></trkpt><trkpt lat="45.800672748514245" lon="13.582524933332145"><ele>13.0</ele><time>2026-05-02T18:25:31Z</time></trkpt><trkpt lat="45.80093067495687" lon="13.58235452097893"><ele>13.0</ele><time>2026-05-02T18:25:32Z</time></trkpt><trkpt lat="45.801175894311264" lon="13.582189176540155"><ele>15.0</ele><time>2026-05-02T18:25:33Z</time></trkpt><trkpt lat="45.80141092777648" lon="13.582020523298233"><ele>17.0</ele><time>2026-05-02T18:25:34Z</time></trkpt><trkpt lat="45.80164436890122" lon="13.581846306481241"><ele>13.0</ele><time>2026-05-02T18:25:35Z</time></trkpt><trkpt lat="45.801866964897734" lon="13.581663947488911"><ele>9.0</ele><time>2026-05-02T18:25:36Z</time></trkpt><trkpt lat="45.802077886053986" lon="13.581476556336733"><ele>9.0</ele><time>2026-05-02T18:25:37Z</time></trkpt><trkpt lat="45.80228434018185" lon="13.581289451413863"><ele>9.0</ele><time>2026-05-02T18:25:38Z</time></trkpt><trkpt lat="45.802485167510696" lon="13.581106910368458"><ele>12.0</ele><time>2026-05-02T18:25:39Z</time></trkpt><trkpt lat="45.802682033507686" lon="13.58091912248673"><ele>15.0</ele><time>2026-05-02T18:25:40Z</time></trkpt><trkpt lat="45.80285898480118" lon="13.580726979501323"><ele>15.0</ele><time>2026-05-02T18:25:41Z</time></trkpt><trkpt lat="45.80303353310384" lon="13.580534275177786"><ele>15.0</ele><time>2026-05-02T18:25:42Z</time></trkpt><trkpt lat="45.80319926601917" lon="13.58034746394294"><ele>15.0</ele><time>2026-05-02T18:25:43Z</time></trkpt><trkpt lat="45.80335342776114" lon="13.58015983896644"><ele>17.666666666666668</ele><time>2026-05-02T18:25:44Z</time></trkpt><trkpt lat="45.80349866816895" lon="13.579986097775905"><ele>20.333333333333336</ele><time>2026-05-02T18:25:45Z</time></trkpt><trkpt lat="45.80362268529601" lon="13.57983194859142"><ele>23.0</ele><time>2026-05-02T18:25:46Z</time></trkpt><trkpt lat="45.80372842915004" lon="13.579700354475698"><ele>23.0</ele><time>2026-05-02T18:25:47Z</time></trkpt><trkpt lat="45.80380904680657" lon="13.57959968373941"><ele>23.0</ele><time>2026-05-02T18:25:48Z</time></trkpt><trkpt lat="45.80389715171929" lon="13.579500580242247"><ele>23.0</ele><time>2026-05-02T18:25:49Z</time></trkpt><trkpt lat="45.80396917030341" lon="13.579399969483283"><ele>23.0</ele><time>2026-05-02T18:25:50Z</time></trkpt><trkpt lat="45.80404777314647" lon="13.579304629136894"><ele>23.0</ele><time>2026-05-02T18:25:51Z</time></trkpt><trkpt lat="45.80411564869171" lon="13.57922300616106"><ele>22.5</ele><time>2026-05-02T18:25:52Z</time></trkpt><trkpt lat="45.80418492265335" lon="13.579140587498872"><ele>22.0</ele><time>2026-05-02T18:25:53Z</time></trkpt><trkpt lat="45.804244315282475" lon="13.57906288991557"><ele>21.5</ele><time>2026-05-02T18:25:54Z</time></trkpt><trkpt lat="45.80431524841604" lon="13.578999481600587"><ele>21.0</ele><time>2026-05-02T18:25:55Z</time></trkpt><trkpt lat="45.804390378685596" lon="13.578922514676824"><ele>20.5</ele><time>2026-05-02T18:25:56Z</time></trkpt><trkpt lat="45.80446611802614" lon="13.578870409251472"><ele>20.0</ele><time>2026-05-02T18:25:57Z</time></trkpt><trkpt lat="45.80453559804735" lon="13.578821356704973"><ele>20.0</ele><time>2026-05-02T18:25:58Z</time></trkpt><trkpt lat="45.80460133153951" lon="13.578775795244951"><ele>20.0</ele><time>2026-05-02T18:25:59Z</time></trkpt><trkpt lat="45.804666893223" lon="13.578739639517568"><ele>20.0</ele><time>2026-05-02T18:26:00Z</time></trkpt><trkpt lat="45.80473462530058" lon="13.578703796577475"><ele>20.0</ele><time>2026-05-02T18:26:01Z</time></trkpt><trkpt lat="45.804794909401174" lon="13.578661562149469"><ele>20.0</ele><time>2026-05-02T18:26:02Z</time></trkpt><trkpt lat="45.804884769381395" lon="13.578580290789043"><ele>20.0</ele><time>2026-05-02T18:26:04Z</time></trkpt><trkpt lat="45.804985409361784" lon="13.578496715916218"><ele>19.333333333333336</ele><time>2026-05-02T18:26:06Z</time></trkpt><trkpt lat="45.805078802600256" lon="13.5783906926249"><ele>18.666666666666668</ele><time>2026-05-02T18:26:08Z</time></trkpt><trkpt lat="45.80512685641884" lon="13.578329815860725"><ele>18.0</ele><time>2026-05-02T18:26:09Z</time></trkpt><trkpt lat="45.8051797091478" lon="13.578267333279584"><ele>17.333333333333332</ele><time>2026-05-02T18:26:10Z</time></trkpt><trkpt lat="45.80526247308109" lon="13.578154330627598"><ele>16.666666666666664</ele><time>2026-05-02T18:26:12Z</time></trkpt><trkpt lat="45.80530703568627" lon="13.578084218008888"><ele>16.0</ele><time>2026-05-02T18:26:13Z</time></trkpt><trkpt lat="45.805358742368036" lon="13.578017620357597"><ele>15.999999999999998</ele><time>2026-05-02T18:26:14Z</time></trkpt><trkpt lat="45.80540804770194" lon="13.577939572853934"><ele>16.0</ele><time>2026-05-02T18:26:15Z</time></trkpt><trkpt lat="45.80546090055286" lon="13.577826308203864"><ele>16.0</ele><time>2026-05-02T18:26:17Z</time></trkpt><trkpt lat="45.80552156632886" lon="13.577690287830475"><ele>16.0</ele><time>2026-05-02T18:26:19Z</time></trkpt><trkpt lat="45.80556539462415" lon="13.57761580258293"><ele>15.999999999999998</ele><time>2026-05-02T18:26:20Z</time></trkpt><trkpt lat="45.80560669401444" lon="13.577519950374686"><ele>16.0</ele><time>2026-05-02T18:26:21Z</time></trkpt><trkpt lat="45.80564969817383" lon="13.577424167696982"><ele>15.166666666666666</ele><time>2026-05-02T18:26:22Z</time></trkpt><trkpt lat="45.80569564720411" lon="13.577340283322528"><ele>14.333333333333332</ele><time>2026-05-02T18:26:23Z</time></trkpt><trkpt lat="45.80573856040083" lon="13.57725207404484"><ele>13.5</ele><time>2026-05-02T18:26:24Z</time></trkpt><trkpt lat="45.80579206679683" lon="13.577149072441376"><ele>12.666666666666666</ele><time>2026-05-02T18:26:25Z</time></trkpt><trkpt lat="45.80584726753358" lon="13.577039820397928"><ele>11.833333333333332</ele><time>2026-05-02T18:26:26Z</time></trkpt><trkpt lat="45.80591123989189" lon="13.576926688533586"><ele>11.0</ele><time>2026-05-02T18:26:27Z</time></trkpt><trkpt lat="45.80597510055367" lon="13.576815288648344"><ele>12.4</ele><time>2026-05-02T18:26:28Z</time></trkpt><trkpt lat="45.806046152506624" lon="13.576725354603493"><ele>13.8</ele><time>2026-05-02T18:26:29Z</time></trkpt><trkpt lat="45.80612157494003" lon="13.576622782544662"><ele>15.200000000000001</ele><time>2026-05-02T18:26:30Z</time></trkpt><trkpt lat="45.8062041044518" lon="13.576510347122946"><ele>16.6</ele><time>2026-05-02T18:26:31Z</time></trkpt><trkpt lat="45.8062883766675" lon="13.576403033763759"><ele>18.0</ele><time>2026-05-02T18:26:32Z</time></trkpt><trkpt lat="45.80637233571433" lon="13.576271337861733"><ele>16.25</ele><time>2026-05-02T18:26:33Z</time></trkpt><trkpt lat="45.806459050528375" lon="13.576131767867357"><ele>14.5</ele><time>2026-05-02T18:26:34Z</time></trkpt><trkpt lat="45.80655566239266" lon="13.575983084093577"><ele>12.75</ele><time>2026-05-02T18:26:35Z</time></trkpt><trkpt lat="45.80666754024421" lon="13.57582699137693"><ele>11.0</ele><time>2026-05-02T18:26:36Z</time></trkpt><trkpt lat="45.806783274544024" lon="13.575666192994738"><ele>11.0</ele><time>2026-05-02T18:26:37Z</time></trkpt><trkpt lat="45.80690506360853" lon="13.575506842733043"><ele>11.0</ele><time>2026-05-02T18:26:38Z</time></trkpt><trkpt lat="45.807035099109534" lon="13.575339582136843"><ele>11.0</ele><time>2026-05-02T18:26:39Z</time></trkpt><trkpt lat="45.807162722680644" lon="13.57515699253194"><ele>11.0</ele><time>2026-05-02T18:26:40Z</time></trkpt><trkpt lat="45.807295289819706" lon="13.574953380399933"><ele>11.0</ele><time>2026-05-02T18:26:41Z</time></trkpt><trkpt lat="45.807428851583076" lon="13.574735255739716"><ele>11.0</ele><time>2026-05-02T18:26:42Z</time></trkpt><trkpt lat="45.80756156523469" lon="13.574506818147979"><ele>16.333333333333332</ele><time>2026-05-02T18:26:43Z</time></trkpt><trkpt lat="45.807688475447485" lon="13.574264892397007"><ele>21.666666666666668</ele><time>2026-05-02T18:26:44Z</time></trkpt><trkpt lat="45.80781675962727" lon="13.57400799829947"><ele>27.0</ele><time>2026-05-02T18:26:45Z</time></trkpt><trkpt lat="45.807938490213004" lon="13.573741603241297"><ele>22.0</ele><time>2026-05-02T18:26:46Z</time></trkpt><trkpt lat="45.80805671413878" lon="13.573456276601723"><ele>17.0</ele><time>2026-05-02T18:26:47Z</time></trkpt><trkpt lat="45.80817452389732" lon="13.57315592543021"><ele>13.5</ele><time>2026-05-02T18:26:48Z</time></trkpt><trkpt lat="45.80828608983348" lon="13.57284325352009"><ele>10.0</ele><time>2026-05-02T18:26:49Z</time></trkpt><trkpt lat="45.80839102090968" lon="13.572518279147852"><ele>10.0</ele><time>2026-05-02T18:26:50Z</time></trkpt><trkpt lat="45.80849188999576" lon="13.5721786008452"><ele>10.0</ele><time>2026-05-02T18:26:51Z</time></trkpt><trkpt lat="45.808582706341355" lon="13.571835416740393"><ele>18.0</ele><time>2026-05-02T18:26:52Z</time></trkpt><trkpt lat="45.808668666785934" lon="13.571471544136338"><ele>26.0</ele><time>2026-05-02T18:26:53Z</time></trkpt><trkpt lat="45.8087428487076" lon="13.571097589225346"><ele>26.0</ele><time>2026-05-02T18:26:54Z</time></trkpt><trkpt lat="45.80881506322945" lon="13.570717585497682"><ele>26.0</ele><time>2026-05-02T18:26:55Z</time></trkpt><trkpt lat="45.80888258555794" lon="13.570319254876285"><ele>25.0</ele><time>2026-05-02T18:26:56Z</time></trkpt><trkpt lat="45.808952446455116" lon="13.5699144484319"><ele>24.0</ele><time>2026-05-02T18:26:57Z</time></trkpt><trkpt lat="45.809022410900795" lon="13.569510824117135"><ele>19.5</ele><time>2026-05-02T18:26:58Z</time></trkpt><trkpt lat="45.8090932570095" lon="13.569094771719262"><ele>15.0</ele><time>2026-05-02T18:26:59Z</time></trkpt><trkpt lat="45.809165688675996" lon="13.568678467509072"><ele>12.5</ele><time>2026-05-02T18:27:00Z</time></trkpt><trkpt lat="45.80924056146051" lon="13.568260181858914"><ele>10.0</ele><time>2026-05-02T18:27:01Z</time></trkpt><trkpt lat="45.80930898800198" lon="13.567835464480027"><ele>15.5</ele><time>2026-05-02T18:27:02Z</time></trkpt><trkpt lat="45.80938093711596" lon="13.567413642994127"><ele>21.0</ele><time>2026-05-02T18:27:03Z</time></trkpt><trkpt lat="45.80945888804073" lon="13.566992031627622"><ele>21.0</ele><time>2026-05-02T18:27:04Z</time></trkpt><trkpt lat="45.80954757847652" lon="13.566572579092115"><ele>21.0</ele><time>2026-05-02T18:27:05Z</time></trkpt><trkpt lat="45.80964746064928" lon="13.566148100154924"><ele>19.0</ele><time>2026-05-02T18:27:06Z</time></trkpt><trkpt lat="45.809756158684074" lon="13.565731712578373"><ele>17.0</ele><time>2026-05-02T18:27:07Z</time></trkpt><trkpt lat="45.80988312554107" lon="13.565327950686035"><ele>14.5</ele><time>2026-05-02T18:27:08Z</time></trkpt><trkpt lat="45.810026447645214" lon="13.564930595614117"><ele>12.0</ele><time>2026-05-02T18:27:09Z</time></trkpt><trkpt lat="45.81018766892259" lon="13.564545231954133"><ele>17.5</ele><time>2026-05-02T18:27:10Z</time></trkpt><trkpt lat="45.81035763608649" lon="13.564166817875199"><ele>23.0</ele><time>2026-05-02T18:27:11Z</time></trkpt><trkpt lat="45.81053963763168" lon="13.563790783492966"><ele>15.5</ele><time>2026-05-02T18:27:12Z</time></trkpt><trkpt lat="45.81073829289511" lon="13.563429438898755"><ele>8.0</ele><time>2026-05-02T18:27:13Z</time></trkpt><trkpt lat="45.81094550555367" lon="13.563085012601528"><ele>8.5</ele><time>2026-05-02T18:27:14Z</time></trkpt><trkpt lat="45.81116808060598" lon="13.562752456378725"><ele>9.0</ele><time>2026-05-02T18:27:15Z</time></trkpt><trkpt lat="45.81139655833334" lon="13.562435152523848"><ele>9.0</ele><time>2026-05-02T18:27:16Z</time></trkpt><trkpt lat="45.81163062293817" lon="13.56213132088764"><ele>9.0</ele><time>2026-05-02T18:27:17Z</time></trkpt><trkpt lat="45.811875961962784" lon="13.561843674489785"><ele>10.0</ele><time>2026-05-02T18:27:18Z</time></trkpt><trkpt lat="45.81211930929958" lon="13.561563943732082"><ele>11.0</ele><time>2026-05-02T18:27:19Z</time></trkpt><trkpt lat="45.812359880768355" lon="13.561298696258222"><ele>14.0</ele><time>2026-05-02T18:27:20Z</time></trkpt><trkpt lat="45.81259511116875" lon="13.561029154573227"><ele>17.0</ele><time>2026-05-02T18:27:21Z</time></trkpt><trkpt lat="45.8128294037687" lon="13.560754364141333"><ele>19.0</ele><time>2026-05-02T18:27:22Z</time></trkpt><trkpt lat="45.81306037586003" lon="13.560483739925559"><ele>21.0</ele><time>2026-05-02T18:27:23Z</time></trkpt><trkpt lat="45.813288166930036" lon="13.56021486734234"><ele>14.0</ele><time>2026-05-02T18:27:24Z</time></trkpt><trkpt lat="45.813515860998194" lon="13.559952816706872"><ele>7.0</ele><time>2026-05-02T18:27:25Z</time></trkpt><trkpt lat="45.81374335437111" lon="13.559695515476642"><ele>12.0</ele><time>2026-05-02T18:27:26Z</time></trkpt><trkpt lat="45.81396766488837" lon="13.559428796284049"><ele>17.0</ele><time>2026-05-02T18:27:27Z</time></trkpt><trkpt lat="45.81417296143241" lon="13.55916161278083"><ele>13.5</ele><time>2026-05-02T18:27:28Z</time></trkpt><trkpt lat="45.81437509910448" lon="13.558871196729408"><ele>10.0</ele><time>2026-05-02T18:27:29Z</time></trkpt><trkpt lat="45.81456281787557" lon="13.558564033159692"><ele>10.0</ele><time>2026-05-02T18:27:30Z</time></trkpt><trkpt lat="45.814737474122985" lon="13.558244733404905"><ele>10.0</ele><time>2026-05-02T18:27:31Z</time></trkpt><trkpt lat="45.81489844275109" lon="13.557913298278928"><ele>13.5</ele><time>2026-05-02T18:27:32Z</time></trkpt><trkpt lat="45.81505052944966" lon="13.557565971114956"><ele>17.0</ele><time>2026-05-02T18:27:33Z</time></trkpt><trkpt lat="45.81519662295758" lon="13.557209424411997"><ele>11.0</ele><time>2026-05-02T18:27:34Z</time></trkpt><trkpt lat="45.81533356409171" lon="13.556843961907973"><ele>5.0</ele><time>2026-05-02T18:27:35Z</time></trkpt><trkpt lat="45.81545008580548" lon="13.556460161534432"><ele>6.0</ele><time>2026-05-02T18:27:36Z</time></trkpt><trkpt lat="45.815561422034776" lon="13.55606691427833"><ele>7.0</ele><time>2026-05-02T18:27:37Z</time></trkpt><trkpt lat="45.81565789401831" lon="13.55565250178751"><ele>9.5</ele><time>2026-05-02T18:27:38Z</time></trkpt><trkpt lat="45.81573813672252" lon="13.555233789427865"><ele>12.0</ele><time>2026-05-02T18:27:39Z</time></trkpt><trkpt lat="45.815793633339446" lon="13.554801572682111"><ele>10.0</ele><time>2026-05-02T18:27:40Z</time></trkpt><trkpt lat="45.815834062250175" lon="13.554368075276175"><ele>8.0</ele><time>2026-05-02T18:27:41Z</time></trkpt><trkpt lat="45.815857625077875" lon="13.553925625659968"><ele>10.0</ele><time>2026-05-02T18:27:42Z</time></trkpt><trkpt lat="45.81586496641328" lon="13.55348356946688"><ele>12.0</ele><time>2026-05-02T18:27:43Z</time></trkpt><trkpt lat="45.815857419504006" lon="13.553037415899498"><ele>11.5</ele><time>2026-05-02T18:27:44Z</time></trkpt><trkpt lat="45.81583606603813" lon="13.552578454021411"><ele>11.0</ele><time>2026-05-02T18:27:45Z</time></trkpt><trkpt lat="45.81580137054612" lon="13.55212613236532"><ele>9.5</ele><time>2026-05-02T18:27:46Z</time></trkpt><trkpt lat="45.815758801877806" lon="13.551669782690913"><ele>8.0</ele><time>2026-05-02T18:27:47Z</time></trkpt><trkpt lat="45.81571888743399" lon="13.551208815016805"><ele>10.0</ele><time>2026-05-02T18:27:48Z</time></trkpt><trkpt lat="45.81568038779072" lon="13.550741489164993"><ele>12.0</ele><time>2026-05-02T18:27:49Z</time></trkpt><trkpt lat="45.815651055882455" lon="13.55026025039612"><ele>12.0</ele><time>2026-05-02T18:27:50Z</time></trkpt><trkpt lat="45.81563979001512" lon="13.5497817024342"><ele>12.0</ele><time>2026-05-02T18:27:51Z</time></trkpt><trkpt lat="45.81564043795846" lon="13.54930770363558"><ele>12.0</ele><time>2026-05-02T18:27:52Z</time></trkpt><trkpt lat="45.8156489172744" lon="13.548831329688948"><ele>12.0</ele><time>2026-05-02T18:27:53Z</time></trkpt><trkpt lat="45.81566477646183" lon="13.548353265500882"><ele>12.0</ele><time>2026-05-02T18:27:54Z</time></trkpt><trkpt lat="45.815688789559374" lon="13.547873828123754"><ele>12.0</ele><time>2026-05-02T18:27:55Z</time></trkpt><trkpt lat="45.81571886077069" lon="13.547409257607312"><ele>13.0</ele><time>2026-05-02T18:27:56Z</time></trkpt><trkpt lat="45.815759847878475" lon="13.54694658634333"><ele>14.0</ele><time>2026-05-02T18:27:57Z</time></trkpt><trkpt lat="45.815810991619294" lon="13.546493667508757"><ele>15.0</ele><time>2026-05-02T18:27:58Z</time></trkpt><trkpt lat="45.81587203706347" lon="13.546052107491798"><ele>16.0</ele><time>2026-05-02T18:27:59Z</time></trkpt><trkpt lat="45.81594814583556" lon="13.545606122744445"><ele>15.0</ele><time>2026-05-02T18:28:00Z</time></trkpt><trkpt lat="45.81603352388608" lon="13.545157275352544"><ele>14.0</ele><time>2026-05-02T18:28:01Z</time></trkpt><trkpt lat="45.816126790485185" lon="13.544728201039046"><ele>14.5</ele><time>2026-05-02T18:28:02Z</time></trkpt><trkpt lat="45.81622856906179" lon="13.544283546865536"><ele>15.0</ele><time>2026-05-02T18:28:03Z</time></trkpt><trkpt lat="45.816337186915774" lon="13.543841207428656"><ele>15.5</ele><time>2026-05-02T18:28:04Z</time></trkpt><trkpt lat="45.81645025161633" lon="13.543397422463386"><ele>16.0</ele><time>2026-05-02T18:28:05Z</time></trkpt><trkpt lat="45.81657569426164" lon="13.542959180958578"><ele>16.5</ele><time>2026-05-02T18:28:06Z</time></trkpt><trkpt lat="45.816712429811" lon="13.54252983822796"><ele>17.0</ele><time>2026-05-02T18:28:07Z</time></trkpt><trkpt lat="45.81685091039902" lon="13.542109176289722"><ele>21.5</ele><time>2026-05-02T18:28:08Z</time></trkpt><trkpt lat="45.816992176577656" lon="13.541688345927604"><ele>26.0</ele><time>2026-05-02T18:28:09Z</time></trkpt><trkpt lat="45.81713140266449" lon="13.541269784851476"><ele>24.5</ele><time>2026-05-02T18:28:10Z</time></trkpt><trkpt lat="45.81727314896119" lon="13.540851784233958"><ele>23.0</ele><time>2026-05-02T18:28:11Z</time></trkpt><trkpt lat="45.817413040455016" lon="13.5404277807264"><ele>20.5</ele><time>2026-05-02T18:28:12Z</time></trkpt><trkpt lat="45.81755199567106" lon="13.540004267982113"><ele>18.0</ele><time>2026-05-02T18:28:13Z</time></trkpt><trkpt lat="45.81769692631705" lon="13.539585721465865"><ele>26.0</ele><time>2026-05-02T18:28:14Z</time></trkpt><trkpt lat="45.817833122183124" lon="13.539163492450038"><ele>34.0</ele><time>2026-05-02T18:28:15Z</time></trkpt><trkpt lat="45.817975444740014" lon="13.538746483099283"><ele>30.0</ele><time>2026-05-02T18:28:16Z</time></trkpt><trkpt lat="45.81811458271338" lon="13.538334932560698"><ele>26.0</ele><time>2026-05-02T18:28:17Z</time></trkpt><trkpt lat="45.818243054261025" lon="13.537934135637"><ele>23.5</ele><time>2026-05-02T18:28:18Z</time></trkpt><trkpt lat="45.81836866429805" lon="13.53754854618688"><ele>21.0</ele><time>2026-05-02T18:28:19Z</time></trkpt><trkpt lat="45.818491806403216" lon="13.537167981243163"><ele>25.5</ele><time>2026-05-02T18:28:20Z</time></trkpt><trkpt lat="45.81861909149338" lon="13.536785782267222"><ele>30.0</ele><time>2026-05-02T18:28:21Z</time></trkpt><trkpt lat="45.818752648532175" lon="13.536398331085687"><ele>26.5</ele><time>2026-05-02T18:28:22Z</time></trkpt><trkpt lat="45.81888408651941" lon="13.536012097764532"><ele>23.0</ele><time>2026-05-02T18:28:23Z</time></trkpt><trkpt lat="45.81901445860559" lon="13.535624261581786"><ele>18.5</ele><time>2026-05-02T18:28:24Z</time></trkpt><trkpt lat="45.819144140837935" lon="13.535236952907495"><ele>14.0</ele><time>2026-05-02T18:28:25Z</time></trkpt><trkpt lat="45.81927365920905" lon="13.534848315000255"><ele>19.5</ele><time>2026-05-02T18:28:26Z</time></trkpt><trkpt lat="45.8194057523722" lon="13.534458879079892"><ele>25.0</ele><time>2026-05-02T18:28:27Z</time></trkpt><trkpt lat="45.819542023442956" lon="13.534071445330431"><ele>21.5</ele><time>2026-05-02T18:28:28Z</time></trkpt><trkpt lat="45.81968784106069" lon="13.533688583377188"><ele>18.0</ele><time>2026-05-02T18:28:29Z</time></trkpt><trkpt lat="45.819836277754746" lon="13.533307127339553"><ele>18.0</ele><time>2026-05-02T18:28:30Z</time></trkpt><trkpt lat="45.819989935071774" lon="13.532931507177416"><ele>18.0</ele><time>2026-05-02T18:28:31Z</time></trkpt><trkpt lat="45.82014464314731" lon="13.53255831557786"><ele>22.0</ele><time>2026-05-02T18:28:32Z</time></trkpt><trkpt lat="45.820305609100735" lon="13.53218861737823"><ele>26.0</ele><time>2026-05-02T18:28:33Z</time></trkpt><trkpt lat="45.820468818737595" lon="13.531819439486707"><ele>26.0</ele><time>2026-05-02T18:28:34Z</time></trkpt><trkpt lat="45.82063109364063" lon="13.531446763068306"><ele>26.0</ele><time>2026-05-02T18:28:35Z</time></trkpt><trkpt lat="45.82080187771341" lon="13.531086706394927"><ele>26.5</ele><time>2026-05-02T18:28:36Z</time></trkpt><trkpt lat="45.820976937893086" lon="13.530729294623944"><ele>27.0</ele><time>2026-05-02T18:28:37Z</time></trkpt><trkpt lat="45.82115672362548" lon="13.530370980253808"><ele>27.0</ele><time>2026-05-02T18:28:38Z</time></trkpt><trkpt lat="45.82134145645667" lon="13.530014620172935"><ele>27.0</ele><time>2026-05-02T18:28:39Z</time></trkpt><trkpt lat="45.821527016630824" lon="13.529666751932801"><ele>31.0</ele><time>2026-05-02T18:28:40Z</time></trkpt><trkpt lat="45.8217166963787" lon="13.529326043778273"><ele>35.0</ele><time>2026-05-02T18:28:41Z</time></trkpt><trkpt lat="45.82191021532106" lon="13.52899754051044"><ele>30.0</ele><time>2026-05-02T18:28:42Z</time></trkpt><trkpt lat="45.822097684101486" lon="13.528667910100774"><ele>25.0</ele><time>2026-05-02T18:28:43Z</time></trkpt><trkpt lat="45.82229076569495" lon="13.528353728760296"><ele>25.0</ele><time>2026-05-02T18:28:44Z</time></trkpt><trkpt lat="45.82248428201098" lon="13.528060634906144"><ele>25.0</ele><time>2026-05-02T18:28:45Z</time></trkpt><trkpt lat="45.82268007679365" lon="13.527771713043903"><ele>31.5</ele><time>2026-05-02T18:28:46Z</time></trkpt><trkpt lat="45.82287771524962" lon="13.527483358630219"><ele>38.0</ele><time>2026-05-02T18:28:47Z</time></trkpt><trkpt lat="45.823078901738505" lon="13.5271959795334"><ele>43.5</ele><time>2026-05-02T18:28:48Z</time></trkpt><trkpt lat="45.82328348057252" lon="13.526905156504002"><ele>49.0</ele><time>2026-05-02T18:28:49Z</time></trkpt><trkpt lat="45.82349354182487" lon="13.52662235076213"><ele>49.0</ele><time>2026-05-02T18:28:50Z</time></trkpt><trkpt lat="45.82371208961842" lon="13.526341736638361"><ele>49.0</ele><time>2026-05-02T18:28:51Z</time></trkpt><trkpt lat="45.82392985552745" lon="13.526066546861022"><ele>49.0</ele><time>2026-05-02T18:28:52Z</time></trkpt><trkpt lat="45.82415249159516" lon="13.525795934382666"><ele>49.0</ele><time>2026-05-02T18:28:53Z</time></trkpt><trkpt lat="45.82437719108108" lon="13.525540289295057"><ele>41.0</ele><time>2026-05-02T18:28:54Z</time></trkpt><trkpt lat="45.82460119739451" lon="13.525283934729503"><ele>33.0</ele><time>2026-05-02T18:28:55Z</time></trkpt><trkpt lat="45.82482539255849" lon="13.525035250595904"><ele>33.0</ele><time>2026-05-02T18:28:56Z</time></trkpt><trkpt lat="45.82505574118023" lon="13.524793159409645"><ele>33.0</ele><time>2026-05-02T18:28:57Z</time></trkpt><trkpt lat="45.82528741316876" lon="13.524554626361066"><ele>32.5</ele><time>2026-05-02T18:28:58Z</time></trkpt><trkpt lat="45.82552111152414" lon="13.524310566811927"><ele>32.0</ele><time>2026-05-02T18:28:59Z</time></trkpt><trkpt lat="45.825754751255495" lon="13.524061283274506"><ele>31.5</ele><time>2026-05-02T18:29:00Z</time></trkpt><trkpt lat="45.825984606650984" lon="13.52380785678765"><ele>31.0</ele><time>2026-05-02T18:29:01Z</time></trkpt><trkpt lat="45.8261995702438" lon="13.523549003111446"><ele>31.0</ele><time>2026-05-02T18:29:02Z</time></trkpt><trkpt lat="45.82641509091642" lon="13.523273093246992"><ele>31.0</ele><time>2026-05-02T18:29:03Z</time></trkpt><trkpt lat="45.826629791867866" lon="13.522985627590488"><ele>36.5</ele><time>2026-05-02T18:29:04Z</time></trkpt><trkpt lat="45.82684407227507" lon="13.522694254358328"><ele>42.0</ele><time>2026-05-02T18:29:05Z</time></trkpt><trkpt lat="45.827053313874465" lon="13.522396545347485"><ele>42.0</ele><time>2026-05-02T18:29:06Z</time></trkpt><trkpt lat="45.82725823184833" lon="13.522074429425896"><ele>42.0</ele><time>2026-05-02T18:29:07Z</time></trkpt><trkpt lat="45.82745655195643" lon="13.521749589986223"><ele>41.0</ele><time>2026-05-02T18:29:08Z</time></trkpt><trkpt lat="45.82765080053609" lon="13.521416135978251"><ele>40.0</ele><time>2026-05-02T18:29:09Z</time></trkpt><trkpt lat="45.8278400211182" lon="13.521080792927837"><ele>40.0</ele><time>2026-05-02T18:29:10Z</time></trkpt><trkpt lat="45.82802323845282" lon="13.520743254256217"><ele>40.0</ele><time>2026-05-02T18:29:11Z</time></trkpt><trkpt lat="45.82820595239851" lon="13.520404986767907"><ele>42.0</ele><time>2026-05-02T18:29:12Z</time></trkpt><trkpt lat="45.828383354716095" lon="13.520069293956968"><ele>44.0</ele><time>2026-05-02T18:29:13Z</time></trkpt><trkpt lat="45.82856676908101" lon="13.51973918471578"><ele>38.5</ele><time>2026-05-02T18:29:14Z</time></trkpt><trkpt lat="45.828749297773115" lon="13.519420372007625"><ele>33.0</ele><time>2026-05-02T18:29:15Z</time></trkpt><trkpt lat="45.82893713568575" lon="13.519105908693584"><ele>33.0</ele><time>2026-05-02T18:29:16Z</time></trkpt><trkpt lat="45.829128624334224" lon="13.51878834247868"><ele>33.0</ele><time>2026-05-02T18:29:17Z</time></trkpt><trkpt lat="45.82933248577952" lon="13.518475307209664"><ele>33.0</ele><time>2026-05-02T18:29:18Z</time></trkpt><trkpt lat="45.82954605233728" lon="13.518171437156981"><ele>33.0</ele><time>2026-05-02T18:29:19Z</time></trkpt><trkpt lat="45.82976282969754" lon="13.51786987538532"><ele>35.0</ele><time>2026-05-02T18:29:20Z</time></trkpt><trkpt lat="45.829994027957106" lon="13.517584989244563"><ele>37.0</ele><time>2026-05-02T18:29:21Z</time></trkpt><trkpt lat="45.830228633042914" lon="13.517300350916715"><ele>30.0</ele><time>2026-05-02T18:29:22Z</time></trkpt><trkpt lat="45.830468969280396" lon="13.517020481765957"><ele>23.0</ele><time>2026-05-02T18:29:23Z</time></trkpt><trkpt lat="45.830713081742324" lon="13.516745633106943"><ele>23.0</ele><time>2026-05-02T18:29:24Z</time></trkpt><trkpt lat="45.83096814689163" lon="13.516486370156429"><ele>23.0</ele><time>2026-05-02T18:29:25Z</time></trkpt><trkpt lat="45.83122926251462" lon="13.516236911813442"><ele>22.5</ele><time>2026-05-02T18:29:26Z</time></trkpt><trkpt lat="45.83149440316713" lon="13.51598923352418"><ele>22.0</ele><time>2026-05-02T18:29:27Z</time></trkpt><trkpt lat="45.83176713664222" lon="13.515760193422725"><ele>22.0</ele><time>2026-05-02T18:29:28Z</time></trkpt><trkpt lat="45.83204186879841" lon="13.515540546039977"><ele>22.0</ele><time>2026-05-02T18:29:29Z</time></trkpt><trkpt lat="45.83232375440897" lon="13.515337735535976"><ele>22.0</ele><time>2026-05-02T18:29:30Z</time></trkpt><trkpt lat="45.83260849941595" lon="13.515151979063084"><ele>22.0</ele><time>2026-05-02T18:29:31Z</time></trkpt><trkpt lat="45.832891346494506" lon="13.514974768286509"><ele>25.5</ele><time>2026-05-02T18:29:32Z</time></trkpt><trkpt lat="45.833177608850214" lon="13.514807240426551"><ele>29.0</ele><time>2026-05-02T18:29:33Z</time></trkpt><trkpt lat="45.83346714639943" lon="13.514647251222025"><ele>27.5</ele><time>2026-05-02T18:29:34Z</time></trkpt><trkpt lat="45.83375324833611" lon="13.514488903100473"><ele>26.0</ele><time>2026-05-02T18:29:35Z</time></trkpt><trkpt lat="45.834045899089226" lon="13.514337808443523"><ele>28.0</ele><time>2026-05-02T18:29:36Z</time></trkpt><trkpt lat="45.83433593750637" lon="13.514177683495841"><ele>30.0</ele><time>2026-05-02T18:29:37Z</time></trkpt><trkpt lat="45.834626762698214" lon="13.514024484640364"><ele>30.0</ele><time>2026-05-02T18:29:38Z</time></trkpt><trkpt lat="45.834913958988196" lon="13.513870570991836"><ele>30.0</ele><time>2026-05-02T18:29:39Z</time></trkpt><trkpt lat="45.83519815228429" lon="13.513708402656535"><ele>29.0</ele><time>2026-05-02T18:29:40Z</time></trkpt><trkpt lat="45.83547919308747" lon="13.51354488905544"><ele>28.0</ele><time>2026-05-02T18:29:41Z</time></trkpt><trkpt lat="45.83575534866674" lon="13.513378276209284"><ele>30.5</ele><time>2026-05-02T18:29:42Z</time></trkpt><trkpt lat="45.83602493643307" lon="13.51320625272932"><ele>33.0</ele><time>2026-05-02T18:29:43Z</time></trkpt><trkpt lat="45.836293247485074" lon="13.513028515134792"><ele>32.0</ele><time>2026-05-02T18:29:44Z</time></trkpt><trkpt lat="45.83655732978365" lon="13.512839799905597"><ele>31.0</ele><time>2026-05-02T18:29:45Z</time></trkpt><trkpt lat="45.836816181673726" lon="13.51263844891597"><ele>36.5</ele><time>2026-05-02T18:29:46Z</time></trkpt><trkpt lat="45.83707058685482" lon="13.512426059899022"><ele>42.0</ele><time>2026-05-02T18:29:47Z</time></trkpt><trkpt lat="45.837320674587566" lon="13.51221013703429"><ele>43.0</ele><time>2026-05-02T18:29:48Z</time></trkpt><trkpt lat="45.83756629472672" lon="13.511988600192163"><ele>44.0</ele><time>2026-05-02T18:29:49Z</time></trkpt><trkpt lat="45.83781230203735" lon="13.511762309413882"><ele>44.0</ele><time>2026-05-02T18:29:50Z</time></trkpt><trkpt lat="45.83805645719529" lon="13.511523166175802"><ele>44.0</ele><time>2026-05-02T18:29:51Z</time></trkpt><trkpt lat="45.83829862175272" lon="13.511272185680168"><ele>46.0</ele><time>2026-05-02T18:29:52Z</time></trkpt><trkpt lat="45.83853702605082" lon="13.511015431234743"><ele>48.0</ele><time>2026-05-02T18:29:53Z</time></trkpt><trkpt lat="45.838772874155374" lon="13.510742760886929"><ele>48.0</ele><time>2026-05-02T18:29:54Z</time></trkpt><trkpt lat="45.83900611562342" lon="13.510465635987625"><ele>48.0</ele><time>2026-05-02T18:29:55Z</time></trkpt><trkpt lat="45.839234766906664" lon="13.510177615442531"><ele>50.5</ele><time>2026-05-02T18:29:56Z</time></trkpt><trkpt lat="45.8394567108522" lon="13.509895323713188"><ele>53.0</ele><time>2026-05-02T18:29:57Z</time></trkpt><trkpt lat="45.83966904038681" lon="13.509596606690831"><ele>45.0</ele><time>2026-05-02T18:29:58Z</time></trkpt><trkpt lat="45.83986949167571" lon="13.509283889871503"><ele>37.0</ele><time>2026-05-02T18:29:59Z</time></trkpt><trkpt lat="45.84006927692135" lon="13.508980901535232"><ele>43.5</ele><time>2026-05-02T18:30:00Z</time></trkpt><trkpt lat="45.840265469923" lon="13.508666075224408"><ele>50.0</ele><time>2026-05-02T18:30:01Z</time></trkpt><trkpt lat="45.840456725168075" lon="13.508355858000659"><ele>50.0</ele><time>2026-05-02T18:30:02Z</time></trkpt><trkpt lat="45.84063770193569" lon="13.508043690906435"><ele>50.0</ele><time>2026-05-02T18:30:03Z</time></trkpt><trkpt lat="45.8408072334338" lon="13.507721344393028"><ele>49.5</ele><time>2026-05-02T18:30:04Z</time></trkpt><trkpt lat="45.840968753235806" lon="13.507397893017945"><ele>49.0</ele><time>2026-05-02T18:30:05Z</time></trkpt><trkpt lat="45.841118158650886" lon="13.507076600301485"><ele>49.0</ele><time>2026-05-02T18:30:06Z</time></trkpt><trkpt lat="45.84125507893751" lon="13.506738675016704"><ele>49.0</ele><time>2026-05-02T18:30:07Z</time></trkpt><trkpt lat="45.84137910477387" lon="13.506406814801434"><ele>40.5</ele><time>2026-05-02T18:30:08Z</time></trkpt><trkpt lat="45.84149394328376" lon="13.506073305212047"><ele>32.0</ele><time>2026-05-02T18:30:09Z</time></trkpt><trkpt lat="45.84160324610784" lon="13.505753138088"><ele>32.0</ele><time>2026-05-02T18:30:10Z</time></trkpt><trkpt lat="45.841703916288" lon="13.505432557357725"><ele>32.0</ele><time>2026-05-02T18:30:11Z</time></trkpt><trkpt lat="45.841797188471034" lon="13.505115333742243"><ele>37.0</ele><time>2026-05-02T18:30:12Z</time></trkpt><trkpt lat="45.84189104794554" lon="13.504803260688767"><ele>42.0</ele><time>2026-05-02T18:30:13Z</time></trkpt><trkpt lat="45.84197619556069" lon="13.504483095348156"><ele>42.0</ele><time>2026-05-02T18:30:14Z</time></trkpt><trkpt lat="45.84206446632651" lon="13.504173859260769"><ele>42.0</ele><time>2026-05-02T18:30:15Z</time></trkpt><trkpt lat="45.842142322136034" lon="13.50386175920884"><ele>40.5</ele><time>2026-05-02T18:30:16Z</time></trkpt><trkpt lat="45.84221821254372" lon="13.503549845695197"><ele>39.0</ele><time>2026-05-02T18:30:17Z</time></trkpt><trkpt lat="45.842293821898075" lon="13.503242007472561"><ele>39.0</ele><time>2026-05-02T18:30:18Z</time></trkpt><trkpt lat="45.84236456984266" lon="13.502936968977767"><ele>39.0</ele><time>2026-05-02T18:30:19Z</time></trkpt><trkpt lat="45.8424332693015" lon="13.502637169046526"><ele>39.0</ele><time>2026-05-02T18:30:20Z</time></trkpt><trkpt lat="45.842505019263754" lon="13.502346584800371"><ele>43.0</ele><time>2026-05-02T18:30:21Z</time></trkpt><trkpt lat="45.84257208157784" lon="13.502052995295246"><ele>47.0</ele><time>2026-05-02T18:30:22Z</time></trkpt><trkpt lat="45.84263860523575" lon="13.501752038517907"><ele>51.0</ele><time>2026-05-02T18:30:23Z</time></trkpt><trkpt lat="45.84270282615031" lon="13.501446748501495"><ele>40.5</ele><time>2026-05-02T18:30:24Z</time></trkpt><trkpt lat="45.842768997107285" lon="13.50113630849119"><ele>30.0</ele><time>2026-05-02T18:30:25Z</time></trkpt><trkpt lat="45.842837705649906" lon="13.500815132274035"><ele>30.0</ele><time>2026-05-02T18:30:26Z</time></trkpt><trkpt lat="45.84290150033219" lon="13.500491721913425"><ele>30.0</ele><time>2026-05-02T18:30:27Z</time></trkpt><trkpt lat="45.84296045350548" lon="13.50015425957306"><ele>24.5</ele><time>2026-05-02T18:30:28Z</time></trkpt><trkpt lat="45.84302554712482" lon="13.499816317362486"><ele>19.0</ele><time>2026-05-02T18:30:29Z</time></trkpt><trkpt lat="45.843078068737036" lon="13.49946906297377"><ele>17.5</ele><time>2026-05-02T18:30:30Z</time></trkpt><trkpt lat="45.84312770123796" lon="13.499106489359278"><ele>16.0</ele><time>2026-05-02T18:30:31Z</time></trkpt><trkpt lat="45.843172538351205" lon="13.498730076544508"><ele>14.0</ele><time>2026-05-02T18:30:32Z</time></trkpt><trkpt lat="45.84321728743861" lon="13.49833973908801"><ele>12.0</ele><time>2026-05-02T18:30:33Z</time></trkpt><trkpt lat="45.84324366990985" lon="13.497938731890862"><ele>11.5</ele><time>2026-05-02T18:30:34Z</time></trkpt><trkpt lat="45.84326310578468" lon="13.49753061621442"><ele>11.0</ele><time>2026-05-02T18:30:35Z</time></trkpt><trkpt lat="45.843273623278314" lon="13.497114810785765"><ele>11.5</ele><time>2026-05-02T18:30:36Z</time></trkpt><trkpt lat="45.84326976594453" lon="13.496701711092367"><ele>12.0</ele><time>2026-05-02T18:30:37Z</time></trkpt><trkpt lat="45.8432587305504" lon="13.496288007189042"><ele>13.5</ele><time>2026-05-02T18:30:38Z</time></trkpt><trkpt lat="45.843235755152776" lon="13.49587124960733"><ele>15.0</ele><time>2026-05-02T18:30:39Z</time></trkpt><trkpt lat="45.84321338637447" lon="13.495466144974982"><ele>15.0</ele><time>2026-05-02T18:30:40Z</time></trkpt><trkpt lat="45.84318283676815" lon="13.495053707183738"><ele>15.0</ele><time>2026-05-02T18:30:41Z</time></trkpt><trkpt lat="45.843150897448844" lon="13.49464848737088"><ele>14.5</ele><time>2026-05-02T18:30:42Z</time></trkpt><trkpt lat="45.84311048894186" lon="13.494249116367605"><ele>14.0</ele><time>2026-05-02T18:30:43Z</time></trkpt><trkpt lat="45.84306233204725" lon="13.4938572548029"><ele>14.0</ele><time>2026-05-02T18:30:44Z</time></trkpt><trkpt lat="45.84300586463584" lon="13.493463226237676"><ele>14.0</ele><time>2026-05-02T18:30:45Z</time></trkpt><trkpt lat="45.84294544062261" lon="13.493074274453537"><ele>12.5</ele><time>2026-05-02T18:30:46Z</time></trkpt><trkpt lat="45.84287648398234" lon="13.49268574816262"><ele>11.0</ele><time>2026-05-02T18:30:47Z</time></trkpt><trkpt lat="45.84280654302176" lon="13.492301391822847"><ele>10.0</ele><time>2026-05-02T18:30:48Z</time></trkpt><trkpt lat="45.84273509069995" lon="13.491915443725162"><ele>9.0</ele><time>2026-05-02T18:30:49Z</time></trkpt><trkpt lat="45.842664845039565" lon="13.491541600338884"><ele>10.0</ele><time>2026-05-02T18:30:50Z</time></trkpt><trkpt lat="45.84260160321579" lon="13.491174341547238"><ele>11.0</ele><time>2026-05-02T18:30:51Z</time></trkpt><trkpt lat="45.84253465973586" lon="13.490810544854806"><ele>11.0</ele><time>2026-05-02T18:30:52Z</time></trkpt><trkpt lat="45.84247118050893" lon="13.49044644420088"><ele>11.0</ele><time>2026-05-02T18:30:53Z</time></trkpt><trkpt lat="45.84240882647155" lon="13.490086425048531"><ele>13.0</ele><time>2026-05-02T18:30:54Z</time></trkpt><trkpt lat="45.84235064575066" lon="13.489721585728608"><ele>15.0</ele><time>2026-05-02T18:30:55Z</time></trkpt><trkpt lat="45.84230199893883" lon="13.489345453412785"><ele>15.0</ele><time>2026-05-02T18:30:56Z</time></trkpt><trkpt lat="45.84226453260404" lon="13.488966980743985"><ele>15.0</ele><time>2026-05-02T18:30:57Z</time></trkpt><trkpt lat="45.84223592667665" lon="13.488593738078183"><ele>14.0</ele><time>2026-05-02T18:30:58Z</time></trkpt><trkpt lat="45.84221550493431" lon="13.488219673747292"><ele>13.0</ele><time>2026-05-02T18:30:59Z</time></trkpt><trkpt lat="45.84220436310304" lon="13.487845385353907"><ele>12.5</ele><time>2026-05-02T18:31:00Z</time></trkpt><trkpt lat="45.84220068975981" lon="13.48747977086814"><ele>12.0</ele><time>2026-05-02T18:31:01Z</time></trkpt><trkpt lat="45.84220965528445" lon="13.487104379192289"><ele>12.5</ele><time>2026-05-02T18:31:02Z</time></trkpt><trkpt lat="45.84222971165383" lon="13.486725988797499"><ele>13.0</ele><time>2026-05-02T18:31:03Z</time></trkpt><trkpt lat="45.842257769845595" lon="13.4863365929377"><ele>12.0</ele><time>2026-05-02T18:31:04Z</time></trkpt><trkpt lat="45.842291184068564" lon="13.48594349747848"><ele>11.0</ele><time>2026-05-02T18:31:05Z</time></trkpt><trkpt lat="45.84233429318982" lon="13.48554148531637"><ele>11.5</ele><time>2026-05-02T18:31:06Z</time></trkpt><trkpt lat="45.84239293359313" lon="13.485143266766368"><ele>12.0</ele><time>2026-05-02T18:31:07Z</time></trkpt><trkpt lat="45.84246239435269" lon="13.484742118512534"><ele>13.0</ele><time>2026-05-02T18:31:08Z</time></trkpt><trkpt lat="45.84254082826833" lon="13.484345436538712"><ele>14.0</ele><time>2026-05-02T18:31:09Z</time></trkpt><trkpt lat="45.84261933288169" lon="13.483950247832201"><ele>13.0</ele><time>2026-05-02T18:31:10Z</time></trkpt><trkpt lat="45.842711656862576" lon="13.483570412487556"><ele>12.0</ele><time>2026-05-02T18:31:11Z</time></trkpt><trkpt lat="45.842815119444" lon="13.483195563492604"><ele>12.0</ele><time>2026-05-02T18:31:12Z</time></trkpt><trkpt lat="45.84292695295765" lon="13.48283730150315"><ele>12.0</ele><time>2026-05-02T18:31:13Z</time></trkpt><trkpt lat="45.84304365219031" lon="13.482479050902151"><ele>12.0</ele><time>2026-05-02T18:31:14Z</time></trkpt><trkpt lat="45.84317710434833" lon="13.482123298326066"><ele>12.0</ele><time>2026-05-02T18:31:15Z</time></trkpt><trkpt lat="45.84331596653703" lon="13.481762506328336"><ele>12.0</ele><time>2026-05-02T18:31:16Z</time></trkpt><trkpt lat="45.84345731334934" lon="13.48139921285182"><ele>12.0</ele><time>2026-05-02T18:31:17Z</time></trkpt><trkpt lat="45.84360412533291" lon="13.481038561795822"><ele>12.0</ele><time>2026-05-02T18:31:18Z</time></trkpt><trkpt lat="45.843751417418176" lon="13.480672343152143"><ele>12.0</ele><time>2026-05-02T18:31:19Z</time></trkpt><trkpt lat="45.84389734719322" lon="13.480305159308545"><ele>12.0</ele><time>2026-05-02T18:31:20Z</time></trkpt><trkpt lat="45.84405168195244" lon="13.47993562898193"><ele>12.0</ele><time>2026-05-02T18:31:21Z</time></trkpt><trkpt lat="45.84420550435362" lon="13.479560666405838"><ele>14.0</ele><time>2026-05-02T18:31:22Z</time></trkpt><trkpt lat="45.84436130392473" lon="13.479178213262568"><ele>16.0</ele><time>2026-05-02T18:31:23Z</time></trkpt><trkpt lat="45.844518146831824" lon="13.478799052868311"><ele>16.0</ele><time>2026-05-02T18:31:24Z</time></trkpt><trkpt lat="45.844674975283404" lon="13.478415491548462"><ele>16.0</ele><time>2026-05-02T18:31:25Z</time></trkpt><trkpt lat="45.84483022231122" lon="13.47803009001266"><ele>15.0</ele><time>2026-05-02T18:31:26Z</time></trkpt><trkpt lat="45.844989482037214" lon="13.477637634743658"><ele>14.0</ele><time>2026-05-02T18:31:27Z</time></trkpt><trkpt lat="45.84515330576016" lon="13.477243982124582"><ele>13.5</ele><time>2026-05-02T18:31:28Z</time></trkpt><trkpt lat="45.84531574514147" lon="13.47684761359031"><ele>13.0</ele><time>2026-05-02T18:31:29Z</time></trkpt><trkpt lat="45.845478876087626" lon="13.47644566049628"><ele>13.5</ele><time>2026-05-02T18:31:30Z</time></trkpt><trkpt lat="45.84564529753644" lon="13.476047024608672"><ele>14.0</ele><time>2026-05-02T18:31:31Z</time></trkpt><trkpt lat="45.84580912512499" lon="13.475642626897924"><ele>14.5</ele><time>2026-05-02T18:31:32Z</time></trkpt><trkpt lat="45.84597688374364" lon="13.475237142498612"><ele>15.0</ele><time>2026-05-02T18:31:33Z</time></trkpt><trkpt lat="45.8461473369026" lon="13.474830269935568"><ele>14.5</ele><time>2026-05-02T18:31:34Z</time></trkpt><trkpt lat="45.84631501260866" lon="13.474416501847125"><ele>14.0</ele><time>2026-05-02T18:31:35Z</time></trkpt><trkpt lat="45.846486179556024" lon="13.474006895423353"><ele>13.5</ele><time>2026-05-02T18:31:36Z</time></trkpt><trkpt lat="45.846661985505435" lon="13.473594784136447"><ele>13.0</ele><time>2026-05-02T18:31:37Z</time></trkpt><trkpt lat="45.84684026408272" lon="13.473176862766602"><ele>15.0</ele><time>2026-05-02T18:31:38Z</time></trkpt><trkpt lat="45.84701494068945" lon="13.472760078361798"><ele>17.0</ele><time>2026-05-02T18:31:39Z</time></trkpt><trkpt lat="45.84718643571769" lon="13.472343225363288"><ele>16.5</ele><time>2026-05-02T18:31:40Z</time></trkpt><trkpt lat="45.84736019706809" lon="13.471927478037937"><ele>16.0</ele><time>2026-05-02T18:31:41Z</time></trkpt><trkpt lat="45.847533924322654" lon="13.47151006383825"><ele>15.5</ele><time>2026-05-02T18:31:42Z</time></trkpt><trkpt lat="45.847706954626325" lon="13.47108980626917"><ele>15.0</ele><time>2026-05-02T18:31:43Z</time></trkpt><trkpt lat="45.84787740910194" lon="13.4706685576037"><ele>15.5</ele><time>2026-05-02T18:31:44Z</time></trkpt><trkpt lat="45.84805223905331" lon="13.47024990289564"><ele>16.0</ele><time>2026-05-02T18:31:45Z</time></trkpt><trkpt lat="45.84822641705114" lon="13.46982769718593"><ele>16.0</ele><time>2026-05-02T18:31:46Z</time></trkpt><trkpt lat="45.84839914294376" lon="13.46940411060808"><ele>16.0</ele><time>2026-05-02T18:31:47Z</time></trkpt><trkpt lat="45.84857034245909" lon="13.46898680224448"><ele>16.0</ele><time>2026-05-02T18:31:48Z</time></trkpt><trkpt lat="45.848740922575494" lon="13.468567675489501"><ele>16.0</ele><time>2026-05-02T18:31:49Z</time></trkpt><trkpt lat="45.84891221221931" lon="13.468148469284055"><ele>16.0</ele><time>2026-05-02T18:31:50Z</time></trkpt><trkpt lat="45.84908534651565" lon="13.467727339226995"><ele>16.0</ele><time>2026-05-02T18:31:51Z</time></trkpt><trkpt lat="45.849258596727985" lon="13.467305762187076"><ele>16.0</ele><time>2026-05-02T18:31:52Z</time></trkpt><trkpt lat="45.84943040334281" lon="13.466884130057315"><ele>16.0</ele><time>2026-05-02T18:31:53Z</time></trkpt><trkpt lat="45.84960239781374" lon="13.466463322025723"><ele>15.0</ele><time>2026-05-02T18:31:54Z</time></trkpt><trkpt lat="45.849771052252464" lon="13.466039658507105"><ele>14.0</ele><time>2026-05-02T18:31:55Z</time></trkpt><trkpt lat="45.84993931214469" lon="13.465613779026869"><ele>14.5</ele><time>2026-05-02T18:31:56Z</time></trkpt><trkpt lat="45.850112223191516" lon="13.465189388045141"><ele>15.0</ele><time>2026-05-02T18:31:57Z</time></trkpt><trkpt lat="45.85028144679797" lon="13.464765309089405"><ele>15.5</ele><time>2026-05-02T18:31:58Z</time></trkpt><trkpt lat="45.85045315350097" lon="13.464344147194893"><ele>16.0</ele><time>2026-05-02T18:31:59Z</time></trkpt><trkpt lat="45.85062420286433" lon="13.46392465432465"><ele>16.0</ele><time>2026-05-02T18:32:00Z</time></trkpt><trkpt lat="45.85079374962307" lon="13.463501608290732"><ele>16.0</ele><time>2026-05-02T18:32:01Z</time></trkpt><trkpt lat="45.850960514704354" lon="13.463075607477695"><ele>15.5</ele><time>2026-05-02T18:32:02Z</time></trkpt><trkpt lat="45.85112618180075" lon="13.462647442726459"><ele>15.0</ele><time>2026-05-02T18:32:03Z</time></trkpt><trkpt lat="45.85128768073013" lon="13.462216801872453"><ele>16.0</ele><time>2026-05-02T18:32:04Z</time></trkpt><trkpt lat="45.85144518388405" lon="13.46178719395487"><ele>17.0</ele><time>2026-05-02T18:32:05Z</time></trkpt><trkpt lat="45.851591037247964" lon="13.461346199503357"><ele>16.5</ele><time>2026-05-02T18:32:06Z</time></trkpt><trkpt lat="45.8517227719147" lon="13.460904619495668"><ele>16.0</ele><time>2026-05-02T18:32:07Z</time></trkpt><trkpt lat="45.8518426428623" lon="13.46044874289023"><ele>16.0</ele><time>2026-05-02T18:32:08Z</time></trkpt><trkpt lat="45.851959344992764" lon="13.459988182955025"><ele>16.0</ele><time>2026-05-02T18:32:09Z</time></trkpt><trkpt lat="45.852064016660506" lon="13.459528610938467"><ele>16.0</ele><time>2026-05-02T18:32:10Z</time></trkpt><trkpt lat="45.85216372446686" lon="13.459065028594914"><ele>16.0</ele><time>2026-05-02T18:32:11Z</time></trkpt><trkpt lat="45.85225536325492" lon="13.458597864739577"><ele>16.0</ele><time>2026-05-02T18:32:12Z</time></trkpt><trkpt lat="45.85234498698354" lon="13.45812814249005"><ele>16.0</ele><time>2026-05-02T18:32:13Z</time></trkpt><trkpt lat="45.852427873236444" lon="13.45765366849649"><ele>16.0</ele><time>2026-05-02T18:32:14Z</time></trkpt><trkpt lat="45.852501596044846" lon="13.457171703564123"><ele>16.0</ele><time>2026-05-02T18:32:15Z</time></trkpt><trkpt lat="45.85257381555135" lon="13.456692752363733"><ele>15.5</ele><time>2026-05-02T18:32:16Z</time></trkpt><trkpt lat="45.85264475970023" lon="13.456211992902055"><ele>15.0</ele><time>2026-05-02T18:32:17Z</time></trkpt><trkpt lat="45.85271598855001" lon="13.455732186640688"><ele>14.5</ele><time>2026-05-02T18:32:18Z</time></trkpt><trkpt lat="45.85278867459939" lon="13.455258757737043"><ele>14.0</ele><time>2026-05-02T18:32:19Z</time></trkpt><trkpt lat="45.85286172445686" lon="13.454780918894098"><ele>13.5</ele><time>2026-05-02T18:32:20Z</time></trkpt><trkpt lat="45.852933227056795" lon="13.454304051724009"><ele>13.0</ele><time>2026-05-02T18:32:21Z</time></trkpt><trkpt lat="45.85300093863759" lon="13.453821998564171"><ele>12.5</ele><time>2026-05-02T18:32:22Z</time></trkpt><trkpt lat="45.85307533055918" lon="13.453343450464141"><ele>12.0</ele><time>2026-05-02T18:32:23Z</time></trkpt><trkpt lat="45.85314296788492" lon="13.452866860960315"><ele>13.0</ele><time>2026-05-02T18:32:24Z</time></trkpt><trkpt lat="45.85321321392763" lon="13.452388094538978"><ele>14.0</ele><time>2026-05-02T18:32:25Z</time></trkpt><trkpt lat="45.85328463103505" lon="13.451914349452469"><ele>14.5</ele><time>2026-05-02T18:32:26Z</time></trkpt><trkpt lat="45.85335633388954" lon="13.451435863214943"><ele>15.0</ele><time>2026-05-02T18:32:27Z</time></trkpt><trkpt lat="45.853428829213584" lon="13.450954583083197"><ele>15.0</ele><time>2026-05-02T18:32:28Z</time></trkpt><trkpt lat="45.85350169907314" lon="13.450477572138176"><ele>15.0</ele><time>2026-05-02T18:32:29Z</time></trkpt><trkpt lat="45.85357402850966" lon="13.450002687492411"><ele>15.0</ele><time>2026-05-02T18:32:30Z</time></trkpt><trkpt lat="45.85364885250361" lon="13.44952458739189"><ele>15.0</ele><time>2026-05-02T18:32:31Z</time></trkpt><trkpt lat="45.85372178114867" lon="13.449045724202296"><ele>15.0</ele><time>2026-05-02T18:32:32Z</time></trkpt><trkpt lat="45.85379419058559" lon="13.448567847798582"><ele>15.0</ele><time>2026-05-02T18:32:33Z</time></trkpt><trkpt lat="45.85386667471071" lon="13.44809068413834"><ele>14.5</ele><time>2026-05-02T18:32:34Z</time></trkpt><trkpt lat="45.85393904737444" lon="13.447617177296669"><ele>14.0</ele><time>2026-05-02T18:32:35Z</time></trkpt><trkpt lat="45.854011143363685" lon="13.44713781417989"><ele>14.5</ele><time>2026-05-02T18:32:36Z</time></trkpt><trkpt lat="45.854082797907616" lon="13.446661030370226"><ele>15.0</ele><time>2026-05-02T18:32:37Z</time></trkpt><trkpt lat="45.854148681291115" lon="13.446181379909603"><ele>15.0</ele><time>2026-05-02T18:32:38Z</time></trkpt><trkpt lat="45.85421150586956" lon="13.44569873883201"><ele>15.0</ele><time>2026-05-02T18:32:39Z</time></trkpt><trkpt lat="45.854273047018474" lon="13.44521511961282"><ele>14.5</ele><time>2026-05-02T18:32:40Z</time></trkpt><trkpt lat="45.85433689639013" lon="13.444733207021903"><ele>14.0</ele><time>2026-05-02T18:32:41Z</time></trkpt><trkpt lat="45.85439884649811" lon="13.444253113063228"><ele>13.5</ele><time>2026-05-02T18:32:42Z</time></trkpt><trkpt lat="45.854461420757396" lon="13.443773360434843"><ele>13.0</ele><time>2026-05-02T18:32:43Z</time></trkpt><trkpt lat="45.85452737209128" lon="13.4432945664907"><ele>13.0</ele><time>2026-05-02T18:32:44Z</time></trkpt><trkpt lat="45.854590565807385" lon="13.442815928318469"><ele>13.0</ele><time>2026-05-02T18:32:45Z</time></trkpt><trkpt lat="45.85465410602649" lon="13.442339542829258"><ele>12.5</ele><time>2026-05-02T18:32:46Z</time></trkpt><trkpt lat="45.854721408246164" lon="13.441856944260339"><ele>12.0</ele><time>2026-05-02T18:32:47Z</time></trkpt><trkpt lat="45.85479050635737" lon="13.441380841246735"><ele>12.0</ele><time>2026-05-02T18:32:48Z</time></trkpt><trkpt lat="45.854866471643206" lon="13.44091053153775"><ele>12.0</ele><time>2026-05-02T18:32:49Z</time></trkpt><trkpt lat="45.854939724484666" lon="13.440435505270388"><ele>12.0</ele><time>2026-05-02T18:32:50Z</time></trkpt><trkpt lat="45.85501448371753" lon="13.439962992348281"><ele>12.0</ele><time>2026-05-02T18:32:51Z</time></trkpt><trkpt lat="45.85508102008966" lon="13.439486753880399"><ele>12.5</ele><time>2026-05-02T18:32:52Z</time></trkpt><trkpt lat="45.85514860723961" lon="13.439016552116682"><ele>13.0</ele><time>2026-05-02T18:32:53Z</time></trkpt><trkpt lat="45.85521876873556" lon="13.438543251702702"><ele>13.0</ele><time>2026-05-02T18:32:54Z</time></trkpt><trkpt lat="45.855288764508934" lon="13.438069478058518"><ele>13.0</ele><time>2026-05-02T18:32:55Z</time></trkpt><trkpt lat="45.85535962414207" lon="13.437590245970426"><ele>12.5</ele><time>2026-05-02T18:32:56Z</time></trkpt><trkpt lat="45.855434685405385" lon="13.437117371815882"><ele>12.0</ele><time>2026-05-02T18:32:57Z</time></trkpt><trkpt lat="45.85550836082193" lon="13.436643985759282"><ele>13.0</ele><time>2026-05-02T18:32:58Z</time></trkpt><trkpt lat="45.85559053349449" lon="13.436170757180113"><ele>14.0</ele><time>2026-05-02T18:32:59Z</time></trkpt><trkpt lat="45.855682580998376" lon="13.435702743149262"><ele>13.5</ele><time>2026-05-02T18:33:00Z</time></trkpt><trkpt lat="45.85578952188649" lon="13.435238296787889"><ele>13.0</ele><time>2026-05-02T18:33:01Z</time></trkpt><trkpt lat="45.85590016315341" lon="13.43477166430182"><ele>13.5</ele><time>2026-05-02T18:33:02Z</time></trkpt><trkpt lat="45.85601971114267" lon="13.434313088156701"><ele>14.0</ele><time>2026-05-02T18:33:03Z</time></trkpt><trkpt lat="45.85615073115772" lon="13.433866530099044"><ele>13.5</ele><time>2026-05-02T18:33:04Z</time></trkpt><trkpt lat="45.856287938541136" lon="13.433416788585012"><ele>13.0</ele><time>2026-05-02T18:33:05Z</time></trkpt><trkpt lat="45.85643366830686" lon="13.432967517266508"><ele>13.0</ele><time>2026-05-02T18:33:06Z</time></trkpt><trkpt lat="45.8565843172169" lon="13.432532776902955"><ele>13.0</ele><time>2026-05-02T18:33:07Z</time></trkpt><trkpt lat="45.85673608715859" lon="13.432092754400236"><ele>14.0</ele><time>2026-05-02T18:33:08Z</time></trkpt><trkpt lat="45.85689714814666" lon="13.431664280027501"><ele>15.0</ele><time>2026-05-02T18:33:09Z</time></trkpt><trkpt lat="45.85706992101157" lon="13.431246265109348"><ele>15.0</ele><time>2026-05-02T18:33:10Z</time></trkpt><trkpt lat="45.85725222627039" lon="13.430835399546298"><ele>15.0</ele><time>2026-05-02T18:33:11Z</time></trkpt><trkpt lat="45.85743459120431" lon="13.43042536723922"><ele>15.0</ele><time>2026-05-02T18:33:12Z</time></trkpt><trkpt lat="45.85761658405601" lon="13.430009738221264"><ele>15.0</ele><time>2026-05-02T18:33:13Z</time></trkpt><trkpt lat="45.85779377026044" lon="13.429587448409903"><ele>15.0</ele><time>2026-05-02T18:33:14Z</time></trkpt><trkpt lat="45.857966122627616" lon="13.429161733137908"><ele>15.0</ele><time>2026-05-02T18:33:15Z</time></trkpt><trkpt lat="45.858140735822175" lon="13.42874034950487"><ele>14.5</ele><time>2026-05-02T18:33:16Z</time></trkpt><trkpt lat="45.858316065559244" lon="13.428323369667734"><ele>14.0</ele><time>2026-05-02T18:33:17Z</time></trkpt><trkpt lat="45.85849173496695" lon="13.427900775915985"><ele>14.5</ele><time>2026-05-02T18:33:18Z</time></trkpt><trkpt lat="45.858668688618295" lon="13.427483100296682"><ele>15.0</ele><time>2026-05-02T18:33:19Z</time></trkpt><trkpt lat="45.85884219277608" lon="13.42706460083913"><ele>15.0</ele><time>2026-05-02T18:33:20Z</time></trkpt><trkpt lat="45.85901618609633" lon="13.426648586965234"><ele>15.0</ele><time>2026-05-02T18:33:21Z</time></trkpt><trkpt lat="45.85918637017076" lon="13.426224750033043"><ele>15.0</ele><time>2026-05-02T18:33:22Z</time></trkpt><trkpt lat="45.85936084841809" lon="13.425810317352864"><ele>15.0</ele><time>2026-05-02T18:33:23Z</time></trkpt><trkpt lat="45.85953656229472" lon="13.42539117120075"><ele>15.0</ele><time>2026-05-02T18:33:24Z</time></trkpt><trkpt lat="45.85970851286921" lon="13.424971492395818"><ele>15.0</ele><time>2026-05-02T18:33:25Z</time></trkpt><trkpt lat="45.85988128262564" lon="13.424552541632552"><ele>15.0</ele><time>2026-05-02T18:33:26Z</time></trkpt><trkpt lat="45.860053642634284" lon="13.424133839414466"><ele>15.0</ele><time>2026-05-02T18:33:27Z</time></trkpt><trkpt lat="45.86022931410946" lon="13.423713767630764"><ele>14.5</ele><time>2026-05-02T18:33:28Z</time></trkpt><trkpt lat="45.860405695914594" lon="13.423294675468632"><ele>14.0</ele><time>2026-05-02T18:33:29Z</time></trkpt><trkpt lat="45.86058310514673" lon="13.422877025776199"><ele>15.5</ele><time>2026-05-02T18:33:30Z</time></trkpt><trkpt lat="45.86076875461017" lon="13.422471090237432"><ele>17.0</ele><time>2026-05-02T18:33:31Z</time></trkpt><trkpt lat="45.86095759782354" lon="13.422061115488315"><ele>17.0</ele><time>2026-05-02T18:33:32Z</time></trkpt><trkpt lat="45.86113247724652" lon="13.421645539667118"><ele>17.0</ele><time>2026-05-02T18:33:33Z</time></trkpt><trkpt lat="45.861311722012175" lon="13.42123282571135"><ele>16.5</ele><time>2026-05-02T18:33:34Z</time></trkpt><trkpt lat="45.86149400201118" lon="13.420814176546381"><ele>16.0</ele><time>2026-05-02T18:33:35Z</time></trkpt><trkpt lat="45.86167464505534" lon="13.420401291860045"><ele>16.0</ele><time>2026-05-02T18:33:36Z</time></trkpt><trkpt lat="45.861856284575346" lon="13.419986702315224"><ele>16.0</ele><time>2026-05-02T18:33:37Z</time></trkpt><trkpt lat="45.8620340898274" lon="13.41957025770938"><ele>16.0</ele><time>2026-05-02T18:33:38Z</time></trkpt><trkpt lat="45.862211496779" lon="13.419157323328616"><ele>16.0</ele><time>2026-05-02T18:33:39Z</time></trkpt><trkpt lat="45.862387169464704" lon="13.418732828768864"><ele>15.5</ele><time>2026-05-02T18:33:40Z</time></trkpt><trkpt lat="45.86255958739949" lon="13.418309721041839"><ele>15.0</ele><time>2026-05-02T18:33:41Z</time></trkpt><trkpt lat="45.86273442721251" lon="13.417886276986284"><ele>15.0</ele><time>2026-05-02T18:33:42Z</time></trkpt><trkpt lat="45.86290767239927" lon="13.41746195344955"><ele>15.0</ele><time>2026-05-02T18:33:43Z</time></trkpt><trkpt lat="45.86308159726216" lon="13.417044552333415"><ele>15.0</ele><time>2026-05-02T18:33:44Z</time></trkpt><trkpt lat="45.86325564838623" lon="13.416626564503991"><ele>15.0</ele><time>2026-05-02T18:33:45Z</time></trkpt><trkpt lat="45.863428453944934" lon="13.416204151688877"><ele>14.5</ele><time>2026-05-02T18:33:46Z</time></trkpt><trkpt lat="45.86360215992744" lon="13.415783545975708"><ele>14.0</ele><time>2026-05-02T18:33:47Z</time></trkpt><trkpt lat="45.86377918728548" lon="13.415366447154048"><ele>14.0</ele><time>2026-05-02T18:33:48Z</time></trkpt><trkpt lat="45.863951040330775" lon="13.41494397050789"><ele>14.0</ele><time>2026-05-02T18:33:49Z</time></trkpt><trkpt lat="45.864122630766914" lon="13.414518665945497"><ele>12.5</ele><time>2026-05-02T18:33:50Z</time></trkpt><trkpt lat="45.86429649791753" lon="13.4140955290707"><ele>11.0</ele><time>2026-05-02T18:33:51Z</time></trkpt><trkpt lat="45.86447111006729" lon="13.413675208461727"><ele>11.0</ele><time>2026-05-02T18:33:52Z</time></trkpt><trkpt lat="45.86464557465028" lon="13.413256787538606"><ele>11.0</ele><time>2026-05-02T18:33:53Z</time></trkpt><trkpt lat="45.864818521118224" lon="13.41283565260919"><ele>13.0</ele><time>2026-05-02T18:33:54Z</time></trkpt><trkpt lat="45.86499218910526" lon="13.41241418427794"><ele>15.0</ele><time>2026-05-02T18:33:55Z</time></trkpt><trkpt lat="45.86516750160775" lon="13.41199118440624"><ele>16.5</ele><time>2026-05-02T18:33:56Z</time></trkpt><trkpt lat="45.865343099497814" lon="13.411571940795108"><ele>18.0</ele><time>2026-05-02T18:33:57Z</time></trkpt><trkpt lat="45.86551388005811" lon="13.411150456071482"><ele>18.0</ele><time>2026-05-02T18:33:58Z</time></trkpt><trkpt lat="45.865687242661586" lon="13.410728587331054"><ele>18.0</ele><time>2026-05-02T18:33:59Z</time></trkpt><trkpt lat="45.865860299738976" lon="13.41030783438768"><ele>16.5</ele><time>2026-05-02T18:34:00Z</time></trkpt><trkpt lat="45.866032987191225" lon="13.409886368160395"><ele>15.0</ele><time>2026-05-02T18:34:01Z</time></trkpt><trkpt lat="45.86620442744429" lon="13.409462821702489"><ele>15.0</ele><time>2026-05-02T18:34:02Z</time></trkpt><trkpt lat="45.866373043933834" lon="13.409039168836156"><ele>15.0</ele><time>2026-05-02T18:34:03Z</time></trkpt><trkpt lat="45.86653940902959" lon="13.408617067615792"><ele>15.0</ele><time>2026-05-02T18:34:04Z</time></trkpt><trkpt lat="45.86670504458887" lon="13.408195287672052"><ele>15.0</ele><time>2026-05-02T18:34:05Z</time></trkpt><trkpt lat="45.86687170442954" lon="13.407767208170355"><ele>15.0</ele><time>2026-05-02T18:34:06Z</time></trkpt><trkpt lat="45.86703691469193" lon="13.407336879813455"><ele>15.0</ele><time>2026-05-02T18:34:07Z</time></trkpt><trkpt lat="45.86720300731228" lon="13.406910003656956"><ele>15.0</ele><time>2026-05-02T18:34:08Z</time></trkpt><trkpt lat="45.8673666777965" lon="13.406478297175122"><ele>15.0</ele><time>2026-05-02T18:34:09Z</time></trkpt><trkpt lat="45.86753300627794" lon="13.406051155474438"><ele>14.5</ele><time>2026-05-02T18:34:10Z</time></trkpt><trkpt lat="45.86769931383738" lon="13.405626568678226"><ele>14.0</ele><time>2026-05-02T18:34:11Z</time></trkpt><trkpt lat="45.86786580949469" lon="13.40520348583614"><ele>14.0</ele><time>2026-05-02T18:34:12Z</time></trkpt><trkpt lat="45.86803614160592" lon="13.404782722860846"><ele>14.0</ele><time>2026-05-02T18:34:13Z</time></trkpt><trkpt lat="45.86821059300851" lon="13.404364975283587"><ele>14.0</ele><time>2026-05-02T18:34:14Z</time></trkpt><trkpt lat="45.86838992524806" lon="13.403947115209775"><ele>14.0</ele><time>2026-05-02T18:34:15Z</time></trkpt><trkpt lat="45.868567041149475" lon="13.403529218444836"><ele>14.0</ele><time>2026-05-02T18:34:16Z</time></trkpt><trkpt lat="45.868739164190174" lon="13.403109880480137"><ele>14.0</ele><time>2026-05-02T18:34:17Z</time></trkpt><trkpt lat="45.868911587998745" lon="13.402690626033015"><ele>14.0</ele><time>2026-05-02T18:34:18Z</time></trkpt><trkpt lat="45.869080742584906" lon="13.402269252893792"><ele>14.0</ele><time>2026-05-02T18:34:19Z</time></trkpt><trkpt lat="45.86925097508721" lon="13.401846360135034"><ele>13.0</ele><time>2026-05-02T18:34:20Z</time></trkpt><trkpt lat="45.869413367923514" lon="13.401421789557176"><ele>12.0</ele><time>2026-05-02T18:34:21Z</time></trkpt><trkpt lat="45.869566085548726" lon="13.400984211192927"><ele>14.0</ele><time>2026-05-02T18:34:22Z</time></trkpt><trkpt lat="45.86971333570252" lon="13.400553658341622"><ele>16.0</ele><time>2026-05-02T18:34:23Z</time></trkpt><trkpt lat="45.869858255142354" lon="13.400113276099102"><ele>16.5</ele><time>2026-05-02T18:34:24Z</time></trkpt><trkpt lat="45.86999601485354" lon="13.39967293850058"><ele>17.0</ele><time>2026-05-02T18:34:25Z</time></trkpt><trkpt lat="45.87012459583318" lon="13.399225883387077"><ele>16.0</ele><time>2026-05-02T18:34:26Z</time></trkpt><trkpt lat="45.87024784875152" lon="13.398772527117362"><ele>15.0</ele><time>2026-05-02T18:34:27Z</time></trkpt><trkpt lat="45.870367420641735" lon="13.398317996708894"><ele>15.0</ele><time>2026-05-02T18:34:28Z</time></trkpt><trkpt lat="45.87048071601415" lon="13.397857713589508"><ele>15.0</ele><time>2026-05-02T18:34:29Z</time></trkpt><trkpt lat="45.87059477568824" lon="13.397395026951687"><ele>14.5</ele><time>2026-05-02T18:34:30Z</time></trkpt><trkpt lat="45.870705197026794" lon="13.396929593845663"><ele>14.0</ele><time>2026-05-02T18:34:31Z</time></trkpt><trkpt lat="45.87082354933255" lon="13.396466330102944"><ele>14.5</ele><time>2026-05-02T18:34:32Z</time></trkpt><trkpt lat="45.870943159576605" lon="13.396001264673698"><ele>15.0</ele><time>2026-05-02T18:34:33Z</time></trkpt><trkpt lat="45.871059643814085" lon="13.395541943789112"><ele>15.0</ele><time>2026-05-02T18:34:34Z</time></trkpt><trkpt lat="45.87117550358131" lon="13.395077709585687"><ele>15.0</ele><time>2026-05-02T18:34:35Z</time></trkpt><trkpt lat="45.87128702889824" lon="13.39461417313179"><ele>15.0</ele><time>2026-05-02T18:34:36Z</time></trkpt><trkpt lat="45.87139772442557" lon="13.394150944667924"><ele>15.0</ele><time>2026-05-02T18:34:37Z</time></trkpt><trkpt lat="45.87150936369072" lon="13.393684936968445"><ele>14.5</ele><time>2026-05-02T18:34:38Z</time></trkpt><trkpt lat="45.871621443239384" lon="13.393227130605412"><ele>14.0</ele><time>2026-05-02T18:34:39Z</time></trkpt><trkpt lat="45.871732472717895" lon="13.392765688747746"><ele>15.0</ele><time>2026-05-02T18:34:40Z</time></trkpt><trkpt lat="45.87184947629689" lon="13.392300828413655"><ele>16.0</ele><time>2026-05-02T18:34:41Z</time></trkpt><trkpt lat="45.87196969048091" lon="13.391841449536352"><ele>16.5</ele><time>2026-05-02T18:34:42Z</time></trkpt><trkpt lat="45.8720869442171" lon="13.3913795101295"><ele>17.0</ele><time>2026-05-02T18:34:43Z</time></trkpt><trkpt lat="45.87220196328349" lon="13.390917094004589"><ele>16.0</ele><time>2026-05-02T18:34:44Z</time></trkpt><trkpt lat="45.87231394642276" lon="13.390462114414913"><ele>15.0</ele><time>2026-05-02T18:34:45Z</time></trkpt><trkpt lat="45.87242358194157" lon="13.390001326721174"><ele>15.0</ele><time>2026-05-02T18:34:46Z</time></trkpt><trkpt lat="45.872537346829375" lon="13.389541386574809"><ele>15.0</ele><time>2026-05-02T18:34:47Z</time></trkpt><trkpt lat="45.872651134620924" lon="13.389081230901429"><ele>16.5</ele><time>2026-05-02T18:34:48Z</time></trkpt><trkpt lat="45.872763491785896" lon="13.388621508836916"><ele>18.0</ele><time>2026-05-02T18:34:49Z</time></trkpt><trkpt lat="45.872879763142556" lon="13.388162767918082"><ele>17.0</ele><time>2026-05-02T18:34:50Z</time></trkpt><trkpt lat="45.872995265575014" lon="13.387705557272556"><ele>16.0</ele><time>2026-05-02T18:34:51Z</time></trkpt><trkpt lat="45.87311228115031" lon="13.387247071779644"><ele>15.5</ele><time>2026-05-02T18:34:52Z</time></trkpt><trkpt lat="45.873223362795386" lon="13.386784353864588"><ele>15.0</ele><time>2026-05-02T18:34:53Z</time></trkpt><trkpt lat="45.87333309135673" lon="13.386329146163975"><ele>15.0</ele><time>2026-05-02T18:34:54Z</time></trkpt><trkpt lat="45.87344377924393" lon="13.385880258028926"><ele>15.0</ele><time>2026-05-02T18:34:55Z</time></trkpt><trkpt lat="45.87355310325689" lon="13.385437703752256"><ele>15.5</ele><time>2026-05-02T18:34:56Z</time></trkpt><trkpt lat="45.87365777291452" lon="13.385001783279677"><ele>16.0</ele><time>2026-05-02T18:34:57Z</time></trkpt><trkpt lat="45.87376546936922" lon="13.384560492310774"><ele>16.0</ele><time>2026-05-02T18:34:58Z</time></trkpt><trkpt lat="45.873872379041394" lon="13.384123716899722"><ele>16.0</ele><time>2026-05-02T18:34:59Z</time></trkpt><trkpt lat="45.873986244951354" lon="13.383679118674817"><ele>15.5</ele><time>2026-05-02T18:35:00Z</time></trkpt><trkpt lat="45.87409595067003" lon="13.383241882226885"><ele>15.0</ele><time>2026-05-02T18:35:01Z</time></trkpt><trkpt lat="45.874207173634616" lon="13.382803035298174"><ele>15.5</ele><time>2026-05-02T18:35:02Z</time></trkpt><trkpt lat="45.87431405938882" lon="13.382357961987783"><ele>16.0</ele><time>2026-05-02T18:35:03Z</time></trkpt><trkpt lat="45.87442126209856" lon="13.381915800530294"><ele>16.5</ele><time>2026-05-02T18:35:04Z</time></trkpt><trkpt lat="45.87453445266663" lon="13.381473764025001"><ele>17.0</ele><time>2026-05-02T18:35:05Z</time></trkpt><trkpt lat="45.87464553389658" lon="13.381025298333725"><ele>17.0</ele><time>2026-05-02T18:35:06Z</time></trkpt><trkpt lat="45.87474942031958" lon="13.380573512977612"><ele>17.0</ele><time>2026-05-02T18:35:07Z</time></trkpt><trkpt lat="45.874863600005575" lon="13.380123117772209"><ele>17.0</ele><time>2026-05-02T18:35:08Z</time></trkpt><trkpt lat="45.8749737022175" lon="13.379672222991298"><ele>17.0</ele><time>2026-05-02T18:35:09Z</time></trkpt><trkpt lat="45.87508375850819" lon="13.37922920623114"><ele>16.0</ele><time>2026-05-02T18:35:10Z</time></trkpt><trkpt lat="45.87519185207677" lon="13.378795637685505"><ele>15.0</ele><time>2026-05-02T18:35:11Z</time></trkpt><trkpt lat="45.875299941461854" lon="13.378363410724978"><ele>15.0</ele><time>2026-05-02T18:35:12Z</time></trkpt><trkpt lat="45.87540932176132" lon="13.377928841944055"><ele>15.0</ele><time>2026-05-02T18:35:13Z</time></trkpt><trkpt lat="45.87551895323786" lon="13.377488783007248"><ele>15.5</ele><time>2026-05-02T18:35:14Z</time></trkpt><trkpt lat="45.87563194296286" lon="13.377049572081416"><ele>16.0</ele><time>2026-05-02T18:35:15Z</time></trkpt><trkpt lat="45.87574592417267" lon="13.376605141730726"><ele>15.5</ele><time>2026-05-02T18:35:16Z</time></trkpt><trkpt lat="45.87585865684565" lon="13.376157382007634"><ele>15.0</ele><time>2026-05-02T18:35:17Z</time></trkpt><trkpt lat="45.875973922525034" lon="13.375705482683651"><ele>15.0</ele><time>2026-05-02T18:35:18Z</time></trkpt><trkpt lat="45.87609175879593" lon="13.375253049883103"><ele>15.0</ele><time>2026-05-02T18:35:19Z</time></trkpt><trkpt lat="45.876202220521584" lon="13.374799504404383"><ele>14.5</ele><time>2026-05-02T18:35:20Z</time></trkpt><trkpt lat="45.87630961643078" lon="13.374337857153222"><ele>14.0</ele><time>2026-05-02T18:35:21Z</time></trkpt><trkpt lat="45.876423193257054" lon="13.373876784009418"><ele>13.5</ele><time>2026-05-02T18:35:22Z</time></trkpt><trkpt lat="45.87653846377417" lon="13.373416280737082"><ele>13.0</ele><time>2026-05-02T18:35:23Z</time></trkpt><trkpt lat="45.87665539064486" lon="13.372958098053928"><ele>13.0</ele><time>2026-05-02T18:35:24Z</time></trkpt><trkpt lat="45.87677107550291" lon="13.372500924089332"><ele>13.0</ele><time>2026-05-02T18:35:25Z</time></trkpt><trkpt lat="45.87688744690213" lon="13.37204285662698"><ele>13.5</ele><time>2026-05-02T18:35:26Z</time></trkpt><trkpt lat="45.877002082554085" lon="13.371581365018818"><ele>14.0</ele><time>2026-05-02T18:35:27Z</time></trkpt><trkpt lat="45.87711563711872" lon="13.37112254283244"><ele>14.5</ele><time>2026-05-02T18:35:28Z</time></trkpt><trkpt lat="45.87722828909307" lon="13.370666708031784"><ele>15.0</ele><time>2026-05-02T18:35:29Z</time></trkpt><trkpt lat="45.877341129016784" lon="13.370207023836134"><ele>15.5</ele><time>2026-05-02T18:35:30Z</time></trkpt><trkpt lat="45.87745583698556" lon="13.369747049130252"><ele>16.0</ele><time>2026-05-02T18:35:31Z</time></trkpt><trkpt lat="45.87757084815337" lon="13.369288120292616"><ele>17.5</ele><time>2026-05-02T18:35:32Z</time></trkpt><trkpt lat="45.87768522581469" lon="13.368831319104721"><ele>19.0</ele><time>2026-05-02T18:35:33Z</time></trkpt><trkpt lat="45.87779981351089" lon="13.368373315150155"><ele>18.0</ele><time>2026-05-02T18:35:34Z</time></trkpt><trkpt lat="45.877912090577965" lon="13.367908555049064"><ele>17.0</ele><time>2026-05-02T18:35:35Z</time></trkpt><trkpt lat="45.87802442543451" lon="13.367449714124715"><ele>16.0</ele><time>2026-05-02T18:35:36Z</time></trkpt><trkpt lat="45.87813966974826" lon="13.366988447467072"><ele>15.0</ele><time>2026-05-02T18:35:37Z</time></trkpt><trkpt lat="45.87825628037981" lon="13.366529244017094"><ele>15.5</ele><time>2026-05-02T18:35:38Z</time></trkpt><trkpt lat="45.87837041032513" lon="13.366071153647987"><ele>16.0</ele><time>2026-05-02T18:35:39Z</time></trkpt><trkpt lat="45.87848416887807" lon="13.365612366237844"><ele>17.5</ele><time>2026-05-02T18:35:40Z</time></trkpt><trkpt lat="45.878597690822225" lon="13.365154473223464"><ele>19.0</ele><time>2026-05-02T18:35:41Z</time></trkpt><trkpt lat="45.87871470606418" lon="13.364699066936607"><ele>18.0</ele><time>2026-05-02T18:35:42Z</time></trkpt><trkpt lat="45.878834677683166" lon="13.364238553249264"><ele>17.0</ele><time>2026-05-02T18:35:43Z</time></trkpt><trkpt lat="45.878954859815515" lon="13.36377878406785"><ele>17.0</ele><time>2026-05-02T18:35:44Z</time></trkpt><trkpt lat="45.87907206464428" lon="13.363321598280045"><ele>17.0</ele><time>2026-05-02T18:35:45Z</time></trkpt><trkpt lat="45.879190840856715" lon="13.362863546918835"><ele>16.5</ele><time>2026-05-02T18:35:46Z</time></trkpt><trkpt lat="45.879303347224656" lon="13.362404899456168"><ele>16.0</ele><time>2026-05-02T18:35:47Z</time></trkpt><trkpt lat="45.879417964341734" lon="13.36194725946594"><ele>16.0</ele><time>2026-05-02T18:35:48Z</time></trkpt><trkpt lat="45.87953363349262" lon="13.361486544792916"><ele>16.0</ele><time>2026-05-02T18:35:49Z</time></trkpt><trkpt lat="45.879645105544896" lon="13.361023234046668"><ele>16.0</ele><time>2026-05-02T18:35:50Z</time></trkpt><trkpt lat="45.87975862014206" lon="13.360564657918108"><ele>16.0</ele><time>2026-05-02T18:35:51Z</time></trkpt><trkpt lat="45.87987171930774" lon="13.360102564261165"><ele>16.0</ele><time>2026-05-02T18:35:52Z</time></trkpt><trkpt lat="45.879981154655106" lon="13.359639005328708"><ele>16.0</ele><time>2026-05-02T18:35:53Z</time></trkpt><trkpt lat="45.88009975592937" lon="13.359183569178917"><ele>15.5</ele><time>2026-05-02T18:35:54Z</time></trkpt><trkpt lat="45.880219655490926" lon="13.358724321924656"><ele>15.0</ele><time>2026-05-02T18:35:55Z</time></trkpt><trkpt lat="45.88033728840441" lon="13.358264214004933"><ele>15.0</ele><time>2026-05-02T18:35:56Z</time></trkpt><trkpt lat="45.880451650767654" lon="13.357803501058138"><ele>15.0</ele><time>2026-05-02T18:35:57Z</time></trkpt><trkpt lat="45.88056688653588" lon="13.357345793153538"><ele>16.0</ele><time>2026-05-02T18:35:58Z</time></trkpt><trkpt lat="45.880678754018106" lon="13.356875928031629"><ele>17.0</ele><time>2026-05-02T18:35:59Z</time></trkpt><trkpt lat="45.880790613505894" lon="13.356418464000852"><ele>16.5</ele><time>2026-05-02T18:36:00Z</time></trkpt><trkpt lat="45.88090494117354" lon="13.355958051298018"><ele>16.0</ele><time>2026-05-02T18:36:01Z</time></trkpt><trkpt lat="45.88101804334381" lon="13.355502545495641"><ele>16.0</ele><time>2026-05-02T18:36:02Z</time></trkpt><trkpt lat="45.881132633936396" lon="13.355045270737255"><ele>16.0</ele><time>2026-05-02T18:36:03Z</time></trkpt><trkpt lat="45.881245870267676" lon="13.354586011204265"><ele>16.5</ele><time>2026-05-02T18:36:04Z</time></trkpt><trkpt lat="45.88135817013569" lon="13.354122858979922"><ele>17.0</ele><time>2026-05-02T18:36:05Z</time></trkpt><trkpt lat="45.88146904519225" lon="13.353663422179913"><ele>18.0</ele><time>2026-05-02T18:36:06Z</time></trkpt><trkpt lat="45.881578835799544" lon="13.353199967787877"><ele>19.0</ele><time>2026-05-02T18:36:07Z</time></trkpt><trkpt lat="45.88169152919112" lon="13.352738519764818"><ele>19.0</ele><time>2026-05-02T18:36:08Z</time></trkpt><trkpt lat="45.881804815243015" lon="13.352278190788333"><ele>19.0</ele><time>2026-05-02T18:36:09Z</time></trkpt><trkpt lat="45.88191814245822" lon="13.351817886332698"><ele>18.0</ele><time>2026-05-02T18:36:10Z</time></trkpt><trkpt lat="45.882031164841344" lon="13.351360772846263"><ele>17.0</ele><time>2026-05-02T18:36:11Z</time></trkpt><trkpt lat="45.88214580224857" lon="13.35090194283233"><ele>17.5</ele><time>2026-05-02T18:36:12Z</time></trkpt><trkpt lat="45.88225877129993" lon="13.350440307482634"><ele>18.0</ele><time>2026-05-02T18:36:13Z</time></trkpt><trkpt lat="45.882373852814496" lon="13.349979462448886"><ele>18.0</ele><time>2026-05-02T18:36:14Z</time></trkpt><trkpt lat="45.88248787347294" lon="13.349518066751683"><ele>18.0</ele><time>2026-05-02T18:36:15Z</time></trkpt><trkpt lat="45.882602542445994" lon="13.349051366627952"><ele>18.0</ele><time>2026-05-02T18:36:16Z</time></trkpt><trkpt lat="45.882716030560864" lon="13.348588162993055"><ele>18.0</ele><time>2026-05-02T18:36:17Z</time></trkpt><trkpt lat="45.882830343012785" lon="13.348130161556965"><ele>18.5</ele><time>2026-05-02T18:36:18Z</time></trkpt><trkpt lat="45.88294584797929" lon="13.347676046961526"><ele>19.0</ele><time>2026-05-02T18:36:19Z</time></trkpt><trkpt lat="45.883061709585036" lon="13.347213481017755"><ele>19.5</ele><time>2026-05-02T18:36:20Z</time></trkpt><trkpt lat="45.88317642933761" lon="13.346755358147206"><ele>20.0</ele><time>2026-05-02T18:36:21Z</time></trkpt><trkpt lat="45.88328941208271" lon="13.346297474886548"><ele>20.0</ele><time>2026-05-02T18:36:22Z</time></trkpt><trkpt lat="45.8834042660571" lon="13.345838769858165"><ele>20.0</ele><time>2026-05-02T18:36:23Z</time></trkpt><trkpt lat="45.88351717123957" lon="13.34537568058584"><ele>19.0</ele><time>2026-05-02T18:36:24Z</time></trkpt><trkpt lat="45.88363444645626" lon="13.344914636908758"><ele>18.0</ele><time>2026-05-02T18:36:25Z</time></trkpt><trkpt lat="45.88374822138225" lon="13.34445623880313"><ele>18.0</ele><time>2026-05-02T18:36:26Z</time></trkpt><trkpt lat="45.8838630568486" lon="13.34399675024664"><ele>18.0</ele><time>2026-05-02T18:36:27Z</time></trkpt><trkpt lat="45.88397988591529" lon="13.343538065949964"><ele>18.0</ele><time>2026-05-02T18:36:28Z</time></trkpt><trkpt lat="45.884094326822385" lon="13.343075458213276"><ele>18.0</ele><time>2026-05-02T18:36:29Z</time></trkpt><trkpt lat="45.88420734582523" lon="13.342611028687774"><ele>19.0</ele><time>2026-05-02T18:36:30Z</time></trkpt><trkpt lat="45.88431855238948" lon="13.342154231028012"><ele>20.0</ele><time>2026-05-02T18:36:31Z</time></trkpt><trkpt lat="45.88443050219093" lon="13.34169622401267"><ele>19.5</ele><time>2026-05-02T18:36:32Z</time></trkpt><trkpt lat="45.884545396200984" lon="13.341236716209298"><ele>19.0</ele><time>2026-05-02T18:36:33Z</time></trkpt><trkpt lat="45.88466145586682" lon="13.34077840852312"><ele>18.0</ele><time>2026-05-02T18:36:34Z</time></trkpt><trkpt lat="45.884778893885624" lon="13.340316597786458"><ele>17.0</ele><time>2026-05-02T18:36:35Z</time></trkpt><trkpt lat="45.884892359610625" lon="13.339856948910974"><ele>17.0</ele><time>2026-05-02T18:36:36Z</time></trkpt><trkpt lat="45.8850063214919" lon="13.339398458551882"><ele>17.0</ele><time>2026-05-02T18:36:37Z</time></trkpt><trkpt lat="45.88512012105083" lon="13.33893679798172"><ele>16.5</ele><time>2026-05-02T18:36:38Z</time></trkpt><trkpt lat="45.88523243626823" lon="13.338474747467316"><ele>16.0</ele><time>2026-05-02T18:36:39Z</time></trkpt><trkpt lat="45.88534341942508" lon="13.33801407288819"><ele>17.0</ele><time>2026-05-02T18:36:40Z</time></trkpt><trkpt lat="45.885457413442126" lon="13.337554666354094"><ele>18.0</ele><time>2026-05-02T18:36:41Z</time></trkpt><trkpt lat="45.885571812364624" lon="13.337094666149893"><ele>18.0</ele><time>2026-05-02T18:36:42Z</time></trkpt><trkpt lat="45.88568953700607" lon="13.336635614227253"><ele>18.0</ele><time>2026-05-02T18:36:43Z</time></trkpt><trkpt lat="45.88580548697894" lon="13.336176990543503"><ele>18.0</ele><time>2026-05-02T18:36:44Z</time></trkpt><trkpt lat="45.885920105247145" lon="13.335718529826032"><ele>18.0</ele><time>2026-05-02T18:36:45Z</time></trkpt><trkpt lat="45.88603818583992" lon="13.335260042897966"><ele>18.0</ele><time>2026-05-02T18:36:46Z</time></trkpt><trkpt lat="45.886153095522786" lon="13.334795621237555"><ele>18.0</ele><time>2026-05-02T18:36:47Z</time></trkpt><trkpt lat="45.88626698531022" lon="13.334335728132482"><ele>18.0</ele><time>2026-05-02T18:36:48Z</time></trkpt><trkpt lat="45.886381255064705" lon="13.333876904969275"><ele>18.0</ele><time>2026-05-02T18:36:49Z</time></trkpt><trkpt lat="45.88648892530875" lon="13.333413039253196"><ele>18.5</ele><time>2026-05-02T18:36:50Z</time></trkpt><trkpt lat="45.8865982667393" lon="13.332951557139678"><ele>19.0</ele><time>2026-05-02T18:36:51Z</time></trkpt><trkpt lat="45.88670799869938" lon="13.332489902910972"><ele>18.5</ele><time>2026-05-02T18:36:52Z</time></trkpt><trkpt lat="45.88681876384009" lon="13.332027010830547"><ele>18.0</ele><time>2026-05-02T18:36:53Z</time></trkpt><trkpt lat="45.8869295219384" lon="13.331564480630913"><ele>17.0</ele><time>2026-05-02T18:36:54Z</time></trkpt><trkpt lat="45.88704284868846" lon="13.331103080256801"><ele>16.0</ele><time>2026-05-02T18:36:55Z</time></trkpt><trkpt lat="45.8871563327144" lon="13.330639751208617"><ele>16.0</ele><time>2026-05-02T18:36:56Z</time></trkpt><trkpt lat="45.887268548116815" lon="13.330180070272982"><ele>16.0</ele><time>2026-05-02T18:36:57Z</time></trkpt><trkpt lat="45.8873832207334" lon="13.329720148537703"><ele>16.0</ele><time>2026-05-02T18:36:58Z</time></trkpt><trkpt lat="45.88750057334901" lon="13.329256459350585"><ele>16.0</ele><time>2026-05-02T18:36:59Z</time></trkpt><trkpt lat="45.887613352263735" lon="13.328792363198147"><ele>16.0</ele><time>2026-05-02T18:37:00Z</time></trkpt><trkpt lat="45.8877274926489" lon="13.328330275590012"><ele>16.0</ele><time>2026-05-02T18:37:01Z</time></trkpt><trkpt lat="45.88784561845808" lon="13.327871567393624"><ele>17.5</ele><time>2026-05-02T18:37:02Z</time></trkpt><trkpt lat="45.88796014915931" lon="13.32741295464497"><ele>19.0</ele><time>2026-05-02T18:37:03Z</time></trkpt><trkpt lat="45.888072237117676" lon="13.326954114657802"><ele>20.0</ele><time>2026-05-02T18:37:04Z</time></trkpt><trkpt lat="45.88818568125447" lon="13.326498838531993"><ele>21.0</ele><time>2026-05-02T18:37:05Z</time></trkpt><trkpt lat="45.88829939662248" lon="13.326039052207268"><ele>21.0</ele><time>2026-05-02T18:37:06Z</time></trkpt><trkpt lat="45.888413828510664" lon="13.325579302949848"><ele>21.0</ele><time>2026-05-02T18:37:07Z</time></trkpt><trkpt lat="45.88852622712723" lon="13.32511592965594"><ele>20.5</ele><time>2026-05-02T18:37:08Z</time></trkpt><trkpt lat="45.88864016658745" lon="13.324661189494531"><ele>20.0</ele><time>2026-05-02T18:37:09Z</time></trkpt><trkpt lat="45.888752898081755" lon="13.324201543406957"><ele>20.0</ele><time>2026-05-02T18:37:10Z</time></trkpt><trkpt lat="45.88886654632103" lon="13.32373783876588"><ele>20.0</ele><time>2026-05-02T18:37:11Z</time></trkpt><trkpt lat="45.88898051581931" lon="13.32327976057546"><ele>19.0</ele><time>2026-05-02T18:37:12Z</time></trkpt><trkpt lat="45.8890916154151" lon="13.322817131242516"><ele>18.0</ele><time>2026-05-02T18:37:13Z</time></trkpt><trkpt lat="45.88920816625638" lon="13.322356944771192"><ele>17.5</ele><time>2026-05-02T18:37:14Z</time></trkpt><trkpt lat="45.88932284705612" lon="13.321900695012241"><ele>17.0</ele><time>2026-05-02T18:37:15Z</time></trkpt><trkpt lat="45.88943903045111" lon="13.32143956655995"><ele>17.5</ele><time>2026-05-02T18:37:16Z</time></trkpt><trkpt lat="45.88955381174405" lon="13.320980682957053"><ele>18.0</ele><time>2026-05-02T18:37:17Z</time></trkpt><trkpt lat="45.88966614048942" lon="13.320517435330943"><ele>18.0</ele><time>2026-05-02T18:37:18Z</time></trkpt><trkpt lat="45.8897817079675" lon="13.32005751690715"><ele>18.0</ele><time>2026-05-02T18:37:19Z</time></trkpt><trkpt lat="45.889897686921735" lon="13.319598301029698"><ele>18.0</ele><time>2026-05-02T18:37:20Z</time></trkpt><trkpt lat="45.890011665817376" lon="13.319139366130678"><ele>18.0</ele><time>2026-05-02T18:37:21Z</time></trkpt><trkpt lat="45.89012718567886" lon="13.31867912866093"><ele>18.5</ele><time>2026-05-02T18:37:22Z</time></trkpt><trkpt lat="45.890241846983635" lon="13.318221320668659"><ele>19.0</ele><time>2026-05-02T18:37:23Z</time></trkpt><trkpt lat="45.89035656895593" lon="13.317760660086043"><ele>20.5</ele><time>2026-05-02T18:37:24Z</time></trkpt><trkpt lat="45.890470183836364" lon="13.317303257716597"><ele>22.0</ele><time>2026-05-02T18:37:25Z</time></trkpt><trkpt lat="45.890581218557024" lon="13.31683837586254"><ele>22.5</ele><time>2026-05-02T18:37:26Z</time></trkpt><trkpt lat="45.89069656759733" lon="13.316379538626654"><ele>23.0</ele><time>2026-05-02T18:37:27Z</time></trkpt><trkpt lat="45.89080843394324" lon="13.31591975274443"><ele>21.5</ele><time>2026-05-02T18:37:28Z</time></trkpt><trkpt lat="45.89091979043115" lon="13.315460413277725"><ele>20.0</ele><time>2026-05-02T18:37:29Z</time></trkpt><trkpt lat="45.891023604809" lon="13.314997986905256"><ele>18.5</ele><time>2026-05-02T18:37:30Z</time></trkpt><trkpt lat="45.89112065374164" lon="13.314535706248869"><ele>17.0</ele><time>2026-05-02T18:37:31Z</time></trkpt><trkpt lat="45.891222161892074" lon="13.314075612209715"><ele>18.0</ele><time>2026-05-02T18:37:32Z</time></trkpt><trkpt lat="45.89132486176504" lon="13.31360930575329"><ele>19.0</ele><time>2026-05-02T18:37:33Z</time></trkpt><trkpt lat="45.89142624528545" lon="13.313146653967955"><ele>20.5</ele><time>2026-05-02T18:37:34Z</time></trkpt><trkpt lat="45.89152531762274" lon="13.312677879668147"><ele>22.0</ele><time>2026-05-02T18:37:35Z</time></trkpt><trkpt lat="45.89162720093045" lon="13.312214906987943"><ele>22.0</ele><time>2026-05-02T18:37:36Z</time></trkpt><trkpt lat="45.89172888670426" lon="13.311745146839563"><ele>22.0</ele><time>2026-05-02T18:37:37Z</time></trkpt><trkpt lat="45.89182987670107" lon="13.311281189463713"><ele>22.0</ele><time>2026-05-02T18:37:38Z</time></trkpt><trkpt lat="45.89192959300917" lon="13.310811764240759"><ele>22.0</ele><time>2026-05-02T18:37:39Z</time></trkpt><trkpt lat="45.892026061323016" lon="13.310344035434529"><ele>22.0</ele><time>2026-05-02T18:37:40Z</time></trkpt><trkpt lat="45.89212537714284" lon="13.309875747078127"><ele>22.0</ele><time>2026-05-02T18:37:41Z</time></trkpt><trkpt lat="45.892225873301264" lon="13.309408291103683"><ele>22.0</ele><time>2026-05-02T18:37:42Z</time></trkpt><trkpt lat="45.89232791593863" lon="13.308939661684969"><ele>22.0</ele><time>2026-05-02T18:37:43Z</time></trkpt><trkpt lat="45.89243049018201" lon="13.30847223643076"><ele>22.0</ele><time>2026-05-02T18:37:44Z</time></trkpt><trkpt lat="45.89253481676955" lon="13.308008772370759"><ele>22.0</ele><time>2026-05-02T18:37:45Z</time></trkpt><trkpt lat="45.89263088265223" lon="13.307554789547849"><ele>21.5</ele><time>2026-05-02T18:37:46Z</time></trkpt><trkpt lat="45.892727820298006" lon="13.307116899057883"><ele>21.0</ele><time>2026-05-02T18:37:47Z</time></trkpt><trkpt lat="45.89282143327669" lon="13.306677466334838"><ele>21.0</ele><time>2026-05-02T18:37:48Z</time></trkpt><trkpt lat="45.892918561322716" lon="13.306253898040874"><ele>21.0</ele><time>2026-05-02T18:37:49Z</time></trkpt><trkpt lat="45.89301250623628" lon="13.305835432161281"><ele>22.0</ele><time>2026-05-02T18:37:50Z</time></trkpt><trkpt lat="45.89310323829226" lon="13.30541578967038"><ele>23.0</ele><time>2026-05-02T18:37:51Z</time></trkpt><trkpt lat="45.893195862630606" lon="13.304997985917964"><ele>22.0</ele><time>2026-05-02T18:37:52Z</time></trkpt><trkpt lat="45.8932852938062" lon="13.30457838471926"><ele>21.0</ele><time>2026-05-02T18:37:53Z</time></trkpt><trkpt lat="45.89337497888393" lon="13.304150061761712"><ele>20.0</ele><time>2026-05-02T18:37:54Z</time></trkpt><trkpt lat="45.893470880195814" lon="13.303719534996537"><ele>19.0</ele><time>2026-05-02T18:37:55Z</time></trkpt><trkpt lat="45.89356362483493" lon="13.303287676073486"><ele>20.0</ele><time>2026-05-02T18:37:56Z</time></trkpt><trkpt lat="45.8936584083522" lon="13.30285062695498"><ele>21.0</ele><time>2026-05-02T18:37:57Z</time></trkpt><trkpt lat="45.89375593667301" lon="13.30240965584181"><ele>22.0</ele><time>2026-05-02T18:37:58Z</time></trkpt><trkpt lat="45.893851901091" lon="13.301970781511596"><ele>23.0</ele><time>2026-05-02T18:37:59Z</time></trkpt><trkpt lat="45.89394454071749" lon="13.301528619205412"><ele>22.5</ele><time>2026-05-02T18:38:00Z</time></trkpt><trkpt lat="45.89404413692466" lon="13.301088111510984"><ele>22.0</ele><time>2026-05-02T18:38:01Z</time></trkpt><trkpt lat="45.8941388495484" lon="13.300647717392687"><ele>22.0</ele><time>2026-05-02T18:38:02Z</time></trkpt><trkpt lat="45.89423791971189" lon="13.300205704901003"><ele>22.0</ele><time>2026-05-02T18:38:03Z</time></trkpt><trkpt lat="45.894335410747246" lon="13.299769615519248"><ele>21.5</ele><time>2026-05-02T18:38:04Z</time></trkpt><trkpt lat="45.89443387799686" lon="13.299327752438469"><ele>21.0</ele><time>2026-05-02T18:38:05Z</time></trkpt><trkpt lat="45.89453250893711" lon="13.298890770595127"><ele>21.0</ele><time>2026-05-02T18:38:06Z</time></trkpt><trkpt lat="45.894626714593564" lon="13.298460796889627"><ele>21.0</ele><time>2026-05-02T18:38:07Z</time></trkpt><trkpt lat="45.89471771317098" lon="13.298036485576754"><ele>21.0</ele><time>2026-05-02T18:38:08Z</time></trkpt><trkpt lat="45.894810484442395" lon="13.29761734886122"><ele>21.0</ele><time>2026-05-02T18:38:09Z</time></trkpt><trkpt lat="45.89490421604094" lon="13.29720108541734"><ele>21.0</ele><time>2026-05-02T18:38:10Z</time></trkpt><trkpt lat="45.894997620100895" lon="13.296783904303192"><ele>21.0</ele><time>2026-05-02T18:38:11Z</time></trkpt><trkpt lat="45.895091427941296" lon="13.296367248350712"><ele>20.0</ele><time>2026-05-02T18:38:12Z</time></trkpt><trkpt lat="45.895184612137214" lon="13.29594866084603"><ele>19.0</ele><time>2026-05-02T18:38:13Z</time></trkpt><trkpt lat="45.89527629608205" lon="13.2955259748553"><ele>20.5</ele><time>2026-05-02T18:38:14Z</time></trkpt><trkpt lat="45.89536982468685" lon="13.295104313259545"><ele>22.0</ele><time>2026-05-02T18:38:15Z</time></trkpt><trkpt lat="45.89546103846342" lon="13.294683714821545"><ele>22.0</ele><time>2026-05-02T18:38:16Z</time></trkpt><trkpt lat="45.89554940969625" lon="13.294265163521718"><ele>22.0</ele><time>2026-05-02T18:38:17Z</time></trkpt><trkpt lat="45.89563751302897" lon="13.29384489348882"><ele>22.0</ele><time>2026-05-02T18:38:18Z</time></trkpt><trkpt lat="45.89572961366775" lon="13.293427329436195"><ele>22.0</ele><time>2026-05-02T18:38:19Z</time></trkpt><trkpt lat="45.89582445050271" lon="13.293008381781716"><ele>21.0</ele><time>2026-05-02T18:38:20Z</time></trkpt><trkpt lat="45.89592183415809" lon="13.292591416398045"><ele>20.0</ele><time>2026-05-02T18:38:21Z</time></trkpt><trkpt lat="45.89602789825377" lon="13.29217366225559"><ele>20.0</ele><time>2026-05-02T18:38:22Z</time></trkpt><trkpt lat="45.89613967500843" lon="13.291770641719635"><ele>20.0</ele><time>2026-05-02T18:38:23Z</time></trkpt><trkpt lat="45.89625231834702" lon="13.291373948151055"><ele>22.0</ele><time>2026-05-02T18:38:24Z</time></trkpt><trkpt lat="45.8963614404218" lon="13.290974505627872"><ele>24.0</ele><time>2026-05-02T18:38:25Z</time></trkpt><trkpt lat="45.89647798634518" lon="13.290579486306962"><ele>24.0</ele><time>2026-05-02T18:38:26Z</time></trkpt><trkpt lat="45.896592517399036" lon="13.290190338376496"><ele>24.0</ele><time>2026-05-02T18:38:27Z</time></trkpt><trkpt lat="45.89670568418262" lon="13.289808958956376"><ele>23.0</ele><time>2026-05-02T18:38:28Z</time></trkpt><trkpt lat="45.896811599412906" lon="13.289441518493225"><ele>22.0</ele><time>2026-05-02T18:38:29Z</time></trkpt><trkpt lat="45.8969044577223" lon="13.289075045444067"><ele>23.0</ele><time>2026-05-02T18:38:30Z</time></trkpt><trkpt lat="45.89697583375909" lon="13.288709533772117"><ele>24.0</ele><time>2026-05-02T18:38:31Z</time></trkpt><trkpt lat="45.89703358931428" lon="13.288342312965105"><ele>24.0</ele><time>2026-05-02T18:38:32Z</time></trkpt><trkpt lat="45.897070592764756" lon="13.287967878326544"><ele>24.0</ele><time>2026-05-02T18:38:33Z</time></trkpt><trkpt lat="45.897093177095975" lon="13.28759854535982"><ele>23.0</ele><time>2026-05-02T18:38:34Z</time></trkpt><trkpt lat="45.89709844048178" lon="13.287222653886586"><ele>22.0</ele><time>2026-05-02T18:38:35Z</time></trkpt><trkpt lat="45.89708950579714" lon="13.28684900650707"><ele>22.0</ele><time>2026-05-02T18:38:36Z</time></trkpt><trkpt lat="45.897065934001155" lon="13.286481446580979"><ele>22.0</ele><time>2026-05-02T18:38:37Z</time></trkpt><trkpt lat="45.89702946876399" lon="13.286120104617142"><ele>23.0</ele><time>2026-05-02T18:38:38Z</time></trkpt><trkpt lat="45.896976655658825" lon="13.285764885438628"><ele>24.0</ele><time>2026-05-02T18:38:39Z</time></trkpt><trkpt lat="45.89689766864234" lon="13.28540548573281"><ele>24.0</ele><time>2026-05-02T18:38:40Z</time></trkpt><trkpt lat="45.896812169261146" lon="13.285058196439314"><ele>24.0</ele><time>2026-05-02T18:38:41Z</time></trkpt><trkpt lat="45.896710866409066" lon="13.284718279049924"><ele>25.0</ele><time>2026-05-02T18:38:42Z</time></trkpt><trkpt lat="45.896592869417596" lon="13.2843877290588"><ele>26.0</ele><time>2026-05-02T18:38:43Z</time></trkpt><trkpt lat="45.89646567948111" lon="13.284068637970677"><ele>26.0</ele><time>2026-05-02T18:38:44Z</time></trkpt><trkpt lat="45.896319577064304" lon="13.28375501888037"><ele>26.0</ele><time>2026-05-02T18:38:45Z</time></trkpt><trkpt lat="45.89615615454793" lon="13.283444526867392"><ele>26.0</ele><time>2026-05-02T18:38:46Z</time></trkpt><trkpt lat="45.895973847738254" lon="13.283142933369097"><ele>26.0</ele><time>2026-05-02T18:38:47Z</time></trkpt><trkpt lat="45.89577626234581" lon="13.28286369054204"><ele>24.5</ele><time>2026-05-02T18:38:48Z</time></trkpt><trkpt lat="45.89555935098696" lon="13.28259778953652"><ele>23.0</ele><time>2026-05-02T18:38:49Z</time></trkpt><trkpt lat="45.89532868353158" lon="13.282349017770807"><ele>23.0</ele><time>2026-05-02T18:38:50Z</time></trkpt><trkpt lat="45.89509041419531" lon="13.282113908259575"><ele>23.0</ele><time>2026-05-02T18:38:51Z</time></trkpt><trkpt lat="45.89485458950811" lon="13.281879119198177"><ele>23.0</ele><time>2026-05-02T18:38:52Z</time></trkpt><trkpt lat="45.8946200768718" lon="13.281657174109238"><ele>23.0</ele><time>2026-05-02T18:38:53Z</time></trkpt><trkpt lat="45.89439084023328" lon="13.281428011952363"><ele>22.5</ele><time>2026-05-02T18:38:54Z</time></trkpt><trkpt lat="45.894172302971846" lon="13.281194107485446"><ele>22.0</ele><time>2026-05-02T18:38:55Z</time></trkpt><trkpt lat="45.89395566429195" lon="13.280944633716869"><ele>22.0</ele><time>2026-05-02T18:38:56Z</time></trkpt><trkpt lat="45.89374462160939" lon="13.280688599315116"><ele>22.0</ele><time>2026-05-02T18:38:57Z</time></trkpt><trkpt lat="45.89353430777424" lon="13.280424774342082"><ele>21.5</ele><time>2026-05-02T18:38:58Z</time></trkpt><trkpt lat="45.89332739527199" lon="13.280152706550739"><ele>21.0</ele><time>2026-05-02T18:38:59Z</time></trkpt><trkpt lat="45.893120494578234" lon="13.27987374821574"><ele>20.5</ele><time>2026-05-02T18:39:00Z</time></trkpt><trkpt lat="45.892917192602084" lon="13.279591107423604"><ele>20.0</ele><time>2026-05-02T18:39:01Z</time></trkpt><trkpt lat="45.89271717350433" lon="13.279296957666777"><ele>19.0</ele><time>2026-05-02T18:39:02Z</time></trkpt><trkpt lat="45.89252421108555" lon="13.27899901426109"><ele>18.0</ele><time>2026-05-02T18:39:03Z</time></trkpt><trkpt lat="45.89233409792152" lon="13.278689272175965"><ele>18.0</ele><time>2026-05-02T18:39:04Z</time></trkpt><trkpt lat="45.89214943754201" lon="13.27837538677623"><ele>18.0</ele><time>2026-05-02T18:39:05Z</time></trkpt><trkpt lat="45.891965895970436" lon="13.278055315323718"><ele>18.0</ele><time>2026-05-02T18:39:06Z</time></trkpt><trkpt lat="45.891785844532166" lon="13.277732537973776"><ele>18.0</ele><time>2026-05-02T18:39:07Z</time></trkpt><trkpt lat="45.891608074668284" lon="13.2774073238761"><ele>18.0</ele><time>2026-05-02T18:39:08Z</time></trkpt><trkpt lat="45.89143461307167" lon="13.277084743918882"><ele>18.0</ele><time>2026-05-02T18:39:09Z</time></trkpt><trkpt lat="45.89126097885837" lon="13.276760185838508"><ele>17.5</ele><time>2026-05-02T18:39:10Z</time></trkpt><trkpt lat="45.89108663002145" lon="13.276434008987684"><ele>17.0</ele><time>2026-05-02T18:39:11Z</time></trkpt><trkpt lat="45.890914712398136" lon="13.276106389155013"><ele>17.0</ele><time>2026-05-02T18:39:12Z</time></trkpt><trkpt lat="45.890741907593295" lon="13.275776884928845"><ele>17.0</ele><time>2026-05-02T18:39:13Z</time></trkpt><trkpt lat="45.8905650675484" lon="13.275449599621941"><ele>17.5</ele><time>2026-05-02T18:39:14Z</time></trkpt><trkpt lat="45.890387555031005" lon="13.275118091413088"><ele>18.0</ele><time>2026-05-02T18:39:15Z</time></trkpt><trkpt lat="45.89020580871832" lon="13.274783981123177"><ele>18.0</ele><time>2026-05-02T18:39:16Z</time></trkpt><trkpt lat="45.890020964854415" lon="13.274449768224585"><ele>18.0</ele><time>2026-05-02T18:39:17Z</time></trkpt><trkpt lat="45.88984325810269" lon="13.274118206021383"><ele>18.0</ele><time>2026-05-02T18:39:18Z</time></trkpt><trkpt lat="45.88966324373576" lon="13.273778873774354"><ele>18.0</ele><time>2026-05-02T18:39:19Z</time></trkpt><trkpt lat="45.88947928757291" lon="13.273436189453738"><ele>18.0</ele><time>2026-05-02T18:39:20Z</time></trkpt><trkpt lat="45.88928713043297" lon="13.273083640451347"><ele>18.0</ele><time>2026-05-02T18:39:21Z</time></trkpt><trkpt lat="45.88910397137071" lon="13.27274038859694"><ele>18.0</ele><time>2026-05-02T18:39:22Z</time></trkpt><trkpt lat="45.888918349041624" lon="13.272399399021777"><ele>18.0</ele><time>2026-05-02T18:39:23Z</time></trkpt><trkpt lat="45.88873331671934" lon="13.272063084270963"><ele>18.0</ele><time>2026-05-02T18:39:24Z</time></trkpt><trkpt lat="45.88855386516246" lon="13.271731677190232"><ele>18.0</ele><time>2026-05-02T18:39:25Z</time></trkpt><trkpt lat="45.888368536181396" lon="13.271399206696419"><ele>18.0</ele><time>2026-05-02T18:39:26Z</time></trkpt><trkpt lat="45.8881846195955" lon="13.271072716096397"><ele>18.0</ele><time>2026-05-02T18:39:27Z</time></trkpt><trkpt lat="45.88800117856024" lon="13.27073857971833"><ele>17.5</ele><time>2026-05-02T18:39:28Z</time></trkpt><trkpt lat="45.88781078471262" lon="13.270408714626349"><ele>17.0</ele><time>2026-05-02T18:39:29Z</time></trkpt><trkpt lat="45.88762818188449" lon="13.270066549553503"><ele>17.0</ele><time>2026-05-02T18:39:30Z</time></trkpt><trkpt lat="45.887443854621445" lon="13.269728851839954"><ele>17.0</ele><time>2026-05-02T18:39:31Z</time></trkpt><trkpt lat="45.88725583842721" lon="13.26938385950498"><ele>17.0</ele><time>2026-05-02T18:39:32Z</time></trkpt><trkpt lat="45.88707734171726" lon="13.269051701299519"><ele>17.0</ele><time>2026-05-02T18:39:33Z</time></trkpt><trkpt lat="45.886890968829704" lon="13.268716169323161"><ele>17.5</ele><time>2026-05-02T18:39:34Z</time></trkpt><trkpt lat="45.88671113392884" lon="13.268371105332049"><ele>18.0</ele><time>2026-05-02T18:39:35Z</time></trkpt><trkpt lat="45.88652963981861" lon="13.268023208518569"><ele>18.0</ele><time>2026-05-02T18:39:36Z</time></trkpt><trkpt lat="45.88635043738288" lon="13.267675376589809"><ele>18.0</ele><time>2026-05-02T18:39:37Z</time></trkpt><trkpt lat="45.886167094576635" lon="13.26733327327976"><ele>18.0</ele><time>2026-05-02T18:39:38Z</time></trkpt><trkpt lat="45.88598485694131" lon="13.266994624782038"><ele>18.0</ele><time>2026-05-02T18:39:39Z</time></trkpt><trkpt lat="45.88580056920532" lon="13.26664934365991"><ele>16.5</ele><time>2026-05-02T18:39:40Z</time></trkpt><trkpt lat="45.885614765920025" lon="13.266292938175253"><ele>15.0</ele><time>2026-05-02T18:39:41Z</time></trkpt><trkpt lat="45.88543123441752" lon="13.265940031895544"><ele>15.5</ele><time>2026-05-02T18:39:42Z</time></trkpt><trkpt lat="45.885242938974145" lon="13.265587686178959"><ele>16.0</ele><time>2026-05-02T18:39:43Z</time></trkpt><trkpt lat="45.88505504662311" lon="13.265234166549414"><ele>16.0</ele><time>2026-05-02T18:39:44Z</time></trkpt><trkpt lat="45.884869161918466" lon="13.264890027177737"><ele>16.0</ele><time>2026-05-02T18:39:45Z</time></trkpt><trkpt lat="45.884688876403025" lon="13.264541739290944"><ele>16.0</ele><time>2026-05-02T18:39:46Z</time></trkpt><trkpt lat="45.88450777967468" lon="13.264196985642212"><ele>16.0</ele><time>2026-05-02T18:39:47Z</time></trkpt><trkpt lat="45.88432656748434" lon="13.263842537740551"><ele>16.5</ele><time>2026-05-02T18:39:48Z</time></trkpt><trkpt lat="45.88413972295327" lon="13.263485346906796"><ele>17.0</ele><time>2026-05-02T18:39:49Z</time></trkpt><trkpt lat="45.88396435648161" lon="13.263130926100727"><ele>16.5</ele><time>2026-05-02T18:39:50Z</time></trkpt><trkpt lat="45.88378674583477" lon="13.262777529335564"><ele>16.0</ele><time>2026-05-02T18:39:51Z</time></trkpt><trkpt lat="45.88361468268921" lon="13.262418726886288"><ele>15.5</ele><time>2026-05-02T18:39:52Z</time></trkpt><trkpt lat="45.88344080647708" lon="13.262061613981876"><ele>15.0</ele><time>2026-05-02T18:39:53Z</time></trkpt><trkpt lat="45.88326342951419" lon="13.26170246056955"><ele>15.0</ele><time>2026-05-02T18:39:54Z</time></trkpt><trkpt lat="45.88309195283451" lon="13.261334978649542"><ele>15.0</ele><time>2026-05-02T18:39:55Z</time></trkpt><trkpt lat="45.88292540429572" lon="13.260961304377107"><ele>15.5</ele><time>2026-05-02T18:39:56Z</time></trkpt><trkpt lat="45.88275332957758" lon="13.260585934703895"><ele>16.0</ele><time>2026-05-02T18:39:57Z</time></trkpt><trkpt lat="45.88258290713302" lon="13.26020891096485"><ele>16.0</ele><time>2026-05-02T18:39:58Z</time></trkpt><trkpt lat="45.88241091300769" lon="13.259832928322005"><ele>16.0</ele><time>2026-05-02T18:39:59Z</time></trkpt><trkpt lat="45.88224202432313" lon="13.25945189009967"><ele>16.0</ele><time>2026-05-02T18:40:00Z</time></trkpt><trkpt lat="45.88207139673869" lon="13.259069833393484"><ele>16.0</ele><time>2026-05-02T18:40:01Z</time></trkpt><trkpt lat="45.881905265435066" lon="13.258685097655745"><ele>15.5</ele><time>2026-05-02T18:40:02Z</time></trkpt><trkpt lat="45.88174018461865" lon="13.258293103914536"><ele>15.0</ele><time>2026-05-02T18:40:03Z</time></trkpt><trkpt lat="45.88157717987103" lon="13.257898566655419"><ele>15.0</ele><time>2026-05-02T18:40:04Z</time></trkpt><trkpt lat="45.881410750989936" lon="13.257500774787696"><ele>15.0</ele><time>2026-05-02T18:40:05Z</time></trkpt><trkpt lat="45.88125138325877" lon="13.257100730601895"><ele>14.5</ele><time>2026-05-02T18:40:06Z</time></trkpt><trkpt lat="45.881094174092475" lon="13.25669418670508"><ele>14.0</ele><time>2026-05-02T18:40:07Z</time></trkpt><trkpt lat="45.880941298455994" lon="13.256293211991078"><ele>13.5</ele><time>2026-05-02T18:40:08Z</time></trkpt><trkpt lat="45.88078810173265" lon="13.255887235265707"><ele>13.0</ele><time>2026-05-02T18:40:09Z</time></trkpt><trkpt lat="45.880638438527" lon="13.255484061454622"><ele>13.0</ele><time>2026-05-02T18:40:10Z</time></trkpt><trkpt lat="45.88048775402439" lon="13.255082883028482"><ele>13.0</ele><time>2026-05-02T18:40:11Z</time></trkpt><trkpt lat="45.88033738259678" lon="13.2546729172024"><ele>13.5</ele><time>2026-05-02T18:40:12Z</time></trkpt><trkpt lat="45.88019015167818" lon="13.254267041242626"><ele>14.0</ele><time>2026-05-02T18:40:13Z</time></trkpt><trkpt lat="45.880043331503124" lon="13.25386116640891"><ele>14.0</ele><time>2026-05-02T18:40:14Z</time></trkpt><trkpt lat="45.87989744607242" lon="13.25345411021643"><ele>14.0</ele><time>2026-05-02T18:40:15Z</time></trkpt><trkpt lat="45.87975047160033" lon="13.25304834986932"><ele>14.0</ele><time>2026-05-02T18:40:15.999Z</time></trkpt><trkpt lat="45.879602804288375" lon="13.252637845917716"><ele>14.0</ele><time>2026-05-02T18:40:17Z</time></trkpt><trkpt lat="45.8794557381343" lon="13.252224266972991"><ele>14.0</ele><time>2026-05-02T18:40:18Z</time></trkpt><trkpt lat="45.87930227765512" lon="13.25181170288538"><ele>14.0</ele><time>2026-05-02T18:40:19Z</time></trkpt><trkpt lat="45.87914746918027" lon="13.251391716137478"><ele>14.0</ele><time>2026-05-02T18:40:20Z</time></trkpt><trkpt lat="45.87898359756993" lon="13.250978826000951"><ele>14.0</ele><time>2026-05-02T18:40:21Z</time></trkpt><trkpt lat="45.87882369161824" lon="13.250559487596941"><ele>13.5</ele><time>2026-05-02T18:40:22Z</time></trkpt><trkpt lat="45.87866578556212" lon="13.250143582746793"><ele>13.0</ele><time>2026-05-02T18:40:23Z</time></trkpt><trkpt lat="45.87850701950935" lon="13.249724974603728"><ele>12.5</ele><time>2026-05-02T18:40:24Z</time></trkpt><trkpt lat="45.87835503604152" lon="13.249300721771567"><ele>12.0</ele><time>2026-05-02T18:40:25Z</time></trkpt><trkpt lat="45.878198459036746" lon="13.248879736183847"><ele>12.0</ele><time>2026-05-02T18:40:26Z</time></trkpt><trkpt lat="45.87804336652093" lon="13.248453151827643"><ele>12.0</ele><time>2026-05-02T18:40:27Z</time></trkpt><trkpt lat="45.87788530286537" lon="13.24802541827029"><ele>12.0</ele><time>2026-05-02T18:40:28Z</time></trkpt><trkpt lat="45.87772909763624" lon="13.247593368903734"><ele>12.0</ele><time>2026-05-02T18:40:29Z</time></trkpt><trkpt lat="45.87757148561419" lon="13.247163553709072"><ele>12.5</ele><time>2026-05-02T18:40:30Z</time></trkpt><trkpt lat="45.87741266282968" lon="13.24673230413242"><ele>13.0</ele><time>2026-05-02T18:40:31Z</time></trkpt><trkpt lat="45.87725475514149" lon="13.246303278536892"><ele>13.0</ele><time>2026-05-02T18:40:32Z</time></trkpt><trkpt lat="45.87709672028728" lon="13.245875498410191"><ele>13.0</ele><time>2026-05-02T18:40:33Z</time></trkpt><trkpt lat="45.876938287510214" lon="13.24544580313722"><ele>13.5</ele><time>2026-05-02T18:40:34Z</time></trkpt><trkpt lat="45.87678193044818" lon="13.24500919597294"><ele>14.0</ele><time>2026-05-02T18:40:35Z</time></trkpt><trkpt lat="45.876625369924525" lon="13.244577215079278"><ele>14.0</ele><time>2026-05-02T18:40:36Z</time></trkpt><trkpt lat="45.87646992235003" lon="13.244141097075834"><ele>14.0</ele><time>2026-05-02T18:40:37Z</time></trkpt><trkpt lat="45.87631170112527" lon="13.243706032373884"><ele>14.0</ele><time>2026-05-02T18:40:38Z</time></trkpt><trkpt lat="45.87615347036292" lon="13.2432786164119"><ele>14.0</ele><time>2026-05-02T18:40:39Z</time></trkpt><trkpt lat="45.875992390285774" lon="13.242846286792313"><ele>15.0</ele><time>2026-05-02T18:40:40Z</time></trkpt><trkpt lat="45.87582733154077" lon="13.242419208967165"><ele>16.0</ele><time>2026-05-02T18:40:41Z</time></trkpt><trkpt lat="45.875668081814275" lon="13.241989083199275"><ele>16.0</ele><time>2026-05-02T18:40:42Z</time></trkpt><trkpt lat="45.87551065283105" lon="13.241556987614862"><ele>16.0</ele><time>2026-05-02T18:40:43Z</time></trkpt><trkpt lat="45.87535535501515" lon="13.241122943633291"><ele>14.5</ele><time>2026-05-02T18:40:44Z</time></trkpt><trkpt lat="45.87519838284211" lon="13.240694114615582"><ele>13.0</ele><time>2026-05-02T18:40:45Z</time></trkpt><trkpt lat="45.87504095929796" lon="13.240260168507715"><ele>12.0</ele><time>2026-05-02T18:40:46Z</time></trkpt><trkpt lat="45.87488231511411" lon="13.239825802548477"><ele>11.0</ele><time>2026-05-02T18:40:47Z</time></trkpt><trkpt lat="45.87471924278378" lon="13.239394119198012"><ele>11.0</ele><time>2026-05-02T18:40:48Z</time></trkpt><trkpt lat="45.87456031191729" lon="13.238964860870329"><ele>11.0</ele><time>2026-05-02T18:40:49Z</time></trkpt><trkpt lat="45.87440409103291" lon="13.238532847002974"><ele>10.5</ele><time>2026-05-02T18:40:50Z</time></trkpt><trkpt lat="45.874239921924186" lon="13.238106272235248"><ele>10.0</ele><time>2026-05-02T18:40:51Z</time></trkpt><trkpt lat="45.87408178712803" lon="13.237675109261362"><ele>11.0</ele><time>2026-05-02T18:40:52Z</time></trkpt><trkpt lat="45.8739241563086" lon="13.237243142162969"><ele>12.0</ele><time>2026-05-02T18:40:53Z</time></trkpt><trkpt lat="45.87376807545615" lon="13.236807869396042"><ele>13.0</ele><time>2026-05-02T18:40:54Z</time></trkpt><trkpt lat="45.87360918808528" lon="13.236376197004477"><ele>14.0</ele><time>2026-05-02T18:40:55Z</time></trkpt><trkpt lat="45.87345164553317" lon="13.235942518229608"><ele>13.0</ele><time>2026-05-02T18:40:56Z</time></trkpt><trkpt lat="45.87329467070693" lon="13.235509338004888"><ele>12.0</ele><time>2026-05-02T18:40:57Z</time></trkpt><trkpt lat="45.87313664296741" lon="13.23507284300978"><ele>12.0</ele><time>2026-05-02T18:40:58Z</time></trkpt><trkpt lat="45.87297865883636" lon="13.234637228348783"><ele>12.0</ele><time>2026-05-02T18:40:59Z</time></trkpt><trkpt lat="45.87282243571888" lon="13.23420344106045"><ele>12.5</ele><time>2026-05-02T18:41:00Z</time></trkpt><trkpt lat="45.872665536456665" lon="13.233772450411742"><ele>13.0</ele><time>2026-05-02T18:41:01Z</time></trkpt><trkpt lat="45.87250511976324" lon="13.233341745648561"><ele>12.0</ele><time>2026-05-02T18:41:02Z</time></trkpt><trkpt lat="45.872348997697515" lon="13.232907039623054"><ele>11.0</ele><time>2026-05-02T18:41:03Z</time></trkpt><trkpt lat="45.87219480116325" lon="13.232470227546132"><ele>11.0</ele><time>2026-05-02T18:41:04Z</time></trkpt><trkpt lat="45.87203696025939" lon="13.232036553267237"><ele>11.0</ele><time>2026-05-02T18:41:05Z</time></trkpt><trkpt lat="45.87188169464943" lon="13.23160265696909"><ele>10.5</ele><time>2026-05-02T18:41:06Z</time></trkpt><trkpt lat="45.87172307918896" lon="13.231168572624709"><ele>10.0</ele><time>2026-05-02T18:41:07Z</time></trkpt><trkpt lat="45.87156220431153" lon="13.23073924912174"><ele>11.0</ele><time>2026-05-02T18:41:08Z</time></trkpt><trkpt lat="45.87140107310092" lon="13.230306294019563"><ele>12.0</ele><time>2026-05-02T18:41:09Z</time></trkpt><trkpt lat="45.871244464010346" lon="13.229872858009873"><ele>11.5</ele><time>2026-05-02T18:41:10Z</time></trkpt><trkpt lat="45.87108352674452" lon="13.229438608731575"><ele>11.0</ele><time>2026-05-02T18:41:11Z</time></trkpt><trkpt lat="45.870928297203164" lon="13.229006477625022"><ele>10.5</ele><time>2026-05-02T18:41:12Z</time></trkpt><trkpt lat="45.87077138014186" lon="13.228572428478888"><ele>10.0</ele><time>2026-05-02T18:41:13Z</time></trkpt><trkpt lat="45.870611860404665" lon="13.22814037798623"><ele>10.0</ele><time>2026-05-02T18:41:14Z</time></trkpt><trkpt lat="45.87045384182917" lon="13.227703753890665"><ele>10.0</ele><time>2026-05-02T18:41:15Z</time></trkpt><trkpt lat="45.870297056942" lon="13.2272708664939"><ele>10.0</ele><time>2026-05-02T18:41:16Z</time></trkpt><trkpt lat="45.87013985297032" lon="13.226842237637609"><ele>10.0</ele><time>2026-05-02T18:41:17Z</time></trkpt><trkpt lat="45.86998356767191" lon="13.226409914482346"><ele>10.0</ele><time>2026-05-02T18:41:18Z</time></trkpt><trkpt lat="45.86982354804581" lon="13.225977596653182"><ele>10.0</ele><time>2026-05-02T18:41:19Z</time></trkpt><trkpt lat="45.869663521623835" lon="13.225545504815644"><ele>10.0</ele><time>2026-05-02T18:41:20Z</time></trkpt><trkpt lat="45.86950655828863" lon="13.225112998048557"><ele>10.0</ele><time>2026-05-02T18:41:21Z</time></trkpt><trkpt lat="45.86934649321919" lon="13.224681000381812"><ele>9.5</ele><time>2026-05-02T18:41:22Z</time></trkpt><trkpt lat="45.86919037274584" lon="13.224251843119918"><ele>9.0</ele><time>2026-05-02T18:41:23Z</time></trkpt><trkpt lat="45.86903234656874" lon="13.223817483128459"><ele>9.0</ele><time>2026-05-02T18:41:24Z</time></trkpt><trkpt lat="45.8688745147293" lon="13.22338347241154"><ele>9.0</ele><time>2026-05-02T18:41:25Z</time></trkpt><trkpt lat="45.868716916580084" lon="13.222949679789664"><ele>9.0</ele><time>2026-05-02T18:41:26Z</time></trkpt><trkpt lat="45.86855694135098" lon="13.222518681383688"><ele>9.0</ele><time>2026-05-02T18:41:27Z</time></trkpt><trkpt lat="45.86839935896458" lon="13.222090139211845"><ele>8.0</ele><time>2026-05-02T18:41:28Z</time></trkpt><trkpt lat="45.86823953975456" lon="13.221658068586343"><ele>7.0</ele><time>2026-05-02T18:41:29Z</time></trkpt><trkpt lat="45.86808329598239" lon="13.221222915741103"><ele>7.0</ele><time>2026-05-02T18:41:30Z</time></trkpt><trkpt lat="45.86792567725966" lon="13.220792768536654"><ele>7.0</ele><time>2026-05-02T18:41:31Z</time></trkpt><trkpt lat="45.8677662801564" lon="13.220362099744857"><ele>7.5</ele><time>2026-05-02T18:41:32Z</time></trkpt><trkpt lat="45.86760768084929" lon="13.2199354879656"><ele>8.0</ele><time>2026-05-02T18:41:33Z</time></trkpt><trkpt lat="45.86744977301008" lon="13.219507254460813"><ele>9.0</ele><time>2026-05-02T18:41:34Z</time></trkpt><trkpt lat="45.86728822721138" lon="13.219076709962707"><ele>10.0</ele><time>2026-05-02T18:41:35Z</time></trkpt><trkpt lat="45.86713065541832" lon="13.218640069495292"><ele>10.0</ele><time>2026-05-02T18:41:36Z</time></trkpt><trkpt lat="45.86697196242331" lon="13.21821147998418"><ele>10.0</ele><time>2026-05-02T18:41:37Z</time></trkpt><trkpt lat="45.866817838864065" lon="13.217779086146331"><ele>9.0</ele><time>2026-05-02T18:41:38Z</time></trkpt><trkpt lat="45.86666218296377" lon="13.21734670431089"><ele>8.0</ele><time>2026-05-02T18:41:39Z</time></trkpt><trkpt lat="45.86650822304313" lon="13.216908385074099"><ele>8.5</ele><time>2026-05-02T18:41:40Z</time></trkpt><trkpt lat="45.86635312825738" lon="13.216475597098507"><ele>9.0</ele><time>2026-05-02T18:41:41Z</time></trkpt><trkpt lat="45.866196145726114" lon="13.216041235998365"><ele>9.5</ele><time>2026-05-02T18:41:42Z</time></trkpt><trkpt lat="45.866043156850324" lon="13.215609436197791"><ele>10.0</ele><time>2026-05-02T18:41:43Z</time></trkpt><trkpt lat="45.86589636508036" lon="13.215167567671449"><ele>9.5</ele><time>2026-05-02T18:41:44Z</time></trkpt><trkpt lat="45.865748719052505" lon="13.214730563712093"><ele>9.0</ele><time>2026-05-02T18:41:45Z</time></trkpt><trkpt lat="45.86560387820892" lon="13.214284151966803"><ele>9.0</ele><time>2026-05-02T18:41:46Z</time></trkpt><trkpt lat="45.865465325640265" lon="13.213838660066495"><ele>9.0</ele><time>2026-05-02T18:41:47Z</time></trkpt><trkpt lat="45.86532606653262" lon="13.213393368337409"><ele>9.0</ele><time>2026-05-02T18:41:48Z</time></trkpt><trkpt lat="45.86519151437916" lon="13.212946660319066"><ele>9.0</ele><time>2026-05-02T18:41:49Z</time></trkpt><trkpt lat="45.86505507393907" lon="13.212499202987555"><ele>8.5</ele><time>2026-05-02T18:41:50Z</time></trkpt><trkpt lat="45.864919024936995" lon="13.212051778253445"><ele>8.0</ele><time>2026-05-02T18:41:51Z</time></trkpt><trkpt lat="45.86478280521897" lon="13.211605505745126"><ele>8.5</ele><time>2026-05-02T18:41:52Z</time></trkpt><trkpt lat="45.86464876674182" lon="13.211158597420052"><ele>9.0</ele><time>2026-05-02T18:41:53Z</time></trkpt><trkpt lat="45.86451598954938" lon="13.210705986755926"><ele>9.0</ele><time>2026-05-02T18:41:54Z</time></trkpt><trkpt lat="45.86437922202739" lon="13.210256350156815"><ele>9.0</ele><time>2026-05-02T18:41:55Z</time></trkpt><trkpt lat="45.86424610241357" lon="13.20981101438809"><ele>9.0</ele><time>2026-05-02T18:41:56Z</time></trkpt><trkpt lat="45.86411270387224" lon="13.209357471751952"><ele>9.0</ele><time>2026-05-02T18:41:57Z</time></trkpt><trkpt lat="45.86397742262541" lon="13.208908489546996"><ele>8.5</ele><time>2026-05-02T18:41:58Z</time></trkpt><trkpt lat="45.86384269521363" lon="13.20846458135977"><ele>8.0</ele><time>2026-05-02T18:41:59Z</time></trkpt><trkpt lat="45.86370806679049" lon="13.208018268464324"><ele>8.0</ele><time>2026-05-02T18:42:00Z</time></trkpt><trkpt lat="45.863573000283054" lon="13.207573217720263"><ele>8.0</ele><time>2026-05-02T18:42:01Z</time></trkpt><trkpt lat="45.86343780729631" lon="13.20712601789762"><ele>8.5</ele><time>2026-05-02T18:42:02Z</time></trkpt><trkpt lat="45.86330361000655" lon="13.206679899000328"><ele>9.0</ele><time>2026-05-02T18:42:03Z</time></trkpt><trkpt lat="45.86317036399511" lon="13.20623268450705"><ele>9.5</ele><time>2026-05-02T18:42:04Z</time></trkpt><trkpt lat="45.86303575525935" lon="13.20578404952216"><ele>10.0</ele><time>2026-05-02T18:42:05Z</time></trkpt><trkpt lat="45.86290150779391" lon="13.205336009933058"><ele>10.0</ele><time>2026-05-02T18:42:06Z</time></trkpt><trkpt lat="45.86276826781825" lon="13.20489096098592"><ele>10.0</ele><time>2026-05-02T18:42:07Z</time></trkpt><trkpt lat="45.86263528317454" lon="13.204445558193429"><ele>10.0</ele><time>2026-05-02T18:42:08Z</time></trkpt><trkpt lat="45.862497273490305" lon="13.20399959984625"><ele>10.0</ele><time>2026-05-02T18:42:09Z</time></trkpt><trkpt lat="45.86236087570293" lon="13.20355310546755"><ele>9.0</ele><time>2026-05-02T18:42:10Z</time></trkpt><trkpt lat="45.86222501625135" lon="13.203102543887708"><ele>8.0</ele><time>2026-05-02T18:42:11Z</time></trkpt><trkpt lat="45.86209399962633" lon="13.202654865422913"><ele>8.5</ele><time>2026-05-02T18:42:12Z</time></trkpt><trkpt lat="45.861961175516164" lon="13.20220569344182"><ele>9.0</ele><time>2026-05-02T18:42:13Z</time></trkpt><trkpt lat="45.861827703613685" lon="13.201755749257291"><ele>9.5</ele><time>2026-05-02T18:42:14Z</time></trkpt><trkpt lat="45.86169405660421" lon="13.201304212724065"><ele>10.0</ele><time>2026-05-02T18:42:15Z</time></trkpt><trkpt lat="45.86156027425084" lon="13.200855843643893"><ele>9.5</ele><time>2026-05-02T18:42:15.999Z</time></trkpt><trkpt lat="45.86142705094349" lon="13.200409169523656"><ele>9.0</ele><time>2026-05-02T18:42:16.999Z</time></trkpt><trkpt lat="45.86128989865931" lon="13.199956126864183"><ele>9.0</ele><time>2026-05-02T18:42:17.999Z</time></trkpt><trkpt lat="45.861155542960276" lon="13.19950962492639"><ele>9.0</ele><time>2026-05-02T18:42:18.999Z</time></trkpt><trkpt lat="45.861020887818576" lon="13.199060986163435"><ele>8.5</ele><time>2026-05-02T18:42:19.999Z</time></trkpt><trkpt lat="45.86088982465467" lon="13.198614027786503"><ele>8.0</ele><time>2026-05-02T18:42:20.999Z</time></trkpt><trkpt lat="45.86075356951349" lon="13.198167987551095"><ele>8.0</ele><time>2026-05-02T18:42:21.999Z</time></trkpt><trkpt lat="45.86061961408829" lon="13.197717283109384"><ele>8.0</ele><time>2026-05-02T18:42:23Z</time></trkpt><trkpt lat="45.860484441915325" lon="13.197271193670527"><ele>8.0</ele><time>2026-05-02T18:42:24Z</time></trkpt><trkpt lat="45.86034952458672" lon="13.196824637347992"><ele>8.0</ele><time>2026-05-02T18:42:25Z</time></trkpt><trkpt lat="45.86021481949988" lon="13.196381537065186"><ele>8.0</ele><time>2026-05-02T18:42:26Z</time></trkpt><trkpt lat="45.860078632633716" lon="13.195931751690862"><ele>8.0</ele><time>2026-05-02T18:42:27Z</time></trkpt><trkpt lat="45.85994442364371" lon="13.19548309152553"><ele>8.0</ele><time>2026-05-02T18:42:28Z</time></trkpt><trkpt lat="45.85980747213075" lon="13.195032674089735"><ele>8.0</ele><time>2026-05-02T18:42:29Z</time></trkpt><trkpt lat="45.85967499768964" lon="13.194582410243932"><ele>8.0</ele><time>2026-05-02T18:42:30Z</time></trkpt><trkpt lat="45.859541958665886" lon="13.194134779692737"><ele>8.0</ele><time>2026-05-02T18:42:31Z</time></trkpt><trkpt lat="45.85940610606543" lon="13.193682789085575"><ele>8.0</ele><time>2026-05-02T18:42:32Z</time></trkpt><trkpt lat="45.8592716136677" lon="13.193233255533764"><ele>8.0</ele><time>2026-05-02T18:42:33Z</time></trkpt><trkpt lat="45.8591373760434" lon="13.192782631959696"><ele>8.5</ele><time>2026-05-02T18:42:34Z</time></trkpt><trkpt lat="45.8590035359387" lon="13.192333493290956"><ele>9.0</ele><time>2026-05-02T18:42:35Z</time></trkpt><trkpt lat="45.858867431730914" lon="13.191883448366816"><ele>8.5</ele><time>2026-05-02T18:42:36Z</time></trkpt><trkpt lat="45.85873111607583" lon="13.191433593477027"><ele>8.0</ele><time>2026-05-02T18:42:37Z</time></trkpt><trkpt lat="45.85859517536808" lon="13.190982273767178"><ele>8.0</ele><time>2026-05-02T18:42:38Z</time></trkpt><trkpt lat="45.85846055933114" lon="13.190534405745"><ele>8.0</ele><time>2026-05-02T18:42:39Z</time></trkpt><trkpt lat="45.85832620725596" lon="13.190085565629513"><ele>9.0</ele><time>2026-05-02T18:42:40Z</time></trkpt><trkpt lat="45.85819045191998" lon="13.18964047164717"><ele>10.0</ele><time>2026-05-02T18:42:41Z</time></trkpt><trkpt lat="45.85805583029734" lon="13.189192071542925"><ele>9.5</ele><time>2026-05-02T18:42:42Z</time></trkpt><trkpt lat="45.85792161478459" lon="13.188746683650207"><ele>9.0</ele><time>2026-05-02T18:42:43Z</time></trkpt><trkpt lat="45.8577848546848" lon="13.188297586622822"><ele>8.5</ele><time>2026-05-02T18:42:44Z</time></trkpt><trkpt lat="45.857648585645755" lon="13.187848738303249"><ele>8.0</ele><time>2026-05-02T18:42:45Z</time></trkpt><trkpt lat="45.857514303489225" lon="13.187398804239066"><ele>8.0</ele><time>2026-05-02T18:42:46Z</time></trkpt><trkpt lat="45.85737908582826" lon="13.186950285197682"><ele>8.0</ele><time>2026-05-02T18:42:47Z</time></trkpt><trkpt lat="45.85724540303833" lon="13.18650226375443"><ele>8.0</ele><time>2026-05-02T18:42:48Z</time></trkpt><trkpt lat="45.85711152317323" lon="13.18604868792697"><ele>8.0</ele><time>2026-05-02T18:42:49Z</time></trkpt><trkpt lat="45.85697876844848" lon="13.185593190517336"><ele>8.0</ele><time>2026-05-02T18:42:50Z</time></trkpt><trkpt lat="45.85684746989545" lon="13.185142448421121"><ele>8.0</ele><time>2026-05-02T18:42:51Z</time></trkpt><trkpt lat="45.85671511528094" lon="13.184694168080208"><ele>8.0</ele><time>2026-05-02T18:42:52Z</time></trkpt><trkpt lat="45.85657982007816" lon="13.184245460226867"><ele>8.0</ele><time>2026-05-02T18:42:53Z</time></trkpt><trkpt lat="45.85644196576899" lon="13.183799556894803"><ele>8.5</ele><time>2026-05-02T18:42:54Z</time></trkpt><trkpt lat="45.85630461544448" lon="13.183351376929707"><ele>9.0</ele><time>2026-05-02T18:42:55Z</time></trkpt><trkpt lat="45.856172057871824" lon="13.182903855048947"><ele>9.0</ele><time>2026-05-02T18:42:56Z</time></trkpt><trkpt lat="45.85603757461528" lon="13.18245571158324"><ele>9.0</ele><time>2026-05-02T18:42:57Z</time></trkpt><trkpt lat="45.85590103795437" lon="13.18200740053876"><ele>8.0</ele><time>2026-05-02T18:42:58Z</time></trkpt><trkpt lat="45.85576610913908" lon="13.181557141003326"><ele>7.0</ele><time>2026-05-02T18:42:59Z</time></trkpt><trkpt lat="45.85562789580744" lon="13.181104402138677"><ele>6.5</ele><time>2026-05-02T18:43:00Z</time></trkpt><trkpt lat="45.855491431162804" lon="13.180661978566253"><ele>6.0</ele><time>2026-05-02T18:43:01Z</time></trkpt><trkpt lat="45.85535635365028" lon="13.180218799403107"><ele>7.0</ele><time>2026-05-02T18:43:02Z</time></trkpt><trkpt lat="45.85521835295289" lon="13.179773170582825"><ele>8.0</ele><time>2026-05-02T18:43:03Z</time></trkpt><trkpt lat="45.85508200643099" lon="13.179325911437406"><ele>8.5</ele><time>2026-05-02T18:43:04Z</time></trkpt><trkpt lat="45.854945284193406" lon="13.178879459497878"><ele>9.0</ele><time>2026-05-02T18:43:05Z</time></trkpt><trkpt lat="45.854812374975936" lon="13.178431212701733"><ele>9.5</ele><time>2026-05-02T18:43:06Z</time></trkpt><trkpt lat="45.854677966582244" lon="13.177985089652596"><ele>10.0</ele><time>2026-05-02T18:43:07Z</time></trkpt><trkpt lat="45.854545965930896" lon="13.177535963209483"><ele>9.5</ele><time>2026-05-02T18:43:08Z</time></trkpt><trkpt lat="45.8544088145426" lon="13.17708812980864"><ele>9.0</ele><time>2026-05-02T18:43:09Z</time></trkpt><trkpt lat="45.85427524832005" lon="13.176641523335642"><ele>8.0</ele><time>2026-05-02T18:43:10Z</time></trkpt><trkpt lat="45.85414025207089" lon="13.176195177274806"><ele>7.0</ele><time>2026-05-02T18:43:11Z</time></trkpt><trkpt lat="45.85400162025468" lon="13.175748639021982"><ele>6.5</ele><time>2026-05-02T18:43:12Z</time></trkpt><trkpt lat="45.85385813318147" lon="13.175305066051672"><ele>6.0</ele><time>2026-05-02T18:43:13Z</time></trkpt><trkpt lat="45.8537157772864" lon="13.17486156214247"><ele>5.0</ele><time>2026-05-02T18:43:14Z</time></trkpt><trkpt lat="45.85357489584904" lon="13.174416409695986"><ele>4.0</ele><time>2026-05-02T18:43:15Z</time></trkpt><trkpt lat="45.85343294374596" lon="13.173975437297065"><ele>6.0</ele><time>2026-05-02T18:43:16Z</time></trkpt><trkpt lat="45.85329127458812" lon="13.173533614994026"><ele>8.0</ele><time>2026-05-02T18:43:17Z</time></trkpt><trkpt lat="45.853147016186156" lon="13.173092818392192"><ele>8.5</ele><time>2026-05-02T18:43:18Z</time></trkpt><trkpt lat="45.85300627649269" lon="13.172652794009139"><ele>9.0</ele><time>2026-05-02T18:43:19Z</time></trkpt><trkpt lat="45.852864792180405" lon="13.172213273243974"><ele>9.5</ele><time>2026-05-02T18:43:20Z</time></trkpt><trkpt lat="45.85272044928382" lon="13.171771658463904"><ele>10.0</ele><time>2026-05-02T18:43:21Z</time></trkpt><trkpt lat="45.85257561502249" lon="13.171329921777648"><ele>10.0</ele><time>2026-05-02T18:43:22Z</time></trkpt><trkpt lat="45.85243077582092" lon="13.17088981257642"><ele>10.0</ele><time>2026-05-02T18:43:23Z</time></trkpt><trkpt lat="45.85228415629328" lon="13.170447996056122"><ele>10.0</ele><time>2026-05-02T18:43:24Z</time></trkpt><trkpt lat="45.8521434021146" lon="13.17000735342101"><ele>10.0</ele><time>2026-05-02T18:43:25Z</time></trkpt><trkpt lat="45.85200541044955" lon="13.169560794983896"><ele>9.5</ele><time>2026-05-02T18:43:26Z</time></trkpt><trkpt lat="45.8518678731145" lon="13.169112629684102"><ele>9.0</ele><time>2026-05-02T18:43:27Z</time></trkpt><trkpt lat="45.851729966431286" lon="13.168667164385424"><ele>9.0</ele><time>2026-05-02T18:43:28Z</time></trkpt><trkpt lat="45.85159131042103" lon="13.168223175664902"><ele>9.0</ele><time>2026-05-02T18:43:29Z</time></trkpt><trkpt lat="45.851449622512554" lon="13.16777884569358"><ele>8.5</ele><time>2026-05-02T18:43:30Z</time></trkpt><trkpt lat="45.85130868394435" lon="13.167332685345137"><ele>8.0</ele><time>2026-05-02T18:43:31Z</time></trkpt><trkpt lat="45.851163885444436" lon="13.166887739550726"><ele>8.5</ele><time>2026-05-02T18:43:32Z</time></trkpt><trkpt lat="45.85101728739414" lon="13.166441855000485"><ele>9.0</ele><time>2026-05-02T18:43:33Z</time></trkpt><trkpt lat="45.85086965843767" lon="13.1659999024043"><ele>9.5</ele><time>2026-05-02T18:43:34Z</time></trkpt><trkpt lat="45.85072349621074" lon="13.165560608951413"><ele>10.0</ele><time>2026-05-02T18:43:35Z</time></trkpt><trkpt lat="45.85057635822305" lon="13.165108793046082"><ele>9.5</ele><time>2026-05-02T18:43:36Z</time></trkpt><trkpt lat="45.85043099298319" lon="13.164668499751677"><ele>9.0</ele><time>2026-05-02T18:43:37Z</time></trkpt><trkpt lat="45.850286153884674" lon="13.164228944963554"><ele>9.0</ele><time>2026-05-02T18:43:38Z</time></trkpt><trkpt lat="45.85014062430729" lon="13.163789975547822"><ele>9.0</ele><time>2026-05-02T18:43:39Z</time></trkpt><trkpt lat="45.849995122813596" lon="13.16335119733802"><ele>9.0</ele><time>2026-05-02T18:43:40Z</time></trkpt><trkpt lat="45.84984879147208" lon="13.162910500917496"><ele>9.0</ele><time>2026-05-02T18:43:41Z</time></trkpt><trkpt lat="45.849704858000415" lon="13.162467602845958"><ele>8.0</ele><time>2026-05-02T18:43:42Z</time></trkpt><trkpt lat="45.849562922367" lon="13.162029727943308"><ele>7.0</ele><time>2026-05-02T18:43:43Z</time></trkpt><trkpt lat="45.849417370740184" lon="13.161583803514377"><ele>8.0</ele><time>2026-05-02T18:43:44Z</time></trkpt><trkpt lat="45.84927108392993" lon="13.161143515558354"><ele>9.0</ele><time>2026-05-02T18:43:45Z</time></trkpt><trkpt lat="45.84912558923626" lon="13.16070507033936"><ele>8.5</ele><time>2026-05-02T18:43:46Z</time></trkpt><trkpt lat="45.848979889088575" lon="13.16026487606109"><ele>8.0</ele><time>2026-05-02T18:43:47Z</time></trkpt><trkpt lat="45.84883581717994" lon="13.159819502180438"><ele>7.0</ele><time>2026-05-02T18:43:48Z</time></trkpt><trkpt lat="45.84869666344973" lon="13.15937796822455"><ele>6.0</ele><time>2026-05-02T18:43:49Z</time></trkpt><trkpt lat="45.84855655227576" lon="13.158935095204386"><ele>6.0</ele><time>2026-05-02T18:43:50Z</time></trkpt><trkpt lat="45.84841507973349" lon="13.158490292880158"><ele>6.0</ele><time>2026-05-02T18:43:51Z</time></trkpt><trkpt lat="45.84827087817494" lon="13.158047476455575"><ele>6.0</ele><time>2026-05-02T18:43:52Z</time></trkpt><trkpt lat="45.848126956521" lon="13.157610209214605"><ele>6.0</ele><time>2026-05-02T18:43:53Z</time></trkpt><trkpt lat="45.84798267001289" lon="13.157169146227247"><ele>6.0</ele><time>2026-05-02T18:43:54Z</time></trkpt><trkpt lat="45.84783670479131" lon="13.156730404258983"><ele>6.0</ele><time>2026-05-02T18:43:55Z</time></trkpt><trkpt lat="45.84769251240806" lon="13.15629141001848"><ele>6.5</ele><time>2026-05-02T18:43:56Z</time></trkpt><trkpt lat="45.84754969985469" lon="13.155850739196183"><ele>7.0</ele><time>2026-05-02T18:43:57Z</time></trkpt><trkpt lat="45.84740506862189" lon="13.155411569426791"><ele>7.0</ele><time>2026-05-02T18:43:58Z</time></trkpt><trkpt lat="45.847261938596795" lon="13.15497303409578"><ele>7.0</ele><time>2026-05-02T18:43:59Z</time></trkpt><trkpt lat="45.84711837780379" lon="13.154531895572761"><ele>7.0</ele><time>2026-05-02T18:44:00Z</time></trkpt><trkpt lat="45.84697536558648" lon="13.154089831797858"><ele>7.0</ele><time>2026-05-02T18:44:01Z</time></trkpt><trkpt lat="45.846829508922056" lon="13.153647317061107"><ele>6.5</ele><time>2026-05-02T18:44:02Z</time></trkpt><trkpt lat="45.8466851214515" lon="13.153203839386133"><ele>6.0</ele><time>2026-05-02T18:44:03Z</time></trkpt><trkpt lat="45.84653945475565" lon="13.152761466880296"><ele>6.5</ele><time>2026-05-02T18:44:04Z</time></trkpt><trkpt lat="45.846394891011435" lon="13.152320734742142"><ele>7.0</ele><time>2026-05-02T18:44:05Z</time></trkpt><trkpt lat="45.84624986582663" lon="13.151877607367627"><ele>6.5</ele><time>2026-05-02T18:44:06Z</time></trkpt><trkpt lat="45.84610493421227" lon="13.151435286777787"><ele>6.0</ele><time>2026-05-02T18:44:07Z</time></trkpt><trkpt lat="45.84596089447326" lon="13.150991948297245"><ele>6.5</ele><time>2026-05-02T18:44:08Z</time></trkpt><trkpt lat="45.84581499888478" lon="13.1505453943684"><ele>7.0</ele><time>2026-05-02T18:44:09Z</time></trkpt><trkpt lat="45.84566927153872" lon="13.150098114564422"><ele>7.0</ele><time>2026-05-02T18:44:10Z</time></trkpt><trkpt lat="45.845521980046634" lon="13.14965553493125"><ele>7.0</ele><time>2026-05-02T18:44:11Z</time></trkpt><trkpt lat="45.84537614612225" lon="13.149212294677037"><ele>7.0</ele><time>2026-05-02T18:44:12Z</time></trkpt><trkpt lat="45.845230559911485" lon="13.148766295408524"><ele>7.0</ele><time>2026-05-02T18:44:13Z</time></trkpt><trkpt lat="45.84508497843244" lon="13.148323499732445"><ele>7.0</ele><time>2026-05-02T18:44:14Z</time></trkpt><trkpt lat="45.84493998953052" lon="13.1478796659579"><ele>7.0</ele><time>2026-05-02T18:44:15Z</time></trkpt><trkpt lat="45.84479733426717" lon="13.147436929410283"><ele>7.5</ele><time>2026-05-02T18:44:16Z</time></trkpt><trkpt lat="45.84465362123784" lon="13.146989870539908"><ele>8.0</ele><time>2026-05-02T18:44:17Z</time></trkpt><trkpt lat="45.844510080985174" lon="13.14654897228902"><ele>8.0</ele><time>2026-05-02T18:44:18Z</time></trkpt><trkpt lat="45.84436891899786" lon="13.146108645780162"><ele>8.0</ele><time>2026-05-02T18:44:19Z</time></trkpt><trkpt lat="45.844225483535325" lon="13.145661551031306"><ele>7.5</ele><time>2026-05-02T18:44:20Z</time></trkpt><trkpt lat="45.844083585230905" lon="13.145224009086503"><ele>7.0</ele><time>2026-05-02T18:44:21Z</time></trkpt><trkpt lat="45.8439378971311" lon="13.14478363258942"><ele>7.0</ele><time>2026-05-02T18:44:22Z</time></trkpt><trkpt lat="45.843789927664766" lon="13.144344883926184"><ele>7.0</ele><time>2026-05-02T18:44:23Z</time></trkpt><trkpt lat="45.84364553854428" lon="13.143899737750491"><ele>7.0</ele><time>2026-05-02T18:44:24Z</time></trkpt><trkpt lat="45.843502052767256" lon="13.14346893396586"><ele>7.0</ele><time>2026-05-02T18:44:25Z</time></trkpt><trkpt lat="45.84335854577806" lon="13.143026838265763"><ele>7.0</ele><time>2026-05-02T18:44:26Z</time></trkpt><trkpt lat="45.84321449996231" lon="13.14258349169673"><ele>7.0</ele><time>2026-05-02T18:44:27Z</time></trkpt><trkpt lat="45.843072024575" lon="13.14214291602229"><ele>7.0</ele><time>2026-05-02T18:44:28Z</time></trkpt><trkpt lat="45.842926975342465" lon="13.141705636723735"><ele>7.0</ele><time>2026-05-02T18:44:29Z</time></trkpt><trkpt lat="45.84278019078962" lon="13.141265455480886"><ele>7.0</ele><time>2026-05-02T18:44:30Z</time></trkpt><trkpt lat="45.842633605597506" lon="13.140821595621535"><ele>7.0</ele><time>2026-05-02T18:44:31Z</time></trkpt><trkpt lat="45.842487477594545" lon="13.140382225362185"><ele>6.5</ele><time>2026-05-02T18:44:32Z</time></trkpt><trkpt lat="45.8423424654611" lon="13.139939011717347"><ele>6.0</ele><time>2026-05-02T18:44:33Z</time></trkpt><trkpt lat="45.842199467237776" lon="13.139496490546247"><ele>7.0</ele><time>2026-05-02T18:44:34Z</time></trkpt><trkpt lat="45.84205742398602" lon="13.13905578180154"><ele>8.0</ele><time>2026-05-02T18:44:35Z</time></trkpt><trkpt lat="45.84191377562577" lon="13.13861726452207"><ele>8.0</ele><time>2026-05-02T18:44:36Z</time></trkpt><trkpt lat="45.84177015721161" lon="13.13817550319859"><ele>8.0</ele><time>2026-05-02T18:44:37Z</time></trkpt><trkpt lat="45.841623266672826" lon="13.137731983029044"><ele>7.5</ele><time>2026-05-02T18:44:38Z</time></trkpt><trkpt lat="45.84148118431156" lon="13.137291556947353"><ele>7.0</ele><time>2026-05-02T18:44:39Z</time></trkpt><trkpt lat="45.84134083126364" lon="13.136848887839312"><ele>8.0</ele><time>2026-05-02T18:44:40Z</time></trkpt><trkpt lat="45.84119710826424" lon="13.136408791949988"><ele>9.0</ele><time>2026-05-02T18:44:41Z</time></trkpt><trkpt lat="45.84105425565276" lon="13.135963288598868"><ele>9.5</ele><time>2026-05-02T18:44:42Z</time></trkpt><trkpt lat="45.84091222940273" lon="13.135518017059479"><ele>10.0</ele><time>2026-05-02T18:44:43Z</time></trkpt><trkpt lat="45.84076685106569" lon="13.135079309351731"><ele>10.0</ele><time>2026-05-02T18:44:44Z</time></trkpt><trkpt lat="45.84062209225899" lon="13.13463835599873"><ele>10.0</ele><time>2026-05-02T18:44:45Z</time></trkpt><trkpt lat="45.84047760355624" lon="13.134197094556866"><ele>11.0</ele><time>2026-05-02T18:44:46Z</time></trkpt><trkpt lat="45.840332850649055" lon="13.133753071158928"><ele>12.0</ele><time>2026-05-02T18:44:47Z</time></trkpt><trkpt lat="45.84018824264393" lon="13.133308144463916"><ele>10.0</ele><time>2026-05-02T18:44:48Z</time></trkpt><trkpt lat="45.84004312949087" lon="13.132867987576526"><ele>8.0</ele><time>2026-05-02T18:44:49Z</time></trkpt><trkpt lat="45.8398979312822" lon="13.132424831985285"><ele>8.0</ele><time>2026-05-02T18:44:50Z</time></trkpt><trkpt lat="45.83975388349247" lon="13.131980591675255"><ele>8.0</ele><time>2026-05-02T18:44:51Z</time></trkpt><trkpt lat="45.83960988953186" lon="13.131539763240804"><ele>8.0</ele><time>2026-05-02T18:44:52Z</time></trkpt><trkpt lat="45.83946550176887" lon="13.1310969869266"><ele>8.0</ele><time>2026-05-02T18:44:53Z</time></trkpt><trkpt lat="45.83931974195584" lon="13.130653713422346"><ele>7.5</ele><time>2026-05-02T18:44:54Z</time></trkpt><trkpt lat="45.83917509651655" lon="13.130213903521632"><ele>7.0</ele><time>2026-05-02T18:44:55Z</time></trkpt><trkpt lat="45.839028460783396" lon="13.12977019305755"><ele>8.0</ele><time>2026-05-02T18:44:56Z</time></trkpt><trkpt lat="45.83888241412009" lon="13.129332098697706"><ele>9.0</ele><time>2026-05-02T18:44:57Z</time></trkpt><trkpt lat="45.83873364289183" lon="13.128893560840217"><ele>9.5</ele><time>2026-05-02T18:44:58Z</time></trkpt><trkpt lat="45.83858738091471" lon="13.128455266268277"><ele>10.0</ele><time>2026-05-02T18:44:59Z</time></trkpt><trkpt lat="45.838444280878996" lon="13.128010774857849"><ele>9.5</ele><time>2026-05-02T18:45:00Z</time></trkpt><trkpt lat="45.83830334426065" lon="13.127567915407127"><ele>9.0</ele><time>2026-05-02T18:45:01Z</time></trkpt><trkpt lat="45.83815987990431" lon="13.127129576944437"><ele>9.0</ele><time>2026-05-02T18:45:02Z</time></trkpt><trkpt lat="45.8380120423139" lon="13.12669300872906"><ele>9.0</ele><time>2026-05-02T18:45:03Z</time></trkpt><trkpt lat="45.837866725061204" lon="13.126255115619124"><ele>8.5</ele><time>2026-05-02T18:45:04Z</time></trkpt><trkpt lat="45.837721052649236" lon="13.12581385815188"><ele>8.0</ele><time>2026-05-02T18:45:05Z</time></trkpt><trkpt lat="45.83757457684844" lon="13.125373506046504"><ele>8.0</ele><time>2026-05-02T18:45:06Z</time></trkpt><trkpt lat="45.8374263026889" lon="13.124932020120005"><ele>8.0</ele><time>2026-05-02T18:45:07Z</time></trkpt><trkpt lat="45.83727980426715" lon="13.124489636135026"><ele>7.5</ele><time>2026-05-02T18:45:08Z</time></trkpt><trkpt lat="45.83713157035837" lon="13.124043311422517"><ele>7.0</ele><time>2026-05-02T18:45:09Z</time></trkpt><trkpt lat="45.83698868183138" lon="13.12359604898911"><ele>7.0</ele><time>2026-05-02T18:45:10Z</time></trkpt><trkpt lat="45.83684658852107" lon="13.123152702801054"><ele>7.0</ele><time>2026-05-02T18:45:11Z</time></trkpt><trkpt lat="45.836703495448056" lon="13.122712103391272"><ele>7.0</ele><time>2026-05-02T18:45:12Z</time></trkpt><trkpt lat="45.83655607880652" lon="13.12227105281679"><ele>7.0</ele><time>2026-05-02T18:45:13Z</time></trkpt><trkpt lat="45.83641140180409" lon="13.121830046187316"><ele>6.5</ele><time>2026-05-02T18:45:14Z</time></trkpt><trkpt lat="45.836266386327324" lon="13.12138560247826"><ele>6.0</ele><time>2026-05-02T18:45:15Z</time></trkpt><trkpt lat="45.83612047664526" lon="13.120943777801175"><ele>6.0</ele><time>2026-05-02T18:45:16Z</time></trkpt><trkpt lat="45.83597385903599" lon="13.120507247970364"><ele>6.0</ele><time>2026-05-02T18:45:17Z</time></trkpt><trkpt lat="45.835826559646044" lon="13.120067346363147"><ele>6.0</ele><time>2026-05-02T18:45:18Z</time></trkpt><trkpt lat="45.8356809862216" lon="13.119621244326218"><ele>6.0</ele><time>2026-05-02T18:45:19Z</time></trkpt><trkpt lat="45.83553605835735" lon="13.119179305688299"><ele>6.0</ele><time>2026-05-02T18:45:20Z</time></trkpt><trkpt lat="45.8353931191711" lon="13.118737594078691"><ele>6.0</ele><time>2026-05-02T18:45:21Z</time></trkpt><trkpt lat="45.83524776210868" lon="13.118296122713422"><ele>7.0</ele><time>2026-05-02T18:45:22Z</time></trkpt><trkpt lat="45.835102583714615" lon="13.117855852776303"><ele>8.0</ele><time>2026-05-02T18:45:23Z</time></trkpt><trkpt lat="45.834960828986745" lon="13.117416997447533"><ele>8.0</ele><time>2026-05-02T18:45:24Z</time></trkpt><trkpt lat="45.83481950275381" lon="13.11697439255181"><ele>8.0</ele><time>2026-05-02T18:45:25Z</time></trkpt><trkpt lat="45.834678395781566" lon="13.116533443082545"><ele>7.0</ele><time>2026-05-02T18:45:26Z</time></trkpt><trkpt lat="45.83454128387993" lon="13.116088286147901"><ele>6.0</ele><time>2026-05-02T18:45:27Z</time></trkpt><trkpt lat="45.834404570500965" lon="13.115641320302608"><ele>6.5</ele><time>2026-05-02T18:45:28Z</time></trkpt><trkpt lat="45.83427055289365" lon="13.11519713715328"><ele>7.0</ele><time>2026-05-02T18:45:29Z</time></trkpt><trkpt lat="45.83413894049743" lon="13.11474407699771"><ele>7.0</ele><time>2026-05-02T18:45:30Z</time></trkpt><trkpt lat="45.834010335986605" lon="13.114297500835844"><ele>7.0</ele><time>2026-05-02T18:45:31Z</time></trkpt><trkpt lat="45.83388382819639" lon="13.113845764761535"><ele>6.0</ele><time>2026-05-02T18:45:32Z</time></trkpt><trkpt lat="45.833757441514784" lon="13.113389977721184"><ele>5.0</ele><time>2026-05-02T18:45:33Z</time></trkpt><trkpt lat="45.83363262691217" lon="13.112935839094115"><ele>5.0</ele><time>2026-05-02T18:45:34Z</time></trkpt><trkpt lat="45.83351243097282" lon="13.11247587889286"><ele>5.0</ele><time>2026-05-02T18:45:35Z</time></trkpt><trkpt lat="45.833394956938896" lon="13.112016841790837"><ele>5.0</ele><time>2026-05-02T18:45:36Z</time></trkpt><trkpt lat="45.833280089108975" lon="13.111557262994285"><ele>5.0</ele><time>2026-05-02T18:45:37Z</time></trkpt><trkpt lat="45.83317031424856" lon="13.11109677753982"><ele>5.0</ele><time>2026-05-02T18:45:38Z</time></trkpt><trkpt lat="45.83306165333324" lon="13.110634733353653"><ele>5.0</ele><time>2026-05-02T18:45:39Z</time></trkpt><trkpt lat="45.83295414589348" lon="13.110168989419407"><ele>5.0</ele><time>2026-05-02T18:45:40Z</time></trkpt><trkpt lat="45.832850748566166" lon="13.109702751948774"><ele>5.0</ele><time>2026-05-02T18:45:41Z</time></trkpt><trkpt lat="45.83274887091343" lon="13.109237582419603"><ele>5.0</ele><time>2026-05-02T18:45:42Z</time></trkpt><trkpt lat="45.83264672021467" lon="13.108769152081104"><ele>5.0</ele><time>2026-05-02T18:45:43Z</time></trkpt><trkpt lat="45.83254885668476" lon="13.108301661114304"><ele>5.0</ele><time>2026-05-02T18:45:44Z</time></trkpt><trkpt lat="45.83245514791877" lon="13.10783138171099"><ele>5.0</ele><time>2026-05-02T18:45:45Z</time></trkpt><trkpt lat="45.83236253413529" lon="13.107363644840959"><ele>5.5</ele><time>2026-05-02T18:45:46Z</time></trkpt><trkpt lat="45.832273213313165" lon="13.106895981091565"><ele>6.0</ele><time>2026-05-02T18:45:47Z</time></trkpt><trkpt lat="45.832185616496226" lon="13.106425350387697"><ele>6.0</ele><time>2026-05-02T18:45:48Z</time></trkpt><trkpt lat="45.83210233877489" lon="13.105951059239592"><ele>6.0</ele><time>2026-05-02T18:45:49Z</time></trkpt><trkpt lat="45.83202065627822" lon="13.105477374903776"><ele>5.0</ele><time>2026-05-02T18:45:50Z</time></trkpt><trkpt lat="45.831941899435556" lon="13.105006206363624"><ele>4.0</ele><time>2026-05-02T18:45:51Z</time></trkpt><trkpt lat="45.83186361559827" lon="13.104529980886866"><ele>5.0</ele><time>2026-05-02T18:45:52Z</time></trkpt><trkpt lat="45.8317891337699" lon="13.104055260010481"><ele>6.0</ele><time>2026-05-02T18:45:53Z</time></trkpt><trkpt lat="45.83171823259567" lon="13.103583388933506"><ele>6.0</ele><time>2026-05-02T18:45:54Z</time></trkpt><trkpt lat="45.83164509486702" lon="13.103110358022585"><ele>6.0</ele><time>2026-05-02T18:45:55Z</time></trkpt><trkpt lat="45.83157356722733" lon="13.102633849793367"><ele>6.0</ele><time>2026-05-02T18:45:56Z</time></trkpt><trkpt lat="45.83150786677291" lon="13.102157263741615"><ele>6.0</ele><time>2026-05-02T18:45:57Z</time></trkpt><trkpt lat="45.83144145220736" lon="13.101680125853104"><ele>6.0</ele><time>2026-05-02T18:45:58Z</time></trkpt><trkpt lat="45.831377156933506" lon="13.10120332278333"><ele>6.0</ele><time>2026-05-02T18:45:59Z</time></trkpt><trkpt lat="45.831310011331624" lon="13.100723524646819"><ele>6.0</ele><time>2026-05-02T18:46:00Z</time></trkpt><trkpt lat="45.831240195574836" lon="13.100245804636076"><ele>6.0</ele><time>2026-05-02T18:46:01Z</time></trkpt><trkpt lat="45.83117087000403" lon="13.099765460572455"><ele>6.5</ele><time>2026-05-02T18:46:02Z</time></trkpt><trkpt lat="45.83109811098325" lon="13.099285872843375"><ele>7.0</ele><time>2026-05-02T18:46:03Z</time></trkpt><trkpt lat="45.83102536926995" lon="13.098810030913695"><ele>7.0</ele><time>2026-05-02T18:46:04Z</time></trkpt><trkpt lat="45.830952270684705" lon="13.098330932435035"><ele>7.0</ele><time>2026-05-02T18:46:05Z</time></trkpt><trkpt lat="45.83087869096732" lon="13.097853507742089"><ele>5.0</ele><time>2026-05-02T18:46:06Z</time></trkpt><trkpt lat="45.83080342133199" lon="13.097376511765988"><ele>3.0</ele><time>2026-05-02T18:46:07Z</time></trkpt><trkpt lat="45.83072843490563" lon="13.09690066747131"><ele>3.0</ele><time>2026-05-02T18:46:07.999Z</time></trkpt><trkpt lat="45.83065545902706" lon="13.096421773513374"><ele>3.0</ele><time>2026-05-02T18:46:08.999Z</time></trkpt><trkpt lat="45.830584157871286" lon="13.095945198316013"><ele>2.5</ele><time>2026-05-02T18:46:09.999Z</time></trkpt><trkpt lat="45.83051300894693" lon="13.095466445044984"><ele>2.0</ele><time>2026-05-02T18:46:10.999Z</time></trkpt><trkpt lat="45.830443216144985" lon="13.094988582321173"><ele>2.5</ele><time>2026-05-02T18:46:11.999Z</time></trkpt><trkpt lat="45.830371559330885" lon="13.094510301950178"><ele>3.0</ele><time>2026-05-02T18:46:12.999Z</time></trkpt><trkpt lat="45.830302329263375" lon="13.094029201724679"><ele>3.0</ele><time>2026-05-02T18:46:13.999Z</time></trkpt><trkpt lat="45.83023343134866" lon="13.093549574278898"><ele>3.0</ele><time>2026-05-02T18:46:14.999Z</time></trkpt><trkpt lat="45.83016406235577" lon="13.09307264178559"><ele>2.5</ele><time>2026-05-02T18:46:15.999Z</time></trkpt><trkpt lat="45.83009530032819" lon="13.092594784616596"><ele>2.0</ele><time>2026-05-02T18:46:16.999Z</time></trkpt><trkpt lat="45.83002897769833" lon="13.092119439925126"><ele>2.0</ele><time>2026-05-02T18:46:17.999Z</time></trkpt><trkpt lat="45.82996271376766" lon="13.091645750256033"><ele>2.0</ele><time>2026-05-02T18:46:18.999Z</time></trkpt><trkpt lat="45.829896243428415" lon="13.091169017609241"><ele>2.0</ele><time>2026-05-02T18:46:19.999Z</time></trkpt><trkpt lat="45.82983018452933" lon="13.090691683037116"><ele>2.0</ele><time>2026-05-02T18:46:20.999Z</time></trkpt><trkpt lat="45.82976355575759" lon="13.0902155160963"><ele>2.0</ele><time>2026-05-02T18:46:21.999Z</time></trkpt><trkpt lat="45.82969766058901" lon="13.08974320834552"><ele>2.0</ele><time>2026-05-02T18:46:22.999Z</time></trkpt><trkpt lat="45.829629271224256" lon="13.08926859110561"><ele>2.0</ele><time>2026-05-02T18:46:23.999Z</time></trkpt><trkpt lat="45.829562266412466" lon="13.088791401782364"><ele>2.0</ele><time>2026-05-02T18:46:24.999Z</time></trkpt><trkpt lat="45.82949354416414" lon="13.08831160853021"><ele>1.5</ele><time>2026-05-02T18:46:25.999Z</time></trkpt><trkpt lat="45.8294248784545" lon="13.087835625174531"><ele>1.0</ele><time>2026-05-02T18:46:26.999Z</time></trkpt><trkpt lat="45.82935370015267" lon="13.087359294107454"><ele>2.0</ele><time>2026-05-02T18:46:27.999Z</time></trkpt><trkpt lat="45.82928387123407" lon="13.086877521014754"><ele>3.0</ele><time>2026-05-02T18:46:28.999Z</time></trkpt><trkpt lat="45.829211919606756" lon="13.08639611764383"><ele>3.5</ele><time>2026-05-02T18:46:29.999Z</time></trkpt><trkpt lat="45.82914149758812" lon="13.085921184226533"><ele>4.0</ele><time>2026-05-02T18:46:30.999Z</time></trkpt><trkpt lat="45.829070455334566" lon="13.085444441156028"><ele>3.0</ele><time>2026-05-02T18:46:31.999Z</time></trkpt><trkpt lat="45.82900312728052" lon="13.08496722887421"><ele>2.0</ele><time>2026-05-02T18:46:32.999Z</time></trkpt><trkpt lat="45.82893673682581" lon="13.084491467476235"><ele>2.0</ele><time>2026-05-02T18:46:33.999Z</time></trkpt><trkpt lat="45.82886626740093" lon="13.084013933078792"><ele>2.0</ele><time>2026-05-02T18:46:35Z</time></trkpt><trkpt lat="45.82879740532948" lon="13.083536791800064"><ele>1.5</ele><time>2026-05-02T18:46:36Z</time></trkpt><trkpt lat="45.82872759325371" lon="13.083060652998505"><ele>1.0</ele><time>2026-05-02T18:46:37Z</time></trkpt><trkpt lat="45.828657558204796" lon="13.082581698087408"><ele>2.0</ele><time>2026-05-02T18:46:38Z</time></trkpt><trkpt lat="45.828588535247995" lon="13.082103044179949"><ele>3.0</ele><time>2026-05-02T18:46:39Z</time></trkpt><trkpt lat="45.82851762136444" lon="13.081625104492794"><ele>3.0</ele><time>2026-05-02T18:46:40Z</time></trkpt><trkpt lat="45.828447858592675" lon="13.081147726084097"><ele>3.0</ele><time>2026-05-02T18:46:41Z</time></trkpt><trkpt lat="45.82837709385841" lon="13.080669879223173"><ele>2.5</ele><time>2026-05-02T18:46:42Z</time></trkpt><trkpt lat="45.82830640892636" lon="13.080189446698387"><ele>2.0</ele><time>2026-05-02T18:46:43Z</time></trkpt><trkpt lat="45.828236089961784" lon="13.079713841344633"><ele>1.0</ele><time>2026-05-02T18:46:44Z</time></trkpt><trkpt lat="45.828165422661456" lon="13.07923614281684"><ele>0.0</ele><time>2026-05-02T18:46:45Z</time></trkpt><trkpt lat="45.828094166562956" lon="13.078756929293816"><ele>0.0</ele><time>2026-05-02T18:46:46Z</time></trkpt><trkpt lat="45.82802320850703" lon="13.078282293895331"><ele>0.0</ele><time>2026-05-02T18:46:47Z</time></trkpt><trkpt lat="45.82795206095972" lon="13.077802903247267"><ele>1.5</ele><time>2026-05-02T18:46:48Z</time></trkpt><trkpt lat="45.82788150906834" lon="13.077324730045149"><ele>3.0</ele><time>2026-05-02T18:46:49Z</time></trkpt><trkpt lat="45.827812442868776" lon="13.076847280571357"><ele>3.0</ele><time>2026-05-02T18:46:50Z</time></trkpt><trkpt lat="45.82774483421536" lon="13.076369700596553"><ele>3.0</ele><time>2026-05-02T18:46:51Z</time></trkpt><trkpt lat="45.82767560840089" lon="13.075889886407174"><ele>3.5</ele><time>2026-05-02T18:46:52Z</time></trkpt><trkpt lat="45.82760850076046" lon="13.075413580284632"><ele>4.0</ele><time>2026-05-02T18:46:53Z</time></trkpt><trkpt lat="45.827540482866304" lon="13.074934675784913"><ele>4.0</ele><time>2026-05-02T18:46:54Z</time></trkpt><trkpt lat="45.82747194305525" lon="13.07445824875592"><ele>4.0</ele><time>2026-05-02T18:46:55Z</time></trkpt><trkpt lat="45.827401862078815" lon="13.073978531565608"><ele>4.0</ele><time>2026-05-02T18:46:56Z</time></trkpt><trkpt lat="45.82733172953958" lon="13.073500862334123"><ele>4.0</ele><time>2026-05-02T18:46:57Z</time></trkpt><trkpt lat="45.82726316946117" lon="13.07302585495415"><ele>4.0</ele><time>2026-05-02T18:46:58Z</time></trkpt><trkpt lat="45.827194777513284" lon="13.072549301024083"><ele>4.0</ele><time>2026-05-02T18:46:59Z</time></trkpt><trkpt lat="45.82712543450786" lon="13.07206831287171"><ele>4.0</ele><time>2026-05-02T18:47:00Z</time></trkpt><trkpt lat="45.827057012325966" lon="13.0715910491732"><ele>4.0</ele><time>2026-05-02T18:47:01Z</time></trkpt><trkpt lat="45.82698915089078" lon="13.071111482338763"><ele>4.0</ele><time>2026-05-02T18:47:02Z</time></trkpt><trkpt lat="45.82692263733165" lon="13.070634755206218"><ele>4.0</ele><time>2026-05-02T18:47:03Z</time></trkpt><trkpt lat="45.82685447135008" lon="13.070155324793802"><ele>4.0</ele><time>2026-05-02T18:47:04Z</time></trkpt><trkpt lat="45.82678584898282" lon="13.069678905090056"><ele>4.0</ele><time>2026-05-02T18:47:05Z</time></trkpt><trkpt lat="45.82671831020772" lon="13.069203357434375"><ele>5.0</ele><time>2026-05-02T18:47:06Z</time></trkpt><trkpt lat="45.82665125860063" lon="13.068726977775587"><ele>6.0</ele><time>2026-05-02T18:47:07Z</time></trkpt><trkpt lat="45.826583514554414" lon="13.06824519809946"><ele>6.0</ele><time>2026-05-02T18:47:08Z</time></trkpt><trkpt lat="45.82651775224702" lon="13.067766763150408"><ele>6.0</ele><time>2026-05-02T18:47:09Z</time></trkpt><trkpt lat="45.826449254695525" lon="13.067288718529742"><ele>5.5</ele><time>2026-05-02T18:47:10Z</time></trkpt><trkpt lat="45.826382018455675" lon="13.0668136845706"><ele>5.0</ele><time>2026-05-02T18:47:11Z</time></trkpt><trkpt lat="45.826314687789825" lon="13.06633749769282"><ele>5.0</ele><time>2026-05-02T18:47:12Z</time></trkpt><trkpt lat="45.82624749453176" lon="13.065862272148953"><ele>5.0</ele><time>2026-05-02T18:47:13Z</time></trkpt><trkpt lat="45.82617911927913" lon="13.065385786700418"><ele>4.0</ele><time>2026-05-02T18:47:14Z</time></trkpt><trkpt lat="45.8261106556123" lon="13.064906697307341"><ele>3.0</ele><time>2026-05-02T18:47:15Z</time></trkpt><trkpt lat="45.82604300196314" lon="13.06442955453171"><ele>4.0</ele><time>2026-05-02T18:47:16Z</time></trkpt><trkpt lat="45.82597544960829" lon="13.063951760551436"><ele>5.0</ele><time>2026-05-02T18:47:17Z</time></trkpt><trkpt lat="45.82590579337994" lon="13.063474766800738"><ele>5.5</ele><time>2026-05-02T18:47:18Z</time></trkpt><trkpt lat="45.825836542574976" lon="13.062998356647295"><ele>6.0</ele><time>2026-05-02T18:47:19Z</time></trkpt><trkpt lat="45.825768431939515" lon="13.0625231000036"><ele>5.5</ele><time>2026-05-02T18:47:20Z</time></trkpt><trkpt lat="45.82569816481732" lon="13.062044983523029"><ele>5.0</ele><time>2026-05-02T18:47:21Z</time></trkpt><trkpt lat="45.82562709360828" lon="13.061566303624126"><ele>5.0</ele><time>2026-05-02T18:47:22Z</time></trkpt><trkpt lat="45.825556321774364" lon="13.061091793914018"><ele>5.0</ele><time>2026-05-02T18:47:23Z</time></trkpt><trkpt lat="45.825484875116594" lon="13.060616450887402"><ele>4.5</ele><time>2026-05-02T18:47:24Z</time></trkpt><trkpt lat="45.82541232090492" lon="13.060138707098258"><ele>4.0</ele><time>2026-05-02T18:47:25Z</time></trkpt><trkpt lat="45.82533987015742" lon="13.059662086028442"><ele>4.0</ele><time>2026-05-02T18:47:26Z</time></trkpt><trkpt lat="45.825268063129336" lon="13.059183663400415"><ele>4.0</ele><time>2026-05-02T18:47:27Z</time></trkpt><trkpt lat="45.82519732635091" lon="13.058705890199924"><ele>5.0</ele><time>2026-05-02T18:47:28Z</time></trkpt><trkpt lat="45.825130900769025" lon="13.058227924183953"><ele>6.0</ele><time>2026-05-02T18:47:29Z</time></trkpt><trkpt lat="45.82506208225174" lon="13.057747187250525"><ele>5.0</ele><time>2026-05-02T18:47:30Z</time></trkpt><trkpt lat="45.82499504280954" lon="13.057267852978999"><ele>4.0</ele><time>2026-05-02T18:47:31Z</time></trkpt><trkpt lat="45.82492667588607" lon="13.056787958801126"><ele>3.5</ele><time>2026-05-02T18:47:32Z</time></trkpt><trkpt lat="45.82485599284709" lon="13.056310660546998"><ele>3.0</ele><time>2026-05-02T18:47:33Z</time></trkpt><trkpt lat="45.82478452641145" lon="13.055836303916582"><ele>3.0</ele><time>2026-05-02T18:47:34Z</time></trkpt><trkpt lat="45.82471225912721" lon="13.05536064912943"><ele>3.0</ele><time>2026-05-02T18:47:35Z</time></trkpt><trkpt lat="45.82463915286303" lon="13.054881843610323"><ele>3.0</ele><time>2026-05-02T18:47:36Z</time></trkpt><trkpt lat="45.82456585409792" lon="13.054406240871401"><ele>3.0</ele><time>2026-05-02T18:47:37Z</time></trkpt><trkpt lat="45.824490470925994" lon="13.053928742807633"><ele>3.0</ele><time>2026-05-02T18:47:38Z</time></trkpt><trkpt lat="45.8244122325288" lon="13.05345204424918"><ele>3.0</ele><time>2026-05-02T18:47:39Z</time></trkpt><trkpt lat="45.82433580366965" lon="13.05297824957838"><ele>3.5</ele><time>2026-05-02T18:47:40Z</time></trkpt><trkpt lat="45.824254138915535" lon="13.052506206697789"><ele>4.0</ele><time>2026-05-02T18:47:41Z</time></trkpt><trkpt lat="45.82417220440861" lon="13.052032580145315"><ele>3.5</ele><time>2026-05-02T18:47:42Z</time></trkpt><trkpt lat="45.82408712283507" lon="13.051560798480004"><ele>3.0</ele><time>2026-05-02T18:47:43Z</time></trkpt><trkpt lat="45.82399994872674" lon="13.051090200977876"><ele>4.0</ele><time>2026-05-02T18:47:44Z</time></trkpt><trkpt lat="45.82391080298243" lon="13.050621117968461"><ele>5.0</ele><time>2026-05-02T18:47:45Z</time></trkpt><trkpt lat="45.82381647519573" lon="13.050153852178136"><ele>4.5</ele><time>2026-05-02T18:47:46Z</time></trkpt><trkpt lat="45.823717217975656" lon="13.049685463622195"><ele>4.0</ele><time>2026-05-02T18:47:47Z</time></trkpt><trkpt lat="45.82361662222408" lon="13.049219833035169"><ele>4.0</ele><time>2026-05-02T18:47:48Z</time></trkpt><trkpt lat="45.82350887020131" lon="13.048758367573194"><ele>4.0</ele><time>2026-05-02T18:47:49Z</time></trkpt><trkpt lat="45.823399767800794" lon="13.048292974292591"><ele>4.0</ele><time>2026-05-02T18:47:50Z</time></trkpt><trkpt lat="45.82328993178057" lon="13.04783398280719"><ele>4.0</ele><time>2026-05-02T18:47:51Z</time></trkpt><trkpt lat="45.82317597418869" lon="13.04737595249935"><ele>4.0</ele><time>2026-05-02T18:47:52Z</time></trkpt><trkpt lat="45.82305857422257" lon="13.046917843229966"><ele>4.0</ele><time>2026-05-02T18:47:53Z</time></trkpt><trkpt lat="45.82293891729035" lon="13.046458950828711"><ele>4.5</ele><time>2026-05-02T18:47:54Z</time></trkpt><trkpt lat="45.822817202264524" lon="13.046003627966307"><ele>5.0</ele><time>2026-05-02T18:47:55Z</time></trkpt><trkpt lat="45.82269245851442" lon="13.045549102027103"><ele>5.0</ele><time>2026-05-02T18:47:56Z</time></trkpt><trkpt lat="45.82257259449624" lon="13.045102973849191"><ele>5.0</ele><time>2026-05-02T18:47:57Z</time></trkpt><trkpt lat="45.82244464088874" lon="13.044648207610384"><ele>5.0</ele><time>2026-05-02T18:47:58Z</time></trkpt><trkpt lat="45.822315573825456" lon="13.044198658770608"><ele>5.0</ele><time>2026-05-02T18:47:59Z</time></trkpt><trkpt lat="45.82218470696849" lon="13.043745541524618"><ele>4.0</ele><time>2026-05-02T18:48:00Z</time></trkpt><trkpt lat="45.822052794963724" lon="13.043292125428168"><ele>3.0</ele><time>2026-05-02T18:48:01Z</time></trkpt><trkpt lat="45.82192097975973" lon="13.042841891382594"><ele>3.5</ele><time>2026-05-02T18:48:02Z</time></trkpt><trkpt lat="45.82179149817534" lon="13.042392459942949"><ele>4.0</ele><time>2026-05-02T18:48:03Z</time></trkpt><trkpt lat="45.821661734627035" lon="13.041942828376863"><ele>3.5</ele><time>2026-05-02T18:48:04Z</time></trkpt><trkpt lat="45.82153257706343" lon="13.041491218186977"><ele>3.0</ele><time>2026-05-02T18:48:05Z</time></trkpt><trkpt lat="45.82140300073318" lon="13.041037434179959"><ele>4.5</ele><time>2026-05-02T18:48:06Z</time></trkpt><trkpt lat="45.82127381796375" lon="13.040586570554787"><ele>6.0</ele><time>2026-05-02T18:48:07Z</time></trkpt><trkpt lat="45.82114305227814" lon="13.040133521116603"><ele>5.5</ele><time>2026-05-02T18:48:08Z</time></trkpt><trkpt lat="45.82101344181455" lon="13.039681897379541"><ele>5.0</ele><time>2026-05-02T18:48:09Z</time></trkpt><trkpt lat="45.820888342833456" lon="13.039229221658333"><ele>4.5</ele><time>2026-05-02T18:48:10Z</time></trkpt><trkpt lat="45.8207597719381" lon="13.03877470842622"><ele>4.0</ele><time>2026-05-02T18:48:11Z</time></trkpt><trkpt lat="45.82063185322357" lon="13.038320651333473"><ele>4.5</ele><time>2026-05-02T18:48:12Z</time></trkpt><trkpt lat="45.820506079057864" lon="13.037870137887284"><ele>5.0</ele><time>2026-05-02T18:48:13Z</time></trkpt><trkpt lat="45.82037771712425" lon="13.037417983497859"><ele>5.0</ele><time>2026-05-02T18:48:14Z</time></trkpt><trkpt lat="45.82024940262125" lon="13.036966714081693"><ele>5.0</ele><time>2026-05-02T18:48:15Z</time></trkpt><trkpt lat="45.82011934704651" lon="13.036517027098252"><ele>5.5</ele><time>2026-05-02T18:48:16Z</time></trkpt><trkpt lat="45.81998920951982" lon="13.036066801944465"><ele>6.0</ele><time>2026-05-02T18:48:17Z</time></trkpt><trkpt lat="45.819863825422736" lon="13.035619163593829"><ele>6.0</ele><time>2026-05-02T18:48:18Z</time></trkpt><trkpt lat="45.81973934109944" lon="13.035162885435714"><ele>6.0</ele><time>2026-05-02T18:48:19Z</time></trkpt><trkpt lat="45.819617479685355" lon="13.034703658452905"><ele>6.0</ele><time>2026-05-02T18:48:20Z</time></trkpt><trkpt lat="45.81950415642745" lon="13.03424870677144"><ele>6.0</ele><time>2026-05-02T18:48:21Z</time></trkpt><trkpt lat="45.819393975553076" lon="13.0337863932914"><ele>6.0</ele><time>2026-05-02T18:48:22Z</time></trkpt><trkpt lat="45.81929061401863" lon="13.033321837208186"><ele>6.0</ele><time>2026-05-02T18:48:23Z</time></trkpt><trkpt lat="45.81919632764695" lon="13.032855001733479"><ele>5.0</ele><time>2026-05-02T18:48:24Z</time></trkpt><trkpt lat="45.819102920791416" lon="13.032384961488026"><ele>4.0</ele><time>2026-05-02T18:48:25Z</time></trkpt><trkpt lat="45.81901727145743" lon="13.03191198000498"><ele>3.5</ele><time>2026-05-02T18:48:25.999Z</time></trkpt><trkpt lat="45.818938484847564" lon="13.031436566923439"><ele>3.0</ele><time>2026-05-02T18:48:26.999Z</time></trkpt><trkpt lat="45.81887213828992" lon="13.030955794517332"><ele>4.5</ele><time>2026-05-02T18:48:27.999Z</time></trkpt><trkpt lat="45.81880588287708" lon="13.030473804399227"><ele>6.0</ele><time>2026-05-02T18:48:28.999Z</time></trkpt><trkpt lat="45.81874463385699" lon="13.029994600247717"><ele>5.5</ele><time>2026-05-02T18:48:29.999Z</time></trkpt><trkpt lat="45.818690849782904" lon="13.029514000601994"><ele>5.0</ele><time>2026-05-02T18:48:30.999Z</time></trkpt><trkpt lat="45.81864103020184" lon="13.029032459181925"><ele>5.0</ele><time>2026-05-02T18:48:31.999Z</time></trkpt><trkpt lat="45.81859440336912" lon="13.028548871401604"><ele>5.0</ele><time>2026-05-02T18:48:32.999Z</time></trkpt><trkpt lat="45.81854911162327" lon="13.028065530542877"><ele>5.5</ele><time>2026-05-02T18:48:33.999Z</time></trkpt><trkpt lat="45.81850387603768" lon="13.027582679193062"><ele>6.0</ele><time>2026-05-02T18:48:34.999Z</time></trkpt><trkpt lat="45.81845967900412" lon="13.027098580122999"><ele>5.5</ele><time>2026-05-02T18:48:35.999Z</time></trkpt><trkpt lat="45.818420373996965" lon="13.026616110508874"><ele>5.0</ele><time>2026-05-02T18:48:36.999Z</time></trkpt><trkpt lat="45.818380363797154" lon="13.026134519180303"><ele>5.0</ele><time>2026-05-02T18:48:37.999Z</time></trkpt><trkpt lat="45.818341697072114" lon="13.025650928091128"><ele>5.0</ele><time>2026-05-02T18:48:38.999Z</time></trkpt><trkpt lat="45.81830100574185" lon="13.02516556157422"><ele>5.0</ele><time>2026-05-02T18:48:39.999Z</time></trkpt><trkpt lat="45.81826313823951" lon="13.024684537567152"><ele>5.0</ele><time>2026-05-02T18:48:41Z</time></trkpt><trkpt lat="45.81822226029768" lon="13.024198044814199"><ele>5.0</ele><time>2026-05-02T18:48:42Z</time></trkpt><trkpt lat="45.818182838468665" lon="13.023712359945984"><ele>5.0</ele><time>2026-05-02T18:48:43Z</time></trkpt><trkpt lat="45.81814564136618" lon="13.023229679558131"><ele>4.0</ele><time>2026-05-02T18:48:44Z</time></trkpt><trkpt lat="45.81810527094754" lon="13.022745471338004"><ele>3.0</ele><time>2026-05-02T18:48:45Z</time></trkpt><trkpt lat="45.818065230889694" lon="13.022259617731743"><ele>3.0</ele><time>2026-05-02T18:48:46Z</time></trkpt><trkpt lat="45.81802468381036" lon="13.021774878726134"><ele>3.0</ele><time>2026-05-02T18:48:47Z</time></trkpt><trkpt lat="45.81798578875836" lon="13.021289825347768"><ele>4.0</ele><time>2026-05-02T18:48:48Z</time></trkpt><trkpt lat="45.817945849344945" lon="13.020804479660981"><ele>5.0</ele><time>2026-05-02T18:48:49Z</time></trkpt><trkpt lat="45.81790644827926" lon="13.020320564897684"><ele>5.0</ele><time>2026-05-02T18:48:50Z</time></trkpt><trkpt lat="45.817866775468765" lon="13.01983820958871"><ele>5.0</ele><time>2026-05-02T18:48:51Z</time></trkpt><trkpt lat="45.81782420303639" lon="13.019356235305173"><ele>5.0</ele><time>2026-05-02T18:48:52Z</time></trkpt><trkpt lat="45.81778187995488" lon="13.01887304163766"><ele>5.0</ele><time>2026-05-02T18:48:53Z</time></trkpt><trkpt lat="45.81773994806421" lon="13.018391889609509"><ele>5.5</ele><time>2026-05-02T18:48:54Z</time></trkpt><trkpt lat="45.81769719626013" lon="13.01790694800567"><ele>6.0</ele><time>2026-05-02T18:48:55Z</time></trkpt><trkpt lat="45.81765327632204" lon="13.017421676864108"><ele>5.5</ele><time>2026-05-02T18:48:56Z</time></trkpt><trkpt lat="45.817610724355674" lon="13.016935695222957"><ele>5.0</ele><time>2026-05-02T18:48:57Z</time></trkpt><trkpt lat="45.817566356358085" lon="13.016447707781802"><ele>4.5</ele><time>2026-05-02T18:48:58Z</time></trkpt><trkpt lat="45.81752821309775" lon="13.015964840533249"><ele>4.0</ele><time>2026-05-02T18:48:59Z</time></trkpt><trkpt lat="45.817489036928016" lon="13.015482779853778"><ele>5.0</ele><time>2026-05-02T18:49:00Z</time></trkpt><trkpt lat="45.817447059976985" lon="13.014997528195963"><ele>6.0</ele><time>2026-05-02T18:49:01Z</time></trkpt><trkpt lat="45.81740564668066" lon="13.014512802967836"><ele>6.5</ele><time>2026-05-02T18:49:02Z</time></trkpt><trkpt lat="45.81736402853829" lon="13.01402787908341"><ele>7.0</ele><time>2026-05-02T18:49:03Z</time></trkpt><trkpt lat="45.81732273075052" lon="13.013545239649421"><ele>7.0</ele><time>2026-05-02T18:49:04Z</time></trkpt><trkpt lat="45.81728033750149" lon="13.013063845707823"><ele>7.0</ele><time>2026-05-02T18:49:05Z</time></trkpt><trkpt lat="45.8172395496453" lon="13.012581302494201"><ele>6.5</ele><time>2026-05-02T18:49:06Z</time></trkpt><trkpt lat="45.81720028640028" lon="13.01209897298834"><ele>6.0</ele><time>2026-05-02T18:49:07Z</time></trkpt><trkpt lat="45.81716236288289" lon="13.011615543972724"><ele>5.5</ele><time>2026-05-02T18:49:08Z</time></trkpt><trkpt lat="45.81712104475248" lon="13.011127667679753"><ele>5.0</ele><time>2026-05-02T18:49:09Z</time></trkpt><trkpt lat="45.81708222155969" lon="13.010641899502913"><ele>5.0</ele><time>2026-05-02T18:49:10Z</time></trkpt><trkpt lat="45.81704251736053" lon="13.01015751064059"><ele>5.0</ele><time>2026-05-02T18:49:11Z</time></trkpt><trkpt lat="45.81699855908152" lon="13.009670555480858"><ele>5.0</ele><time>2026-05-02T18:49:12Z</time></trkpt><trkpt lat="45.81695471761242" lon="13.00918501854262"><ele>5.0</ele><time>2026-05-02T18:49:13Z</time></trkpt><trkpt lat="45.81690843714108" lon="13.008698578492828"><ele>5.0</ele><time>2026-05-02T18:49:14Z</time></trkpt><trkpt lat="45.81686205085546" lon="13.008213638381834"><ele>5.0</ele><time>2026-05-02T18:49:15Z</time></trkpt><trkpt lat="45.81681394050563" lon="13.00773591353336"><ele>4.5</ele><time>2026-05-02T18:49:16Z</time></trkpt><trkpt lat="45.81676054860299" lon="13.007262702851868"><ele>4.0</ele><time>2026-05-02T18:49:17Z</time></trkpt><trkpt lat="45.81670166520129" lon="13.006780653438343"><ele>5.0</ele><time>2026-05-02T18:49:18Z</time></trkpt><trkpt lat="45.81664119169469" lon="13.006299650168907"><ele>6.0</ele><time>2026-05-02T18:49:19Z</time></trkpt><trkpt lat="45.81657852108748" lon="13.005825917006034"><ele>6.0</ele><time>2026-05-02T18:49:20Z</time></trkpt><trkpt lat="45.81651140693982" lon="13.005347719823748"><ele>6.0</ele><time>2026-05-02T18:49:21Z</time></trkpt><trkpt lat="45.81643873739202" lon="13.00486968310135"><ele>6.0</ele><time>2026-05-02T18:49:22Z</time></trkpt><trkpt lat="45.8163643713254" lon="13.004391396861186"><ele>6.0</ele><time>2026-05-02T18:49:23Z</time></trkpt><trkpt lat="45.816289342935576" lon="13.003917481763851"><ele>6.0</ele><time>2026-05-02T18:49:24Z</time></trkpt><trkpt lat="45.81621337926417" lon="13.003441780331698"><ele>6.0</ele><time>2026-05-02T18:49:25Z</time></trkpt><trkpt lat="45.81613598002339" lon="13.002966400957478"><ele>8.0</ele><time>2026-05-02T18:49:26Z</time></trkpt><trkpt lat="45.81606025300706" lon="13.002489980932285"><ele>10.0</ele><time>2026-05-02T18:49:27Z</time></trkpt><trkpt lat="45.815986961513104" lon="13.002015716965591"><ele>9.5</ele><time>2026-05-02T18:49:28Z</time></trkpt><trkpt lat="45.8159174016581" lon="13.001553775295928"><ele>9.0</ele><time>2026-05-02T18:49:29Z</time></trkpt><trkpt lat="45.81585447735341" lon="13.00110620322841"><ele>8.5</ele><time>2026-05-02T18:49:30Z</time></trkpt><trkpt lat="45.815793774685" lon="13.000663627512296"><ele>8.0</ele><time>2026-05-02T18:49:31Z</time></trkpt><trkpt lat="45.81573121652699" lon="13.0002192349139"><ele>8.0</ele><time>2026-05-02T18:49:32Z</time></trkpt><trkpt lat="45.815668980210944" lon="12.999777397205094"><ele>8.0</ele><time>2026-05-02T18:49:33Z</time></trkpt><trkpt lat="45.81560701111861" lon="12.999334964581513"><ele>8.0</ele><time>2026-05-02T18:49:34Z</time></trkpt><trkpt lat="45.81554509709452" lon="12.998889196027491"><ele>8.0</ele><time>2026-05-02T18:49:35Z</time></trkpt><trkpt lat="45.8154838991171" lon="12.998436284496934"><ele>9.0</ele><time>2026-05-02T18:49:36Z</time></trkpt><trkpt lat="45.81542107196611" lon="12.997980833206569"><ele>10.0</ele><time>2026-05-02T18:49:37Z</time></trkpt><trkpt lat="45.815358354475215" lon="12.997522868792048"><ele>9.5</ele><time>2026-05-02T18:49:38Z</time></trkpt><trkpt lat="45.81529526229309" lon="12.997061368970515"><ele>9.0</ele><time>2026-05-02T18:49:39Z</time></trkpt><trkpt lat="45.815228425662546" lon="12.996599915934972"><ele>8.5</ele><time>2026-05-02T18:49:40Z</time></trkpt><trkpt lat="45.81515907866937" lon="12.996136414380546"><ele>8.0</ele><time>2026-05-02T18:49:41Z</time></trkpt><trkpt lat="45.81508489331836" lon="12.995671624442341"><ele>8.0</ele><time>2026-05-02T18:49:42Z</time></trkpt><trkpt lat="45.81500488487282" lon="12.99520125577988"><ele>8.0</ele><time>2026-05-02T18:49:43Z</time></trkpt><trkpt lat="45.814921743033345" lon="12.994731759219778"><ele>8.5</ele><time>2026-05-02T18:49:44Z</time></trkpt><trkpt lat="45.81483604680433" lon="12.994262847321824"><ele>9.0</ele><time>2026-05-02T18:49:45Z</time></trkpt><trkpt lat="45.81475129497804" lon="12.993790254178007"><ele>9.0</ele><time>2026-05-02T18:49:46Z</time></trkpt><trkpt lat="45.814667483186355" lon="12.993319620223298"><ele>9.0</ele><time>2026-05-02T18:49:47Z</time></trkpt><trkpt lat="45.81458231439285" lon="12.992849405051079"><ele>8.5</ele><time>2026-05-02T18:49:48Z</time></trkpt><trkpt lat="45.81449644501551" lon="12.99237814888069"><ele>8.0</ele><time>2026-05-02T18:49:49Z</time></trkpt><trkpt lat="45.814408826044925" lon="12.991906511514424"><ele>8.0</ele><time>2026-05-02T18:49:50Z</time></trkpt><trkpt lat="45.814323652117565" lon="12.991434687593927"><ele>8.0</ele><time>2026-05-02T18:49:51Z</time></trkpt><trkpt lat="45.814235949437105" lon="12.990961488948512"><ele>8.0</ele><time>2026-05-02T18:49:52Z</time></trkpt><trkpt lat="45.81414989036023" lon="12.990490394359512"><ele>8.0</ele><time>2026-05-02T18:49:53Z</time></trkpt><trkpt lat="45.814063179959334" lon="12.990017408030626"><ele>9.0</ele><time>2026-05-02T18:49:54Z</time></trkpt><trkpt lat="45.813977304402854" lon="12.989543504068186"><ele>10.0</ele><time>2026-05-02T18:49:55Z</time></trkpt><trkpt lat="45.813893639698065" lon="12.989070483609083"><ele>10.0</ele><time>2026-05-02T18:49:56Z</time></trkpt><trkpt lat="45.8138089645096" lon="12.988599304473647"><ele>10.0</ele><time>2026-05-02T18:49:57Z</time></trkpt><trkpt lat="45.813726108652325" lon="12.988125821626063"><ele>8.0</ele><time>2026-05-02T18:49:58Z</time></trkpt><trkpt lat="45.81364333512601" lon="12.987657217081445"><ele>6.0</ele><time>2026-05-02T18:49:59Z</time></trkpt><trkpt lat="45.813558297486594" lon="12.987185184643327"><ele>6.5</ele><time>2026-05-02T18:50:00Z</time></trkpt><trkpt lat="45.81347577204818" lon="12.98671505228159"><ele>7.0</ele><time>2026-05-02T18:50:01Z</time></trkpt><trkpt lat="45.81338996103126" lon="12.986245195311204"><ele>7.0</ele><time>2026-05-02T18:50:02Z</time></trkpt><trkpt lat="45.813302713670126" lon="12.985773055441848"><ele>7.0</ele><time>2026-05-02T18:50:03Z</time></trkpt><trkpt lat="45.81321610445628" lon="12.985302474920434"><ele>6.5</ele><time>2026-05-02T18:50:04Z</time></trkpt><trkpt lat="45.813128289689644" lon="12.984833609374414"><ele>6.0</ele><time>2026-05-02T18:50:05Z</time></trkpt><trkpt lat="45.81304283522257" lon="12.984360590549349"><ele>6.0</ele><time>2026-05-02T18:50:06Z</time></trkpt><trkpt lat="45.812958283216005" lon="12.983888023393208"><ele>6.0</ele><time>2026-05-02T18:50:07Z</time></trkpt><trkpt lat="45.81287354737224" lon="12.98341194425293"><ele>6.0</ele><time>2026-05-02T18:50:08Z</time></trkpt><trkpt lat="45.81278879496447" lon="12.982937974820492"><ele>6.0</ele><time>2026-05-02T18:50:09Z</time></trkpt><trkpt lat="45.8127022132072" lon="12.982462403816715"><ele>6.0</ele><time>2026-05-02T18:50:10Z</time></trkpt><trkpt lat="45.81261649347588" lon="12.981990791062081"><ele>6.0</ele><time>2026-05-02T18:50:11Z</time></trkpt><trkpt lat="45.812528237410746" lon="12.981518196893802"><ele>6.0</ele><time>2026-05-02T18:50:12Z</time></trkpt><trkpt lat="45.81244112590333" lon="12.981046818194438"><ele>6.0</ele><time>2026-05-02T18:50:13Z</time></trkpt><trkpt lat="45.81235561359547" lon="12.98057602855698"><ele>4.0</ele><time>2026-05-02T18:50:14Z</time></trkpt><trkpt lat="45.81226978223258" lon="12.980107206214086"><ele>2.0</ele><time>2026-05-02T18:50:15Z</time></trkpt><trkpt lat="45.81218449130373" lon="12.979634302287993"><ele>6.5</ele><time>2026-05-02T18:50:16Z</time></trkpt><trkpt lat="45.812101073836864" lon="12.979162844222918"><ele>11.0</ele><time>2026-05-02T18:50:17Z</time></trkpt><trkpt lat="45.812015067509364" lon="12.978690312859772"><ele>11.5</ele><time>2026-05-02T18:50:18Z</time></trkpt><trkpt lat="45.81193137328398" lon="12.978216066387581"><ele>12.0</ele><time>2026-05-02T18:50:19Z</time></trkpt><trkpt lat="45.81184584910015" lon="12.977739190688416"><ele>11.0</ele><time>2026-05-02T18:50:20Z</time></trkpt><trkpt lat="45.81176140372142" lon="12.977268383543935"><ele>10.0</ele><time>2026-05-02T18:50:21Z</time></trkpt><trkpt lat="45.811676220846" lon="12.97679508733748"><ele>9.5</ele><time>2026-05-02T18:50:22Z</time></trkpt><trkpt lat="45.811591422211535" lon="12.97632326273741"><ele>9.0</ele><time>2026-05-02T18:50:23Z</time></trkpt><trkpt lat="45.81150632746689" lon="12.975850195529437"><ele>8.5</ele><time>2026-05-02T18:50:24Z</time></trkpt><trkpt lat="45.81142045454922" lon="12.975378142436819"><ele>8.0</ele><time>2026-05-02T18:50:25Z</time></trkpt><trkpt lat="45.811337666859" lon="12.974907389633184"><ele>7.5</ele><time>2026-05-02T18:50:26Z</time></trkpt><trkpt lat="45.81125440479192" lon="12.97443652546298"><ele>7.0</ele><time>2026-05-02T18:50:27Z</time></trkpt><trkpt lat="45.81116750168381" lon="12.97396592964714"><ele>7.0</ele><time>2026-05-02T18:50:28Z</time></trkpt><trkpt lat="45.811078948471064" lon="12.973495902947434"><ele>7.0</ele><time>2026-05-02T18:50:29Z</time></trkpt><trkpt lat="45.81098734606095" lon="12.973027348682965"><ele>7.0</ele><time>2026-05-02T18:50:30Z</time></trkpt><trkpt lat="45.81089227149477" lon="12.97255848281485"><ele>7.0</ele><time>2026-05-02T18:50:31Z</time></trkpt><trkpt lat="45.810793967411485" lon="12.972089271181805"><ele>7.0</ele><time>2026-05-02T18:50:32Z</time></trkpt><trkpt lat="45.81069345483177" lon="12.971616865386745"><ele>7.0</ele><time>2026-05-02T18:50:33Z</time></trkpt><trkpt lat="45.81059715170393" lon="12.971147742860605"><ele>6.5</ele><time>2026-05-02T18:50:34Z</time></trkpt><trkpt lat="45.81049954496918" lon="12.970682122602797"><ele>6.0</ele><time>2026-05-02T18:50:34.999Z</time></trkpt><trkpt lat="45.810407930794234" lon="12.970212199657995"><ele>6.5</ele><time>2026-05-02T18:50:35.999Z</time></trkpt><trkpt lat="45.81031356339565" lon="12.969741910818774"><ele>7.0</ele><time>2026-05-02T18:50:36.999Z</time></trkpt><trkpt lat="45.810221654247115" lon="12.969269689259512"><ele>7.0</ele><time>2026-05-02T18:50:37.999Z</time></trkpt><trkpt lat="45.8101313538803" lon="12.968800962381225"><ele>7.0</ele><time>2026-05-02T18:50:38.999Z</time></trkpt><trkpt lat="45.81004268570908" lon="12.968333540264211"><ele>7.0</ele><time>2026-05-02T18:50:39.999Z</time></trkpt><trkpt lat="45.80995372020533" lon="12.967862373117246"><ele>7.0</ele><time>2026-05-02T18:50:40.999Z</time></trkpt><trkpt lat="45.80986544411129" lon="12.967393418216504"><ele>7.0</ele><time>2026-05-02T18:50:41.999Z</time></trkpt><trkpt lat="45.8097811281528" lon="12.966919178418427"><ele>7.0</ele><time>2026-05-02T18:50:42.999Z</time></trkpt><trkpt lat="45.809701271262796" lon="12.966440845176233"><ele>7.0</ele><time>2026-05-02T18:50:43.999Z</time></trkpt><trkpt lat="45.80962562596881" lon="12.965964193922675"><ele>7.0</ele><time>2026-05-02T18:50:44.999Z</time></trkpt><trkpt lat="45.80955869670326" lon="12.965486216221422"><ele>6.5</ele><time>2026-05-02T18:50:45.999Z</time></trkpt><trkpt lat="45.80949561070505" lon="12.965005579509283"><ele>6.0</ele><time>2026-05-02T18:50:47Z</time></trkpt><trkpt lat="45.80943724429306" lon="12.964526571056885"><ele>6.0</ele><time>2026-05-02T18:50:48Z</time></trkpt><trkpt lat="45.80938355798922" lon="12.9640454022958"><ele>6.0</ele><time>2026-05-02T18:50:49Z</time></trkpt><trkpt lat="45.80933499462359" lon="12.963565450855087"><ele>5.5</ele><time>2026-05-02T18:50:50Z</time></trkpt><trkpt lat="45.80928961295341" lon="12.963083981233316"><ele>5.0</ele><time>2026-05-02T18:50:51Z</time></trkpt><trkpt lat="45.80924571190039" lon="12.96260125871928"><ele>5.0</ele><time>2026-05-02T18:50:52Z</time></trkpt><trkpt lat="45.809204044570485" lon="12.962118869163184"><ele>5.0</ele><time>2026-05-02T18:50:53Z</time></trkpt><trkpt lat="45.80916112438672" lon="12.961634805598253"><ele>5.5</ele><time>2026-05-02T18:50:54Z</time></trkpt><trkpt lat="45.809119289035145" lon="12.96115230158249"><ele>6.0</ele><time>2026-05-02T18:50:55Z</time></trkpt><trkpt lat="45.80907743071325" lon="12.96067114672377"><ele>6.0</ele><time>2026-05-02T18:50:56Z</time></trkpt><trkpt lat="45.809037147534006" lon="12.960189614789885"><ele>6.0</ele><time>2026-05-02T18:50:57Z</time></trkpt><trkpt lat="45.80899979818626" lon="12.959707456180455"><ele>5.5</ele><time>2026-05-02T18:50:58Z</time></trkpt><trkpt lat="45.80896368923463" lon="12.959225854177541"><ele>5.0</ele><time>2026-05-02T18:50:59Z</time></trkpt><trkpt lat="45.808926839987265" lon="12.95874269636808"><ele>4.5</ele><time>2026-05-02T18:51:00Z</time></trkpt><trkpt lat="45.80888946521116" lon="12.958261428276618"><ele>4.0</ele><time>2026-05-02T18:51:01Z</time></trkpt><trkpt lat="45.80885281647181" lon="12.957778261110652"><ele>4.5</ele><time>2026-05-02T18:51:02Z</time></trkpt><trkpt lat="45.80881398069155" lon="12.957296882243893"><ele>5.0</ele><time>2026-05-02T18:51:03Z</time></trkpt><trkpt lat="45.80877501938374" lon="12.95681141676814"><ele>5.0</ele><time>2026-05-02T18:51:04Z</time></trkpt><trkpt lat="45.808737007248475" lon="12.95632515995536"><ele>5.0</ele><time>2026-05-02T18:51:05Z</time></trkpt><trkpt lat="45.80869776348963" lon="12.955841074012445"><ele>4.5</ele><time>2026-05-02T18:51:06Z</time></trkpt><trkpt lat="45.80866073601546" lon="12.955353834781297"><ele>4.0</ele><time>2026-05-02T18:51:07Z</time></trkpt><trkpt lat="45.80862592587873" lon="12.954868646959293"><ele>3.5</ele><time>2026-05-02T18:51:08Z</time></trkpt><trkpt lat="45.80859033658492" lon="12.954383078449057"><ele>3.0</ele><time>2026-05-02T18:51:09Z</time></trkpt><trkpt lat="45.80855296606033" lon="12.953896125737359"><ele>2.0</ele><time>2026-05-02T18:51:10Z</time></trkpt><trkpt lat="45.80851582440768" lon="12.953411973503535"><ele>1.0</ele><time>2026-05-02T18:51:11Z</time></trkpt><trkpt lat="45.808476220386126" lon="12.952927559147701"><ele>2.5</ele><time>2026-05-02T18:51:12Z</time></trkpt><trkpt lat="45.80843672181614" lon="12.952442212103437"><ele>4.0</ele><time>2026-05-02T18:51:13Z</time></trkpt><trkpt lat="45.80839717931177" lon="12.951957095616844"><ele>4.0</ele><time>2026-05-02T18:51:14Z</time></trkpt><trkpt lat="45.80836033757163" lon="12.951475192998744"><ele>4.0</ele><time>2026-05-02T18:51:15Z</time></trkpt><trkpt lat="45.80832126760534" lon="12.950989208938676"><ele>4.0</ele><time>2026-05-02T18:51:16Z</time></trkpt><trkpt lat="45.808282094783635" lon="12.950504580720045"><ele>4.0</ele><time>2026-05-02T18:51:17Z</time></trkpt><trkpt lat="45.808241317551" lon="12.950019632835863"><ele>4.0</ele><time>2026-05-02T18:51:18Z</time></trkpt><trkpt lat="45.808200362194086" lon="12.949538336228793"><ele>4.0</ele><time>2026-05-02T18:51:19Z</time></trkpt><trkpt lat="45.808160300986685" lon="12.949055349677096"><ele>4.0</ele><time>2026-05-02T18:51:20Z</time></trkpt><trkpt lat="45.8081212213316" lon="12.948571696506777"><ele>4.0</ele><time>2026-05-02T18:51:21Z</time></trkpt><trkpt lat="45.808083914792824" lon="12.948088971764365"><ele>4.0</ele><time>2026-05-02T18:51:22Z</time></trkpt><trkpt lat="45.8080453458058" lon="12.947600636002438"><ele>4.0</ele><time>2026-05-02T18:51:23Z</time></trkpt><trkpt lat="45.808007779670234" lon="12.94711601487014"><ele>4.0</ele><time>2026-05-02T18:51:24Z</time></trkpt><trkpt lat="45.807970416057294" lon="12.946630022488916"><ele>4.0</ele><time>2026-05-02T18:51:25Z</time></trkpt><trkpt lat="45.80793469240101" lon="12.94614636556417"><ele>4.0</ele><time>2026-05-02T18:51:26Z</time></trkpt><trkpt lat="45.807897101790964" lon="12.945660743252986"><ele>4.0</ele><time>2026-05-02T18:51:27Z</time></trkpt><trkpt lat="45.80786032313029" lon="12.945176386768646"><ele>3.5</ele><time>2026-05-02T18:51:28Z</time></trkpt><trkpt lat="45.80782107654313" lon="12.944692997795832"><ele>3.0</ele><time>2026-05-02T18:51:29Z</time></trkpt><trkpt lat="45.807780576725314" lon="12.944209186926672"><ele>3.0</ele><time>2026-05-02T18:51:30Z</time></trkpt><trkpt lat="45.80773952958445" lon="12.943725179836164"><ele>3.0</ele><time>2026-05-02T18:51:31Z</time></trkpt><trkpt lat="45.807699747441816" lon="12.943243477938184"><ele>3.0</ele><time>2026-05-02T18:51:32Z</time></trkpt><trkpt lat="45.807660339556456" lon="12.942759935113488"><ele>3.0</ele><time>2026-05-02T18:51:33Z</time></trkpt><trkpt lat="45.80762171852462" lon="12.942276957141498"><ele>3.0</ele><time>2026-05-02T18:51:34Z</time></trkpt><trkpt lat="45.80758386833407" lon="12.9417914037764"><ele>3.0</ele><time>2026-05-02T18:51:35Z</time></trkpt><trkpt lat="45.80754697703046" lon="12.941309962507304"><ele>2.5</ele><time>2026-05-02T18:51:36Z</time></trkpt><trkpt lat="45.80750932631066" lon="12.940824875038281"><ele>2.0</ele><time>2026-05-02T18:51:37Z</time></trkpt><trkpt lat="45.80747302104088" lon="12.940340915346257"><ele>2.0</ele><time>2026-05-02T18:51:38Z</time></trkpt><trkpt lat="45.8074345334913" lon="12.939852513955717"><ele>2.0</ele><time>2026-05-02T18:51:39Z</time></trkpt><trkpt lat="45.807396210840054" lon="12.939367734815205"><ele>3.5</ele><time>2026-05-02T18:51:40Z</time></trkpt><trkpt lat="45.807358372214324" lon="12.938884606120864"><ele>5.0</ele><time>2026-05-02T18:51:41Z</time></trkpt><trkpt lat="45.80732209146608" lon="12.938403185971682"><ele>4.5</ele><time>2026-05-02T18:51:42Z</time></trkpt><trkpt lat="45.80727861559172" lon="12.937914992724847"><ele>4.0</ele><time>2026-05-02T18:51:43Z</time></trkpt><trkpt lat="45.8072415849355" lon="12.937431840471476"><ele>3.5</ele><time>2026-05-02T18:51:44Z</time></trkpt><trkpt lat="45.80720156947477" lon="12.936947276487567"><ele>3.0</ele><time>2026-05-02T18:51:45Z</time></trkpt><trkpt lat="45.80716112483082" lon="12.936460574317026"><ele>3.0</ele><time>2026-05-02T18:51:46Z</time></trkpt><trkpt lat="45.80712329147744" lon="12.935979162165186"><ele>3.0</ele><time>2026-05-02T18:51:47Z</time></trkpt><trkpt lat="45.80708397789873" lon="12.935493423925115"><ele>3.5</ele><time>2026-05-02T18:51:48Z</time></trkpt><trkpt lat="45.807043391467396" lon="12.935006615657002"><ele>4.0</ele><time>2026-05-02T18:51:49Z</time></trkpt><trkpt lat="45.807006244289106" lon="12.934523802123328"><ele>4.0</ele><time>2026-05-02T18:51:50Z</time></trkpt><trkpt lat="45.80697055467275" lon="12.934036872024713"><ele>4.0</ele><time>2026-05-02T18:51:51Z</time></trkpt><trkpt lat="45.80693668861427" lon="12.933553203201356"><ele>4.0</ele><time>2026-05-02T18:51:52Z</time></trkpt><trkpt lat="45.80689985447257" lon="12.933069178599085"><ele>4.0</ele><time>2026-05-02T18:51:53Z</time></trkpt><trkpt lat="45.80686380914274" lon="12.932586585690977"><ele>4.0</ele><time>2026-05-02T18:51:54Z</time></trkpt><trkpt lat="45.806824892056646" lon="12.932102508239549"><ele>4.0</ele><time>2026-05-02T18:51:55Z</time></trkpt><trkpt lat="45.80678441796758" lon="12.931619179379233"><ele>4.0</ele><time>2026-05-02T18:51:56Z</time></trkpt><trkpt lat="45.806745307735966" lon="12.931134007192725"><ele>4.0</ele><time>2026-05-02T18:51:57Z</time></trkpt><trkpt lat="45.80670563733258" lon="12.930650341417962"><ele>4.0</ele><time>2026-05-02T18:51:58Z</time></trkpt><trkpt lat="45.80666708212567" lon="12.930165482089139"><ele>4.0</ele><time>2026-05-02T18:51:59Z</time></trkpt><trkpt lat="45.80663073906864" lon="12.929679908517304"><ele>4.0</ele><time>2026-05-02T18:52:00Z</time></trkpt><trkpt lat="45.806597209158376" lon="12.929195748261783"><ele>4.0</ele><time>2026-05-02T18:52:01Z</time></trkpt><trkpt lat="45.80656355691535" lon="12.928710084815778"><ele>4.5</ele><time>2026-05-02T18:52:02Z</time></trkpt><trkpt lat="45.80652952019076" lon="12.928223909219303"><ele>5.0</ele><time>2026-05-02T18:52:03Z</time></trkpt><trkpt lat="45.80649847343437" lon="12.927737621032584"><ele>4.5</ele><time>2026-05-02T18:52:04Z</time></trkpt><trkpt lat="45.80646601092995" lon="12.9272517194155"><ele>4.0</ele><time>2026-05-02T18:52:05Z</time></trkpt><trkpt lat="45.80643499530228" lon="12.926765642197774"><ele>3.5</ele><time>2026-05-02T18:52:06Z</time></trkpt><trkpt lat="45.806404642093625" lon="12.926277783237015"><ele>3.0</ele><time>2026-05-02T18:52:07Z</time></trkpt><trkpt lat="45.806373713067735" lon="12.925793602853368"><ele>3.0</ele><time>2026-05-02T18:52:08Z</time></trkpt><trkpt lat="45.80634332371496" lon="12.925309375369636"><ele>3.0</ele><time>2026-05-02T18:52:09Z</time></trkpt><trkpt lat="45.80630984191415" lon="12.92482276497416"><ele>3.0</ele><time>2026-05-02T18:52:10Z</time></trkpt><trkpt lat="45.8062720331935" lon="12.92433983536515"><ele>3.0</ele><time>2026-05-02T18:52:11Z</time></trkpt><trkpt lat="45.806232098093034" lon="12.923859469620327"><ele>3.5</ele><time>2026-05-02T18:52:12Z</time></trkpt><trkpt lat="45.806191206605874" lon="12.923372384545122"><ele>4.0</ele><time>2026-05-02T18:52:13Z</time></trkpt><trkpt lat="45.806150588442804" lon="12.922888894259666"><ele>5.0</ele><time>2026-05-02T18:52:14Z</time></trkpt><trkpt lat="45.80611251562114" lon="12.922406878928344"><ele>6.0</ele><time>2026-05-02T18:52:15Z</time></trkpt><trkpt lat="45.806075119413514" lon="12.921922176085017"><ele>4.5</ele><time>2026-05-02T18:52:16Z</time></trkpt><trkpt lat="45.80603934722461" lon="12.921435700655334"><ele>3.0</ele><time>2026-05-02T18:52:17Z</time></trkpt><trkpt lat="45.80600415864597" lon="12.920946995069388"><ele>4.5</ele><time>2026-05-02T18:52:18Z</time></trkpt><trkpt lat="45.8059684876684" lon="12.920459110132086"><ele>6.0</ele><time>2026-05-02T18:52:19Z</time></trkpt><trkpt lat="45.80593366514022" lon="12.919972798041508"><ele>6.0</ele><time>2026-05-02T18:52:20Z</time></trkpt><trkpt lat="45.805896786754204" lon="12.919490058660383"><ele>6.0</ele><time>2026-05-02T18:52:21Z</time></trkpt><trkpt lat="45.80585509471776" lon="12.91900868231788"><ele>6.0</ele><time>2026-05-02T18:52:22Z</time></trkpt><trkpt lat="45.80580619373371" lon="12.918527247596694"><ele>6.0</ele><time>2026-05-02T18:52:23Z</time></trkpt><trkpt lat="45.80575541214138" lon="12.91804575875187"><ele>5.5</ele><time>2026-05-02T18:52:24Z</time></trkpt><trkpt lat="45.80570220592906" lon="12.917565503534808"><ele>5.0</ele><time>2026-05-02T18:52:25Z</time></trkpt><trkpt lat="45.80565079887959" lon="12.917085983516515"><ele>5.5</ele><time>2026-05-02T18:52:26Z</time></trkpt><trkpt lat="45.80559841983598" lon="12.916610453957055"><ele>6.0</ele><time>2026-05-02T18:52:27Z</time></trkpt><trkpt lat="45.80554433360517" lon="12.916124948859842"><ele>6.0</ele><time>2026-05-02T18:52:28Z</time></trkpt><trkpt lat="45.805495136481674" lon="12.915640267325113"><ele>6.0</ele><time>2026-05-02T18:52:29Z</time></trkpt><trkpt lat="45.80544958676418" lon="12.915158316182756"><ele>6.0</ele><time>2026-05-02T18:52:30Z</time></trkpt><trkpt lat="45.80540534077843" lon="12.914673470281938"><ele>6.0</ele><time>2026-05-02T18:52:31Z</time></trkpt><trkpt lat="45.80536273046125" lon="12.914193304800119"><ele>5.5</ele><time>2026-05-02T18:52:32Z</time></trkpt><trkpt lat="45.80532064969821" lon="12.913709306476468"><ele>5.0</ele><time>2026-05-02T18:52:33Z</time></trkpt><trkpt lat="45.805281221876015" lon="12.913226534147524"><ele>5.0</ele><time>2026-05-02T18:52:34Z</time></trkpt><trkpt lat="45.80524241376133" lon="12.912741564551913"><ele>5.0</ele><time>2026-05-02T18:52:35Z</time></trkpt><trkpt lat="45.80520702735893" lon="12.912259596505631"><ele>5.0</ele><time>2026-05-02T18:52:36Z</time></trkpt><trkpt lat="45.80517414586346" lon="12.911776293684168"><ele>5.0</ele><time>2026-05-02T18:52:37Z</time></trkpt><trkpt lat="45.80514363375291" lon="12.91129226985258"><ele>5.0</ele><time>2026-05-02T18:52:38Z</time></trkpt><trkpt lat="45.80511500605653" lon="12.91080831315183"><ele>5.0</ele><time>2026-05-02T18:52:38.999Z</time></trkpt><trkpt lat="45.80508799131897" lon="12.910320069125245"><ele>4.5</ele><time>2026-05-02T18:52:39.999Z</time></trkpt><trkpt lat="45.80506303798903" lon="12.90983284281653"><ele>4.0</ele><time>2026-05-02T18:52:40.999Z</time></trkpt><trkpt lat="45.8050396755072" lon="12.909347767149942"><ele>4.5</ele><time>2026-05-02T18:52:41.999Z</time></trkpt><trkpt lat="45.80501953890274" lon="12.908861545221482"><ele>5.0</ele><time>2026-05-02T18:52:42.999Z</time></trkpt><trkpt lat="45.80500000212884" lon="12.90836995820919"><ele>5.0</ele><time>2026-05-02T18:52:43.999Z</time></trkpt><trkpt lat="45.804982068769384" lon="12.907881651403283"><ele>5.0</ele><time>2026-05-02T18:52:44.999Z</time></trkpt><trkpt lat="45.80496900726184" lon="12.907396210507908"><ele>5.5</ele><time>2026-05-02T18:52:45.999Z</time></trkpt><trkpt lat="45.80495961546909" lon="12.906908392205724"><ele>6.0</ele><time>2026-05-02T18:52:46.999Z</time></trkpt><trkpt lat="45.804950502468444" lon="12.906418016820055"><ele>5.0</ele><time>2026-05-02T18:52:47.999Z</time></trkpt><trkpt lat="45.80494513878127" lon="12.905929924400843"><ele>4.0</ele><time>2026-05-02T18:52:48.999Z</time></trkpt><trkpt lat="45.804938891084184" lon="12.90544351633513"><ele>4.5</ele><time>2026-05-02T18:52:49.999Z</time></trkpt><trkpt lat="45.804936211730336" lon="12.904957771510848"><ele>5.0</ele><time>2026-05-02T18:52:50.999Z</time></trkpt><trkpt lat="45.804933842712494" lon="12.904472707028335"><ele>5.0</ele><time>2026-05-02T18:52:51.999Z</time></trkpt><trkpt lat="45.80493516223023" lon="12.903984283696335"><ele>5.0</ele><time>2026-05-02T18:52:53Z</time></trkpt><trkpt lat="45.80493914955749" lon="12.903496379909317"><ele>4.5</ele><time>2026-05-02T18:52:54Z</time></trkpt><trkpt lat="45.80494654558617" lon="12.903008686333818"><ele>4.0</ele><time>2026-05-02T18:52:55Z</time></trkpt><trkpt lat="45.80495568821797" lon="12.902525024955997"><ele>4.0</ele><time>2026-05-02T18:52:56Z</time></trkpt><trkpt lat="45.80496649799068" lon="12.902038796377706"><ele>4.0</ele><time>2026-05-02T18:52:57Z</time></trkpt><trkpt lat="45.804978233297305" lon="12.901552061279821"><ele>4.5</ele><time>2026-05-02T18:52:58Z</time></trkpt><trkpt lat="45.80499104720274" lon="12.901064844178617"><ele>5.0</ele><time>2026-05-02T18:52:59Z</time></trkpt><trkpt lat="45.805005666583234" lon="12.900574027444144"><ele>5.0</ele><time>2026-05-02T18:53:00Z</time></trkpt><trkpt lat="45.80502277795823" lon="12.900087328486448"><ele>5.0</ele><time>2026-05-02T18:53:01Z</time></trkpt><trkpt lat="45.805044860602145" lon="12.899603935652037"><ele>5.5</ele><time>2026-05-02T18:53:02Z</time></trkpt><trkpt lat="45.805066691464894" lon="12.899121200501902"><ele>6.0</ele><time>2026-05-02T18:53:03Z</time></trkpt><trkpt lat="45.80508874978987" lon="12.898636027787834"><ele>5.5</ele><time>2026-05-02T18:53:04Z</time></trkpt><trkpt lat="45.805112199408576" lon="12.89815121960757"><ele>5.0</ele><time>2026-05-02T18:53:05Z</time></trkpt><trkpt lat="45.805132284740246" lon="12.89766369909458"><ele>5.0</ele><time>2026-05-02T18:53:06Z</time></trkpt><trkpt lat="45.80514851050598" lon="12.897178392831918"><ele>5.0</ele><time>2026-05-02T18:53:07Z</time></trkpt><trkpt lat="45.805164932846786" lon="12.896692800264807"><ele>5.0</ele><time>2026-05-02T18:53:08Z</time></trkpt><trkpt lat="45.805179131357924" lon="12.896206035621953"><ele>5.0</ele><time>2026-05-02T18:53:09Z</time></trkpt><trkpt lat="45.80518648770917" lon="12.895716622425018"><ele>5.0</ele><time>2026-05-02T18:53:10Z</time></trkpt><trkpt lat="45.80519018007644" lon="12.895227727085143"><ele>5.0</ele><time>2026-05-02T18:53:11Z</time></trkpt><trkpt lat="45.80519295968455" lon="12.894740394506085"><ele>5.0</ele><time>2026-05-02T18:53:12Z</time></trkpt><trkpt lat="45.80519510738992" lon="12.894252875142227"><ele>5.0</ele><time>2026-05-02T18:53:13Z</time></trkpt><trkpt lat="45.80519358605731" lon="12.893764579612185"><ele>5.0</ele><time>2026-05-02T18:53:14Z</time></trkpt><trkpt lat="45.80518962981954" lon="12.893273890501588"><ele>5.0</ele><time>2026-05-02T18:53:15Z</time></trkpt><trkpt lat="45.80518147131899" lon="12.892787294165958"><ele>6.0</ele><time>2026-05-02T18:53:16Z</time></trkpt><trkpt lat="45.80517194015897" lon="12.892297608825238"><ele>7.0</ele><time>2026-05-02T18:53:17Z</time></trkpt><trkpt lat="45.80515943277542" lon="12.89181101676637"><ele>7.5</ele><time>2026-05-02T18:53:18Z</time></trkpt><trkpt lat="45.80514389606346" lon="12.891320872163606"><ele>8.0</ele><time>2026-05-02T18:53:19Z</time></trkpt><trkpt lat="45.805125302964576" lon="12.89084104063507"><ele>7.0</ele><time>2026-05-02T18:53:20Z</time></trkpt><trkpt lat="45.80510457646857" lon="12.890355039767707"><ele>6.0</ele><time>2026-05-02T18:53:21Z</time></trkpt><trkpt lat="45.80508295971736" lon="12.889871630867892"><ele>6.5</ele><time>2026-05-02T18:53:22Z</time></trkpt><trkpt lat="45.80505823197995" lon="12.889385468727458"><ele>7.0</ele><time>2026-05-02T18:53:23Z</time></trkpt><trkpt lat="45.80503073140606" lon="12.888903010762226"><ele>6.5</ele><time>2026-05-02T18:53:24Z</time></trkpt><trkpt lat="45.805001975531184" lon="12.888419292373117"><ele>6.0</ele><time>2026-05-02T18:53:25Z</time></trkpt><trkpt lat="45.80497091470692" lon="12.88793326892563"><ele>6.5</ele><time>2026-05-02T18:53:26Z</time></trkpt><trkpt lat="45.80493426273522" lon="12.887449470415893"><ele>7.0</ele><time>2026-05-02T18:53:27Z</time></trkpt><trkpt lat="45.80489589497503" lon="12.886964109751535"><ele>7.5</ele><time>2026-05-02T18:53:28Z</time></trkpt><trkpt lat="45.804856390773075" lon="12.886479621316008"><ele>8.0</ele><time>2026-05-02T18:53:29Z</time></trkpt><trkpt lat="45.804809900083015" lon="12.885997805536952"><ele>7.0</ele><time>2026-05-02T18:53:30Z</time></trkpt><trkpt lat="45.80476288001746" lon="12.885513808415565"><ele>6.0</ele><time>2026-05-02T18:53:31Z</time></trkpt><trkpt lat="45.80471309625755" lon="12.885027290600968"><ele>6.0</ele><time>2026-05-02T18:53:32Z</time></trkpt><trkpt lat="45.80466524417713" lon="12.884546185452391"><ele>6.0</ele><time>2026-05-02T18:53:33Z</time></trkpt><trkpt lat="45.80461296426334" lon="12.884065964099655"><ele>7.5</ele><time>2026-05-02T18:53:34Z</time></trkpt><trkpt lat="45.804555660717426" lon="12.8835871880324"><ele>9.0</ele><time>2026-05-02T18:53:35Z</time></trkpt><trkpt lat="45.804498221491635" lon="12.883108048241711"><ele>9.0</ele><time>2026-05-02T18:53:36Z</time></trkpt><trkpt lat="45.80443754993967" lon="12.882633399374964"><ele>9.0</ele><time>2026-05-02T18:53:37Z</time></trkpt><trkpt lat="45.804374582003135" lon="12.88215322028257"><ele>8.5</ele><time>2026-05-02T18:53:38Z</time></trkpt><trkpt lat="45.80430784407935" lon="12.881674445844272"><ele>8.0</ele><time>2026-05-02T18:53:39Z</time></trkpt><trkpt lat="45.8042395300529" lon="12.881199545136718"><ele>7.0</ele><time>2026-05-02T18:53:40Z</time></trkpt><trkpt lat="45.80417022576505" lon="12.880726124908795"><ele>6.0</ele><time>2026-05-02T18:53:41Z</time></trkpt><trkpt lat="45.80409504228478" lon="12.88025422127138"><ele>6.0</ele><time>2026-05-02T18:53:42Z</time></trkpt><trkpt lat="45.80401939680225" lon="12.879777270695936"><ele>6.0</ele><time>2026-05-02T18:53:43Z</time></trkpt><trkpt lat="45.803941497267786" lon="12.87930273290251"><ele>6.0</ele><time>2026-05-02T18:53:44Z</time></trkpt><trkpt lat="45.803862269907775" lon="12.878828300138077"><ele>6.0</ele><time>2026-05-02T18:53:45Z</time></trkpt><trkpt lat="45.803779641825784" lon="12.878353564305026"><ele>6.0</ele><time>2026-05-02T18:53:46Z</time></trkpt><trkpt lat="45.80369746928108" lon="12.877883785146361"><ele>6.0</ele><time>2026-05-02T18:53:47Z</time></trkpt><trkpt lat="45.8036126984196" lon="12.877407785595382"><ele>6.0</ele><time>2026-05-02T18:53:48Z</time></trkpt><trkpt lat="45.80352930866974" lon="12.876931229316831"><ele>6.0</ele><time>2026-05-02T18:53:49Z</time></trkpt><trkpt lat="45.803439718113424" lon="12.87645710538358"><ele>6.0</ele><time>2026-05-02T18:53:50Z</time></trkpt><trkpt lat="45.80335483218115" lon="12.875995773924215"><ele>6.0</ele><time>2026-05-02T18:53:51Z</time></trkpt><trkpt lat="45.80327786793643" lon="12.875561486997196"><ele>5.5</ele><time>2026-05-02T18:53:52Z</time></trkpt><trkpt lat="45.80320107594841" lon="12.875120694071027"><ele>5.0</ele><time>2026-05-02T18:53:53Z</time></trkpt><trkpt lat="45.80311929536878" lon="12.874677901358428"><ele>6.0</ele><time>2026-05-02T18:53:54Z</time></trkpt><trkpt lat="45.80303455150912" lon="12.87423356505575"><ele>7.0</ele><time>2026-05-02T18:53:55Z</time></trkpt><trkpt lat="45.8029468559656" lon="12.873781522052246"><ele>7.5</ele><time>2026-05-02T18:53:56Z</time></trkpt><trkpt lat="45.802861165660985" lon="12.873324132666687"><ele>8.0</ele><time>2026-05-02T18:53:57Z</time></trkpt><trkpt lat="45.8027727546777" lon="12.87286625485051"><ele>7.5</ele><time>2026-05-02T18:53:58Z</time></trkpt><trkpt lat="45.802684549559046" lon="12.872406407691953"><ele>7.0</ele><time>2026-05-02T18:53:59Z</time></trkpt><trkpt lat="45.802599500197175" lon="12.871940976233953"><ele>7.0</ele><time>2026-05-02T18:54:00Z</time></trkpt><trkpt lat="45.802517691887886" lon="12.871477614153648"><ele>7.0</ele><time>2026-05-02T18:54:01Z</time></trkpt><trkpt lat="45.80243780053092" lon="12.871014596993746"><ele>7.0</ele><time>2026-05-02T18:54:02Z</time></trkpt><trkpt lat="45.80235651936617" lon="12.870547873236056"><ele>7.0</ele><time>2026-05-02T18:54:03Z</time></trkpt><trkpt lat="45.80227369599734" lon="12.870080086272736"><ele>7.0</ele><time>2026-05-02T18:54:04Z</time></trkpt><trkpt lat="45.802190193932354" lon="12.869612282287331"><ele>7.0</ele><time>2026-05-02T18:54:05Z</time></trkpt><trkpt lat="45.80210390537649" lon="12.869146707041573"><ele>7.5</ele><time>2026-05-02T18:54:06Z</time></trkpt><trkpt lat="45.80201706967588" lon="12.868678539089988"><ele>8.0</ele><time>2026-05-02T18:54:07Z</time></trkpt><trkpt lat="45.80192969632731" lon="12.868214569563888"><ele>8.0</ele><time>2026-05-02T18:54:08Z</time></trkpt><trkpt lat="45.801842232444656" lon="12.867749437953236"><ele>8.0</ele><time>2026-05-02T18:54:09Z</time></trkpt><trkpt lat="45.80175468785114" lon="12.867282162094206"><ele>7.0</ele><time>2026-05-02T18:54:10Z</time></trkpt><trkpt lat="45.80166802138316" lon="12.866817618446529"><ele>6.0</ele><time>2026-05-02T18:54:11Z</time></trkpt><trkpt lat="45.801581986627646" lon="12.866357192057905"><ele>5.5</ele><time>2026-05-02T18:54:12Z</time></trkpt><trkpt lat="45.80149666176489" lon="12.865888391659155"><ele>5.0</ele><time>2026-05-02T18:54:13Z</time></trkpt><trkpt lat="45.80141163875668" lon="12.865422312202782"><ele>6.0</ele><time>2026-05-02T18:54:14Z</time></trkpt><trkpt lat="45.801326672069365" lon="12.864955989566838"><ele>7.0</ele><time>2026-05-02T18:54:15Z</time></trkpt><trkpt lat="45.80124133648847" lon="12.864492216479109"><ele>6.5</ele><time>2026-05-02T18:54:16Z</time></trkpt><trkpt lat="45.80115292697504" lon="12.864028345035072"><ele>6.0</ele><time>2026-05-02T18:54:17Z</time></trkpt><trkpt lat="45.80106216461098" lon="12.863563866104029"><ele>5.0</ele><time>2026-05-02T18:54:18Z</time></trkpt><trkpt lat="45.800971624643296" lon="12.863099234857575"><ele>4.0</ele><time>2026-05-02T18:54:19Z</time></trkpt><trkpt lat="45.80088380460458" lon="12.862633102292275"><ele>4.0</ele><time>2026-05-02T18:54:20Z</time></trkpt><trkpt lat="45.80079725097676" lon="12.86216517776671"><ele>4.0</ele><time>2026-05-02T18:54:21Z</time></trkpt><trkpt lat="45.80071112904833" lon="12.861697309051372"><ele>4.5</ele><time>2026-05-02T18:54:22Z</time></trkpt><trkpt lat="45.80062862061879" lon="12.861235043304127"><ele>5.0</ele><time>2026-05-02T18:54:23Z</time></trkpt><trkpt lat="45.80054265602216" lon="12.860767260823252"><ele>5.0</ele><time>2026-05-02T18:54:24Z</time></trkpt><trkpt lat="45.80045505605187" lon="12.86030292362424"><ele>5.0</ele><time>2026-05-02T18:54:25Z</time></trkpt><trkpt lat="45.80036755924903" lon="12.85983702418051"><ele>5.0</ele><time>2026-05-02T18:54:26Z</time></trkpt><trkpt lat="45.800279384421835" lon="12.859373173990381"><ele>5.0</ele><time>2026-05-02T18:54:27Z</time></trkpt><trkpt lat="45.80018959988758" lon="12.858906881775948"><ele>5.0</ele><time>2026-05-02T18:54:28Z</time></trkpt><trkpt lat="45.800099502154545" lon="12.858442609681209"><ele>5.0</ele><time>2026-05-02T18:54:29Z</time></trkpt><trkpt lat="45.80001364946555" lon="12.857976786995597"><ele>5.0</ele><time>2026-05-02T18:54:30Z</time></trkpt><trkpt lat="45.79993016758124" lon="12.857510326913836"><ele>5.0</ele><time>2026-05-02T18:54:31Z</time></trkpt><trkpt lat="45.79984607397565" lon="12.857042583742247"><ele>5.0</ele><time>2026-05-02T18:54:32Z</time></trkpt><trkpt lat="45.79976051071106" lon="12.856575781947635"><ele>5.0</ele><time>2026-05-02T18:54:33Z</time></trkpt><trkpt lat="45.7996750556766" lon="12.856109415477318"><ele>5.0</ele><time>2026-05-02T18:54:34Z</time></trkpt><trkpt lat="45.799589490369826" lon="12.855643154311425"><ele>5.0</ele><time>2026-05-02T18:54:35Z</time></trkpt><trkpt lat="45.79950482727802" lon="12.855175200981972"><ele>4.5</ele><time>2026-05-02T18:54:36Z</time></trkpt><trkpt lat="45.799419235098014" lon="12.854709334857013"><ele>4.0</ele><time>2026-05-02T18:54:37Z</time></trkpt><trkpt lat="45.79933260875323" lon="12.854241929171316"><ele>5.0</ele><time>2026-05-02T18:54:38Z</time></trkpt><trkpt lat="45.7992455553289" lon="12.853772522026722"><ele>6.0</ele><time>2026-05-02T18:54:39Z</time></trkpt><trkpt lat="45.79916111394828" lon="12.853310359284093"><ele>6.5</ele><time>2026-05-02T18:54:40Z</time></trkpt><trkpt lat="45.79907457340047" lon="12.852845955384666"><ele>7.0</ele><time>2026-05-02T18:54:41Z</time></trkpt><trkpt lat="45.798988654372145" lon="12.852376973406885"><ele>7.5</ele><time>2026-05-02T18:54:42Z</time></trkpt><trkpt lat="45.79890331433586" lon="12.851909426713956"><ele>8.0</ele><time>2026-05-02T18:54:43Z</time></trkpt><trkpt lat="45.798819048122034" lon="12.851440058663293"><ele>7.0</ele><time>2026-05-02T18:54:43.999Z</time></trkpt><trkpt lat="45.798733310770345" lon="12.850975270794693"><ele>6.0</ele><time>2026-05-02T18:54:44.999Z</time></trkpt><trkpt lat="45.79864645387509" lon="12.850508890999194"><ele>5.5</ele><time>2026-05-02T18:54:45.999Z</time></trkpt><trkpt lat="45.7985585667346" lon="12.850041820704167"><ele>5.0</ele><time>2026-05-02T18:54:46.999Z</time></trkpt><trkpt lat="45.798472518035524" lon="12.849572446538502"><ele>5.5</ele><time>2026-05-02T18:54:47.999Z</time></trkpt><trkpt lat="45.79838558603556" lon="12.849106191688575"><ele>6.0</ele><time>2026-05-02T18:54:48.999Z</time></trkpt><trkpt lat="45.79829842797223" lon="12.848637056097326"><ele>6.0</ele><time>2026-05-02T18:54:49.999Z</time></trkpt><trkpt lat="45.798210355462004" lon="12.848167825558624"><ele>6.0</ele><time>2026-05-02T18:54:50.999Z</time></trkpt><trkpt lat="45.79812463070967" lon="12.847699002271721"><ele>5.5</ele><time>2026-05-02T18:54:51.999Z</time></trkpt><trkpt lat="45.79803819042164" lon="12.84722870461361"><ele>5.0</ele><time>2026-05-02T18:54:52.999Z</time></trkpt><trkpt lat="45.79795598510727" lon="12.846767192341222"><ele>4.5</ele><time>2026-05-02T18:54:53.999Z</time></trkpt><trkpt lat="45.79787009923605" lon="12.846300251505614"><ele>4.0</ele><time>2026-05-02T18:54:54.999Z</time></trkpt><trkpt lat="45.7977839046113" lon="12.845832777348473"><ele>3.5</ele><time>2026-05-02T18:54:55.999Z</time></trkpt><trkpt lat="45.7977004788021" lon="12.84536717649019"><ele>3.0</ele><time>2026-05-02T18:54:56.999Z</time></trkpt><trkpt lat="45.797615842131464" lon="12.844899251862953"><ele>3.0</ele><time>2026-05-02T18:54:57.999Z</time></trkpt><trkpt lat="45.79752963220881" lon="12.844431726567398"><ele>3.0</ele><time>2026-05-02T18:54:59Z</time></trkpt><trkpt lat="45.797445267279535" lon="12.84396839205258"><ele>3.5</ele><time>2026-05-02T18:55:00Z</time></trkpt><trkpt lat="45.79735967183233" lon="12.843503110003747"><ele>4.0</ele><time>2026-05-02T18:55:01Z</time></trkpt><trkpt lat="45.79726941490323" lon="12.843037620399857"><ele>3.0</ele><time>2026-05-02T18:55:02Z</time></trkpt><trkpt lat="45.79717856185305" lon="12.842571670950411"><ele>2.0</ele><time>2026-05-02T18:55:03Z</time></trkpt><trkpt lat="45.797087079038285" lon="12.842107851495102"><ele>3.0</ele><time>2026-05-02T18:55:04Z</time></trkpt><trkpt lat="45.79699205156859" lon="12.841640308116563"><ele>4.0</ele><time>2026-05-02T18:55:05Z</time></trkpt><trkpt lat="45.79689004459977" lon="12.841177785997964"><ele>4.0</ele><time>2026-05-02T18:55:06Z</time></trkpt><trkpt lat="45.79678509418037" lon="12.840718495759262"><ele>4.0</ele><time>2026-05-02T18:55:07Z</time></trkpt><trkpt lat="45.7966814055813" lon="12.840257955483436"><ele>4.0</ele><time>2026-05-02T18:55:08Z</time></trkpt><trkpt lat="45.79657373813753" lon="12.839799789006136"><ele>4.0</ele><time>2026-05-02T18:55:09Z</time></trkpt><trkpt lat="45.796463214360266" lon="12.839343788826184"><ele>3.5</ele><time>2026-05-02T18:55:10Z</time></trkpt><trkpt lat="45.796348827862225" lon="12.838891368147726"><ele>3.0</ele><time>2026-05-02T18:55:11Z</time></trkpt><trkpt lat="45.796233844551715" lon="12.838439450485293"><ele>2.5</ele><time>2026-05-02T18:55:12Z</time></trkpt><trkpt lat="45.79611371380416" lon="12.837987251578413"><ele>2.0</ele><time>2026-05-02T18:55:13Z</time></trkpt><trkpt lat="45.79599359760237" lon="12.837539514399916"><ele>2.0</ele><time>2026-05-02T18:55:14Z</time></trkpt><trkpt lat="45.795871306993114" lon="12.837088412375596"><ele>2.0</ele><time>2026-05-02T18:55:15Z</time></trkpt><trkpt lat="45.79574907484789" lon="12.836643854207376"><ele>2.0</ele><time>2026-05-02T18:55:16Z</time></trkpt><trkpt lat="45.795624089436316" lon="12.836193145356601"><ele>2.0</ele><time>2026-05-02T18:55:17Z</time></trkpt><trkpt lat="45.795497663682525" lon="12.835744994534595"><ele>1.5</ele><time>2026-05-02T18:55:18Z</time></trkpt><trkpt lat="45.795369512518484" lon="12.835307226533468"><ele>1.0</ele><time>2026-05-02T18:55:19Z</time></trkpt><trkpt lat="45.79524309720167" lon="12.834875781218637"><ele>0.5</ele><time>2026-05-02T18:55:20Z</time></trkpt><trkpt lat="45.79511148501398" lon="12.834443308536866"><ele>0.0</ele><time>2026-05-02T18:55:21Z</time></trkpt><trkpt lat="45.794977574475126" lon="12.834012322896532"><ele>0.0</ele><time>2026-05-02T18:55:22Z</time></trkpt><trkpt lat="45.79484020416247" lon="12.833586048496018"><ele>0.0</ele><time>2026-05-02T18:55:23Z</time></trkpt><trkpt lat="45.79470016048094" lon="12.833153907230729"><ele>1.0</ele><time>2026-05-02T18:55:24Z</time></trkpt><trkpt lat="45.7945600242196" lon="12.832720304928849"><ele>2.0</ele><time>2026-05-02T18:55:25Z</time></trkpt><trkpt lat="45.79442434007106" lon="12.832288475840759"><ele>3.0</ele><time>2026-05-02T18:55:26Z</time></trkpt><trkpt lat="45.794290325198844" lon="12.831851125617549"><ele>4.0</ele><time>2026-05-02T18:55:27Z</time></trkpt><trkpt lat="45.79415290655215" lon="12.831409851936629"><ele>4.0</ele><time>2026-05-02T18:55:28Z</time></trkpt><trkpt lat="45.794016440129155" lon="12.830969808403896"><ele>4.0</ele><time>2026-05-02T18:55:29Z</time></trkpt><trkpt lat="45.79387817632092" lon="12.830533129589456"><ele>4.5</ele><time>2026-05-02T18:55:30Z</time></trkpt><trkpt lat="45.793736642899404" lon="12.830098578738594"><ele>5.0</ele><time>2026-05-02T18:55:31Z</time></trkpt><trkpt lat="45.79359569012381" lon="12.829661490658735"><ele>5.5</ele><time>2026-05-02T18:55:32Z</time></trkpt><trkpt lat="45.79344871011128" lon="12.829223872376884"><ele>6.0</ele><time>2026-05-02T18:55:33Z</time></trkpt><trkpt lat="45.79330734849376" lon="12.828785916437452"><ele>6.5</ele><time>2026-05-02T18:55:34Z</time></trkpt><trkpt lat="45.79316839246767" lon="12.82834898575002"><ele>7.0</ele><time>2026-05-02T18:55:35Z</time></trkpt><trkpt lat="45.793026124882346" lon="12.827910171931036"><ele>7.0</ele><time>2026-05-02T18:55:36Z</time></trkpt><trkpt lat="45.792885996378715" lon="12.82746466544786"><ele>7.0</ele><time>2026-05-02T18:55:37Z</time></trkpt><trkpt lat="45.792744933261154" lon="12.827023635988416"><ele>6.0</ele><time>2026-05-02T18:55:38Z</time></trkpt><trkpt lat="45.79260564569129" lon="12.82658748516486"><ele>5.0</ele><time>2026-05-02T18:55:39Z</time></trkpt><trkpt lat="45.79246945191957" lon="12.826151071009484"><ele>4.5</ele><time>2026-05-02T18:55:40Z</time></trkpt><trkpt lat="45.79232875151734" lon="12.825713715438015"><ele>4.0</ele><time>2026-05-02T18:55:41Z</time></trkpt><trkpt lat="45.79219094020767" lon="12.82527381117565"><ele>4.5</ele><time>2026-05-02T18:55:42Z</time></trkpt><trkpt lat="45.79205588931054" lon="12.824833901558435"><ele>5.0</ele><time>2026-05-02T18:55:43Z</time></trkpt><trkpt lat="45.79192311730928" lon="12.824394020052903"><ele>7.0</ele><time>2026-05-02T18:55:44Z</time></trkpt><trkpt lat="45.79179637056908" lon="12.823954737316987"><ele>9.0</ele><time>2026-05-02T18:55:45Z</time></trkpt><trkpt lat="45.791669756819466" lon="12.823507472998758"><ele>9.0</ele><time>2026-05-02T18:55:46Z</time></trkpt><trkpt lat="45.791543618020626" lon="12.823056838090638"><ele>9.0</ele><time>2026-05-02T18:55:47Z</time></trkpt><trkpt lat="45.79141982674264" lon="12.822608151934467"><ele>9.0</ele><time>2026-05-02T18:55:48Z</time></trkpt><trkpt lat="45.79129472091334" lon="12.822161214546565"><ele>9.0</ele><time>2026-05-02T18:55:49Z</time></trkpt><trkpt lat="45.79117271075592" lon="12.821711412831657"><ele>8.5</ele><time>2026-05-02T18:55:50Z</time></trkpt><trkpt lat="45.79105429896116" lon="12.821260125623724"><ele>8.0</ele><time>2026-05-02T18:55:51Z</time></trkpt><trkpt lat="45.790938822345154" lon="12.820805925104478"><ele>8.0</ele><time>2026-05-02T18:55:52Z</time></trkpt><trkpt lat="45.79082556066817" lon="12.820351721416683"><ele>8.0</ele><time>2026-05-02T18:55:53Z</time></trkpt><trkpt lat="45.79071383408707" lon="12.81989475634248"><ele>6.5</ele><time>2026-05-02T18:55:54Z</time></trkpt><trkpt lat="45.79060527039415" lon="12.819436486463136"><ele>5.0</ele><time>2026-05-02T18:55:55Z</time></trkpt><trkpt lat="45.79049912477179" lon="12.818979731565099"><ele>4.5</ele><time>2026-05-02T18:55:56Z</time></trkpt><trkpt lat="45.79039868326995" lon="12.818519643137902"><ele>4.0</ele><time>2026-05-02T18:55:57Z</time></trkpt><trkpt lat="45.79030097501672" lon="12.818059397326309"><ele>5.0</ele><time>2026-05-02T18:55:58Z</time></trkpt><trkpt lat="45.79020077354052" lon="12.81759573386238"><ele>6.0</ele><time>2026-05-02T18:55:59Z</time></trkpt><trkpt lat="45.790105740394296" lon="12.817134144967843"><ele>6.0</ele><time>2026-05-02T18:56:00Z</time></trkpt><trkpt lat="45.79001487338327" lon="12.816669110673734"><ele>6.0</ele><time>2026-05-02T18:56:01Z</time></trkpt><trkpt lat="45.78992629680942" lon="12.816202065512766"><ele>6.0</ele><time>2026-05-02T18:56:02Z</time></trkpt><trkpt lat="45.78983676555747" lon="12.815730158834125"><ele>6.0</ele><time>2026-05-02T18:56:03Z</time></trkpt><trkpt lat="45.78975201586598" lon="12.81526059507719"><ele>5.5</ele><time>2026-05-02T18:56:04Z</time></trkpt><trkpt lat="45.78966779859941" lon="12.814792112679962"><ele>5.0</ele><time>2026-05-02T18:56:05Z</time></trkpt><trkpt lat="45.789583801889904" lon="12.81431542021786"><ele>5.0</ele><time>2026-05-02T18:56:06Z</time></trkpt><trkpt lat="45.78950407103014" lon="12.813845912497962"><ele>5.0</ele><time>2026-05-02T18:56:07Z</time></trkpt><trkpt lat="45.78943222955358" lon="12.813376041690015"><ele>5.0</ele><time>2026-05-02T18:56:08Z</time></trkpt><trkpt lat="45.789360424080954" lon="12.81290260635052"><ele>5.0</ele><time>2026-05-02T18:56:09Z</time></trkpt><trkpt lat="45.7892894356369" lon="12.812430966134"><ele>4.5</ele><time>2026-05-02T18:56:10Z</time></trkpt><trkpt lat="45.78922010905373" lon="12.81196095221422"><ele>4.0</ele><time>2026-05-02T18:56:11Z</time></trkpt><trkpt lat="45.789158147053875" lon="12.811486098592368"><ele>2.5</ele><time>2026-05-02T18:56:12Z</time></trkpt><trkpt lat="45.7890967938414" lon="12.811013007987718"><ele>1.0</ele><time>2026-05-02T18:56:13Z</time></trkpt><trkpt lat="45.78904146748038" lon="12.810538376714806"><ele>0.0</ele><time>2026-05-02T18:56:14Z</time></trkpt><trkpt lat="45.788984660690254" lon="12.810060029407044"><ele>-1.0</ele><time>2026-05-02T18:56:15Z</time></trkpt><trkpt lat="45.78892782548364" lon="12.809584886873036"><ele>-0.5</ele><time>2026-05-02T18:56:16Z</time></trkpt><trkpt lat="45.788869261635234" lon="12.809111207109748"><ele>0.0</ele><time>2026-05-02T18:56:17Z</time></trkpt><trkpt lat="45.78880838765279" lon="12.808638787049349"><ele>-1.0</ele><time>2026-05-02T18:56:18Z</time></trkpt><trkpt lat="45.78874741290357" lon="12.80816376906474"><ele>-2.0</ele><time>2026-05-02T18:56:19Z</time></trkpt><trkpt lat="45.78868906698237" lon="12.807691576716058"><ele>-2.0</ele><time>2026-05-02T18:56:20Z</time></trkpt><trkpt lat="45.78862993233209" lon="12.807215878626428"><ele>-2.0</ele><time>2026-05-02T18:56:21Z</time></trkpt><trkpt lat="45.788568372028465" lon="12.806741634108512"><ele>-0.5</ele><time>2026-05-02T18:56:22Z</time></trkpt><trkpt lat="45.78850760730669" lon="12.806266989593624"><ele>1.0</ele><time>2026-05-02T18:56:23Z</time></trkpt><trkpt lat="45.78845092366004" lon="12.805791694946446"><ele>1.0</ele><time>2026-05-02T18:56:24Z</time></trkpt><trkpt lat="45.78839309634167" lon="12.805318302871903"><ele>1.0</ele><time>2026-05-02T18:56:25Z</time></trkpt><trkpt lat="45.78833491539658" lon="12.804844037394332"><ele>1.0</ele><time>2026-05-02T18:56:26Z</time></trkpt><trkpt lat="45.78827590452988" lon="12.804369424971735"><ele>1.0</ele><time>2026-05-02T18:56:27Z</time></trkpt><trkpt lat="45.788214109048646" lon="12.803893606522776"><ele>0.0</ele><time>2026-05-02T18:56:28Z</time></trkpt><trkpt lat="45.78814858352902" lon="12.80342061216726"><ele>-1.0</ele><time>2026-05-02T18:56:29Z</time></trkpt><trkpt lat="45.78808093912083" lon="12.80294693648411"><ele>0.0</ele><time>2026-05-02T18:56:30Z</time></trkpt><trkpt lat="45.788005001355366" lon="12.802480141746244"><ele>1.0</ele><time>2026-05-02T18:56:31Z</time></trkpt><trkpt lat="45.78793006961215" lon="12.802014552727517"><ele>1.5</ele><time>2026-05-02T18:56:32Z</time></trkpt><trkpt lat="45.78785243543906" lon="12.80154563727812"><ele>2.0</ele><time>2026-05-02T18:56:33Z</time></trkpt><trkpt lat="45.787772848756006" lon="12.801075164612925"><ele>2.0</ele><time>2026-05-02T18:56:34Z</time></trkpt><trkpt lat="45.787689466130495" lon="12.800605316706722"><ele>2.0</ele><time>2026-05-02T18:56:35Z</time></trkpt><trkpt lat="45.787603451043466" lon="12.800134599361044"><ele>2.5</ele><time>2026-05-02T18:56:36Z</time></trkpt><trkpt lat="45.787517758187406" lon="12.799665713374104"><ele>3.0</ele><time>2026-05-02T18:56:37Z</time></trkpt><trkpt lat="45.78743026503264" lon="12.799198004124305"><ele>3.0</ele><time>2026-05-02T18:56:38Z</time></trkpt><trkpt lat="45.78734232576981" lon="12.798734813637623"><ele>3.0</ele><time>2026-05-02T18:56:39Z</time></trkpt><trkpt lat="45.78725189196604" lon="12.79826781837256"><ele>2.5</ele><time>2026-05-02T18:56:40Z</time></trkpt><trkpt lat="45.78715742867913" lon="12.797803017048823"><ele>2.0</ele><time>2026-05-02T18:56:41Z</time></trkpt><trkpt lat="45.78706239658049" lon="12.797341693375524"><ele>2.0</ele><time>2026-05-02T18:56:42Z</time></trkpt><trkpt lat="45.78696361462747" lon="12.796879173295238"><ele>2.0</ele><time>2026-05-02T18:56:43Z</time></trkpt><trkpt lat="45.786864088097865" lon="12.796419320931326"><ele>3.5</ele><time>2026-05-02T18:56:44Z</time></trkpt><trkpt lat="45.78675857007487" lon="12.795959941439904"><ele>5.0</ele><time>2026-05-02T18:56:44.999Z</time></trkpt><trkpt lat="45.78665070423083" lon="12.795500089776565"><ele>5.0</ele><time>2026-05-02T18:56:45.999Z</time></trkpt><trkpt lat="45.78654265946353" lon="12.795041018725566"><ele>5.0</ele><time>2026-05-02T18:56:46.999Z</time></trkpt><trkpt lat="45.78643441178381" lon="12.794586075559863"><ele>5.5</ele><time>2026-05-02T18:56:47.999Z</time></trkpt><trkpt lat="45.78631983442061" lon="12.794133784035859"><ele>6.0</ele><time>2026-05-02T18:56:48.999Z</time></trkpt><trkpt lat="45.78620987683272" lon="12.793681080069925"><ele>5.5</ele><time>2026-05-02T18:56:49.999Z</time></trkpt><trkpt lat="45.786095067353315" lon="12.793221579524898"><ele>5.0</ele><time>2026-05-02T18:56:50.999Z</time></trkpt><trkpt lat="45.78598164677816" lon="12.792766558360627"><ele>5.5</ele><time>2026-05-02T18:56:51.999Z</time></trkpt><trkpt lat="45.785863746699306" lon="12.792317397521606"><ele>6.0</ele><time>2026-05-02T18:56:52.999Z</time></trkpt><trkpt lat="45.785743624262714" lon="12.7918674166218"><ele>5.5</ele><time>2026-05-02T18:56:53.999Z</time></trkpt><trkpt lat="45.785617713473755" lon="12.79141824716352"><ele>5.0</ele><time>2026-05-02T18:56:54.999Z</time></trkpt><trkpt lat="45.78549970656827" lon="12.790973664523593"><ele>5.0</ele><time>2026-05-02T18:56:55.999Z</time></trkpt><trkpt lat="45.78537633326478" lon="12.790528521797691"><ele>5.0</ele><time>2026-05-02T18:56:56.999Z</time></trkpt><trkpt lat="45.785248619832736" lon="12.790089957431704"><ele>5.0</ele><time>2026-05-02T18:56:57.999Z</time></trkpt><trkpt lat="45.785119383585865" lon="12.78964628860079"><ele>5.0</ele><time>2026-05-02T18:56:58.999Z</time></trkpt><trkpt lat="45.78499163629935" lon="12.789200326321536"><ele>5.0</ele><time>2026-05-02T18:56:59.999Z</time></trkpt><trkpt lat="45.78486103183815" lon="12.78875665677386"><ele>5.0</ele><time>2026-05-02T18:57:00.999Z</time></trkpt><trkpt lat="45.784727853246125" lon="12.788316830434676"><ele>4.5</ele><time>2026-05-02T18:57:01.999Z</time></trkpt><trkpt lat="45.784588780386194" lon="12.787870621663554"><ele>4.0</ele><time>2026-05-02T18:57:02.999Z</time></trkpt><trkpt lat="45.78445100182685" lon="12.787424244332565"><ele>3.5</ele><time>2026-05-02T18:57:03.999Z</time></trkpt><trkpt lat="45.78431018248022" lon="12.786985556394098"><ele>3.0</ele><time>2026-05-02T18:57:05Z</time></trkpt><trkpt lat="45.784168749577674" lon="12.786552037581261"><ele>4.0</ele><time>2026-05-02T18:57:06Z</time></trkpt><trkpt lat="45.78402541773148" lon="12.786113923872792"><ele>5.0</ele><time>2026-05-02T18:57:07Z</time></trkpt><trkpt lat="45.78387756553565" lon="12.785680431401321"><ele>5.0</ele><time>2026-05-02T18:57:08Z</time></trkpt><trkpt lat="45.78373320157785" lon="12.785252301172061"><ele>5.0</ele><time>2026-05-02T18:57:09Z</time></trkpt><trkpt lat="45.783588942371665" lon="12.784818598432686"><ele>4.5</ele><time>2026-05-02T18:57:10Z</time></trkpt><trkpt lat="45.78343965876295" lon="12.784388206266243"><ele>4.0</ele><time>2026-05-02T18:57:11Z</time></trkpt><trkpt lat="45.78328731780409" lon="12.783960177451679"><ele>4.0</ele><time>2026-05-02T18:57:12Z</time></trkpt><trkpt lat="45.78313599982592" lon="12.783528436768668"><ele>4.0</ele><time>2026-05-02T18:57:13Z</time></trkpt><trkpt lat="45.78297740471916" lon="12.783098966466858"><ele>4.0</ele><time>2026-05-02T18:57:14Z</time></trkpt><trkpt lat="45.78281060384772" lon="12.782673387341484"><ele>4.0</ele><time>2026-05-02T18:57:15Z</time></trkpt><trkpt lat="45.78264806070098" lon="12.782247911778807"><ele>4.0</ele><time>2026-05-02T18:57:16Z</time></trkpt><trkpt lat="45.78248520026771" lon="12.781826168317426"><ele>4.0</ele><time>2026-05-02T18:57:17Z</time></trkpt><trkpt lat="45.78231818775606" lon="12.78140444791731"><ele>4.0</ele><time>2026-05-02T18:57:18Z</time></trkpt><trkpt lat="45.78215326935992" lon="12.7809823221308"><ele>4.0</ele><time>2026-05-02T18:57:19Z</time></trkpt><trkpt lat="45.78199175607364" lon="12.780563615982649"><ele>4.5</ele><time>2026-05-02T18:57:20Z</time></trkpt><trkpt lat="45.78181468720698" lon="12.780144201580125"><ele>5.0</ele><time>2026-05-02T18:57:21Z</time></trkpt><trkpt lat="45.78163859811285" lon="12.779729527534748"><ele>6.0</ele><time>2026-05-02T18:57:22Z</time></trkpt><trkpt lat="45.781461993371536" lon="12.779316628661899"><ele>7.0</ele><time>2026-05-02T18:57:23Z</time></trkpt><trkpt lat="45.78128075889696" lon="12.778902801959015"><ele>8.0</ele><time>2026-05-02T18:57:24Z</time></trkpt><trkpt lat="45.78110675460411" lon="12.778490621979714"><ele>9.0</ele><time>2026-05-02T18:57:25Z</time></trkpt><trkpt lat="45.78092694554879" lon="12.77807977851348"><ele>6.5</ele><time>2026-05-02T18:57:26Z</time></trkpt><trkpt lat="45.78074456422362" lon="12.77766936766626"><ele>4.0</ele><time>2026-05-02T18:57:27Z</time></trkpt><trkpt lat="45.78056412403998" lon="12.777260496428754"><ele>4.0</ele><time>2026-05-02T18:57:28Z</time></trkpt><trkpt lat="45.78037501321847" lon="12.776856118727602"><ele>4.0</ele><time>2026-05-02T18:57:29Z</time></trkpt><trkpt lat="45.78018507495468" lon="12.776454823631052"><ele>3.5</ele><time>2026-05-02T18:57:30Z</time></trkpt><trkpt lat="45.779997135794346" lon="12.776058501265213"><ele>3.0</ele><time>2026-05-02T18:57:31Z</time></trkpt><trkpt lat="45.77980433065751" lon="12.775660361457529"><ele>2.5</ele><time>2026-05-02T18:57:32Z</time></trkpt><trkpt lat="45.77961145572728" lon="12.775261112928755"><ele>2.0</ele><time>2026-05-02T18:57:33Z</time></trkpt><trkpt lat="45.77942359032592" lon="12.774867652715344"><ele>2.0</ele><time>2026-05-02T18:57:34Z</time></trkpt><trkpt lat="45.77923209199777" lon="12.774470407128383"><ele>2.0</ele><time>2026-05-02T18:57:35Z</time></trkpt><trkpt lat="45.779032021857056" lon="12.774075368277375"><ele>2.0</ele><time>2026-05-02T18:57:36Z</time></trkpt><trkpt lat="45.77883295526617" lon="12.7736822156549"><ele>2.0</ele><time>2026-05-02T18:57:37Z</time></trkpt><trkpt lat="45.77863431571804" lon="12.773297387096557"><ele>1.5</ele><time>2026-05-02T18:57:38Z</time></trkpt><trkpt lat="45.77842759692501" lon="12.772914065777933"><ele>1.0</ele><time>2026-05-02T18:57:39Z</time></trkpt><trkpt lat="45.77822296248516" lon="12.77252976729194"><ele>1.0</ele><time>2026-05-02T18:57:40Z</time></trkpt><trkpt lat="45.77801760954247" lon="12.772145824193393"><ele>1.0</ele><time>2026-05-02T18:57:41Z</time></trkpt><trkpt lat="45.77781149102941" lon="12.77176526756413"><ele>0.5</ele><time>2026-05-02T18:57:42Z</time></trkpt><trkpt lat="45.77760448749477" lon="12.771386901835802"><ele>0.0</ele><time>2026-05-02T18:57:43Z</time></trkpt><trkpt lat="45.7773972407074" lon="12.7710084635997"><ele>0.0</ele><time>2026-05-02T18:57:44Z</time></trkpt><trkpt lat="45.77719051421702" lon="12.77063121892335"><ele>0.0</ele><time>2026-05-02T18:57:45Z</time></trkpt><trkpt lat="45.77698390666494" lon="12.770251024472891"><ele>1.0</ele><time>2026-05-02T18:57:46Z</time></trkpt><trkpt lat="45.77677685919588" lon="12.769874769447833"><ele>2.0</ele><time>2026-05-02T18:57:47Z</time></trkpt><trkpt lat="45.77657145374498" lon="12.769490948989905"><ele>1.5</ele><time>2026-05-02T18:57:48Z</time></trkpt><trkpt lat="45.776362719589926" lon="12.769113548595929"><ele>1.0</ele><time>2026-05-02T18:57:49Z</time></trkpt><trkpt lat="45.77615494004703" lon="12.768734816495636"><ele>1.5</ele><time>2026-05-02T18:57:50Z</time></trkpt><trkpt lat="45.775949152470965" lon="12.768357856550095"><ele>2.0</ele><time>2026-05-02T18:57:51Z</time></trkpt><trkpt lat="45.77573982496528" lon="12.76797631613235"><ele>1.5</ele><time>2026-05-02T18:57:52Z</time></trkpt><trkpt lat="45.77553651560432" lon="12.767595898628104"><ele>1.0</ele><time>2026-05-02T18:57:53Z</time></trkpt><trkpt lat="45.77533031447356" lon="12.767213838164519"><ele>2.0</ele><time>2026-05-02T18:57:54Z</time></trkpt><trkpt lat="45.775128287701136" lon="12.766834650359707"><ele>3.0</ele><time>2026-05-02T18:57:55Z</time></trkpt><trkpt lat="45.774920775250685" lon="12.766456070861604"><ele>3.0</ele><time>2026-05-02T18:57:56Z</time></trkpt><trkpt lat="45.77471120101251" lon="12.766074993397233"><ele>3.0</ele><time>2026-05-02T18:57:57Z</time></trkpt><trkpt lat="45.77450281610408" lon="12.76569724687201"><ele>3.5</ele><time>2026-05-02T18:57:58Z</time></trkpt><trkpt lat="45.774294635379945" lon="12.765318769964194"><ele>4.0</ele><time>2026-05-02T18:57:59Z</time></trkpt><trkpt lat="45.7740849133819" lon="12.76493940782349"><ele>4.0</ele><time>2026-05-02T18:58:00Z</time></trkpt><trkpt lat="45.773877584757216" lon="12.764559116103333"><ele>4.0</ele><time>2026-05-02T18:58:01Z</time></trkpt><trkpt lat="45.77366809257778" lon="12.764178158626285"><ele>4.0</ele><time>2026-05-02T18:58:02Z</time></trkpt><trkpt lat="45.77346085915881" lon="12.763798059444053"><ele>4.0</ele><time>2026-05-02T18:58:03Z</time></trkpt><trkpt lat="45.77325365796571" lon="12.76341754443201"><ele>4.0</ele><time>2026-05-02T18:58:04Z</time></trkpt><trkpt lat="45.77304551804775" lon="12.763035314168766"><ele>4.0</ele><time>2026-05-02T18:58:05Z</time></trkpt><trkpt lat="45.77283913322052" lon="12.76265422665561"><ele>3.5</ele><time>2026-05-02T18:58:06Z</time></trkpt><trkpt lat="45.77263114577423" lon="12.762276597335475"><ele>3.0</ele><time>2026-05-02T18:58:07Z</time></trkpt><trkpt lat="45.77242201665083" lon="12.761900990375388"><ele>2.5</ele><time>2026-05-02T18:58:08Z</time></trkpt><trkpt lat="45.772215034649335" lon="12.761520689458555"><ele>2.0</ele><time>2026-05-02T18:58:09Z</time></trkpt><trkpt lat="45.77201078994397" lon="12.761137088626484"><ele>1.5</ele><time>2026-05-02T18:58:10Z</time></trkpt><trkpt lat="45.77181079522629" lon="12.760753846125702"><ele>1.0</ele><time>2026-05-02T18:58:11Z</time></trkpt><trkpt lat="45.77160421860319" lon="12.760365429623342"><ele>0.5</ele><time>2026-05-02T18:58:12Z</time></trkpt><trkpt lat="45.77139527850376" lon="12.759979752461083"><ele>0.0</ele><time>2026-05-02T18:58:13Z</time></trkpt><trkpt lat="45.77118771773398" lon="12.759597459545096"><ele>0.5</ele><time>2026-05-02T18:58:14Z</time></trkpt><trkpt lat="45.77098284725684" lon="12.75922359475773"><ele>1.0</ele><time>2026-05-02T18:58:15Z</time></trkpt><trkpt lat="45.770783070048275" lon="12.75885388003281"><ele>0.5</ele><time>2026-05-02T18:58:16Z</time></trkpt><trkpt lat="45.770585654437006" lon="12.758495321794879"><ele>0.0</ele><time>2026-05-02T18:58:17Z</time></trkpt><trkpt lat="45.770385344432256" lon="12.758139526980939"><ele>0.0</ele><time>2026-05-02T18:58:18Z</time></trkpt><trkpt lat="45.77018094810717" lon="12.757787601632925"><ele>0.0</ele><time>2026-05-02T18:58:19Z</time></trkpt><trkpt lat="45.76998215171691" lon="12.757438023916526"><ele>0.0</ele><time>2026-05-02T18:58:20Z</time></trkpt><trkpt lat="45.769785675753894" lon="12.757090191907356"><ele>0.0</ele><time>2026-05-02T18:58:21Z</time></trkpt><trkpt lat="45.76958489173434" lon="12.756731333222682"><ele>0.0</ele><time>2026-05-02T18:58:22Z</time></trkpt><trkpt lat="45.76938540053084" lon="12.756369776269011"><ele>0.0</ele><time>2026-05-02T18:58:23Z</time></trkpt><trkpt lat="45.76918690848559" lon="12.756003648811006"><ele>0.0</ele><time>2026-05-02T18:58:24Z</time></trkpt><trkpt lat="45.76898362058046" lon="12.755630468876975"><ele>0.0</ele><time>2026-05-02T18:58:25Z</time></trkpt><trkpt lat="45.76878226914292" lon="12.755264325867554"><ele>0.5</ele><time>2026-05-02T18:58:26Z</time></trkpt><trkpt lat="45.76857842008979" lon="12.75489303202724"><ele>1.0</ele><time>2026-05-02T18:58:27Z</time></trkpt><trkpt lat="45.768375044379596" lon="12.754524601508228"><ele>0.5</ele><time>2026-05-02T18:58:28Z</time></trkpt><trkpt lat="45.768167595013686" lon="12.754148452477935"><ele>0.0</ele><time>2026-05-02T18:58:29Z</time></trkpt><trkpt lat="45.76796087826179" lon="12.75377374150044"><ele>-0.5</ele><time>2026-05-02T18:58:30Z</time></trkpt><trkpt lat="45.76775523900021" lon="12.753398302669893"><ele>-1.0</ele><time>2026-05-02T18:58:31Z</time></trkpt><trkpt lat="45.76754749959064" lon="12.75302049656065"><ele>0.5</ele><time>2026-05-02T18:58:32Z</time></trkpt><trkpt lat="45.76734062276856" lon="12.752643916597245"><ele>2.0</ele><time>2026-05-02T18:58:33Z</time></trkpt><trkpt lat="45.76713334559004" lon="12.752266326674144"><ele>2.0</ele><time>2026-05-02T18:58:34Z</time></trkpt><trkpt lat="45.76692488215313" lon="12.751891020034805"><ele>2.0</ele><time>2026-05-02T18:58:35Z</time></trkpt><trkpt lat="45.766719194839695" lon="12.75151376769775"><ele>2.5</ele><time>2026-05-02T18:58:36Z</time></trkpt><trkpt lat="45.76651254640258" lon="12.751133764291579"><ele>3.0</ele><time>2026-05-02T18:58:37Z</time></trkpt><trkpt lat="45.76630542777771" lon="12.750755094544928"><ele>2.0</ele><time>2026-05-02T18:58:38Z</time></trkpt><trkpt lat="45.76609943091657" lon="12.750374837779333"><ele>1.0</ele><time>2026-05-02T18:58:39Z</time></trkpt><trkpt lat="45.76588783613934" lon="12.749997004694649"><ele>1.0</ele><time>2026-05-02T18:58:40Z</time></trkpt><trkpt lat="45.76567358522708" lon="12.74961923089896"><ele>1.0</ele><time>2026-05-02T18:58:41Z</time></trkpt><trkpt lat="45.76546029560145" lon="12.749247342435186"><ele>1.0</ele><time>2026-05-02T18:58:42Z</time></trkpt><trkpt lat="45.76524490549009" lon="12.74887704072709"><ele>1.0</ele><time>2026-05-02T18:58:43Z</time></trkpt><trkpt lat="45.76502623745623" lon="12.748511473478374"><ele>1.5</ele><time>2026-05-02T18:58:44Z</time></trkpt><trkpt lat="45.76481004895671" lon="12.748148874183553"><ele>2.0</ele><time>2026-05-02T18:58:45Z</time></trkpt><trkpt lat="45.76459315684451" lon="12.747788041978762"><ele>2.0</ele><time>2026-05-02T18:58:46Z</time></trkpt><trkpt lat="45.76437585904145" lon="12.747429354079063"><ele>2.0</ele><time>2026-05-02T18:58:47Z</time></trkpt><trkpt lat="45.76415936146747" lon="12.747073977495674"><ele>2.0</ele><time>2026-05-02T18:58:48Z</time></trkpt><trkpt lat="45.76394185990974" lon="12.746718763100263"><ele>2.0</ele><time>2026-05-02T18:58:49Z</time></trkpt><trkpt lat="45.763720461902" lon="12.746365260646227"><ele>1.5</ele><time>2026-05-02T18:58:50Z</time></trkpt><trkpt lat="45.76349495446132" lon="12.746010114189577"><ele>1.0</ele><time>2026-05-02T18:58:51Z</time></trkpt><trkpt lat="45.76326768759327" lon="12.745654179331838"><ele>1.0</ele><time>2026-05-02T18:58:52Z</time></trkpt><trkpt lat="45.763038443716916" lon="12.745301735216968"><ele>1.0</ele><time>2026-05-02T18:58:53Z</time></trkpt><trkpt lat="45.76280754929491" lon="12.744950284323615"><ele>1.0</ele><time>2026-05-02T18:58:54Z</time></trkpt><trkpt lat="45.7625792028813" lon="12.744598263380905"><ele>1.0</ele><time>2026-05-02T18:58:54.999Z</time></trkpt><trkpt lat="45.762349333867995" lon="12.744244817590783"><ele>1.0</ele><time>2026-05-02T18:58:55.999Z</time></trkpt><trkpt lat="45.76212012796432" lon="12.743895453008959"><ele>1.0</ele><time>2026-05-02T18:58:56.999Z</time></trkpt><trkpt lat="45.761885822075925" lon="12.743542087669303"><ele>1.0</ele><time>2026-05-02T18:58:57.999Z</time></trkpt><trkpt lat="45.76165554499774" lon="12.743189085828151"><ele>1.0</ele><time>2026-05-02T18:58:58.999Z</time></trkpt><trkpt lat="45.761427743552254" lon="12.742836901616077"><ele>1.5</ele><time>2026-05-02T18:58:59.999Z</time></trkpt><trkpt lat="45.76119736506343" lon="12.742479398684464"><ele>2.0</ele><time>2026-05-02T18:59:00.999Z</time></trkpt><trkpt lat="45.760968924616485" lon="12.742127069367251"><ele>2.0</ele><time>2026-05-02T18:59:01.999Z</time></trkpt><trkpt lat="45.76074023952625" lon="12.741777513695606"><ele>2.0</ele><time>2026-05-02T18:59:02.999Z</time></trkpt><trkpt lat="45.76050561326862" lon="12.74142416868702"><ele>2.0</ele><time>2026-05-02T18:59:03.999Z</time></trkpt><trkpt lat="45.76027790014995" lon="12.741073204304731"><ele>2.0</ele><time>2026-05-02T18:59:04.999Z</time></trkpt><trkpt lat="45.76004878620653" lon="12.74072010263193"><ele>2.5</ele><time>2026-05-02T18:59:05.999Z</time></trkpt><trkpt lat="45.75982013244601" lon="12.740357533278736"><ele>3.0</ele><time>2026-05-02T18:59:06.999Z</time></trkpt><trkpt lat="45.759593314040394" lon="12.740006237455251"><ele>3.0</ele><time>2026-05-02T18:59:07.999Z</time></trkpt><trkpt lat="45.759367144939624" lon="12.739653965348825"><ele>3.0</ele><time>2026-05-02T18:59:08.999Z</time></trkpt><trkpt lat="45.759137426375894" lon="12.73930059758468"><ele>2.5</ele><time>2026-05-02T18:59:09.999Z</time></trkpt><trkpt lat="45.758908494655856" lon="12.738949540460661"><ele>2.0</ele><time>2026-05-02T18:59:11Z</time></trkpt><trkpt lat="45.758673611881086" lon="12.738598846007624"><ele>2.0</ele><time>2026-05-02T18:59:12Z</time></trkpt><trkpt lat="45.75844274570997" lon="12.738246881746466"><ele>2.0</ele><time>2026-05-02T18:59:13Z</time></trkpt><trkpt lat="45.75821509102244" lon="12.737894159878008"><ele>2.0</ele><time>2026-05-02T18:59:14Z</time></trkpt><trkpt lat="45.757985372228774" lon="12.737540469578926"><ele>2.0</ele><time>2026-05-02T18:59:15Z</time></trkpt><trkpt lat="45.75775634139841" lon="12.737187113058646"><ele>1.5</ele><time>2026-05-02T18:59:16Z</time></trkpt><trkpt lat="45.757525466855434" lon="12.736833734644295"><ele>1.0</ele><time>2026-05-02T18:59:17Z</time></trkpt><trkpt lat="45.75729510864799" lon="12.736475947007277"><ele>1.0</ele><time>2026-05-02T18:59:18Z</time></trkpt><trkpt lat="45.757068886506424" lon="12.736119123624016"><ele>1.0</ele><time>2026-05-02T18:59:19Z</time></trkpt><trkpt lat="45.75684271303716" lon="12.735761996250327"><ele>1.0</ele><time>2026-05-02T18:59:20Z</time></trkpt><trkpt lat="45.75662309224401" lon="12.735406759556334"><ele>1.0</ele><time>2026-05-02T18:59:21Z</time></trkpt><trkpt lat="45.756402909984615" lon="12.73504598898875"><ele>1.0</ele><time>2026-05-02T18:59:22Z</time></trkpt><trkpt lat="45.75618054485178" lon="12.73468207877206"><ele>1.0</ele><time>2026-05-02T18:59:23Z</time></trkpt><trkpt lat="45.75595892038629" lon="12.734312679477833"><ele>1.0</ele><time>2026-05-02T18:59:24Z</time></trkpt><trkpt lat="45.75574320876057" lon="12.73394605618142"><ele>1.0</ele><time>2026-05-02T18:59:25Z</time></trkpt><trkpt lat="45.755528302718275" lon="12.733574008777182"><ele>1.0</ele><time>2026-05-02T18:59:26Z</time></trkpt><trkpt lat="45.75531355976788" lon="12.733198233354384"><ele>1.0</ele><time>2026-05-02T18:59:27Z</time></trkpt><trkpt lat="45.75510520308847" lon="12.732822227686611"><ele>-0.5</ele><time>2026-05-02T18:59:28Z</time></trkpt><trkpt lat="45.75489504893563" lon="12.732440637289644"><ele>-2.0</ele><time>2026-05-02T18:59:29Z</time></trkpt><trkpt lat="45.75468865063426" lon="12.732057820011557"><ele>-2.0</ele><time>2026-05-02T18:59:30Z</time></trkpt><trkpt lat="45.75448517452786" lon="12.73167180814273"><ele>-2.0</ele><time>2026-05-02T18:59:31Z</time></trkpt><trkpt lat="45.75428444564179" lon="12.731284786541385"><ele>-1.5</ele><time>2026-05-02T18:59:32Z</time></trkpt><trkpt lat="45.75408421844939" lon="12.730896358256686"><ele>-1.0</ele><time>2026-05-02T18:59:33Z</time></trkpt><trkpt lat="45.75388636957689" lon="12.730504079622634"><ele>-1.0</ele><time>2026-05-02T18:59:34Z</time></trkpt><trkpt lat="45.7536935498451" lon="12.730109982598044"><ele>-1.0</ele><time>2026-05-02T18:59:35Z</time></trkpt><trkpt lat="45.753499449799115" lon="12.729714329058996"><ele>-1.0</ele><time>2026-05-02T18:59:36Z</time></trkpt><trkpt lat="45.75330550135396" lon="12.729318519519786"><ele>-1.0</ele><time>2026-05-02T18:59:37Z</time></trkpt><trkpt lat="45.753113374757696" lon="12.72892334998472"><ele>-1.0</ele><time>2026-05-02T18:59:38Z</time></trkpt><trkpt lat="45.752924257523404" lon="12.728521017017218"><ele>-1.0</ele><time>2026-05-02T18:59:39Z</time></trkpt><trkpt lat="45.75273843691287" lon="12.728116541049877"><ele>-0.5</ele><time>2026-05-02T18:59:40Z</time></trkpt><trkpt lat="45.75255198701883" lon="12.727712724150996"><ele>0.0</ele><time>2026-05-02T18:59:41Z</time></trkpt><trkpt lat="45.752366459406446" lon="12.727305375196222"><ele>0.5</ele><time>2026-05-02T18:59:42Z</time></trkpt><trkpt lat="45.752185664851176" lon="12.726892447496283"><ele>1.0</ele><time>2026-05-02T18:59:43Z</time></trkpt><trkpt lat="45.752009450664154" lon="12.726484182713651"><ele>1.0</ele><time>2026-05-02T18:59:44Z</time></trkpt><trkpt lat="45.751832810534594" lon="12.726068088125867"><ele>1.0</ele><time>2026-05-02T18:59:45Z</time></trkpt><trkpt lat="45.75165646710503" lon="12.725651732645176"><ele>0.5</ele><time>2026-05-02T18:59:46Z</time></trkpt><trkpt lat="45.751483991585005" lon="12.725233718964699"><ele>0.0</ele><time>2026-05-02T18:59:47Z</time></trkpt><trkpt lat="45.7513155334678" lon="12.724815255183355"><ele>0.0</ele><time>2026-05-02T18:59:48Z</time></trkpt><trkpt lat="45.75114738012549" lon="12.724394089773845"><ele>0.0</ele><time>2026-05-02T18:59:49Z</time></trkpt><trkpt lat="45.75098264845806" lon="12.723976259885376"><ele>-1.0</ele><time>2026-05-02T18:59:50Z</time></trkpt><trkpt lat="45.75081767496737" lon="12.723553896984988"><ele>-2.0</ele><time>2026-05-02T18:59:51Z</time></trkpt><trkpt lat="45.75065755028132" lon="12.723127961639129"><ele>-1.0</ele><time>2026-05-02T18:59:52Z</time></trkpt><trkpt lat="45.75050036201167" lon="12.722699277902148"><ele>0.0</ele><time>2026-05-02T18:59:53Z</time></trkpt><trkpt lat="45.750348765152445" lon="12.722272992457384"><ele>-1.5</ele><time>2026-05-02T18:59:54Z</time></trkpt><trkpt lat="45.75019887338654" lon="12.721845897998401"><ele>-3.0</ele><time>2026-05-02T18:59:55Z</time></trkpt><trkpt lat="45.750045727311" lon="12.721414578813718"><ele>-2.5</ele><time>2026-05-02T18:59:56Z</time></trkpt><trkpt lat="45.74989570593113" lon="12.72097844883145"><ele>-2.0</ele><time>2026-05-02T18:59:57Z</time></trkpt><trkpt lat="45.749747894401544" lon="12.720543666754233"><ele>-1.0</ele><time>2026-05-02T18:59:58Z</time></trkpt><trkpt lat="45.749601000998645" lon="12.72010718747939"><ele>0.0</ele><time>2026-05-02T18:59:59Z</time></trkpt><trkpt lat="45.74945752852011" lon="12.71966974744235"><ele>1.0</ele><time>2026-05-02T19:00:00Z</time></trkpt><trkpt lat="45.74931692146923" lon="12.719231146062123"><ele>2.0</ele><time>2026-05-02T19:00:01Z</time></trkpt><trkpt lat="45.74917706745609" lon="12.71878835052924"><ele>1.5</ele><time>2026-05-02T19:00:02Z</time></trkpt><trkpt lat="45.74904011343153" lon="12.718349373352225"><ele>1.0</ele><time>2026-05-02T19:00:03Z</time></trkpt><trkpt lat="45.74890121732396" lon="12.717904731617509"><ele>0.5</ele><time>2026-05-02T19:00:04Z</time></trkpt><trkpt lat="45.74876107207334" lon="12.717465308262621"><ele>0.0</ele><time>2026-05-02T19:00:05Z</time></trkpt><trkpt lat="45.748621623575694" lon="12.71702833504278"><ele>0.5</ele><time>2026-05-02T19:00:06Z</time></trkpt><trkpt lat="45.7484819900054" lon="12.716586523992518"><ele>1.0</ele><time>2026-05-02T19:00:07Z</time></trkpt><trkpt lat="45.748343240439105" lon="12.716146385594673"><ele>1.0</ele><time>2026-05-02T19:00:08Z</time></trkpt><trkpt lat="45.748203729307214" lon="12.715705785589092"><ele>1.0</ele><time>2026-05-02T19:00:09Z</time></trkpt><trkpt lat="45.7480596081118" lon="12.715263395734477"><ele>1.0</ele><time>2026-05-02T19:00:10Z</time></trkpt><trkpt lat="45.74792245905292" lon="12.714827491083478"><ele>1.0</ele><time>2026-05-02T19:00:11Z</time></trkpt><trkpt lat="45.74778463413031" lon="12.714400293699367"><ele>1.0</ele><time>2026-05-02T19:00:12Z</time></trkpt><trkpt lat="45.7476492061751" lon="12.71398222095156"><ele>1.0</ele><time>2026-05-02T19:00:13Z</time></trkpt><trkpt lat="45.74751682859272" lon="12.713569518022616"><ele>1.5</ele><time>2026-05-02T19:00:14Z</time></trkpt><trkpt lat="45.747394928011" lon="12.71316816994741"><ele>2.0</ele><time>2026-05-02T19:00:15Z</time></trkpt><trkpt lat="45.747269272277734" lon="12.71276665116812"><ele>1.5</ele><time>2026-05-02T19:00:16Z</time></trkpt><trkpt lat="45.747147896938614" lon="12.712371865589917"><ele>1.0</ele><time>2026-05-02T19:00:17Z</time></trkpt><trkpt lat="45.747025151018384" lon="12.711982144427353"><ele>0.0</ele><time>2026-05-02T19:00:18Z</time></trkpt><trkpt lat="45.74690854588965" lon="12.711602738640863"><ele>-1.0</ele><time>2026-05-02T19:00:19Z</time></trkpt><trkpt lat="45.746790923754176" lon="12.711232591086048"><ele>-0.5</ele><time>2026-05-02T19:00:20Z</time></trkpt><trkpt lat="45.74667247307108" lon="12.710865776030884"><ele>0.0</ele><time>2026-05-02T19:00:21Z</time></trkpt><trkpt lat="45.74655846903784" lon="12.71050090003784"><ele>0.0</ele><time>2026-05-02T19:00:22Z</time></trkpt><trkpt lat="45.74644000761992" lon="12.710134317944863"><ele>0.0</ele><time>2026-05-02T19:00:23Z</time></trkpt><trkpt lat="45.74632281286288" lon="12.709758558509442"><ele>0.0</ele><time>2026-05-02T19:00:24Z</time></trkpt><trkpt lat="45.74620703249706" lon="12.70938819789227"><ele>0.0</ele><time>2026-05-02T19:00:25Z</time></trkpt><trkpt lat="45.74609650180226" lon="12.709026565878489"><ele>0.0</ele><time>2026-05-02T19:00:26Z</time></trkpt><trkpt lat="45.745984595415386" lon="12.708662264428987"><ele>0.0</ele><time>2026-05-02T19:00:27Z</time></trkpt><trkpt lat="45.7458732703837" lon="12.70830290964316"><ele>0.0</ele><time>2026-05-02T19:00:28Z</time></trkpt><trkpt lat="45.74576206207892" lon="12.707943329005616"><ele>0.0</ele><time>2026-05-02T19:00:29Z</time></trkpt><trkpt lat="45.74565083451337" lon="12.70758026376021"><ele>-0.5</ele><time>2026-05-02T19:00:30Z</time></trkpt><trkpt lat="45.74553371073674" lon="12.70721011716072"><ele>-1.0</ele><time>2026-05-02T19:00:31Z</time></trkpt><trkpt lat="45.74541884254287" lon="12.706835943662023"><ele>-1.0</ele><time>2026-05-02T19:00:32Z</time></trkpt><trkpt lat="45.74530082660836" lon="12.706469459243577"><ele>-1.0</ele><time>2026-05-02T19:00:33Z</time></trkpt><trkpt lat="45.74518415893246" lon="12.706109165417281"><ele>-1.0</ele><time>2026-05-02T19:00:34Z</time></trkpt><trkpt lat="45.745067317486395" lon="12.705752394533494"><ele>-1.0</ele><time>2026-05-02T19:00:35Z</time></trkpt><trkpt lat="45.74495046724483" lon="12.705393210636002"><ele>-1.0</ele><time>2026-05-02T19:00:36Z</time></trkpt><trkpt lat="45.74483421161835" lon="12.705039787141688"><ele>-1.0</ele><time>2026-05-02T19:00:37Z</time></trkpt><trkpt lat="45.74472108531023" lon="12.704686368901946"><ele>0.0</ele><time>2026-05-02T19:00:38Z</time></trkpt><trkpt lat="45.74460955619857" lon="12.704339856193153"><ele>1.0</ele><time>2026-05-02T19:00:39Z</time></trkpt><trkpt lat="45.74450438712358" lon="12.704008698656228"><ele>1.0</ele><time>2026-05-02T19:00:40Z</time></trkpt><trkpt lat="45.744404221707185" lon="12.703679001070794"><ele>1.0</ele><time>2026-05-02T19:00:41Z</time></trkpt><trkpt lat="45.74430308442725" lon="12.703348491379506"><ele>0.0</ele><time>2026-05-02T19:00:42Z</time></trkpt><trkpt lat="45.744197860288935" lon="12.7030208490798"><ele>-1.0</ele><time>2026-05-02T19:00:43Z</time></trkpt><trkpt lat="45.74408992626547" lon="12.702679460943084"><ele>-1.5</ele><time>2026-05-02T19:00:44Z</time></trkpt><trkpt lat="45.74398070284364" lon="12.702342336390114"><ele>-2.0</ele><time>2026-05-02T19:00:45Z</time></trkpt><trkpt lat="45.743875056986155" lon="12.702010566831673"><ele>-1.5</ele><time>2026-05-02T19:00:46Z</time></trkpt><trkpt lat="45.7437710451127" lon="12.701670067076915"><ele>-1.0</ele><time>2026-05-02T19:00:47Z</time></trkpt><trkpt lat="45.74366216784422" lon="12.701324348263855"><ele>-1.0</ele><time>2026-05-02T19:00:48Z</time></trkpt><trkpt lat="45.74355391895726" lon="12.700975646722155"><ele>-1.0</ele><time>2026-05-02T19:00:49Z</time></trkpt><trkpt lat="45.743447411782185" lon="12.700637143837398"><ele>-0.5</ele><time>2026-05-02T19:00:50Z</time></trkpt><trkpt lat="45.743346455923316" lon="12.70031621780349"><ele>0.0</ele><time>2026-05-02T19:00:51Z</time></trkpt><trkpt lat="45.74324412238765" lon="12.700004700575722"><ele>0.0</ele><time>2026-05-02T19:00:52Z</time></trkpt><trkpt lat="45.74314568104429" lon="12.699697232869983"><ele>0.0</ele><time>2026-05-02T19:00:53Z</time></trkpt><trkpt lat="45.7430450491662" lon="12.699383239100797"><ele>-0.5</ele><time>2026-05-02T19:00:54Z</time></trkpt><trkpt lat="45.7429443024131" lon="12.699063058732435"><ele>-1.0</ele><time>2026-05-02T19:00:55Z</time></trkpt><trkpt lat="45.74284476459592" lon="12.698751385490493"><ele>0.0</ele><time>2026-05-02T19:00:56Z</time></trkpt><trkpt lat="45.74274320738497" lon="12.698434031404506"><ele>1.0</ele><time>2026-05-02T19:00:57Z</time></trkpt><trkpt lat="45.742645442636" lon="12.698121307004802"><ele>1.0</ele><time>2026-05-02T19:00:58Z</time></trkpt><trkpt lat="45.74254666094151" lon="12.697811349250742"><ele>1.0</ele><time>2026-05-02T19:00:59Z</time></trkpt><trkpt lat="45.74244770067483" lon="12.697502670932028"><ele>0.5</ele><time>2026-05-02T19:01:00Z</time></trkpt><trkpt lat="45.74234401909141" lon="12.697193694851569"><ele>0.0</ele><time>2026-05-02T19:01:01Z</time></trkpt><trkpt lat="45.742235071019984" lon="12.696877479257429"><ele>0.0</ele><time>2026-05-02T19:01:01.999Z</time></trkpt><trkpt lat="45.7421318037194" lon="12.69655729759417"><ele>0.0</ele><time>2026-05-02T19:01:02.999Z</time></trkpt><trkpt lat="45.742028074393374" lon="12.696236178766414"><ele>-0.5</ele><time>2026-05-02T19:01:03.999Z</time></trkpt><trkpt lat="45.74191945321946" lon="12.69590791283736"><ele>-1.0</ele><time>2026-05-02T19:01:04.999Z</time></trkpt><trkpt lat="45.741813524851885" lon="12.695579602202253"><ele>-1.5</ele><time>2026-05-02T19:01:05.999Z</time></trkpt><trkpt lat="45.74170781417852" lon="12.69524571245941"><ele>-2.0</ele><time>2026-05-02T19:01:06.999Z</time></trkpt><trkpt lat="45.74160404094446" lon="12.694918582265112"><ele>-2.0</ele><time>2026-05-02T19:01:07.999Z</time></trkpt><trkpt lat="45.741497297342974" lon="12.694585986776403"><ele>-2.0</ele><time>2026-05-02T19:01:08.999Z</time></trkpt><trkpt lat="45.74138709464533" lon="12.694245404542103"><ele>-2.0</ele><time>2026-05-02T19:01:09.999Z</time></trkpt><trkpt lat="45.74128021842357" lon="12.693894873753047"><ele>-2.0</ele><time>2026-05-02T19:01:10.999Z</time></trkpt><trkpt lat="45.74117055150716" lon="12.693544308075147"><ele>-2.0</ele><time>2026-05-02T19:01:11.999Z</time></trkpt><trkpt lat="45.74105622643639" lon="12.693188240978346"><ele>-2.0</ele><time>2026-05-02T19:01:12.999Z</time></trkpt><trkpt lat="45.7409413772871" lon="12.692821375296061"><ele>-1.5</ele><time>2026-05-02T19:01:13.999Z</time></trkpt><trkpt lat="45.74082422477004" lon="12.692447591172247"><ele>-1.0</ele><time>2026-05-02T19:01:14.999Z</time></trkpt><trkpt lat="45.740711760095145" lon="12.69208315035541"><ele>-1.0</ele><time>2026-05-02T19:01:15.999Z</time></trkpt><trkpt lat="45.7405906746558" lon="12.69171715367111"><ele>-1.0</ele><time>2026-05-02T19:01:17Z</time></trkpt><trkpt lat="45.740470062651355" lon="12.691344960527438"><ele>-0.5</ele><time>2026-05-02T19:01:18Z</time></trkpt><trkpt lat="45.74035131472686" lon="12.690980433316327"><ele>0.0</ele><time>2026-05-02T19:01:19Z</time></trkpt><trkpt lat="45.74023091693627" lon="12.690612157326468"><ele>-1.0</ele><time>2026-05-02T19:01:20Z</time></trkpt><trkpt lat="45.74011151571182" lon="12.690246760134034"><ele>-2.0</ele><time>2026-05-02T19:01:21Z</time></trkpt><trkpt lat="45.7399886707232" lon="12.689882267746688"><ele>-2.0</ele><time>2026-05-02T19:01:22Z</time></trkpt><trkpt lat="45.73987195098435" lon="12.689512618562686"><ele>-2.0</ele><time>2026-05-02T19:01:23Z</time></trkpt><trkpt lat="45.73975414442645" lon="12.689136425515485"><ele>-3.0</ele><time>2026-05-02T19:01:24Z</time></trkpt><trkpt lat="45.73963281039321" lon="12.688753436725325"><ele>-4.0</ele><time>2026-05-02T19:01:25Z</time></trkpt><trkpt lat="45.7395143658131" lon="12.688374585427837"><ele>-4.0</ele><time>2026-05-02T19:01:26Z</time></trkpt><trkpt lat="45.739395080745716" lon="12.687988321398885"><ele>-4.0</ele><time>2026-05-02T19:01:27Z</time></trkpt><trkpt lat="45.73927588671613" lon="12.687604678395726"><ele>-2.5</ele><time>2026-05-02T19:01:28Z</time></trkpt><trkpt lat="45.73915526815606" lon="12.687222369180052"><ele>-1.0</ele><time>2026-05-02T19:01:29Z</time></trkpt><trkpt lat="45.73903153067264" lon="12.686834758545963"><ele>-1.0</ele><time>2026-05-02T19:01:30Z</time></trkpt><trkpt lat="45.738909933001565" lon="12.686446399283763"><ele>-1.0</ele><time>2026-05-02T19:01:31Z</time></trkpt><trkpt lat="45.73878667051749" lon="12.686053627776044"><ele>-1.0</ele><time>2026-05-02T19:01:32Z</time></trkpt><trkpt lat="45.73866289581584" lon="12.685656969927146"><ele>-1.0</ele><time>2026-05-02T19:01:33Z</time></trkpt><trkpt lat="45.73853366868678" lon="12.685258877337997"><ele>2.0</ele><time>2026-05-02T19:01:34Z</time></trkpt><trkpt lat="45.7384037368536" lon="12.684858464203357"><ele>5.0</ele><time>2026-05-02T19:01:35Z</time></trkpt><trkpt lat="45.73827553516792" lon="12.684458749770434"><ele>5.0</ele><time>2026-05-02T19:01:36Z</time></trkpt><trkpt lat="45.73814386795066" lon="12.684050927451374"><ele>5.0</ele><time>2026-05-02T19:01:37Z</time></trkpt><trkpt lat="45.738014523085376" lon="12.683639203675314"><ele>5.0</ele><time>2026-05-02T19:01:38Z</time></trkpt><trkpt lat="45.737882612326025" lon="12.68322708667535"><ele>5.0</ele><time>2026-05-02T19:01:39Z</time></trkpt><trkpt lat="45.73774778811421" lon="12.682802979288029"><ele>4.5</ele><time>2026-05-02T19:01:40Z</time></trkpt><trkpt lat="45.737614825226984" lon="12.682385081868631"><ele>4.0</ele><time>2026-05-02T19:01:41Z</time></trkpt><trkpt lat="45.73748142868485" lon="12.681967016162819"><ele>4.0</ele><time>2026-05-02T19:01:42Z</time></trkpt><trkpt lat="45.737346859372494" lon="12.6815474832219"><ele>4.0</ele><time>2026-05-02T19:01:43Z</time></trkpt><trkpt lat="45.73721227528573" lon="12.681125657649716"><ele>3.0</ele><time>2026-05-02T19:01:44Z</time></trkpt><trkpt lat="45.73707301223575" lon="12.680695858680961"><ele>2.0</ele><time>2026-05-02T19:01:45Z</time></trkpt><trkpt lat="45.73693518401794" lon="12.680267900299114"><ele>2.0</ele><time>2026-05-02T19:01:46Z</time></trkpt><trkpt lat="45.7367928908276" lon="12.679836821731847"><ele>2.0</ele><time>2026-05-02T19:01:47Z</time></trkpt><trkpt lat="45.736652294989646" lon="12.679403822358557"><ele>2.0</ele><time>2026-05-02T19:01:48Z</time></trkpt><trkpt lat="45.73651375022768" lon="12.678970663349203"><ele>2.0</ele><time>2026-05-02T19:01:49Z</time></trkpt><trkpt lat="45.73637484105455" lon="12.678534073518772"><ele>2.0</ele><time>2026-05-02T19:01:50Z</time></trkpt><trkpt lat="45.736241769687204" lon="12.678096888177219"><ele>2.0</ele><time>2026-05-02T19:01:51Z</time></trkpt><trkpt lat="45.736105817537386" lon="12.677656004754525"><ele>1.5</ele><time>2026-05-02T19:01:52Z</time></trkpt><trkpt lat="45.73596669876227" lon="12.677218734525486"><ele>1.0</ele><time>2026-05-02T19:01:53Z</time></trkpt><trkpt lat="45.735824239721374" lon="12.676780742701734"><ele>2.0</ele><time>2026-05-02T19:01:54Z</time></trkpt><trkpt lat="45.73568224019655" lon="12.676335644429162"><ele>3.0</ele><time>2026-05-02T19:01:55Z</time></trkpt><trkpt lat="45.735540067312044" lon="12.675899805987077"><ele>3.5</ele><time>2026-05-02T19:01:56Z</time></trkpt><trkpt lat="45.73539632010828" lon="12.675455086462158"><ele>4.0</ele><time>2026-05-02T19:01:57Z</time></trkpt><trkpt lat="45.735254205528335" lon="12.675018104462744"><ele>3.5</ele><time>2026-05-02T19:01:58Z</time></trkpt><trkpt lat="45.73511342728145" lon="12.674578187977989"><ele>3.0</ele><time>2026-05-02T19:01:59Z</time></trkpt><trkpt lat="45.734974307621336" lon="12.674144383984476"><ele>2.0</ele><time>2026-05-02T19:02:00Z</time></trkpt><trkpt lat="45.73483551228555" lon="12.67370603068779"><ele>1.0</ele><time>2026-05-02T19:02:01Z</time></trkpt><trkpt lat="45.73469802490901" lon="12.673277843781435"><ele>1.0</ele><time>2026-05-02T19:02:02Z</time></trkpt><trkpt lat="45.73456211680397" lon="12.672853877624712"><ele>1.0</ele><time>2026-05-02T19:02:03Z</time></trkpt><trkpt lat="45.73442549110277" lon="12.672430468329315"><ele>1.5</ele><time>2026-05-02T19:02:04Z</time></trkpt><trkpt lat="45.73429574096904" lon="12.672015328544283"><ele>2.0</ele><time>2026-05-02T19:02:05Z</time></trkpt><trkpt lat="45.7341661925379" lon="12.671602613706579"><ele>2.0</ele><time>2026-05-02T19:02:06Z</time></trkpt><trkpt lat="45.73403376786898" lon="12.67118255953667"><ele>2.0</ele><time>2026-05-02T19:02:07Z</time></trkpt><trkpt lat="45.73390187710705" lon="12.670763607650102"><ele>1.0</ele><time>2026-05-02T19:02:08Z</time></trkpt><trkpt lat="45.7337619982043" lon="12.670334711455212"><ele>0.0</ele><time>2026-05-02T19:02:09Z</time></trkpt><trkpt lat="45.73362069105147" lon="12.669903996996313"><ele>0.0</ele><time>2026-05-02T19:02:10Z</time></trkpt><trkpt lat="45.73348212190754" lon="12.669469451998765"><ele>0.0</ele><time>2026-05-02T19:02:11Z</time></trkpt><trkpt lat="45.73334136082409" lon="12.66903452243574"><ele>1.0</ele><time>2026-05-02T19:02:12Z</time></trkpt><trkpt lat="45.73320132224034" lon="12.66859572705763"><ele>2.0</ele><time>2026-05-02T19:02:13Z</time></trkpt><trkpt lat="45.73305977461389" lon="12.668157721669564"><ele>1.5</ele><time>2026-05-02T19:02:14Z</time></trkpt><trkpt lat="45.7329198599082" lon="12.667717698883118"><ele>1.0</ele><time>2026-05-02T19:02:15Z</time></trkpt><trkpt lat="45.73278409703157" lon="12.667280683861076"><ele>0.0</ele><time>2026-05-02T19:02:16Z</time></trkpt><trkpt lat="45.73264333133095" lon="12.666843326359638"><ele>-1.0</ele><time>2026-05-02T19:02:17Z</time></trkpt><trkpt lat="45.732502745353706" lon="12.666405748603268"><ele>0.0</ele><time>2026-05-02T19:02:18Z</time></trkpt><trkpt lat="45.73236117116101" lon="12.665966683649899"><ele>1.0</ele><time>2026-05-02T19:02:19Z</time></trkpt><trkpt lat="45.73222190261016" lon="12.665527526758964"><ele>1.5</ele><time>2026-05-02T19:02:20Z</time></trkpt><trkpt lat="45.732081365762916" lon="12.66508449889849"><ele>2.0</ele><time>2026-05-02T19:02:21Z</time></trkpt><trkpt lat="45.73194364167372" lon="12.664650005986655"><ele>0.0</ele><time>2026-05-02T19:02:22Z</time></trkpt><trkpt lat="45.73180487418893" lon="12.664211296686593"><ele>-2.0</ele><time>2026-05-02T19:02:23Z</time></trkpt><trkpt lat="45.731664499537025" lon="12.66376848616535"><ele>-1.0</ele><time>2026-05-02T19:02:24Z</time></trkpt><trkpt lat="45.73152474825182" lon="12.663332765364494"><ele>0.0</ele><time>2026-05-02T19:02:25Z</time></trkpt><trkpt lat="45.7313858310715" lon="12.662895613279584"><ele>0.0</ele><time>2026-05-02T19:02:26Z</time></trkpt><trkpt lat="45.73124478850799" lon="12.662454846844927"><ele>0.0</ele><time>2026-05-02T19:02:27Z</time></trkpt><trkpt lat="45.73110513296119" lon="12.662018998817963"><ele>1.0</ele><time>2026-05-02T19:02:28Z</time></trkpt><trkpt lat="45.7309656289589" lon="12.661578867722126"><ele>2.0</ele><time>2026-05-02T19:02:29Z</time></trkpt><trkpt lat="45.730824616445204" lon="12.66113799563017"><ele>1.5</ele><time>2026-05-02T19:02:30Z</time></trkpt><trkpt lat="45.730688615173506" lon="12.66069925719647"><ele>1.0</ele><time>2026-05-02T19:02:31Z</time></trkpt><trkpt lat="45.73054882692369" lon="12.660261895523114"><ele>1.0</ele><time>2026-05-02T19:02:32Z</time></trkpt><trkpt lat="45.7304088049258" lon="12.659823087140202"><ele>1.0</ele><time>2026-05-02T19:02:33Z</time></trkpt><trkpt lat="45.73026971574194" lon="12.659386636334533"><ele>0.5</ele><time>2026-05-02T19:02:34Z</time></trkpt><trkpt lat="45.73012926120035" lon="12.658948287310386"><ele>0.0</ele><time>2026-05-02T19:02:35Z</time></trkpt><trkpt lat="45.729990878051346" lon="12.658512431996572"><ele>0.0</ele><time>2026-05-02T19:02:36Z</time></trkpt><trkpt lat="45.72985114400217" lon="12.658074601414247"><ele>0.0</ele><time>2026-05-02T19:02:37Z</time></trkpt><trkpt lat="45.72971289800473" lon="12.65763292155352"><ele>-0.5</ele><time>2026-05-02T19:02:38Z</time></trkpt><trkpt lat="45.72957520801665" lon="12.65719469942744"><ele>-1.0</ele><time>2026-05-02T19:02:39Z</time></trkpt><trkpt lat="45.72943655159902" lon="12.656755605439256"><ele>-1.0</ele><time>2026-05-02T19:02:40Z</time></trkpt><trkpt lat="45.729298867086634" lon="12.656320809209687"><ele>-1.0</ele><time>2026-05-02T19:02:41Z</time></trkpt><trkpt lat="45.729158576173496" lon="12.655881650129542"><ele>-1.0</ele><time>2026-05-02T19:02:42Z</time></trkpt><trkpt lat="45.729016935873325" lon="12.655437274528706"><ele>-1.0</ele><time>2026-05-02T19:02:43Z</time></trkpt><trkpt lat="45.728877764518174" lon="12.654997896446131"><ele>-1.5</ele><time>2026-05-02T19:02:44Z</time></trkpt><trkpt lat="45.728737790177085" lon="12.654557011444748"><ele>-2.0</ele><time>2026-05-02T19:02:45Z</time></trkpt><trkpt lat="45.728596325963316" lon="12.654118270649688"><ele>-2.0</ele><time>2026-05-02T19:02:46Z</time></trkpt><trkpt lat="45.72845350483795" lon="12.653680640931148"><ele>-2.0</ele><time>2026-05-02T19:02:47Z</time></trkpt><trkpt lat="45.72830845228497" lon="12.653244107554501"><ele>-2.5</ele><time>2026-05-02T19:02:48Z</time></trkpt><trkpt lat="45.72816162262497" lon="12.652813769510136"><ele>-3.0</ele><time>2026-05-02T19:02:49Z</time></trkpt><trkpt lat="45.72801150937501" lon="12.652383500692814"><ele>-2.0</ele><time>2026-05-02T19:02:50Z</time></trkpt><trkpt lat="45.72786062558273" lon="12.651952366889061"><ele>-1.0</ele><time>2026-05-02T19:02:51Z</time></trkpt><trkpt lat="45.72770842426351" lon="12.65152721735434"><ele>-0.5</ele><time>2026-05-02T19:02:52Z</time></trkpt><trkpt lat="45.727553518527785" lon="12.651098803932966"><ele>0.0</ele><time>2026-05-02T19:02:53Z</time></trkpt><trkpt lat="45.727397441480726" lon="12.650672867612924"><ele>0.0</ele><time>2026-05-02T19:02:54Z</time></trkpt><trkpt lat="45.72723983074562" lon="12.650243911344571"><ele>0.0</ele><time>2026-05-02T19:02:55Z</time></trkpt><trkpt lat="45.7270825720587" lon="12.64982336384155"><ele>0.0</ele><time>2026-05-02T19:02:56Z</time></trkpt><trkpt lat="45.72691816516819" lon="12.649400641498037"><ele>0.0</ele><time>2026-05-02T19:02:57Z</time></trkpt><trkpt lat="45.72675343748416" lon="12.648978641815553"><ele>0.5</ele><time>2026-05-02T19:02:58Z</time></trkpt><trkpt lat="45.72658786824162" lon="12.648560535410825"><ele>1.0</ele><time>2026-05-02T19:02:58.999Z</time></trkpt><trkpt lat="45.72642212988687" lon="12.648141622372169"><ele>0.0</ele><time>2026-05-02T19:02:59.999Z</time></trkpt><trkpt lat="45.72625324029657" lon="12.647727781549344"><ele>-1.0</ele><time>2026-05-02T19:03:00.999Z</time></trkpt><trkpt lat="45.72608602060168" lon="12.647314104780142"><ele>-1.0</ele><time>2026-05-02T19:03:01.999Z</time></trkpt><trkpt lat="45.725914435381156" lon="12.646900967822186"><ele>-1.0</ele><time>2026-05-02T19:03:02.999Z</time></trkpt><trkpt lat="45.7257401837784" lon="12.646489764583116"><ele>0.5</ele><time>2026-05-02T19:03:03.999Z</time></trkpt><trkpt lat="45.725563824376806" lon="12.646076370473741"><ele>2.0</ele><time>2026-05-02T19:03:04.999Z</time></trkpt><trkpt lat="45.72538565729555" lon="12.645665436116714"><ele>-0.5</ele><time>2026-05-02T19:03:05.999Z</time></trkpt><trkpt lat="45.72520656003135" lon="12.645253382099106"><ele>-3.0</ele><time>2026-05-02T19:03:06.999Z</time></trkpt><trkpt lat="45.72502574627307" lon="12.644848933411895"><ele>-3.0</ele><time>2026-05-02T19:03:07.999Z</time></trkpt><trkpt lat="45.72483664773461" lon="12.64444575022076"><ele>-3.0</ele><time>2026-05-02T19:03:08.999Z</time></trkpt><trkpt lat="45.724652476885375" lon="12.644038174830797"><ele>-3.0</ele><time>2026-05-02T19:03:09.999Z</time></trkpt><trkpt lat="45.7244640087009" lon="12.643637659749572"><ele>-3.0</ele><time>2026-05-02T19:03:10.999Z</time></trkpt><trkpt lat="45.72427614409222" lon="12.643238204718656"><ele>-3.0</ele><time>2026-05-02T19:03:11.999Z</time></trkpt><trkpt lat="45.72408596537179" lon="12.642843353283462"><ele>-3.0</ele><time>2026-05-02T19:03:12.999Z</time></trkpt><trkpt lat="45.72389438292755" lon="12.642446172681055"><ele>-2.5</ele><time>2026-05-02T19:03:13.999Z</time></trkpt><trkpt lat="45.72370075876407" lon="12.642051616207683"><ele>-2.0</ele><time>2026-05-02T19:03:14.999Z</time></trkpt><trkpt lat="45.72350553909173" lon="12.641660367743983"><ele>-1.5</ele><time>2026-05-02T19:03:15.999Z</time></trkpt><trkpt lat="45.723305418821056" lon="12.641268864329904"><ele>-1.0</ele><time>2026-05-02T19:03:16.999Z</time></trkpt><trkpt lat="45.72311201237438" lon="12.640881441230212"><ele>-0.5</ele><time>2026-05-02T19:03:17.999Z</time></trkpt><trkpt lat="45.7229108725449" lon="12.640490636208922"><ele>0.0</ele><time>2026-05-02T19:03:18.999Z</time></trkpt><trkpt lat="45.72271097373491" lon="12.64010324560757"><ele>0.0</ele><time>2026-05-02T19:03:19.999Z</time></trkpt><trkpt lat="45.722510206694196" lon="12.639720553618139"><ele>0.0</ele><time>2026-05-02T19:03:20.999Z</time></trkpt><trkpt lat="45.722303420021554" lon="12.63933801580811"><ele>0.0</ele><time>2026-05-02T19:03:21.999Z</time></trkpt><trkpt lat="45.7220978743342" lon="12.638959803888262"><ele>0.0</ele><time>2026-05-02T19:03:23Z</time></trkpt><trkpt lat="45.721890697364735" lon="12.63858068659186"><ele>-1.0</ele><time>2026-05-02T19:03:24Z</time></trkpt><trkpt lat="45.72168035446598" lon="12.638202967606594"><ele>-2.0</ele><time>2026-05-02T19:03:25Z</time></trkpt><trkpt lat="45.72147161088859" lon="12.637829548473826"><ele>-3.0</ele><time>2026-05-02T19:03:26Z</time></trkpt><trkpt lat="45.72125909604334" lon="12.6374567476543"><ele>-4.0</ele><time>2026-05-02T19:03:27Z</time></trkpt><trkpt lat="45.72104306521255" lon="12.637084059831208"><ele>-1.5</ele><time>2026-05-02T19:03:28Z</time></trkpt><trkpt lat="45.7208283552658" lon="12.636713943237073"><ele>1.0</ele><time>2026-05-02T19:03:29Z</time></trkpt><trkpt lat="45.7206113200677" lon="12.63634293502977"><ele>0.5</ele><time>2026-05-02T19:03:30Z</time></trkpt><trkpt lat="45.72039633293634" lon="12.635970151864965"><ele>0.0</ele><time>2026-05-02T19:03:31Z</time></trkpt><trkpt lat="45.72018196053329" lon="12.635599641955025"><ele>-1.0</ele><time>2026-05-02T19:03:32Z</time></trkpt><trkpt lat="45.71996941659942" lon="12.63522898625921"><ele>-2.0</ele><time>2026-05-02T19:03:33Z</time></trkpt><trkpt lat="45.71975630867021" lon="12.634858274803536"><ele>-2.0</ele><time>2026-05-02T19:03:34Z</time></trkpt><trkpt lat="45.719542541478674" lon="12.634485221687745"><ele>-2.0</ele><time>2026-05-02T19:03:35Z</time></trkpt><trkpt lat="45.71933068368896" lon="12.634114558318863"><ele>-1.0</ele><time>2026-05-02T19:03:36Z</time></trkpt><trkpt lat="45.71911595166827" lon="12.633746539904088"><ele>0.0</ele><time>2026-05-02T19:03:37Z</time></trkpt><trkpt lat="45.71889606656416" lon="12.633379518975232"><ele>0.0</ele><time>2026-05-02T19:03:38Z</time></trkpt><trkpt lat="45.71867881524124" lon="12.633006867804431"><ele>0.0</ele><time>2026-05-02T19:03:39Z</time></trkpt><trkpt lat="45.718460699455996" lon="12.632637613754065"><ele>-1.0</ele><time>2026-05-02T19:03:40Z</time></trkpt><trkpt lat="45.718244870915335" lon="12.632267226108391"><ele>-2.0</ele><time>2026-05-02T19:03:41Z</time></trkpt><trkpt lat="45.71802977571108" lon="12.631899144744368"><ele>-2.0</ele><time>2026-05-02T19:03:42Z</time></trkpt><trkpt lat="45.71781425984483" lon="12.63152699819867"><ele>-2.0</ele><time>2026-05-02T19:03:43Z</time></trkpt><trkpt lat="45.717597048443785" lon="12.631158091104329"><ele>-1.0</ele><time>2026-05-02T19:03:44Z</time></trkpt><trkpt lat="45.71738230043809" lon="12.630787065377234"><ele>0.0</ele><time>2026-05-02T19:03:45Z</time></trkpt><trkpt lat="45.71716663805493" lon="12.630419769976728"><ele>0.0</ele><time>2026-05-02T19:03:46Z</time></trkpt><trkpt lat="45.71695152032001" lon="12.63004445240058"><ele>0.0</ele><time>2026-05-02T19:03:47Z</time></trkpt><trkpt lat="45.71673791743444" lon="12.62967160150829"><ele>0.0</ele><time>2026-05-02T19:03:48Z</time></trkpt><trkpt lat="45.71652325776243" lon="12.629299229585328"><ele>0.0</ele><time>2026-05-02T19:03:49Z</time></trkpt><trkpt lat="45.71630833347777" lon="12.628925813199114"><ele>0.5</ele><time>2026-05-02T19:03:50Z</time></trkpt><trkpt lat="45.716093553352806" lon="12.62855724564618"><ele>1.0</ele><time>2026-05-02T19:03:51Z</time></trkpt><trkpt lat="45.71587797231511" lon="12.628184964771943"><ele>1.0</ele><time>2026-05-02T19:03:52Z</time></trkpt><trkpt lat="45.715660455057325" lon="12.62781523637329"><ele>1.0</ele><time>2026-05-02T19:03:53Z</time></trkpt><trkpt lat="45.715448219458004" lon="12.627447965856565"><ele>1.0</ele><time>2026-05-02T19:03:54Z</time></trkpt><trkpt lat="45.71523348309574" lon="12.62707634225758"><ele>1.0</ele><time>2026-05-02T19:03:55Z</time></trkpt><trkpt lat="45.71502337532349" lon="12.626708542488455"><ele>1.0</ele><time>2026-05-02T19:03:56Z</time></trkpt><trkpt lat="45.714808436314456" lon="12.62633510739689"><ele>1.0</ele><time>2026-05-02T19:03:57Z</time></trkpt><trkpt lat="45.71459316143018" lon="12.625963920078117"><ele>1.5</ele><time>2026-05-02T19:03:58Z</time></trkpt><trkpt lat="45.714374238947975" lon="12.625592772332345"><ele>2.0</ele><time>2026-05-02T19:03:59Z</time></trkpt><trkpt lat="45.714161594562874" lon="12.625220955395841"><ele>2.0</ele><time>2026-05-02T19:04:00Z</time></trkpt><trkpt lat="45.713944402698786" lon="12.624850748570392"><ele>2.0</ele><time>2026-05-02T19:04:01Z</time></trkpt><trkpt lat="45.71373266382443" lon="12.624481582509686"><ele>1.0</ele><time>2026-05-02T19:04:02Z</time></trkpt><trkpt lat="45.713515791267504" lon="12.624109375531384"><ele>0.0</ele><time>2026-05-02T19:04:03Z</time></trkpt><trkpt lat="45.71329921887066" lon="12.623741028712054"><ele>-0.5</ele><time>2026-05-02T19:04:04Z</time></trkpt><trkpt lat="45.71308487948989" lon="12.623368081555226"><ele>-1.0</ele><time>2026-05-02T19:04:05Z</time></trkpt><trkpt lat="45.71287133975799" lon="12.622994323708703"><ele>0.0</ele><time>2026-05-02T19:04:06Z</time></trkpt><trkpt lat="45.71265751974951" lon="12.622622679621742"><ele>1.0</ele><time>2026-05-02T19:04:07Z</time></trkpt><trkpt lat="45.712439873603564" lon="12.622251061723253"><ele>1.5</ele><time>2026-05-02T19:04:08Z</time></trkpt><trkpt lat="45.71222163267837" lon="12.62187985942178"><ele>2.0</ele><time>2026-05-02T19:04:09Z</time></trkpt><trkpt lat="45.71200315820907" lon="12.621509503902972"><ele>2.0</ele><time>2026-05-02T19:04:10Z</time></trkpt><trkpt lat="45.71178837222226" lon="12.621137752284392"><ele>2.0</ele><time>2026-05-02T19:04:11Z</time></trkpt><trkpt lat="45.71157052547992" lon="12.620759760948756"><ele>2.0</ele><time>2026-05-02T19:04:12Z</time></trkpt><trkpt lat="45.711356648201274" lon="12.620389396184468"><ele>2.0</ele><time>2026-05-02T19:04:13Z</time></trkpt><trkpt lat="45.711141395782924" lon="12.620018338814935"><ele>1.5</ele><time>2026-05-02T19:04:14Z</time></trkpt><trkpt lat="45.7109293821791" lon="12.61964578548728"><ele>1.0</ele><time>2026-05-02T19:04:15Z</time></trkpt><trkpt lat="45.710725471011344" lon="12.619279275594621"><ele>2.0</ele><time>2026-05-02T19:04:16Z</time></trkpt><trkpt lat="45.710527886854194" lon="12.61891641404249"><ele>3.0</ele><time>2026-05-02T19:04:17Z</time></trkpt><trkpt lat="45.7103334827144" lon="12.618554020168439"><ele>2.5</ele><time>2026-05-02T19:04:18Z</time></trkpt><trkpt lat="45.71014592678461" lon="12.6181967197059"><ele>2.0</ele><time>2026-05-02T19:04:19Z</time></trkpt><trkpt lat="45.70996524621575" lon="12.617844136506987"><ele>2.0</ele><time>2026-05-02T19:04:20Z</time></trkpt><trkpt lat="45.709789373532075" lon="12.617501843185716"><ele>2.0</ele><time>2026-05-02T19:04:21Z</time></trkpt><trkpt lat="45.70961601665464" lon="12.61716121320311"><ele>2.0</ele><time>2026-05-02T19:04:22Z</time></trkpt><trkpt lat="45.709445537609085" lon="12.616820970030593"><ele>2.0</ele><time>2026-05-02T19:04:23Z</time></trkpt><trkpt lat="45.7092773804809" lon="12.616483132941054"><ele>1.0</ele><time>2026-05-02T19:04:24Z</time></trkpt><trkpt lat="45.709109874385284" lon="12.616145360431522"><ele>0.0</ele><time>2026-05-02T19:04:25Z</time></trkpt><trkpt lat="45.70894449300146" lon="12.61581162044035"><ele>0.0</ele><time>2026-05-02T19:04:26Z</time></trkpt><trkpt lat="45.708785125777126" lon="12.61548302086667"><ele>0.0</ele><time>2026-05-02T19:04:27Z</time></trkpt><trkpt lat="45.70862390389038" lon="12.615152360137586"><ele>1.5</ele><time>2026-05-02T19:04:28Z</time></trkpt><trkpt lat="45.708463209231084" lon="12.614818328391504"><ele>3.0</ele><time>2026-05-02T19:04:29Z</time></trkpt><trkpt lat="45.708305106574294" lon="12.614492450567463"><ele>2.5</ele><time>2026-05-02T19:04:30Z</time></trkpt><trkpt lat="45.708150540244525" lon="12.614167791994921"><ele>2.0</ele><time>2026-05-02T19:04:31Z</time></trkpt><trkpt lat="45.70800050873487" lon="12.613844324224917"><ele>1.5</ele><time>2026-05-02T19:04:32Z</time></trkpt><trkpt lat="45.70785586250072" lon="12.613521419507473"><ele>1.0</ele><time>2026-05-02T19:04:33Z</time></trkpt><trkpt lat="45.70771178742131" lon="12.613201706014614"><ele>1.0</ele><time>2026-05-02T19:04:34Z</time></trkpt><trkpt lat="45.707569256901785" lon="12.612888336011048"><ele>1.0</ele><time>2026-05-02T19:04:35Z</time></trkpt><trkpt lat="45.707431652800445" lon="12.612576533291271"><ele>1.5</ele><time>2026-05-02T19:04:36Z</time></trkpt><trkpt lat="45.70729720532601" lon="12.61226500347042"><ele>2.0</ele><time>2026-05-02T19:04:37Z</time></trkpt><trkpt lat="45.70716196485712" lon="12.611953381176189"><ele>2.0</ele><time>2026-05-02T19:04:38Z</time></trkpt><trkpt lat="45.707031770089706" lon="12.611646406432705"><ele>2.0</ele><time>2026-05-02T19:04:39Z</time></trkpt><trkpt lat="45.706902260043854" lon="12.61134296534395"><ele>1.5</ele><time>2026-05-02T19:04:40Z</time></trkpt><trkpt lat="45.70677353764305" lon="12.611045763938737"><ele>1.0</ele><time>2026-05-02T19:04:41Z</time></trkpt><trkpt lat="45.706649966498574" lon="12.61075373594423"><ele>1.0</ele><time>2026-05-02T19:04:42Z</time></trkpt><trkpt lat="45.70653149123885" lon="12.610463116026335"><ele>1.0</ele><time>2026-05-02T19:04:43Z</time></trkpt><trkpt lat="45.706418466205164" lon="12.610170012895768"><ele>1.0</ele><time>2026-05-02T19:04:44Z</time></trkpt><trkpt lat="45.70630325805381" lon="12.609876097577422"><ele>1.0</ele><time>2026-05-02T19:04:45Z</time></trkpt><trkpt lat="45.70619159790496" lon="12.609584514902643"><ele>1.0</ele><time>2026-05-02T19:04:46Z</time></trkpt><trkpt lat="45.70607960692333" lon="12.609293326164751"><ele>1.0</ele><time>2026-05-02T19:04:47Z</time></trkpt><trkpt lat="45.70596754023626" lon="12.609009405642619"><ele>1.0</ele><time>2026-05-02T19:04:48Z</time></trkpt><trkpt lat="45.70585648659637" lon="12.608730687527716"><ele>1.0</ele><time>2026-05-02T19:04:49Z</time></trkpt><trkpt lat="45.70574676957361" lon="12.60845475670238"><ele>1.0</ele><time>2026-05-02T19:04:50Z</time></trkpt><trkpt lat="45.70564503910888" lon="12.608186822796254"><ele>1.0</ele><time>2026-05-02T19:04:51Z</time></trkpt><trkpt lat="45.70555044297505" lon="12.607929974262106"><ele>1.0</ele><time>2026-05-02T19:04:52Z</time></trkpt><trkpt lat="45.70546179646286" lon="12.60767987654414"><ele>1.0</ele><time>2026-05-02T19:04:53Z</time></trkpt><trkpt lat="45.70537451383935" lon="12.607437162921338"><ele>1.0</ele><time>2026-05-02T19:04:54Z</time></trkpt><trkpt lat="45.70529024863864" lon="12.6072061308881"><ele>1.0</ele><time>2026-05-02T19:04:55Z</time></trkpt><trkpt lat="45.70520955745822" lon="12.60698631335688"><ele>1.0</ele><time>2026-05-02T19:04:56Z</time></trkpt><trkpt lat="45.705133185918925" lon="12.606777320062633"><ele>1.0</ele><time>2026-05-02T19:04:57Z</time></trkpt><trkpt lat="45.70506030664725" lon="12.606575161673232"><ele>1.0</ele><time>2026-05-02T19:04:58Z</time></trkpt><trkpt lat="45.704988511818414" lon="12.606376902913771"><ele>1.0</ele><time>2026-05-02T19:04:59Z</time></trkpt><trkpt lat="45.7049212238241" lon="12.606186138089678"><ele>1.25</ele><time>2026-05-02T19:05:00Z</time></trkpt><trkpt lat="45.704855198468" lon="12.6060032703214"><ele>1.5</ele><time>2026-05-02T19:05:01Z</time></trkpt><trkpt lat="45.70479253295634" lon="12.605829897362796"><ele>1.75</ele><time>2026-05-02T19:05:02Z</time></trkpt><trkpt lat="45.70473735407287" lon="12.605657523657175"><ele>2.0</ele><time>2026-05-02T19:05:03Z</time></trkpt><trkpt lat="45.7046880754059" lon="12.605486853478176"><ele>1.75</ele><time>2026-05-02T19:05:04Z</time></trkpt><trkpt lat="45.70464835240111" lon="12.605321622937884"><ele>1.5</ele><time>2026-05-02T19:05:05Z</time></trkpt><trkpt lat="45.70461493076147" lon="12.605155793325238"><ele>1.25</ele><time>2026-05-02T19:05:06Z</time></trkpt><trkpt lat="45.70458979402494" lon="12.604996082563483"><ele>1.0</ele><time>2026-05-02T19:05:07Z</time></trkpt><trkpt lat="45.70457560435057" lon="12.604850120788505"><ele>0.9999999999999999</ele><time>2026-05-02T19:05:07.999Z</time></trkpt><trkpt lat="45.7045637271711" lon="12.604717337552708"><ele>1.0</ele><time>2026-05-02T19:05:08.999Z</time></trkpt><trkpt lat="45.70455481540074" lon="12.604598171210217"><ele>1.0</ele><time>2026-05-02T19:05:09.999Z</time></trkpt><trkpt lat="45.7045497100419" lon="12.604487901827117"><ele>1.0</ele><time>2026-05-02T19:05:10.999Z</time></trkpt><trkpt lat="45.704545867516025" lon="12.6043823571444"><ele>0.9999999999999999</ele><time>2026-05-02T19:05:11.999Z</time></trkpt><trkpt lat="45.704543594748" lon="12.604287252733078"><ele>1.0</ele><time>2026-05-02T19:05:12.999Z</time></trkpt><trkpt lat="45.704540504282114" lon="12.604194280225228"><ele>1.2000000000000002</ele><time>2026-05-02T19:05:13.999Z</time></trkpt><trkpt lat="45.70451824166858" lon="12.604028541991093"><ele>1.4000000000000001</ele><time>2026-05-02T19:05:15.999Z</time></trkpt><trkpt lat="45.70449951997817" lon="12.603879668553233"><ele>1.6</ele><time>2026-05-02T19:05:17.999Z</time></trkpt><trkpt lat="45.704508943778116" lon="12.603746297059095"><ele>1.8</ele><time>2026-05-02T19:05:19.999Z</time></trkpt><trkpt lat="45.70452877106098" lon="12.603628276227374"><ele>2.0</ele><time>2026-05-02T19:05:21.999Z</time></trkpt><trkpt lat="45.70451884823834" lon="12.603498908152082"><ele>2.25</ele><time>2026-05-02T19:05:24.999Z</time></trkpt><trkpt lat="45.704512544414044" lon="12.603393667733087"><ele>2.5</ele><time>2026-05-02T19:05:29Z</time></trkpt><trkpt lat="45.7045415951587" lon="12.603210905959592"><ele>2.75</ele><time>2026-05-02T19:09:39.999Z</time></trkpt><trkpt lat="45.70445160385778" lon="12.6030125934748"><ele>3.0</ele><time>2026-05-02T19:10:00Z</time></trkpt><trkpt lat="45.70452648968769" lon="12.603064654457347"><ele>3.0</ele><time>2026-05-02T19:10:26Z</time></trkpt><trkpt lat="45.70457648373079" lon="12.60314812858764"><ele>3.0</ele><time>2026-05-02T19:10:34Z</time></trkpt><trkpt lat="45.704752859692235" lon="12.603429420075917"><ele>3.0</ele><time>2026-05-02T19:12:46Z</time></trkpt><trkpt lat="45.70469869564546" lon="12.603330178642427"><ele>3.0</ele><time>2026-05-02T19:13:04Z</time></trkpt><trkpt lat="45.70403527792056" lon="12.603533022027795"><ele>3.0</ele><time>2026-05-02T19:13:16.524Z</time></trkpt><trkpt lat="45.70428233865872" lon="12.60338364841637"><ele>3.0</ele><time>2026-05-02T19:13:20Z</time></trkpt><trkpt lat="45.7044907195752" lon="12.603192705407206"><ele>3.0</ele><time>2026-05-02T19:13:30.999Z</time></trkpt><trkpt lat="45.704652559986314" lon="12.60320018046778"><ele>3.0</ele><time>2026-05-02T19:14:12Z</time></trkpt><trkpt lat="45.704516180853474" lon="12.603118247708258"><ele>3.0</ele><time>2026-05-02T19:14:21Z</time></trkpt><trkpt lat="45.70448749550056" lon="12.603199102411187"><ele>3.0</ele><time>2026-05-02T19:18:50Z</time></trkpt><trkpt lat="45.704619535287826" lon="12.603225745272452"><ele>3.0</ele><time>2026-05-02T19:19:18Z</time></trkpt><trkpt lat="45.704586374856014" lon="12.603306765486995"><ele>3.0</ele><time>2026-05-02T19:19:46Z</time></trkpt><trkpt lat="45.70453126486434" lon="12.603231739166615"><ele>3.0</ele><time>2026-05-02T19:19:59.999Z</time></trkpt><trkpt lat="45.704470697129125" lon="12.603195349761599"><ele>3.0</ele><time>2026-05-02T19:20:05.999Z</time></trkpt><trkpt lat="45.704516208883646" lon="12.603299952575187"><ele>3.0</ele><time>2026-05-02T19:23:00Z</time></trkpt><trkpt lat="45.70443149845963" lon="12.603227821864936"><ele>3.0</ele><time>2026-05-02T19:26:11Z</time></trkpt><trkpt lat="45.70439375273733" lon="12.603131990100163"><ele>3.0</ele><time>2026-05-02T19:26:13Z</time></trkpt><trkpt lat="45.70435791137052" lon="12.603007930489294"><ele>3.0</ele><time>2026-05-02T19:26:14.999Z</time></trkpt><trkpt lat="45.70428807838038" lon="12.602874975278747"><ele>3.0</ele><time>2026-05-02T19:26:16.999Z</time></trkpt><trkpt lat="45.70424433920258" lon="12.602809595852504"><ele>3.0</ele><time>2026-05-02T19:26:17.999Z</time></trkpt><trkpt lat="45.70419104370757" lon="12.60273133644052"><ele>3.0</ele><time>2026-05-02T19:26:18.999Z</time></trkpt><trkpt lat="45.704144215464204" lon="12.602647714618149"><ele>3.0</ele><time>2026-05-02T19:26:19.999Z</time></trkpt><trkpt lat="45.70409548107629" lon="12.602565634216363"><ele>2.8333333333333335</ele><time>2026-05-02T19:26:20.999Z</time></trkpt><trkpt lat="45.70404611816144" lon="12.602492980302094"><ele>2.6666666666666665</ele><time>2026-05-02T19:26:21.999Z</time></trkpt><trkpt lat="45.703990521437255" lon="12.602420287520015"><ele>2.5</ele><time>2026-05-02T19:26:22.999Z</time></trkpt><trkpt lat="45.70393115578763" lon="12.602344428635806"><ele>2.333333333333333</ele><time>2026-05-02T19:26:23.999Z</time></trkpt><trkpt lat="45.703871451417506" lon="12.602261541190428"><ele>2.1666666666666665</ele><time>2026-05-02T19:26:24.999Z</time></trkpt><trkpt lat="45.703815281873766" lon="12.602177039693357"><ele>2.0</ele><time>2026-05-02T19:26:25.999Z</time></trkpt><trkpt lat="45.70375104431832" lon="12.602090563797292"><ele>2.0</ele><time>2026-05-02T19:26:26.999Z</time></trkpt><trkpt lat="45.70367740721425" lon="12.602009367133403"><ele>2.0</ele><time>2026-05-02T19:26:27.999Z</time></trkpt><trkpt lat="45.70360757134475" lon="12.601923897848291"><ele>2.0</ele><time>2026-05-02T19:26:29Z</time></trkpt><trkpt lat="45.703535800099765" lon="12.601836886842454"><ele>2.0</ele><time>2026-05-02T19:26:30Z</time></trkpt><trkpt lat="45.70346730575578" lon="12.601739450267292"><ele>2.0</ele><time>2026-05-02T19:26:31Z</time></trkpt><trkpt lat="45.70339966050805" lon="12.601635311948753"><ele>2.0</ele><time>2026-05-02T19:26:32Z</time></trkpt><trkpt lat="45.70333001081236" lon="12.601526045140773"><ele>2.0</ele><time>2026-05-02T19:26:33Z</time></trkpt><trkpt lat="45.703260134728815" lon="12.601410713578524"><ele>2.0</ele><time>2026-05-02T19:26:34Z</time></trkpt><trkpt lat="45.703194932006895" lon="12.601283853210637"><ele>2.0</ele><time>2026-05-02T19:26:35Z</time></trkpt><trkpt lat="45.7031325460382" lon="12.6011485959538"><ele>2.0</ele><time>2026-05-02T19:26:36Z</time></trkpt><trkpt lat="45.70306865595466" lon="12.601001381852006"><ele>2.0</ele><time>2026-05-02T19:26:37Z</time></trkpt><trkpt lat="45.703006654597814" lon="12.600838391197918"><ele>2.0</ele><time>2026-05-02T19:26:38Z</time></trkpt><trkpt lat="45.702945772285574" lon="12.600660906290829"><ele>2.0</ele><time>2026-05-02T19:26:39Z</time></trkpt><trkpt lat="45.70287703435076" lon="12.600473162772463"><ele>2.0</ele><time>2026-05-02T19:26:40Z</time></trkpt><trkpt lat="45.702810720518855" lon="12.600300845447642"><ele>2.0</ele><time>2026-05-02T19:26:41Z</time></trkpt><trkpt lat="45.702746261799945" lon="12.600125547411862"><ele>2.0</ele><time>2026-05-02T19:26:42Z</time></trkpt><trkpt lat="45.7026761934785" lon="12.599937126746454"><ele>2.0</ele><time>2026-05-02T19:26:43Z</time></trkpt><trkpt lat="45.70259908659139" lon="12.599745123375026"><ele>2.0</ele><time>2026-05-02T19:26:44Z</time></trkpt><trkpt lat="45.702519509071315" lon="12.59953988044324"><ele>2.333333333333333</ele><time>2026-05-02T19:26:45Z</time></trkpt><trkpt lat="45.70243976235131" lon="12.599330469726041"><ele>2.6666666666666665</ele><time>2026-05-02T19:26:46Z</time></trkpt><trkpt lat="45.7023545476782" lon="12.59911043750199"><ele>3.0</ele><time>2026-05-02T19:26:47Z</time></trkpt><trkpt lat="45.70226794816445" lon="12.59888060108764"><ele>2.6666666666666665</ele><time>2026-05-02T19:26:48Z</time></trkpt><trkpt lat="45.70218043691625" lon="12.598637160624738"><ele>2.333333333333333</ele><time>2026-05-02T19:26:49Z</time></trkpt><trkpt lat="45.70208734195908" lon="12.598386184867437"><ele>2.0</ele><time>2026-05-02T19:26:50Z</time></trkpt><trkpt lat="45.70199505570706" lon="12.598127416793178"><ele>1.6666666666666665</ele><time>2026-05-02T19:26:51Z</time></trkpt><trkpt lat="45.7019017585238" lon="12.597860937586002"><ele>1.3333333333333333</ele><time>2026-05-02T19:26:52Z</time></trkpt><trkpt lat="45.70180114202447" lon="12.597587239562365"><ele>1.0</ele><time>2026-05-02T19:26:53Z</time></trkpt><trkpt lat="45.70170131666046" lon="12.597304634082564"><ele>0.5</ele><time>2026-05-02T19:26:54Z</time></trkpt><trkpt lat="45.701600604008455" lon="12.59701615287386"><ele>0.0</ele><time>2026-05-02T19:26:55Z</time></trkpt><trkpt lat="45.701496752776634" lon="12.596725031631651"><ele>1.0</ele><time>2026-05-02T19:26:56Z</time></trkpt><trkpt lat="45.7013895065393" lon="12.596428357372723"><ele>2.0</ele><time>2026-05-02T19:26:57Z</time></trkpt><trkpt lat="45.701284188089325" lon="12.596121706074214"><ele>2.0</ele><time>2026-05-02T19:26:58Z</time></trkpt><trkpt lat="45.7011751025436" lon="12.595821543858483"><ele>2.0</ele><time>2026-05-02T19:26:59Z</time></trkpt><trkpt lat="45.701068418608514" lon="12.595519527516355"><ele>0.5</ele><time>2026-05-02T19:27:00Z</time></trkpt><trkpt lat="45.70096376006214" lon="12.595219214123674"><ele>-1.0</ele><time>2026-05-02T19:27:01Z</time></trkpt><trkpt lat="45.70085259711926" lon="12.594914163375428"><ele>-1.0</ele><time>2026-05-02T19:27:02Z</time></trkpt><trkpt lat="45.70074376194322" lon="12.594618775678569"><ele>-1.0</ele><time>2026-05-02T19:27:03Z</time></trkpt><trkpt lat="45.700636165269536" lon="12.594315086571772"><ele>0.0</ele><time>2026-05-02T19:27:04Z</time></trkpt><trkpt lat="45.70053025039112" lon="12.594012319407542"><ele>1.0</ele><time>2026-05-02T19:27:05Z</time></trkpt><trkpt lat="45.70042175850134" lon="12.5937104040785"><ele>0.5</ele><time>2026-05-02T19:27:06Z</time></trkpt><trkpt lat="45.700311170240774" lon="12.593412774897253"><ele>0.0</ele><time>2026-05-02T19:27:07Z</time></trkpt><trkpt lat="45.70020206793203" lon="12.5931109141866"><ele>1.5</ele><time>2026-05-02T19:27:08Z</time></trkpt><trkpt lat="45.70009109386649" lon="12.592807690501937"><ele>3.0</ele><time>2026-05-02T19:27:09Z</time></trkpt><trkpt lat="45.69998329095457" lon="12.592504619616028"><ele>3.0</ele><time>2026-05-02T19:27:10Z</time></trkpt><trkpt lat="45.699872405321" lon="12.592203080782486"><ele>3.0</ele><time>2026-05-02T19:27:11Z</time></trkpt><trkpt lat="45.699762741827364" lon="12.591904186097247"><ele>2.5</ele><time>2026-05-02T19:27:12Z</time></trkpt><trkpt lat="45.69965565965838" lon="12.591606518892531"><ele>2.0</ele><time>2026-05-02T19:27:13Z</time></trkpt><trkpt lat="45.69954775969461" lon="12.591307349001061"><ele>1.0</ele><time>2026-05-02T19:27:14Z</time></trkpt><trkpt lat="45.69944090005449" lon="12.591008920981793"><ele>0.0</ele><time>2026-05-02T19:27:15Z</time></trkpt><trkpt lat="45.69933123201801" lon="12.590708072905048"><ele>0.0</ele><time>2026-05-02T19:27:16Z</time></trkpt><trkpt lat="45.69922200093064" lon="12.590409102183747"><ele>0.0</ele><time>2026-05-02T19:27:17Z</time></trkpt><trkpt lat="45.699112480886605" lon="12.590110296890622"><ele>0.0</ele><time>2026-05-02T19:27:18Z</time></trkpt><trkpt lat="45.69899706649701" lon="12.589815763359214"><ele>0.0</ele><time>2026-05-02T19:27:19Z</time></trkpt><trkpt lat="45.69888310630084" lon="12.58951691665825"><ele>-0.5</ele><time>2026-05-02T19:27:20Z</time></trkpt><trkpt lat="45.69876586005428" lon="12.58922122680217"><ele>-1.0</ele><time>2026-05-02T19:27:21Z</time></trkpt><trkpt lat="45.69865082311234" lon="12.58892289112435"><ele>-0.5</ele><time>2026-05-02T19:27:22Z</time></trkpt><trkpt lat="45.69853378689214" lon="12.588628740171988"><ele>0.0</ele><time>2026-05-02T19:27:23Z</time></trkpt><trkpt lat="45.6984164374325" lon="12.588337515160426"><ele>0.0</ele><time>2026-05-02T19:27:24Z</time></trkpt><trkpt lat="45.69829819061019" lon="12.58804359348424"><ele>0.0</ele><time>2026-05-02T19:27:25Z</time></trkpt><trkpt lat="45.69817701783784" lon="12.58775417482467"><ele>0.0</ele><time>2026-05-02T19:27:26Z</time></trkpt><trkpt lat="45.698054039463024" lon="12.587464325414357"><ele>0.0</ele><time>2026-05-02T19:27:27Z</time></trkpt><trkpt lat="45.697933772734416" lon="12.587174805421597"><ele>0.5</ele><time>2026-05-02T19:27:28Z</time></trkpt><trkpt lat="45.69781367642757" lon="12.586884603093987"><ele>1.0</ele><time>2026-05-02T19:27:29Z</time></trkpt><trkpt lat="45.69769197748477" lon="12.586595003989027"><ele>1.0</ele><time>2026-05-02T19:27:30Z</time></trkpt><trkpt lat="45.69756498973692" lon="12.586308727350437"><ele>1.0</ele><time>2026-05-02T19:27:31Z</time></trkpt><trkpt lat="45.6974445003047" lon="12.586019402250495"><ele>0.5</ele><time>2026-05-02T19:27:32Z</time></trkpt><trkpt lat="45.697322786825254" lon="12.585728223561457"><ele>0.0</ele><time>2026-05-02T19:27:33Z</time></trkpt><trkpt lat="45.69720042440387" lon="12.585434452445163"><ele>0.5</ele><time>2026-05-02T19:27:34Z</time></trkpt><trkpt lat="45.69707204914687" lon="12.58514194810215"><ele>1.0</ele><time>2026-05-02T19:27:35Z</time></trkpt><trkpt lat="45.696946418608064" lon="12.584859569318386"><ele>1.0</ele><time>2026-05-02T19:27:36Z</time></trkpt><trkpt lat="45.6968181117369" lon="12.584575022294434"><ele>1.0</ele><time>2026-05-02T19:27:37Z</time></trkpt><trkpt lat="45.696686497988104" lon="12.584289143638118"><ele>0.5</ele><time>2026-05-02T19:27:38Z</time></trkpt><trkpt lat="45.69655447869585" lon="12.583995268735523"><ele>0.0</ele><time>2026-05-02T19:27:39Z</time></trkpt><trkpt lat="45.696418774937065" lon="12.583697620794021"><ele>-0.5</ele><time>2026-05-02T19:27:40Z</time></trkpt><trkpt lat="45.6962807592467" lon="12.583397379622333"><ele>-1.0</ele><time>2026-05-02T19:27:41Z</time></trkpt><trkpt lat="45.69614019565282" lon="12.583090772631808"><ele>0.5</ele><time>2026-05-02T19:27:42Z</time></trkpt><trkpt lat="45.69599283698988" lon="12.582776568725018"><ele>2.0</ele><time>2026-05-02T19:27:43Z</time></trkpt><trkpt lat="45.69584092450177" lon="12.582461166015051"><ele>2.0</ele><time>2026-05-02T19:27:44Z</time></trkpt><trkpt lat="45.69568527319008" lon="12.582148079580294"><ele>2.0</ele><time>2026-05-02T19:27:45Z</time></trkpt><trkpt lat="45.695525053117954" lon="12.58182868865018"><ele>2.0</ele><time>2026-05-02T19:27:46Z</time></trkpt><trkpt lat="45.69536705682231" lon="12.581505874096692"><ele>2.0</ele><time>2026-05-02T19:27:47Z</time></trkpt><trkpt lat="45.69521208771654" lon="12.5811778331961"><ele>1.0</ele><time>2026-05-02T19:27:48Z</time></trkpt><trkpt lat="45.69506125492753" lon="12.580843968962023"><ele>0.0</ele><time>2026-05-02T19:27:49Z</time></trkpt><trkpt lat="45.69490526367421" lon="12.580514103528127"><ele>0.0</ele><time>2026-05-02T19:27:50Z</time></trkpt><trkpt lat="45.69474793257455" lon="12.580184453727664"><ele>0.0</ele><time>2026-05-02T19:27:51Z</time></trkpt><trkpt lat="45.69458471376943" lon="12.57985327194005"><ele>0.0</ele><time>2026-05-02T19:27:52Z</time></trkpt><trkpt lat="45.694425111386785" lon="12.579516593995015"><ele>0.0</ele><time>2026-05-02T19:27:53Z</time></trkpt><trkpt lat="45.694265375798885" lon="12.57917514524992"><ele>0.0</ele><time>2026-05-02T19:27:54Z</time></trkpt><trkpt lat="45.694101822808435" lon="12.578831184155863"><ele>0.0</ele><time>2026-05-02T19:27:55Z</time></trkpt><trkpt lat="45.69393328842102" lon="12.578488686637757"><ele>0.5</ele><time>2026-05-02T19:27:56Z</time></trkpt><trkpt lat="45.69376357556286" lon="12.578141973199354"><ele>1.0</ele><time>2026-05-02T19:27:57Z</time></trkpt><trkpt lat="45.693596858514326" lon="12.57779911305008"><ele>0.0</ele><time>2026-05-02T19:27:58Z</time></trkpt><trkpt lat="45.693427891218285" lon="12.57745673426781"><ele>-1.0</ele><time>2026-05-02T19:27:59Z</time></trkpt><trkpt lat="45.69325958730883" lon="12.577114383994523"><ele>-1.0</ele><time>2026-05-02T19:28:00Z</time></trkpt><trkpt lat="45.6930872809597" lon="12.576768347404569"><ele>-1.0</ele><time>2026-05-02T19:28:01Z</time></trkpt><trkpt lat="45.69291328915326" lon="12.576416198039508"><ele>-1.5</ele><time>2026-05-02T19:28:02Z</time></trkpt><trkpt lat="45.692740508639446" lon="12.576062923566997"><ele>-2.0</ele><time>2026-05-02T19:28:03Z</time></trkpt><trkpt lat="45.69257241812165" lon="12.575707605612656"><ele>-2.5</ele><time>2026-05-02T19:28:04Z</time></trkpt><trkpt lat="45.692406754277634" lon="12.57535157255366"><ele>-3.0</ele><time>2026-05-02T19:28:05Z</time></trkpt><trkpt lat="45.692232046705136" lon="12.574989911826396"><ele>-3.0</ele><time>2026-05-02T19:28:06Z</time></trkpt><trkpt lat="45.69206459240794" lon="12.574627370792472"><ele>-3.0</ele><time>2026-05-02T19:28:07Z</time></trkpt><trkpt lat="45.691896071490355" lon="12.574258912534946"><ele>-2.0</ele><time>2026-05-02T19:28:08Z</time></trkpt><trkpt lat="45.69172922038447" lon="12.573890946250295"><ele>-1.0</ele><time>2026-05-02T19:28:09Z</time></trkpt><trkpt lat="45.69155813363422" lon="12.573522879488275"><ele>0.0</ele><time>2026-05-02T19:28:10Z</time></trkpt><trkpt lat="45.69138682792534" lon="12.5731548512856"><ele>1.0</ele><time>2026-05-02T19:28:11Z</time></trkpt><trkpt lat="45.69121189095117" lon="12.572782560560553"><ele>-0.5</ele><time>2026-05-02T19:28:12Z</time></trkpt><trkpt lat="45.69103460369171" lon="12.572411411395246"><ele>-2.0</ele><time>2026-05-02T19:28:13Z</time></trkpt><trkpt lat="45.69085602576193" lon="12.572038419451792"><ele>-1.5</ele><time>2026-05-02T19:28:14Z</time></trkpt><trkpt lat="45.69067503228028" lon="12.57166313010144"><ele>-1.0</ele><time>2026-05-02T19:28:15Z</time></trkpt><trkpt lat="45.69049685338758" lon="12.571288908940002"><ele>-0.5</ele><time>2026-05-02T19:28:16Z</time></trkpt><trkpt lat="45.69031778179218" lon="12.570915376743246"><ele>0.0</ele><time>2026-05-02T19:28:17Z</time></trkpt><trkpt lat="45.69013976376197" lon="12.570540352097765"><ele>0.5</ele><time>2026-05-02T19:28:18Z</time></trkpt><trkpt lat="45.6899593270841" lon="12.570167393365159"><ele>1.0</ele><time>2026-05-02T19:28:19Z</time></trkpt><trkpt lat="45.68977989080547" lon="12.56978929629347"><ele>1.0</ele><time>2026-05-02T19:28:20Z</time></trkpt><trkpt lat="45.68960072701834" lon="12.569412797711426"><ele>1.0</ele><time>2026-05-02T19:28:21Z</time></trkpt><trkpt lat="45.689419325168735" lon="12.569037739408035"><ele>0.0</ele><time>2026-05-02T19:28:22Z</time></trkpt><trkpt lat="45.68924280808952" lon="12.568659111895208"><ele>-1.0</ele><time>2026-05-02T19:28:23Z</time></trkpt><trkpt lat="45.68905867009349" lon="12.568280783588841"><ele>-1.0</ele><time>2026-05-02T19:28:24Z</time></trkpt><trkpt lat="45.68887854721667" lon="12.56790200322609"><ele>-1.0</ele><time>2026-05-02T19:28:25Z</time></trkpt><trkpt lat="45.68869862175566" lon="12.567527225145716"><ele>0.0</ele><time>2026-05-02T19:28:26Z</time></trkpt><trkpt lat="45.688519159817524" lon="12.567148119803969"><ele>1.0</ele><time>2026-05-02T19:28:27Z</time></trkpt><trkpt lat="45.688337990323" lon="12.566766105257816"><ele>1.0</ele><time>2026-05-02T19:28:28Z</time></trkpt><trkpt lat="45.688154082251934" lon="12.566379858420527"><ele>1.0</ele><time>2026-05-02T19:28:29Z</time></trkpt><trkpt lat="45.6879678271061" lon="12.565998312080744"><ele>1.0</ele><time>2026-05-02T19:28:30Z</time></trkpt><trkpt lat="45.68778263785576" lon="12.56561158962637"><ele>1.0</ele><time>2026-05-02T19:28:31Z</time></trkpt><trkpt lat="45.68759548583326" lon="12.565223652518286"><ele>1.0</ele><time>2026-05-02T19:28:32Z</time></trkpt><trkpt lat="45.68740972703772" lon="12.564832680631799"><ele>1.0</ele><time>2026-05-02T19:28:33Z</time></trkpt><trkpt lat="45.68722568742009" lon="12.564445109845245"><ele>1.5</ele><time>2026-05-02T19:28:34Z</time></trkpt><trkpt lat="45.68704101008211" lon="12.564054596253802"><ele>2.0</ele><time>2026-05-02T19:28:35Z</time></trkpt><trkpt lat="45.68685221104762" lon="12.563665179563742"><ele>2.0</ele><time>2026-05-02T19:28:36Z</time></trkpt><trkpt lat="45.68666461662704" lon="12.56327541657779"><ele>2.0</ele><time>2026-05-02T19:28:37Z</time></trkpt><trkpt lat="45.686476362799304" lon="12.562883186674432"><ele>1.5</ele><time>2026-05-02T19:28:38Z</time></trkpt><trkpt lat="45.686286436340325" lon="12.56249249648916"><ele>1.0</ele><time>2026-05-02T19:28:39Z</time></trkpt><trkpt lat="45.68609177706837" lon="12.562103609548467"><ele>0.0</ele><time>2026-05-02T19:28:40Z</time></trkpt><trkpt lat="45.685901410108336" lon="12.561711609935012"><ele>-1.0</ele><time>2026-05-02T19:28:41Z</time></trkpt><trkpt lat="45.68571273515211" lon="12.561318886256084"><ele>-2.0</ele><time>2026-05-02T19:28:42Z</time></trkpt><trkpt lat="45.685524428492755" lon="12.560925926680492"><ele>-3.0</ele><time>2026-05-02T19:28:43Z</time></trkpt><trkpt lat="45.68533353876854" lon="12.560530222693991"><ele>-1.0</ele><time>2026-05-02T19:28:44Z</time></trkpt><trkpt lat="45.68514403126442" lon="12.560134280542183"><ele>1.0</ele><time>2026-05-02T19:28:45Z</time></trkpt><trkpt lat="45.684951639241845" lon="12.559738395796392"><ele>1.5</ele><time>2026-05-02T19:28:46Z</time></trkpt><trkpt lat="45.68475716611861" lon="12.559342823791884"><ele>2.0</ele><time>2026-05-02T19:28:47Z</time></trkpt><trkpt lat="45.684567904250514" lon="12.558945020727402"><ele>1.0</ele><time>2026-05-02T19:28:48Z</time></trkpt><trkpt lat="45.68437751480981" lon="12.558547453540388"><ele>0.0</ele><time>2026-05-02T19:28:49Z</time></trkpt><trkpt lat="45.68418957001743" lon="12.558149091452291"><ele>0.5</ele><time>2026-05-02T19:28:50Z</time></trkpt><trkpt lat="45.68400302404389" lon="12.557750102300606"><ele>1.0</ele><time>2026-05-02T19:28:51Z</time></trkpt><trkpt lat="45.683809674547014" lon="12.557348934742068"><ele>1.0</ele><time>2026-05-02T19:28:52Z</time></trkpt><trkpt lat="45.68361641852692" lon="12.55694815829514"><ele>1.0</ele><time>2026-05-02T19:28:53Z</time></trkpt><trkpt lat="45.68342473346716" lon="12.556545437887953"><ele>1.0</ele><time>2026-05-02T19:28:54Z</time></trkpt><trkpt lat="45.68323083091006" lon="12.556142354086232"><ele>1.0</ele><time>2026-05-02T19:28:55Z</time></trkpt><trkpt lat="45.683040478323704" lon="12.555737610138804"><ele>0.5</ele><time>2026-05-02T19:28:56Z</time></trkpt><trkpt lat="45.682852124126335" lon="12.555333632289246"><ele>0.0</ele><time>2026-05-02T19:28:57Z</time></trkpt><trkpt lat="45.68266546195325" lon="12.554931312152988"><ele>1.0</ele><time>2026-05-02T19:28:58Z</time></trkpt><trkpt lat="45.68247570425316" lon="12.554532239897917"><ele>2.0</ele><time>2026-05-02T19:28:59Z</time></trkpt><trkpt lat="45.68228401406942" lon="12.554132107030593"><ele>2.0</ele><time>2026-05-02T19:29:00Z</time></trkpt><trkpt lat="45.682093618624826" lon="12.553733693762767"><ele>2.0</ele><time>2026-05-02T19:29:01Z</time></trkpt><trkpt lat="45.68190195564953" lon="12.553331666908534"><ele>0.0</ele><time>2026-05-02T19:29:02Z</time></trkpt><trkpt lat="45.68171274636618" lon="12.552932535844834"><ele>-2.0</ele><time>2026-05-02T19:29:03Z</time></trkpt><trkpt lat="45.68152130060777" lon="12.552533267678099"><ele>-2.0</ele><time>2026-05-02T19:29:04Z</time></trkpt><trkpt lat="45.681329304346484" lon="12.552135397037778"><ele>-2.0</ele><time>2026-05-02T19:29:05Z</time></trkpt><trkpt lat="45.68113586062883" lon="12.551731054911182"><ele>-1.0</ele><time>2026-05-02T19:29:06Z</time></trkpt><trkpt lat="45.680943646066645" lon="12.551332788919783"><ele>0.0</ele><time>2026-05-02T19:29:07Z</time></trkpt><trkpt lat="45.680751491991614" lon="12.550931246341563"><ele>0.0</ele><time>2026-05-02T19:29:08Z</time></trkpt><trkpt lat="45.680559741875996" lon="12.550532572587976"><ele>0.0</ele><time>2026-05-02T19:29:09Z</time></trkpt><trkpt lat="45.680366903914965" lon="12.550133963088408"><ele>0.0</ele><time>2026-05-02T19:29:10Z</time></trkpt><trkpt lat="45.68017252722349" lon="12.549728255025977"><ele>0.0</ele><time>2026-05-02T19:29:11Z</time></trkpt><trkpt lat="45.679980283890856" lon="12.549324231466873"><ele>0.0</ele><time>2026-05-02T19:29:12Z</time></trkpt><trkpt lat="45.67978935692755" lon="12.548921267420207"><ele>0.0</ele><time>2026-05-02T19:29:13Z</time></trkpt><trkpt lat="45.67959883051544" lon="12.548517619182082"><ele>0.5</ele><time>2026-05-02T19:29:14Z</time></trkpt><trkpt lat="45.679409435060215" lon="12.548114919719664"><ele>1.0</ele><time>2026-05-02T19:29:15Z</time></trkpt><trkpt lat="45.67922100996352" lon="12.547705582035643"><ele>1.5</ele><time>2026-05-02T19:29:16Z</time></trkpt><trkpt lat="45.67903213313661" lon="12.547298615391078"><ele>2.0</ele><time>2026-05-02T19:29:17Z</time></trkpt><trkpt lat="45.67884547407227" lon="12.546893653688565"><ele>2.0</ele><time>2026-05-02T19:29:18Z</time></trkpt><trkpt lat="45.67865555271522" lon="12.546488713030989"><ele>2.0</ele><time>2026-05-02T19:29:19Z</time></trkpt><trkpt lat="45.6784681728931" lon="12.546083834016025"><ele>2.0</ele><time>2026-05-02T19:29:20Z</time></trkpt><trkpt lat="45.67827722843487" lon="12.545681225986987"><ele>2.0</ele><time>2026-05-02T19:29:21Z</time></trkpt><trkpt lat="45.67808406925026" lon="12.545277144888548"><ele>2.0</ele><time>2026-05-02T19:29:22Z</time></trkpt><trkpt lat="45.677891053062126" lon="12.544874519654185"><ele>2.0</ele><time>2026-05-02T19:29:23Z</time></trkpt><trkpt lat="45.677695980361285" lon="12.54447202661749"><ele>1.5</ele><time>2026-05-02T19:29:24Z</time></trkpt><trkpt lat="45.677505819746386" lon="12.544068939441404"><ele>1.0</ele><time>2026-05-02T19:29:25Z</time></trkpt><trkpt lat="45.67731585762748" lon="12.543666159452627"><ele>0.5</ele><time>2026-05-02T19:29:26Z</time></trkpt><trkpt lat="45.677121081307774" lon="12.543263012110035"><ele>0.0</ele><time>2026-05-02T19:29:27Z</time></trkpt><trkpt lat="45.676926688368866" lon="12.542864432246528"><ele>-0.5</ele><time>2026-05-02T19:29:28Z</time></trkpt><trkpt lat="45.676734532573796" lon="12.542462128598459"><ele>-1.0</ele><time>2026-05-02T19:29:29Z</time></trkpt><trkpt lat="45.67654463837924" lon="12.542058108606971"><ele>-0.5</ele><time>2026-05-02T19:29:30Z</time></trkpt><trkpt lat="45.676353579481436" lon="12.541654883010677"><ele>0.0</ele><time>2026-05-02T19:29:31Z</time></trkpt><trkpt lat="45.67616507843204" lon="12.541249419381217"><ele>1.0</ele><time>2026-05-02T19:29:32Z</time></trkpt><trkpt lat="45.675978940630905" lon="12.540843810288028"><ele>2.0</ele><time>2026-05-02T19:29:33Z</time></trkpt><trkpt lat="45.67579143646426" lon="12.54043739161658"><ele>1.0</ele><time>2026-05-02T19:29:34Z</time></trkpt><trkpt lat="45.675601119003844" lon="12.540036039349605"><ele>0.0</ele><time>2026-05-02T19:29:35Z</time></trkpt><trkpt lat="45.67540786029646" lon="12.53963807160947"><ele>0.5</ele><time>2026-05-02T19:29:36Z</time></trkpt><trkpt lat="45.67521291824196" lon="12.539240914636128"><ele>1.0</ele><time>2026-05-02T19:29:37Z</time></trkpt><trkpt lat="45.67501753925915" lon="12.538842713326682"><ele>1.5</ele><time>2026-05-02T19:29:38Z</time></trkpt><trkpt lat="45.67482145717284" lon="12.538445450363731"><ele>2.0</ele><time>2026-05-02T19:29:39Z</time></trkpt><trkpt lat="45.67462769412274" lon="12.538045645515883"><ele>2.5</ele><time>2026-05-02T19:29:40Z</time></trkpt><trkpt lat="45.67443659261529" lon="12.537643131581758"><ele>3.0</ele><time>2026-05-02T19:29:41Z</time></trkpt><trkpt lat="45.67424411356019" lon="12.537239414640794"><ele>3.5</ele><time>2026-05-02T19:29:42Z</time></trkpt><trkpt lat="45.67405330492959" lon="12.53683646657779"><ele>4.0</ele><time>2026-05-02T19:29:43Z</time></trkpt><trkpt lat="45.673860303698916" lon="12.536435606230567"><ele>4.5</ele><time>2026-05-02T19:29:44Z</time></trkpt><trkpt lat="45.67366646265537" lon="12.536034019079295"><ele>5.0</ele><time>2026-05-02T19:29:45Z</time></trkpt><trkpt lat="45.67347284642835" lon="12.53563392031642"><ele>3.0</ele><time>2026-05-02T19:29:46Z</time></trkpt><trkpt lat="45.67328435455235" lon="12.535236402243095"><ele>1.0</ele><time>2026-05-02T19:29:47Z</time></trkpt><trkpt lat="45.67309543833453" lon="12.5348344634958"><ele>1.0</ele><time>2026-05-02T19:29:48Z</time></trkpt><trkpt lat="45.67290550437657" lon="12.534431691780007"><ele>1.0</ele><time>2026-05-02T19:29:49Z</time></trkpt><trkpt lat="45.67271389918288" lon="12.53403089191985"><ele>0.5</ele><time>2026-05-02T19:29:50Z</time></trkpt><trkpt lat="45.67252407295591" lon="12.533629739316998"><ele>0.0</ele><time>2026-05-02T19:29:51Z</time></trkpt><trkpt lat="45.672331484253704" lon="12.533227734587237"><ele>0.5</ele><time>2026-05-02T19:29:52Z</time></trkpt><trkpt lat="45.67213966288511" lon="12.532826120834487"><ele>1.0</ele><time>2026-05-02T19:29:53Z</time></trkpt><trkpt lat="45.67194513214464" lon="12.532425774903373"><ele>1.0</ele><time>2026-05-02T19:29:54Z</time></trkpt><trkpt lat="45.671751157440156" lon="12.532020973838462"><ele>1.0</ele><time>2026-05-02T19:29:55Z</time></trkpt><trkpt lat="45.67156145830611" lon="12.531618091689378"><ele>1.5</ele><time>2026-05-02T19:29:56Z</time></trkpt><trkpt lat="45.67136875095309" lon="12.531217313765245"><ele>2.0</ele><time>2026-05-02T19:29:57Z</time></trkpt><trkpt lat="45.67117559693942" lon="12.53081395923033"><ele>2.0</ele><time>2026-05-02T19:29:58Z</time></trkpt><trkpt lat="45.670985344195806" lon="12.530412234492838"><ele>2.0</ele><time>2026-05-02T19:29:59Z</time></trkpt><trkpt lat="45.67079463974371" lon="12.53000958224928"><ele>2.0</ele><time>2026-05-02T19:30:00Z</time></trkpt><trkpt lat="45.670604996315895" lon="12.529605072423799"><ele>2.0</ele><time>2026-05-02T19:30:01Z</time></trkpt><trkpt lat="45.67041645096648" lon="12.529200154570773"><ele>2.0</ele><time>2026-05-02T19:30:02Z</time></trkpt><trkpt lat="45.67023100913816" lon="12.528794822381089"><ele>2.0</ele><time>2026-05-02T19:30:03Z</time></trkpt><trkpt lat="45.67004297884489" lon="12.528388042041975"><ele>2.5</ele><time>2026-05-02T19:30:04Z</time></trkpt><trkpt lat="45.669856639168614" lon="12.527978046702131"><ele>3.0</ele><time>2026-05-02T19:30:05Z</time></trkpt><trkpt lat="45.66967281352857" lon="12.527567561655054"><ele>2.5</ele><time>2026-05-02T19:30:06Z</time></trkpt><trkpt lat="45.66948867383551" lon="12.527156223030364"><ele>2.0</ele><time>2026-05-02T19:30:07Z</time></trkpt><trkpt lat="45.66930543589368" lon="12.526746621848897"><ele>2.0</ele><time>2026-05-02T19:30:08Z</time></trkpt><trkpt lat="45.66912288560714" lon="12.526337098342248"><ele>2.0</ele><time>2026-05-02T19:30:09Z</time></trkpt><trkpt lat="45.6689412279045" lon="12.52592439802029"><ele>2.0</ele><time>2026-05-02T19:30:10Z</time></trkpt><trkpt lat="45.668760978906" lon="12.525511489320522"><ele>2.0</ele><time>2026-05-02T19:30:11Z</time></trkpt><trkpt lat="45.66858272224289" lon="12.525099179624318"><ele>2.0</ele><time>2026-05-02T19:30:12Z</time></trkpt><trkpt lat="45.66840749972744" lon="12.52468728536824"><ele>2.0</ele><time>2026-05-02T19:30:13Z</time></trkpt><trkpt lat="45.6682365308717" lon="12.524271578046015"><ele>2.0</ele><time>2026-05-02T19:30:14Z</time></trkpt><trkpt lat="45.668066658310316" lon="12.523850203796588"><ele>2.0</ele><time>2026-05-02T19:30:15Z</time></trkpt><trkpt lat="45.66789860018305" lon="12.52342816901905"><ele>2.5</ele><time>2026-05-02T19:30:16Z</time></trkpt><trkpt lat="45.6677279968758" lon="12.52300608020745"><ele>3.0</ele><time>2026-05-02T19:30:17Z</time></trkpt><trkpt lat="45.66755806662894" lon="12.52258775852779"><ele>4.0</ele><time>2026-05-02T19:30:18Z</time></trkpt><trkpt lat="45.667387725213054" lon="12.522165474973338"><ele>5.0</ele><time>2026-05-02T19:30:19Z</time></trkpt><trkpt lat="45.66721954806778" lon="12.521747261700042"><ele>5.0</ele><time>2026-05-02T19:30:20Z</time></trkpt><trkpt lat="45.667049933249125" lon="12.521324999570938"><ele>5.0</ele><time>2026-05-02T19:30:21Z</time></trkpt><trkpt lat="45.66687728033001" lon="12.52090370973946"><ele>6.0</ele><time>2026-05-02T19:30:22Z</time></trkpt><trkpt lat="45.666706650405594" lon="12.520481353268115"><ele>7.0</ele><time>2026-05-02T19:30:23Z</time></trkpt><trkpt lat="45.66653677299322" lon="12.520060794042196"><ele>7.0</ele><time>2026-05-02T19:30:24Z</time></trkpt><trkpt lat="45.66636707052059" lon="12.519638277543075"><ele>7.0</ele><time>2026-05-02T19:30:25Z</time></trkpt><trkpt lat="45.66619909727689" lon="12.519214626587043"><ele>8.5</ele><time>2026-05-02T19:30:26Z</time></trkpt><trkpt lat="45.666030562685236" lon="12.518791925974044"><ele>10.0</ele><time>2026-05-02T19:30:27Z</time></trkpt><trkpt lat="45.665860652397214" lon="12.518372229226763"><ele>10.0</ele><time>2026-05-02T19:30:28Z</time></trkpt><trkpt lat="45.66568986463872" lon="12.517949578230413"><ele>10.0</ele><time>2026-05-02T19:30:29Z</time></trkpt><trkpt lat="45.665517338793634" lon="12.51753038604922"><ele>7.5</ele><time>2026-05-02T19:30:30Z</time></trkpt><trkpt lat="45.66534288204207" lon="12.51710832356441"><ele>5.0</ele><time>2026-05-02T19:30:31Z</time></trkpt><trkpt lat="45.665172660758955" lon="12.516687293202342"><ele>5.0</ele><time>2026-05-02T19:30:32Z</time></trkpt><trkpt lat="45.66500259232544" lon="12.516263195433643"><ele>5.0</ele><time>2026-05-02T19:30:33Z</time></trkpt><trkpt lat="45.664831860637136" lon="12.515838056963066"><ele>5.0</ele><time>2026-05-02T19:30:34Z</time></trkpt><trkpt lat="45.664662392132726" lon="12.515415160579911"><ele>5.0</ele><time>2026-05-02T19:30:35Z</time></trkpt><trkpt lat="45.66449317395905" lon="12.514991098941582"><ele>5.0</ele><time>2026-05-02T19:30:36Z</time></trkpt><trkpt lat="45.66432221978701" lon="12.514568659811097"><ele>5.0</ele><time>2026-05-02T19:30:37Z</time></trkpt><trkpt lat="45.664147723902026" lon="12.514142626941535"><ele>5.0</ele><time>2026-05-02T19:30:38Z</time></trkpt><trkpt lat="45.66397178767599" lon="12.51372274447353"><ele>5.0</ele><time>2026-05-02T19:30:39Z</time></trkpt><trkpt lat="45.663792562844954" lon="12.513302813825877"><ele>6.0</ele><time>2026-05-02T19:30:40Z</time></trkpt><trkpt lat="45.66361332601769" lon="12.512883767181176"><ele>7.0</ele><time>2026-05-02T19:30:41Z</time></trkpt><trkpt lat="45.66343416278963" lon="12.512467488077707"><ele>5.5</ele><time>2026-05-02T19:30:42Z</time></trkpt><trkpt lat="45.663253267130116" lon="12.512052587222787"><ele>4.0</ele><time>2026-05-02T19:30:43Z</time></trkpt><trkpt lat="45.66307179967194" lon="12.511637409763006"><ele>4.5</ele><time>2026-05-02T19:30:44Z</time></trkpt><trkpt lat="45.66288806158724" lon="12.511223386090718"><ele>5.0</ele><time>2026-05-02T19:30:45Z</time></trkpt><trkpt lat="45.662707631506514" lon="12.510813677386519"><ele>6.0</ele><time>2026-05-02T19:30:46Z</time></trkpt><trkpt lat="45.66252576229586" lon="12.510407541774509"><ele>7.0</ele><time>2026-05-02T19:30:47Z</time></trkpt><trkpt lat="45.66233989089779" lon="12.509999500601218"><ele>7.0</ele><time>2026-05-02T19:30:48Z</time></trkpt><trkpt lat="45.662154503995374" lon="12.509594075439892"><ele>7.0</ele><time>2026-05-02T19:30:49Z</time></trkpt><trkpt lat="45.66196497526767" lon="12.509185899468303"><ele>5.5</ele><time>2026-05-02T19:30:50Z</time></trkpt><trkpt lat="45.66177350522614" lon="12.508779815275572"><ele>4.0</ele><time>2026-05-02T19:30:51Z</time></trkpt><trkpt lat="45.661586557653955" lon="12.508375976521522"><ele>4.0</ele><time>2026-05-02T19:30:52Z</time></trkpt><trkpt lat="45.66139742437686" lon="12.5079690924086"><ele>4.0</ele><time>2026-05-02T19:30:53Z</time></trkpt><trkpt lat="45.66120791227631" lon="12.507568346363938"><ele>4.0</ele><time>2026-05-02T19:30:54Z</time></trkpt><trkpt lat="45.661016383274166" lon="12.507165913887405"><ele>4.0</ele><time>2026-05-02T19:30:55Z</time></trkpt><trkpt lat="45.660826744471926" lon="12.50676537482939"><ele>4.0</ele><time>2026-05-02T19:30:56Z</time></trkpt><trkpt lat="45.66063628276891" lon="12.506364653892"><ele>4.0</ele><time>2026-05-02T19:30:57Z</time></trkpt><trkpt lat="45.66044668834771" lon="12.505958979930687"><ele>4.0</ele><time>2026-05-02T19:30:58Z</time></trkpt><trkpt lat="45.660256675403346" lon="12.505552341051986"><ele>4.0</ele><time>2026-05-02T19:30:59Z</time></trkpt><trkpt lat="45.66006845606719" lon="12.505149522447951"><ele>4.0</ele><time>2026-05-02T19:31:00Z</time></trkpt><trkpt lat="45.659880461464404" lon="12.504745826625728"><ele>4.0</ele><time>2026-05-02T19:31:01Z</time></trkpt><trkpt lat="45.6596953331348" lon="12.504338571876577"><ele>4.0</ele><time>2026-05-02T19:31:02Z</time></trkpt><trkpt lat="45.65951661784155" lon="12.503931234083764"><ele>4.0</ele><time>2026-05-02T19:31:03Z</time></trkpt><trkpt lat="45.65933764047549" lon="12.503520963242277"><ele>3.5</ele><time>2026-05-02T19:31:04Z</time></trkpt><trkpt lat="45.659163350884015" lon="12.5031078527164"><ele>3.0</ele><time>2026-05-02T19:31:05Z</time></trkpt><trkpt lat="45.65898900756686" lon="12.502691321264209"><ele>3.0</ele><time>2026-05-02T19:31:06Z</time></trkpt><trkpt lat="45.65881926783084" lon="12.502273562098486"><ele>3.0</ele><time>2026-05-02T19:31:07Z</time></trkpt><trkpt lat="45.65864844071513" lon="12.501854564281501"><ele>2.5</ele><time>2026-05-02T19:31:08Z</time></trkpt><trkpt lat="45.6584747216463" lon="12.501438564557896"><ele>2.0</ele><time>2026-05-02T19:31:09Z</time></trkpt><trkpt lat="45.65829813053703" lon="12.501023149803242"><ele>2.0</ele><time>2026-05-02T19:31:10Z</time></trkpt><trkpt lat="45.658123048068596" lon="12.500606884944172"><ele>2.0</ele><time>2026-05-02T19:31:11Z</time></trkpt><trkpt lat="45.657947862328996" lon="12.500187264803218"><ele>1.5</ele><time>2026-05-02T19:31:12Z</time></trkpt><trkpt lat="45.65777245105494" lon="12.499770709004345"><ele>1.0</ele><time>2026-05-02T19:31:13Z</time></trkpt><trkpt lat="45.657596028447706" lon="12.499355696978593"><ele>1.0</ele><time>2026-05-02T19:31:14Z</time></trkpt><trkpt lat="45.65741630856046" lon="12.498940082049412"><ele>1.0</ele><time>2026-05-02T19:31:15Z</time></trkpt><trkpt lat="45.65723754576123" lon="12.498531584227392"><ele>1.5</ele><time>2026-05-02T19:31:16Z</time></trkpt><trkpt lat="45.657056179357944" lon="12.49811596219766"><ele>2.0</ele><time>2026-05-02T19:31:17Z</time></trkpt><trkpt lat="45.656877866195316" lon="12.497697142214944"><ele>2.0</ele><time>2026-05-02T19:31:18Z</time></trkpt><trkpt lat="45.656702328300575" lon="12.497279818348336"><ele>2.0</ele><time>2026-05-02T19:31:19Z</time></trkpt><trkpt lat="45.65652663768116" lon="12.496863179927617"><ele>2.5</ele><time>2026-05-02T19:31:20Z</time></trkpt><trkpt lat="45.65635221222938" lon="12.496447064570859"><ele>3.0</ele><time>2026-05-02T19:31:21Z</time></trkpt><trkpt lat="45.65617455338167" lon="12.496029208066457"><ele>3.0</ele><time>2026-05-02T19:31:22Z</time></trkpt><trkpt lat="45.655998870051874" lon="12.495613080918439"><ele>3.0</ele><time>2026-05-02T19:31:23Z</time></trkpt><trkpt lat="45.655820894651114" lon="12.495195237894567"><ele>3.0</ele><time>2026-05-02T19:31:24Z</time></trkpt><trkpt lat="45.65564360596713" lon="12.494780999833898"><ele>3.0</ele><time>2026-05-02T19:31:25Z</time></trkpt><trkpt lat="45.6554667286824" lon="12.494364796676773"><ele>2.5</ele><time>2026-05-02T19:31:26Z</time></trkpt><trkpt lat="45.655285971315266" lon="12.49394808618963"><ele>2.0</ele><time>2026-05-02T19:31:27Z</time></trkpt><trkpt lat="45.65510947634233" lon="12.493531851421531"><ele>2.0</ele><time>2026-05-02T19:31:28Z</time></trkpt><trkpt lat="45.654935275488654" lon="12.493117647558027"><ele>2.0</ele><time>2026-05-02T19:31:29Z</time></trkpt><trkpt lat="45.65475761099284" lon="12.492699456551911"><ele>2.0</ele><time>2026-05-02T19:31:30Z</time></trkpt><trkpt lat="45.65458038888732" lon="12.49228204252372"><ele>2.0</ele><time>2026-05-02T19:31:31Z</time></trkpt><trkpt lat="45.65440297855778" lon="12.491864329612447"><ele>2.0</ele><time>2026-05-02T19:31:32Z</time></trkpt><trkpt lat="45.65422914009828" lon="12.491445792536478"><ele>2.0</ele><time>2026-05-02T19:31:33Z</time></trkpt><trkpt lat="45.65405270837652" lon="12.491030417538273"><ele>2.0</ele><time>2026-05-02T19:31:34Z</time></trkpt><trkpt lat="45.65387610715842" lon="12.490616637426154"><ele>2.0</ele><time>2026-05-02T19:31:35Z</time></trkpt><trkpt lat="45.653700900847966" lon="12.490199614211182"><ele>2.0</ele><time>2026-05-02T19:31:36Z</time></trkpt><trkpt lat="45.65352530838728" lon="12.489782105721018"><ele>2.0</ele><time>2026-05-02T19:31:37Z</time></trkpt><trkpt lat="45.653350405239344" lon="12.48936539212704"><ele>2.0</ele><time>2026-05-02T19:31:38Z</time></trkpt><trkpt lat="45.65317373450575" lon="12.488950876462914"><ele>2.0</ele><time>2026-05-02T19:31:39Z</time></trkpt><trkpt lat="45.65299450818991" lon="12.488536940598152"><ele>2.0</ele><time>2026-05-02T19:31:40Z</time></trkpt><trkpt lat="45.652813799413785" lon="12.488125086369426"><ele>2.0</ele><time>2026-05-02T19:31:41Z</time></trkpt><trkpt lat="45.65263009757006" lon="12.487710701275908"><ele>2.0</ele><time>2026-05-02T19:31:42Z</time></trkpt><trkpt lat="45.65244986699343" lon="12.48729871681653"><ele>2.0</ele><time>2026-05-02T19:31:43Z</time></trkpt><trkpt lat="45.652269347392284" lon="12.486883443345233"><ele>2.0</ele><time>2026-05-02T19:31:44Z</time></trkpt><trkpt lat="45.652089914195784" lon="12.486466584426203"><ele>2.0</ele><time>2026-05-02T19:31:45Z</time></trkpt><trkpt lat="45.65191475987762" lon="12.486052564675807"><ele>2.0</ele><time>2026-05-02T19:31:46Z</time></trkpt><trkpt lat="45.6517362971491" lon="12.48563633041246"><ele>2.0</ele><time>2026-05-02T19:31:47Z</time></trkpt><trkpt lat="45.65156033629105" lon="12.485220176230005"><ele>2.5</ele><time>2026-05-02T19:31:48Z</time></trkpt><trkpt lat="45.65138375596031" lon="12.4848041773103"><ele>3.0</ele><time>2026-05-02T19:31:49Z</time></trkpt><trkpt lat="45.65120713761729" lon="12.484388299051462"><ele>2.0</ele><time>2026-05-02T19:31:50Z</time></trkpt><trkpt lat="45.651032506419135" lon="12.483975073785958"><ele>1.0</ele><time>2026-05-02T19:31:51Z</time></trkpt><trkpt lat="45.65085640987081" lon="12.483559822901388"><ele>1.0</ele><time>2026-05-02T19:31:52Z</time></trkpt><trkpt lat="45.65068051507996" lon="12.48314338564221"><ele>1.0</ele><time>2026-05-02T19:31:53Z</time></trkpt><trkpt lat="45.650503347149865" lon="12.482727371055333"><ele>1.5</ele><time>2026-05-02T19:31:54Z</time></trkpt><trkpt lat="45.65032693712429" lon="12.482313839924334"><ele>2.0</ele><time>2026-05-02T19:31:55Z</time></trkpt><trkpt lat="45.65014997516449" lon="12.481897269975555"><ele>2.0</ele><time>2026-05-02T19:31:56Z</time></trkpt><trkpt lat="45.649972446720824" lon="12.481483692017145"><ele>2.0</ele><time>2026-05-02T19:31:57Z</time></trkpt><trkpt lat="45.64979026416005" lon="12.481072480289921"><ele>2.0</ele><time>2026-05-02T19:31:58Z</time></trkpt><trkpt lat="45.6496032951385" lon="12.48066373608275"><ele>2.0</ele><time>2026-05-02T19:31:59Z</time></trkpt><trkpt lat="45.64941382188368" lon="12.480257320449775"><ele>2.5</ele><time>2026-05-02T19:32:00Z</time></trkpt><trkpt lat="45.64922372015807" lon="12.479852564970866"><ele>3.0</ele><time>2026-05-02T19:32:01Z</time></trkpt><trkpt lat="45.64903391925115" lon="12.479447717979914"><ele>3.0</ele><time>2026-05-02T19:32:02Z</time></trkpt><trkpt lat="45.64884239417208" lon="12.479045820827777"><ele>3.0</ele><time>2026-05-02T19:32:03Z</time></trkpt><trkpt lat="45.6486480441114" lon="12.478646203572612"><ele>3.5</ele><time>2026-05-02T19:32:04Z</time></trkpt><trkpt lat="45.64845504906732" lon="12.478249096441576"><ele>4.0</ele><time>2026-05-02T19:32:05Z</time></trkpt><trkpt lat="45.6482551823325" lon="12.477852750375625"><ele>3.0</ele><time>2026-05-02T19:32:06Z</time></trkpt><trkpt lat="45.648055035889456" lon="12.47746098969107"><ele>2.0</ele><time>2026-05-02T19:32:07Z</time></trkpt><trkpt lat="45.64785012722538" lon="12.47706925889875"><ele>2.5</ele><time>2026-05-02T19:32:08Z</time></trkpt><trkpt lat="45.64764530847233" lon="12.476681322395017"><ele>3.0</ele><time>2026-05-02T19:32:09Z</time></trkpt><trkpt lat="45.64743770755159" lon="12.476293073042404"><ele>3.0</ele><time>2026-05-02T19:32:10Z</time></trkpt><trkpt lat="45.647230943789005" lon="12.475908746149877"><ele>3.0</ele><time>2026-05-02T19:32:11Z</time></trkpt><trkpt lat="45.64702147909795" lon="12.475526108767204"><ele>3.5</ele><time>2026-05-02T19:32:12Z</time></trkpt><trkpt lat="45.64680796553723" lon="12.475145328346407"><ele>4.0</ele><time>2026-05-02T19:32:13Z</time></trkpt><trkpt lat="45.646595263747194" lon="12.474764171068596"><ele>3.5</ele><time>2026-05-02T19:32:14Z</time></trkpt><trkpt lat="45.646382849685075" lon="12.474383323562208"><ele>3.0</ele><time>2026-05-02T19:32:15Z</time></trkpt><trkpt lat="45.64617340272898" lon="12.47400058217361"><ele>1.5</ele><time>2026-05-02T19:32:16Z</time></trkpt><trkpt lat="45.64596552673868" lon="12.473618248465524"><ele>0.0</ele><time>2026-05-02T19:32:17Z</time></trkpt><trkpt lat="45.6457559553357" lon="12.473235421774167"><ele>0.5</ele><time>2026-05-02T19:32:18Z</time></trkpt><trkpt lat="45.6455462554422" lon="12.472852077583369"><ele>1.0</ele><time>2026-05-02T19:32:19Z</time></trkpt><trkpt lat="45.64533274919277" lon="12.472472263731273"><ele>0.5</ele><time>2026-05-02T19:32:20Z</time></trkpt><trkpt lat="45.64511944897978" lon="12.472092138610481"><ele>0.0</ele><time>2026-05-02T19:32:21Z</time></trkpt><trkpt lat="45.64490867948231" lon="12.471713658070696"><ele>0.0</ele><time>2026-05-02T19:32:22Z</time></trkpt><trkpt lat="45.644695391356535" lon="12.471331283009008"><ele>0.0</ele><time>2026-05-02T19:32:23Z</time></trkpt><trkpt lat="45.64448335936189" lon="12.470947749741574"><ele>0.0</ele><time>2026-05-02T19:32:24Z</time></trkpt><trkpt lat="45.64427256222436" lon="12.470565027884403"><ele>0.0</ele><time>2026-05-02T19:32:25Z</time></trkpt><trkpt lat="45.64405784285365" lon="12.470185862243506"><ele>0.0</ele><time>2026-05-02T19:32:26Z</time></trkpt><trkpt lat="45.64384476685604" lon="12.469804341451608"><ele>0.0</ele><time>2026-05-02T19:32:27Z</time></trkpt><trkpt lat="45.643632435048" lon="12.469419675211592"><ele>0.5</ele><time>2026-05-02T19:32:28Z</time></trkpt><trkpt lat="45.643422708739955" lon="12.469037364717261"><ele>1.0</ele><time>2026-05-02T19:32:29Z</time></trkpt><trkpt lat="45.643213208947905" lon="12.468659293547484"><ele>1.5</ele><time>2026-05-02T19:32:30Z</time></trkpt><trkpt lat="45.64299954466511" lon="12.468282603233673"><ele>2.0</ele><time>2026-05-02T19:32:31Z</time></trkpt><trkpt lat="45.64278607556373" lon="12.467902408156679"><ele>2.5</ele><time>2026-05-02T19:32:32Z</time></trkpt><trkpt lat="45.64257142835209" lon="12.46752036298494"><ele>3.0</ele><time>2026-05-02T19:32:33Z</time></trkpt><trkpt lat="45.642358290421804" lon="12.467139054101024"><ele>2.5</ele><time>2026-05-02T19:32:34Z</time></trkpt><trkpt lat="45.642148936746416" lon="12.466756776721116"><ele>2.0</ele><time>2026-05-02T19:32:35Z</time></trkpt><trkpt lat="45.64193944427369" lon="12.466372777888887"><ele>1.5</ele><time>2026-05-02T19:32:36Z</time></trkpt><trkpt lat="45.641725285950386" lon="12.465990729681312"><ele>1.0</ele><time>2026-05-02T19:32:37Z</time></trkpt><trkpt lat="45.641514443180334" lon="12.465609240007097"><ele>1.0</ele><time>2026-05-02T19:32:38Z</time></trkpt><trkpt lat="45.641297146241726" lon="12.465228708369288"><ele>1.0</ele><time>2026-05-02T19:32:39Z</time></trkpt><trkpt lat="45.64108549991797" lon="12.464850571262225"><ele>1.5</ele><time>2026-05-02T19:32:40Z</time></trkpt><trkpt lat="45.64087287487052" lon="12.464472080733175"><ele>2.0</ele><time>2026-05-02T19:32:41Z</time></trkpt><trkpt lat="45.64066179876521" lon="12.464090566475164"><ele>2.0</ele><time>2026-05-02T19:32:42Z</time></trkpt><trkpt lat="45.640448322224906" lon="12.463706443488691"><ele>2.0</ele><time>2026-05-02T19:32:43Z</time></trkpt><trkpt lat="45.640237196421374" lon="12.463324267770263"><ele>1.5</ele><time>2026-05-02T19:32:44Z</time></trkpt><trkpt lat="45.6400237755153" lon="12.462938843209828"><ele>1.0</ele><time>2026-05-02T19:32:45Z</time></trkpt><trkpt lat="45.63981083575258" lon="12.462556469335526"><ele>1.0</ele><time>2026-05-02T19:32:46Z</time></trkpt><trkpt lat="45.639599346251806" lon="12.462176809254059"><ele>1.0</ele><time>2026-05-02T19:32:47Z</time></trkpt><trkpt lat="45.6393860636816" lon="12.461796329350884"><ele>1.5</ele><time>2026-05-02T19:32:48Z</time></trkpt><trkpt lat="45.63917376565562" lon="12.461414041215239"><ele>2.0</ele><time>2026-05-02T19:32:49Z</time></trkpt><trkpt lat="45.63895984307852" lon="12.461032439337695"><ele>2.0</ele><time>2026-05-02T19:32:50Z</time></trkpt><trkpt lat="45.63874749102623" lon="12.460652373192808"><ele>2.0</ele><time>2026-05-02T19:32:51Z</time></trkpt><trkpt lat="45.63853625227977" lon="12.460271766626052"><ele>1.0</ele><time>2026-05-02T19:32:52Z</time></trkpt><trkpt lat="45.63832546097823" lon="12.459890418554773"><ele>0.0</ele><time>2026-05-02T19:32:53Z</time></trkpt><trkpt lat="45.63811391310598" lon="12.459509453257184"><ele>0.0</ele><time>2026-05-02T19:32:54Z</time></trkpt><trkpt lat="45.63790026642396" lon="12.45912857420512"><ele>0.0</ele><time>2026-05-02T19:32:55Z</time></trkpt><trkpt lat="45.63768655813575" lon="12.458750281029133"><ele>0.0</ele><time>2026-05-02T19:32:56Z</time></trkpt><trkpt lat="45.63747526124691" lon="12.458369183141622"><ele>0.0</ele><time>2026-05-02T19:32:57Z</time></trkpt><trkpt lat="45.63726039077106" lon="12.457988903600608"><ele>0.0</ele><time>2026-05-02T19:32:58Z</time></trkpt><trkpt lat="45.637049015998166" lon="12.45761034500312"><ele>0.0</ele><time>2026-05-02T19:32:59Z</time></trkpt><trkpt lat="45.63683894054237" lon="12.457229633568655"><ele>0.5</ele><time>2026-05-02T19:33:00Z</time></trkpt><trkpt lat="45.63662843495544" lon="12.456845360269078"><ele>1.0</ele><time>2026-05-02T19:33:01Z</time></trkpt><trkpt lat="45.63642011661198" lon="12.456463601624812"><ele>0.5</ele><time>2026-05-02T19:33:02Z</time></trkpt><trkpt lat="45.63621071696478" lon="12.456082705011022"><ele>0.0</ele><time>2026-05-02T19:33:03Z</time></trkpt><trkpt lat="45.63599661118571" lon="12.455704067604627"><ele>0.5</ele><time>2026-05-02T19:33:04Z</time></trkpt><trkpt lat="45.635780581901145" lon="12.455323658693372"><ele>1.0</ele><time>2026-05-02T19:33:05Z</time></trkpt><trkpt lat="45.63556950042608" lon="12.454944257155944"><ele>1.0</ele><time>2026-05-02T19:33:06Z</time></trkpt><trkpt lat="45.6353595618701" lon="12.454565349721948"><ele>1.0</ele><time>2026-05-02T19:33:07Z</time></trkpt><trkpt lat="45.635149533324324" lon="12.45418455880672"><ele>1.0</ele><time>2026-05-02T19:33:08Z</time></trkpt><trkpt lat="45.63494086063885" lon="12.453803983821567"><ele>1.0</ele><time>2026-05-02T19:33:09Z</time></trkpt><trkpt lat="45.634727880471594" lon="12.453423030715394"><ele>1.0</ele><time>2026-05-02T19:33:10Z</time></trkpt><trkpt lat="45.63451852066598" lon="12.453040706364032"><ele>1.0</ele><time>2026-05-02T19:33:11Z</time></trkpt><trkpt lat="45.63430844393941" lon="12.452657602810312"><ele>2.0</ele><time>2026-05-02T19:33:12Z</time></trkpt><trkpt lat="45.634097209952316" lon="12.45227486144156"><ele>3.0</ele><time>2026-05-02T19:33:13Z</time></trkpt><trkpt lat="45.63388400584365" lon="12.451893866815686"><ele>3.0</ele><time>2026-05-02T19:33:14Z</time></trkpt><trkpt lat="45.63367142489639" lon="12.45151272470746"><ele>3.0</ele><time>2026-05-02T19:33:15Z</time></trkpt><trkpt lat="45.63346075238944" lon="12.451131777739684"><ele>3.0</ele><time>2026-05-02T19:33:16Z</time></trkpt><trkpt lat="45.63325033044465" lon="12.450749656253855"><ele>3.0</ele><time>2026-05-02T19:33:17Z</time></trkpt><trkpt lat="45.6330413292676" lon="12.450366069193727"><ele>3.5</ele><time>2026-05-02T19:33:18Z</time></trkpt><trkpt lat="45.63283376835914" lon="12.449982662146322"><ele>4.0</ele><time>2026-05-02T19:33:19Z</time></trkpt><trkpt lat="45.632627500220465" lon="12.4495941550918"><ele>4.0</ele><time>2026-05-02T19:33:20Z</time></trkpt><trkpt lat="45.63242565743204" lon="12.449204381806076"><ele>4.0</ele><time>2026-05-02T19:33:21Z</time></trkpt><trkpt lat="45.63222397199987" lon="12.448813319786664"><ele>4.5</ele><time>2026-05-02T19:33:22Z</time></trkpt><trkpt lat="45.63202208621236" lon="12.448418117629776"><ele>5.0</ele><time>2026-05-02T19:33:23Z</time></trkpt><trkpt lat="45.63182183906318" lon="12.448025715355286"><ele>4.5</ele><time>2026-05-02T19:33:24Z</time></trkpt><trkpt lat="45.63162380742748" lon="12.447631251329511"><ele>4.0</ele><time>2026-05-02T19:33:25Z</time></trkpt><trkpt lat="45.63142777847777" lon="12.44723470383827"><ele>4.0</ele><time>2026-05-02T19:33:26Z</time></trkpt><trkpt lat="45.631234135970935" lon="12.446834889842915"><ele>4.0</ele><time>2026-05-02T19:33:27Z</time></trkpt><trkpt lat="45.63104074803816" lon="12.446433413084847"><ele>3.5</ele><time>2026-05-02T19:33:28Z</time></trkpt><trkpt lat="45.63085036011119" lon="12.446029897691297"><ele>3.0</ele><time>2026-05-02T19:33:29Z</time></trkpt><trkpt lat="45.630660271736694" lon="12.445627757758764"><ele>3.0</ele><time>2026-05-02T19:33:30Z</time></trkpt><trkpt lat="45.630473811420885" lon="12.445220784330493"><ele>3.0</ele><time>2026-05-02T19:33:31Z</time></trkpt><trkpt lat="45.63028923949993" lon="12.444809362191291"><ele>2.0</ele><time>2026-05-02T19:33:32Z</time></trkpt><trkpt lat="45.630107706342436" lon="12.444401143542303"><ele>1.0</ele><time>2026-05-02T19:33:33Z</time></trkpt><trkpt lat="45.62992331590832" lon="12.443995806757133"><ele>1.0</ele><time>2026-05-02T19:33:34Z</time></trkpt><trkpt lat="45.629733881685496" lon="12.443588982878675"><ele>1.0</ele><time>2026-05-02T19:33:35Z</time></trkpt><trkpt lat="45.62954503822897" lon="12.443183890193803"><ele>1.0</ele><time>2026-05-02T19:33:36Z</time></trkpt><trkpt lat="45.62935353644862" lon="12.44277917480534"><ele>1.0</ele><time>2026-05-02T19:33:37Z</time></trkpt><trkpt lat="45.62916371774909" lon="12.442373695218615"><ele>0.5</ele><time>2026-05-02T19:33:38Z</time></trkpt><trkpt lat="45.62897911500443" lon="12.441969771986393"><ele>0.0</ele><time>2026-05-02T19:33:39Z</time></trkpt><trkpt lat="45.62879244035767" lon="12.44156348469933"><ele>0.5</ele><time>2026-05-02T19:33:40Z</time></trkpt><trkpt lat="45.62861035076164" lon="12.441159363266554"><ele>1.0</ele><time>2026-05-02T19:33:41Z</time></trkpt><trkpt lat="45.62842759006966" lon="12.440750797551539"><ele>0.5</ele><time>2026-05-02T19:33:42Z</time></trkpt><trkpt lat="45.62824342626115" lon="12.440341421019646"><ele>0.0</ele><time>2026-05-02T19:33:43Z</time></trkpt><trkpt lat="45.62805843491512" lon="12.43993500563717"><ele>-0.5</ele><time>2026-05-02T19:33:44Z</time></trkpt><trkpt lat="45.627870952151575" lon="12.439528930869233"><ele>-1.0</ele><time>2026-05-02T19:33:45Z</time></trkpt><trkpt lat="45.62768463771471" lon="12.439124114483409"><ele>0.0</ele><time>2026-05-02T19:33:46Z</time></trkpt><trkpt lat="45.62750021781754" lon="12.438717169336012"><ele>1.0</ele><time>2026-05-02T19:33:47Z</time></trkpt><trkpt lat="45.62731335717854" lon="12.438309734999365"><ele>1.5</ele><time>2026-05-02T19:33:48Z</time></trkpt><trkpt lat="45.62712481210532" lon="12.437903594609239"><ele>2.0</ele><time>2026-05-02T19:33:49Z</time></trkpt><trkpt lat="45.626937914691005" lon="12.437496606357483"><ele>2.5</ele><time>2026-05-02T19:33:50Z</time></trkpt><trkpt lat="45.62674966291143" lon="12.437090414544635"><ele>3.0</ele><time>2026-05-02T19:33:51Z</time></trkpt><trkpt lat="45.62656221747425" lon="12.436683261394188"><ele>2.5</ele><time>2026-05-02T19:33:52Z</time></trkpt><trkpt lat="45.626374727682006" lon="12.436277802697202"><ele>2.0</ele><time>2026-05-02T19:33:53Z</time></trkpt><trkpt lat="45.62618894250968" lon="12.435868918523179"><ele>1.5</ele><time>2026-05-02T19:33:54Z</time></trkpt><trkpt lat="45.62600403039958" lon="12.435461835302968"><ele>1.0</ele><time>2026-05-02T19:33:55Z</time></trkpt><trkpt lat="45.62581954654447" lon="12.435052468663912"><ele>1.0</ele><time>2026-05-02T19:33:56Z</time></trkpt><trkpt lat="45.625636606663214" lon="12.43464415797543"><ele>1.0</ele><time>2026-05-02T19:33:57Z</time></trkpt><trkpt lat="45.6254510440707" lon="12.434234156188479"><ele>2.5</ele><time>2026-05-02T19:33:58Z</time></trkpt><trkpt lat="45.625267678621285" lon="12.433827537384976"><ele>4.0</ele><time>2026-05-02T19:33:59Z</time></trkpt><trkpt lat="45.625083923761295" lon="12.433417805565899"><ele>4.5</ele><time>2026-05-02T19:34:00Z</time></trkpt><trkpt lat="45.62489887258134" lon="12.433005872704394"><ele>5.0</ele><time>2026-05-02T19:34:01Z</time></trkpt><trkpt lat="45.6247121633654" lon="12.432595041684616"><ele>5.0</ele><time>2026-05-02T19:34:02Z</time></trkpt><trkpt lat="45.624527591387206" lon="12.432184383900026"><ele>5.0</ele><time>2026-05-02T19:34:03Z</time></trkpt><trkpt lat="45.62434347109927" lon="12.431773484419265"><ele>4.0</ele><time>2026-05-02T19:34:04Z</time></trkpt><trkpt lat="45.624158225306886" lon="12.431363772322664"><ele>3.0</ele><time>2026-05-02T19:34:05Z</time></trkpt><trkpt lat="45.62397026907217" lon="12.430953147085587"><ele>2.0</ele><time>2026-05-02T19:34:06Z</time></trkpt><trkpt lat="45.62378466118045" lon="12.430546608653374"><ele>1.0</ele><time>2026-05-02T19:34:07Z</time></trkpt><trkpt lat="45.62359978402951" lon="12.430139959912795"><ele>1.0</ele><time>2026-05-02T19:34:08Z</time></trkpt><trkpt lat="45.623416263019834" lon="12.429737499523018"><ele>1.0</ele><time>2026-05-02T19:34:09Z</time></trkpt><trkpt lat="45.62323213301621" lon="12.429335023664839"><ele>1.5</ele><time>2026-05-02T19:34:10Z</time></trkpt><trkpt lat="45.62304555000235" lon="12.428932416124745"><ele>2.0</ele><time>2026-05-02T19:34:11Z</time></trkpt><trkpt lat="45.62285703389209" lon="12.428525069932068"><ele>2.0</ele><time>2026-05-02T19:34:12Z</time></trkpt><trkpt lat="45.62267109736003" lon="12.428117219264244"><ele>2.0</ele><time>2026-05-02T19:34:13Z</time></trkpt><trkpt lat="45.62248676881896" lon="12.427707107686096"><ele>2.0</ele><time>2026-05-02T19:34:14Z</time></trkpt><trkpt lat="45.622300205986484" lon="12.427300112783225"><ele>2.0</ele><time>2026-05-02T19:34:15Z</time></trkpt><trkpt lat="45.622115611201735" lon="12.426892630754317"><ele>2.0</ele><time>2026-05-02T19:34:16Z</time></trkpt><trkpt lat="45.621930656509676" lon="12.426483443845829"><ele>2.0</ele><time>2026-05-02T19:34:17Z</time></trkpt><trkpt lat="45.6217449981852" lon="12.426077622660328"><ele>2.0</ele><time>2026-05-02T19:34:18Z</time></trkpt><trkpt lat="45.621561457500455" lon="12.425669988597681"><ele>2.0</ele><time>2026-05-02T19:34:19Z</time></trkpt><trkpt lat="45.62137282648496" lon="12.425261433014795"><ele>2.0</ele><time>2026-05-02T19:34:20Z</time></trkpt><trkpt lat="45.6211854772341" lon="12.42485578016508"><ele>2.0</ele><time>2026-05-02T19:34:21Z</time></trkpt><trkpt lat="45.62099958341344" lon="12.424449914928367"><ele>2.5</ele><time>2026-05-02T19:34:22Z</time></trkpt><trkpt lat="45.62081290787753" lon="12.424041915684908"><ele>3.0</ele><time>2026-05-02T19:34:23Z</time></trkpt><trkpt lat="45.62062680292306" lon="12.423631743806931"><ele>3.5</ele><time>2026-05-02T19:34:24Z</time></trkpt><trkpt lat="45.620442326697564" lon="12.423223102145359"><ele>4.0</ele><time>2026-05-02T19:34:25Z</time></trkpt><trkpt lat="45.62025395962167" lon="12.422813441436354"><ele>4.0</ele><time>2026-05-02T19:34:26Z</time></trkpt><trkpt lat="45.62006753272446" lon="12.422405626744142"><ele>4.0</ele><time>2026-05-02T19:34:27Z</time></trkpt><trkpt lat="45.619881342724135" lon="12.42199701658765"><ele>4.0</ele><time>2026-05-02T19:34:28Z</time></trkpt><trkpt lat="45.61969635870649" lon="12.421593507672332"><ele>4.0</ele><time>2026-05-02T19:34:29Z</time></trkpt><trkpt lat="45.619509697822416" lon="12.421185323172384"><ele>4.5</ele><time>2026-05-02T19:34:30Z</time></trkpt><trkpt lat="45.61931886693271" lon="12.420776993165292"><ele>5.0</ele><time>2026-05-02T19:34:31Z</time></trkpt><trkpt lat="45.61913064566896" lon="12.420367303125191"><ele>5.5</ele><time>2026-05-02T19:34:32Z</time></trkpt><trkpt lat="45.61894302537599" lon="12.419960090212141"><ele>6.0</ele><time>2026-05-02T19:34:33Z</time></trkpt><trkpt lat="45.61875632627609" lon="12.419554276362282"><ele>5.0</ele><time>2026-05-02T19:34:34Z</time></trkpt><trkpt lat="45.61857077101353" lon="12.419147477584334"><ele>4.0</ele><time>2026-05-02T19:34:35Z</time></trkpt><trkpt lat="45.618384376228676" lon="12.41873972548348"><ele>4.0</ele><time>2026-05-02T19:34:36Z</time></trkpt><trkpt lat="45.618197788674344" lon="12.418333133987828"><ele>4.0</ele><time>2026-05-02T19:34:37Z</time></trkpt><trkpt lat="45.61801265680977" lon="12.417925898964103"><ele>4.5</ele><time>2026-05-02T19:34:38Z</time></trkpt><trkpt lat="45.61782633141262" lon="12.417515020571843"><ele>5.0</ele><time>2026-05-02T19:34:39Z</time></trkpt><trkpt lat="45.617640527638045" lon="12.417106384418139"><ele>4.0</ele><time>2026-05-02T19:34:40Z</time></trkpt><trkpt lat="45.617450627304905" lon="12.416698420626807"><ele>3.0</ele><time>2026-05-02T19:34:41Z</time></trkpt><trkpt lat="45.617259210906845" lon="12.416292255912694"><ele>3.0</ele><time>2026-05-02T19:34:42Z</time></trkpt><trkpt lat="45.61706732266212" lon="12.415891360457037"><ele>3.0</ele><time>2026-05-02T19:34:43Z</time></trkpt><trkpt lat="45.61687231176925" lon="12.415491546900496"><ele>3.0</ele><time>2026-05-02T19:34:44Z</time></trkpt><trkpt lat="45.61667605373811" lon="12.415092221173998"><ele>3.0</ele><time>2026-05-02T19:34:45Z</time></trkpt><trkpt lat="45.61647941013" lon="12.414693268931462"><ele>3.0</ele><time>2026-05-02T19:34:46Z</time></trkpt><trkpt lat="45.61628160846495" lon="12.414296634340637"><ele>3.0</ele><time>2026-05-02T19:34:47Z</time></trkpt><trkpt lat="45.61608332678426" lon="12.413900608959437"><ele>3.0</ele><time>2026-05-02T19:34:48Z</time></trkpt><trkpt lat="45.61588135106988" lon="12.413509506602438"><ele>3.0</ele><time>2026-05-02T19:34:49Z</time></trkpt><trkpt lat="45.61567514805286" lon="12.413121812620618"><ele>2.5</ele><time>2026-05-02T19:34:50Z</time></trkpt><trkpt lat="45.615469420841706" lon="12.412738164217572"><ele>2.0</ele><time>2026-05-02T19:34:51Z</time></trkpt><trkpt lat="45.61526413211957" lon="12.412352243232002"><ele>1.5</ele><time>2026-05-02T19:34:52Z</time></trkpt><trkpt lat="45.61505465260361" lon="12.411967728140034"><ele>1.0</ele><time>2026-05-02T19:34:53Z</time></trkpt><trkpt lat="45.61484368290121" lon="12.41158175972925"><ele>0.5</ele><time>2026-05-02T19:34:54Z</time></trkpt><trkpt lat="45.61462901435225" lon="12.411198758056273"><ele>0.0</ele><time>2026-05-02T19:34:55Z</time></trkpt><trkpt lat="45.61441943992825" lon="12.410818619964058"><ele>0.5</ele><time>2026-05-02T19:34:56Z</time></trkpt><trkpt lat="45.61420823421239" lon="12.410436163656339"><ele>1.0</ele><time>2026-05-02T19:34:57Z</time></trkpt><trkpt lat="45.61399955389564" lon="12.410051965321289"><ele>1.0</ele><time>2026-05-02T19:34:58Z</time></trkpt><trkpt lat="45.61378797854921" lon="12.409672763342593"><ele>1.0</ele><time>2026-05-02T19:34:59Z</time></trkpt><trkpt lat="45.61357559721427" lon="12.40928988257219"><ele>1.5</ele><time>2026-05-02T19:35:00Z</time></trkpt><trkpt lat="45.613366028186626" lon="12.40890813801108"><ele>2.0</ele><time>2026-05-02T19:35:01Z</time></trkpt><trkpt lat="45.61315639014863" lon="12.408525810237412"><ele>2.0</ele><time>2026-05-02T19:35:02Z</time></trkpt><trkpt lat="45.61294473862432" lon="12.408145139161892"><ele>2.0</ele><time>2026-05-02T19:35:03Z</time></trkpt><trkpt lat="45.612728861371565" lon="12.407763556105449"><ele>2.0</ele><time>2026-05-02T19:35:04Z</time></trkpt><trkpt lat="45.61251296212646" lon="12.407385015525847"><ele>2.0</ele><time>2026-05-02T19:35:05Z</time></trkpt><trkpt lat="45.612298399745505" lon="12.407008054237174"><ele>2.5</ele><time>2026-05-02T19:35:06Z</time></trkpt><trkpt lat="45.612087523232915" lon="12.406629683849275"><ele>3.0</ele><time>2026-05-02T19:35:07Z</time></trkpt><trkpt lat="45.61187674016109" lon="12.406249089008407"><ele>3.0</ele><time>2026-05-02T19:35:08Z</time></trkpt><trkpt lat="45.6116684891793" lon="12.405864614395858"><ele>3.0</ele><time>2026-05-02T19:35:09Z</time></trkpt><trkpt lat="45.61145911970343" lon="12.405483228728498"><ele>3.0</ele><time>2026-05-02T19:35:10Z</time></trkpt><trkpt lat="45.61124976474592" lon="12.405102360934466"><ele>3.0</ele><time>2026-05-02T19:35:11Z</time></trkpt><trkpt lat="45.61103747266324" lon="12.404720282006751"><ele>3.5</ele><time>2026-05-02T19:35:12Z</time></trkpt><trkpt lat="45.610825261225465" lon="12.404338391695413"><ele>4.0</ele><time>2026-05-02T19:35:13Z</time></trkpt><trkpt lat="45.61061429248229" lon="12.40395470678905"><ele>3.5</ele><time>2026-05-02T19:35:14Z</time></trkpt><trkpt lat="45.610399644620635" lon="12.403573335001237"><ele>3.0</ele><time>2026-05-02T19:35:15Z</time></trkpt><trkpt lat="45.61018791425812" lon="12.403188390594453"><ele>3.0</ele><time>2026-05-02T19:35:16Z</time></trkpt><trkpt lat="45.609979021300454" lon="12.402807435155452"><ele>3.0</ele><time>2026-05-02T19:35:17Z</time></trkpt><trkpt lat="45.60977162756657" lon="12.402428185282387"><ele>3.0</ele><time>2026-05-02T19:35:18Z</time></trkpt><trkpt lat="45.60955775855971" lon="12.40204770033863"><ele>3.0</ele><time>2026-05-02T19:35:19Z</time></trkpt><trkpt lat="45.609347184446825" lon="12.401670073482347"><ele>2.5</ele><time>2026-05-02T19:35:20Z</time></trkpt><trkpt lat="45.60913452685021" lon="12.401288155033905"><ele>2.0</ele><time>2026-05-02T19:35:21Z</time></trkpt><trkpt lat="45.6089233841165" lon="12.400905326112223"><ele>2.0</ele><time>2026-05-02T19:35:22Z</time></trkpt><trkpt lat="45.60871194398224" lon="12.400523230608028"><ele>2.0</ele><time>2026-05-02T19:35:23Z</time></trkpt><trkpt lat="45.608506204872924" lon="12.400143212369455"><ele>2.5</ele><time>2026-05-02T19:35:24Z</time></trkpt><trkpt lat="45.60829667049213" lon="12.39976048376112"><ele>3.0</ele><time>2026-05-02T19:35:25Z</time></trkpt><trkpt lat="45.6080875619416" lon="12.39937740050265"><ele>3.0</ele><time>2026-05-02T19:35:26Z</time></trkpt><trkpt lat="45.60787308098249" lon="12.398993983535062"><ele>3.0</ele><time>2026-05-02T19:35:27Z</time></trkpt><trkpt lat="45.60766056669788" lon="12.398611197314024"><ele>2.5</ele><time>2026-05-02T19:35:28Z</time></trkpt><trkpt lat="45.60745033271267" lon="12.398227729442343"><ele>2.0</ele><time>2026-05-02T19:35:29Z</time></trkpt><trkpt lat="45.60723818180905" lon="12.39784457144573"><ele>2.0</ele><time>2026-05-02T19:35:30Z</time></trkpt><trkpt lat="45.6070248518082" lon="12.39746342023575"><ele>2.0</ele><time>2026-05-02T19:35:31Z</time></trkpt><trkpt lat="45.60681372350153" lon="12.397082625516301"><ele>2.0</ele><time>2026-05-02T19:35:32Z</time></trkpt><trkpt lat="45.60659876392429" lon="12.396700250630456"><ele>2.0</ele><time>2026-05-02T19:35:33Z</time></trkpt><trkpt lat="45.60638555925296" lon="12.396322148350318"><ele>2.0</ele><time>2026-05-02T19:35:34Z</time></trkpt><trkpt lat="45.606175022291595" lon="12.395940745353965"><ele>2.0</ele><time>2026-05-02T19:35:35Z</time></trkpt><trkpt lat="45.605964179635016" lon="12.39555823906665"><ele>1.5</ele><time>2026-05-02T19:35:36Z</time></trkpt><trkpt lat="45.60575507752402" lon="12.395177775174453"><ele>1.0</ele><time>2026-05-02T19:35:37Z</time></trkpt><trkpt lat="45.605545636975144" lon="12.394793940193857"><ele>1.5</ele><time>2026-05-02T19:35:38Z</time></trkpt><trkpt lat="45.60533888751543" lon="12.394409280661606"><ele>2.0</ele><time>2026-05-02T19:35:39Z</time></trkpt><trkpt lat="45.60513120337657" lon="12.394022082852713"><ele>2.5</ele><time>2026-05-02T19:35:40Z</time></trkpt><trkpt lat="45.60492444930786" lon="12.393636673236925"><ele>3.0</ele><time>2026-05-02T19:35:41Z</time></trkpt><trkpt lat="45.60471401247462" lon="12.393246354451053"><ele>3.5</ele><time>2026-05-02T19:35:42Z</time></trkpt><trkpt lat="45.60450473202774" lon="12.392861433623949"><ele>4.0</ele><time>2026-05-02T19:35:43Z</time></trkpt><trkpt lat="45.604295359427645" lon="12.392478323975094"><ele>3.0</ele><time>2026-05-02T19:35:44Z</time></trkpt><trkpt lat="45.60408293902015" lon="12.392097463337326"><ele>2.0</ele><time>2026-05-02T19:35:45Z</time></trkpt><trkpt lat="45.603871232248856" lon="12.391717602693978"><ele>2.0</ele><time>2026-05-02T19:35:46Z</time></trkpt><trkpt lat="45.60365603128082" lon="12.39133361386417"><ele>2.0</ele><time>2026-05-02T19:35:47Z</time></trkpt><trkpt lat="45.603445044159464" lon="12.390954176990048"><ele>2.0</ele><time>2026-05-02T19:35:48Z</time></trkpt><trkpt lat="45.6032353419828" lon="12.390576311107887"><ele>2.0</ele><time>2026-05-02T19:35:49Z</time></trkpt><trkpt lat="45.60302151220089" lon="12.39019729130943"><ele>2.0</ele><time>2026-05-02T19:35:50Z</time></trkpt><trkpt lat="45.602807223926064" lon="12.389817259630872"><ele>2.0</ele><time>2026-05-02T19:35:51Z</time></trkpt><trkpt lat="45.60259982115987" lon="12.389434356872835"><ele>2.0</ele><time>2026-05-02T19:35:52Z</time></trkpt><trkpt lat="45.60239244841433" lon="12.389050375799444"><ele>2.0</ele><time>2026-05-02T19:35:53Z</time></trkpt><trkpt lat="45.602180478341765" lon="12.38867208468816"><ele>3.0</ele><time>2026-05-02T19:35:54Z</time></trkpt><trkpt lat="45.60197199490208" lon="12.388286812839839"><ele>4.0</ele><time>2026-05-02T19:35:55Z</time></trkpt><trkpt lat="45.6017598063928" lon="12.387907594739252"><ele>4.0</ele><time>2026-05-02T19:35:56Z</time></trkpt><trkpt lat="45.60154539210497" lon="12.387522525594536"><ele>4.0</ele><time>2026-05-02T19:35:57Z</time></trkpt><trkpt lat="45.601333408722226" lon="12.387139795134939"><ele>3.5</ele><time>2026-05-02T19:35:58Z</time></trkpt><trkpt lat="45.60112483145256" lon="12.38675677574294"><ele>3.0</ele><time>2026-05-02T19:35:59Z</time></trkpt><trkpt lat="45.60091330658974" lon="12.386376671918024"><ele>3.5</ele><time>2026-05-02T19:36:00Z</time></trkpt><trkpt lat="45.60070310383959" lon="12.38599571517394"><ele>4.0</ele><time>2026-05-02T19:36:01Z</time></trkpt><trkpt lat="45.60048943568238" lon="12.385616492285443"><ele>3.0</ele><time>2026-05-02T19:36:02Z</time></trkpt><trkpt lat="45.6002740057552" lon="12.38523730997678"><ele>2.0</ele><time>2026-05-02T19:36:03Z</time></trkpt><trkpt lat="45.60005886158542" lon="12.38486229638726"><ele>2.5</ele><time>2026-05-02T19:36:04Z</time></trkpt><trkpt lat="45.599840938849404" lon="12.384490783554062"><ele>3.0</ele><time>2026-05-02T19:36:05Z</time></trkpt><trkpt lat="45.59961899598194" lon="12.384117957183843"><ele>3.0</ele><time>2026-05-02T19:36:06Z</time></trkpt><trkpt lat="45.59939959881949" lon="12.383747987618019"><ele>3.0</ele><time>2026-05-02T19:36:07Z</time></trkpt><trkpt lat="45.599176327173076" lon="12.383378582855439"><ele>2.5</ele><time>2026-05-02T19:36:08Z</time></trkpt><trkpt lat="45.59895454397505" lon="12.383011845038432"><ele>2.0</ele><time>2026-05-02T19:36:09Z</time></trkpt><trkpt lat="45.59873131111128" lon="12.382645543491794"><ele>2.0</ele><time>2026-05-02T19:36:10Z</time></trkpt><trkpt lat="45.5985077704936" lon="12.38228570116327"><ele>2.0</ele><time>2026-05-02T19:36:11Z</time></trkpt><trkpt lat="45.59827803917701" lon="12.381926766012526"><ele>2.0</ele><time>2026-05-02T19:36:12Z</time></trkpt><trkpt lat="45.59804565433147" lon="12.38156701769074"><ele>2.0</ele><time>2026-05-02T19:36:13Z</time></trkpt><trkpt lat="45.5978097690069" lon="12.381206125740707"><ele>2.0</ele><time>2026-05-02T19:36:14Z</time></trkpt><trkpt lat="45.597577551073506" lon="12.380849218512349"><ele>2.0</ele><time>2026-05-02T19:36:15Z</time></trkpt><trkpt lat="45.59734693986453" lon="12.380494724600558"><ele>2.0</ele><time>2026-05-02T19:36:16Z</time></trkpt><trkpt lat="45.59711169154482" lon="12.38014501341503"><ele>2.0</ele><time>2026-05-02T19:36:17Z</time></trkpt><trkpt lat="45.59687264983499" lon="12.379794004583397"><ele>2.5</ele><time>2026-05-02T19:36:18Z</time></trkpt><trkpt lat="45.59663076472861" lon="12.379446154778135"><ele>3.0</ele><time>2026-05-02T19:36:19Z</time></trkpt><trkpt lat="45.596392118238505" lon="12.379099521551824"><ele>2.5</ele><time>2026-05-02T19:36:20Z</time></trkpt><trkpt lat="45.5961531894788" lon="12.378752306977574"><ele>2.0</ele><time>2026-05-02T19:36:21Z</time></trkpt><trkpt lat="45.59591268958002" lon="12.378404605515998"><ele>2.0</ele><time>2026-05-02T19:36:22Z</time></trkpt><trkpt lat="45.59567476032625" lon="12.378054234026793"><ele>2.0</ele><time>2026-05-02T19:36:23Z</time></trkpt><trkpt lat="45.595435526958944" lon="12.377701793369484"><ele>2.5</ele><time>2026-05-02T19:36:24Z</time></trkpt><trkpt lat="45.595198218752046" lon="12.37735240823078"><ele>3.0</ele><time>2026-05-02T19:36:25Z</time></trkpt><trkpt lat="45.59496691737946" lon="12.37700666272027"><ele>3.0</ele><time>2026-05-02T19:36:26Z</time></trkpt><trkpt lat="45.59472985210291" lon="12.376657510367162"><ele>3.0</ele><time>2026-05-02T19:36:27Z</time></trkpt><trkpt lat="45.59449110868817" lon="12.37631330081931"><ele>3.0</ele><time>2026-05-02T19:36:28Z</time></trkpt><trkpt lat="45.59425098115785" lon="12.375967996166631"><ele>3.0</ele><time>2026-05-02T19:36:29Z</time></trkpt><trkpt lat="45.594010372834354" lon="12.37562279033433"><ele>3.0</ele><time>2026-05-02T19:36:30Z</time></trkpt><trkpt lat="45.593769857137524" lon="12.375277693724748"><ele>3.0</ele><time>2026-05-02T19:36:31Z</time></trkpt><trkpt lat="45.59353134187591" lon="12.374936189512125"><ele>2.5</ele><time>2026-05-02T19:36:32Z</time></trkpt><trkpt lat="45.59329320925658" lon="12.374589946605889"><ele>2.0</ele><time>2026-05-02T19:36:33Z</time></trkpt><trkpt lat="45.59305561662854" lon="12.374239230575903"><ele>2.0</ele><time>2026-05-02T19:36:34Z</time></trkpt><trkpt lat="45.59281813524013" lon="12.373888273809312"><ele>2.0</ele><time>2026-05-02T19:36:35Z</time></trkpt><trkpt lat="45.59258226825808" lon="12.37353959849741"><ele>2.0</ele><time>2026-05-02T19:36:36Z</time></trkpt><trkpt lat="45.59234179545348" lon="12.37319290097184"><ele>2.0</ele><time>2026-05-02T19:36:37Z</time></trkpt><trkpt lat="45.59210098697047" lon="12.372850523586715"><ele>2.0</ele><time>2026-05-02T19:36:38Z</time></trkpt><trkpt lat="45.5918573954723" lon="12.372507155720834"><ele>2.0</ele><time>2026-05-02T19:36:39Z</time></trkpt><trkpt lat="45.59162301397212" lon="12.3721594038682"><ele>1.0</ele><time>2026-05-02T19:36:40Z</time></trkpt><trkpt lat="45.5913793801282" lon="12.371816532353579"><ele>0.0</ele><time>2026-05-02T19:36:41Z</time></trkpt><trkpt lat="45.59113354368259" lon="12.371470591326965"><ele>0.0</ele><time>2026-05-02T19:36:42Z</time></trkpt><trkpt lat="45.59089031487923" lon="12.371122031569405"><ele>0.0</ele><time>2026-05-02T19:36:43Z</time></trkpt><trkpt lat="45.59065151467153" lon="12.370770415386618"><ele>0.5</ele><time>2026-05-02T19:36:44Z</time></trkpt><trkpt lat="45.59041265083975" lon="12.370418245592392"><ele>1.0</ele><time>2026-05-02T19:36:45Z</time></trkpt><trkpt lat="45.59017276077155" lon="12.370067230170568"><ele>1.0</ele><time>2026-05-02T19:36:46Z</time></trkpt><trkpt lat="45.58993991079939" lon="12.369721279414742"><ele>1.0</ele><time>2026-05-02T19:36:47Z</time></trkpt><trkpt lat="45.5896994531963" lon="12.369376040092563"><ele>1.5</ele><time>2026-05-02T19:36:48Z</time></trkpt><trkpt lat="45.58946197627903" lon="12.369030324910627"><ele>2.0</ele><time>2026-05-02T19:36:49Z</time></trkpt><trkpt lat="45.58922043222988" lon="12.368686703079462"><ele>2.0</ele><time>2026-05-02T19:36:50Z</time></trkpt><trkpt lat="45.588980423477985" lon="12.368343588459956"><ele>2.0</ele><time>2026-05-02T19:36:51Z</time></trkpt><trkpt lat="45.58874112270369" lon="12.368000624676425"><ele>2.0</ele><time>2026-05-02T19:36:52Z</time></trkpt><trkpt lat="45.58850204438654" lon="12.367655664649705"><ele>2.0</ele><time>2026-05-02T19:36:53Z</time></trkpt><trkpt lat="45.58826515128423" lon="12.367311724588758"><ele>2.5</ele><time>2026-05-02T19:36:54Z</time></trkpt><trkpt lat="45.58802540452939" lon="12.366969719883826"><ele>3.0</ele><time>2026-05-02T19:36:55Z</time></trkpt><trkpt lat="45.58778430463758" lon="12.366625466498617"><ele>3.0</ele><time>2026-05-02T19:36:56Z</time></trkpt><trkpt lat="45.58754425549623" lon="12.366282840833533"><ele>3.0</ele><time>2026-05-02T19:36:57Z</time></trkpt><trkpt lat="45.587302398595774" lon="12.365938160756048"><ele>3.0</ele><time>2026-05-02T19:36:58Z</time></trkpt><trkpt lat="45.58706435029363" lon="12.365594477974954"><ele>3.0</ele><time>2026-05-02T19:36:59Z</time></trkpt><trkpt lat="45.58682399862111" lon="12.365248257588778"><ele>2.5</ele><time>2026-05-02T19:37:00Z</time></trkpt><trkpt lat="45.58658278800858" lon="12.364901104985062"><ele>2.0</ele><time>2026-05-02T19:37:01Z</time></trkpt><trkpt lat="45.58634255913269" lon="12.364552878911828"><ele>3.0</ele><time>2026-05-02T19:37:02Z</time></trkpt><trkpt lat="45.586105762468264" lon="12.36420566896818"><ele>4.0</ele><time>2026-05-02T19:37:03Z</time></trkpt><trkpt lat="45.585868029237005" lon="12.363858497602989"><ele>4.0</ele><time>2026-05-02T19:37:04Z</time></trkpt><trkpt lat="45.58563052131762" lon="12.363512171622759"><ele>4.0</ele><time>2026-05-02T19:37:05Z</time></trkpt><trkpt lat="45.585389644337624" lon="12.363163665506455"><ele>5.5</ele><time>2026-05-02T19:37:06Z</time></trkpt><trkpt lat="45.58515382273251" lon="12.362819928233531"><ele>7.0</ele><time>2026-05-02T19:37:07Z</time></trkpt><trkpt lat="45.58491403625188" lon="12.36247283502772"><ele>6.5</ele><time>2026-05-02T19:37:08Z</time></trkpt><trkpt lat="45.584680461545254" lon="12.36212099720895"><ele>6.0</ele><time>2026-05-02T19:37:09Z</time></trkpt><trkpt lat="45.58444630006777" lon="12.36176774446279"><ele>6.0</ele><time>2026-05-02T19:37:10Z</time></trkpt><trkpt lat="45.584208455089154" lon="12.361417999719466"><ele>6.0</ele><time>2026-05-02T19:37:11Z</time></trkpt><trkpt lat="45.58396904214513" lon="12.36107368615024"><ele>5.0</ele><time>2026-05-02T19:37:12Z</time></trkpt><trkpt lat="45.58373225433567" lon="12.360726974273003"><ele>4.0</ele><time>2026-05-02T19:37:13Z</time></trkpt><trkpt lat="45.58349137620534" lon="12.360383758789364"><ele>4.0</ele><time>2026-05-02T19:37:14Z</time></trkpt><trkpt lat="45.58325016782723" lon="12.360040201597768"><ele>4.0</ele><time>2026-05-02T19:37:15Z</time></trkpt><trkpt lat="45.58301058045273" lon="12.359693946352763"><ele>6.0</ele><time>2026-05-02T19:37:16Z</time></trkpt><trkpt lat="45.582768701214924" lon="12.359348311021582"><ele>8.0</ele><time>2026-05-02T19:37:17Z</time></trkpt><trkpt lat="45.582524483597666" lon="12.359003442393645"><ele>6.0</ele><time>2026-05-02T19:37:18Z</time></trkpt><trkpt lat="45.582282526288814" lon="12.358657703443848"><ele>4.0</ele><time>2026-05-02T19:37:19Z</time></trkpt><trkpt lat="45.58204212843792" lon="12.35830838479525"><ele>2.5</ele><time>2026-05-02T19:37:20Z</time></trkpt><trkpt lat="45.58180169002622" lon="12.357960736274956"><ele>1.0</ele><time>2026-05-02T19:37:21Z</time></trkpt><trkpt lat="45.581560318163206" lon="12.357611519387083"><ele>1.0</ele><time>2026-05-02T19:37:22Z</time></trkpt><trkpt lat="45.58132366774012" lon="12.357259652164029"><ele>1.0</ele><time>2026-05-02T19:37:23Z</time></trkpt><trkpt lat="45.58108843599881" lon="12.356907092862205"><ele>1.5</ele><time>2026-05-02T19:37:24Z</time></trkpt><trkpt lat="45.580854397418875" lon="12.35655266415373"><ele>2.0</ele><time>2026-05-02T19:37:25Z</time></trkpt><trkpt lat="45.580620445271904" lon="12.356200919814036"><ele>2.0</ele><time>2026-05-02T19:37:26Z</time></trkpt><trkpt lat="45.58039170983823" lon="12.355851178865665"><ele>2.0</ele><time>2026-05-02T19:37:27Z</time></trkpt><trkpt lat="45.580170252750285" lon="12.355502920447394"><ele>1.5</ele><time>2026-05-02T19:37:28Z</time></trkpt><trkpt lat="45.579950458313746" lon="12.35514841074155"><ele>1.0</ele><time>2026-05-02T19:37:29Z</time></trkpt><trkpt lat="45.579739903046644" lon="12.354798448179013"><ele>1.0</ele><time>2026-05-02T19:37:30Z</time></trkpt><trkpt lat="45.57952977293522" lon="12.354449177521603"><ele>1.0</ele><time>2026-05-02T19:37:31Z</time></trkpt><trkpt lat="45.579324550916624" lon="12.354103025434888"><ele>1.0</ele><time>2026-05-02T19:37:32Z</time></trkpt><trkpt lat="45.579125027220265" lon="12.35376067410115"><ele>1.0</ele><time>2026-05-02T19:37:33Z</time></trkpt><trkpt lat="45.57893338082591" lon="12.3534256077394"><ele>1.0</ele><time>2026-05-02T19:37:34Z</time></trkpt><trkpt lat="45.57874378157639" lon="12.353098752160866"><ele>1.0</ele><time>2026-05-02T19:37:35Z</time></trkpt><trkpt lat="45.57855939552383" lon="12.352780219665913"><ele>0.0</ele><time>2026-05-02T19:37:36Z</time></trkpt><trkpt lat="45.578380076629564" lon="12.352468934097878"><ele>-1.0</ele><time>2026-05-02T19:37:37Z</time></trkpt><trkpt lat="45.57820712928206" lon="12.352165851254256"><ele>1.0</ele><time>2026-05-02T19:37:38Z</time></trkpt><trkpt lat="45.57804284702203" lon="12.351865924559453"><ele>3.0</ele><time>2026-05-02T19:37:39Z</time></trkpt><trkpt lat="45.577875142085276" lon="12.351567985615807"><ele>2.5</ele><time>2026-05-02T19:37:40Z</time></trkpt><trkpt lat="45.57771464876167" lon="12.351278584551869"><ele>2.0</ele><time>2026-05-02T19:37:41Z</time></trkpt><trkpt lat="45.57755599365575" lon="12.351000088567949"><ele>2.0</ele><time>2026-05-02T19:37:42Z</time></trkpt><trkpt lat="45.577402835512935" lon="12.350730489542803"><ele>2.0</ele><time>2026-05-02T19:37:43Z</time></trkpt><trkpt lat="45.57725728231203" lon="12.350471602370229"><ele>2.0</ele><time>2026-05-02T19:37:44Z</time></trkpt><trkpt lat="45.577122397580595" lon="12.350219385426517"><ele>2.0</ele><time>2026-05-02T19:37:45Z</time></trkpt><trkpt lat="45.57699048291397" lon="12.349971569178498"><ele>2.0</ele><time>2026-05-02T19:37:46Z</time></trkpt><trkpt lat="45.57685850378533" lon="12.349726981577538"><ele>2.0</ele><time>2026-05-02T19:37:47Z</time></trkpt><trkpt lat="45.57673477100408" lon="12.349485243994193"><ele>2.0</ele><time>2026-05-02T19:37:48Z</time></trkpt><trkpt lat="45.57660855823405" lon="12.34924286282195"><ele>2.0</ele><time>2026-05-02T19:37:49Z</time></trkpt><trkpt lat="45.57648702907894" lon="12.349001023278996"><ele>2.0</ele><time>2026-05-02T19:37:50Z</time></trkpt><trkpt lat="45.5763723127326" lon="12.3487612091564"><ele>2.0</ele><time>2026-05-02T19:37:51Z</time></trkpt><trkpt lat="45.57625950416163" lon="12.348516607582388"><ele>2.0</ele><time>2026-05-02T19:37:52Z</time></trkpt><trkpt lat="45.57614815219506" lon="12.348271578030836"><ele>2.333333333333333</ele><time>2026-05-02T19:37:53Z</time></trkpt><trkpt lat="45.57603501239864" lon="12.348020860657382"><ele>2.6666666666666665</ele><time>2026-05-02T19:37:54Z</time></trkpt><trkpt lat="45.57592323306468" lon="12.347765201678369"><ele>3.0</ele><time>2026-05-02T19:37:55Z</time></trkpt><trkpt lat="45.575815975411366" lon="12.347507206481072"><ele>3.0</ele><time>2026-05-02T19:37:56Z</time></trkpt><trkpt lat="45.57570700639404" lon="12.347249500283942"><ele>3.0</ele><time>2026-05-02T19:37:57Z</time></trkpt><trkpt lat="45.575596240568565" lon="12.346994114425742"><ele>3.0</ele><time>2026-05-02T19:37:58Z</time></trkpt><trkpt lat="45.57548902734639" lon="12.346736788636294"><ele>3.333333333333333</ele><time>2026-05-02T19:37:59Z</time></trkpt><trkpt lat="45.57538490742483" lon="12.346474323587127"><ele>3.6666666666666665</ele><time>2026-05-02T19:38:00Z</time></trkpt><trkpt lat="45.57528675920917" lon="12.346211413205964"><ele>4.0</ele><time>2026-05-02T19:38:01Z</time></trkpt><trkpt lat="45.57519061491825" lon="12.345951463376897"><ele>3.333333333333333</ele><time>2026-05-02T19:38:02Z</time></trkpt><trkpt lat="45.57510202777811" lon="12.345687979808465"><ele>2.6666666666666665</ele><time>2026-05-02T19:38:03Z</time></trkpt><trkpt lat="45.57502436567889" lon="12.345413502107355"><ele>2.0</ele><time>2026-05-02T19:38:04Z</time></trkpt><trkpt lat="45.57495568113567" lon="12.345124078859339"><ele>2.0</ele><time>2026-05-02T19:38:05Z</time></trkpt><trkpt lat="45.57490788875822" lon="12.344824677597574"><ele>2.0</ele><time>2026-05-02T19:38:06Z</time></trkpt><trkpt lat="45.574877213600686" lon="12.34451106084975"><ele>2.0</ele><time>2026-05-02T19:38:07Z</time></trkpt><trkpt lat="45.5748551109282" lon="12.344190380946614"><ele>1.0</ele><time>2026-05-02T19:38:08Z</time></trkpt><trkpt lat="45.57483506341487" lon="12.343863913599545"><ele>0.0</ele><time>2026-05-02T19:38:09Z</time></trkpt><trkpt lat="45.57480779726264" lon="12.343540779302003"><ele>0.0</ele><time>2026-05-02T19:38:10Z</time></trkpt><trkpt lat="45.57477385322855" lon="12.343224492226444"><ele>0.0</ele><time>2026-05-02T19:38:11Z</time></trkpt><trkpt lat="45.57473081575649" lon="12.342917734492826"><ele>0.0</ele><time>2026-05-02T19:38:12Z</time></trkpt><trkpt lat="45.57467698734405" lon="12.342627895540833"><ele>0.0</ele><time>2026-05-02T19:38:13Z</time></trkpt><trkpt lat="45.57460544223775" lon="12.342355675520595"><ele>0.0</ele><time>2026-05-02T19:38:14Z</time></trkpt><trkpt lat="45.57451894086862" lon="12.342100268190972"><ele>0.0</ele><time>2026-05-02T19:38:15Z</time></trkpt><trkpt lat="45.57441336296833" lon="12.341853404162196"><ele>0.0</ele><time>2026-05-02T19:38:16Z</time></trkpt><trkpt lat="45.57428910979399" lon="12.341619718586841"><ele>0.0</ele><time>2026-05-02T19:38:17Z</time></trkpt><trkpt lat="45.57414951889523" lon="12.341402201926776"><ele>0.0</ele><time>2026-05-02T19:38:18Z</time></trkpt><trkpt lat="45.57399987008219" lon="12.341208046659006"><ele>-0.3333333333333333</ele><time>2026-05-02T19:38:19Z</time></trkpt><trkpt lat="45.573834991473525" lon="12.341038807970355"><ele>-0.6666666666666666</ele><time>2026-05-02T19:38:20Z</time></trkpt><trkpt lat="45.57365763068832" lon="12.340886942446652"><ele>-1.0</ele><time>2026-05-02T19:38:21Z</time></trkpt><trkpt lat="45.573474308259584" lon="12.340761445402164"><ele>-1.0</ele><time>2026-05-02T19:38:22Z</time></trkpt><trkpt lat="45.57328162365337" lon="12.340656963738656"><ele>-1.0</ele><time>2026-05-02T19:38:23Z</time></trkpt><trkpt lat="45.57308488080275" lon="12.340579170911662"><ele>-1.0</ele><time>2026-05-02T19:38:24Z</time></trkpt><trkpt lat="45.572879589009936" lon="12.340519730528207"><ele>-0.6666666666666666</ele><time>2026-05-02T19:38:25Z</time></trkpt><trkpt lat="45.57266894564023" lon="12.340463841870719"><ele>-0.3333333333333333</ele><time>2026-05-02T19:38:26Z</time></trkpt><trkpt lat="45.5724664561018" lon="12.340409854074753"><ele>0.0</ele><time>2026-05-02T19:38:27Z</time></trkpt><trkpt lat="45.572271366501795" lon="12.340346534874355"><ele>0.0</ele><time>2026-05-02T19:38:28Z</time></trkpt><trkpt lat="45.57208845220051" lon="12.340250813577855"><ele>0.0</ele><time>2026-05-02T19:38:29Z</time></trkpt><trkpt lat="45.571911446460604" lon="12.340128992113186"><ele>0.0</ele><time>2026-05-02T19:38:30Z</time></trkpt><trkpt lat="45.57174133337175" lon="12.339988076715729"><ele>0.3333333333333333</ele><time>2026-05-02T19:38:31Z</time></trkpt><trkpt lat="45.57157966314436" lon="12.339827615559647"><ele>0.6666666666666666</ele><time>2026-05-02T19:38:32Z</time></trkpt><trkpt lat="45.57143127723118" lon="12.339653551370887"><ele>1.0</ele><time>2026-05-02T19:38:33Z</time></trkpt><trkpt lat="45.57129875714757" lon="12.33946241710148"><ele>1.3333333333333333</ele><time>2026-05-02T19:38:34Z</time></trkpt><trkpt lat="45.57117773137398" lon="12.33927085907048"><ele>1.6666666666666665</ele><time>2026-05-02T19:38:35Z</time></trkpt><trkpt lat="45.57106552772003" lon="12.33907928763145"><ele>2.0</ele><time>2026-05-02T19:38:36Z</time></trkpt><trkpt lat="45.57096495716967" lon="12.338892098722454"><ele>1.3333333333333333</ele><time>2026-05-02T19:38:37Z</time></trkpt><trkpt lat="45.57086880352961" lon="12.338710395605851"><ele>0.6666666666666666</ele><time>2026-05-02T19:38:38Z</time></trkpt><trkpt lat="45.57077093991608" lon="12.338536641420442"><ele>0.0</ele><time>2026-05-02T19:38:39Z</time></trkpt><trkpt lat="45.570676956351605" lon="12.338372342363154"><ele>0.0</ele><time>2026-05-02T19:38:40Z</time></trkpt><trkpt lat="45.570579569068016" lon="12.338217808279632"><ele>0.0</ele><time>2026-05-02T19:38:41Z</time></trkpt><trkpt lat="45.570484964569154" lon="12.338068726970322"><ele>0.0</ele><time>2026-05-02T19:38:42Z</time></trkpt><trkpt lat="45.57039082149378" lon="12.337925420070643"><ele>0.0</ele><time>2026-05-02T19:38:43Z</time></trkpt><trkpt lat="45.57029967432252" lon="12.337776599076935"><ele>0.0</ele><time>2026-05-02T19:38:44Z</time></trkpt><trkpt lat="45.57021363346732" lon="12.33762970223296"><ele>0.0</ele><time>2026-05-02T19:38:45Z</time></trkpt><trkpt lat="45.57013800879871" lon="12.337487482748926"><ele>0.0</ele><time>2026-05-02T19:38:46Z</time></trkpt><trkpt lat="45.570061452418" lon="12.337345282262184"><ele>0.0</ele><time>2026-05-02T19:38:47Z</time></trkpt><trkpt lat="45.56998753927659" lon="12.33720952428459"><ele>0.0</ele><time>2026-05-02T19:38:48Z</time></trkpt><trkpt lat="45.56991398692514" lon="12.337079806766557"><ele>0.0</ele><time>2026-05-02T19:38:49Z</time></trkpt><trkpt lat="45.569844463941344" lon="12.336953910314953"><ele>0.0</ele><time>2026-05-02T19:38:50Z</time></trkpt><trkpt lat="45.56977891629752" lon="12.336833661515362"><ele>0.0</ele><time>2026-05-02T19:38:51Z</time></trkpt><trkpt lat="45.5697080159004" lon="12.336720885164025"><ele>0.0</ele><time>2026-05-02T19:38:52Z</time></trkpt><trkpt lat="45.56964373614549" lon="12.336606868374728"><ele>0.0</ele><time>2026-05-02T19:38:53Z</time></trkpt><trkpt lat="45.56958445312546" lon="12.336500488319093"><ele>0.0</ele><time>2026-05-02T19:38:54Z</time></trkpt><trkpt lat="45.569527024309465" lon="12.336401917523528"><ele>0.0</ele><time>2026-05-02T19:38:55Z</time></trkpt><trkpt lat="45.56946739094622" lon="12.336302998591366"><ele>0.0</ele><time>2026-05-02T19:38:56Z</time></trkpt><trkpt lat="45.56941459298724" lon="12.336208704619521"><ele>0.0</ele><time>2026-05-02T19:38:57Z</time></trkpt><trkpt lat="45.56936474777568" lon="12.336118221731184"><ele>0.0</ele><time>2026-05-02T19:38:58Z</time></trkpt><trkpt lat="45.56931835932728" lon="12.3360349106991"><ele>0.0</ele><time>2026-05-02T19:38:59Z</time></trkpt><trkpt lat="45.569277006788624" lon="12.335957896768322"><ele>0.0</ele><time>2026-05-02T19:39:00Z</time></trkpt><trkpt lat="45.56920526632282" lon="12.335830099744404"><ele>0.0</ele><time>2026-05-02T19:39:02Z</time></trkpt><trkpt lat="45.569140478303" lon="12.335709060911652"><ele>0.0</ele><time>2026-05-02T19:39:04Z</time></trkpt><trkpt lat="45.569082827076244" lon="12.335595251976052"><ele>0.0</ele><time>2026-05-02T19:39:06Z</time></trkpt><trkpt lat="45.568995044652276" lon="12.33546623448504"><ele>0.2</ele><time>2026-05-02T19:39:08Z</time></trkpt><trkpt lat="45.56893757495676" lon="12.335376505147119"><ele>0.4</ele><time>2026-05-02T19:39:09Z</time></trkpt><trkpt lat="45.568880044408445" lon="12.335263586322895"><ele>0.6000000000000001</ele><time>2026-05-02T19:39:10Z</time></trkpt><trkpt lat="45.568812716023935" lon="12.335123566998087"><ele>0.8</ele><time>2026-05-02T19:39:11Z</time></trkpt><trkpt lat="45.5687360806548" lon="12.334981038730886"><ele>1.0</ele><time>2026-05-02T19:39:12Z</time></trkpt><trkpt lat="45.56865960449421" lon="12.334840918872468"><ele>1.25</ele><time>2026-05-02T19:39:13Z</time></trkpt><trkpt lat="45.568573838810835" lon="12.334688994911469"><ele>1.5</ele><time>2026-05-02T19:39:14Z</time></trkpt><trkpt lat="45.56847885267578" lon="12.33452718484627"><ele>1.75</ele><time>2026-05-02T19:39:15Z</time></trkpt><trkpt lat="45.56838307598572" lon="12.334356284376119"><ele>2.0</ele><time>2026-05-02T19:39:16Z</time></trkpt><trkpt lat="45.568275500507816" lon="12.334165815807983"><ele>2.0</ele><time>2026-05-02T19:39:17Z</time></trkpt><trkpt lat="45.568172033709004" lon="12.333974222777599"><ele>2.0</ele><time>2026-05-02T19:39:18Z</time></trkpt><trkpt lat="45.56806643821333" lon="12.33378086952471"><ele>2.0</ele><time>2026-05-02T19:39:19Z</time></trkpt><trkpt lat="45.56795759502441" lon="12.333583889704911"><ele>1.6666666666666665</ele><time>2026-05-02T19:39:20Z</time></trkpt><trkpt lat="45.56784474889329" lon="12.333378525726035"><ele>1.3333333333333333</ele><time>2026-05-02T19:39:21Z</time></trkpt><trkpt lat="45.56772688340753" lon="12.333165736766459"><ele>1.0</ele><time>2026-05-02T19:39:22Z</time></trkpt><trkpt lat="45.56760024220328" lon="12.332948372246678"><ele>1.0</ele><time>2026-05-02T19:39:23Z</time></trkpt><trkpt lat="45.56747467607966" lon="12.332724291780202"><ele>1.0</ele><time>2026-05-02T19:39:24Z</time></trkpt><trkpt lat="45.56735291844141" lon="12.332492645209298"><ele>1.0</ele><time>2026-05-02T19:39:25Z</time></trkpt><trkpt lat="45.56722446442036" lon="12.332255689359751"><ele>1.0</ele><time>2026-05-02T19:39:26Z</time></trkpt><trkpt lat="45.56709131592716" lon="12.3320098264408"><ele>1.0</ele><time>2026-05-02T19:39:27Z</time></trkpt><trkpt lat="45.56695687983414" lon="12.33176030013489"><ele>1.0</ele><time>2026-05-02T19:39:28Z</time></trkpt><trkpt lat="45.5668236521448" lon="12.331511609970333"><ele>1.5</ele><time>2026-05-02T19:39:29Z</time></trkpt><trkpt lat="45.56667973265534" lon="12.3312520673426"><ele>2.0</ele><time>2026-05-02T19:39:30Z</time></trkpt><trkpt lat="45.56653454996825" lon="12.330985600250267"><ele>2.0</ele><time>2026-05-02T19:39:31Z</time></trkpt><trkpt lat="45.566388355094816" lon="12.330718683470623"><ele>2.0</ele><time>2026-05-02T19:39:32Z</time></trkpt><trkpt lat="45.566238883894755" lon="12.330444129783508"><ele>2.0</ele><time>2026-05-02T19:39:33Z</time></trkpt><trkpt lat="45.56608777607354" lon="12.330168186520497"><ele>2.0</ele><time>2026-05-02T19:39:34Z</time></trkpt><trkpt lat="45.565931051441865" lon="12.329891461328234"><ele>2.5</ele><time>2026-05-02T19:39:35Z</time></trkpt><trkpt lat="45.565775670513666" lon="12.329609204275705"><ele>3.0</ele><time>2026-05-02T19:39:36Z</time></trkpt><trkpt lat="45.56561341568717" lon="12.329322214894958"><ele>3.0</ele><time>2026-05-02T19:39:37Z</time></trkpt><trkpt lat="45.56545014383552" lon="12.329030799803839"><ele>3.0</ele><time>2026-05-02T19:39:38Z</time></trkpt><trkpt lat="45.56529086507465" lon="12.328739570670788"><ele>2.5</ele><time>2026-05-02T19:39:39Z</time></trkpt><trkpt lat="45.565128451932935" lon="12.328444477957667"><ele>2.0</ele><time>2026-05-02T19:39:40Z</time></trkpt><trkpt lat="45.56497205905407" lon="12.32815263564687"><ele>2.0</ele><time>2026-05-02T19:39:41Z</time></trkpt><trkpt lat="45.564811010837325" lon="12.327853149581545"><ele>2.0</ele><time>2026-05-02T19:39:42Z</time></trkpt><trkpt lat="45.564646133807436" lon="12.327551865033465"><ele>2.0</ele><time>2026-05-02T19:39:43Z</time></trkpt><trkpt lat="45.564484347987495" lon="12.32725285854017"><ele>2.0</ele><time>2026-05-02T19:39:44Z</time></trkpt><trkpt lat="45.56431877114131" lon="12.326956258264968"><ele>2.0</ele><time>2026-05-02T19:39:45Z</time></trkpt><trkpt lat="45.564154180586726" lon="12.326655078601233"><ele>2.0</ele><time>2026-05-02T19:39:46Z</time></trkpt><trkpt lat="45.56399060979387" lon="12.326356698699806"><ele>2.0</ele><time>2026-05-02T19:39:47Z</time></trkpt><trkpt lat="45.5638246275663" lon="12.326052302785854"><ele>2.0</ele><time>2026-05-02T19:39:48Z</time></trkpt><trkpt lat="45.563654900143945" lon="12.325741833552412"><ele>1.0</ele><time>2026-05-02T19:39:49Z</time></trkpt><trkpt lat="45.56348713671748" lon="12.325436524275482"><ele>0.0</ele><time>2026-05-02T19:39:50Z</time></trkpt><trkpt lat="45.563315483619164" lon="12.3251203527619"><ele>0.0</ele><time>2026-05-02T19:39:51Z</time></trkpt><trkpt lat="45.56314312918513" lon="12.324807056297717"><ele>0.0</ele><time>2026-05-02T19:39:52Z</time></trkpt><trkpt lat="45.56297154894688" lon="12.324491581772005"><ele>0.0</ele><time>2026-05-02T19:39:53Z</time></trkpt><trkpt lat="45.5627960509413" lon="12.324177227207766"><ele>0.0</ele><time>2026-05-02T19:39:54Z</time></trkpt><trkpt lat="45.56261577487541" lon="12.323857714093931"><ele>0.0</ele><time>2026-05-02T19:39:55Z</time></trkpt><trkpt lat="45.562431244480926" lon="12.323537924171067"><ele>0.0</ele><time>2026-05-02T19:39:56Z</time></trkpt><trkpt lat="45.56224308322202" lon="12.323216698574347"><ele>-0.5</ele><time>2026-05-02T19:39:57Z</time></trkpt><trkpt lat="45.562051565575324" lon="12.32289214515928"><ele>-1.0</ele><time>2026-05-02T19:39:58Z</time></trkpt><trkpt lat="45.56186208894173" lon="12.322568261277"><ele>0.0</ele><time>2026-05-02T19:39:59Z</time></trkpt><trkpt lat="45.561663359825914" lon="12.32224293235754"><ele>1.0</ele><time>2026-05-02T19:40:00Z</time></trkpt><trkpt lat="45.561467105910886" lon="12.321917171315562"><ele>1.0</ele><time>2026-05-02T19:40:01Z</time></trkpt><trkpt lat="45.56127067998687" lon="12.321591944447523"><ele>1.0</ele><time>2026-05-02T19:40:02Z</time></trkpt><trkpt lat="45.561068767093346" lon="12.321265821398589"><ele>0.5</ele><time>2026-05-02T19:40:03Z</time></trkpt><trkpt lat="45.56086695892225" lon="12.320939152644264"><ele>0.0</ele><time>2026-05-02T19:40:04Z</time></trkpt><trkpt lat="45.56066932046989" lon="12.320615413980946"><ele>0.5</ele><time>2026-05-02T19:40:05Z</time></trkpt><trkpt lat="45.560463962133674" lon="12.320289966151348"><ele>1.0</ele><time>2026-05-02T19:40:06Z</time></trkpt><trkpt lat="45.560259770906214" lon="12.319963936527085"><ele>1.5</ele><time>2026-05-02T19:40:07Z</time></trkpt><trkpt lat="45.560048771582856" lon="12.319636330399835"><ele>2.0</ele><time>2026-05-02T19:40:08Z</time></trkpt><trkpt lat="45.559836733019466" lon="12.31931201079661"><ele>2.0</ele><time>2026-05-02T19:40:09Z</time></trkpt><trkpt lat="45.55962490587777" lon="12.318993487735538"><ele>2.0</ele><time>2026-05-02T19:40:10Z</time></trkpt><trkpt lat="45.55940817824361" lon="12.318675178596045"><ele>2.0</ele><time>2026-05-02T19:40:11Z</time></trkpt><trkpt lat="45.55918696225284" lon="12.31835350396678"><ele>2.0</ele><time>2026-05-02T19:40:12Z</time></trkpt><trkpt lat="45.55896824929786" lon="12.318032653643472"><ele>2.0</ele><time>2026-05-02T19:40:13Z</time></trkpt><trkpt lat="45.55874959553617" lon="12.317711061696881"><ele>2.0</ele><time>2026-05-02T19:40:14Z</time></trkpt><trkpt lat="45.55852764991363" lon="12.317388917487671"><ele>2.0</ele><time>2026-05-02T19:40:15Z</time></trkpt><trkpt lat="45.5583040765086" lon="12.317072155095651"><ele>2.0</ele><time>2026-05-02T19:40:16Z</time></trkpt><trkpt lat="45.5580768202992" lon="12.316755420852056"><ele>2.0</ele><time>2026-05-02T19:40:17Z</time></trkpt><trkpt lat="45.55784831082604" lon="12.316438778050559"><ele>2.0</ele><time>2026-05-02T19:40:18Z</time></trkpt><trkpt lat="45.55761644583827" lon="12.316119868878339"><ele>2.0</ele><time>2026-05-02T19:40:19Z</time></trkpt><trkpt lat="45.557382165828706" lon="12.315802709783696"><ele>2.0</ele><time>2026-05-02T19:40:20Z</time></trkpt><trkpt lat="45.557145559815496" lon="12.315489711780174"><ele>1.5</ele><time>2026-05-02T19:40:21Z</time></trkpt><trkpt lat="45.55690931144528" lon="12.315172248033972"><ele>1.0</ele><time>2026-05-02T19:40:22Z</time></trkpt><trkpt lat="45.55667193313628" lon="12.314852457259136"><ele>0.5</ele><time>2026-05-02T19:40:23Z</time></trkpt><trkpt lat="45.55643641331786" lon="12.314529600429362"><ele>0.0</ele><time>2026-05-02T19:40:24Z</time></trkpt><trkpt lat="45.55620811856657" lon="12.31420758209307"><ele>2.5</ele><time>2026-05-02T19:40:25Z</time></trkpt><trkpt lat="45.555968889702875" lon="12.31388496887495"><ele>5.0</ele><time>2026-05-02T19:40:26Z</time></trkpt><trkpt lat="45.55573635308706" lon="12.313565815246951"><ele>5.0</ele><time>2026-05-02T19:40:27Z</time></trkpt><trkpt lat="45.555500805882915" lon="12.313242460193695"><ele>5.0</ele><time>2026-05-02T19:40:28Z</time></trkpt><trkpt lat="45.55525625688255" lon="12.312922942349932"><ele>3.5</ele><time>2026-05-02T19:40:29Z</time></trkpt><trkpt lat="45.555002593480936" lon="12.312601833616592"><ele>2.0</ele><time>2026-05-02T19:40:30Z</time></trkpt><trkpt lat="45.554761022982476" lon="12.312276232946376"><ele>2.5</ele><time>2026-05-02T19:40:31Z</time></trkpt><trkpt lat="45.5545159264492" lon="12.311950529806204"><ele>3.0</ele><time>2026-05-02T19:40:32Z</time></trkpt><trkpt lat="45.55427461885843" lon="12.311626407670701"><ele>3.0</ele><time>2026-05-02T19:40:33Z</time></trkpt><trkpt lat="45.55402693810972" lon="12.311304496189157"><ele>3.0</ele><time>2026-05-02T19:40:34Z</time></trkpt><trkpt lat="45.55377898445158" lon="12.310984088281323"><ele>3.0</ele><time>2026-05-02T19:40:35Z</time></trkpt><trkpt lat="45.55354214755651" lon="12.310666897933"><ele>3.0</ele><time>2026-05-02T19:40:36Z</time></trkpt><trkpt lat="45.55330068640019" lon="12.310350994990918"><ele>3.0</ele><time>2026-05-02T19:40:37Z</time></trkpt><trkpt lat="45.55306557600387" lon="12.310032002259952"><ele>3.0</ele><time>2026-05-02T19:40:38Z</time></trkpt><trkpt lat="45.55282662256628" lon="12.30971169122109"><ele>2.5</ele><time>2026-05-02T19:40:39Z</time></trkpt><trkpt lat="45.55258759552111" lon="12.30939223658867"><ele>2.0</ele><time>2026-05-02T19:40:40Z</time></trkpt><trkpt lat="45.5523483910427" lon="12.309075727199447"><ele>2.0</ele><time>2026-05-02T19:40:41Z</time></trkpt><trkpt lat="45.55211381685595" lon="12.308760172193594"><ele>2.0</ele><time>2026-05-02T19:40:42Z</time></trkpt><trkpt lat="45.55187199221618" lon="12.3084465332228"><ele>2.5</ele><time>2026-05-02T19:40:43Z</time></trkpt><trkpt lat="45.55163601869169" lon="12.308125519067929"><ele>3.0</ele><time>2026-05-02T19:40:44Z</time></trkpt><trkpt lat="45.55140510548519" lon="12.30780514494942"><ele>3.0</ele><time>2026-05-02T19:40:45Z</time></trkpt><trkpt lat="45.551160549417624" lon="12.30748206602541"><ele>3.0</ele><time>2026-05-02T19:40:46Z</time></trkpt><trkpt lat="45.550927045061755" lon="12.307154332437683"><ele>3.0</ele><time>2026-05-02T19:40:47Z</time></trkpt><trkpt lat="45.55068721118533" lon="12.30682842123872"><ele>3.0</ele><time>2026-05-02T19:40:48Z</time></trkpt><trkpt lat="45.550452405157934" lon="12.306497469940878"><ele>2.5</ele><time>2026-05-02T19:40:49Z</time></trkpt><trkpt lat="45.5502272975467" lon="12.306167488189459"><ele>2.0</ele><time>2026-05-02T19:40:50Z</time></trkpt><trkpt lat="45.549998030129544" lon="12.305839018155188"><ele>1.5</ele><time>2026-05-02T19:40:51Z</time></trkpt><trkpt lat="45.5497710277679" lon="12.305510526917166"><ele>1.0</ele><time>2026-05-02T19:40:52Z</time></trkpt><trkpt lat="45.5495434058681" lon="12.305181144477286"><ele>1.0</ele><time>2026-05-02T19:40:53Z</time></trkpt><trkpt lat="45.549325940602344" lon="12.304847843250288"><ele>1.0</ele><time>2026-05-02T19:40:54Z</time></trkpt><trkpt lat="45.54910929006917" lon="12.304509676432625"><ele>1.0</ele><time>2026-05-02T19:40:55Z</time></trkpt><trkpt lat="45.548884041909034" lon="12.304167159975705"><ele>1.0</ele><time>2026-05-02T19:40:56Z</time></trkpt><trkpt lat="45.548668811474016" lon="12.30381525670034"><ele>1.0</ele><time>2026-05-02T19:40:57Z</time></trkpt><trkpt lat="45.54845565282756" lon="12.303462490722003"><ele>1.0</ele><time>2026-05-02T19:40:58Z</time></trkpt><trkpt lat="45.548245431688166" lon="12.30310786623172"><ele>1.0</ele><time>2026-05-02T19:40:59Z</time></trkpt><trkpt lat="45.548034101423106" lon="12.302746033863162"><ele>1.0</ele><time>2026-05-02T19:41:00Z</time></trkpt><trkpt lat="45.54782205981413" lon="12.302380564727878"><ele>2.0</ele><time>2026-05-02T19:41:01Z</time></trkpt><trkpt lat="45.5476086330068" lon="12.302012110218223"><ele>3.0</ele><time>2026-05-02T19:41:02Z</time></trkpt><trkpt lat="45.54740030428703" lon="12.301642461332248"><ele>2.5</ele><time>2026-05-02T19:41:03Z</time></trkpt><trkpt lat="45.547194836589554" lon="12.301270268309809"><ele>2.0</ele><time>2026-05-02T19:41:04Z</time></trkpt><trkpt lat="45.546988699029846" lon="12.300893864967387"><ele>1.0</ele><time>2026-05-02T19:41:05Z</time></trkpt><trkpt lat="45.54678153214117" lon="12.300513123691182"><ele>0.0</ele><time>2026-05-02T19:41:06Z</time></trkpt><trkpt lat="45.546573202712835" lon="12.30013006562278"><ele>0.0</ele><time>2026-05-02T19:41:07Z</time></trkpt><trkpt lat="45.546370397926395" lon="12.29974991823578"><ele>0.0</ele><time>2026-05-02T19:41:08Z</time></trkpt><trkpt lat="45.5461670815877" lon="12.299362683840512"><ele>0.0</ele><time>2026-05-02T19:41:09Z</time></trkpt><trkpt lat="45.545958308048455" lon="12.298974587487537"><ele>0.0</ele><time>2026-05-02T19:41:10Z</time></trkpt><trkpt lat="45.545753993384636" lon="12.298588447648383"><ele>1.0</ele><time>2026-05-02T19:41:11Z</time></trkpt><trkpt lat="45.54555222406516" lon="12.29820100276022"><ele>2.0</ele><time>2026-05-02T19:41:12Z</time></trkpt><trkpt lat="45.545344785511155" lon="12.297809270119163"><ele>2.0</ele><time>2026-05-02T19:41:13Z</time></trkpt><trkpt lat="45.54514020433444" lon="12.297416629810542"><ele>2.0</ele><time>2026-05-02T19:41:14Z</time></trkpt><trkpt lat="45.54493309579314" lon="12.297029466964677"><ele>2.5</ele><time>2026-05-02T19:41:15Z</time></trkpt><trkpt lat="45.54472758530744" lon="12.296636861091917"><ele>3.0</ele><time>2026-05-02T19:41:16Z</time></trkpt><trkpt lat="45.54451890875219" lon="12.29624809347799"><ele>2.0</ele><time>2026-05-02T19:41:17Z</time></trkpt><trkpt lat="45.54432657062311" lon="12.295862348379114"><ele>1.0</ele><time>2026-05-02T19:41:18Z</time></trkpt><trkpt lat="45.54411995442106" lon="12.295469668321454"><ele>1.0</ele><time>2026-05-02T19:41:19Z</time></trkpt><trkpt lat="45.54390890719422" lon="12.295083520165402"><ele>1.0</ele><time>2026-05-02T19:41:20Z</time></trkpt><trkpt lat="45.543704159591634" lon="12.29469982595553"><ele>1.5</ele><time>2026-05-02T19:41:21Z</time></trkpt><trkpt lat="45.54349756079534" lon="12.294316236743896"><ele>2.0</ele><time>2026-05-02T19:41:22Z</time></trkpt><trkpt lat="45.54329016568481" lon="12.293927032397695"><ele>2.0</ele><time>2026-05-02T19:41:23Z</time></trkpt><trkpt lat="45.54308528383093" lon="12.293541250399425"><ele>2.0</ele><time>2026-05-02T19:41:24Z</time></trkpt><trkpt lat="45.54287682611552" lon="12.293153672969925"><ele>2.0</ele><time>2026-05-02T19:41:25Z</time></trkpt><trkpt lat="45.54267532050354" lon="12.29276697466563"><ele>2.0</ele><time>2026-05-02T19:41:26Z</time></trkpt><trkpt lat="45.542474282539054" lon="12.292383219779483"><ele>2.0</ele><time>2026-05-02T19:41:27Z</time></trkpt><trkpt lat="45.54226822376349" lon="12.291995822554016"><ele>2.0</ele><time>2026-05-02T19:41:28Z</time></trkpt><trkpt lat="45.54206456774679" lon="12.291606377850593"><ele>2.0</ele><time>2026-05-02T19:41:29Z</time></trkpt><trkpt lat="45.54185857336953" lon="12.291219881533706"><ele>2.0</ele><time>2026-05-02T19:41:30Z</time></trkpt><trkpt lat="45.541653985221465" lon="12.290833377186695"><ele>2.5</ele><time>2026-05-02T19:41:31Z</time></trkpt><trkpt lat="45.54144909049122" lon="12.290445377984145"><ele>3.0</ele><time>2026-05-02T19:41:32Z</time></trkpt><trkpt lat="45.54124390194002" lon="12.290059717815755"><ele>2.5</ele><time>2026-05-02T19:41:33Z</time></trkpt><trkpt lat="45.54103738122661" lon="12.289673289380202"><ele>2.0</ele><time>2026-05-02T19:41:34Z</time></trkpt><trkpt lat="45.540832361210086" lon="12.289289585799423"><ele>1.5</ele><time>2026-05-02T19:41:35Z</time></trkpt><trkpt lat="45.54062585560571" lon="12.288904645629472"><ele>1.0</ele><time>2026-05-02T19:41:36Z</time></trkpt><trkpt lat="45.540421990962116" lon="12.288514763979428"><ele>1.0</ele><time>2026-05-02T19:41:37Z</time></trkpt><trkpt lat="45.54021338234568" lon="12.288123941874012"><ele>1.0</ele><time>2026-05-02T19:41:38Z</time></trkpt><trkpt lat="45.54000748115923" lon="12.287737854083108"><ele>1.0</ele><time>2026-05-02T19:41:39Z</time></trkpt><trkpt lat="45.5398034338548" lon="12.287352522432608"><ele>1.0</ele><time>2026-05-02T19:41:40Z</time></trkpt><trkpt lat="45.539594464502706" lon="12.286971524616696"><ele>1.0</ele><time>2026-05-02T19:41:41Z</time></trkpt><trkpt lat="45.53938727887894" lon="12.286588143085224"><ele>1.0</ele><time>2026-05-02T19:41:42Z</time></trkpt><trkpt lat="45.53917933840628" lon="12.286204047065532"><ele>1.0</ele><time>2026-05-02T19:41:43Z</time></trkpt><trkpt lat="45.53897281530351" lon="12.285818310140883"><ele>1.0</ele><time>2026-05-02T19:41:44Z</time></trkpt><trkpt lat="45.5387682387112" lon="12.285432304588694"><ele>1.0</ele><time>2026-05-02T19:41:45Z</time></trkpt><trkpt lat="45.53856301498554" lon="12.28504442888779"><ele>1.0</ele><time>2026-05-02T19:41:46Z</time></trkpt><trkpt lat="45.53835895346794" lon="12.28465756387767"><ele>1.0</ele><time>2026-05-02T19:41:47Z</time></trkpt><trkpt lat="45.53815113725798" lon="12.284272637046907"><ele>1.0</ele><time>2026-05-02T19:41:48Z</time></trkpt><trkpt lat="45.53794635846737" lon="12.283887945184608"><ele>1.0</ele><time>2026-05-02T19:41:49Z</time></trkpt><trkpt lat="45.53774011034255" lon="12.283503239961915"><ele>1.0</ele><time>2026-05-02T19:41:50Z</time></trkpt><trkpt lat="45.53753435974924" lon="12.28311927727859"><ele>1.5</ele><time>2026-05-02T19:41:51Z</time></trkpt><trkpt lat="45.53732848661355" lon="12.282731043624034"><ele>2.0</ele><time>2026-05-02T19:41:52Z</time></trkpt><trkpt lat="45.53712316255328" lon="12.282341991697644"><ele>3.5</ele><time>2026-05-02T19:41:53Z</time></trkpt><trkpt lat="45.536915950359095" lon="12.281951681026934"><ele>5.0</ele><time>2026-05-02T19:41:54Z</time></trkpt><trkpt lat="45.53670911830675" lon="12.28156492868551"><ele>5.5</ele><time>2026-05-02T19:41:55Z</time></trkpt><trkpt lat="45.536501388687256" lon="12.281175515514034"><ele>6.0</ele><time>2026-05-02T19:41:56Z</time></trkpt><trkpt lat="45.53629382829885" lon="12.28078881054479"><ele>4.5</ele><time>2026-05-02T19:41:57Z</time></trkpt><trkpt lat="45.53608668322562" lon="12.280401805665948"><ele>3.0</ele><time>2026-05-02T19:41:58Z</time></trkpt><trkpt lat="45.53588145817946" lon="12.280014448537308"><ele>4.0</ele><time>2026-05-02T19:41:59Z</time></trkpt><trkpt lat="45.53567422900236" lon="12.279628866165933"><ele>5.0</ele><time>2026-05-02T19:42:00Z</time></trkpt><trkpt lat="45.53546820373193" lon="12.279243351910766"><ele>5.5</ele><time>2026-05-02T19:42:01Z</time></trkpt><trkpt lat="45.53526499380493" lon="12.278855915209967"><ele>6.0</ele><time>2026-05-02T19:42:02Z</time></trkpt><trkpt lat="45.535062344213145" lon="12.278467309964027"><ele>4.5</ele><time>2026-05-02T19:42:03Z</time></trkpt><trkpt lat="45.53485803730951" lon="12.27807726856375"><ele>3.0</ele><time>2026-05-02T19:42:04Z</time></trkpt><trkpt lat="45.53465206547735" lon="12.277683057899646"><ele>3.5</ele><time>2026-05-02T19:42:05Z</time></trkpt><trkpt lat="45.534448912445434" lon="12.277291725761543"><ele>4.0</ele><time>2026-05-02T19:42:06Z</time></trkpt><trkpt lat="45.534240024905635" lon="12.276903788620027"><ele>4.0</ele><time>2026-05-02T19:42:07Z</time></trkpt><trkpt lat="45.53403170234474" lon="12.276520903994662"><ele>4.0</ele><time>2026-05-02T19:42:08Z</time></trkpt><trkpt lat="45.533824047594784" lon="12.276134689850846"><ele>4.0</ele><time>2026-05-02T19:42:09Z</time></trkpt><trkpt lat="45.53361368773247" lon="12.275758368183922"><ele>4.0</ele><time>2026-05-02T19:42:10Z</time></trkpt><trkpt lat="45.53340586892152" lon="12.275373235125135"><ele>2.5</ele><time>2026-05-02T19:42:11Z</time></trkpt><trkpt lat="45.53319784845962" lon="12.27498430074812"><ele>1.0</ele><time>2026-05-02T19:42:12Z</time></trkpt><trkpt lat="45.53299113821659" lon="12.274597488723543"><ele>0.5</ele><time>2026-05-02T19:42:13Z</time></trkpt><trkpt lat="45.53278735654712" lon="12.274213137481759"><ele>0.0</ele><time>2026-05-02T19:42:14Z</time></trkpt><trkpt lat="45.53258102229719" lon="12.273823063916163"><ele>0.0</ele><time>2026-05-02T19:42:15Z</time></trkpt><trkpt lat="45.53237788215748" lon="12.273436945056188"><ele>0.0</ele><time>2026-05-02T19:42:16Z</time></trkpt><trkpt lat="45.53217380733152" lon="12.273050793642438"><ele>1.0</ele><time>2026-05-02T19:42:17Z</time></trkpt><trkpt lat="45.53196937987472" lon="12.272664412468261"><ele>2.0</ele><time>2026-05-02T19:42:18Z</time></trkpt><trkpt lat="45.53176643320584" lon="12.27228373532311"><ele>2.5</ele><time>2026-05-02T19:42:19Z</time></trkpt><trkpt lat="45.53156149966366" lon="12.2718991882457"><ele>3.0</ele><time>2026-05-02T19:42:20Z</time></trkpt><trkpt lat="45.53135594004549" lon="12.271512147660088"><ele>2.0</ele><time>2026-05-02T19:42:21Z</time></trkpt><trkpt lat="45.53114528856507" lon="12.271123378316771"><ele>1.0</ele><time>2026-05-02T19:42:22Z</time></trkpt><trkpt lat="45.530939526261086" lon="12.270736815296905"><ele>0.5</ele><time>2026-05-02T19:42:23Z</time></trkpt><trkpt lat="45.53073470885009" lon="12.270351054935931"><ele>0.0</ele><time>2026-05-02T19:42:24Z</time></trkpt><trkpt lat="45.530529202047994" lon="12.269964570340468"><ele>0.5</ele><time>2026-05-02T19:42:25Z</time></trkpt><trkpt lat="45.53032802391402" lon="12.269586699989746"><ele>1.0</ele><time>2026-05-02T19:42:26Z</time></trkpt><trkpt lat="45.53013172297188" lon="12.269217865712053"><ele>1.0</ele><time>2026-05-02T19:42:27Z</time></trkpt><trkpt lat="45.52993853797175" lon="12.26885534604576"><ele>1.0</ele><time>2026-05-02T19:42:28Z</time></trkpt><trkpt lat="45.52975141129314" lon="12.268499682118618"><ele>1.0</ele><time>2026-05-02T19:42:29Z</time></trkpt><trkpt lat="45.529563022219385" lon="12.268147908394841"><ele>1.0</ele><time>2026-05-02T19:42:30Z</time></trkpt><trkpt lat="45.52937861161608" lon="12.267802653480532"><ele>1.5</ele><time>2026-05-02T19:42:31Z</time></trkpt><trkpt lat="45.52919847336551" lon="12.267463559139824"><ele>2.0</ele><time>2026-05-02T19:42:32Z</time></trkpt><trkpt lat="45.52901850846377" lon="12.267125792630976"><ele>2.0</ele><time>2026-05-02T19:42:33Z</time></trkpt><trkpt lat="45.52883523200651" lon="12.266783115087437"><ele>2.0</ele><time>2026-05-02T19:42:34Z</time></trkpt><trkpt lat="45.52865532378988" lon="12.266439217756991"><ele>2.0</ele><time>2026-05-02T19:42:35Z</time></trkpt><trkpt lat="45.528474451478516" lon="12.266089905874793"><ele>2.0</ele><time>2026-05-02T19:42:36Z</time></trkpt><trkpt lat="45.5282928343339" lon="12.265744365139717"><ele>1.5</ele><time>2026-05-02T19:42:37Z</time></trkpt><trkpt lat="45.528102151854675" lon="12.265390788809528"><ele>1.0</ele><time>2026-05-02T19:42:38Z</time></trkpt><trkpt lat="45.52791194184008" lon="12.26503862834233"><ele>1.0</ele><time>2026-05-02T19:42:39Z</time></trkpt><trkpt lat="45.52772889375012" lon="12.264683476232332"><ele>1.0</ele><time>2026-05-02T19:42:40Z</time></trkpt><trkpt lat="45.52753665970325" lon="12.264327194511292"><ele>1.0</ele><time>2026-05-02T19:42:41Z</time></trkpt><trkpt lat="45.5273467098238" lon="12.263973510686524"><ele>1.0</ele><time>2026-05-02T19:42:42Z</time></trkpt><trkpt lat="45.52715432148595" lon="12.263622487650439"><ele>1.0</ele><time>2026-05-02T19:42:43Z</time></trkpt><trkpt lat="45.52695828581179" lon="12.263269909215428"><ele>1.0</ele><time>2026-05-02T19:42:44Z</time></trkpt><trkpt lat="45.526756170527364" lon="12.262915171426236"><ele>1.0</ele><time>2026-05-02T19:42:45Z</time></trkpt><trkpt lat="45.52655413649538" lon="12.262559233965993"><ele>1.0</ele><time>2026-05-02T19:42:46Z</time></trkpt><trkpt lat="45.526348884712895" lon="12.2622058437015"><ele>1.0</ele><time>2026-05-02T19:42:47Z</time></trkpt><trkpt lat="45.52614357574754" lon="12.261850854766767"><ele>1.0</ele><time>2026-05-02T19:42:48Z</time></trkpt><trkpt lat="45.52593650005588" lon="12.261496862914575"><ele>1.5</ele><time>2026-05-02T19:42:49Z</time></trkpt><trkpt lat="45.525726407142095" lon="12.261140346859921"><ele>2.0</ele><time>2026-05-02T19:42:50Z</time></trkpt><trkpt lat="45.52550918959854" lon="12.260786966738102"><ele>2.0</ele><time>2026-05-02T19:42:51Z</time></trkpt><trkpt lat="45.52529636159811" lon="12.260437069101272"><ele>2.0</ele><time>2026-05-02T19:42:52Z</time></trkpt><trkpt lat="45.52508243108283" lon="12.260092627866998"><ele>2.5</ele><time>2026-05-02T19:42:53Z</time></trkpt><trkpt lat="45.524862475514134" lon="12.259751286675709"><ele>3.0</ele><time>2026-05-02T19:42:54Z</time></trkpt><trkpt lat="45.52463960444536" lon="12.259409601875907"><ele>2.5</ele><time>2026-05-02T19:42:55Z</time></trkpt><trkpt lat="45.52441794924701" lon="12.259067352994787"><ele>2.0</ele><time>2026-05-02T19:42:56Z</time></trkpt><trkpt lat="45.524195405974524" lon="12.258726467051442"><ele>1.5</ele><time>2026-05-02T19:42:57Z</time></trkpt><trkpt lat="45.523971027275664" lon="12.258389750873656"><ele>1.0</ele><time>2026-05-02T19:42:58Z</time></trkpt><trkpt lat="45.52374827575483" lon="12.258054768566787"><ele>1.0</ele><time>2026-05-02T19:42:59Z</time></trkpt><trkpt lat="45.5235210694532" lon="12.25772170814965"><ele>1.0</ele><time>2026-05-02T19:43:00Z</time></trkpt><trkpt lat="45.52329422265479" lon="12.257387861284766"><ele>0.5</ele><time>2026-05-02T19:43:01Z</time></trkpt><trkpt lat="45.52307177199625" lon="12.257057587897876"><ele>0.0</ele><time>2026-05-02T19:43:02Z</time></trkpt><trkpt lat="45.522842806612864" lon="12.256721348388425"><ele>1.0</ele><time>2026-05-02T19:43:03Z</time></trkpt><trkpt lat="45.522617235122794" lon="12.256389306175954"><ele>2.0</ele><time>2026-05-02T19:43:04Z</time></trkpt><trkpt lat="45.522386780892454" lon="12.256048757903494"><ele>2.0</ele><time>2026-05-02T19:43:05Z</time></trkpt><trkpt lat="45.52216217076742" lon="12.255711533441511"><ele>2.0</ele><time>2026-05-02T19:43:06Z</time></trkpt><trkpt lat="45.52193485960954" lon="12.255372067145968"><ele>2.0</ele><time>2026-05-02T19:43:07Z</time></trkpt><trkpt lat="45.521707160861425" lon="12.255033003284115"><ele>2.0</ele><time>2026-05-02T19:43:08Z</time></trkpt><trkpt lat="45.521481874906954" lon="12.254698947744645"><ele>1.5</ele><time>2026-05-02T19:43:09Z</time></trkpt><trkpt lat="45.52126228128237" lon="12.254361455422188"><ele>1.0</ele><time>2026-05-02T19:43:10Z</time></trkpt><trkpt lat="45.52103770130266" lon="12.254025451793236"><ele>3.0</ele><time>2026-05-02T19:43:11Z</time></trkpt><trkpt lat="45.52081525280182" lon="12.253690818147868"><ele>5.0</ele><time>2026-05-02T19:43:12Z</time></trkpt><trkpt lat="45.52059698097957" lon="12.25336298489899"><ele>5.0</ele><time>2026-05-02T19:43:13Z</time></trkpt><trkpt lat="45.52038069100505" lon="12.25303647980102"><ele>5.0</ele><time>2026-05-02T19:43:14Z</time></trkpt><trkpt lat="45.520169606199225" lon="12.252708988755975"><ele>5.0</ele><time>2026-05-02T19:43:15Z</time></trkpt><trkpt lat="45.51995743215555" lon="12.252384406776258"><ele>5.0</ele><time>2026-05-02T19:43:16Z</time></trkpt><trkpt lat="45.51974487391597" lon="12.252059063228632"><ele>5.0</ele><time>2026-05-02T19:43:17Z</time></trkpt><trkpt lat="45.51953254037754" lon="12.251737667525253"><ele>5.0</ele><time>2026-05-02T19:43:18Z</time></trkpt><trkpt lat="45.51931706165195" lon="12.251416553968538"><ele>4.5</ele><time>2026-05-02T19:43:19Z</time></trkpt><trkpt lat="45.51910385978398" lon="12.251090219426333"><ele>4.0</ele><time>2026-05-02T19:43:20Z</time></trkpt><trkpt lat="45.518894706573164" lon="12.250762220701992"><ele>4.5</ele><time>2026-05-02T19:43:21Z</time></trkpt><trkpt lat="45.51868618565452" lon="12.25042618172983"><ele>5.0</ele><time>2026-05-02T19:43:22Z</time></trkpt><trkpt lat="45.518482322725475" lon="12.250095506903275"><ele>4.0</ele><time>2026-05-02T19:43:23Z</time></trkpt><trkpt lat="45.51827712528154" lon="12.249761705627547"><ele>3.0</ele><time>2026-05-02T19:43:24Z</time></trkpt><trkpt lat="45.51807071409805" lon="12.249422470835134"><ele>3.0</ele><time>2026-05-02T19:43:25Z</time></trkpt><trkpt lat="45.517866733849544" lon="12.249084471548914"><ele>3.0</ele><time>2026-05-02T19:43:26Z</time></trkpt><trkpt lat="45.51766514929248" lon="12.248740376165268"><ele>3.0</ele><time>2026-05-02T19:43:27Z</time></trkpt><trkpt lat="45.51746751440101" lon="12.248394504496277"><ele>3.0</ele><time>2026-05-02T19:43:28Z</time></trkpt><trkpt lat="45.51726776535495" lon="12.248048203569365"><ele>4.0</ele><time>2026-05-02T19:43:29Z</time></trkpt><trkpt lat="45.51707415127013" lon="12.247700473912849"><ele>5.0</ele><time>2026-05-02T19:43:30Z</time></trkpt><trkpt lat="45.51687900131255" lon="12.247350330790765"><ele>5.0</ele><time>2026-05-02T19:43:31Z</time></trkpt><trkpt lat="45.516682991557474" lon="12.24699705835192"><ele>5.0</ele><time>2026-05-02T19:43:32Z</time></trkpt><trkpt lat="45.516486131098596" lon="12.2466372187461"><ele>4.5</ele><time>2026-05-02T19:43:33Z</time></trkpt><trkpt lat="45.51629560021858" lon="12.24628137770363"><ele>4.0</ele><time>2026-05-02T19:43:34Z</time></trkpt><trkpt lat="45.51610380631961" lon="12.245926760519424"><ele>5.5</ele><time>2026-05-02T19:43:35Z</time></trkpt><trkpt lat="45.515916581731624" lon="12.24557491589444"><ele>7.0</ele><time>2026-05-02T19:43:36Z</time></trkpt><trkpt lat="45.51573206620541" lon="12.245225602553436"><ele>7.0</ele><time>2026-05-02T19:43:37Z</time></trkpt><trkpt lat="45.515556583779485" lon="12.244883531922694"><ele>7.0</ele><time>2026-05-02T19:43:38Z</time></trkpt><trkpt lat="45.51538142207126" lon="12.24454196747368"><ele>7.0</ele><time>2026-05-02T19:43:39Z</time></trkpt><trkpt lat="45.51520948915192" lon="12.24420856195211"><ele>7.0</ele><time>2026-05-02T19:43:40Z</time></trkpt><trkpt lat="45.51503480662347" lon="12.243883378520252"><ele>6.0</ele><time>2026-05-02T19:43:41Z</time></trkpt><trkpt lat="45.51485805618033" lon="12.243566250339857"><ele>5.0</ele><time>2026-05-02T19:43:42Z</time></trkpt><trkpt lat="45.514677217547195" lon="12.243256447975336"><ele>4.5</ele><time>2026-05-02T19:43:43Z</time></trkpt><trkpt lat="45.514489075562985" lon="12.242946966346835"><ele>4.0</ele><time>2026-05-02T19:43:44Z</time></trkpt><trkpt lat="45.51429327461489" lon="12.242632746284496"><ele>4.0</ele><time>2026-05-02T19:43:45Z</time></trkpt><trkpt lat="45.514095535493446" lon="12.242319139200328"><ele>4.0</ele><time>2026-05-02T19:43:46Z</time></trkpt><trkpt lat="45.513905471139914" lon="12.242009505878249"><ele>4.0</ele><time>2026-05-02T19:43:47Z</time></trkpt><trkpt lat="45.51371616394682" lon="12.241705786526687"><ele>4.0</ele><time>2026-05-02T19:43:48Z</time></trkpt><trkpt lat="45.51352561236119" lon="12.241401921129244"><ele>4.5</ele><time>2026-05-02T19:43:49Z</time></trkpt><trkpt lat="45.51333893179967" lon="12.2411018340761"><ele>5.0</ele><time>2026-05-02T19:43:50Z</time></trkpt><trkpt lat="45.513155668525485" lon="12.240806497839651"><ele>5.0</ele><time>2026-05-02T19:43:51Z</time></trkpt><trkpt lat="45.512976521675846" lon="12.240510801193793"><ele>5.0</ele><time>2026-05-02T19:43:52Z</time></trkpt><trkpt lat="45.51279747865818" lon="12.24021959828098"><ele>5.5</ele><time>2026-05-02T19:43:53Z</time></trkpt><trkpt lat="45.51261914163545" lon="12.239933317526239"><ele>6.0</ele><time>2026-05-02T19:43:54Z</time></trkpt><trkpt lat="45.51244692464491" lon="12.239653471869467"><ele>6.0</ele><time>2026-05-02T19:43:55Z</time></trkpt><trkpt lat="45.512273461973614" lon="12.239374344847864"><ele>6.0</ele><time>2026-05-02T19:43:56Z</time></trkpt><trkpt lat="45.51210092498287" lon="12.239098022286562"><ele>5.0</ele><time>2026-05-02T19:43:57Z</time></trkpt><trkpt lat="45.51192675642423" lon="12.238818608553496"><ele>4.0</ele><time>2026-05-02T19:43:58Z</time></trkpt><trkpt lat="45.511756944413136" lon="12.2385419804252"><ele>4.0</ele><time>2026-05-02T19:43:59Z</time></trkpt><trkpt lat="45.51158409997629" lon="12.238269649784085"><ele>4.0</ele><time>2026-05-02T19:44:00Z</time></trkpt><trkpt lat="45.51140480759867" lon="12.238004756154126"><ele>4.5</ele><time>2026-05-02T19:44:01Z</time></trkpt><trkpt lat="45.51122234341293" lon="12.237750322913778"><ele>5.0</ele><time>2026-05-02T19:44:02Z</time></trkpt><trkpt lat="45.511037275577976" lon="12.237512786814799"><ele>3.5</ele><time>2026-05-02T19:44:03Z</time></trkpt><trkpt lat="45.510845217933856" lon="12.23728275425171"><ele>2.0</ele><time>2026-05-02T19:44:04Z</time></trkpt><trkpt lat="45.51065144929529" lon="12.237060045514683"><ele>2.0</ele><time>2026-05-02T19:44:05Z</time></trkpt><trkpt lat="45.51045495106913" lon="12.236853579021156"><ele>2.0</ele><time>2026-05-02T19:44:06Z</time></trkpt><trkpt lat="45.51025215687791" lon="12.236658028984584"><ele>2.0</ele><time>2026-05-02T19:44:07Z</time></trkpt><trkpt lat="45.51004620965986" lon="12.236479552341144"><ele>2.0</ele><time>2026-05-02T19:44:08Z</time></trkpt><trkpt lat="45.509839464861415" lon="12.236313523434221"><ele>2.0</ele><time>2026-05-02T19:44:09Z</time></trkpt><trkpt lat="45.50963283251181" lon="12.236162845753741"><ele>2.0</ele><time>2026-05-02T19:44:10Z</time></trkpt><trkpt lat="45.50942808103242" lon="12.236019789322514"><ele>2.0</ele><time>2026-05-02T19:44:11Z</time></trkpt><trkpt lat="45.509225910896006" lon="12.235886127099263"><ele>2.0</ele><time>2026-05-02T19:44:12Z</time></trkpt><trkpt lat="45.50902321260146" lon="12.235755302489466"><ele>2.0</ele><time>2026-05-02T19:44:13Z</time></trkpt><trkpt lat="45.508814824684535" lon="12.235630146257387"><ele>2.5</ele><time>2026-05-02T19:44:14Z</time></trkpt><trkpt lat="45.50860521561701" lon="12.235508028796035"><ele>3.0</ele><time>2026-05-02T19:44:15Z</time></trkpt><trkpt lat="45.50839231916988" lon="12.235382843836746"><ele>3.0</ele><time>2026-05-02T19:44:16Z</time></trkpt><trkpt lat="45.508179854852365" lon="12.23525475162907"><ele>3.0</ele><time>2026-05-02T19:44:17Z</time></trkpt><trkpt lat="45.50795975698822" lon="12.235126989843938"><ele>2.5</ele><time>2026-05-02T19:44:18Z</time></trkpt><trkpt lat="45.507739020496125" lon="12.234998853989975"><ele>2.0</ele><time>2026-05-02T19:44:19Z</time></trkpt><trkpt lat="45.50751053399766" lon="12.234865982748964"><ele>2.0</ele><time>2026-05-02T19:44:20Z</time></trkpt><trkpt lat="45.507273988744274" lon="12.2347307991028"><ele>2.0</ele><time>2026-05-02T19:44:21Z</time></trkpt><trkpt lat="45.507030874859765" lon="12.234593321594836"><ele>2.5</ele><time>2026-05-02T19:44:22Z</time></trkpt><trkpt lat="45.50678124889297" lon="12.23445218259728"><ele>3.0</ele><time>2026-05-02T19:44:23Z</time></trkpt><trkpt lat="45.50652430322148" lon="12.234305273887093"><ele>3.0</ele><time>2026-05-02T19:44:24Z</time></trkpt><trkpt lat="45.50626845387862" lon="12.23415589299559"><ele>3.0</ele><time>2026-05-02T19:44:25Z</time></trkpt><trkpt lat="45.50601260130258" lon="12.233995343044269"><ele>1.5</ele><time>2026-05-02T19:44:26Z</time></trkpt><trkpt lat="45.50575173740325" lon="12.233834726361465"><ele>0.0</ele><time>2026-05-02T19:44:27Z</time></trkpt><trkpt lat="45.50548909763456" lon="12.233664450697749"><ele>2.0</ele><time>2026-05-02T19:44:28Z</time></trkpt><trkpt lat="45.505230663672144" lon="12.233495853426337"><ele>4.0</ele><time>2026-05-02T19:44:29Z</time></trkpt><trkpt lat="45.504972264527886" lon="12.233330770408443"><ele>4.0</ele><time>2026-05-02T19:44:30Z</time></trkpt><trkpt lat="45.5047161167128" lon="12.23316802309047"><ele>4.0</ele><time>2026-05-02T19:44:31Z</time></trkpt><trkpt lat="45.50445428654883" lon="12.233006382010855"><ele>1.5</ele><time>2026-05-02T19:44:32Z</time></trkpt><trkpt lat="45.50419092322893" lon="12.232842534645803"><ele>-1.0</ele><time>2026-05-02T19:44:33Z</time></trkpt><trkpt lat="45.50392680899505" lon="12.232682785370253"><ele>0.0</ele><time>2026-05-02T19:44:34Z</time></trkpt><trkpt lat="45.503667009685" lon="12.232529180022349"><ele>1.0</ele><time>2026-05-02T19:44:35Z</time></trkpt><trkpt lat="45.50340319889696" lon="12.232382049864198"><ele>0.5</ele><time>2026-05-02T19:44:36Z</time></trkpt><trkpt lat="45.503141533125635" lon="12.232246776777384"><ele>0.0</ele><time>2026-05-02T19:44:37Z</time></trkpt><trkpt lat="45.5028780888567" lon="12.232121872352057"><ele>1.0</ele><time>2026-05-02T19:44:38Z</time></trkpt><trkpt lat="45.502613959809636" lon="12.232003321626767"><ele>2.0</ele><time>2026-05-02T19:44:39Z</time></trkpt><trkpt lat="45.50234791845222" lon="12.23189191012195"><ele>3.0</ele><time>2026-05-02T19:44:40Z</time></trkpt><trkpt lat="45.50207954351081" lon="12.231787933599177"><ele>4.0</ele><time>2026-05-02T19:44:41Z</time></trkpt><trkpt lat="45.50180542526867" lon="12.231687942074842"><ele>4.0</ele><time>2026-05-02T19:44:42Z</time></trkpt><trkpt lat="45.50153394630511" lon="12.231591040139609"><ele>4.0</ele><time>2026-05-02T19:44:43Z</time></trkpt><trkpt lat="45.50126552294809" lon="12.23149495750226"><ele>2.5</ele><time>2026-05-02T19:44:44Z</time></trkpt><trkpt lat="45.50099931643813" lon="12.231398207637337"><ele>1.0</ele><time>2026-05-02T19:44:45Z</time></trkpt><trkpt lat="45.5007348979378" lon="12.231301165399946"><ele>1.0</ele><time>2026-05-02T19:44:46Z</time></trkpt><trkpt lat="45.50047593098923" lon="12.231207570080743"><ele>1.0</ele><time>2026-05-02T19:44:47Z</time></trkpt><trkpt lat="45.500223235753325" lon="12.231116495790934"><ele>1.0</ele><time>2026-05-02T19:44:48Z</time></trkpt><trkpt lat="45.49996647294266" lon="12.231022157249837"><ele>1.0</ele><time>2026-05-02T19:44:49Z</time></trkpt><trkpt lat="45.49971259859741" lon="12.230929651420853"><ele>2.0</ele><time>2026-05-02T19:44:50Z</time></trkpt><trkpt lat="45.499464368144366" lon="12.230840241321793"><ele>3.0</ele><time>2026-05-02T19:44:51Z</time></trkpt><trkpt lat="45.49921997095658" lon="12.230739265196664"><ele>2.5</ele><time>2026-05-02T19:44:52Z</time></trkpt><trkpt lat="45.49897791609953" lon="12.23062879113495"><ele>2.0</ele><time>2026-05-02T19:44:53Z</time></trkpt><trkpt lat="45.49873963040625" lon="12.230501565854574"><ele>2.0</ele><time>2026-05-02T19:44:54Z</time></trkpt><trkpt lat="45.49849465183253" lon="12.230366960984242"><ele>2.0</ele><time>2026-05-02T19:44:55Z</time></trkpt><trkpt lat="45.498254391896424" lon="12.230214287675537"><ele>2.0</ele><time>2026-05-02T19:44:56Z</time></trkpt><trkpt lat="45.49801765006025" lon="12.230053907948138"><ele>2.0</ele><time>2026-05-02T19:44:57Z</time></trkpt><trkpt lat="45.49778427095632" lon="12.229884463154852"><ele>0.5</ele><time>2026-05-02T19:44:58Z</time></trkpt><trkpt lat="45.49756512126071" lon="12.229700105282197"><ele>-1.0</ele><time>2026-05-02T19:44:59Z</time></trkpt><trkpt lat="45.49735141425762" lon="12.2295080343292"><ele>-1.0</ele><time>2026-05-02T19:45:00Z</time></trkpt><trkpt lat="45.497140168178454" lon="12.229313463241729"><ele>-1.0</ele><time>2026-05-02T19:45:01Z</time></trkpt><trkpt lat="45.496935785411516" lon="12.229110697694658"><ele>-1.5</ele><time>2026-05-02T19:45:02Z</time></trkpt><trkpt lat="45.49674039948095" lon="12.228899660047514"><ele>-2.0</ele><time>2026-05-02T19:45:03Z</time></trkpt><trkpt lat="45.496551920617975" lon="12.228683375453365"><ele>-2.0</ele><time>2026-05-02T19:45:04Z</time></trkpt><trkpt lat="45.49636435657164" lon="12.228464658662594"><ele>-2.0</ele><time>2026-05-02T19:45:05Z</time></trkpt><trkpt lat="45.496184780937114" lon="12.22823525331384"><ele>-1.0</ele><time>2026-05-02T19:45:06Z</time></trkpt><trkpt lat="45.496003198611106" lon="12.228002246835837"><ele>0.0</ele><time>2026-05-02T19:45:07Z</time></trkpt><trkpt lat="45.49582512168191" lon="12.227770825459103"><ele>0.0</ele><time>2026-05-02T19:45:08Z</time></trkpt><trkpt lat="45.49564938417583" lon="12.22753976590541"><ele>0.0</ele><time>2026-05-02T19:45:09Z</time></trkpt><trkpt lat="45.49547444478529" lon="12.22731663324642"><ele>0.0</ele><time>2026-05-02T19:45:10Z</time></trkpt><trkpt lat="45.495297581234084" lon="12.22709955153082"><ele>0.0</ele><time>2026-05-02T19:45:11Z</time></trkpt><trkpt lat="45.495124689771366" lon="12.226886663283402"><ele>0.0</ele><time>2026-05-02T19:45:12Z</time></trkpt><trkpt lat="45.49495653486483" lon="12.226673337449625"><ele>0.0</ele><time>2026-05-02T19:45:13Z</time></trkpt><trkpt lat="45.494791807890785" lon="12.226459873211802"><ele>0.0</ele><time>2026-05-02T19:45:14Z</time></trkpt><trkpt lat="45.49462561961861" lon="12.226247747743056"><ele>0.0</ele><time>2026-05-02T19:45:15Z</time></trkpt><trkpt lat="45.49446673447622" lon="12.226038168987147"><ele>0.0</ele><time>2026-05-02T19:45:16Z</time></trkpt><trkpt lat="45.4943098757847" lon="12.225832276718327"><ele>0.0</ele><time>2026-05-02T19:45:17Z</time></trkpt><trkpt lat="45.49415764926198" lon="12.225628671918333"><ele>-0.3333333333333333</ele><time>2026-05-02T19:45:18Z</time></trkpt><trkpt lat="45.49400353979407" lon="12.22543715688505"><ele>-0.6666666666666666</ele><time>2026-05-02T19:45:19Z</time></trkpt><trkpt lat="45.49385627830722" lon="12.22524930366263"><ele>-1.0</ele><time>2026-05-02T19:45:20Z</time></trkpt><trkpt lat="45.49371525381465" lon="12.225062178556687"><ele>-0.3333333333333333</ele><time>2026-05-02T19:45:21Z</time></trkpt><trkpt lat="45.49357789963379" lon="12.224882559288805"><ele>0.3333333333333333</ele><time>2026-05-02T19:45:22Z</time></trkpt><trkpt lat="45.49344868501582" lon="12.224701089755206"><ele>1.0</ele><time>2026-05-02T19:45:23Z</time></trkpt><trkpt lat="45.49332735900953" lon="12.22452572489268"><ele>1.0</ele><time>2026-05-02T19:45:24Z</time></trkpt><trkpt lat="45.49320592309714" lon="12.224354961628208"><ele>1.0</ele><time>2026-05-02T19:45:25Z</time></trkpt><trkpt lat="45.49308817918301" lon="12.224189615202693"><ele>1.0</ele><time>2026-05-02T19:45:26Z</time></trkpt><trkpt lat="45.492972607778924" lon="12.224027254453608"><ele>1.6666666666666665</ele><time>2026-05-02T19:45:27Z</time></trkpt><trkpt lat="45.492858896162794" lon="12.223866963795397"><ele>2.3333333333333335</ele><time>2026-05-02T19:45:28Z</time></trkpt><trkpt lat="45.49274679943005" lon="12.223707627595648"><ele>3.0</ele><time>2026-05-02T19:45:29Z</time></trkpt><trkpt lat="45.49263759574008" lon="12.22354765744006"><ele>3.0</ele><time>2026-05-02T19:45:30Z</time></trkpt><trkpt lat="45.49252328406558" lon="12.223390719395773"><ele>3.0</ele><time>2026-05-02T19:45:31Z</time></trkpt><trkpt lat="45.492407459346275" lon="12.223235283730753"><ele>3.0</ele><time>2026-05-02T19:45:32Z</time></trkpt><trkpt lat="45.49228541531953" lon="12.2230823043003"><ele>3.0</ele><time>2026-05-02T19:45:33Z</time></trkpt><trkpt lat="45.49215029555729" lon="12.222938917535554"><ele>3.0</ele><time>2026-05-02T19:45:34Z</time></trkpt><trkpt lat="45.492025285933536" lon="12.222787444553015"><ele>3.0</ele><time>2026-05-02T19:45:35Z</time></trkpt><trkpt lat="45.49189738582877" lon="12.222643337330213"><ele>3.333333333333333</ele><time>2026-05-02T19:45:36Z</time></trkpt><trkpt lat="45.49177123192244" lon="12.222496226141558"><ele>3.6666666666666665</ele><time>2026-05-02T19:45:37Z</time></trkpt><trkpt lat="45.491644521071116" lon="12.222359776419466"><ele>4.0</ele><time>2026-05-02T19:45:38Z</time></trkpt><trkpt lat="45.49152032349529" lon="12.222235459376222"><ele>4.0</ele><time>2026-05-02T19:45:39Z</time></trkpt><trkpt lat="45.49140225724015" lon="12.222111220690934"><ele>4.0</ele><time>2026-05-02T19:45:40Z</time></trkpt><trkpt lat="45.491284250332896" lon="12.221991549485173"><ele>4.0</ele><time>2026-05-02T19:45:41Z</time></trkpt><trkpt lat="45.49116392137799" lon="12.221871094650842"><ele>4.0</ele><time>2026-05-02T19:45:42Z</time></trkpt><trkpt lat="45.49103677851543" lon="12.221758251203708"><ele>4.0</ele><time>2026-05-02T19:45:43Z</time></trkpt><trkpt lat="45.49091118810896" lon="12.221650455727918"><ele>4.0</ele><time>2026-05-02T19:45:44Z</time></trkpt><trkpt lat="45.4907961077461" lon="12.221541852235834"><ele>4.0</ele><time>2026-05-02T19:45:45Z</time></trkpt><trkpt lat="45.49067682732045" lon="12.221435405551567"><ele>4.0</ele><time>2026-05-02T19:45:46Z</time></trkpt><trkpt lat="45.49055851313486" lon="12.221343725518453"><ele>4.0</ele><time>2026-05-02T19:45:47Z</time></trkpt><trkpt lat="45.49043944720935" lon="12.221251100262831"><ele>4.0</ele><time>2026-05-02T19:45:48Z</time></trkpt><trkpt lat="45.490319509740466" lon="12.221158595433401"><ele>4.0</ele><time>2026-05-02T19:45:49Z</time></trkpt><trkpt lat="45.490209479253124" lon="12.221070180181567"><ele>4.0</ele><time>2026-05-02T19:45:50Z</time></trkpt><trkpt lat="45.490098341247815" lon="12.221000215777805"><ele>4.0</ele><time>2026-05-02T19:45:51Z</time></trkpt><trkpt lat="45.48999831837062" lon="12.220927558573553"><ele>4.0</ele><time>2026-05-02T19:45:52Z</time></trkpt><trkpt lat="45.489900493229946" lon="12.220864999581977"><ele>4.0</ele><time>2026-05-02T19:45:53Z</time></trkpt><trkpt lat="45.48980327345944" lon="12.220785847044917"><ele>4.0</ele><time>2026-05-02T19:45:54Z</time></trkpt><trkpt lat="45.48971044702923" lon="12.220715685969346"><ele>4.0</ele><time>2026-05-02T19:45:55Z</time></trkpt><trkpt lat="45.489613849019925" lon="12.220644627321354"><ele>4.2</ele><time>2026-05-02T19:45:56Z</time></trkpt><trkpt lat="45.48952820125499" lon="12.22057017259856"><ele>4.4</ele><time>2026-05-02T19:45:57Z</time></trkpt><trkpt lat="45.48944713495334" lon="12.220486832289875"><ele>4.6</ele><time>2026-05-02T19:45:58Z</time></trkpt><trkpt lat="45.48941552522252" lon="12.22034172996332"><ele>4.8</ele><time>2026-05-02T19:45:59Z</time></trkpt><trkpt lat="45.48937687550076" lon="12.220211543068748"><ele>5.0</ele><time>2026-05-02T19:46:00Z</time></trkpt><trkpt lat="45.4893411785254" lon="12.220092754455917"><ele>5.0</ele><time>2026-05-02T19:46:01Z</time></trkpt><trkpt lat="45.48929560056262" lon="12.21998104414065"><ele>5.0</ele><time>2026-05-02T19:46:02Z</time></trkpt><trkpt lat="45.48924369040904" lon="12.219880209924906"><ele>5.0</ele><time>2026-05-02T19:46:03Z</time></trkpt><trkpt lat="45.48918534506813" lon="12.219797097991245"><ele>5.0</ele><time>2026-05-02T19:46:04Z</time></trkpt><trkpt lat="45.489108781847015" lon="12.219731774024538"><ele>5.0</ele><time>2026-05-02T19:46:05Z</time></trkpt><trkpt lat="45.4890257573387" lon="12.219682466295692"><ele>5.0</ele><time>2026-05-02T19:46:06Z</time></trkpt><trkpt lat="45.48893837322569" lon="12.219648218955951"><ele>4.6</ele><time>2026-05-02T19:46:07Z</time></trkpt><trkpt lat="45.48884184559492" lon="12.219629939626628"><ele>4.2</ele><time>2026-05-02T19:46:08Z</time></trkpt><trkpt lat="45.488745767535285" lon="12.219646448356304"><ele>3.8</ele><time>2026-05-02T19:46:09Z</time></trkpt><trkpt lat="45.488647174726445" lon="12.219673956194262"><ele>3.4</ele><time>2026-05-02T19:46:10Z</time></trkpt><trkpt lat="45.48855138029876" lon="12.219717713039906"><ele>3.0</ele><time>2026-05-02T19:46:11Z</time></trkpt><trkpt lat="45.48846101219081" lon="12.219783734104151"><ele>3.0</ele><time>2026-05-02T19:46:12Z</time></trkpt><trkpt lat="45.48838315328784" lon="12.219840034086465"><ele>3.0</ele><time>2026-05-02T19:46:13Z</time></trkpt><trkpt lat="45.48831006862439" lon="12.219847971304374"><ele>3.0</ele><time>2026-05-02T19:46:14Z</time></trkpt><trkpt lat="45.48823355897755" lon="12.219851939268727"><ele>3.0</ele><time>2026-05-02T19:46:15Z</time></trkpt><trkpt lat="45.4881495812635" lon="12.219834689796288"><ele>3.0</ele><time>2026-05-02T19:46:16Z</time></trkpt><trkpt lat="45.48805952304745" lon="12.21980499545865"><ele>3.0</ele><time>2026-05-02T19:46:17Z</time></trkpt><trkpt lat="45.487956603449135" lon="12.219773778281782"><ele>2.75</ele><time>2026-05-02T19:46:18Z</time></trkpt><trkpt lat="45.48784797716481" lon="12.219738413761197"><ele>2.5</ele><time>2026-05-02T19:46:19Z</time></trkpt><trkpt lat="45.4877336237615" lon="12.219697850250071"><ele>2.25</ele><time>2026-05-02T19:46:20Z</time></trkpt><trkpt lat="45.487616405195965" lon="12.21965773732135"><ele>2.0</ele><time>2026-05-02T19:46:21Z</time></trkpt><trkpt lat="45.48749572676164" lon="12.219621002482981"><ele>2.0</ele><time>2026-05-02T19:46:22Z</time></trkpt><trkpt lat="45.48737914102852" lon="12.219573397009682"><ele>2.0</ele><time>2026-05-02T19:46:23Z</time></trkpt><trkpt lat="45.48724938072869" lon="12.219524047690175"><ele>2.0</ele><time>2026-05-02T19:46:24Z</time></trkpt><trkpt lat="45.48711994625034" lon="12.219475831472947"><ele>2.0</ele><time>2026-05-02T19:46:25Z</time></trkpt><trkpt lat="45.48699561593269" lon="12.219434181793579"><ele>2.5</ele><time>2026-05-02T19:46:26Z</time></trkpt><trkpt lat="45.48687650506518" lon="12.219390257527236"><ele>3.0</ele><time>2026-05-02T19:46:27Z</time></trkpt><trkpt lat="45.48676021980618" lon="12.219352497638239"><ele>3.5</ele><time>2026-05-02T19:46:28Z</time></trkpt><trkpt lat="45.48664674020762" lon="12.219316813347616"><ele>4.0</ele><time>2026-05-02T19:46:29Z</time></trkpt><trkpt lat="45.48653639364143" lon="12.219280868770069"><ele>4.0</ele><time>2026-05-02T19:46:30Z</time></trkpt><trkpt lat="45.486429481980245" lon="12.2192520645019"><ele>4.0</ele><time>2026-05-02T19:46:31Z</time></trkpt><trkpt lat="45.486324116562486" lon="12.219216334389596"><ele>4.0</ele><time>2026-05-02T19:46:32Z</time></trkpt><trkpt lat="45.486221700782735" lon="12.219182575165352"><ele>4.0</ele><time>2026-05-02T19:46:33Z</time></trkpt><trkpt lat="45.48612904606328" lon="12.21914683413299"><ele>4.0</ele><time>2026-05-02T19:46:34Z</time></trkpt><trkpt lat="45.4860371322065" lon="12.219120385682341"><ele>4.0</ele><time>2026-05-02T19:46:35Z</time></trkpt><trkpt lat="45.48596129075972" lon="12.21910095993065"><ele>4.0</ele><time>2026-05-02T19:46:36Z</time></trkpt><trkpt lat="45.485856382476655" lon="12.219066024342853"><ele>4.0</ele><time>2026-05-02T19:46:38Z</time></trkpt><trkpt lat="45.48575886391362" lon="12.219068114845754"><ele>4.0</ele><time>2026-05-02T19:46:41Z</time></trkpt><trkpt lat="45.48571733390004" lon="12.21896904303063"><ele>4.0</ele><time>2026-05-02T19:46:43Z</time></trkpt><trkpt lat="45.48570338988677" lon="12.21883301354628"><ele>3.833333333333333</ele><time>2026-05-02T19:46:45Z</time></trkpt><trkpt lat="45.48570574788926" lon="12.218728705049383"><ele>3.6666666666666665</ele><time>2026-05-02T19:46:46Z</time></trkpt><trkpt lat="45.48569863436836" lon="12.218618212496796"><ele>3.5</ele><time>2026-05-02T19:46:47Z</time></trkpt><trkpt lat="45.4856928349311" lon="12.21850068617329"><ele>3.333333333333333</ele><time>2026-05-02T19:46:48Z</time></trkpt><trkpt lat="45.48568715687532" lon="12.218388507509475"><ele>3.1666666666666665</ele><time>2026-05-02T19:46:49Z</time></trkpt><trkpt lat="45.485679471833066" lon="12.218274105130158"><ele>3.0</ele><time>2026-05-02T19:46:50Z</time></trkpt><trkpt lat="45.48567260381491" lon="12.218157746445799"><ele>3.4</ele><time>2026-05-02T19:46:51Z</time></trkpt><trkpt lat="45.48566707140732" lon="12.218029274349119"><ele>3.8</ele><time>2026-05-02T19:46:52Z</time></trkpt><trkpt lat="45.485658575091534" lon="12.21790010471772"><ele>4.2</ele><time>2026-05-02T19:46:53Z</time></trkpt><trkpt lat="45.48564751876824" lon="12.21776289077738"><ele>4.6</ele><time>2026-05-02T19:46:54Z</time></trkpt><trkpt lat="45.48563075335722" lon="12.217616780210225"><ele>5.0</ele><time>2026-05-02T19:46:55Z</time></trkpt><trkpt lat="45.48562042139099" lon="12.217473884117826"><ele>5.0</ele><time>2026-05-02T19:46:56Z</time></trkpt><trkpt lat="45.485611989288486" lon="12.217323915231315"><ele>5.0</ele><time>2026-05-02T19:46:57Z</time></trkpt><trkpt lat="45.4856049092278" lon="12.217176085872998"><ele>5.0</ele><time>2026-05-02T19:46:58Z</time></trkpt><trkpt lat="45.4855952824689" lon="12.21702951625441"><ele>5.0</ele><time>2026-05-02T19:46:59Z</time></trkpt><trkpt lat="45.48558647874649" lon="12.21687713249311"><ele>5.0</ele><time>2026-05-02T19:47:00Z</time></trkpt><trkpt lat="45.4855756151272" lon="12.216718267641289"><ele>4.75</ele><time>2026-05-02T19:47:01Z</time></trkpt><trkpt lat="45.485560453876026" lon="12.216570287007057"><ele>4.5</ele><time>2026-05-02T19:47:02Z</time></trkpt><trkpt lat="45.48554933454921" lon="12.216406893353275"><ele>4.25</ele><time>2026-05-02T19:47:03Z</time></trkpt><trkpt lat="45.48554168372797" lon="12.216244891813817"><ele>4.0</ele><time>2026-05-02T19:47:04Z</time></trkpt><trkpt lat="45.48553549146777" lon="12.216067033851287"><ele>4.0</ele><time>2026-05-02T19:47:05Z</time></trkpt><trkpt lat="45.48552373270367" lon="12.215893768090366"><ele>4.0</ele><time>2026-05-02T19:47:06Z</time></trkpt><trkpt lat="45.485506867605395" lon="12.215723172068413"><ele>4.0</ele><time>2026-05-02T19:47:07Z</time></trkpt><trkpt lat="45.48550277114124" lon="12.215551045767244"><ele>4.0</ele><time>2026-05-02T19:47:08Z</time></trkpt><trkpt lat="45.48550032747101" lon="12.215376128207712"><ele>3.5</ele><time>2026-05-02T19:47:09Z</time></trkpt><trkpt lat="45.48548883513665" lon="12.21519371209653"><ele>3.0</ele><time>2026-05-02T19:47:10Z</time></trkpt><trkpt lat="45.48547657413689" lon="12.215022845036762"><ele>2.5</ele><time>2026-05-02T19:47:11Z</time></trkpt><trkpt lat="45.48546314932423" lon="12.214846774567008"><ele>2.0</ele><time>2026-05-02T19:47:12Z</time></trkpt><trkpt lat="45.48545717730958" lon="12.214667731224347"><ele>2.0</ele><time>2026-05-02T19:47:13Z</time></trkpt><trkpt lat="45.485446765933055" lon="12.214496832799329"><ele>2.0</ele><time>2026-05-02T19:47:14Z</time></trkpt><trkpt lat="45.48543695391895" lon="12.214318821513707"><ele>2.0</ele><time>2026-05-02T19:47:15Z</time></trkpt><trkpt lat="45.48542606556709" lon="12.214151839260174"><ele>2.0</ele><time>2026-05-02T19:47:16Z</time></trkpt><trkpt lat="45.48541330783851" lon="12.213984142288298"><ele>2.25</ele><time>2026-05-02T19:47:17Z</time></trkpt><trkpt lat="45.485414002128834" lon="12.213814562177777"><ele>2.5</ele><time>2026-05-02T19:47:18Z</time></trkpt><trkpt lat="45.48538203197477" lon="12.213631683267693"><ele>2.75</ele><time>2026-05-02T19:47:19Z</time></trkpt><trkpt lat="45.48536673799231" lon="12.213455982173343"><ele>3.0</ele><time>2026-05-02T19:47:20Z</time></trkpt><trkpt lat="45.485345247722286" lon="12.213275385089462"><ele>3.5</ele><time>2026-05-02T19:47:21Z</time></trkpt><trkpt lat="45.48532562315669" lon="12.213102053197662"><ele>4.0</ele><time>2026-05-02T19:47:22Z</time></trkpt><trkpt lat="45.48530946485047" lon="12.212942723645442"><ele>4.5</ele><time>2026-05-02T19:47:23Z</time></trkpt><trkpt lat="45.48529073078054" lon="12.212781784005738"><ele>5.0</ele><time>2026-05-02T19:47:24Z</time></trkpt><trkpt lat="45.48530126781713" lon="12.212632701422422"><ele>5.0</ele><time>2026-05-02T19:47:25Z</time></trkpt><trkpt lat="45.48529162264429" lon="12.212471272497792"><ele>5.0</ele><time>2026-05-02T19:47:26Z</time></trkpt><trkpt lat="45.48528324307095" lon="12.212317747863931"><ele>5.0</ele><time>2026-05-02T19:47:27Z</time></trkpt><trkpt lat="45.48527282014162" lon="12.21216578230152"><ele>5.0</ele><time>2026-05-02T19:47:28Z</time></trkpt><trkpt lat="45.48524887348021" lon="12.212017828575505"><ele>5.0</ele><time>2026-05-02T19:47:29Z</time></trkpt><trkpt lat="45.48524284289499" lon="12.211889329053328"><ele>5.0</ele><time>2026-05-02T19:47:30Z</time></trkpt><trkpt lat="45.48521992407197" lon="12.211740432492462"><ele>5.0</ele><time>2026-05-02T19:47:31Z</time></trkpt><trkpt lat="45.48522761873628" lon="12.211626568402801"><ele>5.0</ele><time>2026-05-02T19:47:32Z</time></trkpt><trkpt lat="45.48520966886327" lon="12.211496138438376"><ele>5.0</ele><time>2026-05-02T19:47:33Z</time></trkpt><trkpt lat="45.4851985848889" lon="12.211367250187982"><ele>5.0</ele><time>2026-05-02T19:47:34Z</time></trkpt><trkpt lat="45.48518658798159" lon="12.211246162046864"><ele>5.0</ele><time>2026-05-02T19:47:35Z</time></trkpt><trkpt lat="45.485173086343885" lon="12.211127479825269"><ele>5.0</ele><time>2026-05-02T19:47:36Z</time></trkpt><trkpt lat="45.48515685910073" lon="12.211028672913528"><ele>5.0</ele><time>2026-05-02T19:47:37Z</time></trkpt><trkpt lat="45.48514037665046" lon="12.210940941500793"><ele>5.0</ele><time>2026-05-02T19:47:38Z</time></trkpt><trkpt lat="45.48512323554036" lon="12.210792282721842"><ele>5.0</ele><time>2026-05-02T19:47:40Z</time></trkpt><trkpt lat="45.48510502078263" lon="12.210651274722334"><ele>5.0</ele><time>2026-05-02T19:47:42Z</time></trkpt><trkpt lat="45.48507356070324" lon="12.210569113264699"><ele>5.0</ele><time>2026-05-02T19:47:44Z</time></trkpt><trkpt lat="45.485001278220246" lon="12.210570100791806"><ele>5.0</ele><time>2026-05-02T19:47:48Z</time></trkpt><trkpt lat="45.48502488877107" lon="12.210654836520142"><ele>5.0</ele><time>2026-05-02T19:48:07Z</time></trkpt><trkpt lat="45.48503543895327" lon="12.210752696868818"><ele>5.0</ele><time>2026-05-02T19:48:27Z</time></trkpt><trkpt lat="45.48495668728673" lon="12.210713527254933"><ele>5.0</ele><time>2026-05-02T19:49:25Z</time></trkpt><trkpt lat="45.48501337661921" lon="12.210669055089062"><ele>5.0</ele><time>2026-05-02T19:49:35Z</time></trkpt><trkpt lat="45.485076954702805" lon="12.21061562942596"><ele>5.0</ele><time>2026-05-02T19:49:43Z</time></trkpt><trkpt lat="45.48510309001719" lon="12.210738862491734"><ele>5.0</ele><time>2026-05-02T19:55:36Z</time></trkpt><trkpt lat="45.48510486201415" lon="12.210839642211416"><ele>5.0</ele><time>2026-05-02T19:55:38Z</time></trkpt><trkpt lat="45.4851435241861" lon="12.2109205014018"><ele>5.0</ele><time>2026-05-02T19:55:42Z</time></trkpt><trkpt lat="45.4851911586409" lon="12.211129656221157"><ele>5.0</ele><time>2026-05-02T19:55:53Z</time></trkpt><trkpt lat="45.4851963067811" lon="12.211273377945345"><ele>5.0</ele><time>2026-05-02T19:55:55Z</time></trkpt><trkpt lat="45.4852053863612" lon="12.211373094146296"><ele>5.0</ele><time>2026-05-02T19:55:56Z</time></trkpt><trkpt lat="45.48520790087431" lon="12.211492130106887"><ele>5.0</ele><time>2026-05-02T19:55:57Z</time></trkpt><trkpt lat="45.48521914649428" lon="12.211620999185804"><ele>5.0</ele><time>2026-05-02T19:55:58Z</time></trkpt><trkpt lat="45.48522324522645" lon="12.211751684198639"><ele>5.0</ele><time>2026-05-02T19:55:59Z</time></trkpt><trkpt lat="45.485228472350606" lon="12.211875541569459"><ele>5.0</ele><time>2026-05-02T19:56:00Z</time></trkpt><trkpt lat="45.48523700382099" lon="12.212005332516698"><ele>5.0</ele><time>2026-05-02T19:56:01Z</time></trkpt><trkpt lat="45.48524074871651" lon="12.212133014931073"><ele>5.0</ele><time>2026-05-02T19:56:02Z</time></trkpt><trkpt lat="45.485253481607245" lon="12.21227064313029"><ele>5.0</ele><time>2026-05-02T19:56:03Z</time></trkpt><trkpt lat="45.48526526559181" lon="12.212418064801128"><ele>5.0</ele><time>2026-05-02T19:56:04Z</time></trkpt><trkpt lat="45.485275644704664" lon="12.212572875784224"><ele>5.0</ele><time>2026-05-02T19:56:05Z</time></trkpt><trkpt lat="45.48528780312998" lon="12.2127335786287"><ele>5.0</ele><time>2026-05-02T19:56:06Z</time></trkpt><trkpt lat="45.485297298950215" lon="12.212896460753202"><ele>5.0</ele><time>2026-05-02T19:56:07Z</time></trkpt><trkpt lat="45.48531031737854" lon="12.213060845045534"><ele>5.0</ele><time>2026-05-02T19:56:08Z</time></trkpt><trkpt lat="45.48531915418633" lon="12.213216933502197"><ele>5.0</ele><time>2026-05-02T19:56:09Z</time></trkpt><trkpt lat="45.48532953878562" lon="12.213390147289573"><ele>5.0</ele><time>2026-05-02T19:56:10Z</time></trkpt><trkpt lat="45.48533907713259" lon="12.213568340183672"><ele>4.5</ele><time>2026-05-02T19:56:11Z</time></trkpt><trkpt lat="45.48535908649869" lon="12.213734979796842"><ele>4.0</ele><time>2026-05-02T19:56:12Z</time></trkpt><trkpt lat="45.48536498227264" lon="12.2139081867945"><ele>3.5</ele><time>2026-05-02T19:56:13Z</time></trkpt><trkpt lat="45.48537860469559" lon="12.214065944654232"><ele>3.0</ele><time>2026-05-02T19:56:14Z</time></trkpt><trkpt lat="45.485382067391605" lon="12.214219293521545"><ele>2.8</ele><time>2026-05-02T19:56:15Z</time></trkpt><trkpt lat="45.485394856841666" lon="12.214372243474326"><ele>2.5999999999999996</ele><time>2026-05-02T19:56:16Z</time></trkpt><trkpt lat="45.48540820552461" lon="12.214518669490147"><ele>2.4000000000000004</ele><time>2026-05-02T19:56:17Z</time></trkpt><trkpt lat="45.48542376828235" lon="12.2146636049338"><ele>2.2</ele><time>2026-05-02T19:56:18Z</time></trkpt><trkpt lat="45.48541807051477" lon="12.214830865635479"><ele>2.0</ele><time>2026-05-02T19:56:19Z</time></trkpt><trkpt lat="45.48543244317285" lon="12.214997415043808"><ele>2.0</ele><time>2026-05-02T19:56:20Z</time></trkpt><trkpt lat="45.48545263666296" lon="12.215189350397578"><ele>2.0</ele><time>2026-05-02T19:56:21Z</time></trkpt><trkpt lat="45.48546609509572" lon="12.215363899746299"><ele>2.0</ele><time>2026-05-02T19:56:22Z</time></trkpt><trkpt lat="45.48548318915109" lon="12.215541898999989"><ele>2.0</ele><time>2026-05-02T19:56:23Z</time></trkpt><trkpt lat="45.4854964227783" lon="12.215709335832303"><ele>2.5</ele><time>2026-05-02T19:56:24Z</time></trkpt><trkpt lat="45.48550935827029" lon="12.215877499830256"><ele>3.0</ele><time>2026-05-02T19:56:25Z</time></trkpt><trkpt lat="45.485522393485944" lon="12.216046154629357"><ele>3.5</ele><time>2026-05-02T19:56:26Z</time></trkpt><trkpt lat="45.485524882522824" lon="12.216203179865579"><ele>4.0</ele><time>2026-05-02T19:56:27Z</time></trkpt><trkpt lat="45.485532450295096" lon="12.216353541533595"><ele>4.0</ele><time>2026-05-02T19:56:28Z</time></trkpt><trkpt lat="45.48553054080705" lon="12.216498886460457"><ele>4.0</ele><time>2026-05-02T19:56:29Z</time></trkpt><trkpt lat="45.4855396413027" lon="12.21665994836"><ele>4.0</ele><time>2026-05-02T19:56:30Z</time></trkpt><trkpt lat="45.48555693628124" lon="12.216829838225012"><ele>4.0</ele><time>2026-05-02T19:56:31Z</time></trkpt><trkpt lat="45.48556877970286" lon="12.216996122069203"><ele>4.0</ele><time>2026-05-02T19:56:32Z</time></trkpt><trkpt lat="45.48558822796439" lon="12.217158799882968"><ele>4.0</ele><time>2026-05-02T19:56:33Z</time></trkpt><trkpt lat="45.48560010886239" lon="12.217339847266267"><ele>4.0</ele><time>2026-05-02T19:56:34Z</time></trkpt><trkpt lat="45.485601665565014" lon="12.21750932820322"><ele>4.0</ele><time>2026-05-02T19:56:35Z</time></trkpt><trkpt lat="45.48561117980134" lon="12.217669960568037"><ele>4.2</ele><time>2026-05-02T19:56:36Z</time></trkpt><trkpt lat="45.48562220510787" lon="12.217823730646476"><ele>4.4</ele><time>2026-05-02T19:56:37Z</time></trkpt><trkpt lat="45.48563009019201" lon="12.217977202753783"><ele>4.6</ele><time>2026-05-02T19:56:38Z</time></trkpt><trkpt lat="45.48563635390643" lon="12.218123092761116"><ele>4.8</ele><time>2026-05-02T19:56:39Z</time></trkpt><trkpt lat="45.485641351718904" lon="12.218262391503925"><ele>5.0</ele><time>2026-05-02T19:56:40Z</time></trkpt><trkpt lat="45.48564309988629" lon="12.21839132568864"><ele>4.833333333333334</ele><time>2026-05-02T19:56:41Z</time></trkpt><trkpt lat="45.48565785273209" lon="12.21852291977871"><ele>4.666666666666667</ele><time>2026-05-02T19:56:42Z</time></trkpt><trkpt lat="45.48566619962359" lon="12.218641857181574"><ele>4.5</ele><time>2026-05-02T19:56:43Z</time></trkpt><trkpt lat="45.48566313938332" lon="12.21873483380534"><ele>4.333333333333333</ele><time>2026-05-02T19:56:44Z</time></trkpt><trkpt lat="45.48566977509765" lon="12.218835922974899"><ele>4.166666666666666</ele><time>2026-05-02T19:56:45Z</time></trkpt><trkpt lat="45.48567729373443" lon="12.218943015175066"><ele>4.0</ele><time>2026-05-02T19:56:46Z</time></trkpt><trkpt lat="45.48568315855631" lon="12.21904062063418"><ele>4.0</ele><time>2026-05-02T19:56:47Z</time></trkpt><trkpt lat="45.48569024595893" lon="12.219142134771715"><ele>3.9999999999999996</ele><time>2026-05-02T19:56:48Z</time></trkpt><trkpt lat="45.48571151177943" lon="12.219247768424308"><ele>4.0</ele><time>2026-05-02T19:56:49Z</time></trkpt><trkpt lat="45.48572469412769" lon="12.219347596184816"><ele>4.0</ele><time>2026-05-02T19:56:50Z</time></trkpt><trkpt lat="45.48574352310938" lon="12.219442303917242"><ele>3.9999999999999996</ele><time>2026-05-02T19:56:51.013Z</time></trkpt><trkpt lat="45.48576109024355" lon="12.219537599379914"><ele>4.0</ele><time>2026-05-02T19:56:52.023Z</time></trkpt><trkpt lat="45.48577647983756" lon="12.219632004247977"><ele>4.0</ele><time>2026-05-02T19:56:53Z</time></trkpt><trkpt lat="45.485794437604994" lon="12.219721936723614"><ele>3.9999999999999996</ele><time>2026-05-02T19:56:54Z</time></trkpt><trkpt lat="45.4858253018121" lon="12.219806923223683"><ele>4.0</ele><time>2026-05-02T19:56:55Z</time></trkpt><trkpt lat="45.48584077485679" lon="12.219895699140102"><ele>4.0</ele><time>2026-05-02T19:56:56Z</time></trkpt><trkpt lat="45.485882450457055" lon="12.220012597554105"><ele>4.0</ele><time>2026-05-02T19:56:58Z</time></trkpt><trkpt lat="45.48594375271726" lon="12.220051224820496"><ele>3.9999999999999996</ele><time>2026-05-02T19:57:00Z</time></trkpt><trkpt lat="45.48602004260248" lon="12.219967723906919"><ele>4.0</ele><time>2026-05-02T19:57:02Z</time></trkpt><trkpt lat="45.48611345860446" lon="12.219862086728234"><ele>3.9999999999999996</ele><time>2026-05-02T19:57:04Z</time></trkpt><trkpt lat="45.48618537610031" lon="12.219840100463948"><ele>4.0</ele><time>2026-05-02T19:57:05Z</time></trkpt><trkpt lat="45.48626538504029" lon="12.21985253472462"><ele>4.0</ele><time>2026-05-02T19:57:06Z</time></trkpt><trkpt lat="45.48634682520137" lon="12.219874674095102"><ele>4.0</ele><time>2026-05-02T19:57:07Z</time></trkpt><trkpt lat="45.486440709481485" lon="12.219910328280331"><ele>3.9999999999999996</ele><time>2026-05-02T19:57:08Z</time></trkpt><trkpt lat="45.486540622885705" lon="12.219949333380237"><ele>4.0</ele><time>2026-05-02T19:57:09Z</time></trkpt><trkpt lat="45.486652713330514" lon="12.21998877296873"><ele>4.0</ele><time>2026-05-02T19:57:10Z</time></trkpt><trkpt lat="45.48676269646067" lon="12.220021079886504"><ele>4.0</ele><time>2026-05-02T19:57:11Z</time></trkpt><trkpt lat="45.486872099210046" lon="12.220047383426266"><ele>4.0</ele><time>2026-05-02T19:57:12Z</time></trkpt><trkpt lat="45.486981805191505" lon="12.220086496254252"><ele>4.0</ele><time>2026-05-02T19:57:13Z</time></trkpt><trkpt lat="45.48710179628029" lon="12.220119075000198"><ele>4.0</ele><time>2026-05-02T19:57:14Z</time></trkpt><trkpt lat="45.4872256249184" lon="12.220149743545687"><ele>4.0</ele><time>2026-05-02T19:57:15Z</time></trkpt><trkpt lat="45.48734146220214" lon="12.22018688379654"><ele>4.0</ele><time>2026-05-02T19:57:16Z</time></trkpt><trkpt lat="45.48745014797539" lon="12.2202239317133"><ele>4.0</ele><time>2026-05-02T19:57:17Z</time></trkpt><trkpt lat="45.48755654821885" lon="12.220259841236745"><ele>4.0</ele><time>2026-05-02T19:57:18Z</time></trkpt><trkpt lat="45.48767736847733" lon="12.220289213811089"><ele>4.0</ele><time>2026-05-02T19:57:19Z</time></trkpt><trkpt lat="45.48776581251175" lon="12.220339666555292"><ele>4.0</ele><time>2026-05-02T19:57:20Z</time></trkpt><trkpt lat="45.48784932679028" lon="12.220389364295562"><ele>4.0</ele><time>2026-05-02T19:57:21Z</time></trkpt><trkpt lat="45.4879395974415" lon="12.220442704385672"><ele>4.0</ele><time>2026-05-02T19:57:22Z</time></trkpt><trkpt lat="45.488031677558745" lon="12.22052221330777"><ele>3.8000000000000003</ele><time>2026-05-02T19:57:23Z</time></trkpt><trkpt lat="45.48810625974199" lon="12.220617001909188"><ele>3.6000000000000005</ele><time>2026-05-02T19:57:24Z</time></trkpt><trkpt lat="45.48817681697459" lon="12.220734380492042"><ele>3.4</ele><time>2026-05-02T19:57:25Z</time></trkpt><trkpt lat="45.48823924088117" lon="12.220868677843086"><ele>3.2</ele><time>2026-05-02T19:57:26Z</time></trkpt><trkpt lat="45.48830057379081" lon="12.220988638081778"><ele>3.0</ele><time>2026-05-02T19:57:27Z</time></trkpt><trkpt lat="45.48838422821712" lon="12.221080808984228"><ele>3.0</ele><time>2026-05-02T19:57:28Z</time></trkpt><trkpt lat="45.48847728144772" lon="12.221158235940182"><ele>3.0</ele><time>2026-05-02T19:57:29Z</time></trkpt><trkpt lat="45.48857492349931" lon="12.221222594534371"><ele>3.0</ele><time>2026-05-02T19:57:30Z</time></trkpt><trkpt lat="45.488682190442276" lon="12.221263747618915"><ele>3.0</ele><time>2026-05-02T19:57:31Z</time></trkpt><trkpt lat="45.48880622766827" lon="12.221277415268684"><ele>3.5</ele><time>2026-05-02T19:57:32Z</time></trkpt><trkpt lat="45.48892970285732" lon="12.221247253786123"><ele>4.0</ele><time>2026-05-02T19:57:33Z</time></trkpt><trkpt lat="45.48904328094191" lon="12.221176621028611"><ele>4.5</ele><time>2026-05-02T19:57:34Z</time></trkpt><trkpt lat="45.48914672216614" lon="12.22107898045481"><ele>5.0</ele><time>2026-05-02T19:57:35Z</time></trkpt><trkpt lat="45.48922579877345" lon="12.220966174445465"><ele>5.0</ele><time>2026-05-02T19:57:36Z</time></trkpt><trkpt lat="45.48929754116727" lon="12.220831513908456"><ele>5.0</ele><time>2026-05-02T19:57:37Z</time></trkpt><trkpt lat="45.48934403770924" lon="12.220691643278634"><ele>5.0</ele><time>2026-05-02T19:57:38Z</time></trkpt><trkpt lat="45.48937017635301" lon="12.220542525327694"><ele>5.0</ele><time>2026-05-02T19:57:39Z</time></trkpt><trkpt lat="45.48937136521133" lon="12.2203910300626"><ele>5.0</ele><time>2026-05-02T19:57:40Z</time></trkpt><trkpt lat="45.48934789786826" lon="12.220251170852473"><ele>5.0</ele><time>2026-05-02T19:57:41Z</time></trkpt><trkpt lat="45.48930412745054" lon="12.220087932486729"><ele>5.0</ele><time>2026-05-02T19:57:42Z</time></trkpt><trkpt lat="45.48924515543797" lon="12.219951430299892"><ele>5.0</ele><time>2026-05-02T19:57:43Z</time></trkpt><trkpt lat="45.48916412544916" lon="12.21983275907305"><ele>5.0</ele><time>2026-05-02T19:57:44Z</time></trkpt><trkpt lat="45.48906946715892" lon="12.219735155640468"><ele>4.6</ele><time>2026-05-02T19:57:45Z</time></trkpt><trkpt lat="45.488971041113864" lon="12.21967012029176"><ele>4.2</ele><time>2026-05-02T19:57:46Z</time></trkpt><trkpt lat="45.48886115554894" lon="12.219640532607778"><ele>3.8</ele><time>2026-05-02T19:57:47Z</time></trkpt><trkpt lat="45.48874922021697" lon="12.219643800572962"><ele>3.4</ele><time>2026-05-02T19:57:48Z</time></trkpt><trkpt lat="45.48863424540796" lon="12.219675884408574"><ele>3.0</ele><time>2026-05-02T19:57:49Z</time></trkpt><trkpt lat="45.48852937154129" lon="12.219709138685127"><ele>3.0</ele><time>2026-05-02T19:57:50Z</time></trkpt><trkpt lat="45.4884229339458" lon="12.219755720000093"><ele>3.0</ele><time>2026-05-02T19:57:51Z</time></trkpt><trkpt lat="45.48830174623226" lon="12.219806104872994"><ele>3.0</ele><time>2026-05-02T19:57:52Z</time></trkpt><trkpt lat="45.488185142552446" lon="12.219830965750567"><ele>3.0</ele><time>2026-05-02T19:57:53Z</time></trkpt><trkpt lat="45.48805651271954" lon="12.219831898758814"><ele>2.75</ele><time>2026-05-02T19:57:54Z</time></trkpt><trkpt lat="45.487922596800026" lon="12.219816843934732"><ele>2.5</ele><time>2026-05-02T19:57:55Z</time></trkpt><trkpt lat="45.48777892651097" lon="12.219783213551668"><ele>2.25</ele><time>2026-05-02T19:57:56Z</time></trkpt><trkpt lat="45.48762900682867" lon="12.219738542604453"><ele>2.0</ele><time>2026-05-02T19:57:57Z</time></trkpt><trkpt lat="45.487476312691264" lon="12.219690241969339"><ele>2.0</ele><time>2026-05-02T19:57:58Z</time></trkpt><trkpt lat="45.48732005007567" lon="12.219646340757034"><ele>2.0</ele><time>2026-05-02T19:57:59Z</time></trkpt><trkpt lat="45.48716505084612" lon="12.219598960158615"><ele>2.0</ele><time>2026-05-02T19:58:00Z</time></trkpt><trkpt lat="45.486999470839855" lon="12.21954375027691"><ele>2.6666666666666665</ele><time>2026-05-02T19:58:01Z</time></trkpt><trkpt lat="45.48682770262261" lon="12.219498573675262"><ele>3.333333333333333</ele><time>2026-05-02T19:58:02Z</time></trkpt><trkpt lat="45.48664879612608" lon="12.219448816717879"><ele>4.0</ele><time>2026-05-02T19:58:03Z</time></trkpt><trkpt lat="45.48647020555563" lon="12.21939828008977"><ele>4.0</ele><time>2026-05-02T19:58:04Z</time></trkpt><trkpt lat="45.48628816503807" lon="12.219343108347694"><ele>4.0</ele><time>2026-05-02T19:58:05Z</time></trkpt><trkpt lat="45.48610029471395" lon="12.219297463300405"><ele>4.0</ele><time>2026-05-02T19:58:06Z</time></trkpt><trkpt lat="45.485913441421374" lon="12.219244474345839"><ele>4.0</ele><time>2026-05-02T19:58:07Z</time></trkpt><trkpt lat="45.4857234162501" lon="12.219191109941464"><ele>4.0</ele><time>2026-05-02T19:58:08Z</time></trkpt><trkpt lat="45.48553708202789" lon="12.219142530914715"><ele>4.0</ele><time>2026-05-02T19:58:09Z</time></trkpt><trkpt lat="45.485341558911365" lon="12.219095610223413"><ele>4.666666666666666</ele><time>2026-05-02T19:58:10Z</time></trkpt><trkpt lat="45.48514739918684" lon="12.219048155776116"><ele>5.333333333333333</ele><time>2026-05-02T19:58:11Z</time></trkpt><trkpt lat="45.48494758767604" lon="12.21899809329204"><ele>6.0</ele><time>2026-05-02T19:58:12Z</time></trkpt><trkpt lat="45.48475125440463" lon="12.21894470072206"><ele>5.333333333333333</ele><time>2026-05-02T19:58:13Z</time></trkpt><trkpt lat="45.48455456704828" lon="12.218900313466957"><ele>4.666666666666666</ele><time>2026-05-02T19:58:14Z</time></trkpt><trkpt lat="45.48435807850621" lon="12.218856534443216"><ele>4.0</ele><time>2026-05-02T19:58:15Z</time></trkpt><trkpt lat="45.48415600534535" lon="12.21879822318258"><ele>4.0</ele><time>2026-05-02T19:58:16Z</time></trkpt><trkpt lat="45.4839441778763" lon="12.218737744440375"><ele>4.0</ele><time>2026-05-02T19:58:17Z</time></trkpt><trkpt lat="45.48373804952721" lon="12.218678692411935"><ele>4.0</ele><time>2026-05-02T19:58:18Z</time></trkpt><trkpt lat="45.48352904985733" lon="12.218619350077393"><ele>3.6666666666666665</ele><time>2026-05-02T19:58:19Z</time></trkpt><trkpt lat="45.483320434945185" lon="12.218555250206236"><ele>3.333333333333333</ele><time>2026-05-02T19:58:20Z</time></trkpt><trkpt lat="45.483107586581056" lon="12.218492448874093"><ele>3.0</ele><time>2026-05-02T19:58:21Z</time></trkpt><trkpt lat="45.48290086316131" lon="12.218424382090422"><ele>2.3333333333333335</ele><time>2026-05-02T19:58:22Z</time></trkpt><trkpt lat="45.48269870126877" lon="12.218354735337716"><ele>1.6666666666666665</ele><time>2026-05-02T19:58:23Z</time></trkpt><trkpt lat="45.4824922035186" lon="12.218287696246023"><ele>1.0</ele><time>2026-05-02T19:58:24Z</time></trkpt><trkpt lat="45.482282331407546" lon="12.218199760777923"><ele>1.0</ele><time>2026-05-02T19:58:25Z</time></trkpt><trkpt lat="45.48207067580493" lon="12.21810186919606"><ele>1.0</ele><time>2026-05-02T19:58:26Z</time></trkpt><trkpt lat="45.48184636442958" lon="12.217996383815887"><ele>1.0</ele><time>2026-05-02T19:58:27Z</time></trkpt><trkpt lat="45.48161851429967" lon="12.217880802003274"><ele>1.0</ele><time>2026-05-02T19:58:28Z</time></trkpt><trkpt lat="45.48138928083377" lon="12.2177612858824"><ele>2.0</ele><time>2026-05-02T19:58:29Z</time></trkpt><trkpt lat="45.48115567758941" lon="12.217626669059063"><ele>3.0</ele><time>2026-05-02T19:58:30Z</time></trkpt><trkpt lat="45.48092088645931" lon="12.217489768381254"><ele>3.0</ele><time>2026-05-02T19:58:31Z</time></trkpt><trkpt lat="45.480680661861385" lon="12.217357275785748"><ele>3.0</ele><time>2026-05-02T19:58:32Z</time></trkpt><trkpt lat="45.48044346335664" lon="12.217215857951079"><ele>2.0</ele><time>2026-05-02T19:58:33Z</time></trkpt><trkpt lat="45.48020489085965" lon="12.217073758638183"><ele>1.0</ele><time>2026-05-02T19:58:34Z</time></trkpt><trkpt lat="45.47996991152148" lon="12.216935403297951"><ele>1.0</ele><time>2026-05-02T19:58:35Z</time></trkpt><trkpt lat="45.47973921314572" lon="12.216800629522021"><ele>1.0</ele><time>2026-05-02T19:58:36Z</time></trkpt><trkpt lat="45.47951121710997" lon="12.216661630749579"><ele>1.0</ele><time>2026-05-02T19:58:37Z</time></trkpt><trkpt lat="45.47928165031825" lon="12.216523237500287"><ele>1.0</ele><time>2026-05-02T19:58:38Z</time></trkpt><trkpt lat="45.47905068190416" lon="12.216387473905229"><ele>1.0</ele><time>2026-05-02T19:58:39Z</time></trkpt><trkpt lat="45.47882205454775" lon="12.216252372798381"><ele>1.0</ele><time>2026-05-02T19:58:40Z</time></trkpt><trkpt lat="45.478593654956946" lon="12.216117469581395"><ele>2.0</ele><time>2026-05-02T19:58:41Z</time></trkpt><trkpt lat="45.478366725092066" lon="12.215987434115446"><ele>3.0</ele><time>2026-05-02T19:58:42Z</time></trkpt><trkpt lat="45.47813913130126" lon="12.215856062597283"><ele>2.0</ele><time>2026-05-02T19:58:43Z</time></trkpt><trkpt lat="45.4779168922403" lon="12.215721403610209"><ele>1.0</ele><time>2026-05-02T19:58:44Z</time></trkpt><trkpt lat="45.477686714623765" lon="12.215591017161195"><ele>1.0</ele><time>2026-05-02T19:58:45Z</time></trkpt><trkpt lat="45.47745837045327" lon="12.215458940348574"><ele>1.0</ele><time>2026-05-02T19:58:46Z</time></trkpt><trkpt lat="45.47723131856612" lon="12.215322141163435"><ele>2.0</ele><time>2026-05-02T19:58:47Z</time></trkpt><trkpt lat="45.476991004540714" lon="12.2151826835305"><ele>3.0</ele><time>2026-05-02T19:58:48Z</time></trkpt><trkpt lat="45.47675422813274" lon="12.215039355900918"><ele>3.0</ele><time>2026-05-02T19:58:49Z</time></trkpt><trkpt lat="45.47651550848485" lon="12.214885628526234"><ele>3.0</ele><time>2026-05-02T19:58:50Z</time></trkpt><trkpt lat="45.47628951528479" lon="12.214708329796474"><ele>4.0</ele><time>2026-05-02T19:58:51Z</time></trkpt><trkpt lat="45.476066041188304" lon="12.2145186620661"><ele>5.0</ele><time>2026-05-02T19:58:52Z</time></trkpt><trkpt lat="45.4758544379896" lon="12.214315557589561"><ele>5.0</ele><time>2026-05-02T19:58:53Z</time></trkpt><trkpt lat="45.47564909525972" lon="12.214095031853576"><ele>5.0</ele><time>2026-05-02T19:58:54Z</time></trkpt><trkpt lat="45.47544890940686" lon="12.213860946305939"><ele>4.5</ele><time>2026-05-02T19:58:55Z</time></trkpt><trkpt lat="45.47525944990083" lon="12.213609211148944"><ele>4.0</ele><time>2026-05-02T19:58:56Z</time></trkpt><trkpt lat="45.475079830338096" lon="12.213337390704817"><ele>3.5</ele><time>2026-05-02T19:58:57Z</time></trkpt><trkpt lat="45.47491672441565" lon="12.213051704019449"><ele>3.0</ele><time>2026-05-02T19:58:58Z</time></trkpt><trkpt lat="45.474760335571986" lon="12.212751006952677"><ele>3.0</ele><time>2026-05-02T19:58:59Z</time></trkpt><trkpt lat="45.47461448540802" lon="12.21244294023133"><ele>3.0</ele><time>2026-05-02T19:59:00Z</time></trkpt><trkpt lat="45.474481968320326" lon="12.212127563407957"><ele>3.5</ele><time>2026-05-02T19:59:01Z</time></trkpt><trkpt lat="45.4743637892876" lon="12.21180878603941"><ele>4.0</ele><time>2026-05-02T19:59:02Z</time></trkpt><trkpt lat="45.474259637500076" lon="12.211481043347561"><ele>4.0</ele><time>2026-05-02T19:59:03Z</time></trkpt><trkpt lat="45.47416415990171" lon="12.211142618248681"><ele>4.0</ele><time>2026-05-02T19:59:04Z</time></trkpt><trkpt lat="45.474077812058724" lon="12.210795823779815"><ele>3.5</ele><time>2026-05-02T19:59:05Z</time></trkpt><trkpt lat="45.474002418649285" lon="12.2104395948831"><ele>3.0</ele><time>2026-05-02T19:59:06Z</time></trkpt><trkpt lat="45.47394279862947" lon="12.210077796263482"><ele>3.0</ele><time>2026-05-02T19:59:07Z</time></trkpt><trkpt lat="45.47389158555777" lon="12.209707040475157"><ele>3.0</ele><time>2026-05-02T19:59:08Z</time></trkpt><trkpt lat="45.47384958587542" lon="12.209335334374293"><ele>2.5</ele><time>2026-05-02T19:59:09Z</time></trkpt><trkpt lat="45.473810732786454" lon="12.208971521945106"><ele>2.0</ele><time>2026-05-02T19:59:10Z</time></trkpt><trkpt lat="45.473772660570916" lon="12.208609869630827"><ele>1.0</ele><time>2026-05-02T19:59:11Z</time></trkpt><trkpt lat="45.47373247449724" lon="12.20825392378742"><ele>0.0</ele><time>2026-05-02T19:59:12Z</time></trkpt><trkpt lat="45.47368294147978" lon="12.207894777360796"><ele>-0.5</ele><time>2026-05-02T19:59:13Z</time></trkpt><trkpt lat="45.47362866360318" lon="12.207535285874824"><ele>-1.0</ele><time>2026-05-02T19:59:14Z</time></trkpt><trkpt lat="45.47357550007911" lon="12.207178005618635"><ele>-1.0</ele><time>2026-05-02T19:59:15Z</time></trkpt><trkpt lat="45.47351043666076" lon="12.206808373689283"><ele>-1.0</ele><time>2026-05-02T19:59:16Z</time></trkpt><trkpt lat="45.473440899332395" lon="12.206434504383033"><ele>-0.5</ele><time>2026-05-02T19:59:17Z</time></trkpt><trkpt lat="45.47336656781701" lon="12.206053921957034"><ele>0.0</ele><time>2026-05-02T19:59:18Z</time></trkpt><trkpt lat="45.47328519496028" lon="12.205665423387899"><ele>0.5</ele><time>2026-05-02T19:59:19Z</time></trkpt><trkpt lat="45.4732096266765" lon="12.2052812190129"><ele>1.0</ele><time>2026-05-02T19:59:20Z</time></trkpt><trkpt lat="45.473123077455426" lon="12.204901267825477"><ele>1.0</ele><time>2026-05-02T19:59:21Z</time></trkpt><trkpt lat="45.47304089303686" lon="12.204521114836096"><ele>1.0</ele><time>2026-05-02T19:59:22Z</time></trkpt><trkpt lat="45.472961236373216" lon="12.204137624415255"><ele>0.5</ele><time>2026-05-02T19:59:23Z</time></trkpt><trkpt lat="45.47288177772766" lon="12.203750050503118"><ele>0.0</ele><time>2026-05-02T19:59:24Z</time></trkpt><trkpt lat="45.47280776617579" lon="12.203375063611096"><ele>-1.0</ele><time>2026-05-02T19:59:25Z</time></trkpt><trkpt lat="45.472728645132676" lon="12.203002662555969"><ele>-2.0</ele><time>2026-05-02T19:59:26Z</time></trkpt><trkpt lat="45.47264892415255" lon="12.202630561702279"><ele>-1.5</ele><time>2026-05-02T19:59:27Z</time></trkpt><trkpt lat="45.472569948133845" lon="12.202258217019958"><ele>-1.0</ele><time>2026-05-02T19:59:28Z</time></trkpt><trkpt lat="45.4724922522632" lon="12.20188494886719"><ele>-1.0</ele><time>2026-05-02T19:59:29Z</time></trkpt><trkpt lat="45.47241625004937" lon="12.20151339624478"><ele>-1.0</ele><time>2026-05-02T19:59:30Z</time></trkpt><trkpt lat="45.47233473204044" lon="12.201134090436922"><ele>-1.0</ele><time>2026-05-02T19:59:31Z</time></trkpt><trkpt lat="45.472255168969994" lon="12.200765181286627"><ele>-1.0</ele><time>2026-05-02T19:59:32Z</time></trkpt><trkpt lat="45.472176275490966" lon="12.200403597272443"><ele>-1.5</ele><time>2026-05-02T19:59:33Z</time></trkpt><trkpt lat="45.472100663598134" lon="12.20004234615594"><ele>-2.0</ele><time>2026-05-02T19:59:34Z</time></trkpt><trkpt lat="45.47202400140058" lon="12.199680987442044"><ele>-1.5</ele><time>2026-05-02T19:59:35Z</time></trkpt><trkpt lat="45.47194927343067" lon="12.199330495271534"><ele>-1.0</ele><time>2026-05-02T19:59:36Z</time></trkpt><trkpt lat="45.47187640317017" lon="12.198987717887292"><ele>-1.0</ele><time>2026-05-02T19:59:37Z</time></trkpt><trkpt lat="45.47180755239368" lon="12.198650348523076"><ele>-1.0</ele><time>2026-05-02T19:59:38Z</time></trkpt><trkpt lat="45.47173674317855" lon="12.19831574544932"><ele>-0.5</ele><time>2026-05-02T19:59:39Z</time></trkpt><trkpt lat="45.4716651667482" lon="12.197989116917801"><ele>0.0</ele><time>2026-05-02T19:59:40Z</time></trkpt><trkpt lat="45.471599941325564" lon="12.197675245807352"><ele>0.0</ele><time>2026-05-02T19:59:41Z</time></trkpt><trkpt lat="45.47153251027241" lon="12.19736325886446"><ele>0.0</ele><time>2026-05-02T19:59:42Z</time></trkpt><trkpt lat="45.471468056971574" lon="12.197055260787154"><ele>0.5</ele><time>2026-05-02T19:59:43Z</time></trkpt><trkpt lat="45.471406165742685" lon="12.196740430199565"><ele>1.0</ele><time>2026-05-02T19:59:44Z</time></trkpt><trkpt lat="45.471350390752406" lon="12.196423211753434"><ele>1.6666666666666665</ele><time>2026-05-02T19:59:45Z</time></trkpt><trkpt lat="45.471295574632336" lon="12.196109727069382"><ele>2.3333333333333335</ele><time>2026-05-02T19:59:46Z</time></trkpt><trkpt lat="45.471246328054974" lon="12.195805420828984"><ele>3.0</ele><time>2026-05-02T19:59:47Z</time></trkpt><trkpt lat="45.47119731045143" lon="12.195511185129718"><ele>3.0</ele><time>2026-05-02T19:59:48Z</time></trkpt><trkpt lat="45.47115092545532" lon="12.195231627916353"><ele>3.0</ele><time>2026-05-02T19:59:49Z</time></trkpt><trkpt lat="45.47110725395161" lon="12.194959128243894"><ele>3.0</ele><time>2026-05-02T19:59:50Z</time></trkpt><trkpt lat="45.47106723447605" lon="12.194695247408724"><ele>3.0</ele><time>2026-05-02T19:59:51Z</time></trkpt><trkpt lat="45.471029835461906" lon="12.194445159295261"><ele>3.0</ele><time>2026-05-02T19:59:52Z</time></trkpt><trkpt lat="45.470993367896114" lon="12.194210347715803"><ele>3.0</ele><time>2026-05-02T19:59:53Z</time></trkpt><trkpt lat="45.470959014042094" lon="12.19399987491039"><ele>3.0</ele><time>2026-05-02T19:59:54Z</time></trkpt><trkpt lat="45.47092935021625" lon="12.193808849798538"><ele>3.0</ele><time>2026-05-02T19:59:55Z</time></trkpt><trkpt lat="45.470898730857115" lon="12.193638430240306"><ele>3.0</ele><time>2026-05-02T19:59:56Z</time></trkpt><trkpt lat="45.47087282746786" lon="12.193486224690625"><ele>3.0</ele><time>2026-05-02T19:59:57Z</time></trkpt><trkpt lat="45.47084988967819" lon="12.193353010355999"><ele>3.0</ele><time>2026-05-02T19:59:58Z</time></trkpt><trkpt lat="45.47082645650401" lon="12.19323608510141"><ele>3.0</ele><time>2026-05-02T19:59:59Z</time></trkpt><trkpt lat="45.47080139039532" lon="12.193135212179643"><ele>3.0</ele><time>2026-05-02T20:00:00Z</time></trkpt><trkpt lat="45.47077958868925" lon="12.19304296798678"><ele>3.0</ele><time>2026-05-02T20:00:01Z</time></trkpt><trkpt lat="45.47076118933121" lon="12.19295603735271"><ele>3.0</ele><time>2026-05-02T20:00:02Z</time></trkpt><trkpt lat="45.47073169237789" lon="12.192825800167295"><ele>3.0</ele><time>2026-05-02T20:00:04Z</time></trkpt><trkpt lat="45.470709571806324" lon="12.192701195964391"><ele>2.4</ele><time>2026-05-02T20:00:06Z</time></trkpt><trkpt lat="45.47071181961138" lon="12.192588976487349"><ele>1.7999999999999998</ele><time>2026-05-02T20:00:08Z</time></trkpt><trkpt lat="45.470685634000354" lon="12.192453430746056"><ele>1.2</ele><time>2026-05-02T20:00:10Z</time></trkpt><trkpt lat="45.470649380653974" lon="12.192309179711913"><ele>0.6</ele><time>2026-05-02T20:00:12Z</time></trkpt><trkpt lat="45.47061343147411" lon="12.192161562059558"><ele>0.0</ele><time>2026-05-02T20:00:14Z</time></trkpt><trkpt lat="45.47057303398546" lon="12.192017809053139"><ele>0.0</ele><time>2026-05-02T20:00:16Z</time></trkpt><trkpt lat="45.47054049772684" lon="12.191929487800046"><ele>0.0</ele><time>2026-05-02T20:00:17Z</time></trkpt><trkpt lat="45.470507791720536" lon="12.19182278689873"><ele>0.0</ele><time>2026-05-02T20:00:18Z</time></trkpt><trkpt lat="45.470455144808106" lon="12.191695103871613"><ele>0.0</ele><time>2026-05-02T20:00:19Z</time></trkpt><trkpt lat="45.47041287508048" lon="12.191564283477529"><ele>0.0</ele><time>2026-05-02T20:00:20Z</time></trkpt><trkpt lat="45.4703744793" lon="12.191429890786594"><ele>-0.5</ele><time>2026-05-02T20:00:21Z</time></trkpt><trkpt lat="45.470322975579364" lon="12.191267967260073"><ele>-1.0</ele><time>2026-05-02T20:00:22Z</time></trkpt><trkpt lat="45.47027056096399" lon="12.191087078971977"><ele>-1.5</ele><time>2026-05-02T20:00:23Z</time></trkpt><trkpt lat="45.47022010789079" lon="12.19090060893483"><ele>-2.0</ele><time>2026-05-02T20:00:24Z</time></trkpt><trkpt lat="45.47017515966567" lon="12.190713186924269"><ele>-1.6666666666666665</ele><time>2026-05-02T20:00:25Z</time></trkpt><trkpt lat="45.47013318694269" lon="12.190507803040573"><ele>-1.3333333333333333</ele><time>2026-05-02T20:00:26Z</time></trkpt><trkpt lat="45.47008271014578" lon="12.190285726812919"><ele>-1.0</ele><time>2026-05-02T20:00:27Z</time></trkpt><trkpt lat="45.470032310746994" lon="12.190051821090607"><ele>0.0</ele><time>2026-05-02T20:00:28Z</time></trkpt><trkpt lat="45.469979541010666" lon="12.189804384945218"><ele>1.0</ele><time>2026-05-02T20:00:29Z</time></trkpt><trkpt lat="45.469923382221246" lon="12.189552402473149"><ele>2.0</ele><time>2026-05-02T20:00:30Z</time></trkpt><trkpt lat="45.469869484210065" lon="12.189298029830082"><ele>2.0</ele><time>2026-05-02T20:00:31Z</time></trkpt><trkpt lat="45.469810992494345" lon="12.189034941826092"><ele>2.0</ele><time>2026-05-02T20:00:32Z</time></trkpt><trkpt lat="45.4697471272121" lon="12.188764163134326"><ele>2.0</ele><time>2026-05-02T20:00:33Z</time></trkpt><trkpt lat="45.46968870339269" lon="12.188488440082928"><ele>1.6666666666666665</ele><time>2026-05-02T20:00:34Z</time></trkpt><trkpt lat="45.469632827763554" lon="12.188208757670356"><ele>1.3333333333333333</ele><time>2026-05-02T20:00:35Z</time></trkpt><trkpt lat="45.469567178278446" lon="12.187914247779718"><ele>1.0</ele><time>2026-05-02T20:00:36Z</time></trkpt><trkpt lat="45.46949428982097" lon="12.187605109990294"><ele>0.0</ele><time>2026-05-02T20:00:37Z</time></trkpt><trkpt lat="45.469424680677726" lon="12.18728329803871"><ele>-1.0</ele><time>2026-05-02T20:00:38Z</time></trkpt><trkpt lat="45.469361264808285" lon="12.186954482122905"><ele>-1.0</ele><time>2026-05-02T20:00:39Z</time></trkpt><trkpt lat="45.46929764471147" lon="12.186614940937439"><ele>-1.0</ele><time>2026-05-02T20:00:40Z</time></trkpt><trkpt lat="45.469227760517406" lon="12.186261813961634"><ele>0.0</ele><time>2026-05-02T20:00:41Z</time></trkpt><trkpt lat="45.46915135127498" lon="12.185903972533435"><ele>1.0</ele><time>2026-05-02T20:00:42Z</time></trkpt><trkpt lat="45.46907956372875" lon="12.185544615158017"><ele>1.0</ele><time>2026-05-02T20:00:43Z</time></trkpt><trkpt lat="45.46900224732474" lon="12.185176862944713"><ele>1.0</ele><time>2026-05-02T20:00:44Z</time></trkpt><trkpt lat="45.468922460258945" lon="12.184801869112274"><ele>1.0</ele><time>2026-05-02T20:00:45Z</time></trkpt><trkpt lat="45.468842777507476" lon="12.184414856374616"><ele>1.0</ele><time>2026-05-02T20:00:46Z</time></trkpt><trkpt lat="45.46876462828884" lon="12.184025650104127"><ele>2.5</ele><time>2026-05-02T20:00:47Z</time></trkpt><trkpt lat="45.46868281742517" lon="12.183626345086575"><ele>4.0</ele><time>2026-05-02T20:00:48Z</time></trkpt><trkpt lat="45.46860032570254" lon="12.18322294373806"><ele>3.5</ele><time>2026-05-02T20:00:49Z</time></trkpt><trkpt lat="45.46851738681412" lon="12.182817963295337"><ele>3.0</ele><time>2026-05-02T20:00:50Z</time></trkpt><trkpt lat="45.4684348860652" lon="12.182407512955432"><ele>4.0</ele><time>2026-05-02T20:00:51Z</time></trkpt><trkpt lat="45.46835435345506" lon="12.181989051414073"><ele>5.0</ele><time>2026-05-02T20:00:52Z</time></trkpt><trkpt lat="45.468264414602295" lon="12.18156616607284"><ele>4.0</ele><time>2026-05-02T20:00:53Z</time></trkpt><trkpt lat="45.46817520362884" lon="12.18113746746946"><ele>3.0</ele><time>2026-05-02T20:00:54Z</time></trkpt><trkpt lat="45.46807831872873" lon="12.180704850846826"><ele>2.5</ele><time>2026-05-02T20:00:55Z</time></trkpt><trkpt lat="45.46798246119481" lon="12.180275100667993"><ele>2.0</ele><time>2026-05-02T20:00:56Z</time></trkpt><trkpt lat="45.467885863770945" lon="12.179837981413408"><ele>2.0</ele><time>2026-05-02T20:00:57Z</time></trkpt><trkpt lat="45.46778990609082" lon="12.179396569391644"><ele>2.0</ele><time>2026-05-02T20:00:58Z</time></trkpt><trkpt lat="45.46769761097542" lon="12.178956545279226"><ele>2.0</ele><time>2026-05-02T20:00:59Z</time></trkpt><trkpt lat="45.467603584648636" lon="12.178509936011205"><ele>2.0</ele><time>2026-05-02T20:01:00Z</time></trkpt><trkpt lat="45.467510928120085" lon="12.17805987139896"><ele>1.0</ele><time>2026-05-02T20:01:01Z</time></trkpt><trkpt lat="45.46742041384034" lon="12.17761082357792"><ele>0.0</ele><time>2026-05-02T20:01:02Z</time></trkpt><trkpt lat="45.46733113109245" lon="12.17716141807076"><ele>0.0</ele><time>2026-05-02T20:01:03Z</time></trkpt><trkpt lat="45.467243476834746" lon="12.17671680713289"><ele>0.0</ele><time>2026-05-02T20:01:04Z</time></trkpt><trkpt lat="45.46714993802889" lon="12.176264194844046"><ele>0.0</ele><time>2026-05-02T20:01:05Z</time></trkpt><trkpt lat="45.4670604759283" lon="12.175815142466206"><ele>0.0</ele><time>2026-05-02T20:01:06Z</time></trkpt><trkpt lat="45.466969215969065" lon="12.1753609562333"><ele>-0.5</ele><time>2026-05-02T20:01:07Z</time></trkpt><trkpt lat="45.46688007110339" lon="12.17490939701812"><ele>-1.0</ele><time>2026-05-02T20:01:08Z</time></trkpt><trkpt lat="45.46678961077011" lon="12.174450619588441"><ele>-1.5</ele><time>2026-05-02T20:01:09Z</time></trkpt><trkpt lat="45.46669888739314" lon="12.1739937900223"><ele>-2.0</ele><time>2026-05-02T20:01:10Z</time></trkpt><trkpt lat="45.466604538732184" lon="12.17353670375987"><ele>-2.0</ele><time>2026-05-02T20:01:11Z</time></trkpt><trkpt lat="45.46651524806027" lon="12.173083754294098"><ele>-2.0</ele><time>2026-05-02T20:01:12Z</time></trkpt><trkpt lat="45.46641852849107" lon="12.172625311029941"><ele>-2.0</ele><time>2026-05-02T20:01:13Z</time></trkpt><trkpt lat="45.46632395761762" lon="12.172165698481065"><ele>-2.0</ele><time>2026-05-02T20:01:14Z</time></trkpt><trkpt lat="45.46622609104493" lon="12.171706652782788"><ele>-2.0</ele><time>2026-05-02T20:01:15Z</time></trkpt><trkpt lat="45.46612916644146" lon="12.171247686930059"><ele>-2.0</ele><time>2026-05-02T20:01:16Z</time></trkpt><trkpt lat="45.46603446682762" lon="12.170787477588075"><ele>-1.5</ele><time>2026-05-02T20:01:17Z</time></trkpt><trkpt lat="45.46593711349302" lon="12.170320394774299"><ele>-1.0</ele><time>2026-05-02T20:01:18Z</time></trkpt><trkpt lat="45.46584243269003" lon="12.169855614858193"><ele>-1.0</ele><time>2026-05-02T20:01:19Z</time></trkpt><trkpt lat="45.465751425841816" lon="12.169392441652393"><ele>-1.0</ele><time>2026-05-02T20:01:20Z</time></trkpt><trkpt lat="45.46565912984326" lon="12.168928608269564"><ele>-1.0</ele><time>2026-05-02T20:01:21Z</time></trkpt><trkpt lat="45.46556657550353" lon="12.168466752380615"><ele>-1.0</ele><time>2026-05-02T20:01:22Z</time></trkpt><trkpt lat="45.46547262644254" lon="12.168004930102414"><ele>-1.0</ele><time>2026-05-02T20:01:23Z</time></trkpt><trkpt lat="45.46537864757548" lon="12.167536990050264"><ele>-1.0</ele><time>2026-05-02T20:01:24Z</time></trkpt><trkpt lat="45.465285947291996" lon="12.167071587617457"><ele>-1.0</ele><time>2026-05-02T20:01:25Z</time></trkpt><trkpt lat="45.465189185607144" lon="12.166608917141309"><ele>-1.0</ele><time>2026-05-02T20:01:26Z</time></trkpt><trkpt lat="45.4650910843997" lon="12.166139787606932"><ele>-1.0</ele><time>2026-05-02T20:01:27Z</time></trkpt><trkpt lat="45.46499416324245" lon="12.16567242165595"><ele>-1.0</ele><time>2026-05-02T20:01:28Z</time></trkpt><trkpt lat="45.46489826272494" lon="12.165202198572732"><ele>-0.5</ele><time>2026-05-02T20:01:29Z</time></trkpt><trkpt lat="45.46480518176349" lon="12.164735376506849"><ele>0.0</ele><time>2026-05-02T20:01:30Z</time></trkpt><trkpt lat="45.46471194933194" lon="12.16426690996783"><ele>0.0</ele><time>2026-05-02T20:01:31Z</time></trkpt><trkpt lat="45.46462100693336" lon="12.163799969553905"><ele>0.0</ele><time>2026-05-02T20:01:32Z</time></trkpt><trkpt lat="45.46452627010918" lon="12.163335139709076"><ele>1.0</ele><time>2026-05-02T20:01:33Z</time></trkpt><trkpt lat="45.464431813831524" lon="12.162871864294528"><ele>2.0</ele><time>2026-05-02T20:01:34Z</time></trkpt><trkpt lat="45.46432789953893" lon="12.16240540373727"><ele>2.5</ele><time>2026-05-02T20:01:35Z</time></trkpt><trkpt lat="45.4642258707734" lon="12.161937129638352"><ele>3.0</ele><time>2026-05-02T20:01:36Z</time></trkpt><trkpt lat="45.46413161092843" lon="12.161469185171775"><ele>2.0</ele><time>2026-05-02T20:01:37Z</time></trkpt><trkpt lat="45.46403603915062" lon="12.160999093814832"><ele>1.0</ele><time>2026-05-02T20:01:38Z</time></trkpt><trkpt lat="45.46393968866474" lon="12.160532072653155"><ele>0.5</ele><time>2026-05-02T20:01:39Z</time></trkpt><trkpt lat="45.46384566433907" lon="12.16006739368177"><ele>0.0</ele><time>2026-05-02T20:01:40Z</time></trkpt><trkpt lat="45.46375027855313" lon="12.159599970506445"><ele>-0.5</ele><time>2026-05-02T20:01:41Z</time></trkpt><trkpt lat="45.463655001614256" lon="12.159135757189343"><ele>-1.0</ele><time>2026-05-02T20:01:42Z</time></trkpt><trkpt lat="45.46355707107878" lon="12.158663755327643"><ele>0.0</ele><time>2026-05-02T20:01:43Z</time></trkpt><trkpt lat="45.463459662705844" lon="12.158194294458145"><ele>1.0</ele><time>2026-05-02T20:01:44Z</time></trkpt><trkpt lat="45.46336423004818" lon="12.15772317614091"><ele>0.5</ele><time>2026-05-02T20:01:45Z</time></trkpt><trkpt lat="45.46327187937328" lon="12.157255466288719"><ele>0.0</ele><time>2026-05-02T20:01:46Z</time></trkpt><trkpt lat="45.463177038408666" lon="12.156789802347559"><ele>0.5</ele><time>2026-05-02T20:01:47Z</time></trkpt><trkpt lat="45.46308338441127" lon="12.15632273972665"><ele>1.0</ele><time>2026-05-02T20:01:48Z</time></trkpt><trkpt lat="45.46298752870447" lon="12.15585882590583"><ele>0.5</ele><time>2026-05-02T20:01:49Z</time></trkpt><trkpt lat="45.462889544913565" lon="12.15538784398948"><ele>0.0</ele><time>2026-05-02T20:01:50Z</time></trkpt><trkpt lat="45.462795218417135" lon="12.154922148683593"><ele>0.5</ele><time>2026-05-02T20:01:51Z</time></trkpt><trkpt lat="45.462697416902216" lon="12.154448348941088"><ele>1.0</ele><time>2026-05-02T20:01:52Z</time></trkpt><trkpt lat="45.46259629828854" lon="12.153975164549383"><ele>1.0</ele><time>2026-05-02T20:01:53Z</time></trkpt><trkpt lat="45.46250225664587" lon="12.153507193896292"><ele>1.0</ele><time>2026-05-02T20:01:54Z</time></trkpt><trkpt lat="45.46240888779593" lon="12.15303848280048"><ele>0.5</ele><time>2026-05-02T20:01:55Z</time></trkpt><trkpt lat="45.46231410754217" lon="12.152566346381516"><ele>0.0</ele><time>2026-05-02T20:01:56Z</time></trkpt><trkpt lat="45.46221829764983" lon="12.152097422295906"><ele>0.0</ele><time>2026-05-02T20:01:57Z</time></trkpt><trkpt lat="45.4621275226215" lon="12.151633016650488"><ele>0.0</ele><time>2026-05-02T20:01:58Z</time></trkpt><trkpt lat="45.46202961328766" lon="12.151166051428923"><ele>1.0</ele><time>2026-05-02T20:01:59Z</time></trkpt><trkpt lat="45.46193339611161" lon="12.150700438403414"><ele>2.0</ele><time>2026-05-02T20:02:00Z</time></trkpt><trkpt lat="45.46183971958795" lon="12.150235865515263"><ele>2.0</ele><time>2026-05-02T20:02:01Z</time></trkpt><trkpt lat="45.46174297802879" lon="12.149769186932833"><ele>2.0</ele><time>2026-05-02T20:02:02Z</time></trkpt><trkpt lat="45.461648065445075" lon="12.149301321440234"><ele>1.0</ele><time>2026-05-02T20:02:03Z</time></trkpt><trkpt lat="45.4615502892048" lon="12.148838221869234"><ele>0.0</ele><time>2026-05-02T20:02:04Z</time></trkpt><trkpt lat="45.461456776829195" lon="12.148373906391729"><ele>0.0</ele><time>2026-05-02T20:02:05Z</time></trkpt><trkpt lat="45.46135857774052" lon="12.147903366485144"><ele>0.0</ele><time>2026-05-02T20:02:06Z</time></trkpt><trkpt lat="45.46126394331904" lon="12.147433219173495"><ele>0.0</ele><time>2026-05-02T20:02:07Z</time></trkpt><trkpt lat="45.461164963972145" lon="12.146966507179956"><ele>0.0</ele><time>2026-05-02T20:02:08Z</time></trkpt><trkpt lat="45.46106949040538" lon="12.14649469577573"><ele>-0.5</ele><time>2026-05-02T20:02:09Z</time></trkpt><trkpt lat="45.46097382344753" lon="12.146027974228256"><ele>-1.0</ele><time>2026-05-02T20:02:10Z</time></trkpt><trkpt lat="45.46087477926245" lon="12.145553123936278"><ele>-1.0</ele><time>2026-05-02T20:02:11Z</time></trkpt><trkpt lat="45.46078015504776" lon="12.145083336923584"><ele>-1.0</ele><time>2026-05-02T20:02:12Z</time></trkpt><trkpt lat="45.4606821793098" lon="12.14461552724134"><ele>-1.0</ele><time>2026-05-02T20:02:13Z</time></trkpt><trkpt lat="45.46058699602599" lon="12.144145271260296"><ele>-1.0</ele><time>2026-05-02T20:02:14Z</time></trkpt><trkpt lat="45.46048857081575" lon="12.14367961859625"><ele>0.0</ele><time>2026-05-02T20:02:15Z</time></trkpt><trkpt lat="45.46039670309088" lon="12.143213764613197"><ele>1.0</ele><time>2026-05-02T20:02:16Z</time></trkpt><trkpt lat="45.460301858983634" lon="12.14274418615522"><ele>1.0</ele><time>2026-05-02T20:02:17Z</time></trkpt><trkpt lat="45.46020425349483" lon="12.142278941403312"><ele>1.0</ele><time>2026-05-02T20:02:18Z</time></trkpt><trkpt lat="45.46010935581799" lon="12.141811041553566"><ele>1.0</ele><time>2026-05-02T20:02:19Z</time></trkpt><trkpt lat="45.46001543801203" lon="12.141343190863292"><ele>1.0</ele><time>2026-05-02T20:02:20Z</time></trkpt><trkpt lat="45.45991687301972" lon="12.14087582186475"><ele>1.0</ele><time>2026-05-02T20:02:21Z</time></trkpt><trkpt lat="45.45981988558309" lon="12.140405477662354"><ele>1.0</ele><time>2026-05-02T20:02:22Z</time></trkpt><trkpt lat="45.459723522283106" lon="12.139934892620053"><ele>1.0</ele><time>2026-05-02T20:02:23Z</time></trkpt><trkpt lat="45.45962786661003" lon="12.13946341913191"><ele>1.0</ele><time>2026-05-02T20:02:24Z</time></trkpt><trkpt lat="45.45953359490294" lon="12.13899470095024"><ele>1.0</ele><time>2026-05-02T20:02:25Z</time></trkpt><trkpt lat="45.45943859677623" lon="12.138524335764217"><ele>1.0</ele><time>2026-05-02T20:02:26Z</time></trkpt><trkpt lat="45.45934304380043" lon="12.138054840416201"><ele>1.0</ele><time>2026-05-02T20:02:27Z</time></trkpt><trkpt lat="45.45924601106024" lon="12.137587261440855"><ele>1.0</ele><time>2026-05-02T20:02:28Z</time></trkpt><trkpt lat="45.459153458222495" lon="12.137123756002298"><ele>1.0</ele><time>2026-05-02T20:02:29Z</time></trkpt><trkpt lat="45.459060119154685" lon="12.136659757721391"><ele>1.0</ele><time>2026-05-02T20:02:30Z</time></trkpt><trkpt lat="45.4589643720625" lon="12.136189286641406"><ele>1.0</ele><time>2026-05-02T20:02:31Z</time></trkpt><trkpt lat="45.45886835568599" lon="12.135722233927746"><ele>1.0</ele><time>2026-05-02T20:02:32Z</time></trkpt><trkpt lat="45.45877329059828" lon="12.135253343821427"><ele>0.5</ele><time>2026-05-02T20:02:33Z</time></trkpt><trkpt lat="45.4586783425273" lon="12.13478277959543"><ele>0.0</ele><time>2026-05-02T20:02:34Z</time></trkpt><trkpt lat="45.458580040301094" lon="12.134312384201799"><ele>0.5</ele><time>2026-05-02T20:02:35Z</time></trkpt><trkpt lat="45.4584819796288" lon="12.13384088494812"><ele>1.0</ele><time>2026-05-02T20:02:36Z</time></trkpt><trkpt lat="45.45838693214805" lon="12.133373859829774"><ele>1.0</ele><time>2026-05-02T20:02:37Z</time></trkpt><trkpt lat="45.458291884451036" lon="12.132906723172855"><ele>1.0</ele><time>2026-05-02T20:02:38Z</time></trkpt><trkpt lat="45.45819747666348" lon="12.132438812682409"><ele>1.0</ele><time>2026-05-02T20:02:39Z</time></trkpt><trkpt lat="45.458102193853726" lon="12.131973001549424"><ele>1.0</ele><time>2026-05-02T20:02:40Z</time></trkpt><trkpt lat="45.45800704419668" lon="12.131506350965871"><ele>1.0</ele><time>2026-05-02T20:02:41Z</time></trkpt><trkpt lat="45.45791420161944" lon="12.13104503601719"><ele>1.0</ele><time>2026-05-02T20:02:42Z</time></trkpt><trkpt lat="45.45782057400159" lon="12.130574769090257"><ele>2.5</ele><time>2026-05-02T20:02:43Z</time></trkpt><trkpt lat="45.45772165912545" lon="12.130103705037037"><ele>4.0</ele><time>2026-05-02T20:02:44Z</time></trkpt><trkpt lat="45.457622705093144" lon="12.129633402183655"><ele>4.0</ele><time>2026-05-02T20:02:45Z</time></trkpt><trkpt lat="45.45752797639635" lon="12.12916393938256"><ele>4.0</ele><time>2026-05-02T20:02:46Z</time></trkpt><trkpt lat="45.45742934328999" lon="12.12870066008127"><ele>2.0</ele><time>2026-05-02T20:02:47Z</time></trkpt><trkpt lat="45.457331167094566" lon="12.128230312101286"><ele>0.0</ele><time>2026-05-02T20:02:48Z</time></trkpt><trkpt lat="45.45723643122881" lon="12.127762587248629"><ele>0.0</ele><time>2026-05-02T20:02:49Z</time></trkpt><trkpt lat="45.45713852193664" lon="12.127296057267587"><ele>0.0</ele><time>2026-05-02T20:02:50Z</time></trkpt><trkpt lat="45.457044206044515" lon="12.126832178421507"><ele>1.0</ele><time>2026-05-02T20:02:51Z</time></trkpt><trkpt lat="45.45695014421632" lon="12.126365672990039"><ele>2.0</ele><time>2026-05-02T20:02:52Z</time></trkpt><trkpt lat="45.45685420935027" lon="12.125898842897442"><ele>4.5</ele><time>2026-05-02T20:02:53Z</time></trkpt><trkpt lat="45.45675687181419" lon="12.125431622983076"><ele>7.0</ele><time>2026-05-02T20:02:54Z</time></trkpt><trkpt lat="45.45666171100959" lon="12.124967799818334"><ele>5.5</ele><time>2026-05-02T20:02:55Z</time></trkpt><trkpt lat="45.45656666090475" lon="12.124500634285116"><ele>4.0</ele><time>2026-05-02T20:02:56Z</time></trkpt><trkpt lat="45.456466799544145" lon="12.124036124376582"><ele>2.5</ele><time>2026-05-02T20:02:57Z</time></trkpt><trkpt lat="45.45636853947117" lon="12.123566938156111"><ele>1.0</ele><time>2026-05-02T20:02:58Z</time></trkpt><trkpt lat="45.45627491010436" lon="12.123102456042117"><ele>1.0</ele><time>2026-05-02T20:02:59Z</time></trkpt><trkpt lat="45.45617961381922" lon="12.1226365211887"><ele>1.0</ele><time>2026-05-02T20:03:00Z</time></trkpt><trkpt lat="45.45608438732188" lon="12.122170833957943"><ele>1.0</ele><time>2026-05-02T20:03:01Z</time></trkpt><trkpt lat="45.455990132837705" lon="12.12170828876419"><ele>1.0</ele><time>2026-05-02T20:03:02Z</time></trkpt><trkpt lat="45.455896967574155" lon="12.121242996443286"><ele>1.0</ele><time>2026-05-02T20:03:03Z</time></trkpt><trkpt lat="45.45580152424683" lon="12.120774705408316"><ele>1.0</ele><time>2026-05-02T20:03:04Z</time></trkpt><trkpt lat="45.455706809274524" lon="12.120309216189149"><ele>2.5</ele><time>2026-05-02T20:03:05Z</time></trkpt><trkpt lat="45.45560868501003" lon="12.119840003164475"><ele>4.0</ele><time>2026-05-02T20:03:06Z</time></trkpt><trkpt lat="45.45551148039014" lon="12.11936937926563"><ele>4.0</ele><time>2026-05-02T20:03:07Z</time></trkpt><trkpt lat="45.455420378596195" lon="12.118900115291641"><ele>4.0</ele><time>2026-05-02T20:03:08Z</time></trkpt><trkpt lat="45.45532290669801" lon="12.118429196143037"><ele>3.0</ele><time>2026-05-02T20:03:09Z</time></trkpt><trkpt lat="45.455225690072446" lon="12.117961790932412"><ele>2.0</ele><time>2026-05-02T20:03:10Z</time></trkpt><trkpt lat="45.45512759210372" lon="12.117492540081914"><ele>0.5</ele><time>2026-05-02T20:03:11Z</time></trkpt><trkpt lat="45.455034932576936" lon="12.117023893188382"><ele>-1.0</ele><time>2026-05-02T20:03:12Z</time></trkpt><trkpt lat="45.45493846795546" lon="12.11655015098128"><ele>-1.0</ele><time>2026-05-02T20:03:13Z</time></trkpt><trkpt lat="45.45484458226174" lon="12.11607804560292"><ele>-1.0</ele><time>2026-05-02T20:03:14Z</time></trkpt><trkpt lat="45.45474879241089" lon="12.115607983619052"><ele>-1.0</ele><time>2026-05-02T20:03:15Z</time></trkpt><trkpt lat="45.454652798161604" lon="12.115135952455168"><ele>-1.0</ele><time>2026-05-02T20:03:16Z</time></trkpt><trkpt lat="45.454559053073005" lon="12.1146671343214"><ele>-1.0</ele><time>2026-05-02T20:03:17Z</time></trkpt><trkpt lat="45.45446456910811" lon="12.114200016483467"><ele>-1.0</ele><time>2026-05-02T20:03:18Z</time></trkpt><trkpt lat="45.45436941438798" lon="12.113735220992083"><ele>-1.0</ele><time>2026-05-02T20:03:19Z</time></trkpt><trkpt lat="45.454274411860695" lon="12.113269126500771"><ele>-1.0</ele><time>2026-05-02T20:03:20Z</time></trkpt><trkpt lat="45.4541779826194" lon="12.112799838185628"><ele>0.0</ele><time>2026-05-02T20:03:21Z</time></trkpt><trkpt lat="45.45407841893772" lon="12.112330448664567"><ele>1.0</ele><time>2026-05-02T20:03:22Z</time></trkpt><trkpt lat="45.45397954359921" lon="12.111860643326269"><ele>0.0</ele><time>2026-05-02T20:03:23Z</time></trkpt><trkpt lat="45.45388558549329" lon="12.111393767470839"><ele>-1.0</ele><time>2026-05-02T20:03:24Z</time></trkpt><trkpt lat="45.453789340606015" lon="12.110925570755091"><ele>-0.5</ele><time>2026-05-02T20:03:25Z</time></trkpt><trkpt lat="45.45369773566896" lon="12.110456712743463"><ele>0.0</ele><time>2026-05-02T20:03:26Z</time></trkpt><trkpt lat="45.45360357875241" lon="12.10999159117066"><ele>0.0</ele><time>2026-05-02T20:03:27Z</time></trkpt><trkpt lat="45.45350788034948" lon="12.109523201636106"><ele>0.0</ele><time>2026-05-02T20:03:28Z</time></trkpt><trkpt lat="45.45341046738311" lon="12.109053543787336"><ele>0.5</ele><time>2026-05-02T20:03:29Z</time></trkpt><trkpt lat="45.45331398093757" lon="12.108586717855982"><ele>1.0</ele><time>2026-05-02T20:03:30Z</time></trkpt><trkpt lat="45.45321823211676" lon="12.108120126851182"><ele>1.0</ele><time>2026-05-02T20:03:31Z</time></trkpt><trkpt lat="45.453123911225006" lon="12.107656914779506"><ele>1.0</ele><time>2026-05-02T20:03:32Z</time></trkpt><trkpt lat="45.4530304968431" lon="12.107192421925662"><ele>1.0</ele><time>2026-05-02T20:03:33Z</time></trkpt><trkpt lat="45.452937179899656" lon="12.106726429301379"><ele>1.0</ele><time>2026-05-02T20:03:34Z</time></trkpt><trkpt lat="45.45284313913547" lon="12.106261576692011"><ele>1.0</ele><time>2026-05-02T20:03:35Z</time></trkpt><trkpt lat="45.45274517642556" lon="12.105789914061251"><ele>1.0</ele><time>2026-05-02T20:03:36Z</time></trkpt><trkpt lat="45.452645611441504" lon="12.105321614867659"><ele>0.5</ele><time>2026-05-02T20:03:37Z</time></trkpt><trkpt lat="45.452549998803626" lon="12.104855932901572"><ele>0.0</ele><time>2026-05-02T20:03:38Z</time></trkpt><trkpt lat="45.45245622513549" lon="12.104392435758074"><ele>0.5</ele><time>2026-05-02T20:03:39Z</time></trkpt><trkpt lat="45.452355768854055" lon="12.103922414057841"><ele>1.0</ele><time>2026-05-02T20:03:40Z</time></trkpt><trkpt lat="45.45226219874554" lon="12.103455916450619"><ele>0.5</ele><time>2026-05-02T20:03:41Z</time></trkpt><trkpt lat="45.452168236310726" lon="12.1029902346276"><ele>0.0</ele><time>2026-05-02T20:03:42Z</time></trkpt><trkpt lat="45.45207148941914" lon="12.102525402202511"><ele>0.5</ele><time>2026-05-02T20:03:43Z</time></trkpt><trkpt lat="45.45197393169323" lon="12.102058380879019"><ele>1.0</ele><time>2026-05-02T20:03:44Z</time></trkpt><trkpt lat="45.45187743618778" lon="12.101588324447327"><ele>1.0</ele><time>2026-05-02T20:03:45Z</time></trkpt><trkpt lat="45.451785583406114" lon="12.10112306136017"><ele>1.0</ele><time>2026-05-02T20:03:46Z</time></trkpt><trkpt lat="45.45169038418008" lon="12.100655066386208"><ele>1.0</ele><time>2026-05-02T20:03:47Z</time></trkpt><trkpt lat="45.45159655814236" lon="12.100189371486985"><ele>1.0</ele><time>2026-05-02T20:03:48Z</time></trkpt><trkpt lat="45.45150095469339" lon="12.099722216041634"><ele>1.0</ele><time>2026-05-02T20:03:49Z</time></trkpt><trkpt lat="45.4514012758877" lon="12.0992521768576"><ele>1.0</ele><time>2026-05-02T20:03:50Z</time></trkpt><trkpt lat="45.45130201385743" lon="12.0987833350407"><ele>1.5</ele><time>2026-05-02T20:03:51Z</time></trkpt><trkpt lat="45.45120463620332" lon="12.098312843094435"><ele>2.0</ele><time>2026-05-02T20:03:52Z</time></trkpt><trkpt lat="45.45110727099576" lon="12.097844177635741"><ele>1.5</ele><time>2026-05-02T20:03:53Z</time></trkpt><trkpt lat="45.451010432708905" lon="12.097386256320275"><ele>1.0</ele><time>2026-05-02T20:03:54Z</time></trkpt><trkpt lat="45.45091797956676" lon="12.096939199124856"><ele>1.0</ele><time>2026-05-02T20:03:55Z</time></trkpt><trkpt lat="45.45082718558192" lon="12.096495487112788"><ele>1.0</ele><time>2026-05-02T20:03:56Z</time></trkpt><trkpt lat="45.45074757673322" lon="12.096067836299875"><ele>1.0</ele><time>2026-05-02T20:03:57Z</time></trkpt><trkpt lat="45.45066613533785" lon="12.095644438760502"><ele>1.0</ele><time>2026-05-02T20:03:58Z</time></trkpt><trkpt lat="45.45058367817119" lon="12.095227739917295"><ele>1.0</ele><time>2026-05-02T20:03:59Z</time></trkpt><trkpt lat="45.450503755574154" lon="12.094820412043134"><ele>1.0</ele><time>2026-05-02T20:04:00Z</time></trkpt><trkpt lat="45.45042832970031" lon="12.094419103133053"><ele>1.5</ele><time>2026-05-02T20:04:01Z</time></trkpt><trkpt lat="45.45035766140523" lon="12.094021132267974"><ele>2.0</ele><time>2026-05-02T20:04:02Z</time></trkpt><trkpt lat="45.45028584092104" lon="12.09362582678254"><ele>0.5</ele><time>2026-05-02T20:04:03Z</time></trkpt><trkpt lat="45.45021396677099" lon="12.093230406814712"><ele>-1.0</ele><time>2026-05-02T20:04:04Z</time></trkpt><trkpt lat="45.450152371679216" lon="12.092839929470811"><ele>-1.0</ele><time>2026-05-02T20:04:05Z</time></trkpt><trkpt lat="45.45008698194189" lon="12.092443815821904"><ele>-1.0</ele><time>2026-05-02T20:04:06Z</time></trkpt><trkpt lat="45.45002120411404" lon="12.092046281070468"><ele>-1.0</ele><time>2026-05-02T20:04:07Z</time></trkpt><trkpt lat="45.449952792841025" lon="12.091653279903037"><ele>-1.0</ele><time>2026-05-02T20:04:08Z</time></trkpt><trkpt lat="45.44988999757084" lon="12.09126743813725"><ele>0.0</ele><time>2026-05-02T20:04:09Z</time></trkpt><trkpt lat="45.44982235501273" lon="12.090880378392281"><ele>1.0</ele><time>2026-05-02T20:04:10Z</time></trkpt><trkpt lat="45.44974810312243" lon="12.090491334491796"><ele>2.0</ele><time>2026-05-02T20:04:11Z</time></trkpt><trkpt lat="45.4496702157753" lon="12.090099433309595"><ele>3.0</ele><time>2026-05-02T20:04:12Z</time></trkpt><trkpt lat="45.449588729592406" lon="12.089705190152918"><ele>3.0</ele><time>2026-05-02T20:04:13Z</time></trkpt><trkpt lat="45.449505398195186" lon="12.08931769920389"><ele>3.0</ele><time>2026-05-02T20:04:14Z</time></trkpt><trkpt lat="45.449425090576845" lon="12.088936523128707"><ele>3.0</ele><time>2026-05-02T20:04:15Z</time></trkpt><trkpt lat="45.44934702198098" lon="12.088561470534694"><ele>3.0</ele><time>2026-05-02T20:04:16Z</time></trkpt><trkpt lat="45.449278862475076" lon="12.088198793115556"><ele>3.0</ele><time>2026-05-02T20:04:17Z</time></trkpt><trkpt lat="45.44922028709879" lon="12.087848415093298"><ele>3.0</ele><time>2026-05-02T20:04:18Z</time></trkpt><trkpt lat="45.449168907715446" lon="12.087507080424327"><ele>2.5</ele><time>2026-05-02T20:04:19Z</time></trkpt><trkpt lat="45.44913768786047" lon="12.087171714327061"><ele>2.0</ele><time>2026-05-02T20:04:20Z</time></trkpt><trkpt lat="45.44912171224229" lon="12.08683858791265"><ele>2.0</ele><time>2026-05-02T20:04:21Z</time></trkpt><trkpt lat="45.44913976568557" lon="12.086513226851025"><ele>2.0</ele><time>2026-05-02T20:04:22Z</time></trkpt><trkpt lat="45.449177525597975" lon="12.086201508565855"><ele>2.0</ele><time>2026-05-02T20:04:23Z</time></trkpt><trkpt lat="45.44921886785889" lon="12.08590738060318"><ele>2.0</ele><time>2026-05-02T20:04:24Z</time></trkpt><trkpt lat="45.4492549025317" lon="12.085625475663448"><ele>2.0</ele><time>2026-05-02T20:04:25Z</time></trkpt><trkpt lat="45.449282317061865" lon="12.08534658748963"><ele>2.0</ele><time>2026-05-02T20:04:26Z</time></trkpt><trkpt lat="45.44927570110517" lon="12.085057553709294"><ele>2.0</ele><time>2026-05-02T20:04:27Z</time></trkpt><trkpt lat="45.449249521571325" lon="12.08477183101103"><ele>2.0</ele><time>2026-05-02T20:04:28Z</time></trkpt><trkpt lat="45.449203393378546" lon="12.084487916132508"><ele>2.333333333333333</ele><time>2026-05-02T20:04:29Z</time></trkpt><trkpt lat="45.44914103986746" lon="12.084222302082162"><ele>2.6666666666666665</ele><time>2026-05-02T20:04:30Z</time></trkpt><trkpt lat="45.44904815526766" lon="12.083940676395233"><ele>3.0</ele><time>2026-05-02T20:04:31Z</time></trkpt><trkpt lat="45.44894308518487" lon="12.08365951310092"><ele>2.5</ele><time>2026-05-02T20:04:32Z</time></trkpt><trkpt lat="45.44882096631031" lon="12.083374482419709"><ele>2.0</ele><time>2026-05-02T20:04:33Z</time></trkpt><trkpt lat="45.448690986185575" lon="12.083092052398069"><ele>2.0</ele><time>2026-05-02T20:04:34Z</time></trkpt><trkpt lat="45.44855722773767" lon="12.082793460857541"><ele>2.0</ele><time>2026-05-02T20:04:35Z</time></trkpt><trkpt lat="45.4484280308643" lon="12.082484729364577"><ele>2.5</ele><time>2026-05-02T20:04:36Z</time></trkpt><trkpt lat="45.44830515960865" lon="12.082165738162715"><ele>3.0</ele><time>2026-05-02T20:04:37Z</time></trkpt><trkpt lat="45.4481805905244" lon="12.081830175274273"><ele>3.5</ele><time>2026-05-02T20:04:38Z</time></trkpt><trkpt lat="45.448058092715435" lon="12.08148170598834"><ele>4.0</ele><time>2026-05-02T20:04:39Z</time></trkpt><trkpt lat="45.44793928002593" lon="12.081125218146937"><ele>3.5</ele><time>2026-05-02T20:04:40Z</time></trkpt><trkpt lat="45.44782621668516" lon="12.080764932251006"><ele>3.0</ele><time>2026-05-02T20:04:41Z</time></trkpt><trkpt lat="45.44771842015272" lon="12.080406927963795"><ele>3.0</ele><time>2026-05-02T20:04:42Z</time></trkpt><trkpt lat="45.4476167597369" lon="12.080045626545475"><ele>3.0</ele><time>2026-05-02T20:04:43Z</time></trkpt><trkpt lat="45.4475227353935" lon="12.079676624597445"><ele>2.5</ele><time>2026-05-02T20:04:44Z</time></trkpt><trkpt lat="45.447436795315035" lon="12.079298009343592"><ele>2.0</ele><time>2026-05-02T20:04:45Z</time></trkpt><trkpt lat="45.44735112559522" lon="12.07891870831081"><ele>2.0</ele><time>2026-05-02T20:04:46Z</time></trkpt><trkpt lat="45.44726499365307" lon="12.078554217717413"><ele>2.0</ele><time>2026-05-02T20:04:47Z</time></trkpt><trkpt lat="45.44718074352134" lon="12.078199072113236"><ele>2.5</ele><time>2026-05-02T20:04:48Z</time></trkpt><trkpt lat="45.447103530659156" lon="12.077864670699853"><ele>3.0</ele><time>2026-05-02T20:04:49Z</time></trkpt><trkpt lat="45.447032999068384" lon="12.077541126027837"><ele>3.5</ele><time>2026-05-02T20:04:50Z</time></trkpt><trkpt lat="45.446965314123034" lon="12.077222755972004"><ele>4.0</ele><time>2026-05-02T20:04:51Z</time></trkpt><trkpt lat="45.44689741889685" lon="12.076909583384747"><ele>4.0</ele><time>2026-05-02T20:04:52Z</time></trkpt><trkpt lat="45.44682657293692" lon="12.076597771187243"><ele>4.0</ele><time>2026-05-02T20:04:53Z</time></trkpt><trkpt lat="45.44675363001701" lon="12.076282895355765"><ele>4.0</ele><time>2026-05-02T20:04:54Z</time></trkpt><trkpt lat="45.44668624867301" lon="12.075962118556673"><ele>4.0</ele><time>2026-05-02T20:04:55Z</time></trkpt><trkpt lat="45.44661583127558" lon="12.075631281386174"><ele>4.5</ele><time>2026-05-02T20:04:56Z</time></trkpt><trkpt lat="45.446544334840716" lon="12.075301181419123"><ele>5.0</ele><time>2026-05-02T20:04:57Z</time></trkpt><trkpt lat="45.44647351988788" lon="12.074969667648555"><ele>5.5</ele><time>2026-05-02T20:04:58Z</time></trkpt><trkpt lat="45.446399319605554" lon="12.074636084203467"><ele>6.0</ele><time>2026-05-02T20:04:59Z</time></trkpt><trkpt lat="45.4463268347871" lon="12.074304082322996"><ele>6.0</ele><time>2026-05-02T20:05:00Z</time></trkpt><trkpt lat="45.446255560612855" lon="12.073973017528866"><ele>6.0</ele><time>2026-05-02T20:05:01Z</time></trkpt><trkpt lat="45.446188798308164" lon="12.073645038308989"><ele>6.0</ele><time>2026-05-02T20:05:02Z</time></trkpt><trkpt lat="45.446116579879636" lon="12.073316934525574"><ele>6.0</ele><time>2026-05-02T20:05:03Z</time></trkpt><trkpt lat="45.446033979900655" lon="12.072976562828366"><ele>5.5</ele><time>2026-05-02T20:05:04Z</time></trkpt><trkpt lat="45.44595745351882" lon="12.072629405459482"><ele>5.0</ele><time>2026-05-02T20:05:05Z</time></trkpt><trkpt lat="45.44587727555358" lon="12.07225465375199"><ele>5.0</ele><time>2026-05-02T20:05:06Z</time></trkpt><trkpt lat="45.44579539954663" lon="12.071872494437782"><ele>5.0</ele><time>2026-05-02T20:05:07Z</time></trkpt><trkpt lat="45.44571308219905" lon="12.07148159186796"><ele>5.0</ele><time>2026-05-02T20:05:08Z</time></trkpt><trkpt lat="45.445632481870646" lon="12.071092506886044"><ele>5.0</ele><time>2026-05-02T20:05:09Z</time></trkpt><trkpt lat="45.445553574698394" lon="12.070694262022423"><ele>4.0</ele><time>2026-05-02T20:05:10Z</time></trkpt><trkpt lat="45.4454728548815" lon="12.070288487968629"><ele>3.0</ele><time>2026-05-02T20:05:11Z</time></trkpt><trkpt lat="45.4453828315382" lon="12.069878981032955"><ele>3.0</ele><time>2026-05-02T20:05:12Z</time></trkpt><trkpt lat="45.445293574740944" lon="12.069467207254942"><ele>3.0</ele><time>2026-05-02T20:05:13Z</time></trkpt><trkpt lat="45.44520663818259" lon="12.069050352599463"><ele>3.0</ele><time>2026-05-02T20:05:14Z</time></trkpt><trkpt lat="45.44511609498353" lon="12.068620881164488"><ele>3.0</ele><time>2026-05-02T20:05:15Z</time></trkpt><trkpt lat="45.445027548795295" lon="12.068189332983417"><ele>3.0</ele><time>2026-05-02T20:05:16Z</time></trkpt><trkpt lat="45.44493855840934" lon="12.067751531029804"><ele>3.0</ele><time>2026-05-02T20:05:17Z</time></trkpt><trkpt lat="45.44484772044044" lon="12.067309196048583"><ele>2.5</ele><time>2026-05-02T20:05:18Z</time></trkpt><trkpt lat="45.44475408324877" lon="12.066862877490312"><ele>2.0</ele><time>2026-05-02T20:05:19Z</time></trkpt><trkpt lat="45.44465376670472" lon="12.066414105556385"><ele>2.0</ele><time>2026-05-02T20:05:20Z</time></trkpt><trkpt lat="45.444553655749736" lon="12.065960258924264"><ele>2.0</ele><time>2026-05-02T20:05:21Z</time></trkpt><trkpt lat="45.444456215956706" lon="12.065505422781742"><ele>2.0</ele><time>2026-05-02T20:05:22Z</time></trkpt><trkpt lat="45.4443585985969" lon="12.065047089600347"><ele>2.0</ele><time>2026-05-02T20:05:23Z</time></trkpt><trkpt lat="45.44426461382314" lon="12.064582159846077"><ele>2.5</ele><time>2026-05-02T20:05:24Z</time></trkpt><trkpt lat="45.4441671761839" lon="12.064116155389108"><ele>3.0</ele><time>2026-05-02T20:05:25Z</time></trkpt><trkpt lat="45.44407011554024" lon="12.063649842169664"><ele>2.5</ele><time>2026-05-02T20:05:26Z</time></trkpt><trkpt lat="45.443974356365494" lon="12.063179444527739"><ele>2.0</ele><time>2026-05-02T20:05:27Z</time></trkpt><trkpt lat="45.44387674743756" lon="12.06270882504201"><ele>2.0</ele><time>2026-05-02T20:05:28Z</time></trkpt><trkpt lat="45.44378336602231" lon="12.062243006348734"><ele>2.0</ele><time>2026-05-02T20:05:29Z</time></trkpt><trkpt lat="45.443690990180826" lon="12.061777245602219"><ele>2.0</ele><time>2026-05-02T20:05:30Z</time></trkpt><trkpt lat="45.44359451595368" lon="12.061310040459038"><ele>2.0</ele><time>2026-05-02T20:05:31Z</time></trkpt><trkpt lat="45.44349660862001" lon="12.060841256969608"><ele>2.0</ele><time>2026-05-02T20:05:32Z</time></trkpt><trkpt lat="45.443399877904916" lon="12.060374415342022"><ele>2.0</ele><time>2026-05-02T20:05:33Z</time></trkpt><trkpt lat="45.44330371493491" lon="12.05990486671807"><ele>2.0</ele><time>2026-05-02T20:05:34Z</time></trkpt><trkpt lat="45.44320926190677" lon="12.059438305429337"><ele>2.0</ele><time>2026-05-02T20:05:35Z</time></trkpt><trkpt lat="45.44311152543648" lon="12.058974380988769"><ele>2.5</ele><time>2026-05-02T20:05:36Z</time></trkpt><trkpt lat="45.44301559357609" lon="12.058506496818675"><ele>3.0</ele><time>2026-05-02T20:05:37Z</time></trkpt><trkpt lat="45.442919475999645" lon="12.058039186155048"><ele>3.0</ele><time>2026-05-02T20:05:38Z</time></trkpt><trkpt lat="45.44282552605548" lon="12.057570915473145"><ele>3.0</ele><time>2026-05-02T20:05:39Z</time></trkpt><trkpt lat="45.44272777834681" lon="12.057101718642864"><ele>2.5</ele><time>2026-05-02T20:05:40Z</time></trkpt><trkpt lat="45.44263038072867" lon="12.056633812408606"><ele>2.0</ele><time>2026-05-02T20:05:41Z</time></trkpt><trkpt lat="45.44253278946904" lon="12.056163401270021"><ele>3.5</ele><time>2026-05-02T20:05:42Z</time></trkpt><trkpt lat="45.442439944101565" lon="12.055695400293898"><ele>5.0</ele><time>2026-05-02T20:05:43Z</time></trkpt><trkpt lat="45.4423425765205" lon="12.05522350959419"><ele>3.5</ele><time>2026-05-02T20:05:44Z</time></trkpt><trkpt lat="45.44224777956773" lon="12.054756534354418"><ele>2.0</ele><time>2026-05-02T20:05:45Z</time></trkpt><trkpt lat="45.4421488790804" lon="12.054287289630723"><ele>2.5</ele><time>2026-05-02T20:05:46Z</time></trkpt><trkpt lat="45.442052190406066" lon="12.053816991673141"><ele>3.0</ele><time>2026-05-02T20:05:47Z</time></trkpt><trkpt lat="45.44195969687303" lon="12.053349415615795"><ele>3.0</ele><time>2026-05-02T20:05:48Z</time></trkpt><trkpt lat="45.441862758334956" lon="12.05287893907347"><ele>3.0</ele><time>2026-05-02T20:05:49Z</time></trkpt><trkpt lat="45.441767153551545" lon="12.052414022401171"><ele>3.0</ele><time>2026-05-02T20:05:50Z</time></trkpt><trkpt lat="45.44166877332988" lon="12.05194399220255"><ele>3.0</ele><time>2026-05-02T20:05:51Z</time></trkpt><trkpt lat="45.44157116538281" lon="12.051478431810088"><ele>3.5</ele><time>2026-05-02T20:05:52Z</time></trkpt><trkpt lat="45.44147572568736" lon="12.051010930076695"><ele>4.0</ele><time>2026-05-02T20:05:53Z</time></trkpt><trkpt lat="45.44137611583183" lon="12.050542071379013"><ele>3.5</ele><time>2026-05-02T20:05:54Z</time></trkpt><trkpt lat="45.44128402593911" lon="12.050075809613089"><ele>3.0</ele><time>2026-05-02T20:05:55Z</time></trkpt><trkpt lat="45.441189076035094" lon="12.049607124203463"><ele>2.5</ele><time>2026-05-02T20:05:56Z</time></trkpt><trkpt lat="45.441094178921695" lon="12.04913875414424"><ele>2.0</ele><time>2026-05-02T20:05:57Z</time></trkpt><trkpt lat="45.44100005203989" lon="12.048671317443505"><ele>2.5</ele><time>2026-05-02T20:05:58Z</time></trkpt><trkpt lat="45.44090253387795" lon="12.048203579151872"><ele>3.0</ele><time>2026-05-02T20:05:59Z</time></trkpt><trkpt lat="45.440810737255696" lon="12.04773613979236"><ele>4.0</ele><time>2026-05-02T20:06:00Z</time></trkpt><trkpt lat="45.44071330396178" lon="12.047266907320838"><ele>5.0</ele><time>2026-05-02T20:06:01Z</time></trkpt><trkpt lat="45.4406174318809" lon="12.046802111840307"><ele>5.0</ele><time>2026-05-02T20:06:02Z</time></trkpt><trkpt lat="45.44052227622331" lon="12.046336406325667"><ele>5.0</ele><time>2026-05-02T20:06:03Z</time></trkpt><trkpt lat="45.44042629995902" lon="12.045872033772236"><ele>5.0</ele><time>2026-05-02T20:06:04Z</time></trkpt><trkpt lat="45.44033246646179" lon="12.045404531072455"><ele>5.0</ele><time>2026-05-02T20:06:05Z</time></trkpt><trkpt lat="45.440234513840444" lon="12.044938803184204"><ele>5.0</ele><time>2026-05-02T20:06:06Z</time></trkpt><trkpt lat="45.440139287673496" lon="12.044475162525764"><ele>5.0</ele><time>2026-05-02T20:06:07Z</time></trkpt><trkpt lat="45.44004769870806" lon="12.044003758620068"><ele>5.0</ele><time>2026-05-02T20:06:08Z</time></trkpt><trkpt lat="45.439949641272996" lon="12.043532119721618"><ele>5.0</ele><time>2026-05-02T20:06:09Z</time></trkpt><trkpt lat="45.439855896948245" lon="12.043061096592204"><ele>5.0</ele><time>2026-05-02T20:06:10Z</time></trkpt><trkpt lat="45.43976427695746" lon="12.042587987982547"><ele>5.0</ele><time>2026-05-02T20:06:11Z</time></trkpt><trkpt lat="45.43967669735324" lon="12.042117686202035"><ele>4.5</ele><time>2026-05-02T20:06:12Z</time></trkpt><trkpt lat="45.439582486212615" lon="12.041648634110064"><ele>4.0</ele><time>2026-05-02T20:06:13Z</time></trkpt><trkpt lat="45.439486180493425" lon="12.041180792318938"><ele>4.0</ele><time>2026-05-02T20:06:14Z</time></trkpt><trkpt lat="45.439392784570494" lon="12.040712767607248"><ele>4.0</ele><time>2026-05-02T20:06:15Z</time></trkpt><trkpt lat="45.43930294171494" lon="12.040253045539782"><ele>4.0</ele><time>2026-05-02T20:06:16Z</time></trkpt><trkpt lat="45.43920602526169" lon="12.03980154182657"><ele>4.0</ele><time>2026-05-02T20:06:17Z</time></trkpt><trkpt lat="45.439116675998086" lon="12.039356074019548"><ele>4.0</ele><time>2026-05-02T20:06:18Z</time></trkpt><trkpt lat="45.4390281242191" lon="12.038914308923093"><ele>4.0</ele><time>2026-05-02T20:06:19Z</time></trkpt><trkpt lat="45.43894136799013" lon="12.038474652051933"><ele>4.0</ele><time>2026-05-02T20:06:20Z</time></trkpt><trkpt lat="45.4388513783793" lon="12.038043473223"><ele>4.0</ele><time>2026-05-02T20:06:21Z</time></trkpt><trkpt lat="45.43876169473602" lon="12.03761478350765"><ele>3.5</ele><time>2026-05-02T20:06:22Z</time></trkpt><trkpt lat="45.438674155253985" lon="12.037187279714795"><ele>3.0</ele><time>2026-05-02T20:06:23Z</time></trkpt><trkpt lat="45.43858142242606" lon="12.036759741879433"><ele>3.5</ele><time>2026-05-02T20:06:24Z</time></trkpt><trkpt lat="45.43848919411182" lon="12.036335737893042"><ele>4.0</ele><time>2026-05-02T20:06:25Z</time></trkpt><trkpt lat="45.43840047199924" lon="12.035907282873211"><ele>4.5</ele><time>2026-05-02T20:06:26Z</time></trkpt><trkpt lat="45.43830997941961" lon="12.035479991482658"><ele>5.0</ele><time>2026-05-02T20:06:27Z</time></trkpt><trkpt lat="45.43821589122407" lon="12.03505286106649"><ele>5.0</ele><time>2026-05-02T20:06:28Z</time></trkpt><trkpt lat="45.438121456961056" lon="12.034626018084682"><ele>5.0</ele><time>2026-05-02T20:06:29Z</time></trkpt><trkpt lat="45.438025691135635" lon="12.034195414339216"><ele>4.5</ele><time>2026-05-02T20:06:30Z</time></trkpt><trkpt lat="45.437927241729525" lon="12.03375659656164"><ele>4.0</ele><time>2026-05-02T20:06:31Z</time></trkpt><trkpt lat="45.43783283092145" lon="12.033315553870347"><ele>4.0</ele><time>2026-05-02T20:06:32Z</time></trkpt><trkpt lat="45.437739577757775" lon="12.032871880886972"><ele>4.0</ele><time>2026-05-02T20:06:33Z</time></trkpt><trkpt lat="45.437651556222704" lon="12.03242751198576"><ele>4.0</ele><time>2026-05-02T20:06:34Z</time></trkpt><trkpt lat="45.43756017214684" lon="12.03198092072276"><ele>4.0</ele><time>2026-05-02T20:06:35Z</time></trkpt><trkpt lat="45.43746924867787" lon="12.0315309087107"><ele>4.0</ele><time>2026-05-02T20:06:36Z</time></trkpt><trkpt lat="45.4373770467942" lon="12.031082659246582"><ele>4.0</ele><time>2026-05-02T20:06:37Z</time></trkpt><trkpt lat="45.43728373544307" lon="12.03062958448157"><ele>4.0</ele><time>2026-05-02T20:06:38Z</time></trkpt><trkpt lat="45.43718814188082" lon="12.03017603689978"><ele>4.0</ele><time>2026-05-02T20:06:39Z</time></trkpt><trkpt lat="45.43709041209833" lon="12.029715766652238"><ele>4.0</ele><time>2026-05-02T20:06:40Z</time></trkpt><trkpt lat="45.43699383307482" lon="12.029247680984822"><ele>4.0</ele><time>2026-05-02T20:06:41Z</time></trkpt><trkpt lat="45.43689807887443" lon="12.028783984254948"><ele>4.0</ele><time>2026-05-02T20:06:42Z</time></trkpt><trkpt lat="45.43680301764348" lon="12.028314969107488"><ele>4.0</ele><time>2026-05-02T20:06:43Z</time></trkpt><trkpt lat="45.43670709961533" lon="12.027846219405548"><ele>4.5</ele><time>2026-05-02T20:06:44Z</time></trkpt><trkpt lat="45.43661225146572" lon="12.02737661063226"><ele>5.0</ele><time>2026-05-02T20:06:45Z</time></trkpt><trkpt lat="45.43651734239142" lon="12.026906537796485"><ele>4.5</ele><time>2026-05-02T20:06:46Z</time></trkpt><trkpt lat="45.43641997206782" lon="12.02643535387444"><ele>4.0</ele><time>2026-05-02T20:06:47Z</time></trkpt><trkpt lat="45.43632607663507" lon="12.025966960571266"><ele>4.5</ele><time>2026-05-02T20:06:48Z</time></trkpt><trkpt lat="45.4362317648921" lon="12.025499299658582"><ele>5.0</ele><time>2026-05-02T20:06:49Z</time></trkpt><trkpt lat="45.436137706025164" lon="12.025035610919565"><ele>5.0</ele><time>2026-05-02T20:06:50Z</time></trkpt><trkpt lat="45.436043472506654" lon="12.024569836167968"><ele>5.0</ele><time>2026-05-02T20:06:51Z</time></trkpt><trkpt lat="45.435949514113005" lon="12.02410545648996"><ele>5.0</ele><time>2026-05-02T20:06:52Z</time></trkpt><trkpt lat="45.43585209699687" lon="12.023638158303728"><ele>5.0</ele><time>2026-05-02T20:06:53Z</time></trkpt><trkpt lat="45.435757244795504" lon="12.023171785239448"><ele>4.5</ele><time>2026-05-02T20:06:54Z</time></trkpt><trkpt lat="45.43566103186498" lon="12.022703254553031"><ele>4.0</ele><time>2026-05-02T20:06:55Z</time></trkpt><trkpt lat="45.43556280761931" lon="12.022232385039333"><ele>3.5</ele><time>2026-05-02T20:06:56Z</time></trkpt><trkpt lat="45.435461247485385" lon="12.021766903566634"><ele>3.0</ele><time>2026-05-02T20:06:57Z</time></trkpt><trkpt lat="45.43536536088272" lon="12.021300041210067"><ele>3.0</ele><time>2026-05-02T20:06:58Z</time></trkpt><trkpt lat="45.43526938308946" lon="12.02082848823369"><ele>3.0</ele><time>2026-05-02T20:06:59Z</time></trkpt><trkpt lat="45.435172444204994" lon="12.020354481750486"><ele>3.5</ele><time>2026-05-02T20:07:00Z</time></trkpt><trkpt lat="45.43507507895618" lon="12.019884431311977"><ele>4.0</ele><time>2026-05-02T20:07:01Z</time></trkpt><trkpt lat="45.43497676585363" lon="12.019412517471824"><ele>4.0</ele><time>2026-05-02T20:07:02Z</time></trkpt><trkpt lat="45.43488246332942" lon="12.018945645224075"><ele>4.0</ele><time>2026-05-02T20:07:03Z</time></trkpt><trkpt lat="45.43478769560901" lon="12.018477374023133"><ele>4.0</ele><time>2026-05-02T20:07:04Z</time></trkpt><trkpt lat="45.43468983839975" lon="12.0180073311591"><ele>4.0</ele><time>2026-05-02T20:07:05Z</time></trkpt><trkpt lat="45.43459247431842" lon="12.017541606831879"><ele>4.0</ele><time>2026-05-02T20:07:06Z</time></trkpt><trkpt lat="45.434498054585056" lon="12.017075073667895"><ele>4.0</ele><time>2026-05-02T20:07:07Z</time></trkpt><trkpt lat="45.43439839294999" lon="12.016610687062023"><ele>5.0</ele><time>2026-05-02T20:07:08Z</time></trkpt><trkpt lat="45.43429821587937" lon="12.016145052094037"><ele>6.0</ele><time>2026-05-02T20:07:09Z</time></trkpt><trkpt lat="45.434204200017014" lon="12.01567892897322"><ele>6.0</ele><time>2026-05-02T20:07:10Z</time></trkpt><trkpt lat="45.434108529736896" lon="12.015210301212774"><ele>6.0</ele><time>2026-05-02T20:07:11Z</time></trkpt><trkpt lat="45.43400921385222" lon="12.014740788353329"><ele>5.0</ele><time>2026-05-02T20:07:12Z</time></trkpt><trkpt lat="45.43391492642147" lon="12.014274139034361"><ele>4.0</ele><time>2026-05-02T20:07:13Z</time></trkpt><trkpt lat="45.43382163599731" lon="12.013807988756144"><ele>4.0</ele><time>2026-05-02T20:07:14Z</time></trkpt><trkpt lat="45.433723466198266" lon="12.013339910215699"><ele>4.0</ele><time>2026-05-02T20:07:15Z</time></trkpt><trkpt lat="45.43362673930945" lon="12.012871806658499"><ele>3.0</ele><time>2026-05-02T20:07:16Z</time></trkpt><trkpt lat="45.43353041340206" lon="12.012405405390128"><ele>3.0</ele><time>2026-05-02T20:07:17Z</time></trkpt></trkseg></trk></gpx>